<?xml version="1.0" encoding="UTF-8" standalone="no" ?>
<gpx xmlns="http://www.topografix.com/GPX/1/1" xmlns:xsi="http://www.w3.org/2001/XMLSchema-instance" xsi:schemaLocation="http://www.topografix.com/GPX/1/1 http://www.topografix.com/GPX/1/1/gpx.xsd" version="1.1" creator="VisuGPX - https://www.visugpx.com">
  <metadata>
    <name>Montferrier 2018 pinedes du lez</name>
    <desc><![CDATA[
]]></desc>
  </metadata>
  <wpt lat="43.66535" lon="3.8559">
    <ele>80.7</ele>
    <name><![CDATA[Montferrier  (départ)]]></name>
  </wpt>
  <wpt lat="43.66742" lon="3.85752">
    <ele>75.3</ele>
    <name><![CDATA[Montferrier  (fin)]]></name>
    <desc><![CDATA[Créé par Mes parcours sur Android

Nom : Montferrier 
Type d'activité : cyclisme
Description : -
Distance totale : 32,47 km (20,2 mi)
Durée totale : 2:50:53
Durée du déplacement : 2:46:00
Vitesse moyenne : 11,40 km/h (7,1 mi/h)
Vitesse moyenne de déplacement : 11,74 km/h (7,3 mi/h)
Vitesse max. : 34,34 km/h (21,3 mi/h)
Vitesse moyenne : 5:16 min/km (8:28 min/mi)
Allure moyenne : 5:07 min/km (8:14 min/mi)
Vitesse maximale : 1:45 min/km (2:49 min/mi)
Élévation max. : 184 m (604 pi)
Élévation min. : 92 m (303 pi)
Dénivelé : 605 m (1984 pi)
Pente max. : 17 %
Pente min. : -16 %
Date d'enregistrement : 16/9/2018 08:12]]></desc>
  </wpt>
  <trk>
    <name><![CDATA[Montferrier]]></name>
    <desc><![CDATA[<table cellspacing="0" cellpadding="2" border="1" style="border-collapse:collapse"><tr><td><b>type</b></td><td>cyclisme</td></tr></table>]]></desc>
    <extensions>
      <line xmlns="http://www.topografix.com/GPX/gpx_style/0/2">
        <color>0000FF</color>
        <width>4</width>
      </line>
    </extensions>
    <trkseg>
      <trkpt lat="43.66535" lon="3.8559">
        <ele>80.7</ele>
        <time>2018-09-16T06:12:47.299Z</time>
      </trkpt>
      <trkpt lat="43.66526" lon="3.8559">
        <ele>80.9</ele>
        <time>2018-09-16T06:13:59Z</time>
      </trkpt>
      <trkpt lat="43.66525" lon="3.8559">
        <ele>80.9</ele>
        <time>2018-09-16T06:14:00Z</time>
      </trkpt>
      <trkpt lat="43.66518" lon="3.85592">
        <ele>80.6</ele>
        <time>2018-09-16T06:14:06Z</time>
      </trkpt>
      <trkpt lat="43.66516" lon="3.85592">
        <ele>80.6</ele>
        <time>2018-09-16T06:14:07Z</time>
      </trkpt>
      <trkpt lat="43.66507" lon="3.85594">
        <ele>80.3</ele>
        <time>2018-09-16T06:14:10Z</time>
      </trkpt>
      <trkpt lat="43.66504" lon="3.85595">
        <ele>80.1</ele>
        <time>2018-09-16T06:14:11Z</time>
      </trkpt>
      <trkpt lat="43.66497" lon="3.85599">
        <ele>80</ele>
        <time>2018-09-16T06:14:14Z</time>
      </trkpt>
      <trkpt lat="43.66495" lon="3.85603">
        <ele>80</ele>
        <time>2018-09-16T06:14:15Z</time>
      </trkpt>
      <trkpt lat="43.66494" lon="3.85614">
        <ele>80.1</ele>
        <time>2018-09-16T06:14:16Z</time>
      </trkpt>
      <trkpt lat="43.66495" lon="3.85621">
        <ele>80.3</ele>
        <time>2018-09-16T06:14:17Z</time>
      </trkpt>
      <trkpt lat="43.66495" lon="3.85632">
        <ele>80.6</ele>
        <time>2018-09-16T06:14:19Z</time>
      </trkpt>
      <trkpt lat="43.66496" lon="3.85634">
        <ele>80.7</ele>
        <time>2018-09-16T06:14:20Z</time>
      </trkpt>
      <trkpt lat="43.66499" lon="3.85645">
        <ele>81</ele>
        <time>2018-09-16T06:14:23Z</time>
      </trkpt>
      <trkpt lat="43.66499" lon="3.85648">
        <ele>81</ele>
        <time>2018-09-16T06:14:24Z</time>
      </trkpt>
      <trkpt lat="43.665" lon="3.85658">
        <ele>81</ele>
        <time>2018-09-16T06:14:27Z</time>
      </trkpt>
      <trkpt lat="43.665" lon="3.85662">
        <ele>81</ele>
        <time>2018-09-16T06:14:28Z</time>
      </trkpt>
      <trkpt lat="43.66502" lon="3.8567">
        <ele>81.1</ele>
        <time>2018-09-16T06:14:30Z</time>
      </trkpt>
      <trkpt lat="43.66504" lon="3.85674">
        <ele>81.2</ele>
        <time>2018-09-16T06:14:31Z</time>
      </trkpt>
      <trkpt lat="43.66508" lon="3.85682">
        <ele>81.4</ele>
        <time>2018-09-16T06:14:33Z</time>
      </trkpt>
      <trkpt lat="43.66515" lon="3.85695">
        <ele>81.5</ele>
        <time>2018-09-16T06:14:34Z</time>
      </trkpt>
      <trkpt lat="43.66523" lon="3.85696">
        <ele>81.2</ele>
        <time>2018-09-16T06:14:36Z</time>
      </trkpt>
      <trkpt lat="43.66527" lon="3.85698">
        <ele>81.2</ele>
        <time>2018-09-16T06:14:37Z</time>
      </trkpt>
      <trkpt lat="43.66534" lon="3.85698">
        <ele>80.9</ele>
        <time>2018-09-16T06:14:39Z</time>
      </trkpt>
      <trkpt lat="43.66537" lon="3.85696">
        <ele>80.7</ele>
        <time>2018-09-16T06:14:40Z</time>
      </trkpt>
      <trkpt lat="43.6654" lon="3.85696">
        <ele>80.6</ele>
        <time>2018-09-16T06:14:41Z</time>
      </trkpt>
      <trkpt lat="43.66546" lon="3.85694">
        <ele>80.3</ele>
        <time>2018-09-16T06:14:42Z</time>
      </trkpt>
      <trkpt lat="43.66553" lon="3.85695">
        <ele>80.1</ele>
        <time>2018-09-16T06:14:43Z</time>
      </trkpt>
      <trkpt lat="43.66557" lon="3.85695">
        <ele>80</ele>
        <time>2018-09-16T06:14:44Z</time>
      </trkpt>
      <trkpt lat="43.66563" lon="3.85695">
        <ele>80</ele>
        <time>2018-09-16T06:14:45Z</time>
      </trkpt>
      <trkpt lat="43.66568" lon="3.85696">
        <ele>80</ele>
        <time>2018-09-16T06:14:46Z</time>
      </trkpt>
      <trkpt lat="43.66575" lon="3.85696">
        <ele>80</ele>
        <time>2018-09-16T06:14:47Z</time>
      </trkpt>
      <trkpt lat="43.66578" lon="3.85695">
        <ele>80</ele>
        <time>2018-09-16T06:14:48Z</time>
      </trkpt>
      <trkpt lat="43.66583" lon="3.85695">
        <ele>80</ele>
        <time>2018-09-16T06:14:49Z</time>
      </trkpt>
      <trkpt lat="43.66588" lon="3.85695">
        <ele>79.8</ele>
        <time>2018-09-16T06:14:50Z</time>
      </trkpt>
      <trkpt lat="43.66593" lon="3.85696">
        <ele>79.7</ele>
        <time>2018-09-16T06:14:51Z</time>
      </trkpt>
      <trkpt lat="43.66597" lon="3.85697">
        <ele>79.6</ele>
        <time>2018-09-16T06:14:52Z</time>
      </trkpt>
      <trkpt lat="43.66606" lon="3.85697">
        <ele>79.3</ele>
        <time>2018-09-16T06:14:54Z</time>
      </trkpt>
      <trkpt lat="43.66611" lon="3.85699">
        <ele>79.2</ele>
        <time>2018-09-16T06:14:55Z</time>
      </trkpt>
      <trkpt lat="43.66615" lon="3.85707">
        <ele>79.3</ele>
        <time>2018-09-16T06:14:57Z</time>
      </trkpt>
      <trkpt lat="43.66618" lon="3.85711">
        <ele>79.3</ele>
        <time>2018-09-16T06:14:58Z</time>
      </trkpt>
      <trkpt lat="43.66622" lon="3.85722">
        <ele>79.6</ele>
        <time>2018-09-16T06:15:01Z</time>
      </trkpt>
      <trkpt lat="43.66623" lon="3.85731">
        <ele>79.6</ele>
        <time>2018-09-16T06:15:02Z</time>
      </trkpt>
      <trkpt lat="43.66624" lon="3.85742">
        <ele>79.5</ele>
        <time>2018-09-16T06:15:05Z</time>
      </trkpt>
      <trkpt lat="43.66622" lon="3.85745">
        <ele>79.6</ele>
        <time>2018-09-16T06:15:06Z</time>
      </trkpt>
      <trkpt lat="43.66622" lon="3.8575">
        <ele>79.6</ele>
        <time>2018-09-16T06:15:07Z</time>
      </trkpt>
      <trkpt lat="43.66618" lon="3.85761">
        <ele>80.1</ele>
        <time>2018-09-16T06:15:07.924Z</time>
      </trkpt>
      <trkpt lat="43.66618" lon="3.85762">
        <ele>80.2</ele>
        <time>2018-09-16T06:15:08Z</time>
      </trkpt>
      <trkpt lat="43.66622" lon="3.85769">
        <ele>80.3</ele>
        <time>2018-09-16T06:15:10Z</time>
      </trkpt>
      <trkpt lat="43.66622" lon="3.85774">
        <ele>80.5</ele>
        <time>2018-09-16T06:15:11Z</time>
      </trkpt>
      <trkpt lat="43.66626" lon="3.85781">
        <ele>80.6</ele>
        <time>2018-09-16T06:15:14Z</time>
      </trkpt>
      <trkpt lat="43.66628" lon="3.85785">
        <ele>80.7</ele>
        <time>2018-09-16T06:15:15Z</time>
      </trkpt>
      <trkpt lat="43.66629" lon="3.85795">
        <ele>81</ele>
        <time>2018-09-16T06:15:18Z</time>
      </trkpt>
      <trkpt lat="43.66628" lon="3.858">
        <ele>81.2</ele>
        <time>2018-09-16T06:15:19Z</time>
      </trkpt>
      <trkpt lat="43.66628" lon="3.85811">
        <ele>81.6</ele>
        <time>2018-09-16T06:15:21Z</time>
      </trkpt>
      <trkpt lat="43.66629" lon="3.85816">
        <ele>81.7</ele>
        <time>2018-09-16T06:15:22Z</time>
      </trkpt>
      <trkpt lat="43.66628" lon="3.85825">
        <ele>82.1</ele>
        <time>2018-09-16T06:15:25Z</time>
      </trkpt>
      <trkpt lat="43.66628" lon="3.85828">
        <ele>82.2</ele>
        <time>2018-09-16T06:15:26Z</time>
      </trkpt>
      <trkpt lat="43.66625" lon="3.85839">
        <ele>82.9</ele>
        <time>2018-09-16T06:15:29Z</time>
      </trkpt>
      <trkpt lat="43.66623" lon="3.85843">
        <ele>83.3</ele>
        <time>2018-09-16T06:15:30Z</time>
      </trkpt>
      <trkpt lat="43.66621" lon="3.85851">
        <ele>83.9</ele>
        <time>2018-09-16T06:15:32Z</time>
      </trkpt>
      <trkpt lat="43.66619" lon="3.85855">
        <ele>84.3</ele>
        <time>2018-09-16T06:15:33Z</time>
      </trkpt>
      <trkpt lat="43.66617" lon="3.85866">
        <ele>85.2</ele>
        <time>2018-09-16T06:15:36Z</time>
      </trkpt>
      <trkpt lat="43.66616" lon="3.85869">
        <ele>85.4</ele>
        <time>2018-09-16T06:15:37Z</time>
      </trkpt>
      <trkpt lat="43.66615" lon="3.85881">
        <ele>86.4</ele>
        <time>2018-09-16T06:15:40Z</time>
      </trkpt>
      <trkpt lat="43.66615" lon="3.85884">
        <ele>86.6</ele>
        <time>2018-09-16T06:15:41Z</time>
      </trkpt>
      <trkpt lat="43.66612" lon="3.85895">
        <ele>87.4</ele>
        <time>2018-09-16T06:15:44Z</time>
      </trkpt>
      <trkpt lat="43.66604" lon="3.8591">
        <ele>88.1</ele>
        <time>2018-09-16T06:15:45Z</time>
      </trkpt>
      <trkpt lat="43.66605" lon="3.85922">
        <ele>88.7</ele>
        <time>2018-09-16T06:15:50Z</time>
      </trkpt>
      <trkpt lat="43.66606" lon="3.85924">
        <ele>88.8</ele>
        <time>2018-09-16T06:15:51Z</time>
      </trkpt>
      <trkpt lat="43.66607" lon="3.85933">
        <ele>89.2</ele>
        <time>2018-09-16T06:15:54Z</time>
      </trkpt>
      <trkpt lat="43.66607" lon="3.85937">
        <ele>89.3</ele>
        <time>2018-09-16T06:15:55Z</time>
      </trkpt>
      <trkpt lat="43.66608" lon="3.85948">
        <ele>89.8</ele>
        <time>2018-09-16T06:15:58Z</time>
      </trkpt>
      <trkpt lat="43.66608" lon="3.85952">
        <ele>89.9</ele>
        <time>2018-09-16T06:15:59Z</time>
      </trkpt>
      <trkpt lat="43.66609" lon="3.85964">
        <ele>90.4</ele>
        <time>2018-09-16T06:16:03Z</time>
      </trkpt>
      <trkpt lat="43.6661" lon="3.85967">
        <ele>90.7</ele>
        <time>2018-09-16T06:16:04Z</time>
      </trkpt>
      <trkpt lat="43.66608" lon="3.85975">
        <ele>90.6</ele>
        <time>2018-09-16T06:16:07Z</time>
      </trkpt>
      <trkpt lat="43.66597" lon="3.85982">
        <ele>89</ele>
        <time>2018-09-16T06:16:08Z</time>
      </trkpt>
      <trkpt lat="43.66591" lon="3.85988">
        <ele>87.8</ele>
        <time>2018-09-16T06:16:10Z</time>
      </trkpt>
      <trkpt lat="43.66588" lon="3.8599">
        <ele>87.2</ele>
        <time>2018-09-16T06:16:11Z</time>
      </trkpt>
      <trkpt lat="43.66587" lon="3.85995">
        <ele>86.9</ele>
        <time>2018-09-16T06:16:13Z</time>
      </trkpt>
      <trkpt lat="43.6659" lon="3.86011">
        <ele>87.5</ele>
        <time>2018-09-16T06:16:14Z</time>
      </trkpt>
      <trkpt lat="43.66596" lon="3.86021">
        <ele>89.1</ele>
        <time>2018-09-16T06:16:20Z</time>
      </trkpt>
      <trkpt lat="43.66596" lon="3.86024">
        <ele>89.1</ele>
        <time>2018-09-16T06:16:21Z</time>
      </trkpt>
      <trkpt lat="43.66597" lon="3.86036">
        <ele>89.3</ele>
        <time>2018-09-16T06:16:24Z</time>
      </trkpt>
      <trkpt lat="43.66595" lon="3.86053">
        <ele>88.4</ele>
        <time>2018-09-16T06:16:25Z</time>
      </trkpt>
      <trkpt lat="43.66593" lon="3.86061">
        <ele>87.6</ele>
        <time>2018-09-16T06:16:26Z</time>
      </trkpt>
      <trkpt lat="43.66594" lon="3.86066">
        <ele>87.7</ele>
        <time>2018-09-16T06:16:27Z</time>
      </trkpt>
      <trkpt lat="43.66593" lon="3.86075">
        <ele>87.1</ele>
        <time>2018-09-16T06:16:28Z</time>
      </trkpt>
      <trkpt lat="43.66594" lon="3.86084">
        <ele>87</ele>
        <time>2018-09-16T06:16:29Z</time>
      </trkpt>
      <trkpt lat="43.66594" lon="3.86091">
        <ele>86.5</ele>
        <time>2018-09-16T06:16:30Z</time>
      </trkpt>
      <trkpt lat="43.66596" lon="3.86099">
        <ele>86.5</ele>
        <time>2018-09-16T06:16:31Z</time>
      </trkpt>
      <trkpt lat="43.66598" lon="3.86106">
        <ele>86.6</ele>
        <time>2018-09-16T06:16:32Z</time>
      </trkpt>
      <trkpt lat="43.666" lon="3.86111">
        <ele>86.8</ele>
        <time>2018-09-16T06:16:33Z</time>
      </trkpt>
      <trkpt lat="43.66607" lon="3.86119">
        <ele>87.5</ele>
        <time>2018-09-16T06:16:37Z</time>
      </trkpt>
      <trkpt lat="43.66608" lon="3.86122">
        <ele>87.2</ele>
        <time>2018-09-16T06:16:38Z</time>
      </trkpt>
      <trkpt lat="43.66619" lon="3.86129">
        <ele>88.5</ele>
        <time>2018-09-16T06:16:39Z</time>
      </trkpt>
      <trkpt lat="43.66623" lon="3.86135">
        <ele>88.3</ele>
        <time>2018-09-16T06:16:42Z</time>
      </trkpt>
      <trkpt lat="43.6663" lon="3.86144">
        <ele>87.9</ele>
        <time>2018-09-16T06:16:43Z</time>
      </trkpt>
      <trkpt lat="43.66635" lon="3.86149">
        <ele>87.7</ele>
        <time>2018-09-16T06:16:45Z</time>
      </trkpt>
      <trkpt lat="43.66637" lon="3.86152">
        <ele>87.4</ele>
        <time>2018-09-16T06:16:46Z</time>
      </trkpt>
      <trkpt lat="43.66643" lon="3.86161">
        <ele>85.9</ele>
        <time>2018-09-16T06:16:50Z</time>
      </trkpt>
      <trkpt lat="43.66646" lon="3.86163">
        <ele>85.8</ele>
        <time>2018-09-16T06:16:51Z</time>
      </trkpt>
      <trkpt lat="43.66651" lon="3.86164">
        <ele>86.1</ele>
        <time>2018-09-16T06:16:53Z</time>
      </trkpt>
      <trkpt lat="43.66664" lon="3.86167">
        <ele>86.6</ele>
        <time>2018-09-16T06:16:54Z</time>
      </trkpt>
      <trkpt lat="43.6667" lon="3.86169">
        <ele>86.4</ele>
        <time>2018-09-16T06:16:55Z</time>
      </trkpt>
      <trkpt lat="43.66675" lon="3.86174">
        <ele>85</ele>
        <time>2018-09-16T06:16:56Z</time>
      </trkpt>
      <trkpt lat="43.66682" lon="3.86178">
        <ele>84</ele>
        <time>2018-09-16T06:16:57Z</time>
      </trkpt>
      <trkpt lat="43.66689" lon="3.86179">
        <ele>84.2</ele>
        <time>2018-09-16T06:16:58Z</time>
      </trkpt>
      <trkpt lat="43.66698" lon="3.86178">
        <ele>85</ele>
        <time>2018-09-16T06:17:00Z</time>
      </trkpt>
      <trkpt lat="43.66706" lon="3.86182">
        <ele>83.7</ele>
        <time>2018-09-16T06:17:01Z</time>
      </trkpt>
      <trkpt lat="43.66712" lon="3.86177">
        <ele>85.5</ele>
        <time>2018-09-16T06:17:05Z</time>
      </trkpt>
      <trkpt lat="43.66714" lon="3.86176">
        <ele>85.9</ele>
        <time>2018-09-16T06:17:06Z</time>
      </trkpt>
      <trkpt lat="43.6672" lon="3.8617">
        <ele>87.9</ele>
        <time>2018-09-16T06:17:09Z</time>
      </trkpt>
      <trkpt lat="43.66722" lon="3.86168">
        <ele>88.6</ele>
        <time>2018-09-16T06:17:10Z</time>
      </trkpt>
      <trkpt lat="43.66729" lon="3.86163">
        <ele>89.5</ele>
        <time>2018-09-16T06:17:15Z</time>
      </trkpt>
      <trkpt lat="43.6673" lon="3.86161">
        <ele>90</ele>
        <time>2018-09-16T06:17:16Z</time>
      </trkpt>
      <trkpt lat="43.66736" lon="3.86155">
        <ele>91.2</ele>
        <time>2018-09-16T06:17:21Z</time>
      </trkpt>
      <trkpt lat="43.66737" lon="3.86154">
        <ele>91.3</ele>
        <time>2018-09-16T06:17:22Z</time>
      </trkpt>
      <trkpt lat="43.66744" lon="3.8615">
        <ele>91.8</ele>
        <time>2018-09-16T06:17:26Z</time>
      </trkpt>
      <trkpt lat="43.66746" lon="3.86149">
        <ele>91.8</ele>
        <time>2018-09-16T06:17:27Z</time>
      </trkpt>
      <trkpt lat="43.66751" lon="3.86141">
        <ele>93.3</ele>
        <time>2018-09-16T06:17:31Z</time>
      </trkpt>
      <trkpt lat="43.66752" lon="3.86139">
        <ele>93.6</ele>
        <time>2018-09-16T06:17:32Z</time>
      </trkpt>
      <trkpt lat="43.66757" lon="3.86131">
        <ele>93.8</ele>
        <time>2018-09-16T06:17:36Z</time>
      </trkpt>
      <trkpt lat="43.66758" lon="3.86128">
        <ele>94</ele>
        <time>2018-09-16T06:17:37Z</time>
      </trkpt>
      <trkpt lat="43.66762" lon="3.86118">
        <ele>94.5</ele>
        <time>2018-09-16T06:17:41Z</time>
      </trkpt>
      <trkpt lat="43.66762" lon="3.86115">
        <ele>94.9</ele>
        <time>2018-09-16T06:17:42Z</time>
      </trkpt>
      <trkpt lat="43.66766" lon="3.86107">
        <ele>94.7</ele>
        <time>2018-09-16T06:17:45Z</time>
      </trkpt>
      <trkpt lat="43.66767" lon="3.86104">
        <ele>94.6</ele>
        <time>2018-09-16T06:17:46Z</time>
      </trkpt>
      <trkpt lat="43.66769" lon="3.86097">
        <ele>94.4</ele>
        <time>2018-09-16T06:17:49Z</time>
      </trkpt>
      <trkpt lat="43.66772" lon="3.86084">
        <ele>94.2</ele>
        <time>2018-09-16T06:17:50Z</time>
      </trkpt>
      <trkpt lat="43.66773" lon="3.86077">
        <ele>93.8</ele>
        <time>2018-09-16T06:17:51Z</time>
      </trkpt>
      <trkpt lat="43.66772" lon="3.86069">
        <ele>93.6</ele>
        <time>2018-09-16T06:17:52Z</time>
      </trkpt>
      <trkpt lat="43.66772" lon="3.86062">
        <ele>93.3</ele>
        <time>2018-09-16T06:17:53Z</time>
      </trkpt>
      <trkpt lat="43.66772" lon="3.86052">
        <ele>92.8</ele>
        <time>2018-09-16T06:17:54Z</time>
      </trkpt>
      <trkpt lat="43.66768" lon="3.86042">
        <ele>92.6</ele>
        <time>2018-09-16T06:17:55Z</time>
      </trkpt>
      <trkpt lat="43.66766" lon="3.8603">
        <ele>91.9</ele>
        <time>2018-09-16T06:17:56Z</time>
      </trkpt>
      <trkpt lat="43.66763" lon="3.86021">
        <ele>91.1</ele>
        <time>2018-09-16T06:17:57Z</time>
      </trkpt>
      <trkpt lat="43.6676" lon="3.86012">
        <ele>90.1</ele>
        <time>2018-09-16T06:17:58Z</time>
      </trkpt>
      <trkpt lat="43.66757" lon="3.86">
        <ele>88.5</ele>
        <time>2018-09-16T06:17:59Z</time>
      </trkpt>
      <trkpt lat="43.66753" lon="3.85988">
        <ele>87.4</ele>
        <time>2018-09-16T06:18:00Z</time>
      </trkpt>
      <trkpt lat="43.6675" lon="3.85982">
        <ele>87.1</ele>
        <time>2018-09-16T06:18:01Z</time>
      </trkpt>
      <trkpt lat="43.66747" lon="3.85972">
        <ele>86.5</ele>
        <time>2018-09-16T06:18:02Z</time>
      </trkpt>
      <trkpt lat="43.66744" lon="3.85964">
        <ele>86.4</ele>
        <time>2018-09-16T06:18:03Z</time>
      </trkpt>
      <trkpt lat="43.66743" lon="3.85961">
        <ele>86.2</ele>
        <time>2018-09-16T06:18:04Z</time>
      </trkpt>
      <trkpt lat="43.66752" lon="3.85956">
        <ele>84.6</ele>
        <time>2018-09-16T06:18:13Z</time>
      </trkpt>
      <trkpt lat="43.66752" lon="3.85957">
        <ele>84.6</ele>
        <time>2018-09-16T06:18:14Z</time>
      </trkpt>
      <trkpt lat="43.6676" lon="3.85957">
        <ele>83.6</ele>
        <time>2018-09-16T06:18:25Z</time>
      </trkpt>
      <trkpt lat="43.66762" lon="3.85959">
        <ele>83.5</ele>
        <time>2018-09-16T06:18:26Z</time>
      </trkpt>
      <trkpt lat="43.66768" lon="3.85965">
        <ele>83.4</ele>
        <time>2018-09-16T06:18:29Z</time>
      </trkpt>
      <trkpt lat="43.6677" lon="3.85967">
        <ele>83.3</ele>
        <time>2018-09-16T06:18:30Z</time>
      </trkpt>
      <trkpt lat="43.66777" lon="3.85973">
        <ele>83.2</ele>
        <time>2018-09-16T06:18:38Z</time>
      </trkpt>
      <trkpt lat="43.66778" lon="3.85973">
        <ele>83.1</ele>
        <time>2018-09-16T06:18:39Z</time>
      </trkpt>
      <trkpt lat="43.6678" lon="3.85975">
        <ele>83.1</ele>
        <time>2018-09-16T06:18:42Z</time>
      </trkpt>
      <trkpt lat="43.66781" lon="3.85975">
        <ele>82.9</ele>
        <time>2018-09-16T06:18:43Z</time>
      </trkpt>
      <trkpt lat="43.66782" lon="3.85975">
        <ele>82.8</ele>
        <time>2018-09-16T06:18:44Z</time>
      </trkpt>
      <trkpt lat="43.6679" lon="3.85978">
        <ele>82</ele>
        <time>2018-09-16T06:18:51Z</time>
      </trkpt>
      <trkpt lat="43.66792" lon="3.85979">
        <ele>81.8</ele>
        <time>2018-09-16T06:18:52Z</time>
      </trkpt>
      <trkpt lat="43.66798" lon="3.85986">
        <ele>81.7</ele>
        <time>2018-09-16T06:18:57Z</time>
      </trkpt>
      <trkpt lat="43.668" lon="3.85987">
        <ele>81.5</ele>
        <time>2018-09-16T06:18:58Z</time>
      </trkpt>
      <trkpt lat="43.66806" lon="3.85995">
        <ele>81.4</ele>
        <time>2018-09-16T06:19:06Z</time>
      </trkpt>
      <trkpt lat="43.66806" lon="3.85997">
        <ele>81.6</ele>
        <time>2018-09-16T06:19:07Z</time>
      </trkpt>
      <trkpt lat="43.66809" lon="3.86008">
        <ele>81.9</ele>
        <time>2018-09-16T06:19:15Z</time>
      </trkpt>
      <trkpt lat="43.66809" lon="3.86009">
        <ele>82</ele>
        <time>2018-09-16T06:19:16Z</time>
      </trkpt>
      <trkpt lat="43.6681" lon="3.86013">
        <ele>82.1</ele>
        <time>2018-09-16T06:19:24Z</time>
      </trkpt>
      <trkpt lat="43.6681" lon="3.86014">
        <ele>82.2</ele>
        <time>2018-09-16T06:19:27Z</time>
      </trkpt>
      <trkpt lat="43.66814" lon="3.86023">
        <ele>81.9</ele>
        <time>2018-09-16T06:19:47Z</time>
      </trkpt>
      <trkpt lat="43.66815" lon="3.86024">
        <ele>81.6</ele>
        <time>2018-09-16T06:19:48Z</time>
      </trkpt>
      <trkpt lat="43.66823" lon="3.86028">
        <ele>79.4</ele>
        <time>2018-09-16T06:19:53Z</time>
      </trkpt>
      <trkpt lat="43.66825" lon="3.86029">
        <ele>78.7</ele>
        <time>2018-09-16T06:19:54Z</time>
      </trkpt>
      <trkpt lat="43.66832" lon="3.86035">
        <ele>76.7</ele>
        <time>2018-09-16T06:20:00Z</time>
      </trkpt>
      <trkpt lat="43.66834" lon="3.86036">
        <ele>76.1</ele>
        <time>2018-09-16T06:20:01Z</time>
      </trkpt>
      <trkpt lat="43.66839" lon="3.86046">
        <ele>75.2</ele>
        <time>2018-09-16T06:20:06Z</time>
      </trkpt>
      <trkpt lat="43.6684" lon="3.86047">
        <ele>74.9</ele>
        <time>2018-09-16T06:20:07Z</time>
      </trkpt>
      <trkpt lat="43.66847" lon="3.86049">
        <ele>73.2</ele>
        <time>2018-09-16T06:20:10Z</time>
      </trkpt>
      <trkpt lat="43.6685" lon="3.86048">
        <ele>72.4</ele>
        <time>2018-09-16T06:20:11Z</time>
      </trkpt>
      <trkpt lat="43.66858" lon="3.86045">
        <ele>70.1</ele>
        <time>2018-09-16T06:20:14Z</time>
      </trkpt>
      <trkpt lat="43.66861" lon="3.86045">
        <ele>69.3</ele>
        <time>2018-09-16T06:20:15Z</time>
      </trkpt>
      <trkpt lat="43.66871" lon="3.86047">
        <ele>67.1</ele>
        <time>2018-09-16T06:20:16Z</time>
      </trkpt>
      <trkpt lat="43.66875" lon="3.86051">
        <ele>66.3</ele>
        <time>2018-09-16T06:20:17Z</time>
      </trkpt>
      <trkpt lat="43.6688" lon="3.86055">
        <ele>65.2</ele>
        <time>2018-09-16T06:20:18Z</time>
      </trkpt>
      <trkpt lat="43.66883" lon="3.86061">
        <ele>64.5</ele>
        <time>2018-09-16T06:20:19Z</time>
      </trkpt>
      <trkpt lat="43.66885" lon="3.86067">
        <ele>64</ele>
        <time>2018-09-16T06:20:20Z</time>
      </trkpt>
      <trkpt lat="43.66887" lon="3.86072">
        <ele>63.5</ele>
        <time>2018-09-16T06:20:21Z</time>
      </trkpt>
      <trkpt lat="43.6689" lon="3.86078">
        <ele>62.8</ele>
        <time>2018-09-16T06:20:22Z</time>
      </trkpt>
      <trkpt lat="43.66895" lon="3.86089">
        <ele>61.9</ele>
        <time>2018-09-16T06:20:24Z</time>
      </trkpt>
      <trkpt lat="43.66897" lon="3.86094">
        <ele>61.5</ele>
        <time>2018-09-16T06:20:25Z</time>
      </trkpt>
      <trkpt lat="43.66904" lon="3.86096">
        <ele>60.3</ele>
        <time>2018-09-16T06:20:27Z</time>
      </trkpt>
      <trkpt lat="43.66907" lon="3.86092">
        <ele>59.7</ele>
        <time>2018-09-16T06:20:28Z</time>
      </trkpt>
      <trkpt lat="43.66911" lon="3.86083">
        <ele>59</ele>
        <time>2018-09-16T06:20:30Z</time>
      </trkpt>
      <trkpt lat="43.66916" lon="3.86078">
        <ele>58.1</ele>
        <time>2018-09-16T06:20:31Z</time>
      </trkpt>
      <trkpt lat="43.66929" lon="3.86074">
        <ele>57.7</ele>
        <time>2018-09-16T06:20:32Z</time>
      </trkpt>
      <trkpt lat="43.66941" lon="3.86073">
        <ele>57.4</ele>
        <time>2018-09-16T06:20:33Z</time>
      </trkpt>
      <trkpt lat="43.66947" lon="3.86073">
        <ele>57.5</ele>
        <time>2018-09-16T06:20:34Z</time>
      </trkpt>
      <trkpt lat="43.66955" lon="3.86075">
        <ele>57.8</ele>
        <time>2018-09-16T06:20:35Z</time>
      </trkpt>
      <trkpt lat="43.66961" lon="3.86078">
        <ele>57.9</ele>
        <time>2018-09-16T06:20:36Z</time>
      </trkpt>
      <trkpt lat="43.66969" lon="3.8608">
        <ele>58.1</ele>
        <time>2018-09-16T06:20:37Z</time>
      </trkpt>
      <trkpt lat="43.66975" lon="3.86083">
        <ele>58.2</ele>
        <time>2018-09-16T06:20:38Z</time>
      </trkpt>
      <trkpt lat="43.6698" lon="3.86086">
        <ele>58.4</ele>
        <time>2018-09-16T06:20:39Z</time>
      </trkpt>
      <trkpt lat="43.66989" lon="3.86087">
        <ele>58.9</ele>
        <time>2018-09-16T06:20:41Z</time>
      </trkpt>
      <trkpt lat="43.66993" lon="3.86089">
        <ele>59</ele>
        <time>2018-09-16T06:20:42Z</time>
      </trkpt>
      <trkpt lat="43.67001" lon="3.8609">
        <ele>59.3</ele>
        <time>2018-09-16T06:20:46Z</time>
      </trkpt>
      <trkpt lat="43.67003" lon="3.8609">
        <ele>59.2</ele>
        <time>2018-09-16T06:20:47Z</time>
      </trkpt>
      <trkpt lat="43.67009" lon="3.86088">
        <ele>59.2</ele>
        <time>2018-09-16T06:20:49Z</time>
      </trkpt>
      <trkpt lat="43.67019" lon="3.86087">
        <ele>59</ele>
        <time>2018-09-16T06:20:50Z</time>
      </trkpt>
      <trkpt lat="43.67024" lon="3.86087">
        <ele>58.9</ele>
        <time>2018-09-16T06:20:51Z</time>
      </trkpt>
      <trkpt lat="43.67029" lon="3.86087">
        <ele>58.7</ele>
        <time>2018-09-16T06:20:52Z</time>
      </trkpt>
      <trkpt lat="43.67035" lon="3.86088">
        <ele>58.4</ele>
        <time>2018-09-16T06:20:54Z</time>
      </trkpt>
      <trkpt lat="43.67039" lon="3.8609">
        <ele>58.1</ele>
        <time>2018-09-16T06:20:55Z</time>
      </trkpt>
      <trkpt lat="43.67047" lon="3.86091">
        <ele>57.8</ele>
        <time>2018-09-16T06:20:58Z</time>
      </trkpt>
      <trkpt lat="43.67053" lon="3.86087">
        <ele>57.8</ele>
        <time>2018-09-16T06:20:59Z</time>
      </trkpt>
      <trkpt lat="43.67057" lon="3.86084">
        <ele>57.9</ele>
        <time>2018-09-16T06:21:00Z</time>
      </trkpt>
      <trkpt lat="43.6706" lon="3.8608">
        <ele>58.3</ele>
        <time>2018-09-16T06:21:01Z</time>
      </trkpt>
      <trkpt lat="43.67066" lon="3.86072">
        <ele>59.1</ele>
        <time>2018-09-16T06:21:03Z</time>
      </trkpt>
      <trkpt lat="43.67069" lon="3.86068">
        <ele>59.5</ele>
        <time>2018-09-16T06:21:04Z</time>
      </trkpt>
      <trkpt lat="43.67074" lon="3.86061">
        <ele>60</ele>
        <time>2018-09-16T06:21:07Z</time>
      </trkpt>
      <trkpt lat="43.67076" lon="3.86058">
        <ele>60.2</ele>
        <time>2018-09-16T06:21:08Z</time>
      </trkpt>
      <trkpt lat="43.67082" lon="3.86051">
        <ele>60.7</ele>
        <time>2018-09-16T06:21:11Z</time>
      </trkpt>
      <trkpt lat="43.67084" lon="3.8605">
        <ele>60.8</ele>
        <time>2018-09-16T06:21:12Z</time>
      </trkpt>
      <trkpt lat="43.67091" lon="3.86042">
        <ele>61.5</ele>
        <time>2018-09-16T06:21:15Z</time>
      </trkpt>
      <trkpt lat="43.67093" lon="3.86039">
        <ele>61.8</ele>
        <time>2018-09-16T06:21:16Z</time>
      </trkpt>
      <trkpt lat="43.67098" lon="3.86033">
        <ele>62.3</ele>
        <time>2018-09-16T06:21:18Z</time>
      </trkpt>
      <trkpt lat="43.671" lon="3.86029">
        <ele>62.7</ele>
        <time>2018-09-16T06:21:19Z</time>
      </trkpt>
      <trkpt lat="43.67102" lon="3.86021">
        <ele>63.4</ele>
        <time>2018-09-16T06:21:21Z</time>
      </trkpt>
      <trkpt lat="43.67104" lon="3.86017">
        <ele>63.7</ele>
        <time>2018-09-16T06:21:22Z</time>
      </trkpt>
      <trkpt lat="43.67107" lon="3.86009">
        <ele>64.3</ele>
        <time>2018-09-16T06:21:24Z</time>
      </trkpt>
      <trkpt lat="43.67108" lon="3.86005">
        <ele>64.7</ele>
        <time>2018-09-16T06:21:25Z</time>
      </trkpt>
      <trkpt lat="43.67111" lon="3.85997">
        <ele>65.3</ele>
        <time>2018-09-16T06:21:27Z</time>
      </trkpt>
      <trkpt lat="43.67112" lon="3.85992">
        <ele>65.8</ele>
        <time>2018-09-16T06:21:28Z</time>
      </trkpt>
      <trkpt lat="43.67116" lon="3.85985">
        <ele>66.3</ele>
        <time>2018-09-16T06:21:30Z</time>
      </trkpt>
      <trkpt lat="43.67117" lon="3.85981">
        <ele>66.6</ele>
        <time>2018-09-16T06:21:31Z</time>
      </trkpt>
      <trkpt lat="43.67123" lon="3.85973">
        <ele>67.1</ele>
        <time>2018-09-16T06:21:34Z</time>
      </trkpt>
      <trkpt lat="43.67125" lon="3.8597">
        <ele>67.2</ele>
        <time>2018-09-16T06:21:35Z</time>
      </trkpt>
      <trkpt lat="43.67131" lon="3.85961">
        <ele>67.4</ele>
        <time>2018-09-16T06:21:38Z</time>
      </trkpt>
      <trkpt lat="43.67133" lon="3.85958">
        <ele>67.4</ele>
        <time>2018-09-16T06:21:39Z</time>
      </trkpt>
      <trkpt lat="43.67137" lon="3.85955">
        <ele>67.4</ele>
        <time>2018-09-16T06:21:41Z</time>
      </trkpt>
      <trkpt lat="43.67147" lon="3.85952">
        <ele>66.9</ele>
        <time>2018-09-16T06:21:42Z</time>
      </trkpt>
      <trkpt lat="43.67152" lon="3.85952">
        <ele>66.5</ele>
        <time>2018-09-16T06:21:43Z</time>
      </trkpt>
      <trkpt lat="43.67157" lon="3.85951">
        <ele>66.2</ele>
        <time>2018-09-16T06:21:44Z</time>
      </trkpt>
      <trkpt lat="43.67162" lon="3.85951">
        <ele>65.9</ele>
        <time>2018-09-16T06:21:45Z</time>
      </trkpt>
      <trkpt lat="43.67167" lon="3.85949">
        <ele>65.6</ele>
        <time>2018-09-16T06:21:46Z</time>
      </trkpt>
      <trkpt lat="43.67173" lon="3.85946">
        <ele>65.4</ele>
        <time>2018-09-16T06:21:47Z</time>
      </trkpt>
      <trkpt lat="43.67178" lon="3.85944">
        <ele>65.2</ele>
        <time>2018-09-16T06:21:48Z</time>
      </trkpt>
      <trkpt lat="43.67184" lon="3.8594">
        <ele>65</ele>
        <time>2018-09-16T06:21:49Z</time>
      </trkpt>
      <trkpt lat="43.67191" lon="3.8594">
        <ele>64.5</ele>
        <time>2018-09-16T06:21:50Z</time>
      </trkpt>
      <trkpt lat="43.67195" lon="3.85936">
        <ele>64.6</ele>
        <time>2018-09-16T06:21:51Z</time>
      </trkpt>
      <trkpt lat="43.67201" lon="3.85933">
        <ele>64.4</ele>
        <time>2018-09-16T06:21:52Z</time>
      </trkpt>
      <trkpt lat="43.67208" lon="3.85929">
        <ele>64.1</ele>
        <time>2018-09-16T06:21:53Z</time>
      </trkpt>
      <trkpt lat="43.67213" lon="3.85927">
        <ele>63.9</ele>
        <time>2018-09-16T06:21:54Z</time>
      </trkpt>
      <trkpt lat="43.67217" lon="3.85922">
        <ele>64</ele>
        <time>2018-09-16T06:21:55Z</time>
      </trkpt>
      <trkpt lat="43.67223" lon="3.85919">
        <ele>63.8</ele>
        <time>2018-09-16T06:21:56Z</time>
      </trkpt>
      <trkpt lat="43.67227" lon="3.85915">
        <ele>63.7</ele>
        <time>2018-09-16T06:21:57Z</time>
      </trkpt>
      <trkpt lat="43.67232" lon="3.8591">
        <ele>63.5</ele>
        <time>2018-09-16T06:21:58Z</time>
      </trkpt>
      <trkpt lat="43.67237" lon="3.85904">
        <ele>63.4</ele>
        <time>2018-09-16T06:21:59Z</time>
      </trkpt>
      <trkpt lat="43.67241" lon="3.859">
        <ele>63.2</ele>
        <time>2018-09-16T06:22:00Z</time>
      </trkpt>
      <trkpt lat="43.67246" lon="3.85894">
        <ele>63.1</ele>
        <time>2018-09-16T06:22:01Z</time>
      </trkpt>
      <trkpt lat="43.6725" lon="3.85888">
        <ele>63</ele>
        <time>2018-09-16T06:22:02Z</time>
      </trkpt>
      <trkpt lat="43.67254" lon="3.85887">
        <ele>62.9</ele>
        <time>2018-09-16T06:22:03Z</time>
      </trkpt>
      <trkpt lat="43.67258" lon="3.85882">
        <ele>63</ele>
        <time>2018-09-16T06:22:04Z</time>
      </trkpt>
      <trkpt lat="43.67264" lon="3.85874">
        <ele>63</ele>
        <time>2018-09-16T06:22:06Z</time>
      </trkpt>
      <trkpt lat="43.67267" lon="3.85872">
        <ele>63</ele>
        <time>2018-09-16T06:22:07Z</time>
      </trkpt>
      <trkpt lat="43.67274" lon="3.85869">
        <ele>62.9</ele>
        <time>2018-09-16T06:22:09Z</time>
      </trkpt>
      <trkpt lat="43.67276" lon="3.8587">
        <ele>62.7</ele>
        <time>2018-09-16T06:22:10Z</time>
      </trkpt>
      <trkpt lat="43.67282" lon="3.8587">
        <ele>62.7</ele>
        <time>2018-09-16T06:22:11Z</time>
      </trkpt>
      <trkpt lat="43.67286" lon="3.85869">
        <ele>62.7</ele>
        <time>2018-09-16T06:22:12Z</time>
      </trkpt>
      <trkpt lat="43.6729" lon="3.85869">
        <ele>62.7</ele>
        <time>2018-09-16T06:22:13Z</time>
      </trkpt>
      <trkpt lat="43.67296" lon="3.85871">
        <ele>62.6</ele>
        <time>2018-09-16T06:22:14Z</time>
      </trkpt>
      <trkpt lat="43.67301" lon="3.85871">
        <ele>62.6</ele>
        <time>2018-09-16T06:22:15Z</time>
      </trkpt>
      <trkpt lat="43.67305" lon="3.85869">
        <ele>62.7</ele>
        <time>2018-09-16T06:22:16Z</time>
      </trkpt>
      <trkpt lat="43.67309" lon="3.85868">
        <ele>62.7</ele>
        <time>2018-09-16T06:22:17Z</time>
      </trkpt>
      <trkpt lat="43.67316" lon="3.85868">
        <ele>62.7</ele>
        <time>2018-09-16T06:22:18Z</time>
      </trkpt>
      <trkpt lat="43.6732" lon="3.85866">
        <ele>62.7</ele>
        <time>2018-09-16T06:22:19Z</time>
      </trkpt>
      <trkpt lat="43.67325" lon="3.85863">
        <ele>62.9</ele>
        <time>2018-09-16T06:22:20Z</time>
      </trkpt>
      <trkpt lat="43.67332" lon="3.85857">
        <ele>63.1</ele>
        <time>2018-09-16T06:22:22Z</time>
      </trkpt>
      <trkpt lat="43.67335" lon="3.85853">
        <ele>63.2</ele>
        <time>2018-09-16T06:22:23Z</time>
      </trkpt>
      <trkpt lat="43.67341" lon="3.85847">
        <ele>63.2</ele>
        <time>2018-09-16T06:22:25Z</time>
      </trkpt>
      <trkpt lat="43.67344" lon="3.85844">
        <ele>63.2</ele>
        <time>2018-09-16T06:22:26Z</time>
      </trkpt>
      <trkpt lat="43.67348" lon="3.8584">
        <ele>63.2</ele>
        <time>2018-09-16T06:22:27Z</time>
      </trkpt>
      <trkpt lat="43.67352" lon="3.85836">
        <ele>63.2</ele>
        <time>2018-09-16T06:22:28Z</time>
      </trkpt>
      <trkpt lat="43.67359" lon="3.85829">
        <ele>63.2</ele>
        <time>2018-09-16T06:22:30Z</time>
      </trkpt>
      <trkpt lat="43.67362" lon="3.85825">
        <ele>63.3</ele>
        <time>2018-09-16T06:22:31Z</time>
      </trkpt>
      <trkpt lat="43.67368" lon="3.85819">
        <ele>63.3</ele>
        <time>2018-09-16T06:22:33Z</time>
      </trkpt>
      <trkpt lat="43.67371" lon="3.85816">
        <ele>63.3</ele>
        <time>2018-09-16T06:22:34Z</time>
      </trkpt>
      <trkpt lat="43.67379" lon="3.85813">
        <ele>63.1</ele>
        <time>2018-09-16T06:22:39Z</time>
      </trkpt>
      <trkpt lat="43.67381" lon="3.85822">
        <ele>62.7</ele>
        <time>2018-09-16T06:22:40Z</time>
      </trkpt>
      <trkpt lat="43.67381" lon="3.85829">
        <ele>62.4</ele>
        <time>2018-09-16T06:22:41Z</time>
      </trkpt>
      <trkpt lat="43.67381" lon="3.85836">
        <ele>62.3</ele>
        <time>2018-09-16T06:22:42Z</time>
      </trkpt>
      <trkpt lat="43.67382" lon="3.85843">
        <ele>62.2</ele>
        <time>2018-09-16T06:22:43Z</time>
      </trkpt>
      <trkpt lat="43.67382" lon="3.85849">
        <ele>62.1</ele>
        <time>2018-09-16T06:22:44Z</time>
      </trkpt>
      <trkpt lat="43.67382" lon="3.85856">
        <ele>62</ele>
        <time>2018-09-16T06:22:45Z</time>
      </trkpt>
      <trkpt lat="43.67382" lon="3.85863">
        <ele>61.9</ele>
        <time>2018-09-16T06:22:46Z</time>
      </trkpt>
      <trkpt lat="43.67382" lon="3.85869">
        <ele>61.7</ele>
        <time>2018-09-16T06:22:47Z</time>
      </trkpt>
      <trkpt lat="43.67383" lon="3.85875">
        <ele>61.5</ele>
        <time>2018-09-16T06:22:48Z</time>
      </trkpt>
      <trkpt lat="43.67383" lon="3.85882">
        <ele>61.2</ele>
        <time>2018-09-16T06:22:49Z</time>
      </trkpt>
      <trkpt lat="43.67384" lon="3.85889">
        <ele>61</ele>
        <time>2018-09-16T06:22:50Z</time>
      </trkpt>
      <trkpt lat="43.67385" lon="3.85902">
        <ele>61</ele>
        <time>2018-09-16T06:22:52Z</time>
      </trkpt>
      <trkpt lat="43.67387" lon="3.85907">
        <ele>61</ele>
        <time>2018-09-16T06:22:53Z</time>
      </trkpt>
      <trkpt lat="43.67392" lon="3.85916">
        <ele>60.9</ele>
        <time>2018-09-16T06:22:55Z</time>
      </trkpt>
      <trkpt lat="43.67395" lon="3.85921">
        <ele>60.7</ele>
        <time>2018-09-16T06:22:56Z</time>
      </trkpt>
      <trkpt lat="43.67402" lon="3.85928">
        <ele>60.3</ele>
        <time>2018-09-16T06:22:58Z</time>
      </trkpt>
      <trkpt lat="43.67404" lon="3.85933">
        <ele>60.2</ele>
        <time>2018-09-16T06:22:59Z</time>
      </trkpt>
      <trkpt lat="43.67406" lon="3.85944">
        <ele>60</ele>
        <time>2018-09-16T06:23:01Z</time>
      </trkpt>
      <trkpt lat="43.67406" lon="3.8595">
        <ele>60.1</ele>
        <time>2018-09-16T06:23:02Z</time>
      </trkpt>
      <trkpt lat="43.67406" lon="3.85961">
        <ele>60.4</ele>
        <time>2018-09-16T06:23:04Z</time>
      </trkpt>
      <trkpt lat="43.67407" lon="3.85967">
        <ele>60.5</ele>
        <time>2018-09-16T06:23:05Z</time>
      </trkpt>
      <trkpt lat="43.67407" lon="3.85979">
        <ele>61.1</ele>
        <time>2018-09-16T06:23:07Z</time>
      </trkpt>
      <trkpt lat="43.67407" lon="3.85985">
        <ele>61.6</ele>
        <time>2018-09-16T06:23:08Z</time>
      </trkpt>
      <trkpt lat="43.67412" lon="3.85992">
        <ele>62.3</ele>
        <time>2018-09-16T06:23:10Z</time>
      </trkpt>
      <trkpt lat="43.67416" lon="3.85996">
        <ele>62.7</ele>
        <time>2018-09-16T06:23:11Z</time>
      </trkpt>
      <trkpt lat="43.6742" lon="3.85999">
        <ele>62.8</ele>
        <time>2018-09-16T06:23:12Z</time>
      </trkpt>
      <trkpt lat="43.67424" lon="3.86001">
        <ele>62.9</ele>
        <time>2018-09-16T06:23:13Z</time>
      </trkpt>
      <trkpt lat="43.67429" lon="3.86003">
        <ele>63</ele>
        <time>2018-09-16T06:23:14Z</time>
      </trkpt>
      <trkpt lat="43.67433" lon="3.86003">
        <ele>62.8</ele>
        <time>2018-09-16T06:23:15Z</time>
      </trkpt>
      <trkpt lat="43.67441" lon="3.86007">
        <ele>63.1</ele>
        <time>2018-09-16T06:23:17Z</time>
      </trkpt>
      <trkpt lat="43.67445" lon="3.86008">
        <ele>63.1</ele>
        <time>2018-09-16T06:23:18Z</time>
      </trkpt>
      <trkpt lat="43.67452" lon="3.8601">
        <ele>63.2</ele>
        <time>2018-09-16T06:23:20Z</time>
      </trkpt>
      <trkpt lat="43.67456" lon="3.86012">
        <ele>63.3</ele>
        <time>2018-09-16T06:23:21Z</time>
      </trkpt>
      <trkpt lat="43.67464" lon="3.86015">
        <ele>63.5</ele>
        <time>2018-09-16T06:23:25Z</time>
      </trkpt>
      <trkpt lat="43.67466" lon="3.86016">
        <ele>63.5</ele>
        <time>2018-09-16T06:23:26Z</time>
      </trkpt>
      <trkpt lat="43.67472" lon="3.86018">
        <ele>63.6</ele>
        <time>2018-09-16T06:23:29Z</time>
      </trkpt>
      <trkpt lat="43.67475" lon="3.86019">
        <ele>63.7</ele>
        <time>2018-09-16T06:23:30Z</time>
      </trkpt>
      <trkpt lat="43.67482" lon="3.86024">
        <ele>64.5</ele>
        <time>2018-09-16T06:23:35Z</time>
      </trkpt>
      <trkpt lat="43.67483" lon="3.86024">
        <ele>64.5</ele>
        <time>2018-09-16T06:23:36Z</time>
      </trkpt>
      <trkpt lat="43.67484" lon="3.86024">
        <ele>64.5</ele>
        <time>2018-09-16T06:23:37Z</time>
      </trkpt>
      <trkpt lat="43.67485" lon="3.86023">
        <ele>64.3</ele>
        <time>2018-09-16T06:23:51Z</time>
      </trkpt>
      <trkpt lat="43.67493" lon="3.86019">
        <ele>63.7</ele>
        <time>2018-09-16T06:24:01Z</time>
      </trkpt>
      <trkpt lat="43.67496" lon="3.86019">
        <ele>63.7</ele>
        <time>2018-09-16T06:24:02Z</time>
      </trkpt>
      <trkpt lat="43.67507" lon="3.86015">
        <ele>63.3</ele>
        <time>2018-09-16T06:24:03Z</time>
      </trkpt>
      <trkpt lat="43.67511" lon="3.86015">
        <ele>63.4</ele>
        <time>2018-09-16T06:24:04Z</time>
      </trkpt>
      <trkpt lat="43.67516" lon="3.86013">
        <ele>63.1</ele>
        <time>2018-09-16T06:24:05Z</time>
      </trkpt>
      <trkpt lat="43.67522" lon="3.86012">
        <ele>63.1</ele>
        <time>2018-09-16T06:24:06Z</time>
      </trkpt>
      <trkpt lat="43.67531" lon="3.86009">
        <ele>62.7</ele>
        <time>2018-09-16T06:24:07Z</time>
      </trkpt>
      <trkpt lat="43.67538" lon="3.86007">
        <ele>62.4</ele>
        <time>2018-09-16T06:24:08Z</time>
      </trkpt>
      <trkpt lat="43.67546" lon="3.86005">
        <ele>62.1</ele>
        <time>2018-09-16T06:24:09Z</time>
      </trkpt>
      <trkpt lat="43.67552" lon="3.86004">
        <ele>62</ele>
        <time>2018-09-16T06:24:10Z</time>
      </trkpt>
      <trkpt lat="43.67558" lon="3.86002">
        <ele>61.6</ele>
        <time>2018-09-16T06:24:11Z</time>
      </trkpt>
      <trkpt lat="43.67564" lon="3.86002">
        <ele>61.8</ele>
        <time>2018-09-16T06:24:12Z</time>
      </trkpt>
      <trkpt lat="43.67569" lon="3.86">
        <ele>61.5</ele>
        <time>2018-09-16T06:24:13Z</time>
      </trkpt>
      <trkpt lat="43.67575" lon="3.85999">
        <ele>61.6</ele>
        <time>2018-09-16T06:24:14Z</time>
      </trkpt>
      <trkpt lat="43.6758" lon="3.85999">
        <ele>61.8</ele>
        <time>2018-09-16T06:24:15Z</time>
      </trkpt>
      <trkpt lat="43.67585" lon="3.85997">
        <ele>61.8</ele>
        <time>2018-09-16T06:24:16Z</time>
      </trkpt>
      <trkpt lat="43.6759" lon="3.85993">
        <ele>61.6</ele>
        <time>2018-09-16T06:24:17Z</time>
      </trkpt>
      <trkpt lat="43.67596" lon="3.85993">
        <ele>61.9</ele>
        <time>2018-09-16T06:24:18Z</time>
      </trkpt>
      <trkpt lat="43.67602" lon="3.85991">
        <ele>61.9</ele>
        <time>2018-09-16T06:24:19Z</time>
      </trkpt>
      <trkpt lat="43.67607" lon="3.8599">
        <ele>62</ele>
        <time>2018-09-16T06:24:20Z</time>
      </trkpt>
      <trkpt lat="43.67612" lon="3.85988">
        <ele>61.8</ele>
        <time>2018-09-16T06:24:21Z</time>
      </trkpt>
      <trkpt lat="43.67617" lon="3.85989">
        <ele>62</ele>
        <time>2018-09-16T06:24:22Z</time>
      </trkpt>
      <trkpt lat="43.67623" lon="3.85988">
        <ele>61.8</ele>
        <time>2018-09-16T06:24:23Z</time>
      </trkpt>
      <trkpt lat="43.67628" lon="3.8599">
        <ele>62.2</ele>
        <time>2018-09-16T06:24:24Z</time>
      </trkpt>
      <trkpt lat="43.67633" lon="3.85991">
        <ele>62.4</ele>
        <time>2018-09-16T06:24:25Z</time>
      </trkpt>
      <trkpt lat="43.67639" lon="3.85989">
        <ele>62</ele>
        <time>2018-09-16T06:24:26Z</time>
      </trkpt>
      <trkpt lat="43.67644" lon="3.85987">
        <ele>61.5</ele>
        <time>2018-09-16T06:24:27Z</time>
      </trkpt>
      <trkpt lat="43.67647" lon="3.85986">
        <ele>61.2</ele>
        <time>2018-09-16T06:24:28Z</time>
      </trkpt>
      <trkpt lat="43.67653" lon="3.85984">
        <ele>60.6</ele>
        <time>2018-09-16T06:24:29Z</time>
      </trkpt>
      <trkpt lat="43.67657" lon="3.85984">
        <ele>60.5</ele>
        <time>2018-09-16T06:24:30Z</time>
      </trkpt>
      <trkpt lat="43.67662" lon="3.85982">
        <ele>59.9</ele>
        <time>2018-09-16T06:24:31Z</time>
      </trkpt>
      <trkpt lat="43.67667" lon="3.85982">
        <ele>59.8</ele>
        <time>2018-09-16T06:24:32Z</time>
      </trkpt>
      <trkpt lat="43.67672" lon="3.85982">
        <ele>59.8</ele>
        <time>2018-09-16T06:24:33Z</time>
      </trkpt>
      <trkpt lat="43.67677" lon="3.85981">
        <ele>59.7</ele>
        <time>2018-09-16T06:24:34Z</time>
      </trkpt>
      <trkpt lat="43.67683" lon="3.8598">
        <ele>59.6</ele>
        <time>2018-09-16T06:24:35Z</time>
      </trkpt>
      <trkpt lat="43.67689" lon="3.85984">
        <ele>60.5</ele>
        <time>2018-09-16T06:24:36Z</time>
      </trkpt>
      <trkpt lat="43.67694" lon="3.85981">
        <ele>59.9</ele>
        <time>2018-09-16T06:24:37Z</time>
      </trkpt>
      <trkpt lat="43.677" lon="3.85981">
        <ele>59.4</ele>
        <time>2018-09-16T06:24:38Z</time>
      </trkpt>
      <trkpt lat="43.67704" lon="3.8598">
        <ele>58.8</ele>
        <time>2018-09-16T06:24:39Z</time>
      </trkpt>
      <trkpt lat="43.67712" lon="3.85984">
        <ele>58.7</ele>
        <time>2018-09-16T06:24:41Z</time>
      </trkpt>
      <trkpt lat="43.67717" lon="3.85984">
        <ele>58.2</ele>
        <time>2018-09-16T06:24:42Z</time>
      </trkpt>
      <trkpt lat="43.67714" lon="3.85994">
        <ele>60.2</ele>
        <time>2018-09-16T06:24:53Z</time>
      </trkpt>
      <trkpt lat="43.67713" lon="3.85995">
        <ele>60.5</ele>
        <time>2018-09-16T06:24:54Z</time>
      </trkpt>
      <trkpt lat="43.67705" lon="3.85997">
        <ele>61.9</ele>
        <time>2018-09-16T06:24:58Z</time>
      </trkpt>
      <trkpt lat="43.67704" lon="3.85998">
        <ele>62.2</ele>
        <time>2018-09-16T06:24:59Z</time>
      </trkpt>
      <trkpt lat="43.67697" lon="3.86001">
        <ele>64</ele>
        <time>2018-09-16T06:25:03Z</time>
      </trkpt>
      <trkpt lat="43.67694" lon="3.86002">
        <ele>64.6</ele>
        <time>2018-09-16T06:25:04Z</time>
      </trkpt>
      <trkpt lat="43.67687" lon="3.86006">
        <ele>65.7</ele>
        <time>2018-09-16T06:25:10Z</time>
      </trkpt>
      <trkpt lat="43.67685" lon="3.86007">
        <ele>65.9</ele>
        <time>2018-09-16T06:25:11Z</time>
      </trkpt>
      <trkpt lat="43.67677" lon="3.86012">
        <ele>67.3</ele>
        <time>2018-09-16T06:25:17Z</time>
      </trkpt>
      <trkpt lat="43.67676" lon="3.86013">
        <ele>67.5</ele>
        <time>2018-09-16T06:25:18Z</time>
      </trkpt>
      <trkpt lat="43.67668" lon="3.86016">
        <ele>68.2</ele>
        <time>2018-09-16T06:25:25Z</time>
      </trkpt>
      <trkpt lat="43.67667" lon="3.86017">
        <ele>68.5</ele>
        <time>2018-09-16T06:25:26Z</time>
      </trkpt>
      <trkpt lat="43.67659" lon="3.8602">
        <ele>69.6</ele>
        <time>2018-09-16T06:25:32Z</time>
      </trkpt>
      <trkpt lat="43.67658" lon="3.86021">
        <ele>69.9</ele>
        <time>2018-09-16T06:25:33Z</time>
      </trkpt>
      <trkpt lat="43.67649" lon="3.86025">
        <ele>71.2</ele>
        <time>2018-09-16T06:25:39Z</time>
      </trkpt>
      <trkpt lat="43.67648" lon="3.86026">
        <ele>71.5</ele>
        <time>2018-09-16T06:25:40Z</time>
      </trkpt>
      <trkpt lat="43.67652" lon="3.86035">
        <ele>72.1</ele>
        <time>2018-09-16T06:25:55Z</time>
      </trkpt>
      <trkpt lat="43.67654" lon="3.86036">
        <ele>72.2</ele>
        <time>2018-09-16T06:25:56Z</time>
      </trkpt>
      <trkpt lat="43.6766" lon="3.86039">
        <ele>72.3</ele>
        <time>2018-09-16T06:25:59Z</time>
      </trkpt>
      <trkpt lat="43.67662" lon="3.8604">
        <ele>72.4</ele>
        <time>2018-09-16T06:26:00Z</time>
      </trkpt>
      <trkpt lat="43.67669" lon="3.86043">
        <ele>72.6</ele>
        <time>2018-09-16T06:26:03Z</time>
      </trkpt>
      <trkpt lat="43.67671" lon="3.86044">
        <ele>72.7</ele>
        <time>2018-09-16T06:26:04Z</time>
      </trkpt>
      <trkpt lat="43.6768" lon="3.86046">
        <ele>73.1</ele>
        <time>2018-09-16T06:26:08Z</time>
      </trkpt>
      <trkpt lat="43.67682" lon="3.86046">
        <ele>73.2</ele>
        <time>2018-09-16T06:26:09Z</time>
      </trkpt>
      <trkpt lat="43.67689" lon="3.86041">
        <ele>73.3</ele>
        <time>2018-09-16T06:26:14Z</time>
      </trkpt>
      <trkpt lat="43.67691" lon="3.8604">
        <ele>73.3</ele>
        <time>2018-09-16T06:26:15Z</time>
      </trkpt>
      <trkpt lat="43.67699" lon="3.86039">
        <ele>72.9</ele>
        <time>2018-09-16T06:26:21Z</time>
      </trkpt>
      <trkpt lat="43.677" lon="3.8604">
        <ele>72.8</ele>
        <time>2018-09-16T06:26:22Z</time>
      </trkpt>
      <trkpt lat="43.67708" lon="3.86043">
        <ele>72.1</ele>
        <time>2018-09-16T06:26:27Z</time>
      </trkpt>
      <trkpt lat="43.67709" lon="3.86045">
        <ele>72</ele>
        <time>2018-09-16T06:26:28Z</time>
      </trkpt>
      <trkpt lat="43.67714" lon="3.86054">
        <ele>71.8</ele>
        <time>2018-09-16T06:26:33Z</time>
      </trkpt>
      <trkpt lat="43.67715" lon="3.86057">
        <ele>71.6</ele>
        <time>2018-09-16T06:26:34Z</time>
      </trkpt>
      <trkpt lat="43.67718" lon="3.86068">
        <ele>70</ele>
        <time>2018-09-16T06:26:39Z</time>
      </trkpt>
      <trkpt lat="43.67716" lon="3.86071">
        <ele>69.8</ele>
        <time>2018-09-16T06:26:40Z</time>
      </trkpt>
      <trkpt lat="43.67709" lon="3.86077">
        <ele>69.4</ele>
        <time>2018-09-16T06:26:43Z</time>
      </trkpt>
      <trkpt lat="43.67706" lon="3.86079">
        <ele>69.2</ele>
        <time>2018-09-16T06:26:44Z</time>
      </trkpt>
      <trkpt lat="43.67695" lon="3.86085">
        <ele>68.6</ele>
        <time>2018-09-16T06:26:45Z</time>
      </trkpt>
      <trkpt lat="43.67687" lon="3.86089">
        <ele>67.8</ele>
        <time>2018-09-16T06:26:47Z</time>
      </trkpt>
      <trkpt lat="43.67683" lon="3.86091">
        <ele>67.3</ele>
        <time>2018-09-16T06:26:48Z</time>
      </trkpt>
      <trkpt lat="43.67678" lon="3.86093">
        <ele>66.9</ele>
        <time>2018-09-16T06:26:49Z</time>
      </trkpt>
      <trkpt lat="43.67673" lon="3.86096">
        <ele>66.3</ele>
        <time>2018-09-16T06:26:50Z</time>
      </trkpt>
      <trkpt lat="43.67666" lon="3.86099">
        <ele>65.6</ele>
        <time>2018-09-16T06:26:53Z</time>
      </trkpt>
      <trkpt lat="43.67664" lon="3.861">
        <ele>65.5</ele>
        <time>2018-09-16T06:26:54Z</time>
      </trkpt>
      <trkpt lat="43.67656" lon="3.861">
        <ele>65.6</ele>
        <time>2018-09-16T06:26:59Z</time>
      </trkpt>
      <trkpt lat="43.67654" lon="3.86099">
        <ele>65.9</ele>
        <time>2018-09-16T06:27:00Z</time>
      </trkpt>
      <trkpt lat="43.67647" lon="3.86093">
        <ele>67.2</ele>
        <time>2018-09-16T06:27:06Z</time>
      </trkpt>
      <trkpt lat="43.67646" lon="3.86091">
        <ele>67.5</ele>
        <time>2018-09-16T06:27:07Z</time>
      </trkpt>
      <trkpt lat="43.67637" lon="3.86094">
        <ele>67.1</ele>
        <time>2018-09-16T06:27:12Z</time>
      </trkpt>
      <trkpt lat="43.67635" lon="3.86096">
        <ele>66.8</ele>
        <time>2018-09-16T06:27:13Z</time>
      </trkpt>
      <trkpt lat="43.67632" lon="3.86097">
        <ele>66.7</ele>
        <time>2018-09-16T06:27:14Z</time>
      </trkpt>
      <trkpt lat="43.67621" lon="3.86104">
        <ele>65.8</ele>
        <time>2018-09-16T06:27:15Z</time>
      </trkpt>
      <trkpt lat="43.67615" lon="3.86108">
        <ele>65.3</ele>
        <time>2018-09-16T06:27:16Z</time>
      </trkpt>
      <trkpt lat="43.6761" lon="3.8611">
        <ele>65.1</ele>
        <time>2018-09-16T06:27:17Z</time>
      </trkpt>
      <trkpt lat="43.67602" lon="3.86115">
        <ele>63.9</ele>
        <time>2018-09-16T06:27:19Z</time>
      </trkpt>
      <trkpt lat="43.67599" lon="3.86114">
        <ele>64</ele>
        <time>2018-09-16T06:27:20Z</time>
      </trkpt>
      <trkpt lat="43.67593" lon="3.86114">
        <ele>63.8</ele>
        <time>2018-09-16T06:27:21Z</time>
      </trkpt>
      <trkpt lat="43.67589" lon="3.86114">
        <ele>63.7</ele>
        <time>2018-09-16T06:27:22Z</time>
      </trkpt>
      <trkpt lat="43.67581" lon="3.86117">
        <ele>63</ele>
        <time>2018-09-16T06:27:29Z</time>
      </trkpt>
      <trkpt lat="43.6758" lon="3.86117">
        <ele>63</ele>
        <time>2018-09-16T06:27:30Z</time>
      </trkpt>
      <trkpt lat="43.67573" lon="3.86121">
        <ele>62.5</ele>
        <time>2018-09-16T06:27:33Z</time>
      </trkpt>
      <trkpt lat="43.6757" lon="3.86123">
        <ele>62.1</ele>
        <time>2018-09-16T06:27:34Z</time>
      </trkpt>
      <trkpt lat="43.67564" lon="3.86126">
        <ele>61.6</ele>
        <time>2018-09-16T06:27:36Z</time>
      </trkpt>
      <trkpt lat="43.67561" lon="3.86127">
        <ele>61.5</ele>
        <time>2018-09-16T06:27:37Z</time>
      </trkpt>
      <trkpt lat="43.67554" lon="3.86129">
        <ele>61.2</ele>
        <time>2018-09-16T06:27:39Z</time>
      </trkpt>
      <trkpt lat="43.67551" lon="3.86131">
        <ele>60.9</ele>
        <time>2018-09-16T06:27:40Z</time>
      </trkpt>
      <trkpt lat="43.67547" lon="3.86132">
        <ele>60.8</ele>
        <time>2018-09-16T06:27:41Z</time>
      </trkpt>
      <trkpt lat="43.67535" lon="3.86136">
        <ele>60.4</ele>
        <time>2018-09-16T06:27:42Z</time>
      </trkpt>
      <trkpt lat="43.6753" lon="3.86138">
        <ele>60.1</ele>
        <time>2018-09-16T06:27:43Z</time>
      </trkpt>
      <trkpt lat="43.67526" lon="3.86138">
        <ele>60.3</ele>
        <time>2018-09-16T06:27:44Z</time>
      </trkpt>
      <trkpt lat="43.67522" lon="3.86135">
        <ele>61</ele>
        <time>2018-09-16T06:27:45Z</time>
      </trkpt>
      <trkpt lat="43.67517" lon="3.86131">
        <ele>62</ele>
        <time>2018-09-16T06:27:46Z</time>
      </trkpt>
      <trkpt lat="43.67511" lon="3.86128">
        <ele>62.7</ele>
        <time>2018-09-16T06:27:49Z</time>
      </trkpt>
      <trkpt lat="43.67503" lon="3.86125">
        <ele>63.4</ele>
        <time>2018-09-16T06:27:50Z</time>
      </trkpt>
      <trkpt lat="43.67495" lon="3.86123">
        <ele>63.9</ele>
        <time>2018-09-16T06:27:54Z</time>
      </trkpt>
      <trkpt lat="43.67493" lon="3.86124">
        <ele>63.7</ele>
        <time>2018-09-16T06:27:55Z</time>
      </trkpt>
      <trkpt lat="43.67485" lon="3.86125">
        <ele>63.5</ele>
        <time>2018-09-16T06:27:56Z</time>
      </trkpt>
      <trkpt lat="43.67483" lon="3.86126">
        <ele>63.3</ele>
        <time>2018-09-16T06:27:57Z</time>
      </trkpt>
      <trkpt lat="43.67477" lon="3.86127">
        <ele>63.1</ele>
        <time>2018-09-16T06:27:58Z</time>
      </trkpt>
      <trkpt lat="43.67473" lon="3.86129">
        <ele>62.8</ele>
        <time>2018-09-16T06:27:59Z</time>
      </trkpt>
      <trkpt lat="43.67464" lon="3.86129">
        <ele>63.3</ele>
        <time>2018-09-16T06:28:01Z</time>
      </trkpt>
      <trkpt lat="43.67463" lon="3.86129">
        <ele>63.3</ele>
        <time>2018-09-16T06:28:02Z</time>
      </trkpt>
      <trkpt lat="43.6746" lon="3.86129">
        <ele>63.5</ele>
        <time>2018-09-16T06:28:03Z</time>
      </trkpt>
      <trkpt lat="43.67453" lon="3.8613">
        <ele>63.8</ele>
        <time>2018-09-16T06:28:04Z</time>
      </trkpt>
      <trkpt lat="43.67448" lon="3.86133">
        <ele>63.6</ele>
        <time>2018-09-16T06:28:06Z</time>
      </trkpt>
      <trkpt lat="43.67442" lon="3.86136">
        <ele>63.6</ele>
        <time>2018-09-16T06:28:07Z</time>
      </trkpt>
      <trkpt lat="43.67434" lon="3.86139">
        <ele>63.7</ele>
        <time>2018-09-16T06:28:09Z</time>
      </trkpt>
      <trkpt lat="43.6743" lon="3.86139">
        <ele>64</ele>
        <time>2018-09-16T06:28:10Z</time>
      </trkpt>
      <trkpt lat="43.67422" lon="3.86142">
        <ele>64.2</ele>
        <time>2018-09-16T06:28:13Z</time>
      </trkpt>
      <trkpt lat="43.6742" lon="3.86142">
        <ele>64.3</ele>
        <time>2018-09-16T06:28:14Z</time>
      </trkpt>
      <trkpt lat="43.67414" lon="3.86144">
        <ele>64.4</ele>
        <time>2018-09-16T06:28:16Z</time>
      </trkpt>
      <trkpt lat="43.6741" lon="3.86144">
        <ele>64.5</ele>
        <time>2018-09-16T06:28:17Z</time>
      </trkpt>
      <trkpt lat="43.67405" lon="3.86135">
        <ele>65.8</ele>
        <time>2018-09-16T06:28:22Z</time>
      </trkpt>
      <trkpt lat="43.67404" lon="3.86133">
        <ele>66.1</ele>
        <time>2018-09-16T06:28:23Z</time>
      </trkpt>
      <trkpt lat="43.67403" lon="3.86123">
        <ele>67.2</ele>
        <time>2018-09-16T06:28:27Z</time>
      </trkpt>
      <trkpt lat="43.67403" lon="3.8612">
        <ele>67.5</ele>
        <time>2018-09-16T06:28:28Z</time>
      </trkpt>
      <trkpt lat="43.67404" lon="3.8611">
        <ele>68.5</ele>
        <time>2018-09-16T06:28:32Z</time>
      </trkpt>
      <trkpt lat="43.67405" lon="3.86107">
        <ele>68.7</ele>
        <time>2018-09-16T06:28:33Z</time>
      </trkpt>
      <trkpt lat="43.67408" lon="3.86097">
        <ele>69.2</ele>
        <time>2018-09-16T06:28:37Z</time>
      </trkpt>
      <trkpt lat="43.67408" lon="3.86094">
        <ele>69.4</ele>
        <time>2018-09-16T06:28:38Z</time>
      </trkpt>
      <trkpt lat="43.67406" lon="3.86085">
        <ele>69.9</ele>
        <time>2018-09-16T06:28:41Z</time>
      </trkpt>
      <trkpt lat="43.67405" lon="3.86081">
        <ele>69.9</ele>
        <time>2018-09-16T06:28:42Z</time>
      </trkpt>
      <trkpt lat="43.67402" lon="3.86069">
        <ele>69.2</ele>
        <time>2018-09-16T06:28:45Z</time>
      </trkpt>
      <trkpt lat="43.67401" lon="3.86065">
        <ele>69</ele>
        <time>2018-09-16T06:28:46Z</time>
      </trkpt>
      <trkpt lat="43.67398" lon="3.8605">
        <ele>67.8</ele>
        <time>2018-09-16T06:28:47Z</time>
      </trkpt>
      <trkpt lat="43.67397" lon="3.86039">
        <ele>66.7</ele>
        <time>2018-09-16T06:28:50Z</time>
      </trkpt>
      <trkpt lat="43.67397" lon="3.86036">
        <ele>66.4</ele>
        <time>2018-09-16T06:28:51Z</time>
      </trkpt>
      <trkpt lat="43.67391" lon="3.8603">
        <ele>65.4</ele>
        <time>2018-09-16T06:28:56Z</time>
      </trkpt>
      <trkpt lat="43.67387" lon="3.86031">
        <ele>65.2</ele>
        <time>2018-09-16T06:28:57Z</time>
      </trkpt>
      <trkpt lat="43.6738" lon="3.86035">
        <ele>65.1</ele>
        <time>2018-09-16T06:28:59Z</time>
      </trkpt>
      <trkpt lat="43.67367" lon="3.86041">
        <ele>64.9</ele>
        <time>2018-09-16T06:29:00Z</time>
      </trkpt>
      <trkpt lat="43.67362" lon="3.86047">
        <ele>65.1</ele>
        <time>2018-09-16T06:29:01Z</time>
      </trkpt>
      <trkpt lat="43.67356" lon="3.86051">
        <ele>65</ele>
        <time>2018-09-16T06:29:02Z</time>
      </trkpt>
      <trkpt lat="43.67348" lon="3.86056">
        <ele>64.6</ele>
        <time>2018-09-16T06:29:04Z</time>
      </trkpt>
      <trkpt lat="43.67342" lon="3.86059">
        <ele>64.3</ele>
        <time>2018-09-16T06:29:05Z</time>
      </trkpt>
      <trkpt lat="43.67337" lon="3.86062">
        <ele>64.1</ele>
        <time>2018-09-16T06:29:06Z</time>
      </trkpt>
      <trkpt lat="43.67334" lon="3.86065">
        <ele>64.1</ele>
        <time>2018-09-16T06:29:07Z</time>
      </trkpt>
      <trkpt lat="43.6733" lon="3.86069">
        <ele>64.2</ele>
        <time>2018-09-16T06:29:08Z</time>
      </trkpt>
      <trkpt lat="43.67326" lon="3.86071">
        <ele>64</ele>
        <time>2018-09-16T06:29:09Z</time>
      </trkpt>
      <trkpt lat="43.67319" lon="3.86077">
        <ele>63.9</ele>
        <time>2018-09-16T06:29:11Z</time>
      </trkpt>
      <trkpt lat="43.67316" lon="3.86078">
        <ele>63.7</ele>
        <time>2018-09-16T06:29:12Z</time>
      </trkpt>
      <trkpt lat="43.67311" lon="3.86085">
        <ele>63.7</ele>
        <time>2018-09-16T06:29:14Z</time>
      </trkpt>
      <trkpt lat="43.67308" lon="3.86089">
        <ele>63.7</ele>
        <time>2018-09-16T06:29:15Z</time>
      </trkpt>
      <trkpt lat="43.67303" lon="3.86098">
        <ele>63.8</ele>
        <time>2018-09-16T06:29:17Z</time>
      </trkpt>
      <trkpt lat="43.673" lon="3.86102">
        <ele>63.8</ele>
        <time>2018-09-16T06:29:18Z</time>
      </trkpt>
      <trkpt lat="43.67292" lon="3.86104">
        <ele>63.1</ele>
        <time>2018-09-16T06:29:20Z</time>
      </trkpt>
      <trkpt lat="43.67289" lon="3.86107">
        <ele>63</ele>
        <time>2018-09-16T06:29:21Z</time>
      </trkpt>
      <trkpt lat="43.67284" lon="3.86115">
        <ele>62.7</ele>
        <time>2018-09-16T06:29:23Z</time>
      </trkpt>
      <trkpt lat="43.67281" lon="3.86118">
        <ele>62.3</ele>
        <time>2018-09-16T06:29:24Z</time>
      </trkpt>
      <trkpt lat="43.67274" lon="3.86123">
        <ele>61.5</ele>
        <time>2018-09-16T06:29:26Z</time>
      </trkpt>
      <trkpt lat="43.6727" lon="3.86124">
        <ele>60.9</ele>
        <time>2018-09-16T06:29:27Z</time>
      </trkpt>
      <trkpt lat="43.67263" lon="3.86129">
        <ele>59.9</ele>
        <time>2018-09-16T06:29:29Z</time>
      </trkpt>
      <trkpt lat="43.67263" lon="3.86132">
        <ele>59.9</ele>
        <time>2018-09-16T06:29:30Z</time>
      </trkpt>
      <trkpt lat="43.67262" lon="3.86141">
        <ele>59.7</ele>
        <time>2018-09-16T06:29:31Z</time>
      </trkpt>
      <trkpt lat="43.67262" lon="3.86147">
        <ele>59.6</ele>
        <time>2018-09-16T06:29:32Z</time>
      </trkpt>
      <trkpt lat="43.67267" lon="3.86154">
        <ele>60.1</ele>
        <time>2018-09-16T06:29:36Z</time>
      </trkpt>
      <trkpt lat="43.67269" lon="3.86154">
        <ele>60.4</ele>
        <time>2018-09-16T06:29:37Z</time>
      </trkpt>
      <trkpt lat="43.67277" lon="3.86156">
        <ele>61.3</ele>
        <time>2018-09-16T06:29:42Z</time>
      </trkpt>
      <trkpt lat="43.67278" lon="3.86157">
        <ele>61.4</ele>
        <time>2018-09-16T06:29:43Z</time>
      </trkpt>
      <trkpt lat="43.67286" lon="3.86156">
        <ele>62.1</ele>
        <time>2018-09-16T06:29:47Z</time>
      </trkpt>
      <trkpt lat="43.67288" lon="3.86156">
        <ele>62.3</ele>
        <time>2018-09-16T06:29:48Z</time>
      </trkpt>
      <trkpt lat="43.67293" lon="3.86157">
        <ele>62.6</ele>
        <time>2018-09-16T06:29:50Z</time>
      </trkpt>
      <trkpt lat="43.67297" lon="3.86159">
        <ele>62.9</ele>
        <time>2018-09-16T06:29:51Z</time>
      </trkpt>
      <trkpt lat="43.67304" lon="3.86158">
        <ele>63.5</ele>
        <time>2018-09-16T06:29:54Z</time>
      </trkpt>
      <trkpt lat="43.67307" lon="3.86158">
        <ele>63.6</ele>
        <time>2018-09-16T06:29:55Z</time>
      </trkpt>
      <trkpt lat="43.67315" lon="3.86159">
        <ele>63.6</ele>
        <time>2018-09-16T06:29:58Z</time>
      </trkpt>
      <trkpt lat="43.67317" lon="3.86161">
        <ele>63.5</ele>
        <time>2018-09-16T06:29:59Z</time>
      </trkpt>
      <trkpt lat="43.67324" lon="3.86166">
        <ele>63.1</ele>
        <time>2018-09-16T06:30:02Z</time>
      </trkpt>
      <trkpt lat="43.67326" lon="3.86167">
        <ele>63</ele>
        <time>2018-09-16T06:30:03Z</time>
      </trkpt>
      <trkpt lat="43.67333" lon="3.86167">
        <ele>63</ele>
        <time>2018-09-16T06:30:06Z</time>
      </trkpt>
      <trkpt lat="43.67335" lon="3.86168">
        <ele>62.8</ele>
        <time>2018-09-16T06:30:07Z</time>
      </trkpt>
      <trkpt lat="43.67342" lon="3.86174">
        <ele>61.9</ele>
        <time>2018-09-16T06:30:11Z</time>
      </trkpt>
      <trkpt lat="43.67344" lon="3.86177">
        <ele>61.5</ele>
        <time>2018-09-16T06:30:12Z</time>
      </trkpt>
      <trkpt lat="43.67348" lon="3.86187">
        <ele>60.1</ele>
        <time>2018-09-16T06:30:15Z</time>
      </trkpt>
      <trkpt lat="43.67347" lon="3.8619">
        <ele>59.6</ele>
        <time>2018-09-16T06:30:16Z</time>
      </trkpt>
      <trkpt lat="43.67346" lon="3.86201">
        <ele>58.2</ele>
        <time>2018-09-16T06:30:20Z</time>
      </trkpt>
      <trkpt lat="43.67345" lon="3.86204">
        <ele>57.8</ele>
        <time>2018-09-16T06:30:21Z</time>
      </trkpt>
      <trkpt lat="43.67344" lon="3.86207">
        <ele>57.4</ele>
        <time>2018-09-16T06:30:22Z</time>
      </trkpt>
      <trkpt lat="43.67334" lon="3.86221">
        <ele>55.2</ele>
        <time>2018-09-16T06:30:23Z</time>
      </trkpt>
      <trkpt lat="43.67331" lon="3.86223">
        <ele>55</ele>
        <time>2018-09-16T06:30:24Z</time>
      </trkpt>
      <trkpt lat="43.67326" lon="3.86227">
        <ele>55</ele>
        <time>2018-09-16T06:30:25Z</time>
      </trkpt>
      <trkpt lat="43.67322" lon="3.86231">
        <ele>54.9</ele>
        <time>2018-09-16T06:30:26Z</time>
      </trkpt>
      <trkpt lat="43.67318" lon="3.86235">
        <ele>54.7</ele>
        <time>2018-09-16T06:30:27Z</time>
      </trkpt>
      <trkpt lat="43.67313" lon="3.86239">
        <ele>54.6</ele>
        <time>2018-09-16T06:30:28Z</time>
      </trkpt>
      <trkpt lat="43.67309" lon="3.86242">
        <ele>54.4</ele>
        <time>2018-09-16T06:30:29Z</time>
      </trkpt>
      <trkpt lat="43.67305" lon="3.86245">
        <ele>54.2</ele>
        <time>2018-09-16T06:30:30Z</time>
      </trkpt>
      <trkpt lat="43.67302" lon="3.86249">
        <ele>54.2</ele>
        <time>2018-09-16T06:30:31Z</time>
      </trkpt>
      <trkpt lat="43.67298" lon="3.86254">
        <ele>54.2</ele>
        <time>2018-09-16T06:30:32Z</time>
      </trkpt>
      <trkpt lat="43.67294" lon="3.86257">
        <ele>54.2</ele>
        <time>2018-09-16T06:30:33Z</time>
      </trkpt>
      <trkpt lat="43.67286" lon="3.86262">
        <ele>54.1</ele>
        <time>2018-09-16T06:30:35Z</time>
      </trkpt>
      <trkpt lat="43.67285" lon="3.86264">
        <ele>54</ele>
        <time>2018-09-16T06:30:36Z</time>
      </trkpt>
      <trkpt lat="43.67288" lon="3.86275">
        <ele>53.5</ele>
        <time>2018-09-16T06:30:40Z</time>
      </trkpt>
      <trkpt lat="43.67289" lon="3.86278">
        <ele>53.4</ele>
        <time>2018-09-16T06:30:41Z</time>
      </trkpt>
      <trkpt lat="43.67293" lon="3.86289">
        <ele>53.4</ele>
        <time>2018-09-16T06:30:42Z</time>
      </trkpt>
      <trkpt lat="43.67293" lon="3.86298">
        <ele>53.2</ele>
        <time>2018-09-16T06:30:44Z</time>
      </trkpt>
      <trkpt lat="43.67293" lon="3.86304">
        <ele>53.1</ele>
        <time>2018-09-16T06:30:45Z</time>
      </trkpt>
      <trkpt lat="43.67294" lon="3.86314">
        <ele>52.9</ele>
        <time>2018-09-16T06:30:47Z</time>
      </trkpt>
      <trkpt lat="43.67295" lon="3.86316">
        <ele>52.9</ele>
        <time>2018-09-16T06:30:48Z</time>
      </trkpt>
      <trkpt lat="43.67298" lon="3.86325">
        <ele>52.8</ele>
        <time>2018-09-16T06:30:51Z</time>
      </trkpt>
      <trkpt lat="43.67299" lon="3.86328">
        <ele>52.7</ele>
        <time>2018-09-16T06:30:52Z</time>
      </trkpt>
      <trkpt lat="43.67302" lon="3.86336">
        <ele>52.6</ele>
        <time>2018-09-16T06:30:54Z</time>
      </trkpt>
      <trkpt lat="43.67303" lon="3.86341">
        <ele>52.3</ele>
        <time>2018-09-16T06:30:55Z</time>
      </trkpt>
      <trkpt lat="43.67308" lon="3.86353">
        <ele>51.8</ele>
        <time>2018-09-16T06:30:56Z</time>
      </trkpt>
      <trkpt lat="43.67312" lon="3.86362">
        <ele>51.7</ele>
        <time>2018-09-16T06:30:58Z</time>
      </trkpt>
      <trkpt lat="43.67315" lon="3.86366">
        <ele>51.8</ele>
        <time>2018-09-16T06:30:59Z</time>
      </trkpt>
      <trkpt lat="43.67319" lon="3.86375">
        <ele>51.7</ele>
        <time>2018-09-16T06:31:01Z</time>
      </trkpt>
      <trkpt lat="43.67323" lon="3.86379">
        <ele>51.8</ele>
        <time>2018-09-16T06:31:02Z</time>
      </trkpt>
      <trkpt lat="43.67329" lon="3.86387">
        <ele>51.8</ele>
        <time>2018-09-16T06:31:04Z</time>
      </trkpt>
      <trkpt lat="43.67331" lon="3.86392">
        <ele>51.7</ele>
        <time>2018-09-16T06:31:05Z</time>
      </trkpt>
      <trkpt lat="43.67337" lon="3.86402">
        <ele>51.8</ele>
        <time>2018-09-16T06:31:07Z</time>
      </trkpt>
      <trkpt lat="43.67341" lon="3.86407">
        <ele>51.9</ele>
        <time>2018-09-16T06:31:08Z</time>
      </trkpt>
      <trkpt lat="43.67347" lon="3.86414">
        <ele>52.1</ele>
        <time>2018-09-16T06:31:10Z</time>
      </trkpt>
      <trkpt lat="43.67351" lon="3.86418">
        <ele>52.2</ele>
        <time>2018-09-16T06:31:11Z</time>
      </trkpt>
      <trkpt lat="43.67354" lon="3.8643">
        <ele>52.1</ele>
        <time>2018-09-16T06:31:17Z</time>
      </trkpt>
      <trkpt lat="43.67347" lon="3.8643">
        <ele>51.7</ele>
        <time>2018-09-16T06:31:18Z</time>
      </trkpt>
      <trkpt lat="43.67338" lon="3.86431">
        <ele>51.2</ele>
        <time>2018-09-16T06:31:20Z</time>
      </trkpt>
      <trkpt lat="43.67334" lon="3.86432">
        <ele>51</ele>
        <time>2018-09-16T06:31:21Z</time>
      </trkpt>
      <trkpt lat="43.6733" lon="3.86435">
        <ele>51</ele>
        <time>2018-09-16T06:31:22Z</time>
      </trkpt>
      <trkpt lat="43.67325" lon="3.86438">
        <ele>51</ele>
        <time>2018-09-16T06:31:23Z</time>
      </trkpt>
      <trkpt lat="43.67319" lon="3.86446">
        <ele>51</ele>
        <time>2018-09-16T06:31:25Z</time>
      </trkpt>
      <trkpt lat="43.67316" lon="3.86451">
        <ele>51</ele>
        <time>2018-09-16T06:31:26Z</time>
      </trkpt>
      <trkpt lat="43.67311" lon="3.8646">
        <ele>51</ele>
        <time>2018-09-16T06:31:28Z</time>
      </trkpt>
      <trkpt lat="43.67308" lon="3.86465">
        <ele>51</ele>
        <time>2018-09-16T06:31:29Z</time>
      </trkpt>
      <trkpt lat="43.67303" lon="3.86474">
        <ele>51</ele>
        <time>2018-09-16T06:31:31Z</time>
      </trkpt>
      <trkpt lat="43.67301" lon="3.86476">
        <ele>51</ele>
        <time>2018-09-16T06:31:32Z</time>
      </trkpt>
      <trkpt lat="43.67293" lon="3.8648">
        <ele>51</ele>
        <time>2018-09-16T06:31:36Z</time>
      </trkpt>
      <trkpt lat="43.67291" lon="3.86481">
        <ele>51</ele>
        <time>2018-09-16T06:31:37Z</time>
      </trkpt>
      <trkpt lat="43.67286" lon="3.86484">
        <ele>51</ele>
        <time>2018-09-16T06:31:40Z</time>
      </trkpt>
      <trkpt lat="43.67284" lon="3.86494">
        <ele>51</ele>
        <time>2018-09-16T06:31:41Z</time>
      </trkpt>
      <trkpt lat="43.67286" lon="3.86503">
        <ele>50.9</ele>
        <time>2018-09-16T06:31:43Z</time>
      </trkpt>
      <trkpt lat="43.67287" lon="3.86508">
        <ele>50.8</ele>
        <time>2018-09-16T06:31:44Z</time>
      </trkpt>
      <trkpt lat="43.67289" lon="3.86518">
        <ele>50.6</ele>
        <time>2018-09-16T06:31:46Z</time>
      </trkpt>
      <trkpt lat="43.6729" lon="3.86524">
        <ele>50.5</ele>
        <time>2018-09-16T06:31:47Z</time>
      </trkpt>
      <trkpt lat="43.67292" lon="3.86534">
        <ele>50.5</ele>
        <time>2018-09-16T06:31:49Z</time>
      </trkpt>
      <trkpt lat="43.67293" lon="3.86539">
        <ele>50.5</ele>
        <time>2018-09-16T06:31:50Z</time>
      </trkpt>
      <trkpt lat="43.67296" lon="3.86548">
        <ele>50.7</ele>
        <time>2018-09-16T06:31:52Z</time>
      </trkpt>
      <trkpt lat="43.67297" lon="3.86553">
        <ele>50.7</ele>
        <time>2018-09-16T06:31:53Z</time>
      </trkpt>
      <trkpt lat="43.67298" lon="3.86563">
        <ele>50.9</ele>
        <time>2018-09-16T06:31:55Z</time>
      </trkpt>
      <trkpt lat="43.67299" lon="3.86566">
        <ele>51.1</ele>
        <time>2018-09-16T06:31:56Z</time>
      </trkpt>
      <trkpt lat="43.67301" lon="3.86578">
        <ele>51.5</ele>
        <time>2018-09-16T06:31:58Z</time>
      </trkpt>
      <trkpt lat="43.67301" lon="3.86581">
        <ele>51.6</ele>
        <time>2018-09-16T06:31:59Z</time>
      </trkpt>
      <trkpt lat="43.67303" lon="3.86591">
        <ele>51.8</ele>
        <time>2018-09-16T06:32:02Z</time>
      </trkpt>
      <trkpt lat="43.67303" lon="3.86595">
        <ele>51.8</ele>
        <time>2018-09-16T06:32:03Z</time>
      </trkpt>
      <trkpt lat="43.67305" lon="3.86604">
        <ele>51.9</ele>
        <time>2018-09-16T06:32:05Z</time>
      </trkpt>
      <trkpt lat="43.67305" lon="3.86608">
        <ele>51.9</ele>
        <time>2018-09-16T06:32:06Z</time>
      </trkpt>
      <trkpt lat="43.67307" lon="3.86618">
        <ele>51.4</ele>
        <time>2018-09-16T06:32:08Z</time>
      </trkpt>
      <trkpt lat="43.67308" lon="3.86622">
        <ele>50.9</ele>
        <time>2018-09-16T06:32:09Z</time>
      </trkpt>
      <trkpt lat="43.6731" lon="3.86631">
        <ele>49.9</ele>
        <time>2018-09-16T06:32:11Z</time>
      </trkpt>
      <trkpt lat="43.67311" lon="3.86635">
        <ele>49.4</ele>
        <time>2018-09-16T06:32:12Z</time>
      </trkpt>
      <trkpt lat="43.67313" lon="3.86643">
        <ele>48</ele>
        <time>2018-09-16T06:32:14Z</time>
      </trkpt>
      <trkpt lat="43.67314" lon="3.86647">
        <ele>47.2</ele>
        <time>2018-09-16T06:32:15Z</time>
      </trkpt>
      <trkpt lat="43.67315" lon="3.86656">
        <ele>45.7</ele>
        <time>2018-09-16T06:32:17Z</time>
      </trkpt>
      <trkpt lat="43.67316" lon="3.86661">
        <ele>44.8</ele>
        <time>2018-09-16T06:32:18Z</time>
      </trkpt>
      <trkpt lat="43.67319" lon="3.8667">
        <ele>45.1</ele>
        <time>2018-09-16T06:32:20Z</time>
      </trkpt>
      <trkpt lat="43.67322" lon="3.86683">
        <ele>49.5</ele>
        <time>2018-09-16T06:32:21Z</time>
      </trkpt>
      <trkpt lat="43.67324" lon="3.86694">
        <ele>53.5</ele>
        <time>2018-09-16T06:32:23Z</time>
      </trkpt>
      <trkpt lat="43.67325" lon="3.867">
        <ele>53.9</ele>
        <time>2018-09-16T06:32:24Z</time>
      </trkpt>
      <trkpt lat="43.67328" lon="3.86709">
        <ele>54.3</ele>
        <time>2018-09-16T06:32:26Z</time>
      </trkpt>
      <trkpt lat="43.67329" lon="3.86715">
        <ele>54.5</ele>
        <time>2018-09-16T06:32:27Z</time>
      </trkpt>
      <trkpt lat="43.6733" lon="3.86725">
        <ele>54.8</ele>
        <time>2018-09-16T06:32:29Z</time>
      </trkpt>
      <trkpt lat="43.6733" lon="3.8673">
        <ele>55</ele>
        <time>2018-09-16T06:32:30Z</time>
      </trkpt>
      <trkpt lat="43.6733" lon="3.86741">
        <ele>55.6</ele>
        <time>2018-09-16T06:32:35Z</time>
      </trkpt>
      <trkpt lat="43.67329" lon="3.86745">
        <ele>55.7</ele>
        <time>2018-09-16T06:32:36Z</time>
      </trkpt>
      <trkpt lat="43.67328" lon="3.86749">
        <ele>55.9</ele>
        <time>2018-09-16T06:32:37Z</time>
      </trkpt>
      <trkpt lat="43.67326" lon="3.86762">
        <ele>57.3</ele>
        <time>2018-09-16T06:32:38Z</time>
      </trkpt>
      <trkpt lat="43.67329" lon="3.86766">
        <ele>57.7</ele>
        <time>2018-09-16T06:32:40Z</time>
      </trkpt>
      <trkpt lat="43.67335" lon="3.86771">
        <ele>58.2</ele>
        <time>2018-09-16T06:32:41Z</time>
      </trkpt>
      <trkpt lat="43.67341" lon="3.86772">
        <ele>58.2</ele>
        <time>2018-09-16T06:32:43Z</time>
      </trkpt>
      <trkpt lat="43.67348" lon="3.86772">
        <ele>58</ele>
        <time>2018-09-16T06:32:44Z</time>
      </trkpt>
      <trkpt lat="43.67355" lon="3.86767">
        <ele>57.4</ele>
        <time>2018-09-16T06:32:46Z</time>
      </trkpt>
      <trkpt lat="43.67359" lon="3.86766">
        <ele>57.2</ele>
        <time>2018-09-16T06:32:47Z</time>
      </trkpt>
      <trkpt lat="43.67363" lon="3.86765">
        <ele>57</ele>
        <time>2018-09-16T06:32:48Z</time>
      </trkpt>
      <trkpt lat="43.67368" lon="3.86766">
        <ele>56.9</ele>
        <time>2018-09-16T06:32:49Z</time>
      </trkpt>
      <trkpt lat="43.67377" lon="3.86766">
        <ele>56.6</ele>
        <time>2018-09-16T06:32:51Z</time>
      </trkpt>
      <trkpt lat="43.67382" lon="3.86768">
        <ele>56.5</ele>
        <time>2018-09-16T06:32:52Z</time>
      </trkpt>
      <trkpt lat="43.67391" lon="3.86769">
        <ele>56.3</ele>
        <time>2018-09-16T06:32:54Z</time>
      </trkpt>
      <trkpt lat="43.67394" lon="3.86771">
        <ele>56.3</ele>
        <time>2018-09-16T06:32:55Z</time>
      </trkpt>
      <trkpt lat="43.67402" lon="3.86772">
        <ele>56.1</ele>
        <time>2018-09-16T06:32:57Z</time>
      </trkpt>
      <trkpt lat="43.67407" lon="3.86772">
        <ele>55.9</ele>
        <time>2018-09-16T06:32:58Z</time>
      </trkpt>
      <trkpt lat="43.67415" lon="3.86772">
        <ele>55.6</ele>
        <time>2018-09-16T06:33:00Z</time>
      </trkpt>
      <trkpt lat="43.67419" lon="3.86772">
        <ele>55.6</ele>
        <time>2018-09-16T06:33:01Z</time>
      </trkpt>
      <trkpt lat="43.67427" lon="3.86771">
        <ele>55.5</ele>
        <time>2018-09-16T06:33:03Z</time>
      </trkpt>
      <trkpt lat="43.67432" lon="3.86771">
        <ele>55.5</ele>
        <time>2018-09-16T06:33:04Z</time>
      </trkpt>
      <trkpt lat="43.6744" lon="3.86773">
        <ele>55.7</ele>
        <time>2018-09-16T06:33:06Z</time>
      </trkpt>
      <trkpt lat="43.67442" lon="3.86772">
        <ele>55.6</ele>
        <time>2018-09-16T06:33:07Z</time>
      </trkpt>
      <trkpt lat="43.67447" lon="3.8677">
        <ele>55.4</ele>
        <time>2018-09-16T06:33:08Z</time>
      </trkpt>
      <trkpt lat="43.67452" lon="3.86768">
        <ele>55.3</ele>
        <time>2018-09-16T06:33:09Z</time>
      </trkpt>
      <trkpt lat="43.6746" lon="3.86765">
        <ele>55.1</ele>
        <time>2018-09-16T06:33:11Z</time>
      </trkpt>
      <trkpt lat="43.67464" lon="3.86763">
        <ele>54.9</ele>
        <time>2018-09-16T06:33:12Z</time>
      </trkpt>
      <trkpt lat="43.67472" lon="3.86761">
        <ele>54.8</ele>
        <time>2018-09-16T06:33:14Z</time>
      </trkpt>
      <trkpt lat="43.67477" lon="3.86759">
        <ele>54.6</ele>
        <time>2018-09-16T06:33:15Z</time>
      </trkpt>
      <trkpt lat="43.67481" lon="3.86756">
        <ele>54.4</ele>
        <time>2018-09-16T06:33:16Z</time>
      </trkpt>
      <trkpt lat="43.67486" lon="3.86753">
        <ele>54.2</ele>
        <time>2018-09-16T06:33:17Z</time>
      </trkpt>
      <trkpt lat="43.67491" lon="3.86751">
        <ele>54</ele>
        <time>2018-09-16T06:33:18Z</time>
      </trkpt>
      <trkpt lat="43.67496" lon="3.86748">
        <ele>54</ele>
        <time>2018-09-16T06:33:19Z</time>
      </trkpt>
      <trkpt lat="43.67502" lon="3.86746">
        <ele>54</ele>
        <time>2018-09-16T06:33:20Z</time>
      </trkpt>
      <trkpt lat="43.67506" lon="3.86744">
        <ele>54</ele>
        <time>2018-09-16T06:33:21Z</time>
      </trkpt>
      <trkpt lat="43.67515" lon="3.8674">
        <ele>54</ele>
        <time>2018-09-16T06:33:24Z</time>
      </trkpt>
      <trkpt lat="43.67517" lon="3.86744">
        <ele>54</ele>
        <time>2018-09-16T06:33:25Z</time>
      </trkpt>
      <trkpt lat="43.67521" lon="3.86753">
        <ele>54</ele>
        <time>2018-09-16T06:33:26Z</time>
      </trkpt>
      <trkpt lat="43.67525" lon="3.86756">
        <ele>54</ele>
        <time>2018-09-16T06:33:27Z</time>
      </trkpt>
      <trkpt lat="43.67527" lon="3.86765">
        <ele>54</ele>
        <time>2018-09-16T06:33:30Z</time>
      </trkpt>
      <trkpt lat="43.67528" lon="3.8677">
        <ele>54</ele>
        <time>2018-09-16T06:33:31Z</time>
      </trkpt>
      <trkpt lat="43.67529" lon="3.86781">
        <ele>54.1</ele>
        <time>2018-09-16T06:33:32Z</time>
      </trkpt>
      <trkpt lat="43.6753" lon="3.86786">
        <ele>54.3</ele>
        <time>2018-09-16T06:33:33Z</time>
      </trkpt>
      <trkpt lat="43.6753" lon="3.86793">
        <ele>54.5</ele>
        <time>2018-09-16T06:33:35Z</time>
      </trkpt>
      <trkpt lat="43.67531" lon="3.86801">
        <ele>54.7</ele>
        <time>2018-09-16T06:33:36Z</time>
      </trkpt>
      <trkpt lat="43.67533" lon="3.86813">
        <ele>55.1</ele>
        <time>2018-09-16T06:33:38Z</time>
      </trkpt>
      <trkpt lat="43.67534" lon="3.86817">
        <ele>55.2</ele>
        <time>2018-09-16T06:33:39Z</time>
      </trkpt>
      <trkpt lat="43.67535" lon="3.86827">
        <ele>55.5</ele>
        <time>2018-09-16T06:33:42Z</time>
      </trkpt>
      <trkpt lat="43.67535" lon="3.8683">
        <ele>55.6</ele>
        <time>2018-09-16T06:33:43Z</time>
      </trkpt>
      <trkpt lat="43.67536" lon="3.86839">
        <ele>55.9</ele>
        <time>2018-09-16T06:33:45Z</time>
      </trkpt>
      <trkpt lat="43.67537" lon="3.86843">
        <ele>56</ele>
        <time>2018-09-16T06:33:46Z</time>
      </trkpt>
      <trkpt lat="43.67539" lon="3.86851">
        <ele>56.2</ele>
        <time>2018-09-16T06:33:48Z</time>
      </trkpt>
      <trkpt lat="43.6754" lon="3.86855">
        <ele>56.3</ele>
        <time>2018-09-16T06:33:49Z</time>
      </trkpt>
      <trkpt lat="43.67541" lon="3.86865">
        <ele>56.7</ele>
        <time>2018-09-16T06:33:51Z</time>
      </trkpt>
      <trkpt lat="43.67542" lon="3.86869">
        <ele>56.8</ele>
        <time>2018-09-16T06:33:52Z</time>
      </trkpt>
      <trkpt lat="43.67543" lon="3.86877">
        <ele>57</ele>
        <time>2018-09-16T06:33:54Z</time>
      </trkpt>
      <trkpt lat="43.67543" lon="3.86882">
        <ele>57.2</ele>
        <time>2018-09-16T06:33:55Z</time>
      </trkpt>
      <trkpt lat="43.67543" lon="3.86891">
        <ele>57.5</ele>
        <time>2018-09-16T06:33:57Z</time>
      </trkpt>
      <trkpt lat="43.67544" lon="3.86896">
        <ele>57.7</ele>
        <time>2018-09-16T06:33:58Z</time>
      </trkpt>
      <trkpt lat="43.67545" lon="3.86908">
        <ele>58.1</ele>
        <time>2018-09-16T06:33:59Z</time>
      </trkpt>
      <trkpt lat="43.67547" lon="3.86919">
        <ele>58.3</ele>
        <time>2018-09-16T06:34:01Z</time>
      </trkpt>
      <trkpt lat="43.67548" lon="3.86924">
        <ele>58.3</ele>
        <time>2018-09-16T06:34:02Z</time>
      </trkpt>
      <trkpt lat="43.67551" lon="3.86935">
        <ele>58.3</ele>
        <time>2018-09-16T06:34:04Z</time>
      </trkpt>
      <trkpt lat="43.67553" lon="3.86939">
        <ele>58.2</ele>
        <time>2018-09-16T06:34:05Z</time>
      </trkpt>
      <trkpt lat="43.67555" lon="3.8695">
        <ele>58.2</ele>
        <time>2018-09-16T06:34:07Z</time>
      </trkpt>
      <trkpt lat="43.67557" lon="3.86956">
        <ele>58.3</ele>
        <time>2018-09-16T06:34:08Z</time>
      </trkpt>
      <trkpt lat="43.6756" lon="3.86966">
        <ele>58.5</ele>
        <time>2018-09-16T06:34:10Z</time>
      </trkpt>
      <trkpt lat="43.67561" lon="3.86971">
        <ele>58.6</ele>
        <time>2018-09-16T06:34:11Z</time>
      </trkpt>
      <trkpt lat="43.67564" lon="3.86981">
        <ele>58.7</ele>
        <time>2018-09-16T06:34:13Z</time>
      </trkpt>
      <trkpt lat="43.67566" lon="3.86986">
        <ele>58.7</ele>
        <time>2018-09-16T06:34:14Z</time>
      </trkpt>
      <trkpt lat="43.67569" lon="3.86991">
        <ele>58.7</ele>
        <time>2018-09-16T06:34:15Z</time>
      </trkpt>
      <trkpt lat="43.67571" lon="3.86997">
        <ele>58.8</ele>
        <time>2018-09-16T06:34:16Z</time>
      </trkpt>
      <trkpt lat="43.67575" lon="3.87006">
        <ele>58.9</ele>
        <time>2018-09-16T06:34:18Z</time>
      </trkpt>
      <trkpt lat="43.67577" lon="3.8701">
        <ele>59</ele>
        <time>2018-09-16T06:34:19Z</time>
      </trkpt>
      <trkpt lat="43.67579" lon="3.87015">
        <ele>59</ele>
        <time>2018-09-16T06:34:20Z</time>
      </trkpt>
      <trkpt lat="43.67582" lon="3.8702">
        <ele>58.9</ele>
        <time>2018-09-16T06:34:21Z</time>
      </trkpt>
      <trkpt lat="43.67585" lon="3.87024">
        <ele>58.8</ele>
        <time>2018-09-16T06:34:22Z</time>
      </trkpt>
      <trkpt lat="43.67589" lon="3.87029">
        <ele>58.9</ele>
        <time>2018-09-16T06:34:23Z</time>
      </trkpt>
      <trkpt lat="43.67592" lon="3.87035">
        <ele>59.3</ele>
        <time>2018-09-16T06:34:24Z</time>
      </trkpt>
      <trkpt lat="43.67593" lon="3.87041">
        <ele>59.7</ele>
        <time>2018-09-16T06:34:25Z</time>
      </trkpt>
      <trkpt lat="43.67598" lon="3.8705">
        <ele>60</ele>
        <time>2018-09-16T06:34:27Z</time>
      </trkpt>
      <trkpt lat="43.676" lon="3.87055">
        <ele>60.2</ele>
        <time>2018-09-16T06:34:28Z</time>
      </trkpt>
      <trkpt lat="43.67605" lon="3.87065">
        <ele>60.5</ele>
        <time>2018-09-16T06:34:30Z</time>
      </trkpt>
      <trkpt lat="43.67608" lon="3.87069">
        <ele>60.4</ele>
        <time>2018-09-16T06:34:31Z</time>
      </trkpt>
      <trkpt lat="43.67612" lon="3.87079">
        <ele>60.6</ele>
        <time>2018-09-16T06:34:33Z</time>
      </trkpt>
      <trkpt lat="43.67613" lon="3.87083">
        <ele>60.8</ele>
        <time>2018-09-16T06:34:34Z</time>
      </trkpt>
      <trkpt lat="43.67617" lon="3.87088">
        <ele>60.7</ele>
        <time>2018-09-16T06:34:35Z</time>
      </trkpt>
      <trkpt lat="43.67619" lon="3.87092">
        <ele>60.7</ele>
        <time>2018-09-16T06:34:36Z</time>
      </trkpt>
      <trkpt lat="43.67626" lon="3.871">
        <ele>60.3</ele>
        <time>2018-09-16T06:34:38Z</time>
      </trkpt>
      <trkpt lat="43.6763" lon="3.87104">
        <ele>59.9</ele>
        <time>2018-09-16T06:34:39Z</time>
      </trkpt>
      <trkpt lat="43.67636" lon="3.8711">
        <ele>59.4</ele>
        <time>2018-09-16T06:34:44Z</time>
      </trkpt>
      <trkpt lat="43.67638" lon="3.87111">
        <ele>59.1</ele>
        <time>2018-09-16T06:34:45Z</time>
      </trkpt>
      <trkpt lat="43.67646" lon="3.87117">
        <ele>59</ele>
        <time>2018-09-16T06:34:48Z</time>
      </trkpt>
      <trkpt lat="43.67648" lon="3.87119">
        <ele>59</ele>
        <time>2018-09-16T06:34:49Z</time>
      </trkpt>
      <trkpt lat="43.67654" lon="3.87127">
        <ele>59</ele>
        <time>2018-09-16T06:34:56Z</time>
      </trkpt>
      <trkpt lat="43.67656" lon="3.87129">
        <ele>59</ele>
        <time>2018-09-16T06:34:57Z</time>
      </trkpt>
      <trkpt lat="43.67662" lon="3.87137">
        <ele>59</ele>
        <time>2018-09-16T06:35:02Z</time>
      </trkpt>
      <trkpt lat="43.67663" lon="3.87138">
        <ele>59</ele>
        <time>2018-09-16T06:35:03Z</time>
      </trkpt>
      <trkpt lat="43.67665" lon="3.87147">
        <ele>59.3</ele>
        <time>2018-09-16T06:35:06Z</time>
      </trkpt>
      <trkpt lat="43.67665" lon="3.87162">
        <ele>59.8</ele>
        <time>2018-09-16T06:35:14Z</time>
      </trkpt>
      <trkpt lat="43.67666" lon="3.87171">
        <ele>60</ele>
        <time>2018-09-16T06:35:15Z</time>
      </trkpt>
      <trkpt lat="43.67667" lon="3.87178">
        <ele>60</ele>
        <time>2018-09-16T06:35:16Z</time>
      </trkpt>
      <trkpt lat="43.6767" lon="3.87186">
        <ele>60.1</ele>
        <time>2018-09-16T06:35:18Z</time>
      </trkpt>
      <trkpt lat="43.67672" lon="3.8719">
        <ele>60.1</ele>
        <time>2018-09-16T06:35:19Z</time>
      </trkpt>
      <trkpt lat="43.67677" lon="3.87196">
        <ele>60</ele>
        <time>2018-09-16T06:35:21Z</time>
      </trkpt>
      <trkpt lat="43.6768" lon="3.87199">
        <ele>60</ele>
        <time>2018-09-16T06:35:22Z</time>
      </trkpt>
      <trkpt lat="43.67684" lon="3.87206">
        <ele>60</ele>
        <time>2018-09-16T06:35:24Z</time>
      </trkpt>
      <trkpt lat="43.67686" lon="3.87209">
        <ele>60</ele>
        <time>2018-09-16T06:35:25Z</time>
      </trkpt>
      <trkpt lat="43.67692" lon="3.87218">
        <ele>60</ele>
        <time>2018-09-16T06:35:28Z</time>
      </trkpt>
      <trkpt lat="43.67694" lon="3.87221">
        <ele>60</ele>
        <time>2018-09-16T06:35:29Z</time>
      </trkpt>
      <trkpt lat="43.67702" lon="3.87227">
        <ele>60.3</ele>
        <time>2018-09-16T06:35:32Z</time>
      </trkpt>
      <trkpt lat="43.67705" lon="3.87229">
        <ele>60.4</ele>
        <time>2018-09-16T06:35:33Z</time>
      </trkpt>
      <trkpt lat="43.67711" lon="3.87233">
        <ele>60.6</ele>
        <time>2018-09-16T06:35:35Z</time>
      </trkpt>
      <trkpt lat="43.67715" lon="3.87235">
        <ele>60.7</ele>
        <time>2018-09-16T06:35:36Z</time>
      </trkpt>
      <trkpt lat="43.67721" lon="3.87237">
        <ele>61</ele>
        <time>2018-09-16T06:35:38Z</time>
      </trkpt>
      <trkpt lat="43.67724" lon="3.87237">
        <ele>61.1</ele>
        <time>2018-09-16T06:35:39Z</time>
      </trkpt>
      <trkpt lat="43.67731" lon="3.87236">
        <ele>61.5</ele>
        <time>2018-09-16T06:35:42Z</time>
      </trkpt>
      <trkpt lat="43.67733" lon="3.87237">
        <ele>61.5</ele>
        <time>2018-09-16T06:35:43Z</time>
      </trkpt>
      <trkpt lat="43.67741" lon="3.87237">
        <ele>61.9</ele>
        <time>2018-09-16T06:35:46Z</time>
      </trkpt>
      <trkpt lat="43.67743" lon="3.87236">
        <ele>62.1</ele>
        <time>2018-09-16T06:35:47Z</time>
      </trkpt>
      <trkpt lat="43.67751" lon="3.87234">
        <ele>62.8</ele>
        <time>2018-09-16T06:35:52Z</time>
      </trkpt>
      <trkpt lat="43.67753" lon="3.87234">
        <ele>62.9</ele>
        <time>2018-09-16T06:35:53Z</time>
      </trkpt>
      <trkpt lat="43.67759" lon="3.87231">
        <ele>63.6</ele>
        <time>2018-09-16T06:35:56Z</time>
      </trkpt>
      <trkpt lat="43.67761" lon="3.87228">
        <ele>63.9</ele>
        <time>2018-09-16T06:35:57Z</time>
      </trkpt>
      <trkpt lat="43.67766" lon="3.87218">
        <ele>64.6</ele>
        <time>2018-09-16T06:36:01Z</time>
      </trkpt>
      <trkpt lat="43.67766" lon="3.87215">
        <ele>64.7</ele>
        <time>2018-09-16T06:36:02Z</time>
      </trkpt>
      <trkpt lat="43.67768" lon="3.87204">
        <ele>65</ele>
        <time>2018-09-16T06:36:07Z</time>
      </trkpt>
      <trkpt lat="43.67769" lon="3.87201">
        <ele>65.2</ele>
        <time>2018-09-16T06:36:08Z</time>
      </trkpt>
      <trkpt lat="43.6777" lon="3.87192">
        <ele>65.8</ele>
        <time>2018-09-16T06:36:11Z</time>
      </trkpt>
      <trkpt lat="43.67771" lon="3.87189">
        <ele>66.1</ele>
        <time>2018-09-16T06:36:12Z</time>
      </trkpt>
      <trkpt lat="43.67771" lon="3.87177">
        <ele>66.9</ele>
        <time>2018-09-16T06:36:16Z</time>
      </trkpt>
      <trkpt lat="43.67771" lon="3.87174">
        <ele>67.1</ele>
        <time>2018-09-16T06:36:17Z</time>
      </trkpt>
      <trkpt lat="43.67771" lon="3.87162">
        <ele>67.8</ele>
        <time>2018-09-16T06:36:21Z</time>
      </trkpt>
      <trkpt lat="43.67771" lon="3.87159">
        <ele>68</ele>
        <time>2018-09-16T06:36:22Z</time>
      </trkpt>
      <trkpt lat="43.67772" lon="3.87148">
        <ele>69</ele>
        <time>2018-09-16T06:36:26Z</time>
      </trkpt>
      <trkpt lat="43.67773" lon="3.87146">
        <ele>69.3</ele>
        <time>2018-09-16T06:36:27Z</time>
      </trkpt>
      <trkpt lat="43.67773" lon="3.87135">
        <ele>70</ele>
        <time>2018-09-16T06:36:31Z</time>
      </trkpt>
      <trkpt lat="43.67774" lon="3.87132">
        <ele>70.5</ele>
        <time>2018-09-16T06:36:32Z</time>
      </trkpt>
      <trkpt lat="43.67774" lon="3.87121">
        <ele>71.2</ele>
        <time>2018-09-16T06:36:36Z</time>
      </trkpt>
      <trkpt lat="43.67775" lon="3.87118">
        <ele>71.7</ele>
        <time>2018-09-16T06:36:37Z</time>
      </trkpt>
      <trkpt lat="43.67777" lon="3.87106">
        <ele>72.9</ele>
        <time>2018-09-16T06:36:41Z</time>
      </trkpt>
      <trkpt lat="43.67778" lon="3.87104">
        <ele>73.3</ele>
        <time>2018-09-16T06:36:42Z</time>
      </trkpt>
      <trkpt lat="43.67783" lon="3.87096">
        <ele>73.6</ele>
        <time>2018-09-16T06:36:46Z</time>
      </trkpt>
      <trkpt lat="43.67784" lon="3.87094">
        <ele>73.8</ele>
        <time>2018-09-16T06:36:47Z</time>
      </trkpt>
      <trkpt lat="43.6779" lon="3.87086">
        <ele>74.3</ele>
        <time>2018-09-16T06:36:51Z</time>
      </trkpt>
      <trkpt lat="43.67792" lon="3.87083">
        <ele>74.5</ele>
        <time>2018-09-16T06:36:52Z</time>
      </trkpt>
      <trkpt lat="43.67797" lon="3.87077">
        <ele>75.1</ele>
        <time>2018-09-16T06:36:55Z</time>
      </trkpt>
      <trkpt lat="43.67798" lon="3.87074">
        <ele>75.3</ele>
        <time>2018-09-16T06:36:56Z</time>
      </trkpt>
      <trkpt lat="43.67802" lon="3.87066">
        <ele>76</ele>
        <time>2018-09-16T06:36:59Z</time>
      </trkpt>
      <trkpt lat="43.67804" lon="3.87064">
        <ele>76.3</ele>
        <time>2018-09-16T06:37:00Z</time>
      </trkpt>
      <trkpt lat="43.6781" lon="3.87057">
        <ele>76.9</ele>
        <time>2018-09-16T06:37:04Z</time>
      </trkpt>
      <trkpt lat="43.67811" lon="3.87055">
        <ele>77.1</ele>
        <time>2018-09-16T06:37:05Z</time>
      </trkpt>
      <trkpt lat="43.67817" lon="3.87049">
        <ele>77.7</ele>
        <time>2018-09-16T06:37:09Z</time>
      </trkpt>
      <trkpt lat="43.67819" lon="3.87048">
        <ele>77.8</ele>
        <time>2018-09-16T06:37:10Z</time>
      </trkpt>
      <trkpt lat="43.67825" lon="3.87042">
        <ele>78.5</ele>
        <time>2018-09-16T06:37:13Z</time>
      </trkpt>
      <trkpt lat="43.67827" lon="3.8704">
        <ele>78.7</ele>
        <time>2018-09-16T06:37:14Z</time>
      </trkpt>
      <trkpt lat="43.67833" lon="3.87034">
        <ele>79.3</ele>
        <time>2018-09-16T06:37:17Z</time>
      </trkpt>
      <trkpt lat="43.67835" lon="3.87032">
        <ele>79.4</ele>
        <time>2018-09-16T06:37:18Z</time>
      </trkpt>
      <trkpt lat="43.67842" lon="3.87027">
        <ele>79.4</ele>
        <time>2018-09-16T06:37:21Z</time>
      </trkpt>
      <trkpt lat="43.67845" lon="3.87025">
        <ele>79.4</ele>
        <time>2018-09-16T06:37:22Z</time>
      </trkpt>
      <trkpt lat="43.67852" lon="3.8702">
        <ele>79.2</ele>
        <time>2018-09-16T06:37:25Z</time>
      </trkpt>
      <trkpt lat="43.67855" lon="3.87019">
        <ele>79.1</ele>
        <time>2018-09-16T06:37:26Z</time>
      </trkpt>
      <trkpt lat="43.67862" lon="3.87013">
        <ele>79</ele>
        <time>2018-09-16T06:37:29Z</time>
      </trkpt>
      <trkpt lat="43.67864" lon="3.8701">
        <ele>79.2</ele>
        <time>2018-09-16T06:37:30Z</time>
      </trkpt>
      <trkpt lat="43.67871" lon="3.87005">
        <ele>79.3</ele>
        <time>2018-09-16T06:37:33Z</time>
      </trkpt>
      <trkpt lat="43.67874" lon="3.87005">
        <ele>79.3</ele>
        <time>2018-09-16T06:37:34Z</time>
      </trkpt>
      <trkpt lat="43.6788" lon="3.87004">
        <ele>79.1</ele>
        <time>2018-09-16T06:37:36Z</time>
      </trkpt>
      <trkpt lat="43.67883" lon="3.87003">
        <ele>79.1</ele>
        <time>2018-09-16T06:37:37Z</time>
      </trkpt>
      <trkpt lat="43.67889" lon="3.87003">
        <ele>78.9</ele>
        <time>2018-09-16T06:37:39Z</time>
      </trkpt>
      <trkpt lat="43.67893" lon="3.87004">
        <ele>79</ele>
        <time>2018-09-16T06:37:40Z</time>
      </trkpt>
      <trkpt lat="43.67899" lon="3.87008">
        <ele>79</ele>
        <time>2018-09-16T06:37:42Z</time>
      </trkpt>
      <trkpt lat="43.67902" lon="3.8701">
        <ele>78.9</ele>
        <time>2018-09-16T06:37:43Z</time>
      </trkpt>
      <trkpt lat="43.67911" lon="3.87019">
        <ele>78.6</ele>
        <time>2018-09-16T06:37:44Z</time>
      </trkpt>
      <trkpt lat="43.67918" lon="3.87025">
        <ele>78.3</ele>
        <time>2018-09-16T06:37:46Z</time>
      </trkpt>
      <trkpt lat="43.67922" lon="3.87029">
        <ele>78.5</ele>
        <time>2018-09-16T06:37:47Z</time>
      </trkpt>
      <trkpt lat="43.67929" lon="3.87036">
        <ele>78.7</ele>
        <time>2018-09-16T06:37:49Z</time>
      </trkpt>
      <trkpt lat="43.67933" lon="3.87039">
        <ele>79</ele>
        <time>2018-09-16T06:37:50Z</time>
      </trkpt>
      <trkpt lat="43.6794" lon="3.87047">
        <ele>79.1</ele>
        <time>2018-09-16T06:37:52Z</time>
      </trkpt>
      <trkpt lat="43.67944" lon="3.8705">
        <ele>79.4</ele>
        <time>2018-09-16T06:37:53Z</time>
      </trkpt>
      <trkpt lat="43.67949" lon="3.87056">
        <ele>79.6</ele>
        <time>2018-09-16T06:37:55Z</time>
      </trkpt>
      <trkpt lat="43.67954" lon="3.87059">
        <ele>80</ele>
        <time>2018-09-16T06:37:56Z</time>
      </trkpt>
      <trkpt lat="43.67961" lon="3.87065">
        <ele>80.2</ele>
        <time>2018-09-16T06:37:58Z</time>
      </trkpt>
      <trkpt lat="43.67964" lon="3.87069">
        <ele>80</ele>
        <time>2018-09-16T06:37:59Z</time>
      </trkpt>
      <trkpt lat="43.67968" lon="3.87073">
        <ele>80</ele>
        <time>2018-09-16T06:38:01Z</time>
      </trkpt>
      <trkpt lat="43.67973" lon="3.87077">
        <ele>79.9</ele>
        <time>2018-09-16T06:38:02Z</time>
      </trkpt>
      <trkpt lat="43.67981" lon="3.8708">
        <ele>79.4</ele>
        <time>2018-09-16T06:38:04Z</time>
      </trkpt>
      <trkpt lat="43.67985" lon="3.87079">
        <ele>79.6</ele>
        <time>2018-09-16T06:38:05Z</time>
      </trkpt>
      <trkpt lat="43.67993" lon="3.87076">
        <ele>79.9</ele>
        <time>2018-09-16T06:38:07Z</time>
      </trkpt>
      <trkpt lat="43.67995" lon="3.87074">
        <ele>80.1</ele>
        <time>2018-09-16T06:38:08Z</time>
      </trkpt>
      <trkpt lat="43.68001" lon="3.87068">
        <ele>80.7</ele>
        <time>2018-09-16T06:38:10Z</time>
      </trkpt>
      <trkpt lat="43.68005" lon="3.87066">
        <ele>80.9</ele>
        <time>2018-09-16T06:38:11Z</time>
      </trkpt>
      <trkpt lat="43.68013" lon="3.87062">
        <ele>81.4</ele>
        <time>2018-09-16T06:38:15Z</time>
      </trkpt>
      <trkpt lat="43.68016" lon="3.87061">
        <ele>81.5</ele>
        <time>2018-09-16T06:38:16Z</time>
      </trkpt>
      <trkpt lat="43.68025" lon="3.87062">
        <ele>81.5</ele>
        <time>2018-09-16T06:38:19Z</time>
      </trkpt>
      <trkpt lat="43.68033" lon="3.87068">
        <ele>81.7</ele>
        <time>2018-09-16T06:38:20Z</time>
      </trkpt>
      <trkpt lat="43.68036" lon="3.87074">
        <ele>81.6</ele>
        <time>2018-09-16T06:38:23Z</time>
      </trkpt>
      <trkpt lat="43.6804" lon="3.87082">
        <ele>81.4</ele>
        <time>2018-09-16T06:38:24Z</time>
      </trkpt>
      <trkpt lat="43.68042" lon="3.87087">
        <ele>81.3</ele>
        <time>2018-09-16T06:38:26Z</time>
      </trkpt>
      <trkpt lat="43.68046" lon="3.87095">
        <ele>81.1</ele>
        <time>2018-09-16T06:38:27Z</time>
      </trkpt>
      <trkpt lat="43.6805" lon="3.87101">
        <ele>81.1</ele>
        <time>2018-09-16T06:38:28Z</time>
      </trkpt>
      <trkpt lat="43.68054" lon="3.87106">
        <ele>81.2</ele>
        <time>2018-09-16T06:38:29Z</time>
      </trkpt>
      <trkpt lat="43.68057" lon="3.87115">
        <ele>81</ele>
        <time>2018-09-16T06:38:31Z</time>
      </trkpt>
      <trkpt lat="43.68059" lon="3.87121">
        <ele>80.9</ele>
        <time>2018-09-16T06:38:32Z</time>
      </trkpt>
      <trkpt lat="43.68064" lon="3.87129">
        <ele>81.2</ele>
        <time>2018-09-16T06:38:34Z</time>
      </trkpt>
      <trkpt lat="43.68067" lon="3.87135">
        <ele>81.3</ele>
        <time>2018-09-16T06:38:35Z</time>
      </trkpt>
      <trkpt lat="43.6807" lon="3.87141">
        <ele>81.4</ele>
        <time>2018-09-16T06:38:37Z</time>
      </trkpt>
      <trkpt lat="43.68076" lon="3.87147">
        <ele>82</ele>
        <time>2018-09-16T06:38:38Z</time>
      </trkpt>
      <trkpt lat="43.6808" lon="3.87153">
        <ele>82</ele>
        <time>2018-09-16T06:38:40Z</time>
      </trkpt>
      <trkpt lat="43.68084" lon="3.87159">
        <ele>81.9</ele>
        <time>2018-09-16T06:38:41Z</time>
      </trkpt>
      <trkpt lat="43.68091" lon="3.87164">
        <ele>82.4</ele>
        <time>2018-09-16T06:38:43Z</time>
      </trkpt>
      <trkpt lat="43.68094" lon="3.87167">
        <ele>82.5</ele>
        <time>2018-09-16T06:38:44Z</time>
      </trkpt>
      <trkpt lat="43.68101" lon="3.87172">
        <ele>82.8</ele>
        <time>2018-09-16T06:38:46Z</time>
      </trkpt>
      <trkpt lat="43.68105" lon="3.87175">
        <ele>83</ele>
        <time>2018-09-16T06:38:47Z</time>
      </trkpt>
      <trkpt lat="43.68109" lon="3.87177">
        <ele>83.2</ele>
        <time>2018-09-16T06:38:48Z</time>
      </trkpt>
      <trkpt lat="43.68114" lon="3.87181">
        <ele>83.2</ele>
        <time>2018-09-16T06:38:49Z</time>
      </trkpt>
      <trkpt lat="43.68121" lon="3.87188">
        <ele>82.7</ele>
        <time>2018-09-16T06:38:51Z</time>
      </trkpt>
      <trkpt lat="43.68125" lon="3.87191">
        <ele>82.6</ele>
        <time>2018-09-16T06:38:52Z</time>
      </trkpt>
      <trkpt lat="43.68131" lon="3.87195">
        <ele>82.4</ele>
        <time>2018-09-16T06:38:54Z</time>
      </trkpt>
      <trkpt lat="43.68134" lon="3.87198">
        <ele>82.4</ele>
        <time>2018-09-16T06:38:55Z</time>
      </trkpt>
      <trkpt lat="43.6814" lon="3.87202">
        <ele>82.6</ele>
        <time>2018-09-16T06:38:57Z</time>
      </trkpt>
      <trkpt lat="43.68143" lon="3.87205">
        <ele>82.8</ele>
        <time>2018-09-16T06:38:58Z</time>
      </trkpt>
      <trkpt lat="43.6815" lon="3.87207">
        <ele>83.5</ele>
        <time>2018-09-16T06:39:00Z</time>
      </trkpt>
      <trkpt lat="43.68153" lon="3.87211">
        <ele>83.5</ele>
        <time>2018-09-16T06:39:01Z</time>
      </trkpt>
      <trkpt lat="43.68159" lon="3.87221">
        <ele>83.3</ele>
        <time>2018-09-16T06:39:03Z</time>
      </trkpt>
      <trkpt lat="43.68162" lon="3.87226">
        <ele>83.1</ele>
        <time>2018-09-16T06:39:04Z</time>
      </trkpt>
      <trkpt lat="43.68165" lon="3.8723">
        <ele>83</ele>
        <time>2018-09-16T06:39:05Z</time>
      </trkpt>
      <trkpt lat="43.68168" lon="3.87235">
        <ele>82.8</ele>
        <time>2018-09-16T06:39:06Z</time>
      </trkpt>
      <trkpt lat="43.68172" lon="3.87239">
        <ele>83</ele>
        <time>2018-09-16T06:39:07Z</time>
      </trkpt>
      <trkpt lat="43.68175" lon="3.87245">
        <ele>82.7</ele>
        <time>2018-09-16T06:39:08Z</time>
      </trkpt>
      <trkpt lat="43.6818" lon="3.87248">
        <ele>83.1</ele>
        <time>2018-09-16T06:39:09Z</time>
      </trkpt>
      <trkpt lat="43.68182" lon="3.87252">
        <ele>83</ele>
        <time>2018-09-16T06:39:10Z</time>
      </trkpt>
      <trkpt lat="43.68188" lon="3.8726">
        <ele>82.8</ele>
        <time>2018-09-16T06:39:15Z</time>
      </trkpt>
      <trkpt lat="43.68193" lon="3.87268">
        <ele>82.3</ele>
        <time>2018-09-16T06:39:16Z</time>
      </trkpt>
      <trkpt lat="43.68195" lon="3.87277">
        <ele>81.2</ele>
        <time>2018-09-16T06:39:18Z</time>
      </trkpt>
      <trkpt lat="43.68198" lon="3.87282">
        <ele>81.3</ele>
        <time>2018-09-16T06:39:19Z</time>
      </trkpt>
      <trkpt lat="43.68202" lon="3.87287">
        <ele>81.5</ele>
        <time>2018-09-16T06:39:20Z</time>
      </trkpt>
      <trkpt lat="43.68205" lon="3.87291">
        <ele>81.6</ele>
        <time>2018-09-16T06:39:21Z</time>
      </trkpt>
      <trkpt lat="43.68212" lon="3.87297">
        <ele>81.9</ele>
        <time>2018-09-16T06:39:23Z</time>
      </trkpt>
      <trkpt lat="43.68214" lon="3.873">
        <ele>81.8</ele>
        <time>2018-09-16T06:39:24Z</time>
      </trkpt>
      <trkpt lat="43.6822" lon="3.87307">
        <ele>81.6</ele>
        <time>2018-09-16T06:39:26Z</time>
      </trkpt>
      <trkpt lat="43.68224" lon="3.8731">
        <ele>81.8</ele>
        <time>2018-09-16T06:39:27Z</time>
      </trkpt>
      <trkpt lat="43.68232" lon="3.87312">
        <ele>82.6</ele>
        <time>2018-09-16T06:39:31Z</time>
      </trkpt>
      <trkpt lat="43.68234" lon="3.87313">
        <ele>82.8</ele>
        <time>2018-09-16T06:39:32Z</time>
      </trkpt>
      <trkpt lat="43.68242" lon="3.87317">
        <ele>83.3</ele>
        <time>2018-09-16T06:39:36Z</time>
      </trkpt>
      <trkpt lat="43.68244" lon="3.87318">
        <ele>83.4</ele>
        <time>2018-09-16T06:39:37Z</time>
      </trkpt>
      <trkpt lat="43.68252" lon="3.8732">
        <ele>84.1</ele>
        <time>2018-09-16T06:39:41Z</time>
      </trkpt>
      <trkpt lat="43.68254" lon="3.87321">
        <ele>84</ele>
        <time>2018-09-16T06:39:42Z</time>
      </trkpt>
      <trkpt lat="43.68261" lon="3.87324">
        <ele>84</ele>
        <time>2018-09-16T06:39:46Z</time>
      </trkpt>
      <trkpt lat="43.68263" lon="3.87325">
        <ele>83.9</ele>
        <time>2018-09-16T06:39:47Z</time>
      </trkpt>
      <trkpt lat="43.68268" lon="3.87331">
        <ele>83.1</ele>
        <time>2018-09-16T06:39:49Z</time>
      </trkpt>
      <trkpt lat="43.68277" lon="3.87339">
        <ele>82.2</ele>
        <time>2018-09-16T06:39:50Z</time>
      </trkpt>
      <trkpt lat="43.68284" lon="3.8734">
        <ele>82</ele>
        <time>2018-09-16T06:39:54Z</time>
      </trkpt>
      <trkpt lat="43.68286" lon="3.8734">
        <ele>82</ele>
        <time>2018-09-16T06:39:55Z</time>
      </trkpt>
      <trkpt lat="43.68293" lon="3.87338">
        <ele>82.3</ele>
        <time>2018-09-16T06:39:59Z</time>
      </trkpt>
      <trkpt lat="43.68295" lon="3.87338">
        <ele>82.3</ele>
        <time>2018-09-16T06:40:00Z</time>
      </trkpt>
      <trkpt lat="43.68301" lon="3.87333">
        <ele>83.1</ele>
        <time>2018-09-16T06:40:03Z</time>
      </trkpt>
      <trkpt lat="43.68303" lon="3.87331">
        <ele>83.4</ele>
        <time>2018-09-16T06:40:04Z</time>
      </trkpt>
      <trkpt lat="43.68308" lon="3.87325">
        <ele>83.9</ele>
        <time>2018-09-16T06:40:07Z</time>
      </trkpt>
      <trkpt lat="43.68309" lon="3.87323">
        <ele>84.1</ele>
        <time>2018-09-16T06:40:08Z</time>
      </trkpt>
      <trkpt lat="43.68315" lon="3.87313">
        <ele>84.9</ele>
        <time>2018-09-16T06:40:12Z</time>
      </trkpt>
      <trkpt lat="43.68316" lon="3.8731">
        <ele>85.2</ele>
        <time>2018-09-16T06:40:13Z</time>
      </trkpt>
      <trkpt lat="43.6832" lon="3.87301">
        <ele>86.2</ele>
        <time>2018-09-16T06:40:18Z</time>
      </trkpt>
      <trkpt lat="43.68321" lon="3.87298">
        <ele>86.5</ele>
        <time>2018-09-16T06:40:19Z</time>
      </trkpt>
      <trkpt lat="43.68324" lon="3.8729">
        <ele>87.4</ele>
        <time>2018-09-16T06:40:22Z</time>
      </trkpt>
      <trkpt lat="43.68325" lon="3.87287">
        <ele>87.8</ele>
        <time>2018-09-16T06:40:23Z</time>
      </trkpt>
      <trkpt lat="43.68329" lon="3.87278">
        <ele>88.6</ele>
        <time>2018-09-16T06:40:27Z</time>
      </trkpt>
      <trkpt lat="43.6833" lon="3.87276">
        <ele>88.7</ele>
        <time>2018-09-16T06:40:28Z</time>
      </trkpt>
      <trkpt lat="43.68332" lon="3.87266">
        <ele>89.5</ele>
        <time>2018-09-16T06:40:32Z</time>
      </trkpt>
      <trkpt lat="43.68333" lon="3.87264">
        <ele>89.5</ele>
        <time>2018-09-16T06:40:33Z</time>
      </trkpt>
      <trkpt lat="43.68335" lon="3.87254">
        <ele>90.3</ele>
        <time>2018-09-16T06:40:37Z</time>
      </trkpt>
      <trkpt lat="43.68336" lon="3.87251">
        <ele>90.4</ele>
        <time>2018-09-16T06:40:38Z</time>
      </trkpt>
      <trkpt lat="43.68342" lon="3.87242">
        <ele>90.4</ele>
        <time>2018-09-16T06:40:42Z</time>
      </trkpt>
      <trkpt lat="43.68343" lon="3.87239">
        <ele>90.6</ele>
        <time>2018-09-16T06:40:43Z</time>
      </trkpt>
      <trkpt lat="43.68347" lon="3.87232">
        <ele>90.5</ele>
        <time>2018-09-16T06:40:45Z</time>
      </trkpt>
      <trkpt lat="43.6835" lon="3.87228">
        <ele>90.2</ele>
        <time>2018-09-16T06:40:46Z</time>
      </trkpt>
      <trkpt lat="43.68353" lon="3.8722">
        <ele>90.3</ele>
        <time>2018-09-16T06:40:48Z</time>
      </trkpt>
      <trkpt lat="43.68355" lon="3.87216">
        <ele>90.2</ele>
        <time>2018-09-16T06:40:49Z</time>
      </trkpt>
      <trkpt lat="43.6836" lon="3.87206">
        <ele>90</ele>
        <time>2018-09-16T06:40:52Z</time>
      </trkpt>
      <trkpt lat="43.68361" lon="3.87203">
        <ele>90.1</ele>
        <time>2018-09-16T06:40:53Z</time>
      </trkpt>
      <trkpt lat="43.68364" lon="3.87193">
        <ele>90.7</ele>
        <time>2018-09-16T06:40:56Z</time>
      </trkpt>
      <trkpt lat="43.68365" lon="3.87191">
        <ele>90.8</ele>
        <time>2018-09-16T06:40:57Z</time>
      </trkpt>
      <trkpt lat="43.68368" lon="3.8718">
        <ele>91.6</ele>
        <time>2018-09-16T06:41:01Z</time>
      </trkpt>
      <trkpt lat="43.6837" lon="3.87177">
        <ele>91.6</ele>
        <time>2018-09-16T06:41:02Z</time>
      </trkpt>
      <trkpt lat="43.68373" lon="3.87168">
        <ele>92.1</ele>
        <time>2018-09-16T06:41:05Z</time>
      </trkpt>
      <trkpt lat="43.68375" lon="3.87165">
        <ele>92.2</ele>
        <time>2018-09-16T06:41:06Z</time>
      </trkpt>
      <trkpt lat="43.68378" lon="3.87157">
        <ele>92.6</ele>
        <time>2018-09-16T06:41:09Z</time>
      </trkpt>
      <trkpt lat="43.6838" lon="3.87154">
        <ele>92.6</ele>
        <time>2018-09-16T06:41:10Z</time>
      </trkpt>
      <trkpt lat="43.68385" lon="3.87147">
        <ele>92.7</ele>
        <time>2018-09-16T06:41:13Z</time>
      </trkpt>
      <trkpt lat="43.68385" lon="3.87144">
        <ele>93</ele>
        <time>2018-09-16T06:41:14Z</time>
      </trkpt>
      <trkpt lat="43.68388" lon="3.87135">
        <ele>93.3</ele>
        <time>2018-09-16T06:41:17Z</time>
      </trkpt>
      <trkpt lat="43.68389" lon="3.8713">
        <ele>93.3</ele>
        <time>2018-09-16T06:41:18Z</time>
      </trkpt>
      <trkpt lat="43.68391" lon="3.87122">
        <ele>93.4</ele>
        <time>2018-09-16T06:41:20Z</time>
      </trkpt>
      <trkpt lat="43.68392" lon="3.87119">
        <ele>93.3</ele>
        <time>2018-09-16T06:41:21Z</time>
      </trkpt>
      <trkpt lat="43.68395" lon="3.87108">
        <ele>93.5</ele>
        <time>2018-09-16T06:41:24Z</time>
      </trkpt>
      <trkpt lat="43.68395" lon="3.87105">
        <ele>93.6</ele>
        <time>2018-09-16T06:41:25Z</time>
      </trkpt>
      <trkpt lat="43.68398" lon="3.87095">
        <ele>93.6</ele>
        <time>2018-09-16T06:41:28Z</time>
      </trkpt>
      <trkpt lat="43.684" lon="3.87091">
        <ele>93.5</ele>
        <time>2018-09-16T06:41:29Z</time>
      </trkpt>
      <trkpt lat="43.68403" lon="3.87083">
        <ele>93.5</ele>
        <time>2018-09-16T06:41:31Z</time>
      </trkpt>
      <trkpt lat="43.68405" lon="3.87079">
        <ele>93.3</ele>
        <time>2018-09-16T06:41:32Z</time>
      </trkpt>
      <trkpt lat="43.68408" lon="3.87069">
        <ele>92.9</ele>
        <time>2018-09-16T06:41:34Z</time>
      </trkpt>
      <trkpt lat="43.68409" lon="3.87064">
        <ele>92.8</ele>
        <time>2018-09-16T06:41:35Z</time>
      </trkpt>
      <trkpt lat="43.68411" lon="3.87049">
        <ele>92.6</ele>
        <time>2018-09-16T06:41:36Z</time>
      </trkpt>
      <trkpt lat="43.68412" lon="3.87046">
        <ele>92.5</ele>
        <time>2018-09-16T06:41:37Z</time>
      </trkpt>
      <trkpt lat="43.68416" lon="3.87039">
        <ele>92.1</ele>
        <time>2018-09-16T06:41:38Z</time>
      </trkpt>
      <trkpt lat="43.68419" lon="3.87034">
        <ele>91.7</ele>
        <time>2018-09-16T06:41:39Z</time>
      </trkpt>
      <trkpt lat="43.68423" lon="3.87028">
        <ele>91.3</ele>
        <time>2018-09-16T06:41:40Z</time>
      </trkpt>
      <trkpt lat="43.68426" lon="3.87024">
        <ele>90.9</ele>
        <time>2018-09-16T06:41:42Z</time>
      </trkpt>
      <trkpt lat="43.68431" lon="3.87015">
        <ele>90</ele>
        <time>2018-09-16T06:41:43Z</time>
      </trkpt>
      <trkpt lat="43.68433" lon="3.87007">
        <ele>89.5</ele>
        <time>2018-09-16T06:41:44Z</time>
      </trkpt>
      <trkpt lat="43.68437" lon="3.87004">
        <ele>88.9</ele>
        <time>2018-09-16T06:41:45Z</time>
      </trkpt>
      <trkpt lat="43.6844" lon="3.86998">
        <ele>88.3</ele>
        <time>2018-09-16T06:41:46Z</time>
      </trkpt>
      <trkpt lat="43.68443" lon="3.86989">
        <ele>87.4</ele>
        <time>2018-09-16T06:41:47Z</time>
      </trkpt>
      <trkpt lat="43.68445" lon="3.8698">
        <ele>86.5</ele>
        <time>2018-09-16T06:41:49Z</time>
      </trkpt>
      <trkpt lat="43.68446" lon="3.86977">
        <ele>86.2</ele>
        <time>2018-09-16T06:41:50Z</time>
      </trkpt>
      <trkpt lat="43.6845" lon="3.86967">
        <ele>85</ele>
        <time>2018-09-16T06:41:53Z</time>
      </trkpt>
      <trkpt lat="43.68452" lon="3.86964">
        <ele>84.6</ele>
        <time>2018-09-16T06:41:54Z</time>
      </trkpt>
      <trkpt lat="43.68456" lon="3.86959">
        <ele>83.8</ele>
        <time>2018-09-16T06:41:56Z</time>
      </trkpt>
      <trkpt lat="43.68468" lon="3.86957">
        <ele>82.4</ele>
        <time>2018-09-16T06:41:57Z</time>
      </trkpt>
      <trkpt lat="43.68475" lon="3.8696">
        <ele>81.8</ele>
        <time>2018-09-16T06:41:58Z</time>
      </trkpt>
      <trkpt lat="43.68478" lon="3.86964">
        <ele>81.6</ele>
        <time>2018-09-16T06:41:59Z</time>
      </trkpt>
      <trkpt lat="43.68481" lon="3.86969">
        <ele>81.5</ele>
        <time>2018-09-16T06:42:00Z</time>
      </trkpt>
      <trkpt lat="43.68485" lon="3.86974">
        <ele>81.2</ele>
        <time>2018-09-16T06:42:01Z</time>
      </trkpt>
      <trkpt lat="43.6849" lon="3.86979">
        <ele>80.7</ele>
        <time>2018-09-16T06:42:02Z</time>
      </trkpt>
      <trkpt lat="43.68494" lon="3.86983">
        <ele>80.3</ele>
        <time>2018-09-16T06:42:03Z</time>
      </trkpt>
      <trkpt lat="43.68501" lon="3.86992">
        <ele>79.6</ele>
        <time>2018-09-16T06:42:06Z</time>
      </trkpt>
      <trkpt lat="43.68502" lon="3.86995">
        <ele>79.5</ele>
        <time>2018-09-16T06:42:07Z</time>
      </trkpt>
      <trkpt lat="43.68508" lon="3.87003">
        <ele>78.8</ele>
        <time>2018-09-16T06:42:10Z</time>
      </trkpt>
      <trkpt lat="43.68515" lon="3.87013">
        <ele>77.8</ele>
        <time>2018-09-16T06:42:11Z</time>
      </trkpt>
      <trkpt lat="43.68518" lon="3.87023">
        <ele>77.4</ele>
        <time>2018-09-16T06:42:13Z</time>
      </trkpt>
      <trkpt lat="43.6852" lon="3.87031">
        <ele>77.1</ele>
        <time>2018-09-16T06:42:14Z</time>
      </trkpt>
      <trkpt lat="43.68523" lon="3.87042">
        <ele>76.7</ele>
        <time>2018-09-16T06:42:18Z</time>
      </trkpt>
      <trkpt lat="43.68526" lon="3.87053">
        <ele>76.3</ele>
        <time>2018-09-16T06:42:19Z</time>
      </trkpt>
      <trkpt lat="43.68526" lon="3.87059">
        <ele>76.1</ele>
        <time>2018-09-16T06:42:20Z</time>
      </trkpt>
      <trkpt lat="43.68529" lon="3.87064">
        <ele>75.6</ele>
        <time>2018-09-16T06:42:21Z</time>
      </trkpt>
      <trkpt lat="43.68536" lon="3.87071">
        <ele>74.6</ele>
        <time>2018-09-16T06:42:25Z</time>
      </trkpt>
      <trkpt lat="43.68538" lon="3.87073">
        <ele>74.3</ele>
        <time>2018-09-16T06:42:26Z</time>
      </trkpt>
      <trkpt lat="43.68542" lon="3.87081">
        <ele>73.5</ele>
        <time>2018-09-16T06:42:29Z</time>
      </trkpt>
      <trkpt lat="43.68542" lon="3.87085">
        <ele>73.4</ele>
        <time>2018-09-16T06:42:30Z</time>
      </trkpt>
      <trkpt lat="43.68545" lon="3.87095">
        <ele>72.7</ele>
        <time>2018-09-16T06:42:33Z</time>
      </trkpt>
      <trkpt lat="43.68546" lon="3.87098">
        <ele>72.5</ele>
        <time>2018-09-16T06:42:34Z</time>
      </trkpt>
      <trkpt lat="43.6855" lon="3.87108">
        <ele>71.7</ele>
        <time>2018-09-16T06:42:37Z</time>
      </trkpt>
      <trkpt lat="43.68552" lon="3.87112">
        <ele>71.4</ele>
        <time>2018-09-16T06:42:38Z</time>
      </trkpt>
      <trkpt lat="43.68554" lon="3.87117">
        <ele>71.2</ele>
        <time>2018-09-16T06:42:39Z</time>
      </trkpt>
      <trkpt lat="43.68564" lon="3.87132">
        <ele>70.7</ele>
        <time>2018-09-16T06:42:40Z</time>
      </trkpt>
      <trkpt lat="43.68566" lon="3.87143">
        <ele>70.7</ele>
        <time>2018-09-16T06:42:43Z</time>
      </trkpt>
      <trkpt lat="43.68565" lon="3.87146">
        <ele>70.7</ele>
        <time>2018-09-16T06:42:44Z</time>
      </trkpt>
      <trkpt lat="43.68563" lon="3.87156">
        <ele>70.9</ele>
        <time>2018-09-16T06:42:48Z</time>
      </trkpt>
      <trkpt lat="43.68562" lon="3.87159">
        <ele>70.9</ele>
        <time>2018-09-16T06:42:49Z</time>
      </trkpt>
      <trkpt lat="43.68558" lon="3.87167">
        <ele>71</ele>
        <time>2018-09-16T06:42:52Z</time>
      </trkpt>
      <trkpt lat="43.68556" lon="3.87169">
        <ele>71.1</ele>
        <time>2018-09-16T06:42:53Z</time>
      </trkpt>
      <trkpt lat="43.68553" lon="3.87172">
        <ele>71.4</ele>
        <time>2018-09-16T06:42:54Z</time>
      </trkpt>
      <trkpt lat="43.68545" lon="3.87181">
        <ele>72.1</ele>
        <time>2018-09-16T06:42:55Z</time>
      </trkpt>
      <trkpt lat="43.68541" lon="3.87184">
        <ele>72.3</ele>
        <time>2018-09-16T06:42:56Z</time>
      </trkpt>
      <trkpt lat="43.68537" lon="3.87189">
        <ele>72.6</ele>
        <time>2018-09-16T06:42:57Z</time>
      </trkpt>
      <trkpt lat="43.68531" lon="3.87194">
        <ele>72.9</ele>
        <time>2018-09-16T06:42:59Z</time>
      </trkpt>
      <trkpt lat="43.68529" lon="3.87197">
        <ele>72.9</ele>
        <time>2018-09-16T06:43:00Z</time>
      </trkpt>
      <trkpt lat="43.68523" lon="3.87204">
        <ele>72.9</ele>
        <time>2018-09-16T06:43:01Z</time>
      </trkpt>
      <trkpt lat="43.6852" lon="3.87207">
        <ele>73</ele>
        <time>2018-09-16T06:43:02Z</time>
      </trkpt>
      <trkpt lat="43.68516" lon="3.87213">
        <ele>73</ele>
        <time>2018-09-16T06:43:04Z</time>
      </trkpt>
      <trkpt lat="43.68512" lon="3.87218">
        <ele>73.2</ele>
        <time>2018-09-16T06:43:05Z</time>
      </trkpt>
      <trkpt lat="43.68504" lon="3.87222">
        <ele>73.7</ele>
        <time>2018-09-16T06:43:07Z</time>
      </trkpt>
      <trkpt lat="43.68501" lon="3.87226">
        <ele>73.8</ele>
        <time>2018-09-16T06:43:08Z</time>
      </trkpt>
      <trkpt lat="43.68495" lon="3.87232">
        <ele>73.8</ele>
        <time>2018-09-16T06:43:10Z</time>
      </trkpt>
      <trkpt lat="43.68492" lon="3.87235">
        <ele>73.8</ele>
        <time>2018-09-16T06:43:11Z</time>
      </trkpt>
      <trkpt lat="43.68489" lon="3.8724">
        <ele>73.8</ele>
        <time>2018-09-16T06:43:13Z</time>
      </trkpt>
      <trkpt lat="43.68484" lon="3.87246">
        <ele>73.7</ele>
        <time>2018-09-16T06:43:14Z</time>
      </trkpt>
      <trkpt lat="43.68477" lon="3.8725">
        <ele>73.8</ele>
        <time>2018-09-16T06:43:16Z</time>
      </trkpt>
      <trkpt lat="43.68476" lon="3.8725">
        <ele>73.9</ele>
        <time>2018-09-16T06:43:17Z</time>
      </trkpt>
      <trkpt lat="43.6847" lon="3.87256">
        <ele>74.1</ele>
        <time>2018-09-16T06:43:20Z</time>
      </trkpt>
      <trkpt lat="43.68463" lon="3.87263">
        <ele>74.4</ele>
        <time>2018-09-16T06:43:21Z</time>
      </trkpt>
      <trkpt lat="43.68456" lon="3.87266">
        <ele>74.5</ele>
        <time>2018-09-16T06:43:23Z</time>
      </trkpt>
      <trkpt lat="43.68452" lon="3.8727">
        <ele>74.4</ele>
        <time>2018-09-16T06:43:24Z</time>
      </trkpt>
      <trkpt lat="43.68445" lon="3.87276">
        <ele>74.1</ele>
        <time>2018-09-16T06:43:26Z</time>
      </trkpt>
      <trkpt lat="43.68443" lon="3.8728">
        <ele>74.1</ele>
        <time>2018-09-16T06:43:27Z</time>
      </trkpt>
      <trkpt lat="43.68437" lon="3.87287">
        <ele>74.4</ele>
        <time>2018-09-16T06:43:29Z</time>
      </trkpt>
      <trkpt lat="43.68435" lon="3.87288">
        <ele>74.6</ele>
        <time>2018-09-16T06:43:30Z</time>
      </trkpt>
      <trkpt lat="43.68428" lon="3.87293">
        <ele>74.9</ele>
        <time>2018-09-16T06:43:32Z</time>
      </trkpt>
      <trkpt lat="43.68426" lon="3.87295">
        <ele>74.9</ele>
        <time>2018-09-16T06:43:33Z</time>
      </trkpt>
      <trkpt lat="43.68419" lon="3.87301">
        <ele>75.1</ele>
        <time>2018-09-16T06:43:35Z</time>
      </trkpt>
      <trkpt lat="43.68415" lon="3.87305">
        <ele>75.1</ele>
        <time>2018-09-16T06:43:36Z</time>
      </trkpt>
      <trkpt lat="43.68409" lon="3.87311">
        <ele>75.5</ele>
        <time>2018-09-16T06:43:39Z</time>
      </trkpt>
      <trkpt lat="43.68407" lon="3.87313">
        <ele>75.6</ele>
        <time>2018-09-16T06:43:40Z</time>
      </trkpt>
      <trkpt lat="43.684" lon="3.8732">
        <ele>75.9</ele>
        <time>2018-09-16T06:43:43Z</time>
      </trkpt>
      <trkpt lat="43.68397" lon="3.87321">
        <ele>76</ele>
        <time>2018-09-16T06:43:44Z</time>
      </trkpt>
      <trkpt lat="43.68389" lon="3.87327">
        <ele>76.2</ele>
        <time>2018-09-16T06:43:47Z</time>
      </trkpt>
      <trkpt lat="43.68386" lon="3.87329">
        <ele>76.4</ele>
        <time>2018-09-16T06:43:48Z</time>
      </trkpt>
      <trkpt lat="43.68382" lon="3.87335">
        <ele>76.5</ele>
        <time>2018-09-16T06:43:50Z</time>
      </trkpt>
      <trkpt lat="43.68379" lon="3.87338">
        <ele>76.7</ele>
        <time>2018-09-16T06:43:51Z</time>
      </trkpt>
      <trkpt lat="43.68374" lon="3.87341">
        <ele>76.9</ele>
        <time>2018-09-16T06:43:53Z</time>
      </trkpt>
      <trkpt lat="43.68365" lon="3.87346">
        <ele>77.3</ele>
        <time>2018-09-16T06:43:54Z</time>
      </trkpt>
      <trkpt lat="43.68358" lon="3.8735">
        <ele>77.6</ele>
        <time>2018-09-16T06:43:57Z</time>
      </trkpt>
      <trkpt lat="43.68356" lon="3.87352">
        <ele>77.6</ele>
        <time>2018-09-16T06:43:58Z</time>
      </trkpt>
      <trkpt lat="43.68351" lon="3.87356">
        <ele>77.6</ele>
        <time>2018-09-16T06:44:00Z</time>
      </trkpt>
      <trkpt lat="43.68343" lon="3.87365">
        <ele>77.7</ele>
        <time>2018-09-16T06:44:01Z</time>
      </trkpt>
      <trkpt lat="43.68337" lon="3.8737">
        <ele>77.9</ele>
        <time>2018-09-16T06:44:04Z</time>
      </trkpt>
      <trkpt lat="43.68335" lon="3.87372">
        <ele>77.9</ele>
        <time>2018-09-16T06:44:05Z</time>
      </trkpt>
      <trkpt lat="43.68331" lon="3.87383">
        <ele>78</ele>
        <time>2018-09-16T06:44:06Z</time>
      </trkpt>
      <trkpt lat="43.6833" lon="3.87388">
        <ele>78</ele>
        <time>2018-09-16T06:44:08Z</time>
      </trkpt>
      <trkpt lat="43.68328" lon="3.87397">
        <ele>78</ele>
        <time>2018-09-16T06:44:10Z</time>
      </trkpt>
      <trkpt lat="43.68327" lon="3.87402">
        <ele>78</ele>
        <time>2018-09-16T06:44:11Z</time>
      </trkpt>
      <trkpt lat="43.68325" lon="3.87411">
        <ele>78</ele>
        <time>2018-09-16T06:44:14Z</time>
      </trkpt>
      <trkpt lat="43.68325" lon="3.87415">
        <ele>78</ele>
        <time>2018-09-16T06:44:15Z</time>
      </trkpt>
      <trkpt lat="43.68325" lon="3.87424">
        <ele>78.3</ele>
        <time>2018-09-16T06:44:17Z</time>
      </trkpt>
      <trkpt lat="43.68325" lon="3.87429">
        <ele>78.4</ele>
        <time>2018-09-16T06:44:18Z</time>
      </trkpt>
      <trkpt lat="43.68324" lon="3.87439">
        <ele>78.8</ele>
        <time>2018-09-16T06:44:21Z</time>
      </trkpt>
      <trkpt lat="43.68322" lon="3.87441">
        <ele>78.9</ele>
        <time>2018-09-16T06:44:22Z</time>
      </trkpt>
      <trkpt lat="43.68316" lon="3.87445">
        <ele>79</ele>
        <time>2018-09-16T06:44:25Z</time>
      </trkpt>
      <trkpt lat="43.68313" lon="3.87447">
        <ele>79</ele>
        <time>2018-09-16T06:44:26Z</time>
      </trkpt>
      <trkpt lat="43.68308" lon="3.87452">
        <ele>79</ele>
        <time>2018-09-16T06:44:28Z</time>
      </trkpt>
      <trkpt lat="43.68298" lon="3.87455">
        <ele>78.7</ele>
        <time>2018-09-16T06:44:29Z</time>
      </trkpt>
      <trkpt lat="43.6829" lon="3.87453">
        <ele>78.4</ele>
        <time>2018-09-16T06:44:31Z</time>
      </trkpt>
      <trkpt lat="43.68286" lon="3.87452">
        <ele>78.3</ele>
        <time>2018-09-16T06:44:32Z</time>
      </trkpt>
      <trkpt lat="43.68281" lon="3.87451">
        <ele>78.1</ele>
        <time>2018-09-16T06:44:33Z</time>
      </trkpt>
      <trkpt lat="43.68276" lon="3.87449">
        <ele>78</ele>
        <time>2018-09-16T06:44:34Z</time>
      </trkpt>
      <trkpt lat="43.68268" lon="3.87449">
        <ele>78</ele>
        <time>2018-09-16T06:44:36Z</time>
      </trkpt>
      <trkpt lat="43.68263" lon="3.87449">
        <ele>78</ele>
        <time>2018-09-16T06:44:37Z</time>
      </trkpt>
      <trkpt lat="43.68254" lon="3.87447">
        <ele>78</ele>
        <time>2018-09-16T06:44:39Z</time>
      </trkpt>
      <trkpt lat="43.6825" lon="3.87446">
        <ele>78</ele>
        <time>2018-09-16T06:44:40Z</time>
      </trkpt>
      <trkpt lat="43.68246" lon="3.87445">
        <ele>77.9</ele>
        <time>2018-09-16T06:44:41Z</time>
      </trkpt>
      <trkpt lat="43.68241" lon="3.87443">
        <ele>77.7</ele>
        <time>2018-09-16T06:44:42Z</time>
      </trkpt>
      <trkpt lat="43.68237" lon="3.87443">
        <ele>77.5</ele>
        <time>2018-09-16T06:44:43Z</time>
      </trkpt>
      <trkpt lat="43.6823" lon="3.87444">
        <ele>77.3</ele>
        <time>2018-09-16T06:44:44Z</time>
      </trkpt>
      <trkpt lat="43.68226" lon="3.87443">
        <ele>77.1</ele>
        <time>2018-09-16T06:44:45Z</time>
      </trkpt>
      <trkpt lat="43.68221" lon="3.87442">
        <ele>77</ele>
        <time>2018-09-16T06:44:46Z</time>
      </trkpt>
      <trkpt lat="43.68216" lon="3.87441">
        <ele>76.7</ele>
        <time>2018-09-16T06:44:47Z</time>
      </trkpt>
      <trkpt lat="43.6821" lon="3.87436">
        <ele>76.4</ele>
        <time>2018-09-16T06:44:48Z</time>
      </trkpt>
      <trkpt lat="43.68205" lon="3.8744">
        <ele>76.3</ele>
        <time>2018-09-16T06:44:49Z</time>
      </trkpt>
      <trkpt lat="43.68201" lon="3.87448">
        <ele>76.2</ele>
        <time>2018-09-16T06:44:50Z</time>
      </trkpt>
      <trkpt lat="43.68198" lon="3.87454">
        <ele>76.1</ele>
        <time>2018-09-16T06:44:51Z</time>
      </trkpt>
      <trkpt lat="43.68197" lon="3.87461">
        <ele>76.1</ele>
        <time>2018-09-16T06:44:52Z</time>
      </trkpt>
      <trkpt lat="43.68195" lon="3.87467">
        <ele>76</ele>
        <time>2018-09-16T06:44:53Z</time>
      </trkpt>
      <trkpt lat="43.68194" lon="3.87472">
        <ele>76</ele>
        <time>2018-09-16T06:44:54Z</time>
      </trkpt>
      <trkpt lat="43.6819" lon="3.87483">
        <ele>76.2</ele>
        <time>2018-09-16T06:44:56Z</time>
      </trkpt>
      <trkpt lat="43.68189" lon="3.87489">
        <ele>76.4</ele>
        <time>2018-09-16T06:44:57Z</time>
      </trkpt>
      <trkpt lat="43.68186" lon="3.87499">
        <ele>76.7</ele>
        <time>2018-09-16T06:44:59Z</time>
      </trkpt>
      <trkpt lat="43.68185" lon="3.87504">
        <ele>76.9</ele>
        <time>2018-09-16T06:45:00Z</time>
      </trkpt>
      <trkpt lat="43.68182" lon="3.87515">
        <ele>77.4</ele>
        <time>2018-09-16T06:45:03Z</time>
      </trkpt>
      <trkpt lat="43.68181" lon="3.87518">
        <ele>77.5</ele>
        <time>2018-09-16T06:45:04Z</time>
      </trkpt>
      <trkpt lat="43.68179" lon="3.87526">
        <ele>77.8</ele>
        <time>2018-09-16T06:45:06Z</time>
      </trkpt>
      <trkpt lat="43.68179" lon="3.8753">
        <ele>78</ele>
        <time>2018-09-16T06:45:07Z</time>
      </trkpt>
      <trkpt lat="43.68176" lon="3.87538">
        <ele>78.4</ele>
        <time>2018-09-16T06:45:09Z</time>
      </trkpt>
      <trkpt lat="43.68174" lon="3.87543">
        <ele>78.6</ele>
        <time>2018-09-16T06:45:10Z</time>
      </trkpt>
      <trkpt lat="43.68172" lon="3.8755">
        <ele>79</ele>
        <time>2018-09-16T06:45:12Z</time>
      </trkpt>
      <trkpt lat="43.68171" lon="3.87554">
        <ele>79.2</ele>
        <time>2018-09-16T06:45:13Z</time>
      </trkpt>
      <trkpt lat="43.68169" lon="3.87563">
        <ele>79.4</ele>
        <time>2018-09-16T06:45:15Z</time>
      </trkpt>
      <trkpt lat="43.68166" lon="3.87574">
        <ele>79.6</ele>
        <time>2018-09-16T06:45:16Z</time>
      </trkpt>
      <trkpt lat="43.68164" lon="3.87582">
        <ele>79.8</ele>
        <time>2018-09-16T06:45:19Z</time>
      </trkpt>
      <trkpt lat="43.68163" lon="3.87586">
        <ele>79.8</ele>
        <time>2018-09-16T06:45:20Z</time>
      </trkpt>
      <trkpt lat="43.6816" lon="3.87597">
        <ele>80</ele>
        <time>2018-09-16T06:45:21Z</time>
      </trkpt>
      <trkpt lat="43.68159" lon="3.87599">
        <ele>80</ele>
        <time>2018-09-16T06:45:22Z</time>
      </trkpt>
      <trkpt lat="43.68157" lon="3.87606">
        <ele>80.1</ele>
        <time>2018-09-16T06:45:23Z</time>
      </trkpt>
      <trkpt lat="43.68156" lon="3.87611">
        <ele>80.2</ele>
        <time>2018-09-16T06:45:24Z</time>
      </trkpt>
      <trkpt lat="43.68152" lon="3.8762">
        <ele>80.4</ele>
        <time>2018-09-16T06:45:26Z</time>
      </trkpt>
      <trkpt lat="43.68152" lon="3.87623">
        <ele>80.6</ele>
        <time>2018-09-16T06:45:27Z</time>
      </trkpt>
      <trkpt lat="43.68151" lon="3.87626">
        <ele>80.6</ele>
        <time>2018-09-16T06:45:28Z</time>
      </trkpt>
      <trkpt lat="43.68148" lon="3.87634">
        <ele>80.8</ele>
        <time>2018-09-16T06:45:29Z</time>
      </trkpt>
      <trkpt lat="43.68145" lon="3.87645">
        <ele>80.9</ele>
        <time>2018-09-16T06:45:32Z</time>
      </trkpt>
      <trkpt lat="43.68143" lon="3.87652">
        <ele>80.9</ele>
        <time>2018-09-16T06:45:33Z</time>
      </trkpt>
      <trkpt lat="43.68141" lon="3.87662">
        <ele>81.1</ele>
        <time>2018-09-16T06:45:35Z</time>
      </trkpt>
      <trkpt lat="43.6814" lon="3.87667">
        <ele>81.1</ele>
        <time>2018-09-16T06:45:36Z</time>
      </trkpt>
      <trkpt lat="43.68134" lon="3.87675">
        <ele>80.6</ele>
        <time>2018-09-16T06:45:38Z</time>
      </trkpt>
      <trkpt lat="43.68132" lon="3.8768">
        <ele>80.5</ele>
        <time>2018-09-16T06:45:39Z</time>
      </trkpt>
      <trkpt lat="43.68128" lon="3.8769">
        <ele>80.2</ele>
        <time>2018-09-16T06:45:41Z</time>
      </trkpt>
      <trkpt lat="43.68125" lon="3.87695">
        <ele>80</ele>
        <time>2018-09-16T06:45:42Z</time>
      </trkpt>
      <trkpt lat="43.68126" lon="3.87704">
        <ele>79.6</ele>
        <time>2018-09-16T06:45:43Z</time>
      </trkpt>
      <trkpt lat="43.68128" lon="3.87711">
        <ele>79.4</ele>
        <time>2018-09-16T06:45:44Z</time>
      </trkpt>
      <trkpt lat="43.68132" lon="3.8772">
        <ele>79.4</ele>
        <time>2018-09-16T06:45:45Z</time>
      </trkpt>
      <trkpt lat="43.68135" lon="3.87729">
        <ele>78.7</ele>
        <time>2018-09-16T06:45:46Z</time>
      </trkpt>
      <trkpt lat="43.68138" lon="3.87738">
        <ele>77.7</ele>
        <time>2018-09-16T06:45:47Z</time>
      </trkpt>
      <trkpt lat="43.68141" lon="3.87745">
        <ele>76.9</ele>
        <time>2018-09-16T06:45:48Z</time>
      </trkpt>
      <trkpt lat="43.68144" lon="3.87753">
        <ele>76.5</ele>
        <time>2018-09-16T06:45:49Z</time>
      </trkpt>
      <trkpt lat="43.68147" lon="3.8776">
        <ele>76.7</ele>
        <time>2018-09-16T06:45:50Z</time>
      </trkpt>
      <trkpt lat="43.68149" lon="3.87767">
        <ele>76.6</ele>
        <time>2018-09-16T06:45:51Z</time>
      </trkpt>
      <trkpt lat="43.6815" lon="3.87772">
        <ele>76.6</ele>
        <time>2018-09-16T06:45:52Z</time>
      </trkpt>
      <trkpt lat="43.68148" lon="3.87777">
        <ele>76.4</ele>
      </trkpt>
      <trkpt lat="43.68142" lon="3.87775">
        <ele>76.1</ele>
        <time>2018-09-16T06:45:54Z</time>
      </trkpt>
      <trkpt lat="43.6814" lon="3.87774">
        <ele>76.1</ele>
        <time>2018-09-16T06:45:55Z</time>
      </trkpt>
      <trkpt lat="43.68134" lon="3.87771">
        <ele>76</ele>
        <time>2018-09-16T06:45:58Z</time>
      </trkpt>
      <trkpt lat="43.68131" lon="3.8777">
        <ele>76</ele>
        <time>2018-09-16T06:45:59Z</time>
      </trkpt>
      <trkpt lat="43.68121" lon="3.87766">
        <ele>76</ele>
        <time>2018-09-16T06:46:00Z</time>
      </trkpt>
      <trkpt lat="43.68112" lon="3.87764">
        <ele>76</ele>
        <time>2018-09-16T06:46:02Z</time>
      </trkpt>
      <trkpt lat="43.68108" lon="3.87763">
        <ele>75.9</ele>
        <time>2018-09-16T06:46:03Z</time>
      </trkpt>
      <trkpt lat="43.681" lon="3.8776">
        <ele>75.7</ele>
        <time>2018-09-16T06:46:05Z</time>
      </trkpt>
      <trkpt lat="43.68096" lon="3.8776">
        <ele>75.7</ele>
        <time>2018-09-16T06:46:06Z</time>
      </trkpt>
      <trkpt lat="43.68088" lon="3.87757">
        <ele>75.4</ele>
        <time>2018-09-16T06:46:09Z</time>
      </trkpt>
      <trkpt lat="43.68086" lon="3.87756">
        <ele>75.3</ele>
        <time>2018-09-16T06:46:10Z</time>
      </trkpt>
      <trkpt lat="43.6808" lon="3.87763">
        <ele>75.4</ele>
        <time>2018-09-16T06:46:51Z</time>
      </trkpt>
      <trkpt lat="43.68079" lon="3.87764">
        <ele>75.4</ele>
        <time>2018-09-16T06:46:52Z</time>
      </trkpt>
      <trkpt lat="43.68078" lon="3.87765">
        <ele>75.5</ele>
        <time>2018-09-16T06:46:53Z</time>
      </trkpt>
      <trkpt lat="43.68078" lon="3.87766">
        <ele>75.5</ele>
        <time>2018-09-16T06:46:54Z</time>
      </trkpt>
      <trkpt lat="43.68075" lon="3.8777">
        <ele>75.6</ele>
        <time>2018-09-16T06:47:13Z</time>
      </trkpt>
      <trkpt lat="43.68075" lon="3.87771">
        <ele>75.7</ele>
        <time>2018-09-16T06:47:14Z</time>
      </trkpt>
      <trkpt lat="43.68069" lon="3.87778">
        <ele>76</ele>
        <time>2018-09-16T06:47:21Z</time>
      </trkpt>
      <trkpt lat="43.68066" lon="3.87779">
        <ele>76.2</ele>
        <time>2018-09-16T06:47:22Z</time>
      </trkpt>
      <trkpt lat="43.6806" lon="3.87779">
        <ele>76.2</ele>
        <time>2018-09-16T06:47:24Z</time>
      </trkpt>
      <trkpt lat="43.68057" lon="3.87778">
        <ele>76</ele>
        <time>2018-09-16T06:47:25Z</time>
      </trkpt>
      <trkpt lat="43.6805" lon="3.87773">
        <ele>75.7</ele>
        <time>2018-09-16T06:47:28Z</time>
      </trkpt>
      <trkpt lat="43.68048" lon="3.87772">
        <ele>75.6</ele>
        <time>2018-09-16T06:47:29Z</time>
      </trkpt>
      <trkpt lat="43.68041" lon="3.87766">
        <ele>75.4</ele>
        <time>2018-09-16T06:47:32Z</time>
      </trkpt>
      <trkpt lat="43.68039" lon="3.87764">
        <ele>75.3</ele>
        <time>2018-09-16T06:47:33Z</time>
      </trkpt>
      <trkpt lat="43.68032" lon="3.87755">
        <ele>75.1</ele>
        <time>2018-09-16T06:47:36Z</time>
      </trkpt>
      <trkpt lat="43.68031" lon="3.87752">
        <ele>75</ele>
        <time>2018-09-16T06:47:37Z</time>
      </trkpt>
      <trkpt lat="43.68028" lon="3.87741">
        <ele>74.7</ele>
        <time>2018-09-16T06:47:40Z</time>
      </trkpt>
      <trkpt lat="43.68027" lon="3.87739">
        <ele>74.6</ele>
        <time>2018-09-16T06:47:41Z</time>
      </trkpt>
      <trkpt lat="43.68019" lon="3.87733">
        <ele>74.2</ele>
        <time>2018-09-16T06:47:45Z</time>
      </trkpt>
      <trkpt lat="43.68017" lon="3.87732">
        <ele>74.1</ele>
        <time>2018-09-16T06:47:46Z</time>
      </trkpt>
      <trkpt lat="43.6801" lon="3.87729">
        <ele>73.8</ele>
        <time>2018-09-16T06:47:49Z</time>
      </trkpt>
      <trkpt lat="43.68008" lon="3.87728">
        <ele>73.6</ele>
        <time>2018-09-16T06:47:50Z</time>
      </trkpt>
      <trkpt lat="43.68" lon="3.87724">
        <ele>73.1</ele>
        <time>2018-09-16T06:47:54Z</time>
      </trkpt>
      <trkpt lat="43.67996" lon="3.87722">
        <ele>73</ele>
        <time>2018-09-16T06:47:55Z</time>
      </trkpt>
      <trkpt lat="43.6799" lon="3.87721">
        <ele>72.9</ele>
        <time>2018-09-16T06:47:57Z</time>
      </trkpt>
      <trkpt lat="43.67987" lon="3.87721">
        <ele>72.9</ele>
        <time>2018-09-16T06:47:58Z</time>
      </trkpt>
      <trkpt lat="43.67981" lon="3.8772">
        <ele>72.9</ele>
        <time>2018-09-16T06:48:00Z</time>
      </trkpt>
      <trkpt lat="43.67977" lon="3.87721">
        <ele>72.9</ele>
        <time>2018-09-16T06:48:01Z</time>
      </trkpt>
      <trkpt lat="43.67971" lon="3.8772">
        <ele>72.9</ele>
        <time>2018-09-16T06:48:03Z</time>
      </trkpt>
      <trkpt lat="43.67967" lon="3.87719">
        <ele>73</ele>
        <time>2018-09-16T06:48:04Z</time>
      </trkpt>
      <trkpt lat="43.6796" lon="3.87713">
        <ele>72.8</ele>
        <time>2018-09-16T06:48:06Z</time>
      </trkpt>
      <trkpt lat="43.67956" lon="3.87709">
        <ele>72.6</ele>
        <time>2018-09-16T06:48:07Z</time>
      </trkpt>
      <trkpt lat="43.67949" lon="3.87707">
        <ele>72.7</ele>
        <time>2018-09-16T06:48:09Z</time>
      </trkpt>
      <trkpt lat="43.67946" lon="3.87706">
        <ele>72.8</ele>
        <time>2018-09-16T06:48:10Z</time>
      </trkpt>
      <trkpt lat="43.67937" lon="3.87704">
        <ele>73.3</ele>
        <time>2018-09-16T06:48:14Z</time>
      </trkpt>
      <trkpt lat="43.67936" lon="3.87704">
        <ele>73.4</ele>
        <time>2018-09-16T06:48:15Z</time>
      </trkpt>
      <trkpt lat="43.67928" lon="3.87703">
        <ele>74</ele>
        <time>2018-09-16T06:48:21Z</time>
      </trkpt>
      <trkpt lat="43.67926" lon="3.87704">
        <ele>74.2</ele>
        <time>2018-09-16T06:48:22Z</time>
      </trkpt>
      <trkpt lat="43.6792" lon="3.87711">
        <ele>75.5</ele>
        <time>2018-09-16T06:48:29Z</time>
      </trkpt>
      <trkpt lat="43.67919" lon="3.87713">
        <ele>75.8</ele>
        <time>2018-09-16T06:48:30Z</time>
      </trkpt>
      <trkpt lat="43.67912" lon="3.87717">
        <ele>76.6</ele>
        <time>2018-09-16T06:48:34Z</time>
      </trkpt>
      <trkpt lat="43.6791" lon="3.87717">
        <ele>76.7</ele>
        <time>2018-09-16T06:48:35Z</time>
      </trkpt>
      <trkpt lat="43.67901" lon="3.87715">
        <ele>76.8</ele>
        <time>2018-09-16T06:48:40Z</time>
      </trkpt>
      <trkpt lat="43.67899" lon="3.87716">
        <ele>77</ele>
        <time>2018-09-16T06:48:41Z</time>
      </trkpt>
      <trkpt lat="43.6789" lon="3.87718">
        <ele>77.5</ele>
        <time>2018-09-16T06:48:45Z</time>
      </trkpt>
      <trkpt lat="43.67887" lon="3.87719">
        <ele>77.7</ele>
        <time>2018-09-16T06:48:46Z</time>
      </trkpt>
      <trkpt lat="43.6788" lon="3.87724">
        <ele>78.2</ele>
        <time>2018-09-16T06:48:49Z</time>
      </trkpt>
      <trkpt lat="43.67879" lon="3.87725">
        <ele>78.3</ele>
        <time>2018-09-16T06:48:50Z</time>
      </trkpt>
      <trkpt lat="43.67872" lon="3.87732">
        <ele>78.8</ele>
        <time>2018-09-16T06:48:54Z</time>
      </trkpt>
      <trkpt lat="43.67871" lon="3.87733">
        <ele>78.9</ele>
        <time>2018-09-16T06:48:55Z</time>
      </trkpt>
      <trkpt lat="43.67863" lon="3.87738">
        <ele>79.2</ele>
        <time>2018-09-16T06:49:05Z</time>
      </trkpt>
      <trkpt lat="43.67862" lon="3.87737">
        <ele>79.1</ele>
        <time>2018-09-16T06:49:06Z</time>
      </trkpt>
      <trkpt lat="43.67857" lon="3.87741">
        <ele>79.7</ele>
        <time>2018-09-16T06:49:14Z</time>
      </trkpt>
      <trkpt lat="43.67854" lon="3.87743">
        <ele>80.1</ele>
        <time>2018-09-16T06:49:15Z</time>
      </trkpt>
      <trkpt lat="43.67847" lon="3.87738">
        <ele>80.4</ele>
        <time>2018-09-16T06:49:19Z</time>
      </trkpt>
      <trkpt lat="43.67847" lon="3.87736">
        <ele>80.3</ele>
        <time>2018-09-16T06:49:20Z</time>
      </trkpt>
      <trkpt lat="43.67844" lon="3.87731">
        <ele>80.3</ele>
      </trkpt>
      <trkpt lat="43.67841" lon="3.87726">
        <ele>80.3</ele>
        <time>2018-09-16T06:49:23Z</time>
      </trkpt>
      <trkpt lat="43.6784" lon="3.87724">
        <ele>80.4</ele>
        <time>2018-09-16T06:49:24Z</time>
      </trkpt>
      <trkpt lat="43.67833" lon="3.87718">
        <ele>80.9</ele>
        <time>2018-09-16T06:49:27Z</time>
      </trkpt>
      <trkpt lat="43.67831" lon="3.87716">
        <ele>80.9</ele>
        <time>2018-09-16T06:49:28Z</time>
      </trkpt>
      <trkpt lat="43.67823" lon="3.87712">
        <ele>81</ele>
        <time>2018-09-16T06:49:33Z</time>
      </trkpt>
      <trkpt lat="43.67821" lon="3.87712">
        <ele>81.1</ele>
        <time>2018-09-16T06:49:34Z</time>
      </trkpt>
      <trkpt lat="43.67813" lon="3.87714">
        <ele>81.4</ele>
        <time>2018-09-16T06:49:38Z</time>
      </trkpt>
      <trkpt lat="43.6781" lon="3.87714">
        <ele>81.5</ele>
        <time>2018-09-16T06:49:39Z</time>
      </trkpt>
      <trkpt lat="43.67801" lon="3.87713">
        <ele>81.7</ele>
        <time>2018-09-16T06:49:42Z</time>
      </trkpt>
      <trkpt lat="43.67799" lon="3.87711">
        <ele>81.6</ele>
        <time>2018-09-16T06:49:43Z</time>
      </trkpt>
      <trkpt lat="43.67794" lon="3.87705">
        <ele>81.4</ele>
        <time>2018-09-16T06:49:47Z</time>
      </trkpt>
      <trkpt lat="43.67792" lon="3.87703">
        <ele>81.3</ele>
        <time>2018-09-16T06:49:48Z</time>
      </trkpt>
      <trkpt lat="43.67786" lon="3.87695">
        <ele>81</ele>
        <time>2018-09-16T06:49:51Z</time>
      </trkpt>
      <trkpt lat="43.67784" lon="3.87692">
        <ele>81</ele>
        <time>2018-09-16T06:49:52Z</time>
      </trkpt>
      <trkpt lat="43.67778" lon="3.87683">
        <ele>81</ele>
        <time>2018-09-16T06:49:56Z</time>
      </trkpt>
      <trkpt lat="43.67777" lon="3.8768">
        <ele>81</ele>
        <time>2018-09-16T06:49:57Z</time>
      </trkpt>
      <trkpt lat="43.67771" lon="3.87671">
        <ele>80.8</ele>
        <time>2018-09-16T06:50:01Z</time>
      </trkpt>
      <trkpt lat="43.6777" lon="3.87668">
        <ele>80.7</ele>
        <time>2018-09-16T06:50:02Z</time>
      </trkpt>
      <trkpt lat="43.67768" lon="3.87659">
        <ele>80.6</ele>
        <time>2018-09-16T06:50:05Z</time>
      </trkpt>
      <trkpt lat="43.67768" lon="3.87656">
        <ele>80.6</ele>
        <time>2018-09-16T06:50:06Z</time>
      </trkpt>
      <trkpt lat="43.67764" lon="3.87645">
        <ele>80.5</ele>
        <time>2018-09-16T06:50:09Z</time>
      </trkpt>
      <trkpt lat="43.67762" lon="3.8764">
        <ele>80.4</ele>
        <time>2018-09-16T06:50:10Z</time>
      </trkpt>
      <trkpt lat="43.67761" lon="3.87631">
        <ele>80.4</ele>
        <time>2018-09-16T06:50:12Z</time>
      </trkpt>
      <trkpt lat="43.6776" lon="3.87626">
        <ele>80.4</ele>
        <time>2018-09-16T06:50:13Z</time>
      </trkpt>
      <trkpt lat="43.6776" lon="3.87621">
        <ele>80.4</ele>
        <time>2018-09-16T06:50:14Z</time>
      </trkpt>
      <trkpt lat="43.67757" lon="3.87605">
        <ele>80</ele>
        <time>2018-09-16T06:50:15Z</time>
      </trkpt>
      <trkpt lat="43.67755" lon="3.87594">
        <ele>79.6</ele>
        <time>2018-09-16T06:50:27Z</time>
      </trkpt>
      <trkpt lat="43.67752" lon="3.87594">
        <ele>79.5</ele>
        <time>2018-09-16T06:50:28Z</time>
      </trkpt>
      <trkpt lat="43.67744" lon="3.87597">
        <ele>78.2</ele>
        <time>2018-09-16T06:50:32Z</time>
      </trkpt>
      <trkpt lat="43.67742" lon="3.87598">
        <ele>77.8</ele>
        <time>2018-09-16T06:50:33Z</time>
      </trkpt>
      <trkpt lat="43.67735" lon="3.87606">
        <ele>76.9</ele>
        <time>2018-09-16T06:50:37Z</time>
      </trkpt>
      <trkpt lat="43.67733" lon="3.87607">
        <ele>76.6</ele>
        <time>2018-09-16T06:50:38Z</time>
      </trkpt>
      <trkpt lat="43.67726" lon="3.87613">
        <ele>75.7</ele>
        <time>2018-09-16T06:50:41Z</time>
      </trkpt>
      <trkpt lat="43.67723" lon="3.87615">
        <ele>75.3</ele>
        <time>2018-09-16T06:50:42Z</time>
      </trkpt>
      <trkpt lat="43.67717" lon="3.87619">
        <ele>74.5</ele>
        <time>2018-09-16T06:50:44Z</time>
      </trkpt>
      <trkpt lat="43.67704" lon="3.87629">
        <ele>73</ele>
        <time>2018-09-16T06:50:45Z</time>
      </trkpt>
      <trkpt lat="43.67703" lon="3.87633">
        <ele>73</ele>
      </trkpt>
      <trkpt lat="43.67708" lon="3.8764">
        <ele>74</ele>
        <time>2018-09-16T06:50:52Z</time>
      </trkpt>
      <trkpt lat="43.67708" lon="3.87644">
        <ele>74</ele>
        <time>2018-09-16T06:50:53Z</time>
      </trkpt>
      <trkpt lat="43.67707" lon="3.87652">
        <ele>74.1</ele>
        <time>2018-09-16T06:50:55Z</time>
      </trkpt>
      <trkpt lat="43.67708" lon="3.87657">
        <ele>74.3</ele>
        <time>2018-09-16T06:50:56Z</time>
      </trkpt>
      <trkpt lat="43.6771" lon="3.87667">
        <ele>74.7</ele>
        <time>2018-09-16T06:50:59Z</time>
      </trkpt>
      <trkpt lat="43.6771" lon="3.8767">
        <ele>74.8</ele>
        <time>2018-09-16T06:51:00Z</time>
      </trkpt>
      <trkpt lat="43.6771" lon="3.87681">
        <ele>75.2</ele>
        <time>2018-09-16T06:51:04Z</time>
      </trkpt>
      <trkpt lat="43.67709" lon="3.87684">
        <ele>75.2</ele>
        <time>2018-09-16T06:51:05Z</time>
      </trkpt>
      <trkpt lat="43.67707" lon="3.87695">
        <ele>75.4</ele>
        <time>2018-09-16T06:51:09Z</time>
      </trkpt>
      <trkpt lat="43.67707" lon="3.87699">
        <ele>75.4</ele>
        <time>2018-09-16T06:51:10Z</time>
      </trkpt>
      <trkpt lat="43.67708" lon="3.87707">
        <ele>75.7</ele>
        <time>2018-09-16T06:51:12Z</time>
      </trkpt>
      <trkpt lat="43.67709" lon="3.87711">
        <ele>75.9</ele>
        <time>2018-09-16T06:51:13Z</time>
      </trkpt>
      <trkpt lat="43.67709" lon="3.87718">
        <ele>76</ele>
      </trkpt>
      <trkpt lat="43.67709" lon="3.87719">
        <ele>76</ele>
      </trkpt>
      <trkpt lat="43.67709" lon="3.8772">
        <ele>76</ele>
      </trkpt>
      <trkpt lat="43.6771" lon="3.87721">
        <ele>76.1</ele>
        <time>2018-09-16T06:51:17Z</time>
      </trkpt>
      <trkpt lat="43.67713" lon="3.87728">
        <ele>76.8</ele>
        <time>2018-09-16T06:51:24Z</time>
      </trkpt>
      <trkpt lat="43.67716" lon="3.87735">
        <ele>77.5</ele>
        <time>2018-09-16T06:51:25Z</time>
      </trkpt>
      <trkpt lat="43.67717" lon="3.87745">
        <ele>78.4</ele>
        <time>2018-09-16T06:51:28Z</time>
      </trkpt>
      <trkpt lat="43.67713" lon="3.87748">
        <ele>78.5</ele>
        <time>2018-09-16T06:51:29Z</time>
      </trkpt>
      <trkpt lat="43.67711" lon="3.87757">
        <ele>78.8</ele>
        <time>2018-09-16T06:51:32Z</time>
      </trkpt>
      <trkpt lat="43.67713" lon="3.87767">
        <ele>79.3</ele>
        <time>2018-09-16T06:51:33Z</time>
      </trkpt>
      <trkpt lat="43.67717" lon="3.87778">
        <ele>79.8</ele>
        <time>2018-09-16T06:51:36Z</time>
      </trkpt>
      <trkpt lat="43.67719" lon="3.87782">
        <ele>79.9</ele>
        <time>2018-09-16T06:51:37Z</time>
      </trkpt>
      <trkpt lat="43.67722" lon="3.8779">
        <ele>80</ele>
        <time>2018-09-16T06:51:40Z</time>
      </trkpt>
      <trkpt lat="43.67723" lon="3.87793">
        <ele>80.1</ele>
        <time>2018-09-16T06:51:41Z</time>
      </trkpt>
      <trkpt lat="43.67725" lon="3.87802">
        <ele>80.4</ele>
        <time>2018-09-16T06:51:44Z</time>
      </trkpt>
      <trkpt lat="43.67726" lon="3.87805">
        <ele>80.5</ele>
        <time>2018-09-16T06:51:45Z</time>
      </trkpt>
      <trkpt lat="43.67727" lon="3.87814">
        <ele>81.2</ele>
        <time>2018-09-16T06:51:48Z</time>
      </trkpt>
      <trkpt lat="43.67728" lon="3.87819">
        <ele>81.7</ele>
        <time>2018-09-16T06:51:49Z</time>
      </trkpt>
      <trkpt lat="43.6773" lon="3.87825">
        <ele>82.3</ele>
        <time>2018-09-16T06:51:52Z</time>
      </trkpt>
      <trkpt lat="43.67731" lon="3.8783">
        <ele>82.7</ele>
        <time>2018-09-16T06:51:53Z</time>
      </trkpt>
      <trkpt lat="43.67729" lon="3.87841">
        <ele>83.2</ele>
        <time>2018-09-16T06:51:57Z</time>
      </trkpt>
      <trkpt lat="43.67727" lon="3.87844">
        <ele>83.2</ele>
        <time>2018-09-16T06:51:58Z</time>
      </trkpt>
      <trkpt lat="43.67723" lon="3.87852">
        <ele>83.4</ele>
        <time>2018-09-16T06:52:02Z</time>
      </trkpt>
      <trkpt lat="43.6772" lon="3.87854">
        <ele>83.5</ele>
        <time>2018-09-16T06:52:03Z</time>
      </trkpt>
      <trkpt lat="43.67717" lon="3.87862">
        <ele>84.2</ele>
        <time>2018-09-16T06:52:07Z</time>
      </trkpt>
      <trkpt lat="43.67717" lon="3.87868">
        <ele>84.8</ele>
        <time>2018-09-16T06:52:08Z</time>
      </trkpt>
      <trkpt lat="43.6772" lon="3.87878">
        <ele>85.8</ele>
        <time>2018-09-16T06:52:12Z</time>
      </trkpt>
      <trkpt lat="43.6772" lon="3.8788">
        <ele>86</ele>
        <time>2018-09-16T06:52:13Z</time>
      </trkpt>
      <trkpt lat="43.67726" lon="3.87889">
        <ele>87.2</ele>
      </trkpt>
      <trkpt lat="43.67729" lon="3.87891">
        <ele>87.5</ele>
        <time>2018-09-16T06:52:24Z</time>
      </trkpt>
      <trkpt lat="43.67731" lon="3.87894">
        <ele>87.9</ele>
        <time>2018-09-16T06:52:25Z</time>
      </trkpt>
      <trkpt lat="43.67735" lon="3.87895">
        <ele>88.1</ele>
      </trkpt>
      <trkpt lat="43.67737" lon="3.87895">
        <ele>88.2</ele>
        <time>2018-09-16T06:52:29Z</time>
      </trkpt>
      <trkpt lat="43.67738" lon="3.87897">
        <ele>88.5</ele>
        <time>2018-09-16T06:52:30Z</time>
      </trkpt>
      <trkpt lat="43.67742" lon="3.87899">
        <ele>88.8</ele>
      </trkpt>
      <trkpt lat="43.67744" lon="3.87901">
        <ele>89</ele>
        <time>2018-09-16T06:52:36Z</time>
      </trkpt>
      <trkpt lat="43.67745" lon="3.879">
        <ele>89.1</ele>
        <time>2018-09-16T06:52:37Z</time>
      </trkpt>
      <trkpt lat="43.67754" lon="3.87901">
        <ele>89.6</ele>
        <time>2018-09-16T06:52:43Z</time>
      </trkpt>
      <trkpt lat="43.67759" lon="3.87901">
        <ele>89.9</ele>
        <time>2018-09-16T06:52:44Z</time>
      </trkpt>
      <trkpt lat="43.67759" lon="3.8791">
        <ele>90.9</ele>
        <time>2018-09-16T06:52:49Z</time>
      </trkpt>
      <trkpt lat="43.67767" lon="3.87907">
        <ele>91.2</ele>
        <time>2018-09-16T06:52:50Z</time>
      </trkpt>
      <trkpt lat="43.67774" lon="3.87908">
        <ele>91.7</ele>
        <time>2018-09-16T06:52:54Z</time>
      </trkpt>
      <trkpt lat="43.67778" lon="3.87909">
        <ele>92.1</ele>
        <time>2018-09-16T06:52:55Z</time>
      </trkpt>
      <trkpt lat="43.67782" lon="3.87904">
        <ele>91.6</ele>
        <time>2018-09-16T06:52:58Z</time>
      </trkpt>
      <trkpt lat="43.67785" lon="3.87904">
        <ele>91.6</ele>
        <time>2018-09-16T06:52:59Z</time>
      </trkpt>
      <trkpt lat="43.67792" lon="3.87906">
        <ele>91.8</ele>
        <time>2018-09-16T06:53:02Z</time>
      </trkpt>
      <trkpt lat="43.67795" lon="3.87907">
        <ele>92</ele>
        <time>2018-09-16T06:53:03Z</time>
      </trkpt>
      <trkpt lat="43.67802" lon="3.87913">
        <ele>92.6</ele>
        <time>2018-09-16T06:53:06Z</time>
      </trkpt>
      <trkpt lat="43.67805" lon="3.87915">
        <ele>92.8</ele>
        <time>2018-09-16T06:53:07Z</time>
      </trkpt>
      <trkpt lat="43.6781" lon="3.87919">
        <ele>93</ele>
        <time>2018-09-16T06:53:09Z</time>
      </trkpt>
      <trkpt lat="43.67812" lon="3.87921">
        <ele>93.1</ele>
        <time>2018-09-16T06:53:10Z</time>
      </trkpt>
      <trkpt lat="43.67819" lon="3.87927">
        <ele>93.3</ele>
        <time>2018-09-16T06:53:13Z</time>
      </trkpt>
      <trkpt lat="43.67821" lon="3.8793">
        <ele>93.4</ele>
        <time>2018-09-16T06:53:14Z</time>
      </trkpt>
      <trkpt lat="43.67827" lon="3.87936">
        <ele>93.6</ele>
        <time>2018-09-16T06:53:17Z</time>
      </trkpt>
      <trkpt lat="43.67829" lon="3.87938">
        <ele>93.7</ele>
        <time>2018-09-16T06:53:18Z</time>
      </trkpt>
      <trkpt lat="43.67837" lon="3.8794">
        <ele>94</ele>
        <time>2018-09-16T06:53:21Z</time>
      </trkpt>
      <trkpt lat="43.67839" lon="3.8794">
        <ele>94.1</ele>
        <time>2018-09-16T06:53:22Z</time>
      </trkpt>
      <trkpt lat="43.67845" lon="3.87934">
        <ele>94.2</ele>
        <time>2018-09-16T06:53:25Z</time>
      </trkpt>
      <trkpt lat="43.67847" lon="3.87931">
        <ele>94.3</ele>
        <time>2018-09-16T06:53:26Z</time>
      </trkpt>
      <trkpt lat="43.67851" lon="3.87922">
        <ele>94.2</ele>
        <time>2018-09-16T06:53:29Z</time>
      </trkpt>
      <trkpt lat="43.67852" lon="3.87918">
        <ele>94.1</ele>
        <time>2018-09-16T06:53:30Z</time>
      </trkpt>
      <trkpt lat="43.67854" lon="3.87911">
        <ele>94</ele>
        <time>2018-09-16T06:53:32Z</time>
      </trkpt>
      <trkpt lat="43.67856" lon="3.87907">
        <ele>94.1</ele>
        <time>2018-09-16T06:53:33Z</time>
      </trkpt>
      <trkpt lat="43.67858" lon="3.87899">
        <ele>94</ele>
        <time>2018-09-16T06:53:35Z</time>
      </trkpt>
      <trkpt lat="43.67859" lon="3.87895">
        <ele>94</ele>
        <time>2018-09-16T06:53:36Z</time>
      </trkpt>
      <trkpt lat="43.67863" lon="3.87884">
        <ele>93.8</ele>
        <time>2018-09-16T06:53:39Z</time>
      </trkpt>
      <trkpt lat="43.67864" lon="3.87881">
        <ele>93.7</ele>
        <time>2018-09-16T06:53:40Z</time>
      </trkpt>
      <trkpt lat="43.6787" lon="3.87873">
        <ele>93.6</ele>
        <time>2018-09-16T06:53:43Z</time>
      </trkpt>
      <trkpt lat="43.67872" lon="3.87871">
        <ele>93.6</ele>
        <time>2018-09-16T06:53:44Z</time>
      </trkpt>
      <trkpt lat="43.67879" lon="3.87865">
        <ele>93.7</ele>
        <time>2018-09-16T06:53:47Z</time>
      </trkpt>
      <trkpt lat="43.67882" lon="3.87864">
        <ele>93.8</ele>
        <time>2018-09-16T06:53:48Z</time>
      </trkpt>
      <trkpt lat="43.6789" lon="3.87863">
        <ele>94.2</ele>
        <time>2018-09-16T06:53:51Z</time>
      </trkpt>
      <trkpt lat="43.67893" lon="3.87863">
        <ele>94.4</ele>
        <time>2018-09-16T06:53:52Z</time>
      </trkpt>
      <trkpt lat="43.67902" lon="3.87864">
        <ele>94.8</ele>
        <time>2018-09-16T06:53:55Z</time>
      </trkpt>
      <trkpt lat="43.67904" lon="3.87868">
        <ele>95.2</ele>
        <time>2018-09-16T06:53:56Z</time>
      </trkpt>
      <trkpt lat="43.67911" lon="3.87872">
        <ele>96</ele>
        <time>2018-09-16T06:53:59Z</time>
      </trkpt>
      <trkpt lat="43.67918" lon="3.87869">
        <ele>95.8</ele>
        <time>2018-09-16T06:54:00Z</time>
      </trkpt>
      <trkpt lat="43.67923" lon="3.87867">
        <ele>95.2</ele>
        <time>2018-09-16T06:54:02Z</time>
      </trkpt>
      <trkpt lat="43.67934" lon="3.87868">
        <ele>94.7</ele>
        <time>2018-09-16T06:54:03Z</time>
      </trkpt>
      <trkpt lat="43.67939" lon="3.87871">
        <ele>94.7</ele>
        <time>2018-09-16T06:54:05Z</time>
      </trkpt>
      <trkpt lat="43.67944" lon="3.87873">
        <ele>94.7</ele>
        <time>2018-09-16T06:54:06Z</time>
      </trkpt>
      <trkpt lat="43.67951" lon="3.87878">
        <ele>94.9</ele>
        <time>2018-09-16T06:54:08Z</time>
      </trkpt>
      <trkpt lat="43.67954" lon="3.87879">
        <ele>94.8</ele>
        <time>2018-09-16T06:54:09Z</time>
      </trkpt>
      <trkpt lat="43.67958" lon="3.87881">
        <ele>94.7</ele>
        <time>2018-09-16T06:54:11Z</time>
      </trkpt>
      <trkpt lat="43.67964" lon="3.87887">
        <ele>95.3</ele>
        <time>2018-09-16T06:54:12Z</time>
      </trkpt>
      <trkpt lat="43.67968" lon="3.87888">
        <ele>95.1</ele>
        <time>2018-09-16T06:54:13Z</time>
      </trkpt>
      <trkpt lat="43.67973" lon="3.87894">
        <ele>95.8</ele>
        <time>2018-09-16T06:54:14Z</time>
      </trkpt>
      <trkpt lat="43.67978" lon="3.87898">
        <ele>96</ele>
        <time>2018-09-16T06:54:16Z</time>
      </trkpt>
      <trkpt lat="43.67982" lon="3.87899">
        <ele>95.8</ele>
        <time>2018-09-16T06:54:17Z</time>
      </trkpt>
      <trkpt lat="43.67986" lon="3.87904">
        <ele>96.2</ele>
        <time>2018-09-16T06:54:18Z</time>
      </trkpt>
      <trkpt lat="43.6799" lon="3.87907">
        <ele>96.3</ele>
        <time>2018-09-16T06:54:19Z</time>
      </trkpt>
      <trkpt lat="43.67995" lon="3.8791">
        <ele>96.3</ele>
        <time>2018-09-16T06:54:21Z</time>
      </trkpt>
      <trkpt lat="43.68" lon="3.87911">
        <ele>96</ele>
        <time>2018-09-16T06:54:22Z</time>
      </trkpt>
      <trkpt lat="43.68004" lon="3.87913">
        <ele>95.6</ele>
        <time>2018-09-16T06:54:24Z</time>
      </trkpt>
      <trkpt lat="43.68011" lon="3.87918">
        <ele>95.2</ele>
        <time>2018-09-16T06:54:25Z</time>
      </trkpt>
      <trkpt lat="43.68018" lon="3.87923">
        <ele>94.8</ele>
        <time>2018-09-16T06:54:27Z</time>
      </trkpt>
      <trkpt lat="43.68021" lon="3.87927">
        <ele>94.8</ele>
        <time>2018-09-16T06:54:28Z</time>
      </trkpt>
      <trkpt lat="43.68024" lon="3.87933">
        <ele>95.1</ele>
        <time>2018-09-16T06:54:29Z</time>
      </trkpt>
      <trkpt lat="43.68027" lon="3.87937">
        <ele>95.1</ele>
        <time>2018-09-16T06:54:30Z</time>
      </trkpt>
      <trkpt lat="43.68029" lon="3.87945">
        <ele>96</ele>
        <time>2018-09-16T06:54:33Z</time>
      </trkpt>
      <trkpt lat="43.68029" lon="3.87949">
        <ele>96.4</ele>
        <time>2018-09-16T06:54:34Z</time>
      </trkpt>
      <trkpt lat="43.68031" lon="3.87957">
        <ele>97.2</ele>
        <time>2018-09-16T06:54:36Z</time>
      </trkpt>
      <trkpt lat="43.68032" lon="3.87961">
        <ele>97.6</ele>
        <time>2018-09-16T06:54:37Z</time>
      </trkpt>
      <trkpt lat="43.68033" lon="3.87971">
        <ele>98.7</ele>
        <time>2018-09-16T06:54:40Z</time>
      </trkpt>
      <trkpt lat="43.68032" lon="3.87975">
        <ele>99</ele>
        <time>2018-09-16T06:54:41Z</time>
      </trkpt>
      <trkpt lat="43.6803" lon="3.87984">
        <ele>99.4</ele>
        <time>2018-09-16T06:54:43Z</time>
      </trkpt>
      <trkpt lat="43.68029" lon="3.88">
        <ele>100</ele>
        <time>2018-09-16T06:54:44Z</time>
      </trkpt>
      <trkpt lat="43.68032" lon="3.8801">
        <ele>100.9</ele>
        <time>2018-09-16T06:54:46Z</time>
      </trkpt>
      <trkpt lat="43.68034" lon="3.88012">
        <ele>101.2</ele>
        <time>2018-09-16T06:54:47Z</time>
      </trkpt>
      <trkpt lat="43.68043" lon="3.88015">
        <ele>101.9</ele>
        <time>2018-09-16T06:54:50Z</time>
      </trkpt>
      <trkpt lat="43.68044" lon="3.88014">
        <ele>101.9</ele>
        <time>2018-09-16T06:54:51Z</time>
      </trkpt>
      <trkpt lat="43.68047" lon="3.88005">
        <ele>101.2</ele>
        <time>2018-09-16T06:54:54Z</time>
      </trkpt>
      <trkpt lat="43.68049" lon="3.88001">
        <ele>100.9</ele>
        <time>2018-09-16T06:54:55Z</time>
      </trkpt>
      <trkpt lat="43.68055" lon="3.87987">
        <ele>99.6</ele>
        <time>2018-09-16T06:54:56Z</time>
      </trkpt>
      <trkpt lat="43.68058" lon="3.87982">
        <ele>99.4</ele>
        <time>2018-09-16T06:54:59Z</time>
      </trkpt>
      <trkpt lat="43.68064" lon="3.87972">
        <ele>98.9</ele>
        <time>2018-09-16T06:55:00Z</time>
      </trkpt>
      <trkpt lat="43.68068" lon="3.87966">
        <ele>98.4</ele>
        <time>2018-09-16T06:55:01Z</time>
      </trkpt>
      <trkpt lat="43.68071" lon="3.87963">
        <ele>98.3</ele>
        <time>2018-09-16T06:55:02Z</time>
      </trkpt>
      <trkpt lat="43.68075" lon="3.87961">
        <ele>98.5</ele>
        <time>2018-09-16T06:55:03Z</time>
      </trkpt>
      <trkpt lat="43.68079" lon="3.87957">
        <ele>98.3</ele>
        <time>2018-09-16T06:55:04Z</time>
      </trkpt>
      <trkpt lat="43.68087" lon="3.87955">
        <ele>98.3</ele>
        <time>2018-09-16T06:55:06Z</time>
      </trkpt>
      <trkpt lat="43.68091" lon="3.87953">
        <ele>97.7</ele>
        <time>2018-09-16T06:55:07Z</time>
      </trkpt>
      <trkpt lat="43.68096" lon="3.87954">
        <ele>97.5</ele>
        <time>2018-09-16T06:55:09Z</time>
      </trkpt>
      <trkpt lat="43.68102" lon="3.87953">
        <ele>96.9</ele>
        <time>2018-09-16T06:55:10Z</time>
      </trkpt>
      <trkpt lat="43.68104" lon="3.87955">
        <ele>97</ele>
        <time>2018-09-16T06:55:11Z</time>
      </trkpt>
      <trkpt lat="43.6811" lon="3.87961">
        <ele>97.5</ele>
        <time>2018-09-16T06:55:12Z</time>
      </trkpt>
      <trkpt lat="43.68113" lon="3.87969">
        <ele>98.3</ele>
        <time>2018-09-16T06:55:16Z</time>
      </trkpt>
      <trkpt lat="43.68118" lon="3.8798">
        <ele>99.1</ele>
        <time>2018-09-16T06:55:17Z</time>
      </trkpt>
      <trkpt lat="43.68121" lon="3.87992">
        <ele>100.3</ele>
        <time>2018-09-16T06:55:19Z</time>
      </trkpt>
      <trkpt lat="43.68125" lon="3.87995">
        <ele>100.3</ele>
        <time>2018-09-16T06:55:20Z</time>
      </trkpt>
      <trkpt lat="43.6813" lon="3.87996">
        <ele>99.7</ele>
        <time>2018-09-16T06:55:21Z</time>
      </trkpt>
      <trkpt lat="43.68135" lon="3.87996">
        <ele>99</ele>
        <time>2018-09-16T06:55:22Z</time>
      </trkpt>
      <trkpt lat="43.68141" lon="3.88">
        <ele>98.9</ele>
        <time>2018-09-16T06:55:24Z</time>
      </trkpt>
      <trkpt lat="43.68145" lon="3.88001">
        <ele>99</ele>
        <time>2018-09-16T06:55:25Z</time>
      </trkpt>
      <trkpt lat="43.68154" lon="3.88004">
        <ele>99.2</ele>
        <time>2018-09-16T06:55:27Z</time>
      </trkpt>
      <trkpt lat="43.68158" lon="3.88008">
        <ele>99.7</ele>
        <time>2018-09-16T06:55:28Z</time>
      </trkpt>
      <trkpt lat="43.68162" lon="3.88011">
        <ele>100</ele>
        <time>2018-09-16T06:55:29Z</time>
      </trkpt>
      <trkpt lat="43.68166" lon="3.88014">
        <ele>100.1</ele>
        <time>2018-09-16T06:55:30Z</time>
      </trkpt>
      <trkpt lat="43.68173" lon="3.88021">
        <ele>100.7</ele>
        <time>2018-09-16T06:55:32Z</time>
      </trkpt>
      <trkpt lat="43.68177" lon="3.88024">
        <ele>100.9</ele>
        <time>2018-09-16T06:55:33Z</time>
      </trkpt>
      <trkpt lat="43.68184" lon="3.8803">
        <ele>101</ele>
        <time>2018-09-16T06:55:35Z</time>
      </trkpt>
      <trkpt lat="43.68187" lon="3.88033">
        <ele>100.9</ele>
        <time>2018-09-16T06:55:36Z</time>
      </trkpt>
      <trkpt lat="43.68191" lon="3.88038">
        <ele>100.8</ele>
        <time>2018-09-16T06:55:37Z</time>
      </trkpt>
      <trkpt lat="43.68194" lon="3.88044">
        <ele>100.7</ele>
        <time>2018-09-16T06:55:38Z</time>
      </trkpt>
      <trkpt lat="43.68198" lon="3.88053">
        <ele>101.2</ele>
        <time>2018-09-16T06:55:40Z</time>
      </trkpt>
      <trkpt lat="43.68202" lon="3.88058">
        <ele>101.8</ele>
        <time>2018-09-16T06:55:41Z</time>
      </trkpt>
      <trkpt lat="43.68209" lon="3.88052">
        <ele>101.9</ele>
        <time>2018-09-16T06:55:45Z</time>
      </trkpt>
      <trkpt lat="43.68209" lon="3.88049">
        <ele>101.8</ele>
        <time>2018-09-16T06:55:46Z</time>
      </trkpt>
      <trkpt lat="43.6821" lon="3.88036">
        <ele>101.4</ele>
        <time>2018-09-16T06:55:47Z</time>
      </trkpt>
      <trkpt lat="43.6821" lon="3.88029">
        <ele>101.2</ele>
        <time>2018-09-16T06:55:48Z</time>
      </trkpt>
      <trkpt lat="43.68209" lon="3.88023">
        <ele>101</ele>
        <time>2018-09-16T06:55:49Z</time>
      </trkpt>
      <trkpt lat="43.68208" lon="3.88013">
        <ele>100.7</ele>
        <time>2018-09-16T06:55:51Z</time>
      </trkpt>
      <trkpt lat="43.68208" lon="3.8801">
        <ele>100.6</ele>
        <time>2018-09-16T06:55:52Z</time>
      </trkpt>
      <trkpt lat="43.68205" lon="3.88001">
        <ele>100.2</ele>
        <time>2018-09-16T06:55:53Z</time>
      </trkpt>
      <trkpt lat="43.68203" lon="3.87996">
        <ele>99.7</ele>
        <time>2018-09-16T06:55:54Z</time>
      </trkpt>
      <trkpt lat="43.68204" lon="3.87985">
        <ele>99.3</ele>
        <time>2018-09-16T06:55:56Z</time>
      </trkpt>
      <trkpt lat="43.6821" lon="3.87974">
        <ele>99.2</ele>
        <time>2018-09-16T06:55:57Z</time>
      </trkpt>
      <trkpt lat="43.68205" lon="3.87965">
        <ele>98.3</ele>
        <time>2018-09-16T06:56:00Z</time>
      </trkpt>
      <trkpt lat="43.68205" lon="3.87961">
        <ele>98</ele>
        <time>2018-09-16T06:56:01Z</time>
      </trkpt>
      <trkpt lat="43.68199" lon="3.87952">
        <ele>97.4</ele>
        <time>2018-09-16T06:56:05Z</time>
      </trkpt>
      <trkpt lat="43.68198" lon="3.8795">
        <ele>97.3</ele>
        <time>2018-09-16T06:56:06Z</time>
      </trkpt>
      <trkpt lat="43.68193" lon="3.87941">
        <ele>96.6</ele>
        <time>2018-09-16T06:56:09Z</time>
      </trkpt>
      <trkpt lat="43.68191" lon="3.87938">
        <ele>96.2</ele>
        <time>2018-09-16T06:56:10Z</time>
      </trkpt>
      <trkpt lat="43.68186" lon="3.87931">
        <ele>95.1</ele>
        <time>2018-09-16T06:56:13Z</time>
      </trkpt>
      <trkpt lat="43.68184" lon="3.87929">
        <ele>94.8</ele>
        <time>2018-09-16T06:56:14Z</time>
      </trkpt>
      <trkpt lat="43.68179" lon="3.87919">
        <ele>93.5</ele>
        <time>2018-09-16T06:56:18Z</time>
      </trkpt>
      <trkpt lat="43.68178" lon="3.87916">
        <ele>93.1</ele>
        <time>2018-09-16T06:56:19Z</time>
      </trkpt>
      <trkpt lat="43.68174" lon="3.87908">
        <ele>91.7</ele>
        <time>2018-09-16T06:56:22Z</time>
      </trkpt>
      <trkpt lat="43.68173" lon="3.87905">
        <ele>91.2</ele>
        <time>2018-09-16T06:56:23Z</time>
      </trkpt>
      <trkpt lat="43.68169" lon="3.87897">
        <ele>90</ele>
        <time>2018-09-16T06:56:26Z</time>
      </trkpt>
      <trkpt lat="43.68168" lon="3.87894">
        <ele>89.6</ele>
        <time>2018-09-16T06:56:27Z</time>
      </trkpt>
      <trkpt lat="43.68162" lon="3.87885">
        <ele>87.8</ele>
        <time>2018-09-16T06:56:30Z</time>
      </trkpt>
      <trkpt lat="43.68161" lon="3.87882">
        <ele>87.2</ele>
        <time>2018-09-16T06:56:31Z</time>
      </trkpt>
      <trkpt lat="43.68158" lon="3.87872">
        <ele>85.4</ele>
        <time>2018-09-16T06:56:34Z</time>
      </trkpt>
      <trkpt lat="43.68158" lon="3.87868">
        <ele>84.8</ele>
        <time>2018-09-16T06:56:35Z</time>
      </trkpt>
      <trkpt lat="43.68158" lon="3.87859">
        <ele>83.3</ele>
        <time>2018-09-16T06:56:37Z</time>
      </trkpt>
      <trkpt lat="43.68158" lon="3.87844">
        <ele>80.6</ele>
        <time>2018-09-16T06:56:38Z</time>
      </trkpt>
      <trkpt lat="43.68159" lon="3.87833">
        <ele>78.5</ele>
        <time>2018-09-16T06:56:41Z</time>
      </trkpt>
      <trkpt lat="43.68158" lon="3.87831">
        <ele>78.4</ele>
        <time>2018-09-16T06:56:42Z</time>
      </trkpt>
      <trkpt lat="43.68154" lon="3.87821">
        <ele>77.6</ele>
        <time>2018-09-16T06:56:46Z</time>
      </trkpt>
      <trkpt lat="43.68154" lon="3.87819">
        <ele>77.4</ele>
        <time>2018-09-16T06:56:47Z</time>
      </trkpt>
      <trkpt lat="43.68149" lon="3.87806">
        <ele>76.3</ele>
        <time>2018-09-16T06:56:49Z</time>
      </trkpt>
      <trkpt lat="43.68154" lon="3.87787">
        <ele>76.3</ele>
        <time>2018-09-16T06:56:50Z</time>
      </trkpt>
      <trkpt lat="43.68162" lon="3.87801">
        <ele>75.6</ele>
        <time>2018-09-16T06:56:54Z</time>
      </trkpt>
      <trkpt lat="43.68164" lon="3.87804">
        <ele>75.3</ele>
        <time>2018-09-16T06:56:55Z</time>
      </trkpt>
      <trkpt lat="43.68173" lon="3.87812">
        <ele>75.6</ele>
        <time>2018-09-16T06:56:56Z</time>
      </trkpt>
      <trkpt lat="43.68176" lon="3.87816">
        <ele>75.9</ele>
        <time>2018-09-16T06:56:57Z</time>
      </trkpt>
      <trkpt lat="43.68181" lon="3.87818">
        <ele>75.9</ele>
        <time>2018-09-16T06:56:58Z</time>
      </trkpt>
      <trkpt lat="43.68188" lon="3.87823">
        <ele>75.9</ele>
        <time>2018-09-16T06:57:01Z</time>
      </trkpt>
      <trkpt lat="43.68193" lon="3.87826">
        <ele>75.8</ele>
        <time>2018-09-16T06:57:02Z</time>
      </trkpt>
      <trkpt lat="43.68199" lon="3.87829">
        <ele>75.9</ele>
        <time>2018-09-16T06:57:05Z</time>
      </trkpt>
      <trkpt lat="43.68202" lon="3.87831">
        <ele>76</ele>
        <time>2018-09-16T06:57:06Z</time>
      </trkpt>
      <trkpt lat="43.68207" lon="3.87834">
        <ele>76.1</ele>
        <time>2018-09-16T06:57:08Z</time>
      </trkpt>
      <trkpt lat="43.6821" lon="3.87836">
        <ele>76.6</ele>
        <time>2018-09-16T06:57:09Z</time>
      </trkpt>
      <trkpt lat="43.68217" lon="3.87839">
        <ele>77</ele>
        <time>2018-09-16T06:57:11Z</time>
      </trkpt>
      <trkpt lat="43.6822" lon="3.87842">
        <ele>77.3</ele>
        <time>2018-09-16T06:57:12Z</time>
      </trkpt>
      <trkpt lat="43.68226" lon="3.87846">
        <ele>77.9</ele>
        <time>2018-09-16T06:57:14Z</time>
      </trkpt>
      <trkpt lat="43.68229" lon="3.87848">
        <ele>78.2</ele>
        <time>2018-09-16T06:57:15Z</time>
      </trkpt>
      <trkpt lat="43.68234" lon="3.87852">
        <ele>78.4</ele>
        <time>2018-09-16T06:57:17Z</time>
      </trkpt>
      <trkpt lat="43.68237" lon="3.87853">
        <ele>78.3</ele>
        <time>2018-09-16T06:57:18Z</time>
      </trkpt>
      <trkpt lat="43.68243" lon="3.87856">
        <ele>78</ele>
        <time>2018-09-16T06:57:20Z</time>
      </trkpt>
      <trkpt lat="43.68246" lon="3.87858">
        <ele>77.7</ele>
        <time>2018-09-16T06:57:21Z</time>
      </trkpt>
      <trkpt lat="43.68252" lon="3.8786">
        <ele>77.2</ele>
        <time>2018-09-16T06:57:23Z</time>
      </trkpt>
      <trkpt lat="43.68256" lon="3.87862">
        <ele>77.4</ele>
        <time>2018-09-16T06:57:24Z</time>
      </trkpt>
      <trkpt lat="43.68267" lon="3.87869">
        <ele>79.1</ele>
        <time>2018-09-16T06:57:25Z</time>
      </trkpt>
      <trkpt lat="43.68271" lon="3.8787">
        <ele>79.3</ele>
        <time>2018-09-16T06:57:27Z</time>
      </trkpt>
      <trkpt lat="43.68278" lon="3.87871">
        <ele>79.4</ele>
        <time>2018-09-16T06:57:28Z</time>
      </trkpt>
      <trkpt lat="43.68286" lon="3.87871">
        <ele>79.7</ele>
        <time>2018-09-16T06:57:30Z</time>
      </trkpt>
      <trkpt lat="43.68289" lon="3.8787">
        <ele>79.7</ele>
        <time>2018-09-16T06:57:31Z</time>
      </trkpt>
      <trkpt lat="43.68296" lon="3.87868">
        <ele>79.8</ele>
        <time>2018-09-16T06:57:34Z</time>
      </trkpt>
      <trkpt lat="43.68299" lon="3.87867">
        <ele>79.9</ele>
        <time>2018-09-16T06:57:35Z</time>
      </trkpt>
      <trkpt lat="43.68305" lon="3.87866">
        <ele>80.1</ele>
        <time>2018-09-16T06:57:37Z</time>
      </trkpt>
      <trkpt lat="43.68308" lon="3.87866">
        <ele>80.6</ele>
        <time>2018-09-16T06:57:38Z</time>
      </trkpt>
      <trkpt lat="43.68315" lon="3.87867">
        <ele>81.6</ele>
        <time>2018-09-16T06:57:40Z</time>
      </trkpt>
      <trkpt lat="43.68319" lon="3.87868">
        <ele>82.2</ele>
        <time>2018-09-16T06:57:41Z</time>
      </trkpt>
      <trkpt lat="43.68325" lon="3.87871">
        <ele>82.9</ele>
        <time>2018-09-16T06:57:43Z</time>
      </trkpt>
      <trkpt lat="43.68328" lon="3.87872">
        <ele>83.2</ele>
        <time>2018-09-16T06:57:44Z</time>
      </trkpt>
      <trkpt lat="43.68334" lon="3.87875">
        <ele>83.6</ele>
        <time>2018-09-16T06:57:46Z</time>
      </trkpt>
      <trkpt lat="43.68336" lon="3.87877">
        <ele>83.5</ele>
        <time>2018-09-16T06:57:47Z</time>
      </trkpt>
      <trkpt lat="43.68345" lon="3.87879">
        <ele>83.9</ele>
        <time>2018-09-16T06:57:50Z</time>
      </trkpt>
      <trkpt lat="43.68347" lon="3.8788">
        <ele>83.9</ele>
        <time>2018-09-16T06:57:51Z</time>
      </trkpt>
      <trkpt lat="43.68355" lon="3.87882">
        <ele>84.1</ele>
        <time>2018-09-16T06:57:55Z</time>
      </trkpt>
      <trkpt lat="43.68358" lon="3.87882">
        <ele>84.3</ele>
        <time>2018-09-16T06:57:56Z</time>
      </trkpt>
      <trkpt lat="43.68366" lon="3.87884">
        <ele>84.4</ele>
        <time>2018-09-16T06:57:59Z</time>
      </trkpt>
      <trkpt lat="43.6837" lon="3.87885">
        <ele>84.4</ele>
        <time>2018-09-16T06:58:00Z</time>
      </trkpt>
      <trkpt lat="43.68376" lon="3.87888">
        <ele>84.2</ele>
        <time>2018-09-16T06:58:02Z</time>
      </trkpt>
      <trkpt lat="43.68379" lon="3.8789">
        <ele>84.3</ele>
        <time>2018-09-16T06:58:03Z</time>
      </trkpt>
      <trkpt lat="43.68384" lon="3.87893">
        <ele>84.6</ele>
        <time>2018-09-16T06:58:05Z</time>
      </trkpt>
      <trkpt lat="43.68388" lon="3.87895">
        <ele>84.7</ele>
        <time>2018-09-16T06:58:06Z</time>
      </trkpt>
      <trkpt lat="43.68394" lon="3.87898">
        <ele>85</ele>
        <time>2018-09-16T06:58:08Z</time>
      </trkpt>
      <trkpt lat="43.68397" lon="3.87899">
        <ele>85.2</ele>
        <time>2018-09-16T06:58:09Z</time>
      </trkpt>
      <trkpt lat="43.68406" lon="3.87902">
        <ele>85.8</ele>
        <time>2018-09-16T06:58:12Z</time>
      </trkpt>
      <trkpt lat="43.68408" lon="3.87903">
        <ele>85.9</ele>
        <time>2018-09-16T06:58:13Z</time>
      </trkpt>
      <trkpt lat="43.68416" lon="3.87906">
        <ele>86.3</ele>
        <time>2018-09-16T06:58:16Z</time>
      </trkpt>
      <trkpt lat="43.68418" lon="3.87906">
        <ele>86.4</ele>
        <time>2018-09-16T06:58:17Z</time>
      </trkpt>
      <trkpt lat="43.68425" lon="3.87906">
        <ele>86.7</ele>
        <time>2018-09-16T06:58:20Z</time>
      </trkpt>
      <trkpt lat="43.68427" lon="3.87906">
        <ele>86.8</ele>
        <time>2018-09-16T06:58:21Z</time>
      </trkpt>
      <trkpt lat="43.68435" lon="3.87904">
        <ele>87.1</ele>
        <time>2018-09-16T06:58:24Z</time>
      </trkpt>
      <trkpt lat="43.68437" lon="3.87903">
        <ele>87.2</ele>
        <time>2018-09-16T06:58:25Z</time>
      </trkpt>
      <trkpt lat="43.68443" lon="3.87899">
        <ele>87.6</ele>
        <time>2018-09-16T06:58:28Z</time>
      </trkpt>
      <trkpt lat="43.68445" lon="3.87898">
        <ele>87.7</ele>
        <time>2018-09-16T06:58:29Z</time>
      </trkpt>
      <trkpt lat="43.68453" lon="3.87892">
        <ele>88.5</ele>
        <time>2018-09-16T06:58:32Z</time>
      </trkpt>
      <trkpt lat="43.68455" lon="3.8789">
        <ele>88.7</ele>
        <time>2018-09-16T06:58:33Z</time>
      </trkpt>
      <trkpt lat="43.68461" lon="3.87885">
        <ele>89.4</ele>
        <time>2018-09-16T06:58:36Z</time>
      </trkpt>
      <trkpt lat="43.68463" lon="3.87884">
        <ele>89.6</ele>
        <time>2018-09-16T06:58:37Z</time>
      </trkpt>
      <trkpt lat="43.68468" lon="3.87878">
        <ele>90.4</ele>
        <time>2018-09-16T06:58:41Z</time>
      </trkpt>
      <trkpt lat="43.6847" lon="3.87876">
        <ele>90.7</ele>
        <time>2018-09-16T06:58:42Z</time>
      </trkpt>
      <trkpt lat="43.68478" lon="3.87871">
        <ele>92</ele>
        <time>2018-09-16T06:58:46Z</time>
      </trkpt>
      <trkpt lat="43.6848" lon="3.8787">
        <ele>92.3</ele>
        <time>2018-09-16T06:58:47Z</time>
      </trkpt>
      <trkpt lat="43.68487" lon="3.87868">
        <ele>93.2</ele>
        <time>2018-09-16T06:58:51Z</time>
      </trkpt>
      <trkpt lat="43.68489" lon="3.87868">
        <ele>93.5</ele>
        <time>2018-09-16T06:58:52Z</time>
      </trkpt>
      <trkpt lat="43.68497" lon="3.87868">
        <ele>94.4</ele>
        <time>2018-09-16T06:58:57Z</time>
      </trkpt>
      <trkpt lat="43.68499" lon="3.87868">
        <ele>94.6</ele>
        <time>2018-09-16T06:58:58Z</time>
      </trkpt>
      <trkpt lat="43.68507" lon="3.87865">
        <ele>95.7</ele>
        <time>2018-09-16T06:59:03Z</time>
      </trkpt>
      <trkpt lat="43.68508" lon="3.87865">
        <ele>95.8</ele>
        <time>2018-09-16T06:59:04Z</time>
      </trkpt>
      <trkpt lat="43.68517" lon="3.8786">
        <ele>96.8</ele>
        <time>2018-09-16T06:59:10Z</time>
      </trkpt>
      <trkpt lat="43.68518" lon="3.8786">
        <ele>96.9</ele>
        <time>2018-09-16T06:59:11Z</time>
      </trkpt>
      <trkpt lat="43.68527" lon="3.87859">
        <ele>97.8</ele>
        <time>2018-09-16T06:59:15Z</time>
      </trkpt>
      <trkpt lat="43.68528" lon="3.8786">
        <ele>98</ele>
        <time>2018-09-16T06:59:16Z</time>
      </trkpt>
      <trkpt lat="43.68534" lon="3.87868">
        <ele>99</ele>
        <time>2018-09-16T06:59:20Z</time>
      </trkpt>
      <trkpt lat="43.68535" lon="3.87871">
        <ele>99.1</ele>
        <time>2018-09-16T06:59:21Z</time>
      </trkpt>
      <trkpt lat="43.68537" lon="3.87882">
        <ele>99.6</ele>
        <time>2018-09-16T06:59:23Z</time>
      </trkpt>
      <trkpt lat="43.68537" lon="3.87884">
        <ele>99.6</ele>
        <time>2018-09-16T06:59:24Z</time>
      </trkpt>
      <trkpt lat="43.68536" lon="3.87895">
        <ele>99.7</ele>
        <time>2018-09-16T06:59:28Z</time>
      </trkpt>
      <trkpt lat="43.68536" lon="3.87898">
        <ele>99.8</ele>
        <time>2018-09-16T06:59:29Z</time>
      </trkpt>
      <trkpt lat="43.68536" lon="3.87909">
        <ele>100.2</ele>
        <time>2018-09-16T06:59:33Z</time>
      </trkpt>
      <trkpt lat="43.68535" lon="3.87913">
        <ele>100.2</ele>
        <time>2018-09-16T06:59:34Z</time>
      </trkpt>
      <trkpt lat="43.68535" lon="3.87922">
        <ele>100.3</ele>
        <time>2018-09-16T06:59:37Z</time>
      </trkpt>
      <trkpt lat="43.68535" lon="3.87926">
        <ele>100.4</ele>
        <time>2018-09-16T06:59:38Z</time>
      </trkpt>
      <trkpt lat="43.68535" lon="3.87938">
        <ele>100.5</ele>
        <time>2018-09-16T06:59:41Z</time>
      </trkpt>
      <trkpt lat="43.68535" lon="3.87942">
        <ele>100.5</ele>
        <time>2018-09-16T06:59:42Z</time>
      </trkpt>
      <trkpt lat="43.68534" lon="3.87951">
        <ele>100.3</ele>
        <time>2018-09-16T06:59:44Z</time>
      </trkpt>
      <trkpt lat="43.68534" lon="3.87955">
        <ele>100.3</ele>
        <time>2018-09-16T06:59:45Z</time>
      </trkpt>
      <trkpt lat="43.68534" lon="3.8796">
        <ele>100.2</ele>
        <time>2018-09-16T06:59:46Z</time>
      </trkpt>
      <trkpt lat="43.68535" lon="3.87972">
        <ele>100.3</ele>
        <time>2018-09-16T06:59:47Z</time>
      </trkpt>
      <trkpt lat="43.68537" lon="3.87983">
        <ele>100.4</ele>
        <time>2018-09-16T06:59:51Z</time>
      </trkpt>
      <trkpt lat="43.6854" lon="3.87995">
        <ele>100.5</ele>
        <time>2018-09-16T06:59:52Z</time>
      </trkpt>
      <trkpt lat="43.68542" lon="3.88">
        <ele>100.5</ele>
        <time>2018-09-16T06:59:53Z</time>
      </trkpt>
      <trkpt lat="43.68543" lon="3.88008">
        <ele>100.3</ele>
        <time>2018-09-16T06:59:54Z</time>
      </trkpt>
      <trkpt lat="43.68543" lon="3.88016">
        <ele>100</ele>
        <time>2018-09-16T06:59:55Z</time>
      </trkpt>
      <trkpt lat="43.68542" lon="3.88023">
        <ele>99.7</ele>
        <time>2018-09-16T06:59:56Z</time>
      </trkpt>
      <trkpt lat="43.68533" lon="3.88039">
        <ele>99.2</ele>
        <time>2018-09-16T06:59:58Z</time>
      </trkpt>
      <trkpt lat="43.68543" lon="3.88037">
        <ele>99.5</ele>
        <time>2018-09-16T06:59:59Z</time>
      </trkpt>
      <trkpt lat="43.6855" lon="3.88041">
        <ele>99.8</ele>
        <time>2018-09-16T07:00:03Z</time>
      </trkpt>
      <trkpt lat="43.68552" lon="3.88041">
        <ele>99.9</ele>
        <time>2018-09-16T07:00:04Z</time>
      </trkpt>
      <trkpt lat="43.6856" lon="3.88044">
        <ele>100.2</ele>
        <time>2018-09-16T07:00:08Z</time>
      </trkpt>
      <trkpt lat="43.68562" lon="3.88044">
        <ele>100.3</ele>
        <time>2018-09-16T07:00:09Z</time>
      </trkpt>
      <trkpt lat="43.68569" lon="3.88046">
        <ele>100.7</ele>
        <time>2018-09-16T07:00:12Z</time>
      </trkpt>
      <trkpt lat="43.68572" lon="3.88047">
        <ele>100.8</ele>
        <time>2018-09-16T07:00:13Z</time>
      </trkpt>
      <trkpt lat="43.6858" lon="3.88049">
        <ele>101.1</ele>
        <time>2018-09-16T07:00:17Z</time>
      </trkpt>
      <trkpt lat="43.68582" lon="3.8805">
        <ele>101.1</ele>
        <time>2018-09-16T07:00:18Z</time>
      </trkpt>
      <trkpt lat="43.6859" lon="3.88052">
        <ele>101.8</ele>
        <time>2018-09-16T07:00:22Z</time>
      </trkpt>
      <trkpt lat="43.68592" lon="3.88053">
        <ele>102</ele>
        <time>2018-09-16T07:00:23Z</time>
      </trkpt>
      <trkpt lat="43.68599" lon="3.88056">
        <ele>102.7</ele>
        <time>2018-09-16T07:00:27Z</time>
      </trkpt>
      <trkpt lat="43.68601" lon="3.88057">
        <ele>103</ele>
        <time>2018-09-16T07:00:28Z</time>
      </trkpt>
      <trkpt lat="43.68609" lon="3.88061">
        <ele>104</ele>
        <time>2018-09-16T07:00:33Z</time>
      </trkpt>
      <trkpt lat="43.6861" lon="3.88062">
        <ele>104.1</ele>
        <time>2018-09-16T07:00:34Z</time>
      </trkpt>
      <trkpt lat="43.68619" lon="3.88065">
        <ele>105.9</ele>
        <time>2018-09-16T07:00:39Z</time>
      </trkpt>
      <trkpt lat="43.68621" lon="3.88065">
        <ele>106.2</ele>
        <time>2018-09-16T07:00:40Z</time>
      </trkpt>
      <trkpt lat="43.68629" lon="3.88066">
        <ele>107.8</ele>
        <time>2018-09-16T07:00:45Z</time>
      </trkpt>
      <trkpt lat="43.6863" lon="3.88066">
        <ele>107.9</ele>
        <time>2018-09-16T07:00:46Z</time>
      </trkpt>
      <trkpt lat="43.68636" lon="3.88072">
        <ele>108.9</ele>
        <time>2018-09-16T07:00:52Z</time>
      </trkpt>
      <trkpt lat="43.68638" lon="3.88073">
        <ele>109.2</ele>
        <time>2018-09-16T07:00:53Z</time>
      </trkpt>
      <trkpt lat="43.68643" lon="3.88081">
        <ele>110</ele>
        <time>2018-09-16T07:00:58Z</time>
      </trkpt>
      <trkpt lat="43.68644" lon="3.88083">
        <ele>110.1</ele>
        <time>2018-09-16T07:00:59Z</time>
      </trkpt>
      <trkpt lat="43.68648" lon="3.88092">
        <ele>111.4</ele>
        <time>2018-09-16T07:01:04Z</time>
      </trkpt>
      <trkpt lat="43.68649" lon="3.88093">
        <ele>111.6</ele>
        <time>2018-09-16T07:01:05Z</time>
      </trkpt>
      <trkpt lat="43.68654" lon="3.88102">
        <ele>112.9</ele>
        <time>2018-09-16T07:01:11Z</time>
      </trkpt>
      <trkpt lat="43.68655" lon="3.88103">
        <ele>113.1</ele>
        <time>2018-09-16T07:01:12Z</time>
      </trkpt>
      <trkpt lat="43.68657" lon="3.88115">
        <ele>114.1</ele>
        <time>2018-09-16T07:01:19Z</time>
      </trkpt>
      <trkpt lat="43.68657" lon="3.88117">
        <ele>114.3</ele>
        <time>2018-09-16T07:01:20Z</time>
      </trkpt>
      <trkpt lat="43.68656" lon="3.88128">
        <ele>115.5</ele>
        <time>2018-09-16T07:01:26Z</time>
      </trkpt>
      <trkpt lat="43.68656" lon="3.8813">
        <ele>115.8</ele>
        <time>2018-09-16T07:01:27Z</time>
      </trkpt>
      <trkpt lat="43.68653" lon="3.8814">
        <ele>116.6</ele>
        <time>2018-09-16T07:01:32Z</time>
      </trkpt>
      <trkpt lat="43.68652" lon="3.88142">
        <ele>116.8</ele>
        <time>2018-09-16T07:01:33Z</time>
      </trkpt>
      <trkpt lat="43.68648" lon="3.88153">
        <ele>117.5</ele>
        <time>2018-09-16T07:01:40Z</time>
      </trkpt>
      <trkpt lat="43.68647" lon="3.88154">
        <ele>117.5</ele>
        <time>2018-09-16T07:01:41Z</time>
      </trkpt>
      <trkpt lat="43.68643" lon="3.88164">
        <ele>118.2</ele>
        <time>2018-09-16T07:01:48Z</time>
      </trkpt>
      <trkpt lat="43.68642" lon="3.88165">
        <ele>118.2</ele>
        <time>2018-09-16T07:01:49Z</time>
      </trkpt>
      <trkpt lat="43.68643" lon="3.88176">
        <ele>118.8</ele>
        <time>2018-09-16T07:01:55Z</time>
      </trkpt>
      <trkpt lat="43.68643" lon="3.88186">
        <ele>119.2</ele>
      </trkpt>
      <trkpt lat="43.68644" lon="3.88183">
        <ele>119.2</ele>
        <time>2018-09-16T07:01:56Z</time>
      </trkpt>
      <trkpt lat="43.68651" lon="3.88178">
        <ele>119.7</ele>
        <time>2018-09-16T07:02:08Z</time>
      </trkpt>
      <trkpt lat="43.68653" lon="3.88177">
        <ele>119.9</ele>
        <time>2018-09-16T07:02:09Z</time>
      </trkpt>
      <trkpt lat="43.6866" lon="3.88173">
        <ele>120.5</ele>
        <time>2018-09-16T07:02:13Z</time>
      </trkpt>
      <trkpt lat="43.68661" lon="3.88173">
        <ele>120.6</ele>
        <time>2018-09-16T07:02:14Z</time>
      </trkpt>
      <trkpt lat="43.6867" lon="3.88174">
        <ele>121.7</ele>
        <time>2018-09-16T07:02:19Z</time>
      </trkpt>
      <trkpt lat="43.68671" lon="3.88175">
        <ele>121.9</ele>
        <time>2018-09-16T07:02:20Z</time>
      </trkpt>
      <trkpt lat="43.68679" lon="3.88178">
        <ele>123</ele>
        <time>2018-09-16T07:02:25Z</time>
      </trkpt>
      <trkpt lat="43.6868" lon="3.88179">
        <ele>123.2</ele>
        <time>2018-09-16T07:02:26Z</time>
      </trkpt>
      <trkpt lat="43.68688" lon="3.88182">
        <ele>124.2</ele>
        <time>2018-09-16T07:02:33Z</time>
      </trkpt>
      <trkpt lat="43.68689" lon="3.88183">
        <ele>124.3</ele>
        <time>2018-09-16T07:02:34Z</time>
      </trkpt>
      <trkpt lat="43.68697" lon="3.88188">
        <ele>125.4</ele>
        <time>2018-09-16T07:02:40Z</time>
      </trkpt>
      <trkpt lat="43.68699" lon="3.88187">
        <ele>125.7</ele>
        <time>2018-09-16T07:02:41Z</time>
      </trkpt>
      <trkpt lat="43.68705" lon="3.88189">
        <ele>126.5</ele>
        <time>2018-09-16T07:02:51Z</time>
      </trkpt>
      <trkpt lat="43.68706" lon="3.88186">
        <ele>126.7</ele>
        <time>2018-09-16T07:02:54Z</time>
      </trkpt>
      <trkpt lat="43.68715" lon="3.88185">
        <ele>128</ele>
        <time>2018-09-16T07:03:20Z</time>
      </trkpt>
      <trkpt lat="43.68715" lon="3.88184">
        <ele>128</ele>
        <time>2018-09-16T07:03:21Z</time>
      </trkpt>
      <trkpt lat="43.68717" lon="3.88179">
        <ele>128.2</ele>
        <time>2018-09-16T07:03:37Z</time>
      </trkpt>
      <trkpt lat="43.68717" lon="3.88178">
        <ele>128.2</ele>
        <time>2018-09-16T07:03:38Z</time>
      </trkpt>
      <trkpt lat="43.68722" lon="3.8817">
        <ele>129</ele>
        <time>2018-09-16T07:04:00Z</time>
      </trkpt>
      <trkpt lat="43.68724" lon="3.88169">
        <ele>129.1</ele>
        <time>2018-09-16T07:04:01Z</time>
      </trkpt>
      <trkpt lat="43.68733" lon="3.88167">
        <ele>129.4</ele>
        <time>2018-09-16T07:04:04Z</time>
      </trkpt>
      <trkpt lat="43.68736" lon="3.88168">
        <ele>129.5</ele>
        <time>2018-09-16T07:04:05Z</time>
      </trkpt>
      <trkpt lat="43.68744" lon="3.8817">
        <ele>129.8</ele>
        <time>2018-09-16T07:04:08Z</time>
      </trkpt>
      <trkpt lat="43.68746" lon="3.88171">
        <ele>129.9</ele>
        <time>2018-09-16T07:04:09Z</time>
      </trkpt>
      <trkpt lat="43.68753" lon="3.88168">
        <ele>129.9</ele>
        <time>2018-09-16T07:04:11Z</time>
      </trkpt>
      <trkpt lat="43.68756" lon="3.88179">
        <ele>129.8</ele>
        <time>2018-09-16T07:04:12Z</time>
      </trkpt>
      <trkpt lat="43.6876" lon="3.88195">
        <ele>129.6</ele>
      </trkpt>
      <trkpt lat="43.68765" lon="3.88193">
        <ele>129.5</ele>
        <time>2018-09-16T07:04:13Z</time>
      </trkpt>
      <trkpt lat="43.68765" lon="3.88204">
        <ele>129.8</ele>
        <time>2018-09-16T07:04:15Z</time>
      </trkpt>
      <trkpt lat="43.68768" lon="3.88208">
        <ele>129.8</ele>
        <time>2018-09-16T07:04:16Z</time>
      </trkpt>
      <trkpt lat="43.68772" lon="3.88217">
        <ele>130</ele>
        <time>2018-09-16T07:04:19Z</time>
      </trkpt>
      <trkpt lat="43.68774" lon="3.88219">
        <ele>130</ele>
        <time>2018-09-16T07:04:20Z</time>
      </trkpt>
      <trkpt lat="43.6878" lon="3.88226">
        <ele>129.8</ele>
        <time>2018-09-16T07:04:21Z</time>
      </trkpt>
      <trkpt lat="43.68783" lon="3.88231">
        <ele>129.6</ele>
        <time>2018-09-16T07:04:22Z</time>
      </trkpt>
      <trkpt lat="43.68786" lon="3.88235">
        <ele>129.4</ele>
        <time>2018-09-16T07:04:23Z</time>
      </trkpt>
      <trkpt lat="43.6879" lon="3.8824">
        <ele>129.1</ele>
        <time>2018-09-16T07:04:24Z</time>
      </trkpt>
      <trkpt lat="43.68791" lon="3.88247">
        <ele>129</ele>
        <time>2018-09-16T07:04:25Z</time>
      </trkpt>
      <trkpt lat="43.6879" lon="3.88254">
        <ele>129.1</ele>
        <time>2018-09-16T07:04:26Z</time>
      </trkpt>
      <trkpt lat="43.68789" lon="3.88264">
        <ele>129.3</ele>
        <time>2018-09-16T07:04:28Z</time>
      </trkpt>
      <trkpt lat="43.6879" lon="3.88269">
        <ele>129.2</ele>
        <time>2018-09-16T07:04:29Z</time>
      </trkpt>
      <trkpt lat="43.68794" lon="3.88278">
        <ele>128.6</ele>
        <time>2018-09-16T07:04:31Z</time>
      </trkpt>
      <trkpt lat="43.68794" lon="3.88285">
        <ele>127.9</ele>
        <time>2018-09-16T07:04:32Z</time>
      </trkpt>
      <trkpt lat="43.68799" lon="3.88294">
        <ele>126.2</ele>
        <time>2018-09-16T07:04:34Z</time>
      </trkpt>
      <trkpt lat="43.68801" lon="3.88304">
        <ele>124.8</ele>
        <time>2018-09-16T07:04:35Z</time>
      </trkpt>
      <trkpt lat="43.68797" lon="3.88315">
        <ele>124.7</ele>
        <time>2018-09-16T07:04:39Z</time>
      </trkpt>
      <trkpt lat="43.68798" lon="3.88318">
        <ele>124.4</ele>
        <time>2018-09-16T07:04:40Z</time>
      </trkpt>
      <trkpt lat="43.68805" lon="3.88324">
        <ele>123.4</ele>
        <time>2018-09-16T07:04:44Z</time>
      </trkpt>
      <trkpt lat="43.68816" lon="3.88326">
        <ele>121.8</ele>
        <time>2018-09-16T07:04:45Z</time>
      </trkpt>
      <trkpt lat="43.68825" lon="3.88327">
        <ele>120.4</ele>
        <time>2018-09-16T07:04:46Z</time>
      </trkpt>
      <trkpt lat="43.68835" lon="3.88329">
        <ele>119</ele>
        <time>2018-09-16T07:04:47Z</time>
      </trkpt>
      <trkpt lat="43.68841" lon="3.8833">
        <ele>118.3</ele>
        <time>2018-09-16T07:04:48Z</time>
      </trkpt>
      <trkpt lat="43.68849" lon="3.88329">
        <ele>117.6</ele>
        <time>2018-09-16T07:04:49Z</time>
      </trkpt>
      <trkpt lat="43.68855" lon="3.88331">
        <ele>116.8</ele>
        <time>2018-09-16T07:04:50Z</time>
      </trkpt>
      <trkpt lat="43.6886" lon="3.88335">
        <ele>116.1</ele>
        <time>2018-09-16T07:04:51Z</time>
      </trkpt>
      <trkpt lat="43.68865" lon="3.8834">
        <ele>115.6</ele>
        <time>2018-09-16T07:04:52Z</time>
      </trkpt>
      <trkpt lat="43.68871" lon="3.88342">
        <ele>115.3</ele>
        <time>2018-09-16T07:04:53Z</time>
      </trkpt>
      <trkpt lat="43.68876" lon="3.88341">
        <ele>115.2</ele>
        <time>2018-09-16T07:04:54Z</time>
      </trkpt>
      <trkpt lat="43.68882" lon="3.88341">
        <ele>115</ele>
        <time>2018-09-16T07:04:55Z</time>
      </trkpt>
      <trkpt lat="43.68887" lon="3.88341">
        <ele>114.8</ele>
        <time>2018-09-16T07:04:56Z</time>
      </trkpt>
      <trkpt lat="43.68892" lon="3.88341">
        <ele>114.6</ele>
        <time>2018-09-16T07:04:57Z</time>
      </trkpt>
      <trkpt lat="43.68898" lon="3.88341">
        <ele>114.4</ele>
        <time>2018-09-16T07:04:58Z</time>
      </trkpt>
      <trkpt lat="43.68903" lon="3.88342">
        <ele>114.2</ele>
        <time>2018-09-16T07:04:59Z</time>
      </trkpt>
      <trkpt lat="43.68912" lon="3.88343">
        <ele>113.8</ele>
        <time>2018-09-16T07:05:02Z</time>
      </trkpt>
      <trkpt lat="43.68914" lon="3.88342">
        <ele>113.8</ele>
        <time>2018-09-16T07:05:03Z</time>
      </trkpt>
      <trkpt lat="43.68923" lon="3.88345">
        <ele>113.4</ele>
        <time>2018-09-16T07:05:07Z</time>
      </trkpt>
      <trkpt lat="43.68931" lon="3.88355">
        <ele>112.7</ele>
        <time>2018-09-16T07:05:08Z</time>
      </trkpt>
      <trkpt lat="43.68942" lon="3.88356">
        <ele>112.3</ele>
        <time>2018-09-16T07:05:10Z</time>
      </trkpt>
      <trkpt lat="43.68949" lon="3.88361">
        <ele>112</ele>
        <time>2018-09-16T07:05:11Z</time>
      </trkpt>
      <trkpt lat="43.68958" lon="3.88363">
        <ele>111.9</ele>
        <time>2018-09-16T07:05:12Z</time>
      </trkpt>
      <trkpt lat="43.68963" lon="3.8836">
        <ele>112</ele>
        <time>2018-09-16T07:05:13Z</time>
      </trkpt>
      <trkpt lat="43.68965" lon="3.8836">
        <ele>112</ele>
      </trkpt>
      <trkpt lat="43.68969" lon="3.88361">
        <ele>112</ele>
        <time>2018-09-16T07:05:14Z</time>
      </trkpt>
      <trkpt lat="43.68971" lon="3.8836">
        <ele>112</ele>
        <time>2018-09-16T07:05:16Z</time>
      </trkpt>
      <trkpt lat="43.68977" lon="3.88361">
        <ele>112</ele>
        <time>2018-09-16T07:05:17Z</time>
      </trkpt>
      <trkpt lat="43.68982" lon="3.88363">
        <ele>111.9</ele>
        <time>2018-09-16T07:05:18Z</time>
      </trkpt>
      <trkpt lat="43.68986" lon="3.88366">
        <ele>111.8</ele>
        <time>2018-09-16T07:05:19Z</time>
      </trkpt>
      <trkpt lat="43.68991" lon="3.88368">
        <ele>111.8</ele>
        <time>2018-09-16T07:05:20Z</time>
      </trkpt>
      <trkpt lat="43.68994" lon="3.88371">
        <ele>111.6</ele>
      </trkpt>
      <trkpt lat="43.68996" lon="3.88371">
        <ele>111.6</ele>
        <time>2018-09-16T07:05:21Z</time>
      </trkpt>
      <trkpt lat="43.69" lon="3.88373">
        <ele>111.6</ele>
        <time>2018-09-16T07:05:22Z</time>
      </trkpt>
      <trkpt lat="43.69002" lon="3.88375">
        <ele>111.5</ele>
        <time>2018-09-16T07:05:23Z</time>
      </trkpt>
      <trkpt lat="43.69006" lon="3.88379">
        <ele>111.4</ele>
        <time>2018-09-16T07:05:24Z</time>
      </trkpt>
      <trkpt lat="43.69009" lon="3.88382">
        <ele>111.2</ele>
        <time>2018-09-16T07:05:25Z</time>
      </trkpt>
      <trkpt lat="43.69014" lon="3.88387">
        <ele>111.1</ele>
        <time>2018-09-16T07:05:26Z</time>
      </trkpt>
      <trkpt lat="43.69019" lon="3.88391">
        <ele>110.9</ele>
        <time>2018-09-16T07:05:27Z</time>
      </trkpt>
      <trkpt lat="43.69022" lon="3.88397">
        <ele>110.7</ele>
        <time>2018-09-16T07:05:28Z</time>
      </trkpt>
      <trkpt lat="43.69026" lon="3.88403">
        <ele>110.5</ele>
        <time>2018-09-16T07:05:29Z</time>
      </trkpt>
      <trkpt lat="43.69031" lon="3.88407">
        <ele>110.3</ele>
        <time>2018-09-16T07:05:30Z</time>
      </trkpt>
      <trkpt lat="43.69037" lon="3.88412">
        <ele>110.1</ele>
        <time>2018-09-16T07:05:31Z</time>
      </trkpt>
      <trkpt lat="43.6904" lon="3.88418">
        <ele>110</ele>
        <time>2018-09-16T07:05:32Z</time>
      </trkpt>
      <trkpt lat="43.69044" lon="3.88422">
        <ele>110.1</ele>
        <time>2018-09-16T07:05:33Z</time>
      </trkpt>
      <trkpt lat="43.69047" lon="3.88428">
        <ele>110.1</ele>
        <time>2018-09-16T07:05:34Z</time>
      </trkpt>
      <trkpt lat="43.6905" lon="3.88434">
        <ele>110.1</ele>
        <time>2018-09-16T07:05:35Z</time>
      </trkpt>
      <trkpt lat="43.69054" lon="3.88439">
        <ele>110</ele>
        <time>2018-09-16T07:05:36Z</time>
      </trkpt>
      <trkpt lat="43.69058" lon="3.88443">
        <ele>109.8</ele>
        <time>2018-09-16T07:05:37Z</time>
      </trkpt>
      <trkpt lat="43.69062" lon="3.88446">
        <ele>109.7</ele>
        <time>2018-09-16T07:05:38Z</time>
      </trkpt>
      <trkpt lat="43.69068" lon="3.88449">
        <ele>109.5</ele>
        <time>2018-09-16T07:05:39Z</time>
      </trkpt>
      <trkpt lat="43.69073" lon="3.88453">
        <ele>109.6</ele>
        <time>2018-09-16T07:05:40Z</time>
      </trkpt>
      <trkpt lat="43.69078" lon="3.88456">
        <ele>109.6</ele>
        <time>2018-09-16T07:05:41Z</time>
      </trkpt>
      <trkpt lat="43.69083" lon="3.88459">
        <ele>109.6</ele>
        <time>2018-09-16T07:05:42Z</time>
      </trkpt>
      <trkpt lat="43.69088" lon="3.88461">
        <ele>109.4</ele>
        <time>2018-09-16T07:05:43Z</time>
      </trkpt>
      <trkpt lat="43.69092" lon="3.88462">
        <ele>109.1</ele>
        <time>2018-09-16T07:05:44Z</time>
      </trkpt>
      <trkpt lat="43.69098" lon="3.88463">
        <ele>108.6</ele>
        <time>2018-09-16T07:05:45Z</time>
      </trkpt>
      <trkpt lat="43.69103" lon="3.88463">
        <ele>108.1</ele>
        <time>2018-09-16T07:05:46Z</time>
      </trkpt>
      <trkpt lat="43.6911" lon="3.88467">
        <ele>107.7</ele>
        <time>2018-09-16T07:05:47Z</time>
      </trkpt>
      <trkpt lat="43.69115" lon="3.88471">
        <ele>107.4</ele>
        <time>2018-09-16T07:05:48Z</time>
      </trkpt>
      <trkpt lat="43.6912" lon="3.88474">
        <ele>106.8</ele>
        <time>2018-09-16T07:05:49Z</time>
      </trkpt>
      <trkpt lat="43.69123" lon="3.88479">
        <ele>106.8</ele>
        <time>2018-09-16T07:05:50Z</time>
      </trkpt>
      <trkpt lat="43.69129" lon="3.88485">
        <ele>106.3</ele>
        <time>2018-09-16T07:05:51Z</time>
      </trkpt>
      <trkpt lat="43.69135" lon="3.8849">
        <ele>105.8</ele>
        <time>2018-09-16T07:05:52Z</time>
      </trkpt>
      <trkpt lat="43.69139" lon="3.88492">
        <ele>105.4</ele>
        <time>2018-09-16T07:05:53Z</time>
      </trkpt>
      <trkpt lat="43.69145" lon="3.88497">
        <ele>105.1</ele>
        <time>2018-09-16T07:05:54Z</time>
      </trkpt>
      <trkpt lat="43.69151" lon="3.88502">
        <ele>104.8</ele>
        <time>2018-09-16T07:05:55Z</time>
      </trkpt>
      <trkpt lat="43.69155" lon="3.88509">
        <ele>104.7</ele>
        <time>2018-09-16T07:05:56Z</time>
      </trkpt>
      <trkpt lat="43.69159" lon="3.88512">
        <ele>104.4</ele>
        <time>2018-09-16T07:05:57Z</time>
      </trkpt>
      <trkpt lat="43.69165" lon="3.88517">
        <ele>103.8</ele>
        <time>2018-09-16T07:05:58Z</time>
      </trkpt>
      <trkpt lat="43.6917" lon="3.88522">
        <ele>103.3</ele>
        <time>2018-09-16T07:05:59Z</time>
      </trkpt>
      <trkpt lat="43.69176" lon="3.88526">
        <ele>102.6</ele>
        <time>2018-09-16T07:06:00Z</time>
      </trkpt>
      <trkpt lat="43.69179" lon="3.88531">
        <ele>102.3</ele>
        <time>2018-09-16T07:06:01Z</time>
      </trkpt>
      <trkpt lat="43.69186" lon="3.88534">
        <ele>101.4</ele>
        <time>2018-09-16T07:06:03Z</time>
      </trkpt>
      <trkpt lat="43.69194" lon="3.88537">
        <ele>100.4</ele>
        <time>2018-09-16T07:06:04Z</time>
      </trkpt>
      <trkpt lat="43.692" lon="3.88545">
        <ele>100</ele>
        <time>2018-09-16T07:06:05Z</time>
      </trkpt>
      <trkpt lat="43.69205" lon="3.88552">
        <ele>99.7</ele>
        <time>2018-09-16T07:06:06Z</time>
      </trkpt>
      <trkpt lat="43.69209" lon="3.88559">
        <ele>99.4</ele>
        <time>2018-09-16T07:06:07Z</time>
      </trkpt>
      <trkpt lat="43.69214" lon="3.88565">
        <ele>98.6</ele>
        <time>2018-09-16T07:06:08Z</time>
      </trkpt>
      <trkpt lat="43.69216" lon="3.88572">
        <ele>98.2</ele>
        <time>2018-09-16T07:06:09Z</time>
      </trkpt>
      <trkpt lat="43.69218" lon="3.88578">
        <ele>97.8</ele>
        <time>2018-09-16T07:06:10Z</time>
      </trkpt>
      <trkpt lat="43.69223" lon="3.88586">
        <ele>96.8</ele>
        <time>2018-09-16T07:06:11Z</time>
      </trkpt>
      <trkpt lat="43.69226" lon="3.88595">
        <ele>96.2</ele>
        <time>2018-09-16T07:06:12Z</time>
      </trkpt>
      <trkpt lat="43.69232" lon="3.88603">
        <ele>95.2</ele>
        <time>2018-09-16T07:06:14Z</time>
      </trkpt>
      <trkpt lat="43.69234" lon="3.88608">
        <ele>94.8</ele>
        <time>2018-09-16T07:06:15Z</time>
      </trkpt>
      <trkpt lat="43.69237" lon="3.88614">
        <ele>94.3</ele>
        <time>2018-09-16T07:06:16Z</time>
      </trkpt>
      <trkpt lat="43.69241" lon="3.88621">
        <ele>93.7</ele>
        <time>2018-09-16T07:06:17Z</time>
      </trkpt>
      <trkpt lat="43.69243" lon="3.88629">
        <ele>93.4</ele>
        <time>2018-09-16T07:06:18Z</time>
      </trkpt>
      <trkpt lat="43.69247" lon="3.88636">
        <ele>93.1</ele>
        <time>2018-09-16T07:06:19Z</time>
      </trkpt>
      <trkpt lat="43.69247" lon="3.88643">
        <ele>93.1</ele>
        <time>2018-09-16T07:06:20Z</time>
      </trkpt>
      <trkpt lat="43.69248" lon="3.88651">
        <ele>93</ele>
        <time>2018-09-16T07:06:21Z</time>
      </trkpt>
      <trkpt lat="43.6925" lon="3.88658">
        <ele>93</ele>
        <time>2018-09-16T07:06:22Z</time>
      </trkpt>
      <trkpt lat="43.69252" lon="3.88664">
        <ele>93</ele>
        <time>2018-09-16T07:06:23Z</time>
      </trkpt>
      <trkpt lat="43.69257" lon="3.88674">
        <ele>92.9</ele>
        <time>2018-09-16T07:06:25Z</time>
      </trkpt>
      <trkpt lat="43.6926" lon="3.88679">
        <ele>92.9</ele>
        <time>2018-09-16T07:06:26Z</time>
      </trkpt>
      <trkpt lat="43.69263" lon="3.88684">
        <ele>93</ele>
        <time>2018-09-16T07:06:27Z</time>
      </trkpt>
      <trkpt lat="43.69265" lon="3.88691">
        <ele>93.1</ele>
        <time>2018-09-16T07:06:28Z</time>
      </trkpt>
      <trkpt lat="43.69267" lon="3.88697">
        <ele>93.3</ele>
        <time>2018-09-16T07:06:29Z</time>
      </trkpt>
      <trkpt lat="43.69268" lon="3.88704">
        <ele>93.6</ele>
        <time>2018-09-16T07:06:30Z</time>
      </trkpt>
      <trkpt lat="43.69268" lon="3.88709">
        <ele>93.8</ele>
        <time>2018-09-16T07:06:31Z</time>
      </trkpt>
      <trkpt lat="43.6927" lon="3.88716">
        <ele>94.2</ele>
        <time>2018-09-16T07:06:32Z</time>
      </trkpt>
      <trkpt lat="43.69269" lon="3.88728">
        <ele>94.5</ele>
        <time>2018-09-16T07:06:34Z</time>
      </trkpt>
      <trkpt lat="43.69271" lon="3.88734">
        <ele>94.8</ele>
        <time>2018-09-16T07:06:35Z</time>
      </trkpt>
      <trkpt lat="43.69273" lon="3.88746">
        <ele>95.4</ele>
        <time>2018-09-16T07:06:37Z</time>
      </trkpt>
      <trkpt lat="43.69274" lon="3.8875">
        <ele>95.6</ele>
        <time>2018-09-16T07:06:38Z</time>
      </trkpt>
      <trkpt lat="43.69276" lon="3.8876">
        <ele>95.8</ele>
        <time>2018-09-16T07:06:41Z</time>
      </trkpt>
      <trkpt lat="43.69276" lon="3.88769">
        <ele>95.9</ele>
        <time>2018-09-16T07:06:42Z</time>
      </trkpt>
      <trkpt lat="43.69276" lon="3.88776">
        <ele>95.9</ele>
        <time>2018-09-16T07:06:43Z</time>
      </trkpt>
      <trkpt lat="43.69277" lon="3.88782">
        <ele>96.1</ele>
        <time>2018-09-16T07:06:44Z</time>
      </trkpt>
      <trkpt lat="43.69279" lon="3.88792">
        <ele>96.7</ele>
        <time>2018-09-16T07:06:47Z</time>
      </trkpt>
      <trkpt lat="43.69281" lon="3.88804">
        <ele>97.4</ele>
        <time>2018-09-16T07:06:48Z</time>
      </trkpt>
      <trkpt lat="43.69282" lon="3.88814">
        <ele>97.9</ele>
        <time>2018-09-16T07:06:51Z</time>
      </trkpt>
      <trkpt lat="43.69283" lon="3.88817">
        <ele>98.1</ele>
        <time>2018-09-16T07:06:52Z</time>
      </trkpt>
      <trkpt lat="43.69287" lon="3.88828">
        <ele>98.9</ele>
        <time>2018-09-16T07:06:55Z</time>
      </trkpt>
      <trkpt lat="43.69288" lon="3.88831">
        <ele>99.1</ele>
        <time>2018-09-16T07:06:56Z</time>
      </trkpt>
      <trkpt lat="43.69291" lon="3.88839">
        <ele>99.3</ele>
        <time>2018-09-16T07:06:58Z</time>
      </trkpt>
      <trkpt lat="43.69293" lon="3.88842">
        <ele>99.5</ele>
        <time>2018-09-16T07:06:59Z</time>
      </trkpt>
      <trkpt lat="43.69296" lon="3.8885">
        <ele>99.6</ele>
        <time>2018-09-16T07:07:01Z</time>
      </trkpt>
      <trkpt lat="43.69297" lon="3.88853">
        <ele>99.6</ele>
        <time>2018-09-16T07:07:02Z</time>
      </trkpt>
      <trkpt lat="43.69301" lon="3.88861">
        <ele>99.7</ele>
        <time>2018-09-16T07:07:04Z</time>
      </trkpt>
      <trkpt lat="43.69302" lon="3.88864">
        <ele>99.7</ele>
        <time>2018-09-16T07:07:05Z</time>
      </trkpt>
      <trkpt lat="43.69306" lon="3.88871">
        <ele>100.1</ele>
        <time>2018-09-16T07:07:07Z</time>
      </trkpt>
      <trkpt lat="43.69308" lon="3.88875">
        <ele>100.5</ele>
        <time>2018-09-16T07:07:08Z</time>
      </trkpt>
      <trkpt lat="43.69311" lon="3.88882">
        <ele>100.8</ele>
        <time>2018-09-16T07:07:10Z</time>
      </trkpt>
      <trkpt lat="43.69313" lon="3.88886">
        <ele>100.9</ele>
        <time>2018-09-16T07:07:11Z</time>
      </trkpt>
      <trkpt lat="43.69317" lon="3.88893">
        <ele>101</ele>
        <time>2018-09-16T07:07:13Z</time>
      </trkpt>
      <trkpt lat="43.69319" lon="3.88896">
        <ele>101.1</ele>
        <time>2018-09-16T07:07:14Z</time>
      </trkpt>
      <trkpt lat="43.69326" lon="3.88904">
        <ele>101.3</ele>
        <time>2018-09-16T07:07:17Z</time>
      </trkpt>
      <trkpt lat="43.69328" lon="3.88906">
        <ele>101.3</ele>
        <time>2018-09-16T07:07:18Z</time>
      </trkpt>
      <trkpt lat="43.69336" lon="3.88911">
        <ele>101.6</ele>
        <time>2018-09-16T07:07:21Z</time>
      </trkpt>
      <trkpt lat="43.69338" lon="3.88912">
        <ele>101.7</ele>
        <time>2018-09-16T07:07:22Z</time>
      </trkpt>
      <trkpt lat="43.69345" lon="3.88916">
        <ele>101.9</ele>
        <time>2018-09-16T07:07:25Z</time>
      </trkpt>
      <trkpt lat="43.69348" lon="3.88916">
        <ele>102.1</ele>
        <time>2018-09-16T07:07:26Z</time>
      </trkpt>
      <trkpt lat="43.69355" lon="3.88919">
        <ele>102.5</ele>
        <time>2018-09-16T07:07:29Z</time>
      </trkpt>
      <trkpt lat="43.69358" lon="3.8892">
        <ele>102.7</ele>
        <time>2018-09-16T07:07:30Z</time>
      </trkpt>
      <trkpt lat="43.69367" lon="3.88924">
        <ele>103.6</ele>
        <time>2018-09-16T07:07:33Z</time>
      </trkpt>
      <trkpt lat="43.69369" lon="3.88926">
        <ele>103.8</ele>
        <time>2018-09-16T07:07:34Z</time>
      </trkpt>
      <trkpt lat="43.69377" lon="3.8893">
        <ele>104.6</ele>
        <time>2018-09-16T07:07:37Z</time>
      </trkpt>
      <trkpt lat="43.69379" lon="3.88932">
        <ele>104.6</ele>
        <time>2018-09-16T07:07:38Z</time>
      </trkpt>
      <trkpt lat="43.69386" lon="3.88938">
        <ele>104.6</ele>
        <time>2018-09-16T07:07:41Z</time>
      </trkpt>
      <trkpt lat="43.69388" lon="3.8894">
        <ele>104.6</ele>
        <time>2018-09-16T07:07:42Z</time>
      </trkpt>
      <trkpt lat="43.69393" lon="3.88944">
        <ele>104.8</ele>
        <time>2018-09-16T07:07:44Z</time>
      </trkpt>
      <trkpt lat="43.69396" lon="3.88947">
        <ele>105.3</ele>
        <time>2018-09-16T07:07:46Z</time>
      </trkpt>
      <trkpt lat="43.69401" lon="3.88951">
        <ele>106.1</ele>
        <time>2018-09-16T07:07:48Z</time>
      </trkpt>
      <trkpt lat="43.69404" lon="3.88954">
        <ele>106.5</ele>
        <time>2018-09-16T07:07:49Z</time>
      </trkpt>
      <trkpt lat="43.69411" lon="3.8896">
        <ele>107.2</ele>
        <time>2018-09-16T07:07:52Z</time>
      </trkpt>
      <trkpt lat="43.69413" lon="3.88961">
        <ele>107.4</ele>
        <time>2018-09-16T07:07:53Z</time>
      </trkpt>
      <trkpt lat="43.69419" lon="3.88968">
        <ele>107.8</ele>
        <time>2018-09-16T07:07:56Z</time>
      </trkpt>
      <trkpt lat="43.69422" lon="3.8897">
        <ele>108.3</ele>
        <time>2018-09-16T07:07:57Z</time>
      </trkpt>
      <trkpt lat="43.69428" lon="3.88977">
        <ele>109.3</ele>
        <time>2018-09-16T07:08:00Z</time>
      </trkpt>
      <trkpt lat="43.69431" lon="3.8898">
        <ele>109.8</ele>
        <time>2018-09-16T07:08:01Z</time>
      </trkpt>
      <trkpt lat="43.69437" lon="3.88984">
        <ele>110.6</ele>
        <time>2018-09-16T07:08:03Z</time>
      </trkpt>
      <trkpt lat="43.6944" lon="3.88986">
        <ele>110.9</ele>
        <time>2018-09-16T07:08:04Z</time>
      </trkpt>
      <trkpt lat="43.69447" lon="3.88993">
        <ele>111.3</ele>
        <time>2018-09-16T07:08:08Z</time>
      </trkpt>
      <trkpt lat="43.69448" lon="3.88995">
        <ele>111.3</ele>
        <time>2018-09-16T07:08:09Z</time>
      </trkpt>
      <trkpt lat="43.69453" lon="3.89004">
        <ele>111.7</ele>
        <time>2018-09-16T07:08:13Z</time>
      </trkpt>
      <trkpt lat="43.69454" lon="3.89008">
        <ele>111.8</ele>
        <time>2018-09-16T07:08:14Z</time>
      </trkpt>
      <trkpt lat="43.69459" lon="3.89017">
        <ele>112.2</ele>
        <time>2018-09-16T07:08:17Z</time>
      </trkpt>
      <trkpt lat="43.6946" lon="3.8902">
        <ele>112.2</ele>
        <time>2018-09-16T07:08:18Z</time>
      </trkpt>
      <trkpt lat="43.69462" lon="3.89031">
        <ele>111.9</ele>
        <time>2018-09-16T07:08:22Z</time>
      </trkpt>
      <trkpt lat="43.69462" lon="3.89035">
        <ele>111.9</ele>
        <time>2018-09-16T07:08:23Z</time>
      </trkpt>
      <trkpt lat="43.6946" lon="3.89044">
        <ele>111.9</ele>
        <time>2018-09-16T07:08:25Z</time>
      </trkpt>
      <trkpt lat="43.69459" lon="3.89049">
        <ele>111.9</ele>
        <time>2018-09-16T07:08:26Z</time>
      </trkpt>
      <trkpt lat="43.69458" lon="3.89057">
        <ele>112.2</ele>
        <time>2018-09-16T07:08:28Z</time>
      </trkpt>
      <trkpt lat="43.69458" lon="3.89061">
        <ele>112.6</ele>
        <time>2018-09-16T07:08:29Z</time>
      </trkpt>
      <trkpt lat="43.69456" lon="3.89073">
        <ele>114</ele>
        <time>2018-09-16T07:08:32Z</time>
      </trkpt>
      <trkpt lat="43.69456" lon="3.89076">
        <ele>114.3</ele>
        <time>2018-09-16T07:08:33Z</time>
      </trkpt>
      <trkpt lat="43.69458" lon="3.89086">
        <ele>115.3</ele>
        <time>2018-09-16T07:08:36Z</time>
      </trkpt>
      <trkpt lat="43.6946" lon="3.89089">
        <ele>115.4</ele>
        <time>2018-09-16T07:08:37Z</time>
      </trkpt>
      <trkpt lat="43.69463" lon="3.89097">
        <ele>115.6</ele>
        <time>2018-09-16T07:08:40Z</time>
      </trkpt>
      <trkpt lat="43.69464" lon="3.891">
        <ele>115.7</ele>
        <time>2018-09-16T07:08:41Z</time>
      </trkpt>
      <trkpt lat="43.69467" lon="3.89108">
        <ele>115.8</ele>
        <time>2018-09-16T07:08:44Z</time>
      </trkpt>
      <trkpt lat="43.69468" lon="3.89111">
        <ele>115.8</ele>
        <time>2018-09-16T07:08:45Z</time>
      </trkpt>
      <trkpt lat="43.69471" lon="3.8912">
        <ele>116.2</ele>
        <time>2018-09-16T07:08:48Z</time>
      </trkpt>
      <trkpt lat="43.69471" lon="3.89123">
        <ele>116.5</ele>
        <time>2018-09-16T07:08:49Z</time>
      </trkpt>
      <trkpt lat="43.69473" lon="3.89132">
        <ele>117.2</ele>
        <time>2018-09-16T07:08:52Z</time>
      </trkpt>
      <trkpt lat="43.69475" lon="3.89136">
        <ele>117.5</ele>
        <time>2018-09-16T07:08:53Z</time>
      </trkpt>
      <trkpt lat="43.69478" lon="3.89146">
        <ele>117.9</ele>
        <time>2018-09-16T07:08:56Z</time>
      </trkpt>
      <trkpt lat="43.69479" lon="3.8915">
        <ele>118</ele>
        <time>2018-09-16T07:08:57Z</time>
      </trkpt>
      <trkpt lat="43.69483" lon="3.89159">
        <ele>118.2</ele>
        <time>2018-09-16T07:09:00Z</time>
      </trkpt>
      <trkpt lat="43.69485" lon="3.89162">
        <ele>118.3</ele>
        <time>2018-09-16T07:09:01Z</time>
      </trkpt>
      <trkpt lat="43.69489" lon="3.89171">
        <ele>118.4</ele>
        <time>2018-09-16T07:09:04Z</time>
      </trkpt>
      <trkpt lat="43.6949" lon="3.89174">
        <ele>118.4</ele>
        <time>2018-09-16T07:09:05Z</time>
      </trkpt>
      <trkpt lat="43.69495" lon="3.89182">
        <ele>118.5</ele>
        <time>2018-09-16T07:09:08Z</time>
      </trkpt>
      <trkpt lat="43.69497" lon="3.89184">
        <ele>118.6</ele>
        <time>2018-09-16T07:09:09Z</time>
      </trkpt>
      <trkpt lat="43.69504" lon="3.8919">
        <ele>118.8</ele>
        <time>2018-09-16T07:09:12Z</time>
      </trkpt>
      <trkpt lat="43.69506" lon="3.89192">
        <ele>118.9</ele>
        <time>2018-09-16T07:09:13Z</time>
      </trkpt>
      <trkpt lat="43.69513" lon="3.89196">
        <ele>119</ele>
        <time>2018-09-16T07:09:16Z</time>
      </trkpt>
      <trkpt lat="43.69515" lon="3.89198">
        <ele>118.9</ele>
        <time>2018-09-16T07:09:17Z</time>
      </trkpt>
      <trkpt lat="43.69521" lon="3.89206">
        <ele>118.9</ele>
        <time>2018-09-16T07:09:21Z</time>
      </trkpt>
      <trkpt lat="43.69522" lon="3.89209">
        <ele>118.9</ele>
        <time>2018-09-16T07:09:22Z</time>
      </trkpt>
      <trkpt lat="43.6952" lon="3.89221">
        <ele>118.7</ele>
        <time>2018-09-16T07:09:23Z</time>
      </trkpt>
      <trkpt lat="43.69517" lon="3.89233">
        <ele>117.8</ele>
        <time>2018-09-16T07:09:25Z</time>
      </trkpt>
      <trkpt lat="43.69515" lon="3.89239">
        <ele>117.3</ele>
        <time>2018-09-16T07:09:26Z</time>
      </trkpt>
      <trkpt lat="43.69514" lon="3.89245">
        <ele>116.9</ele>
        <time>2018-09-16T07:09:27Z</time>
      </trkpt>
      <trkpt lat="43.69511" lon="3.89252">
        <ele>116.2</ele>
        <time>2018-09-16T07:09:28Z</time>
      </trkpt>
      <trkpt lat="43.69508" lon="3.89256">
        <ele>115.7</ele>
        <time>2018-09-16T07:09:29Z</time>
      </trkpt>
      <trkpt lat="43.69505" lon="3.89262">
        <ele>115</ele>
        <time>2018-09-16T07:09:30Z</time>
      </trkpt>
      <trkpt lat="43.69502" lon="3.8927">
        <ele>114</ele>
        <time>2018-09-16T07:09:35Z</time>
      </trkpt>
      <trkpt lat="43.69498" lon="3.89273">
        <ele>113.4</ele>
        <time>2018-09-16T07:09:36Z</time>
      </trkpt>
      <trkpt lat="43.69502" lon="3.89284">
        <ele>112.7</ele>
        <time>2018-09-16T07:09:43Z</time>
      </trkpt>
      <trkpt lat="43.69502" lon="3.89287">
        <ele>112.5</ele>
        <time>2018-09-16T07:09:44Z</time>
      </trkpt>
      <trkpt lat="43.69506" lon="3.89297">
        <ele>112</ele>
        <time>2018-09-16T07:09:47Z</time>
      </trkpt>
      <trkpt lat="43.69508" lon="3.89299">
        <ele>112</ele>
        <time>2018-09-16T07:09:48Z</time>
      </trkpt>
      <trkpt lat="43.69512" lon="3.8931">
        <ele>112.1</ele>
        <time>2018-09-16T07:09:52Z</time>
      </trkpt>
      <trkpt lat="43.69514" lon="3.89312">
        <ele>112.4</ele>
        <time>2018-09-16T07:09:53Z</time>
      </trkpt>
      <trkpt lat="43.69517" lon="3.8932">
        <ele>112.9</ele>
        <time>2018-09-16T07:09:56Z</time>
      </trkpt>
      <trkpt lat="43.69518" lon="3.89323">
        <ele>113.1</ele>
        <time>2018-09-16T07:09:57Z</time>
      </trkpt>
      <trkpt lat="43.69521" lon="3.89333">
        <ele>113.7</ele>
        <time>2018-09-16T07:10:01Z</time>
      </trkpt>
      <trkpt lat="43.69521" lon="3.89335">
        <ele>113.8</ele>
        <time>2018-09-16T07:10:02Z</time>
      </trkpt>
      <trkpt lat="43.69525" lon="3.89344">
        <ele>114.3</ele>
        <time>2018-09-16T07:10:07Z</time>
      </trkpt>
      <trkpt lat="43.69527" lon="3.89346">
        <ele>114.4</ele>
        <time>2018-09-16T07:10:08Z</time>
      </trkpt>
      <trkpt lat="43.69529" lon="3.89357">
        <ele>114.9</ele>
        <time>2018-09-16T07:10:14Z</time>
      </trkpt>
      <trkpt lat="43.69529" lon="3.89359">
        <ele>114.9</ele>
        <time>2018-09-16T07:10:15Z</time>
      </trkpt>
      <trkpt lat="43.6953" lon="3.89369">
        <ele>115.5</ele>
        <time>2018-09-16T07:10:20Z</time>
      </trkpt>
      <trkpt lat="43.69531" lon="3.89372">
        <ele>115.7</ele>
        <time>2018-09-16T07:10:21Z</time>
      </trkpt>
      <trkpt lat="43.69535" lon="3.89381">
        <ele>116.2</ele>
        <time>2018-09-16T07:10:24Z</time>
      </trkpt>
      <trkpt lat="43.69537" lon="3.89385">
        <ele>116.4</ele>
        <time>2018-09-16T07:10:25Z</time>
      </trkpt>
      <trkpt lat="43.6954" lon="3.89392">
        <ele>116.5</ele>
        <time>2018-09-16T07:10:27Z</time>
      </trkpt>
      <trkpt lat="43.69542" lon="3.89395">
        <ele>116.4</ele>
        <time>2018-09-16T07:10:28Z</time>
      </trkpt>
      <trkpt lat="43.69547" lon="3.89402">
        <ele>115.8</ele>
        <time>2018-09-16T07:10:30Z</time>
      </trkpt>
      <trkpt lat="43.69555" lon="3.89411">
        <ele>114.5</ele>
        <time>2018-09-16T07:10:31Z</time>
      </trkpt>
      <trkpt lat="43.69559" lon="3.89417">
        <ele>113.8</ele>
        <time>2018-09-16T07:10:32Z</time>
      </trkpt>
      <trkpt lat="43.69561" lon="3.89424">
        <ele>114</ele>
        <time>2018-09-16T07:10:33Z</time>
      </trkpt>
      <trkpt lat="43.69563" lon="3.8943">
        <ele>114</ele>
        <time>2018-09-16T07:10:34Z</time>
      </trkpt>
      <trkpt lat="43.69569" lon="3.89437">
        <ele>113.4</ele>
        <time>2018-09-16T07:10:35Z</time>
      </trkpt>
      <trkpt lat="43.69577" lon="3.89446">
        <ele>112.2</ele>
        <time>2018-09-16T07:10:36Z</time>
      </trkpt>
      <trkpt lat="43.69578" lon="3.8945">
        <ele>112.2</ele>
        <time>2018-09-16T07:10:37Z</time>
      </trkpt>
      <trkpt lat="43.69583" lon="3.89458">
        <ele>111.5</ele>
        <time>2018-09-16T07:10:38Z</time>
      </trkpt>
      <trkpt lat="43.6959" lon="3.89465">
        <ele>110.9</ele>
        <time>2018-09-16T07:10:39Z</time>
      </trkpt>
      <trkpt lat="43.69591" lon="3.89469">
        <ele>110.8</ele>
        <time>2018-09-16T07:10:40Z</time>
      </trkpt>
      <trkpt lat="43.69593" lon="3.89477">
        <ele>110.9</ele>
        <time>2018-09-16T07:10:41Z</time>
      </trkpt>
      <trkpt lat="43.69598" lon="3.89484">
        <ele>110.5</ele>
        <time>2018-09-16T07:10:42Z</time>
      </trkpt>
      <trkpt lat="43.69603" lon="3.89492">
        <ele>110.1</ele>
        <time>2018-09-16T07:10:43Z</time>
      </trkpt>
      <trkpt lat="43.69609" lon="3.89498">
        <ele>109.3</ele>
        <time>2018-09-16T07:10:44Z</time>
      </trkpt>
      <trkpt lat="43.69611" lon="3.89507">
        <ele>109.3</ele>
        <time>2018-09-16T07:10:45Z</time>
      </trkpt>
      <trkpt lat="43.69615" lon="3.89515">
        <ele>109</ele>
        <time>2018-09-16T07:10:46Z</time>
      </trkpt>
      <trkpt lat="43.6962" lon="3.89522">
        <ele>108.3</ele>
        <time>2018-09-16T07:10:47Z</time>
      </trkpt>
      <trkpt lat="43.69623" lon="3.89531">
        <ele>107.8</ele>
        <time>2018-09-16T07:10:48Z</time>
      </trkpt>
      <trkpt lat="43.69624" lon="3.89541">
        <ele>107.5</ele>
        <time>2018-09-16T07:10:49Z</time>
      </trkpt>
      <trkpt lat="43.69626" lon="3.89548">
        <ele>106.9</ele>
        <time>2018-09-16T07:10:50Z</time>
      </trkpt>
      <trkpt lat="43.69626" lon="3.89555">
        <ele>106.8</ele>
        <time>2018-09-16T07:10:51Z</time>
      </trkpt>
      <trkpt lat="43.69631" lon="3.89558">
        <ele>105.6</ele>
        <time>2018-09-16T07:10:52Z</time>
      </trkpt>
      <trkpt lat="43.69634" lon="3.89568">
        <ele>104.8</ele>
        <time>2018-09-16T07:10:53Z</time>
      </trkpt>
      <trkpt lat="43.69637" lon="3.89577">
        <ele>103.7</ele>
        <time>2018-09-16T07:10:54Z</time>
      </trkpt>
      <trkpt lat="43.6963" lon="3.89586">
        <ele>105.5</ele>
        <time>2018-09-16T07:10:56Z</time>
      </trkpt>
      <trkpt lat="43.69628" lon="3.89591">
        <ele>106.4</ele>
        <time>2018-09-16T07:10:57Z</time>
      </trkpt>
      <trkpt lat="43.69621" lon="3.896">
        <ele>108.8</ele>
        <time>2018-09-16T07:11:11Z</time>
      </trkpt>
      <trkpt lat="43.69619" lon="3.89606">
        <ele>109.7</ele>
      </trkpt>
      <trkpt lat="43.69612" lon="3.8961">
        <ele>111.8</ele>
        <time>2018-09-16T07:11:17Z</time>
      </trkpt>
      <trkpt lat="43.69607" lon="3.89619">
        <ele>112.3</ele>
        <time>2018-09-16T07:11:24Z</time>
      </trkpt>
      <trkpt lat="43.69605" lon="3.89618">
        <ele>112.6</ele>
        <time>2018-09-16T07:11:25Z</time>
      </trkpt>
      <trkpt lat="43.69598" lon="3.89623">
        <ele>113.3</ele>
        <time>2018-09-16T07:11:32Z</time>
      </trkpt>
      <trkpt lat="43.69596" lon="3.89623">
        <ele>113.5</ele>
        <time>2018-09-16T07:11:33Z</time>
      </trkpt>
      <trkpt lat="43.69587" lon="3.89622">
        <ele>114.7</ele>
        <time>2018-09-16T07:11:39Z</time>
      </trkpt>
      <trkpt lat="43.69586" lon="3.89621">
        <ele>114.9</ele>
        <time>2018-09-16T07:11:40Z</time>
      </trkpt>
      <trkpt lat="43.6958" lon="3.89623">
        <ele>115.1</ele>
        <time>2018-09-16T07:11:46Z</time>
      </trkpt>
      <trkpt lat="43.69576" lon="3.89627">
        <ele>114.9</ele>
      </trkpt>
      <trkpt lat="43.6957" lon="3.89628">
        <ele>114.8</ele>
        <time>2018-09-16T07:11:57Z</time>
      </trkpt>
      <trkpt lat="43.69566" lon="3.89631">
        <ele>114.6</ele>
      </trkpt>
      <trkpt lat="43.69558" lon="3.89638">
        <ele>114.1</ele>
        <time>2018-09-16T07:12:02Z</time>
      </trkpt>
      <trkpt lat="43.69549" lon="3.89641">
        <ele>112.7</ele>
        <time>2018-09-16T07:12:08Z</time>
      </trkpt>
      <trkpt lat="43.69541" lon="3.89648">
        <ele>110.3</ele>
        <time>2018-09-16T07:12:27Z</time>
      </trkpt>
      <trkpt lat="43.69532" lon="3.89653">
        <ele>107.9</ele>
      </trkpt>
      <trkpt lat="43.69526" lon="3.89653">
        <ele>106.6</ele>
        <time>2018-09-16T07:12:32Z</time>
      </trkpt>
      <trkpt lat="43.69523" lon="3.89652">
        <ele>106.2</ele>
        <time>2018-09-16T07:12:33Z</time>
      </trkpt>
      <trkpt lat="43.69518" lon="3.89656">
        <ele>104.7</ele>
        <time>2018-09-16T07:12:35Z</time>
      </trkpt>
      <trkpt lat="43.69515" lon="3.89659">
        <ele>103.9</ele>
        <time>2018-09-16T07:12:36Z</time>
      </trkpt>
      <trkpt lat="43.69504" lon="3.89671">
        <ele>101.4</ele>
        <time>2018-09-16T07:12:37Z</time>
      </trkpt>
      <trkpt lat="43.69501" lon="3.89679">
        <ele>100.7</ele>
        <time>2018-09-16T07:12:38Z</time>
      </trkpt>
      <trkpt lat="43.695" lon="3.89686">
        <ele>100.3</ele>
        <time>2018-09-16T07:12:39Z</time>
      </trkpt>
      <trkpt lat="43.69504" lon="3.89694">
        <ele>100.2</ele>
        <time>2018-09-16T07:12:43Z</time>
      </trkpt>
      <trkpt lat="43.69505" lon="3.89698">
        <ele>100.1</ele>
        <time>2018-09-16T07:12:44Z</time>
      </trkpt>
      <trkpt lat="43.695" lon="3.89706">
        <ele>100</ele>
        <time>2018-09-16T07:12:48Z</time>
      </trkpt>
      <trkpt lat="43.69497" lon="3.89708">
        <ele>100.3</ele>
        <time>2018-09-16T07:12:49Z</time>
      </trkpt>
      <trkpt lat="43.69494" lon="3.89708">
        <ele>100.5</ele>
      </trkpt>
      <trkpt lat="43.69491" lon="3.89719">
        <ele>101</ele>
        <time>2018-09-16T07:12:53Z</time>
      </trkpt>
      <trkpt lat="43.69492" lon="3.89724">
        <ele>100.8</ele>
        <time>2018-09-16T07:12:54Z</time>
      </trkpt>
      <trkpt lat="43.69493" lon="3.89729">
        <ele>100.6</ele>
        <time>2018-09-16T07:12:56Z</time>
      </trkpt>
      <trkpt lat="43.69495" lon="3.89734">
        <ele>100.2</ele>
      </trkpt>
      <trkpt lat="43.69495" lon="3.89742">
        <ele>100</ele>
        <time>2018-09-16T07:12:57Z</time>
      </trkpt>
      <trkpt lat="43.69497" lon="3.89754">
        <ele>99.3</ele>
        <time>2018-09-16T07:12:59Z</time>
      </trkpt>
      <trkpt lat="43.69495" lon="3.89761">
        <ele>99.3</ele>
      </trkpt>
      <trkpt lat="43.69498" lon="3.89761">
        <ele>98.9</ele>
        <time>2018-09-16T07:13:00Z</time>
      </trkpt>
      <trkpt lat="43.69496" lon="3.89773">
        <ele>98.9</ele>
        <time>2018-09-16T07:13:01Z</time>
      </trkpt>
      <trkpt lat="43.69497" lon="3.89777">
        <ele>98.6</ele>
        <time>2018-09-16T07:13:02Z</time>
      </trkpt>
      <trkpt lat="43.69499" lon="3.89785">
        <ele>98.2</ele>
        <time>2018-09-16T07:13:03Z</time>
      </trkpt>
      <trkpt lat="43.69506" lon="3.898">
        <ele>97.3</ele>
        <time>2018-09-16T07:13:05Z</time>
      </trkpt>
      <trkpt lat="43.69509" lon="3.89811">
        <ele>97.1</ele>
        <time>2018-09-16T07:13:07Z</time>
      </trkpt>
      <trkpt lat="43.69511" lon="3.89816">
        <ele>97</ele>
        <time>2018-09-16T07:13:08Z</time>
      </trkpt>
      <trkpt lat="43.69515" lon="3.89825">
        <ele>96.8</ele>
        <time>2018-09-16T07:13:10Z</time>
      </trkpt>
      <trkpt lat="43.69518" lon="3.8983">
        <ele>96.4</ele>
        <time>2018-09-16T07:13:11Z</time>
      </trkpt>
      <trkpt lat="43.69519" lon="3.89834">
        <ele>96.3</ele>
        <time>2018-09-16T07:13:12Z</time>
      </trkpt>
      <trkpt lat="43.69521" lon="3.89839">
        <ele>96</ele>
        <time>2018-09-16T07:13:13Z</time>
      </trkpt>
      <trkpt lat="43.69525" lon="3.89849">
        <ele>95.8</ele>
        <time>2018-09-16T07:13:15Z</time>
      </trkpt>
      <trkpt lat="43.69528" lon="3.89855">
        <ele>95.8</ele>
        <time>2018-09-16T07:13:16Z</time>
      </trkpt>
      <trkpt lat="43.69533" lon="3.8986">
        <ele>95.2</ele>
        <time>2018-09-16T07:13:17Z</time>
      </trkpt>
      <trkpt lat="43.69537" lon="3.89866">
        <ele>94.3</ele>
        <time>2018-09-16T07:13:18Z</time>
      </trkpt>
      <trkpt lat="43.69542" lon="3.89871">
        <ele>93.4</ele>
        <time>2018-09-16T07:13:19Z</time>
      </trkpt>
      <trkpt lat="43.69546" lon="3.89873">
        <ele>92.9</ele>
        <time>2018-09-16T07:13:20Z</time>
      </trkpt>
      <trkpt lat="43.6955" lon="3.89878">
        <ele>92.4</ele>
        <time>2018-09-16T07:13:21Z</time>
      </trkpt>
      <trkpt lat="43.69554" lon="3.89885">
        <ele>92.1</ele>
        <time>2018-09-16T07:13:22Z</time>
      </trkpt>
      <trkpt lat="43.6956" lon="3.89894">
        <ele>91.4</ele>
        <time>2018-09-16T07:13:23Z</time>
      </trkpt>
      <trkpt lat="43.6956" lon="3.89902">
        <ele>90.9</ele>
        <time>2018-09-16T07:13:24Z</time>
      </trkpt>
      <trkpt lat="43.69559" lon="3.89915">
        <ele>90.1</ele>
        <time>2018-09-16T07:13:28Z</time>
      </trkpt>
      <trkpt lat="43.6956" lon="3.89918">
        <ele>90</ele>
        <time>2018-09-16T07:13:29Z</time>
      </trkpt>
      <trkpt lat="43.69558" lon="3.8993">
        <ele>89.6</ele>
        <time>2018-09-16T07:13:33Z</time>
      </trkpt>
      <trkpt lat="43.69565" lon="3.8993">
        <ele>89.7</ele>
        <time>2018-09-16T07:13:34Z</time>
      </trkpt>
      <trkpt lat="43.69573" lon="3.89932">
        <ele>89.8</ele>
        <time>2018-09-16T07:13:38Z</time>
      </trkpt>
      <trkpt lat="43.69576" lon="3.89933">
        <ele>89.8</ele>
        <time>2018-09-16T07:13:39Z</time>
      </trkpt>
      <trkpt lat="43.6959" lon="3.89932">
        <ele>90.2</ele>
        <time>2018-09-16T07:13:40Z</time>
      </trkpt>
      <trkpt lat="43.69587" lon="3.89939">
        <ele>90.1</ele>
        <time>2018-09-16T07:13:41Z</time>
      </trkpt>
      <trkpt lat="43.69589" lon="3.8995">
        <ele>90.6</ele>
        <time>2018-09-16T07:13:44Z</time>
      </trkpt>
      <trkpt lat="43.69589" lon="3.89952">
        <ele>90.7</ele>
        <time>2018-09-16T07:13:45Z</time>
      </trkpt>
      <trkpt lat="43.69589" lon="3.89964">
        <ele>91.5</ele>
        <time>2018-09-16T07:13:50Z</time>
      </trkpt>
      <trkpt lat="43.69589" lon="3.89967">
        <ele>91.7</ele>
        <time>2018-09-16T07:13:51Z</time>
      </trkpt>
      <trkpt lat="43.6959" lon="3.89977">
        <ele>92.4</ele>
        <time>2018-09-16T07:13:55Z</time>
      </trkpt>
      <trkpt lat="43.6959" lon="3.8998">
        <ele>92.7</ele>
        <time>2018-09-16T07:13:56Z</time>
      </trkpt>
      <trkpt lat="43.69593" lon="3.89988">
        <ele>93.3</ele>
        <time>2018-09-16T07:13:59Z</time>
      </trkpt>
      <trkpt lat="43.69594" lon="3.89994">
        <ele>93.7</ele>
        <time>2018-09-16T07:14:00Z</time>
      </trkpt>
      <trkpt lat="43.69595" lon="3.90004">
        <ele>94.3</ele>
        <time>2018-09-16T07:14:03Z</time>
      </trkpt>
      <trkpt lat="43.69595" lon="3.90009">
        <ele>94.6</ele>
        <time>2018-09-16T07:14:04Z</time>
      </trkpt>
      <trkpt lat="43.69594" lon="3.90018">
        <ele>95</ele>
        <time>2018-09-16T07:14:07Z</time>
      </trkpt>
      <trkpt lat="43.69595" lon="3.90022">
        <ele>95.1</ele>
        <time>2018-09-16T07:14:08Z</time>
      </trkpt>
      <trkpt lat="43.69597" lon="3.90032">
        <ele>95.3</ele>
        <time>2018-09-16T07:14:11Z</time>
      </trkpt>
      <trkpt lat="43.69598" lon="3.90036">
        <ele>95.3</ele>
        <time>2018-09-16T07:14:12Z</time>
      </trkpt>
      <trkpt lat="43.69601" lon="3.90046">
        <ele>95.5</ele>
        <time>2018-09-16T07:14:15Z</time>
      </trkpt>
      <trkpt lat="43.69602" lon="3.90049">
        <ele>95.6</ele>
        <time>2018-09-16T07:14:16Z</time>
      </trkpt>
      <trkpt lat="43.69605" lon="3.90058">
        <ele>95.8</ele>
        <time>2018-09-16T07:14:19Z</time>
      </trkpt>
      <trkpt lat="43.69605" lon="3.90061">
        <ele>95.9</ele>
        <time>2018-09-16T07:14:20Z</time>
      </trkpt>
      <trkpt lat="43.69607" lon="3.90071">
        <ele>96.1</ele>
        <time>2018-09-16T07:14:23Z</time>
      </trkpt>
      <trkpt lat="43.69608" lon="3.90074">
        <ele>96.1</ele>
        <time>2018-09-16T07:14:24Z</time>
      </trkpt>
      <trkpt lat="43.69609" lon="3.90083">
        <ele>96.3</ele>
        <time>2018-09-16T07:14:27Z</time>
      </trkpt>
      <trkpt lat="43.6961" lon="3.90087">
        <ele>96.4</ele>
        <time>2018-09-16T07:14:28Z</time>
      </trkpt>
      <trkpt lat="43.69612" lon="3.90097">
        <ele>97</ele>
        <time>2018-09-16T07:14:31Z</time>
      </trkpt>
      <trkpt lat="43.69613" lon="3.901">
        <ele>97.2</ele>
        <time>2018-09-16T07:14:32Z</time>
      </trkpt>
      <trkpt lat="43.69614" lon="3.90109">
        <ele>97.9</ele>
        <time>2018-09-16T07:14:35Z</time>
      </trkpt>
      <trkpt lat="43.69614" lon="3.90112">
        <ele>98.2</ele>
        <time>2018-09-16T07:14:36Z</time>
      </trkpt>
      <trkpt lat="43.69615" lon="3.90124">
        <ele>99</ele>
        <time>2018-09-16T07:14:40Z</time>
      </trkpt>
      <trkpt lat="43.69616" lon="3.90127">
        <ele>99.2</ele>
        <time>2018-09-16T07:14:41Z</time>
      </trkpt>
      <trkpt lat="43.69616" lon="3.90136">
        <ele>99.8</ele>
        <time>2018-09-16T07:14:45Z</time>
      </trkpt>
      <trkpt lat="43.69617" lon="3.9014">
        <ele>100.1</ele>
        <time>2018-09-16T07:14:46Z</time>
      </trkpt>
      <trkpt lat="43.69618" lon="3.90151">
        <ele>101.1</ele>
        <time>2018-09-16T07:14:50Z</time>
      </trkpt>
      <trkpt lat="43.69618" lon="3.90154">
        <ele>101.4</ele>
        <time>2018-09-16T07:14:51Z</time>
      </trkpt>
      <trkpt lat="43.6962" lon="3.90164">
        <ele>102.1</ele>
        <time>2018-09-16T07:14:55Z</time>
      </trkpt>
      <trkpt lat="43.6962" lon="3.90166">
        <ele>102.3</ele>
        <time>2018-09-16T07:14:56Z</time>
      </trkpt>
      <trkpt lat="43.69622" lon="3.90178">
        <ele>102.9</ele>
        <time>2018-09-16T07:15:01Z</time>
      </trkpt>
      <trkpt lat="43.69622" lon="3.9018">
        <ele>103</ele>
        <time>2018-09-16T07:15:02Z</time>
      </trkpt>
      <trkpt lat="43.69624" lon="3.90191">
        <ele>103.4</ele>
        <time>2018-09-16T07:15:06Z</time>
      </trkpt>
      <trkpt lat="43.69624" lon="3.90193">
        <ele>103.5</ele>
        <time>2018-09-16T07:15:07Z</time>
      </trkpt>
      <trkpt lat="43.69625" lon="3.90204">
        <ele>104.4</ele>
        <time>2018-09-16T07:15:11Z</time>
      </trkpt>
      <trkpt lat="43.69625" lon="3.90207">
        <ele>104.6</ele>
        <time>2018-09-16T07:15:12Z</time>
      </trkpt>
      <trkpt lat="43.69626" lon="3.90218">
        <ele>105.5</ele>
        <time>2018-09-16T07:15:16Z</time>
      </trkpt>
      <trkpt lat="43.69626" lon="3.9022">
        <ele>105.7</ele>
        <time>2018-09-16T07:15:17Z</time>
      </trkpt>
      <trkpt lat="43.69627" lon="3.90231">
        <ele>106.4</ele>
        <time>2018-09-16T07:15:22Z</time>
      </trkpt>
      <trkpt lat="43.69627" lon="3.90233">
        <ele>106.5</ele>
        <time>2018-09-16T07:15:23Z</time>
      </trkpt>
      <trkpt lat="43.69626" lon="3.90244">
        <ele>107.5</ele>
        <time>2018-09-16T07:15:29Z</time>
      </trkpt>
      <trkpt lat="43.69626" lon="3.90245">
        <ele>107.6</ele>
        <time>2018-09-16T07:15:30Z</time>
      </trkpt>
      <trkpt lat="43.69626" lon="3.90246">
        <ele>107.6</ele>
        <time>2018-09-16T07:15:31Z</time>
      </trkpt>
      <trkpt lat="43.69626" lon="3.90247">
        <ele>107.7</ele>
        <time>2018-09-16T07:15:32Z</time>
      </trkpt>
      <trkpt lat="43.69625" lon="3.90248">
        <ele>107.9</ele>
        <time>2018-09-16T07:15:33Z</time>
      </trkpt>
      <trkpt lat="43.69629" lon="3.90259">
        <ele>108.3</ele>
        <time>2018-09-16T07:15:44Z</time>
      </trkpt>
      <trkpt lat="43.69629" lon="3.90262">
        <ele>108.5</ele>
        <time>2018-09-16T07:15:45Z</time>
      </trkpt>
      <trkpt lat="43.69631" lon="3.90268">
        <ele>109.2</ele>
        <time>2018-09-16T07:15:56Z</time>
      </trkpt>
      <trkpt lat="43.69632" lon="3.90268">
        <ele>109.3</ele>
        <time>2018-09-16T07:15:57Z</time>
      </trkpt>
      <trkpt lat="43.69635" lon="3.90271">
        <ele>110.1</ele>
        <time>2018-09-16T07:16:00Z</time>
      </trkpt>
      <trkpt lat="43.69636" lon="3.90272">
        <ele>110.4</ele>
        <time>2018-09-16T07:16:01Z</time>
      </trkpt>
      <trkpt lat="43.69637" lon="3.90273">
        <ele>110.8</ele>
        <time>2018-09-16T07:16:07Z</time>
      </trkpt>
      <trkpt lat="43.69638" lon="3.90274">
        <ele>111.1</ele>
        <time>2018-09-16T07:16:08Z</time>
      </trkpt>
      <trkpt lat="43.69645" lon="3.9028">
        <ele>112.2</ele>
        <time>2018-09-16T07:16:15Z</time>
      </trkpt>
      <trkpt lat="43.69646" lon="3.90281">
        <ele>112.2</ele>
        <time>2018-09-16T07:16:16Z</time>
      </trkpt>
      <trkpt lat="43.69654" lon="3.90286">
        <ele>112.4</ele>
        <time>2018-09-16T07:16:21Z</time>
      </trkpt>
      <trkpt lat="43.69655" lon="3.90287">
        <ele>112.4</ele>
        <time>2018-09-16T07:16:22Z</time>
      </trkpt>
      <trkpt lat="43.69663" lon="3.90293">
        <ele>112.8</ele>
        <time>2018-09-16T07:16:26Z</time>
      </trkpt>
      <trkpt lat="43.69665" lon="3.90294">
        <ele>112.9</ele>
        <time>2018-09-16T07:16:27Z</time>
      </trkpt>
      <trkpt lat="43.69673" lon="3.90294">
        <ele>113.3</ele>
        <time>2018-09-16T07:16:31Z</time>
      </trkpt>
      <trkpt lat="43.69675" lon="3.90295">
        <ele>113.4</ele>
        <time>2018-09-16T07:16:32Z</time>
      </trkpt>
      <trkpt lat="43.69678" lon="3.90304">
        <ele>113.4</ele>
        <time>2018-09-16T07:16:36Z</time>
      </trkpt>
      <trkpt lat="43.69679" lon="3.90307">
        <ele>113.4</ele>
        <time>2018-09-16T07:16:37Z</time>
      </trkpt>
      <trkpt lat="43.69682" lon="3.90317">
        <ele>112.9</ele>
        <time>2018-09-16T07:16:40Z</time>
      </trkpt>
      <trkpt lat="43.69684" lon="3.9032">
        <ele>112.8</ele>
        <time>2018-09-16T07:16:41Z</time>
      </trkpt>
      <trkpt lat="43.6969" lon="3.90324">
        <ele>112.6</ele>
        <time>2018-09-16T07:16:43Z</time>
      </trkpt>
      <trkpt lat="43.69692" lon="3.90327">
        <ele>112.4</ele>
        <time>2018-09-16T07:16:44Z</time>
      </trkpt>
      <trkpt lat="43.69697" lon="3.90334">
        <ele>111.8</ele>
        <time>2018-09-16T07:16:46Z</time>
      </trkpt>
      <trkpt lat="43.69699" lon="3.90338">
        <ele>111.7</ele>
        <time>2018-09-16T07:16:47Z</time>
      </trkpt>
      <trkpt lat="43.69702" lon="3.90346">
        <ele>111.5</ele>
        <time>2018-09-16T07:16:49Z</time>
      </trkpt>
      <trkpt lat="43.69702" lon="3.90351">
        <ele>111.5</ele>
        <time>2018-09-16T07:16:50Z</time>
      </trkpt>
      <trkpt lat="43.69703" lon="3.90355">
        <ele>111.4</ele>
        <time>2018-09-16T07:16:51Z</time>
      </trkpt>
      <trkpt lat="43.69707" lon="3.90368">
        <ele>111.3</ele>
        <time>2018-09-16T07:16:52Z</time>
      </trkpt>
      <trkpt lat="43.6971" lon="3.90377">
        <ele>111.5</ele>
        <time>2018-09-16T07:16:55Z</time>
      </trkpt>
      <trkpt lat="43.69715" lon="3.90386">
        <ele>111.4</ele>
        <time>2018-09-16T07:16:56Z</time>
      </trkpt>
      <trkpt lat="43.69717" lon="3.90392">
        <ele>111.4</ele>
        <time>2018-09-16T07:16:57Z</time>
      </trkpt>
      <trkpt lat="43.69718" lon="3.90397">
        <ele>111.3</ele>
        <time>2018-09-16T07:16:58Z</time>
      </trkpt>
      <trkpt lat="43.69719" lon="3.90403">
        <ele>111.3</ele>
        <time>2018-09-16T07:16:59Z</time>
      </trkpt>
      <trkpt lat="43.69722" lon="3.90409">
        <ele>111</ele>
        <time>2018-09-16T07:17:00Z</time>
      </trkpt>
      <trkpt lat="43.69723" lon="3.90419">
        <ele>111</ele>
        <time>2018-09-16T07:17:02Z</time>
      </trkpt>
      <trkpt lat="43.69725" lon="3.90424">
        <ele>110.9</ele>
        <time>2018-09-16T07:17:03Z</time>
      </trkpt>
      <trkpt lat="43.69727" lon="3.90434">
        <ele>110.9</ele>
        <time>2018-09-16T07:17:05Z</time>
      </trkpt>
      <trkpt lat="43.69728" lon="3.90439">
        <ele>111</ele>
        <time>2018-09-16T07:17:06Z</time>
      </trkpt>
      <trkpt lat="43.6973" lon="3.90449">
        <ele>111</ele>
        <time>2018-09-16T07:17:08Z</time>
      </trkpt>
      <trkpt lat="43.69733" lon="3.90454">
        <ele>110.8</ele>
        <time>2018-09-16T07:17:09Z</time>
      </trkpt>
      <trkpt lat="43.69736" lon="3.90464">
        <ele>110.7</ele>
        <time>2018-09-16T07:17:11Z</time>
      </trkpt>
      <trkpt lat="43.69738" lon="3.90469">
        <ele>110.6</ele>
        <time>2018-09-16T07:17:12Z</time>
      </trkpt>
      <trkpt lat="43.69743" lon="3.90478">
        <ele>110</ele>
        <time>2018-09-16T07:17:15Z</time>
      </trkpt>
      <trkpt lat="43.69744" lon="3.90481">
        <ele>109.9</ele>
        <time>2018-09-16T07:17:16Z</time>
      </trkpt>
      <trkpt lat="43.69747" lon="3.90484">
        <ele>109.4</ele>
        <time>2018-09-16T07:17:17Z</time>
      </trkpt>
      <trkpt lat="43.69754" lon="3.90495">
        <ele>108.5</ele>
        <time>2018-09-16T07:17:18Z</time>
      </trkpt>
      <trkpt lat="43.69756" lon="3.90501">
        <ele>108.4</ele>
        <time>2018-09-16T07:17:19Z</time>
      </trkpt>
      <trkpt lat="43.69759" lon="3.90508">
        <ele>108.2</ele>
        <time>2018-09-16T07:17:20Z</time>
      </trkpt>
      <trkpt lat="43.69764" lon="3.90513">
        <ele>107.7</ele>
        <time>2018-09-16T07:17:21Z</time>
      </trkpt>
      <trkpt lat="43.69766" lon="3.90518">
        <ele>107.5</ele>
        <time>2018-09-16T07:17:22Z</time>
      </trkpt>
      <trkpt lat="43.69769" lon="3.90524">
        <ele>107.2</ele>
        <time>2018-09-16T07:17:23Z</time>
      </trkpt>
      <trkpt lat="43.69775" lon="3.90526">
        <ele>106.4</ele>
        <time>2018-09-16T07:17:24Z</time>
      </trkpt>
      <trkpt lat="43.69779" lon="3.90531">
        <ele>106</ele>
        <time>2018-09-16T07:17:25Z</time>
      </trkpt>
      <trkpt lat="43.69786" lon="3.90535">
        <ele>105.4</ele>
        <time>2018-09-16T07:17:26Z</time>
      </trkpt>
      <trkpt lat="43.6979" lon="3.90537">
        <ele>105</ele>
        <time>2018-09-16T07:17:27Z</time>
      </trkpt>
      <trkpt lat="43.69793" lon="3.90545">
        <ele>105</ele>
        <time>2018-09-16T07:17:28Z</time>
      </trkpt>
      <trkpt lat="43.69796" lon="3.9055">
        <ele>104.8</ele>
        <time>2018-09-16T07:17:29Z</time>
      </trkpt>
      <trkpt lat="43.69802" lon="3.90558">
        <ele>104.4</ele>
        <time>2018-09-16T07:17:30Z</time>
      </trkpt>
      <trkpt lat="43.69804" lon="3.90565">
        <ele>104.2</ele>
        <time>2018-09-16T07:17:31Z</time>
      </trkpt>
      <trkpt lat="43.69806" lon="3.90572">
        <ele>104</ele>
        <time>2018-09-16T07:17:32Z</time>
      </trkpt>
      <trkpt lat="43.69808" lon="3.90581">
        <ele>103.7</ele>
        <time>2018-09-16T07:17:33Z</time>
      </trkpt>
      <trkpt lat="43.69811" lon="3.90589">
        <ele>103.5</ele>
        <time>2018-09-16T07:17:34Z</time>
      </trkpt>
      <trkpt lat="43.69813" lon="3.90598">
        <ele>103.3</ele>
        <time>2018-09-16T07:17:35Z</time>
      </trkpt>
      <trkpt lat="43.69813" lon="3.90604">
        <ele>103.4</ele>
        <time>2018-09-16T07:17:36Z</time>
      </trkpt>
      <trkpt lat="43.69815" lon="3.90611">
        <ele>103.3</ele>
        <time>2018-09-16T07:17:37Z</time>
      </trkpt>
      <trkpt lat="43.69817" lon="3.90618">
        <ele>103.6</ele>
        <time>2018-09-16T07:17:38Z</time>
      </trkpt>
      <trkpt lat="43.69821" lon="3.90627">
        <ele>103.7</ele>
        <time>2018-09-16T07:17:41Z</time>
      </trkpt>
      <trkpt lat="43.69821" lon="3.9063">
        <ele>103.9</ele>
        <time>2018-09-16T07:17:42Z</time>
      </trkpt>
      <trkpt lat="43.69824" lon="3.9064">
        <ele>104</ele>
        <time>2018-09-16T07:17:48Z</time>
      </trkpt>
      <trkpt lat="43.69825" lon="3.90642">
        <ele>103.9</ele>
        <time>2018-09-16T07:17:49Z</time>
      </trkpt>
      <trkpt lat="43.6983" lon="3.9065">
        <ele>103.4</ele>
        <time>2018-09-16T07:17:52Z</time>
      </trkpt>
      <trkpt lat="43.69832" lon="3.90652">
        <ele>103.1</ele>
        <time>2018-09-16T07:17:53Z</time>
      </trkpt>
      <trkpt lat="43.69837" lon="3.90662">
        <ele>102.7</ele>
        <time>2018-09-16T07:17:57Z</time>
      </trkpt>
      <trkpt lat="43.69838" lon="3.90664">
        <ele>102.7</ele>
        <time>2018-09-16T07:17:58Z</time>
      </trkpt>
      <trkpt lat="43.69843" lon="3.9067">
        <ele>102.4</ele>
        <time>2018-09-16T07:18:01Z</time>
      </trkpt>
      <trkpt lat="43.69845" lon="3.90673">
        <ele>102.3</ele>
        <time>2018-09-16T07:18:02Z</time>
      </trkpt>
      <trkpt lat="43.69849" lon="3.90681">
        <ele>102.1</ele>
        <time>2018-09-16T07:18:05Z</time>
      </trkpt>
      <trkpt lat="43.69851" lon="3.90684">
        <ele>102</ele>
        <time>2018-09-16T07:18:06Z</time>
      </trkpt>
      <trkpt lat="43.69854" lon="3.90693">
        <ele>101.8</ele>
        <time>2018-09-16T07:18:09Z</time>
      </trkpt>
      <trkpt lat="43.69856" lon="3.90695">
        <ele>101.6</ele>
        <time>2018-09-16T07:18:10Z</time>
      </trkpt>
      <trkpt lat="43.6986" lon="3.90702">
        <ele>101.6</ele>
        <time>2018-09-16T07:18:12Z</time>
      </trkpt>
      <trkpt lat="43.69863" lon="3.90705">
        <ele>101.6</ele>
        <time>2018-09-16T07:18:13Z</time>
      </trkpt>
      <trkpt lat="43.69869" lon="3.90712">
        <ele>101.4</ele>
        <time>2018-09-16T07:18:15Z</time>
      </trkpt>
      <trkpt lat="43.69872" lon="3.90716">
        <ele>101.4</ele>
        <time>2018-09-16T07:18:16Z</time>
      </trkpt>
      <trkpt lat="43.69882" lon="3.90729">
        <ele>100.7</ele>
        <time>2018-09-16T07:18:17Z</time>
      </trkpt>
      <trkpt lat="43.69888" lon="3.90737">
        <ele>100.1</ele>
        <time>2018-09-16T07:18:19Z</time>
      </trkpt>
      <trkpt lat="43.6989" lon="3.90738">
        <ele>99.9</ele>
        <time>2018-09-16T07:18:20Z</time>
      </trkpt>
      <trkpt lat="43.69892" lon="3.90738">
        <ele>99.7</ele>
        <time>2018-09-16T07:18:21Z</time>
      </trkpt>
      <trkpt lat="43.69899" lon="3.9074">
        <ele>99.1</ele>
        <time>2018-09-16T07:18:22Z</time>
      </trkpt>
      <trkpt lat="43.69904" lon="3.90742">
        <ele>98.8</ele>
        <time>2018-09-16T07:18:23Z</time>
      </trkpt>
      <trkpt lat="43.69907" lon="3.90747">
        <ele>98.6</ele>
        <time>2018-09-16T07:18:24Z</time>
      </trkpt>
      <trkpt lat="43.69911" lon="3.90752">
        <ele>98.4</ele>
        <time>2018-09-16T07:18:25Z</time>
      </trkpt>
      <trkpt lat="43.69914" lon="3.90756">
        <ele>98.2</ele>
        <time>2018-09-16T07:18:26Z</time>
      </trkpt>
      <trkpt lat="43.69918" lon="3.90762">
        <ele>97.9</ele>
        <time>2018-09-16T07:18:27Z</time>
      </trkpt>
      <trkpt lat="43.69922" lon="3.90768">
        <ele>97.5</ele>
        <time>2018-09-16T07:18:28Z</time>
      </trkpt>
      <trkpt lat="43.69926" lon="3.90772">
        <ele>97.3</ele>
        <time>2018-09-16T07:18:29Z</time>
      </trkpt>
      <trkpt lat="43.69929" lon="3.90778">
        <ele>97.1</ele>
        <time>2018-09-16T07:18:30Z</time>
      </trkpt>
      <trkpt lat="43.69932" lon="3.90783">
        <ele>97.1</ele>
        <time>2018-09-16T07:18:31Z</time>
      </trkpt>
      <trkpt lat="43.69936" lon="3.90788">
        <ele>97</ele>
        <time>2018-09-16T07:18:32Z</time>
      </trkpt>
      <trkpt lat="43.69941" lon="3.90795">
        <ele>96.9</ele>
        <time>2018-09-16T07:18:33Z</time>
      </trkpt>
      <trkpt lat="43.69947" lon="3.90801">
        <ele>96.7</ele>
        <time>2018-09-16T07:18:34Z</time>
      </trkpt>
      <trkpt lat="43.6995" lon="3.90811">
        <ele>96.6</ele>
        <time>2018-09-16T07:18:36Z</time>
      </trkpt>
      <trkpt lat="43.69952" lon="3.90814">
        <ele>96.5</ele>
        <time>2018-09-16T07:18:37Z</time>
      </trkpt>
      <trkpt lat="43.69955" lon="3.90819">
        <ele>96.2</ele>
        <time>2018-09-16T07:18:38Z</time>
      </trkpt>
      <trkpt lat="43.6996" lon="3.90824">
        <ele>95.9</ele>
        <time>2018-09-16T07:18:39Z</time>
      </trkpt>
      <trkpt lat="43.69964" lon="3.90826">
        <ele>95.6</ele>
        <time>2018-09-16T07:18:40Z</time>
      </trkpt>
      <trkpt lat="43.69969" lon="3.9083">
        <ele>95.2</ele>
        <time>2018-09-16T07:18:41Z</time>
      </trkpt>
      <trkpt lat="43.69975" lon="3.90836">
        <ele>95</ele>
        <time>2018-09-16T07:18:42Z</time>
      </trkpt>
      <trkpt lat="43.69979" lon="3.9084">
        <ele>94.9</ele>
        <time>2018-09-16T07:18:43Z</time>
      </trkpt>
      <trkpt lat="43.69986" lon="3.90846">
        <ele>94.7</ele>
        <time>2018-09-16T07:18:45Z</time>
      </trkpt>
      <trkpt lat="43.69992" lon="3.90849">
        <ele>94.5</ele>
        <time>2018-09-16T07:18:46Z</time>
      </trkpt>
      <trkpt lat="43.69996" lon="3.90854">
        <ele>94.3</ele>
        <time>2018-09-16T07:18:47Z</time>
      </trkpt>
      <trkpt lat="43.70001" lon="3.90858">
        <ele>93.9</ele>
        <time>2018-09-16T07:18:48Z</time>
      </trkpt>
      <trkpt lat="43.70005" lon="3.90863">
        <ele>93.7</ele>
        <time>2018-09-16T07:18:49Z</time>
      </trkpt>
      <trkpt lat="43.7001" lon="3.90866">
        <ele>93.5</ele>
        <time>2018-09-16T07:18:50Z</time>
      </trkpt>
      <trkpt lat="43.70014" lon="3.90871">
        <ele>93.3</ele>
        <time>2018-09-16T07:18:51Z</time>
      </trkpt>
      <trkpt lat="43.70019" lon="3.90875">
        <ele>93.1</ele>
        <time>2018-09-16T07:18:52Z</time>
      </trkpt>
      <trkpt lat="43.70022" lon="3.90879">
        <ele>93.1</ele>
        <time>2018-09-16T07:18:53Z</time>
      </trkpt>
      <trkpt lat="43.70027" lon="3.90885">
        <ele>92.9</ele>
        <time>2018-09-16T07:18:54Z</time>
      </trkpt>
      <trkpt lat="43.70031" lon="3.90894">
        <ele>92.8</ele>
        <time>2018-09-16T07:18:55Z</time>
      </trkpt>
      <trkpt lat="43.70037" lon="3.90896">
        <ele>92.4</ele>
        <time>2018-09-16T07:18:56Z</time>
      </trkpt>
      <trkpt lat="43.70043" lon="3.90895">
        <ele>92</ele>
        <time>2018-09-16T07:18:57Z</time>
      </trkpt>
      <trkpt lat="43.70049" lon="3.90896">
        <ele>91.7</ele>
        <time>2018-09-16T07:18:58Z</time>
      </trkpt>
      <trkpt lat="43.70055" lon="3.90896">
        <ele>91.3</ele>
        <time>2018-09-16T07:18:59Z</time>
      </trkpt>
      <trkpt lat="43.70061" lon="3.90892">
        <ele>90.9</ele>
        <time>2018-09-16T07:19:00Z</time>
      </trkpt>
      <trkpt lat="43.70066" lon="3.90889">
        <ele>90.6</ele>
        <time>2018-09-16T07:19:02Z</time>
      </trkpt>
      <trkpt lat="43.70072" lon="3.90886">
        <ele>90.4</ele>
        <time>2018-09-16T07:19:03Z</time>
      </trkpt>
      <trkpt lat="43.70077" lon="3.90883">
        <ele>90</ele>
        <time>2018-09-16T07:19:04Z</time>
      </trkpt>
      <trkpt lat="43.70084" lon="3.90885">
        <ele>89.7</ele>
        <time>2018-09-16T07:19:05Z</time>
      </trkpt>
      <trkpt lat="43.70091" lon="3.90888">
        <ele>88.6</ele>
        <time>2018-09-16T07:19:07Z</time>
      </trkpt>
      <trkpt lat="43.70095" lon="3.90892">
        <ele>87.9</ele>
        <time>2018-09-16T07:19:08Z</time>
      </trkpt>
      <trkpt lat="43.70102" lon="3.90895">
        <ele>86.6</ele>
        <time>2018-09-16T07:19:12Z</time>
      </trkpt>
      <trkpt lat="43.70109" lon="3.90899">
        <ele>85.1</ele>
        <time>2018-09-16T07:19:13Z</time>
      </trkpt>
      <trkpt lat="43.70113" lon="3.90909">
        <ele>84.5</ele>
        <time>2018-09-16T07:19:18Z</time>
      </trkpt>
      <trkpt lat="43.70113" lon="3.9091">
        <ele>84.4</ele>
        <time>2018-09-16T07:19:19Z</time>
      </trkpt>
      <trkpt lat="43.70122" lon="3.90913">
        <ele>85.3</ele>
        <time>2018-09-16T07:19:28Z</time>
      </trkpt>
      <trkpt lat="43.70124" lon="3.90914">
        <ele>85.5</ele>
        <time>2018-09-16T07:19:29Z</time>
      </trkpt>
      <trkpt lat="43.7013" lon="3.90921">
        <ele>85.9</ele>
        <time>2018-09-16T07:19:32Z</time>
      </trkpt>
      <trkpt lat="43.70132" lon="3.90922">
        <ele>86.1</ele>
        <time>2018-09-16T07:19:33Z</time>
      </trkpt>
      <trkpt lat="43.7014" lon="3.90926">
        <ele>86.4</ele>
        <time>2018-09-16T07:19:38Z</time>
      </trkpt>
      <trkpt lat="43.70142" lon="3.90928">
        <ele>86.3</ele>
        <time>2018-09-16T07:19:39Z</time>
      </trkpt>
      <trkpt lat="43.70147" lon="3.90938">
        <ele>86</ele>
        <time>2018-09-16T07:19:42Z</time>
      </trkpt>
      <trkpt lat="43.70148" lon="3.90941">
        <ele>85.9</ele>
        <time>2018-09-16T07:19:43Z</time>
      </trkpt>
      <trkpt lat="43.70149" lon="3.90945">
        <ele>85.7</ele>
        <time>2018-09-16T07:19:44Z</time>
      </trkpt>
      <trkpt lat="43.70154" lon="3.90957">
        <ele>85.4</ele>
        <time>2018-09-16T07:19:45Z</time>
      </trkpt>
      <trkpt lat="43.70156" lon="3.90972">
        <ele>84.9</ele>
        <time>2018-09-16T07:19:47Z</time>
      </trkpt>
      <trkpt lat="43.7016" lon="3.90977">
        <ele>85.2</ele>
        <time>2018-09-16T07:19:48Z</time>
      </trkpt>
      <trkpt lat="43.70164" lon="3.90984">
        <ele>85.7</ele>
        <time>2018-09-16T07:19:51Z</time>
      </trkpt>
      <trkpt lat="43.70165" lon="3.90986">
        <ele>85.8</ele>
        <time>2018-09-16T07:19:52Z</time>
      </trkpt>
      <trkpt lat="43.7017" lon="3.90996">
        <ele>86.5</ele>
        <time>2018-09-16T07:19:56Z</time>
      </trkpt>
      <trkpt lat="43.70171" lon="3.90999">
        <ele>86.6</ele>
        <time>2018-09-16T07:19:57Z</time>
      </trkpt>
      <trkpt lat="43.70176" lon="3.91006">
        <ele>87.7</ele>
        <time>2018-09-16T07:20:00Z</time>
      </trkpt>
      <trkpt lat="43.70177" lon="3.91009">
        <ele>88</ele>
        <time>2018-09-16T07:20:01Z</time>
      </trkpt>
      <trkpt lat="43.70182" lon="3.91018">
        <ele>89.1</ele>
        <time>2018-09-16T07:20:05Z</time>
      </trkpt>
      <trkpt lat="43.70183" lon="3.9102">
        <ele>89.4</ele>
        <time>2018-09-16T07:20:06Z</time>
      </trkpt>
      <trkpt lat="43.70186" lon="3.91029">
        <ele>90.1</ele>
        <time>2018-09-16T07:20:10Z</time>
      </trkpt>
      <trkpt lat="43.70188" lon="3.91032">
        <ele>90.2</ele>
        <time>2018-09-16T07:20:11Z</time>
      </trkpt>
      <trkpt lat="43.70193" lon="3.9104">
        <ele>90.8</ele>
        <time>2018-09-16T07:20:16Z</time>
      </trkpt>
      <trkpt lat="43.70193" lon="3.91043">
        <ele>90.8</ele>
        <time>2018-09-16T07:20:17Z</time>
      </trkpt>
      <trkpt lat="43.70195" lon="3.91053">
        <ele>91.1</ele>
        <time>2018-09-16T07:20:20Z</time>
      </trkpt>
      <trkpt lat="43.70196" lon="3.91056">
        <ele>91.2</ele>
        <time>2018-09-16T07:20:21Z</time>
      </trkpt>
      <trkpt lat="43.70199" lon="3.91066">
        <ele>91.5</ele>
        <time>2018-09-16T07:20:24Z</time>
      </trkpt>
      <trkpt lat="43.702" lon="3.9107">
        <ele>91.6</ele>
        <time>2018-09-16T07:20:25Z</time>
      </trkpt>
      <trkpt lat="43.70204" lon="3.9108">
        <ele>92</ele>
        <time>2018-09-16T07:20:28Z</time>
      </trkpt>
      <trkpt lat="43.70205" lon="3.91083">
        <ele>92.1</ele>
        <time>2018-09-16T07:20:29Z</time>
      </trkpt>
      <trkpt lat="43.70209" lon="3.91091">
        <ele>92.3</ele>
        <time>2018-09-16T07:20:32Z</time>
      </trkpt>
      <trkpt lat="43.7021" lon="3.91093">
        <ele>92.4</ele>
        <time>2018-09-16T07:20:33Z</time>
      </trkpt>
      <trkpt lat="43.70217" lon="3.911">
        <ele>93.2</ele>
        <time>2018-09-16T07:20:38Z</time>
      </trkpt>
      <trkpt lat="43.70219" lon="3.91101">
        <ele>93.5</ele>
        <time>2018-09-16T07:20:39Z</time>
      </trkpt>
      <trkpt lat="43.70225" lon="3.91108">
        <ele>94.4</ele>
        <time>2018-09-16T07:20:43Z</time>
      </trkpt>
      <trkpt lat="43.70226" lon="3.9111">
        <ele>94.5</ele>
        <time>2018-09-16T07:20:44Z</time>
      </trkpt>
      <trkpt lat="43.70232" lon="3.91119">
        <ele>95.4</ele>
        <time>2018-09-16T07:20:50Z</time>
      </trkpt>
      <trkpt lat="43.70233" lon="3.9112">
        <ele>95.6</ele>
        <time>2018-09-16T07:20:51Z</time>
      </trkpt>
      <trkpt lat="43.70241" lon="3.91127">
        <ele>96.7</ele>
        <time>2018-09-16T07:20:57Z</time>
      </trkpt>
      <trkpt lat="43.70242" lon="3.91127">
        <ele>96.8</ele>
        <time>2018-09-16T07:20:58Z</time>
      </trkpt>
      <trkpt lat="43.70247" lon="3.91133">
        <ele>97.6</ele>
        <time>2018-09-16T07:21:02Z</time>
      </trkpt>
      <trkpt lat="43.70249" lon="3.91135">
        <ele>97.9</ele>
        <time>2018-09-16T07:21:03Z</time>
      </trkpt>
      <trkpt lat="43.70254" lon="3.91142">
        <ele>98.5</ele>
        <time>2018-09-16T07:21:06Z</time>
      </trkpt>
      <trkpt lat="43.70256" lon="3.91144">
        <ele>98.8</ele>
        <time>2018-09-16T07:21:07Z</time>
      </trkpt>
      <trkpt lat="43.70262" lon="3.91151">
        <ele>99.5</ele>
        <time>2018-09-16T07:21:11Z</time>
      </trkpt>
      <trkpt lat="43.70263" lon="3.91152">
        <ele>99.7</ele>
        <time>2018-09-16T07:21:12Z</time>
      </trkpt>
      <trkpt lat="43.7027" lon="3.9116">
        <ele>100.4</ele>
        <time>2018-09-16T07:21:16Z</time>
      </trkpt>
      <trkpt lat="43.70271" lon="3.91161">
        <ele>100.5</ele>
        <time>2018-09-16T07:21:17Z</time>
      </trkpt>
      <trkpt lat="43.70276" lon="3.91168">
        <ele>100.9</ele>
        <time>2018-09-16T07:21:21Z</time>
      </trkpt>
      <trkpt lat="43.70277" lon="3.9117">
        <ele>100.9</ele>
        <time>2018-09-16T07:21:22Z</time>
      </trkpt>
      <trkpt lat="43.70285" lon="3.91175">
        <ele>101.5</ele>
        <time>2018-09-16T07:21:27Z</time>
      </trkpt>
      <trkpt lat="43.70287" lon="3.91176">
        <ele>101.7</ele>
        <time>2018-09-16T07:21:28Z</time>
      </trkpt>
      <trkpt lat="43.70294" lon="3.91181">
        <ele>102.2</ele>
        <time>2018-09-16T07:21:32Z</time>
      </trkpt>
      <trkpt lat="43.70296" lon="3.91182">
        <ele>102.3</ele>
        <time>2018-09-16T07:21:33Z</time>
      </trkpt>
      <trkpt lat="43.70304" lon="3.91187">
        <ele>102.9</ele>
        <time>2018-09-16T07:21:38Z</time>
      </trkpt>
      <trkpt lat="43.70306" lon="3.91189">
        <ele>103</ele>
        <time>2018-09-16T07:21:39Z</time>
      </trkpt>
      <trkpt lat="43.70313" lon="3.91194">
        <ele>103.3</ele>
        <time>2018-09-16T07:21:42Z</time>
      </trkpt>
      <trkpt lat="43.70315" lon="3.91197">
        <ele>103.2</ele>
        <time>2018-09-16T07:21:43Z</time>
      </trkpt>
      <trkpt lat="43.70322" lon="3.91203">
        <ele>103</ele>
        <time>2018-09-16T07:21:46Z</time>
      </trkpt>
      <trkpt lat="43.70324" lon="3.91205">
        <ele>102.9</ele>
        <time>2018-09-16T07:21:47Z</time>
      </trkpt>
      <trkpt lat="43.70333" lon="3.91209">
        <ele>102.9</ele>
        <time>2018-09-16T07:21:50Z</time>
      </trkpt>
      <trkpt lat="43.70336" lon="3.9121">
        <ele>102.8</ele>
        <time>2018-09-16T07:21:51Z</time>
      </trkpt>
      <trkpt lat="43.70344" lon="3.91213">
        <ele>102.3</ele>
        <time>2018-09-16T07:21:54Z</time>
      </trkpt>
      <trkpt lat="43.70347" lon="3.91214">
        <ele>102.1</ele>
        <time>2018-09-16T07:21:55Z</time>
      </trkpt>
      <trkpt lat="43.70353" lon="3.91215">
        <ele>101.8</ele>
        <time>2018-09-16T07:21:57Z</time>
      </trkpt>
      <trkpt lat="43.70356" lon="3.91214">
        <ele>101.8</ele>
        <time>2018-09-16T07:21:58Z</time>
      </trkpt>
      <trkpt lat="43.70363" lon="3.91214">
        <ele>101.5</ele>
        <time>2018-09-16T07:22:00Z</time>
      </trkpt>
      <trkpt lat="43.70367" lon="3.91213">
        <ele>101.3</ele>
        <time>2018-09-16T07:22:01Z</time>
      </trkpt>
      <trkpt lat="43.70379" lon="3.9121">
        <ele>100.7</ele>
        <time>2018-09-16T07:22:02Z</time>
      </trkpt>
      <trkpt lat="43.70383" lon="3.91209">
        <ele>100.4</ele>
        <time>2018-09-16T07:22:03Z</time>
      </trkpt>
      <trkpt lat="43.70389" lon="3.9121">
        <ele>100</ele>
        <time>2018-09-16T07:22:04Z</time>
      </trkpt>
      <trkpt lat="43.70395" lon="3.91213">
        <ele>99.6</ele>
        <time>2018-09-16T07:22:06Z</time>
      </trkpt>
      <trkpt lat="43.70399" lon="3.91215">
        <ele>99.3</ele>
        <time>2018-09-16T07:22:07Z</time>
      </trkpt>
      <trkpt lat="43.70403" lon="3.91217">
        <ele>99</ele>
        <time>2018-09-16T07:22:08Z</time>
      </trkpt>
      <trkpt lat="43.70412" lon="3.91218">
        <ele>98.3</ele>
        <time>2018-09-16T07:22:09Z</time>
      </trkpt>
      <trkpt lat="43.7042" lon="3.91223">
        <ele>97.6</ele>
        <time>2018-09-16T07:22:10Z</time>
      </trkpt>
      <trkpt lat="43.70424" lon="3.91225">
        <ele>97.1</ele>
        <time>2018-09-16T07:22:11Z</time>
      </trkpt>
      <trkpt lat="43.7043" lon="3.91227">
        <ele>96.5</ele>
        <time>2018-09-16T07:22:12Z</time>
      </trkpt>
      <trkpt lat="43.70433" lon="3.91228">
        <ele>96.2</ele>
        <time>2018-09-16T07:22:13Z</time>
      </trkpt>
      <trkpt lat="43.7044" lon="3.9123">
        <ele>95.4</ele>
        <time>2018-09-16T07:22:15Z</time>
      </trkpt>
      <trkpt lat="43.70448" lon="3.91238">
        <ele>94.9</ele>
        <time>2018-09-16T07:22:16Z</time>
      </trkpt>
      <trkpt lat="43.70454" lon="3.91243">
        <ele>94.7</ele>
        <time>2018-09-16T07:22:17Z</time>
      </trkpt>
      <trkpt lat="43.7046" lon="3.9125">
        <ele>94.4</ele>
        <time>2018-09-16T07:22:18Z</time>
      </trkpt>
      <trkpt lat="43.70464" lon="3.91256">
        <ele>94.1</ele>
        <time>2018-09-16T07:22:19Z</time>
      </trkpt>
      <trkpt lat="43.70467" lon="3.91262">
        <ele>93.8</ele>
        <time>2018-09-16T07:22:20Z</time>
      </trkpt>
      <trkpt lat="43.70471" lon="3.91266">
        <ele>93.5</ele>
        <time>2018-09-16T07:22:21Z</time>
      </trkpt>
      <trkpt lat="43.70476" lon="3.91269">
        <ele>93.1</ele>
        <time>2018-09-16T07:22:22Z</time>
      </trkpt>
      <trkpt lat="43.70481" lon="3.91272">
        <ele>92.8</ele>
        <time>2018-09-16T07:22:23Z</time>
      </trkpt>
      <trkpt lat="43.70487" lon="3.91273">
        <ele>92.5</ele>
        <time>2018-09-16T07:22:24Z</time>
      </trkpt>
      <trkpt lat="43.70493" lon="3.91276">
        <ele>92.3</ele>
        <time>2018-09-16T07:22:25Z</time>
      </trkpt>
      <trkpt lat="43.70497" lon="3.91279">
        <ele>92.1</ele>
        <time>2018-09-16T07:22:26Z</time>
      </trkpt>
      <trkpt lat="43.705" lon="3.9128">
        <ele>92</ele>
        <time>2018-09-16T07:22:27Z</time>
      </trkpt>
      <trkpt lat="43.70505" lon="3.91283">
        <ele>91.8</ele>
        <time>2018-09-16T07:22:28Z</time>
      </trkpt>
      <trkpt lat="43.70511" lon="3.91286">
        <ele>91.6</ele>
        <time>2018-09-16T07:22:29Z</time>
      </trkpt>
      <trkpt lat="43.70515" lon="3.91289">
        <ele>91.5</ele>
        <time>2018-09-16T07:22:30Z</time>
      </trkpt>
      <trkpt lat="43.7052" lon="3.91292">
        <ele>91.3</ele>
        <time>2018-09-16T07:22:31Z</time>
      </trkpt>
      <trkpt lat="43.70524" lon="3.91293">
        <ele>91.1</ele>
        <time>2018-09-16T07:22:32Z</time>
      </trkpt>
      <trkpt lat="43.70532" lon="3.91298">
        <ele>90.8</ele>
        <time>2018-09-16T07:22:33Z</time>
      </trkpt>
      <trkpt lat="43.70535" lon="3.913">
        <ele>90.7</ele>
        <time>2018-09-16T07:22:34Z</time>
      </trkpt>
      <trkpt lat="43.70538" lon="3.91302">
        <ele>90.6</ele>
        <time>2018-09-16T07:22:35Z</time>
      </trkpt>
      <trkpt lat="43.70545" lon="3.91306">
        <ele>90.4</ele>
        <time>2018-09-16T07:22:36Z</time>
      </trkpt>
      <trkpt lat="43.7055" lon="3.91313">
        <ele>90.2</ele>
        <time>2018-09-16T07:22:37Z</time>
      </trkpt>
      <trkpt lat="43.70552" lon="3.91318">
        <ele>90.1</ele>
        <time>2018-09-16T07:22:38Z</time>
      </trkpt>
      <trkpt lat="43.70556" lon="3.91322">
        <ele>90</ele>
        <time>2018-09-16T07:22:39Z</time>
      </trkpt>
      <trkpt lat="43.70559" lon="3.91328">
        <ele>89.9</ele>
        <time>2018-09-16T07:22:40Z</time>
      </trkpt>
      <trkpt lat="43.70564" lon="3.91332">
        <ele>89.7</ele>
        <time>2018-09-16T07:22:41Z</time>
      </trkpt>
      <trkpt lat="43.70568" lon="3.91335">
        <ele>89.5</ele>
        <time>2018-09-16T07:22:42Z</time>
      </trkpt>
      <trkpt lat="43.70573" lon="3.91338">
        <ele>89.3</ele>
        <time>2018-09-16T07:22:43Z</time>
      </trkpt>
      <trkpt lat="43.70578" lon="3.91341">
        <ele>89</ele>
        <time>2018-09-16T07:22:44Z</time>
      </trkpt>
      <trkpt lat="43.70582" lon="3.91345">
        <ele>88.6</ele>
        <time>2018-09-16T07:22:45Z</time>
      </trkpt>
      <trkpt lat="43.70587" lon="3.91348">
        <ele>88.2</ele>
        <time>2018-09-16T07:22:46Z</time>
      </trkpt>
      <trkpt lat="43.70591" lon="3.91352">
        <ele>87.8</ele>
        <time>2018-09-16T07:22:47Z</time>
      </trkpt>
      <trkpt lat="43.70595" lon="3.91354">
        <ele>87.4</ele>
        <time>2018-09-16T07:22:48Z</time>
      </trkpt>
      <trkpt lat="43.70602" lon="3.9136">
        <ele>86.7</ele>
        <time>2018-09-16T07:22:51Z</time>
      </trkpt>
      <trkpt lat="43.70612" lon="3.91364">
        <ele>85.6</ele>
        <time>2018-09-16T07:22:52Z</time>
      </trkpt>
      <trkpt lat="43.70622" lon="3.91374">
        <ele>83.2</ele>
        <time>2018-09-16T07:22:54Z</time>
      </trkpt>
      <trkpt lat="43.70632" lon="3.91387">
        <ele>80.9</ele>
        <time>2018-09-16T07:22:55Z</time>
      </trkpt>
      <trkpt lat="43.70642" lon="3.91393">
        <ele>79.7</ele>
        <time>2018-09-16T07:22:58Z</time>
      </trkpt>
      <trkpt lat="43.70617" lon="3.91399">
        <ele>81.1</ele>
        <time>2018-09-16T07:22:59Z</time>
      </trkpt>
      <trkpt lat="43.70611" lon="3.91403">
        <ele>81</ele>
        <time>2018-09-16T07:23:03Z</time>
      </trkpt>
      <trkpt lat="43.70608" lon="3.91405">
        <ele>81</ele>
        <time>2018-09-16T07:23:04Z</time>
      </trkpt>
      <trkpt lat="43.70599" lon="3.91411">
        <ele>80.8</ele>
        <time>2018-09-16T07:23:05Z</time>
      </trkpt>
      <trkpt lat="43.70594" lon="3.91414">
        <ele>80.7</ele>
        <time>2018-09-16T07:23:06Z</time>
      </trkpt>
      <trkpt lat="43.70587" lon="3.91419">
        <ele>80.4</ele>
        <time>2018-09-16T07:23:07Z</time>
      </trkpt>
      <trkpt lat="43.70581" lon="3.91422">
        <ele>80.2</ele>
        <time>2018-09-16T07:23:08Z</time>
      </trkpt>
      <trkpt lat="43.70576" lon="3.91425">
        <ele>79.6</ele>
        <time>2018-09-16T07:23:09Z</time>
      </trkpt>
      <trkpt lat="43.7057" lon="3.91423">
        <ele>79.7</ele>
        <time>2018-09-16T07:23:10Z</time>
      </trkpt>
      <trkpt lat="43.70564" lon="3.91419">
        <ele>80</ele>
        <time>2018-09-16T07:23:11Z</time>
      </trkpt>
      <trkpt lat="43.70558" lon="3.91416">
        <ele>80.3</ele>
        <time>2018-09-16T07:23:12Z</time>
      </trkpt>
      <trkpt lat="43.70552" lon="3.91414">
        <ele>80.6</ele>
        <time>2018-09-16T07:23:13Z</time>
      </trkpt>
      <trkpt lat="43.70547" lon="3.91411">
        <ele>81.1</ele>
        <time>2018-09-16T07:23:14Z</time>
      </trkpt>
      <trkpt lat="43.70541" lon="3.91409">
        <ele>81.3</ele>
        <time>2018-09-16T07:23:15Z</time>
      </trkpt>
      <trkpt lat="43.70536" lon="3.91408">
        <ele>81.1</ele>
        <time>2018-09-16T07:23:16Z</time>
      </trkpt>
      <trkpt lat="43.7053" lon="3.91407">
        <ele>80.9</ele>
        <time>2018-09-16T07:23:17Z</time>
      </trkpt>
      <trkpt lat="43.70524" lon="3.91405">
        <ele>80.8</ele>
        <time>2018-09-16T07:23:18Z</time>
      </trkpt>
      <trkpt lat="43.70519" lon="3.91403">
        <ele>80.8</ele>
        <time>2018-09-16T07:23:19Z</time>
      </trkpt>
      <trkpt lat="43.70511" lon="3.91399">
        <ele>80.8</ele>
        <time>2018-09-16T07:23:21Z</time>
      </trkpt>
      <trkpt lat="43.70505" lon="3.91397">
        <ele>80.6</ele>
        <time>2018-09-16T07:23:22Z</time>
      </trkpt>
      <trkpt lat="43.70501" lon="3.91395">
        <ele>80.4</ele>
        <time>2018-09-16T07:23:23Z</time>
      </trkpt>
      <trkpt lat="43.70495" lon="3.91392">
        <ele>80.5</ele>
        <time>2018-09-16T07:23:24Z</time>
      </trkpt>
      <trkpt lat="43.70491" lon="3.91388">
        <ele>80.9</ele>
        <time>2018-09-16T07:23:25Z</time>
      </trkpt>
      <trkpt lat="43.70486" lon="3.91384">
        <ele>81.7</ele>
        <time>2018-09-16T07:23:26Z</time>
      </trkpt>
      <trkpt lat="43.70481" lon="3.91377">
        <ele>83.2</ele>
        <time>2018-09-16T07:23:28Z</time>
      </trkpt>
      <trkpt lat="43.70479" lon="3.91375">
        <ele>83.5</ele>
        <time>2018-09-16T07:23:29Z</time>
      </trkpt>
      <trkpt lat="43.70473" lon="3.91373">
        <ele>83.5</ele>
        <time>2018-09-16T07:23:32Z</time>
      </trkpt>
      <trkpt lat="43.70469" lon="3.91372">
        <ele>83.3</ele>
        <time>2018-09-16T07:23:33Z</time>
      </trkpt>
      <trkpt lat="43.70466" lon="3.91371">
        <ele>83.3</ele>
        <time>2018-09-16T07:23:34Z</time>
      </trkpt>
      <trkpt lat="43.70457" lon="3.91365">
        <ele>83.6</ele>
        <time>2018-09-16T07:23:35Z</time>
      </trkpt>
      <trkpt lat="43.70451" lon="3.91359">
        <ele>84.2</ele>
        <time>2018-09-16T07:23:39Z</time>
      </trkpt>
      <trkpt lat="43.70448" lon="3.91359">
        <ele>83.9</ele>
        <time>2018-09-16T07:23:40Z</time>
      </trkpt>
      <trkpt lat="43.7044" lon="3.91357">
        <ele>83.8</ele>
        <time>2018-09-16T07:23:43Z</time>
      </trkpt>
      <trkpt lat="43.70429" lon="3.91355">
        <ele>83.7</ele>
        <time>2018-09-16T07:23:44Z</time>
      </trkpt>
      <trkpt lat="43.70421" lon="3.91352">
        <ele>83.9</ele>
        <time>2018-09-16T07:23:46Z</time>
      </trkpt>
      <trkpt lat="43.70417" lon="3.91351">
        <ele>83.8</ele>
        <time>2018-09-16T07:23:47Z</time>
      </trkpt>
      <trkpt lat="43.70407" lon="3.91345">
        <ele>84.4</ele>
        <time>2018-09-16T07:23:49Z</time>
      </trkpt>
      <trkpt lat="43.70404" lon="3.91346">
        <ele>84</ele>
        <time>2018-09-16T07:23:50Z</time>
      </trkpt>
      <trkpt lat="43.70397" lon="3.91344">
        <ele>83.9</ele>
        <time>2018-09-16T07:23:51Z</time>
      </trkpt>
      <trkpt lat="43.70389" lon="3.91344">
        <ele>83.6</ele>
        <time>2018-09-16T07:23:52Z</time>
      </trkpt>
      <trkpt lat="43.70385" lon="3.91343">
        <ele>83.6</ele>
        <time>2018-09-16T07:23:53Z</time>
      </trkpt>
      <trkpt lat="43.70381" lon="3.91342">
        <ele>83.7</ele>
        <time>2018-09-16T07:23:54Z</time>
      </trkpt>
      <trkpt lat="43.70376" lon="3.91343">
        <ele>83.6</ele>
        <time>2018-09-16T07:23:58Z</time>
      </trkpt>
      <trkpt lat="43.70374" lon="3.9134">
        <ele>84</ele>
        <time>2018-09-16T07:23:59Z</time>
      </trkpt>
      <trkpt lat="43.70372" lon="3.91338">
        <ele>84.3</ele>
        <time>2018-09-16T07:24:00Z</time>
      </trkpt>
      <trkpt lat="43.70364" lon="3.9133">
        <ele>85.5</ele>
        <time>2018-09-16T07:24:01Z</time>
      </trkpt>
      <trkpt lat="43.70355" lon="3.91329">
        <ele>85.4</ele>
        <time>2018-09-16T07:24:03Z</time>
      </trkpt>
      <trkpt lat="43.7035" lon="3.9133">
        <ele>85</ele>
        <time>2018-09-16T07:24:04Z</time>
      </trkpt>
      <trkpt lat="43.70346" lon="3.91329">
        <ele>85</ele>
        <time>2018-09-16T07:24:05Z</time>
      </trkpt>
      <trkpt lat="43.7034" lon="3.91329">
        <ele>84.7</ele>
        <time>2018-09-16T07:24:06Z</time>
      </trkpt>
      <trkpt lat="43.70336" lon="3.91327">
        <ele>84.8</ele>
        <time>2018-09-16T07:24:07Z</time>
      </trkpt>
      <trkpt lat="43.70331" lon="3.91325">
        <ele>84.9</ele>
        <time>2018-09-16T07:24:08Z</time>
      </trkpt>
      <trkpt lat="43.70326" lon="3.91323">
        <ele>85</ele>
        <time>2018-09-16T07:24:09Z</time>
      </trkpt>
      <trkpt lat="43.70322" lon="3.9132">
        <ele>85.2</ele>
        <time>2018-09-16T07:24:10Z</time>
      </trkpt>
      <trkpt lat="43.70317" lon="3.91318">
        <ele>85.3</ele>
        <time>2018-09-16T07:24:11Z</time>
      </trkpt>
      <trkpt lat="43.70312" lon="3.91315">
        <ele>85.5</ele>
        <time>2018-09-16T07:24:12Z</time>
      </trkpt>
      <trkpt lat="43.70307" lon="3.91314">
        <ele>85.4</ele>
        <time>2018-09-16T07:24:13Z</time>
      </trkpt>
      <trkpt lat="43.70302" lon="3.91312">
        <ele>85.4</ele>
        <time>2018-09-16T07:24:14Z</time>
      </trkpt>
      <trkpt lat="43.70297" lon="3.91311">
        <ele>85.3</ele>
        <time>2018-09-16T07:24:15Z</time>
      </trkpt>
      <trkpt lat="43.70293" lon="3.9131">
        <ele>85.2</ele>
        <time>2018-09-16T07:24:16Z</time>
      </trkpt>
      <trkpt lat="43.70288" lon="3.91309">
        <ele>85.1</ele>
        <time>2018-09-16T07:24:17Z</time>
      </trkpt>
      <trkpt lat="43.70282" lon="3.91311">
        <ele>84.8</ele>
        <time>2018-09-16T07:24:18Z</time>
      </trkpt>
      <trkpt lat="43.70277" lon="3.91312">
        <ele>84.5</ele>
        <time>2018-09-16T07:24:19Z</time>
      </trkpt>
      <trkpt lat="43.70271" lon="3.91313">
        <ele>84.2</ele>
        <time>2018-09-16T07:24:20Z</time>
      </trkpt>
      <trkpt lat="43.70263" lon="3.9131">
        <ele>84.1</ele>
        <time>2018-09-16T07:24:26Z</time>
      </trkpt>
      <trkpt lat="43.70261" lon="3.91307">
        <ele>84.3</ele>
        <time>2018-09-16T07:24:27Z</time>
      </trkpt>
      <trkpt lat="43.70256" lon="3.91303">
        <ele>84.4</ele>
        <time>2018-09-16T07:24:29Z</time>
      </trkpt>
      <trkpt lat="43.70247" lon="3.91295">
        <ele>84.5</ele>
        <time>2018-09-16T07:24:30Z</time>
      </trkpt>
      <trkpt lat="43.70242" lon="3.9129">
        <ele>84.5</ele>
        <time>2018-09-16T07:24:32Z</time>
      </trkpt>
      <trkpt lat="43.70238" lon="3.91285">
        <ele>84.6</ele>
        <time>2018-09-16T07:24:33Z</time>
      </trkpt>
      <trkpt lat="43.70233" lon="3.91281">
        <ele>84.5</ele>
        <time>2018-09-16T07:24:34Z</time>
      </trkpt>
      <trkpt lat="43.70229" lon="3.91276">
        <ele>84.6</ele>
        <time>2018-09-16T07:24:35Z</time>
      </trkpt>
      <trkpt lat="43.70225" lon="3.91271">
        <ele>84.5</ele>
        <time>2018-09-16T07:24:36Z</time>
      </trkpt>
      <trkpt lat="43.70221" lon="3.91264">
        <ele>84.5</ele>
        <time>2018-09-16T07:24:37Z</time>
      </trkpt>
      <trkpt lat="43.70219" lon="3.91258">
        <ele>84.6</ele>
        <time>2018-09-16T07:24:38Z</time>
      </trkpt>
      <trkpt lat="43.70216" lon="3.91253">
        <ele>84.7</ele>
        <time>2018-09-16T07:24:39Z</time>
      </trkpt>
      <trkpt lat="43.70212" lon="3.91249">
        <ele>84.7</ele>
        <time>2018-09-16T07:24:40Z</time>
      </trkpt>
      <trkpt lat="43.70208" lon="3.91245">
        <ele>84.8</ele>
        <time>2018-09-16T07:24:41Z</time>
      </trkpt>
      <trkpt lat="43.70205" lon="3.91239">
        <ele>84.8</ele>
        <time>2018-09-16T07:24:42Z</time>
      </trkpt>
      <trkpt lat="43.70201" lon="3.91233">
        <ele>84.7</ele>
        <time>2018-09-16T07:24:43Z</time>
      </trkpt>
      <trkpt lat="43.70198" lon="3.91227">
        <ele>84.4</ele>
        <time>2018-09-16T07:24:44Z</time>
      </trkpt>
      <trkpt lat="43.70195" lon="3.9122">
        <ele>84.2</ele>
        <time>2018-09-16T07:24:45Z</time>
      </trkpt>
      <trkpt lat="43.70193" lon="3.91213">
        <ele>84.6</ele>
        <time>2018-09-16T07:24:46Z</time>
      </trkpt>
      <trkpt lat="43.7019" lon="3.91207">
        <ele>84.9</ele>
        <time>2018-09-16T07:24:47Z</time>
      </trkpt>
      <trkpt lat="43.70186" lon="3.91196">
        <ele>85.3</ele>
        <time>2018-09-16T07:24:50Z</time>
      </trkpt>
      <trkpt lat="43.70184" lon="3.91195">
        <ele>85.2</ele>
        <time>2018-09-16T07:24:51Z</time>
      </trkpt>
      <trkpt lat="43.70182" lon="3.91196">
        <ele>85</ele>
        <time>2018-09-16T07:24:52Z</time>
      </trkpt>
      <trkpt lat="43.70176" lon="3.91201">
        <ele>84.5</ele>
        <time>2018-09-16T07:24:53Z</time>
      </trkpt>
      <trkpt lat="43.70169" lon="3.91208">
        <ele>84.1</ele>
        <time>2018-09-16T07:24:55Z</time>
      </trkpt>
      <trkpt lat="43.70165" lon="3.91211">
        <ele>83.9</ele>
        <time>2018-09-16T07:24:56Z</time>
      </trkpt>
      <trkpt lat="43.70161" lon="3.91214">
        <ele>83.8</ele>
        <time>2018-09-16T07:24:57Z</time>
      </trkpt>
      <trkpt lat="43.70157" lon="3.91217">
        <ele>83.7</ele>
        <time>2018-09-16T07:24:58Z</time>
      </trkpt>
      <trkpt lat="43.70152" lon="3.91219">
        <ele>83.5</ele>
        <time>2018-09-16T07:24:59Z</time>
      </trkpt>
      <trkpt lat="43.70147" lon="3.91223">
        <ele>83.3</ele>
        <time>2018-09-16T07:25:00Z</time>
      </trkpt>
      <trkpt lat="43.70141" lon="3.91226">
        <ele>82.9</ele>
        <time>2018-09-16T07:25:01Z</time>
      </trkpt>
      <trkpt lat="43.70136" lon="3.91229">
        <ele>82.7</ele>
        <time>2018-09-16T07:25:02Z</time>
      </trkpt>
      <trkpt lat="43.70131" lon="3.91232">
        <ele>82.5</ele>
        <time>2018-09-16T07:25:03Z</time>
      </trkpt>
      <trkpt lat="43.70125" lon="3.91236">
        <ele>82.3</ele>
        <time>2018-09-16T07:25:04Z</time>
      </trkpt>
      <trkpt lat="43.7012" lon="3.91239">
        <ele>82.1</ele>
        <time>2018-09-16T07:25:05Z</time>
      </trkpt>
      <trkpt lat="43.70114" lon="3.91243">
        <ele>82</ele>
        <time>2018-09-16T07:25:06Z</time>
      </trkpt>
      <trkpt lat="43.70109" lon="3.91246">
        <ele>81.9</ele>
        <time>2018-09-16T07:25:07Z</time>
      </trkpt>
      <trkpt lat="43.70104" lon="3.9125">
        <ele>81.7</ele>
        <time>2018-09-16T07:25:08Z</time>
      </trkpt>
      <trkpt lat="43.70098" lon="3.91253">
        <ele>81.5</ele>
        <time>2018-09-16T07:25:09Z</time>
      </trkpt>
      <trkpt lat="43.70093" lon="3.91257">
        <ele>81.3</ele>
        <time>2018-09-16T07:25:10Z</time>
      </trkpt>
      <trkpt lat="43.70089" lon="3.9126">
        <ele>81.1</ele>
        <time>2018-09-16T07:25:11Z</time>
      </trkpt>
      <trkpt lat="43.70084" lon="3.91263">
        <ele>81</ele>
        <time>2018-09-16T07:25:12Z</time>
      </trkpt>
      <trkpt lat="43.70078" lon="3.91265">
        <ele>80.8</ele>
        <time>2018-09-16T07:25:13Z</time>
      </trkpt>
      <trkpt lat="43.70072" lon="3.91269">
        <ele>80.6</ele>
        <time>2018-09-16T07:25:14Z</time>
      </trkpt>
      <trkpt lat="43.70067" lon="3.91273">
        <ele>80.4</ele>
        <time>2018-09-16T07:25:15Z</time>
      </trkpt>
      <trkpt lat="43.7006" lon="3.91277">
        <ele>80.2</ele>
        <time>2018-09-16T07:25:16Z</time>
      </trkpt>
      <trkpt lat="43.70054" lon="3.91281">
        <ele>79.9</ele>
        <time>2018-09-16T07:25:17Z</time>
      </trkpt>
      <trkpt lat="43.70048" lon="3.91284">
        <ele>79.8</ele>
        <time>2018-09-16T07:25:18Z</time>
      </trkpt>
      <trkpt lat="43.70042" lon="3.91289">
        <ele>79.6</ele>
        <time>2018-09-16T07:25:19Z</time>
      </trkpt>
      <trkpt lat="43.70036" lon="3.91292">
        <ele>79.5</ele>
        <time>2018-09-16T07:25:20Z</time>
      </trkpt>
      <trkpt lat="43.7003" lon="3.91296">
        <ele>79.3</ele>
        <time>2018-09-16T07:25:21Z</time>
      </trkpt>
      <trkpt lat="43.70024" lon="3.91299">
        <ele>79.2</ele>
        <time>2018-09-16T07:25:22Z</time>
      </trkpt>
      <trkpt lat="43.70018" lon="3.91303">
        <ele>79.1</ele>
        <time>2018-09-16T07:25:23Z</time>
      </trkpt>
      <trkpt lat="43.70011" lon="3.91306">
        <ele>79</ele>
        <time>2018-09-16T07:25:24Z</time>
      </trkpt>
      <trkpt lat="43.70003" lon="3.9131">
        <ele>78.8</ele>
        <time>2018-09-16T07:25:26Z</time>
      </trkpt>
      <trkpt lat="43.7" lon="3.91311">
        <ele>78.8</ele>
        <time>2018-09-16T07:25:27Z</time>
      </trkpt>
      <trkpt lat="43.7" lon="3.91321">
        <ele>78.4</ele>
        <time>2018-09-16T07:25:33Z</time>
      </trkpt>
      <trkpt lat="43.7" lon="3.91324">
        <ele>78.3</ele>
        <time>2018-09-16T07:25:34Z</time>
      </trkpt>
      <trkpt lat="43.7" lon="3.91331">
        <ele>78.1</ele>
        <time>2018-09-16T07:25:36Z</time>
      </trkpt>
      <trkpt lat="43.7" lon="3.91342">
        <ele>78</ele>
        <time>2018-09-16T07:25:37Z</time>
      </trkpt>
      <trkpt lat="43.69994" lon="3.91347">
        <ele>78.1</ele>
        <time>2018-09-16T07:25:38Z</time>
      </trkpt>
      <trkpt lat="43.69989" lon="3.91349">
        <ele>78.2</ele>
        <time>2018-09-16T07:25:39Z</time>
      </trkpt>
      <trkpt lat="43.69981" lon="3.9135">
        <ele>78.3</ele>
        <time>2018-09-16T07:25:41Z</time>
      </trkpt>
      <trkpt lat="43.69976" lon="3.91351">
        <ele>78.3</ele>
        <time>2018-09-16T07:25:42Z</time>
      </trkpt>
      <trkpt lat="43.69972" lon="3.91352">
        <ele>78.3</ele>
        <time>2018-09-16T07:25:43Z</time>
      </trkpt>
      <trkpt lat="43.69966" lon="3.91352">
        <ele>78</ele>
        <time>2018-09-16T07:25:44Z</time>
      </trkpt>
      <trkpt lat="43.6996" lon="3.91352">
        <ele>77.7</ele>
        <time>2018-09-16T07:25:45Z</time>
      </trkpt>
      <trkpt lat="43.69954" lon="3.91353">
        <ele>77.4</ele>
        <time>2018-09-16T07:25:46Z</time>
      </trkpt>
      <trkpt lat="43.69949" lon="3.91352">
        <ele>77.2</ele>
        <time>2018-09-16T07:25:47Z</time>
      </trkpt>
      <trkpt lat="43.69944" lon="3.91351">
        <ele>77.1</ele>
        <time>2018-09-16T07:25:48Z</time>
      </trkpt>
      <trkpt lat="43.69939" lon="3.91348">
        <ele>77.1</ele>
        <time>2018-09-16T07:25:49Z</time>
      </trkpt>
      <trkpt lat="43.69935" lon="3.91343">
        <ele>77.4</ele>
        <time>2018-09-16T07:25:50Z</time>
      </trkpt>
      <trkpt lat="43.69933" lon="3.91337">
        <ele>77.8</ele>
        <time>2018-09-16T07:25:51Z</time>
      </trkpt>
      <trkpt lat="43.69931" lon="3.91331">
        <ele>78.1</ele>
        <time>2018-09-16T07:25:52Z</time>
      </trkpt>
      <trkpt lat="43.69931" lon="3.91319">
        <ele>78.3</ele>
        <time>2018-09-16T07:25:54Z</time>
      </trkpt>
      <trkpt lat="43.69928" lon="3.91313">
        <ele>78.2</ele>
        <time>2018-09-16T07:25:55Z</time>
      </trkpt>
      <trkpt lat="43.69926" lon="3.91308">
        <ele>78.3</ele>
        <time>2018-09-16T07:25:56Z</time>
      </trkpt>
      <trkpt lat="43.69923" lon="3.91302">
        <ele>78.2</ele>
        <time>2018-09-16T07:25:57Z</time>
      </trkpt>
      <trkpt lat="43.69921" lon="3.91296">
        <ele>78.1</ele>
        <time>2018-09-16T07:25:58Z</time>
      </trkpt>
      <trkpt lat="43.69918" lon="3.9129">
        <ele>78</ele>
        <time>2018-09-16T07:25:59Z</time>
      </trkpt>
      <trkpt lat="43.69915" lon="3.91283">
        <ele>77.9</ele>
        <time>2018-09-16T07:26:00Z</time>
      </trkpt>
      <trkpt lat="43.69913" lon="3.91276">
        <ele>77.9</ele>
        <time>2018-09-16T07:26:01Z</time>
      </trkpt>
      <trkpt lat="43.6991" lon="3.91269">
        <ele>77.8</ele>
        <time>2018-09-16T07:26:02Z</time>
      </trkpt>
      <trkpt lat="43.69906" lon="3.91262">
        <ele>77.6</ele>
        <time>2018-09-16T07:26:03Z</time>
      </trkpt>
      <trkpt lat="43.69903" lon="3.91254">
        <ele>77.5</ele>
        <time>2018-09-16T07:26:04Z</time>
      </trkpt>
      <trkpt lat="43.69899" lon="3.91245">
        <ele>77.2</ele>
        <time>2018-09-16T07:26:05Z</time>
      </trkpt>
      <trkpt lat="43.69896" lon="3.91237">
        <ele>76.8</ele>
        <time>2018-09-16T07:26:06Z</time>
      </trkpt>
      <trkpt lat="43.69893" lon="3.91228">
        <ele>76.4</ele>
        <time>2018-09-16T07:26:07Z</time>
      </trkpt>
      <trkpt lat="43.69888" lon="3.9122">
        <ele>76</ele>
        <time>2018-09-16T07:26:08Z</time>
      </trkpt>
      <trkpt lat="43.69885" lon="3.91213">
        <ele>76</ele>
        <time>2018-09-16T07:26:09Z</time>
      </trkpt>
      <trkpt lat="43.69881" lon="3.91205">
        <ele>75.8</ele>
        <time>2018-09-16T07:26:10Z</time>
      </trkpt>
      <trkpt lat="43.69879" lon="3.91195">
        <ele>75.7</ele>
        <time>2018-09-16T07:26:11Z</time>
      </trkpt>
      <trkpt lat="43.69877" lon="3.91186">
        <ele>75.6</ele>
        <time>2018-09-16T07:26:12Z</time>
      </trkpt>
      <trkpt lat="43.69873" lon="3.91177">
        <ele>75.4</ele>
        <time>2018-09-16T07:26:13Z</time>
      </trkpt>
      <trkpt lat="43.6987" lon="3.91168">
        <ele>75.3</ele>
        <time>2018-09-16T07:26:14Z</time>
      </trkpt>
      <trkpt lat="43.69866" lon="3.9116">
        <ele>75.4</ele>
        <time>2018-09-16T07:26:15Z</time>
      </trkpt>
      <trkpt lat="43.69862" lon="3.91153">
        <ele>75.5</ele>
        <time>2018-09-16T07:26:16Z</time>
      </trkpt>
      <trkpt lat="43.69857" lon="3.91146">
        <ele>75.6</ele>
        <time>2018-09-16T07:26:17Z</time>
      </trkpt>
      <trkpt lat="43.69852" lon="3.91139">
        <ele>75.7</ele>
        <time>2018-09-16T07:26:18Z</time>
      </trkpt>
      <trkpt lat="43.69848" lon="3.91134">
        <ele>75.8</ele>
        <time>2018-09-16T07:26:19Z</time>
      </trkpt>
      <trkpt lat="43.69843" lon="3.91127">
        <ele>76.1</ele>
        <time>2018-09-16T07:26:20Z</time>
      </trkpt>
      <trkpt lat="43.69838" lon="3.91122">
        <ele>76.3</ele>
        <time>2018-09-16T07:26:21Z</time>
      </trkpt>
      <trkpt lat="43.69835" lon="3.91115">
        <ele>76.7</ele>
        <time>2018-09-16T07:26:22Z</time>
      </trkpt>
      <trkpt lat="43.6983" lon="3.9111">
        <ele>76.9</ele>
        <time>2018-09-16T07:26:23Z</time>
      </trkpt>
      <trkpt lat="43.69826" lon="3.91107">
        <ele>76.8</ele>
        <time>2018-09-16T07:26:24Z</time>
      </trkpt>
      <trkpt lat="43.69821" lon="3.91102">
        <ele>76.7</ele>
        <time>2018-09-16T07:26:25Z</time>
      </trkpt>
      <trkpt lat="43.69817" lon="3.91096">
        <ele>76.7</ele>
        <time>2018-09-16T07:26:26Z</time>
      </trkpt>
      <trkpt lat="43.69813" lon="3.91091">
        <ele>76.8</ele>
        <time>2018-09-16T07:26:27Z</time>
      </trkpt>
      <trkpt lat="43.69808" lon="3.91086">
        <ele>76.9</ele>
        <time>2018-09-16T07:26:28Z</time>
      </trkpt>
      <trkpt lat="43.69804" lon="3.91079">
        <ele>76.9</ele>
        <time>2018-09-16T07:26:29Z</time>
      </trkpt>
      <trkpt lat="43.698" lon="3.91073">
        <ele>76.8</ele>
        <time>2018-09-16T07:26:30Z</time>
      </trkpt>
      <trkpt lat="43.69796" lon="3.91066">
        <ele>76.7</ele>
        <time>2018-09-16T07:26:31Z</time>
      </trkpt>
      <trkpt lat="43.69791" lon="3.91058">
        <ele>76.5</ele>
        <time>2018-09-16T07:26:32Z</time>
      </trkpt>
      <trkpt lat="43.69786" lon="3.91051">
        <ele>76.4</ele>
        <time>2018-09-16T07:26:33Z</time>
      </trkpt>
      <trkpt lat="43.69782" lon="3.91045">
        <ele>76.5</ele>
        <time>2018-09-16T07:26:34Z</time>
      </trkpt>
      <trkpt lat="43.69778" lon="3.9104">
        <ele>76.6</ele>
        <time>2018-09-16T07:26:35Z</time>
      </trkpt>
      <trkpt lat="43.69773" lon="3.91033">
        <ele>76.5</ele>
        <time>2018-09-16T07:26:36Z</time>
      </trkpt>
      <trkpt lat="43.69769" lon="3.91026">
        <ele>76.3</ele>
        <time>2018-09-16T07:26:37Z</time>
      </trkpt>
      <trkpt lat="43.69764" lon="3.9102">
        <ele>76</ele>
        <time>2018-09-16T07:26:38Z</time>
      </trkpt>
      <trkpt lat="43.6976" lon="3.91014">
        <ele>75.9</ele>
        <time>2018-09-16T07:26:39Z</time>
      </trkpt>
      <trkpt lat="43.69755" lon="3.91008">
        <ele>75.8</ele>
        <time>2018-09-16T07:26:40Z</time>
      </trkpt>
      <trkpt lat="43.6975" lon="3.91001">
        <ele>76</ele>
        <time>2018-09-16T07:26:41Z</time>
      </trkpt>
      <trkpt lat="43.69745" lon="3.90996">
        <ele>75.7</ele>
        <time>2018-09-16T07:26:42Z</time>
      </trkpt>
      <trkpt lat="43.6974" lon="3.9099">
        <ele>75.4</ele>
        <time>2018-09-16T07:26:43Z</time>
      </trkpt>
      <trkpt lat="43.69735" lon="3.90984">
        <ele>75.2</ele>
        <time>2018-09-16T07:26:44Z</time>
      </trkpt>
      <trkpt lat="43.6973" lon="3.90979">
        <ele>75.1</ele>
        <time>2018-09-16T07:26:45Z</time>
      </trkpt>
      <trkpt lat="43.69726" lon="3.90973">
        <ele>75.1</ele>
        <time>2018-09-16T07:26:46Z</time>
      </trkpt>
      <trkpt lat="43.69721" lon="3.90968">
        <ele>75</ele>
        <time>2018-09-16T07:26:47Z</time>
      </trkpt>
      <trkpt lat="43.69716" lon="3.90963">
        <ele>74.9</ele>
        <time>2018-09-16T07:26:48Z</time>
      </trkpt>
      <trkpt lat="43.6971" lon="3.90958">
        <ele>74.8</ele>
        <time>2018-09-16T07:26:49Z</time>
      </trkpt>
      <trkpt lat="43.69704" lon="3.90953">
        <ele>74.8</ele>
        <time>2018-09-16T07:26:50Z</time>
      </trkpt>
      <trkpt lat="43.69699" lon="3.90948">
        <ele>74.9</ele>
        <time>2018-09-16T07:26:51Z</time>
      </trkpt>
      <trkpt lat="43.69693" lon="3.90943">
        <ele>74.9</ele>
        <time>2018-09-16T07:26:52Z</time>
      </trkpt>
      <trkpt lat="43.69688" lon="3.90937">
        <ele>74.6</ele>
        <time>2018-09-16T07:26:53Z</time>
      </trkpt>
      <trkpt lat="43.69683" lon="3.90931">
        <ele>74.4</ele>
        <time>2018-09-16T07:26:54Z</time>
      </trkpt>
      <trkpt lat="43.69679" lon="3.90925">
        <ele>74.3</ele>
        <time>2018-09-16T07:26:55Z</time>
      </trkpt>
      <trkpt lat="43.69674" lon="3.9092">
        <ele>74.2</ele>
        <time>2018-09-16T07:26:56Z</time>
      </trkpt>
      <trkpt lat="43.69669" lon="3.90915">
        <ele>74.1</ele>
        <time>2018-09-16T07:26:57Z</time>
      </trkpt>
      <trkpt lat="43.69664" lon="3.90909">
        <ele>74.2</ele>
        <time>2018-09-16T07:26:58Z</time>
      </trkpt>
      <trkpt lat="43.6966" lon="3.90904">
        <ele>74.2</ele>
        <time>2018-09-16T07:26:59Z</time>
      </trkpt>
      <trkpt lat="43.69655" lon="3.90898">
        <ele>74.3</ele>
        <time>2018-09-16T07:27:00Z</time>
      </trkpt>
      <trkpt lat="43.69651" lon="3.90892">
        <ele>74.3</ele>
        <time>2018-09-16T07:27:01Z</time>
      </trkpt>
      <trkpt lat="43.69646" lon="3.90887">
        <ele>74.3</ele>
        <time>2018-09-16T07:27:02Z</time>
      </trkpt>
      <trkpt lat="43.69641" lon="3.90882">
        <ele>74.3</ele>
        <time>2018-09-16T07:27:03Z</time>
      </trkpt>
      <trkpt lat="43.69636" lon="3.90877">
        <ele>74.3</ele>
        <time>2018-09-16T07:27:04Z</time>
      </trkpt>
      <trkpt lat="43.69632" lon="3.90872">
        <ele>74.4</ele>
        <time>2018-09-16T07:27:05Z</time>
      </trkpt>
      <trkpt lat="43.69627" lon="3.90866">
        <ele>74.4</ele>
        <time>2018-09-16T07:27:06Z</time>
      </trkpt>
      <trkpt lat="43.69622" lon="3.90862">
        <ele>74.4</ele>
        <time>2018-09-16T07:27:07Z</time>
      </trkpt>
      <trkpt lat="43.69617" lon="3.90861">
        <ele>74.2</ele>
        <time>2018-09-16T07:27:08Z</time>
      </trkpt>
      <trkpt lat="43.6961" lon="3.90862">
        <ele>73.9</ele>
        <time>2018-09-16T07:27:09Z</time>
      </trkpt>
      <trkpt lat="43.69604" lon="3.90865">
        <ele>73.6</ele>
        <time>2018-09-16T07:27:10Z</time>
      </trkpt>
      <trkpt lat="43.69597" lon="3.90868">
        <ele>73.2</ele>
        <time>2018-09-16T07:27:11Z</time>
      </trkpt>
      <trkpt lat="43.6959" lon="3.9087">
        <ele>72.9</ele>
        <time>2018-09-16T07:27:12Z</time>
      </trkpt>
      <trkpt lat="43.69584" lon="3.90873">
        <ele>72.6</ele>
        <time>2018-09-16T07:27:13Z</time>
      </trkpt>
      <trkpt lat="43.69577" lon="3.90876">
        <ele>72.4</ele>
        <time>2018-09-16T07:27:14Z</time>
      </trkpt>
      <trkpt lat="43.6957" lon="3.90879">
        <ele>72.2</ele>
        <time>2018-09-16T07:27:15Z</time>
      </trkpt>
      <trkpt lat="43.69564" lon="3.90883">
        <ele>72.1</ele>
        <time>2018-09-16T07:27:16Z</time>
      </trkpt>
      <trkpt lat="43.69558" lon="3.90886">
        <ele>72</ele>
        <time>2018-09-16T07:27:17Z</time>
      </trkpt>
      <trkpt lat="43.69551" lon="3.90889">
        <ele>72</ele>
        <time>2018-09-16T07:27:18Z</time>
      </trkpt>
      <trkpt lat="43.69545" lon="3.90892">
        <ele>72</ele>
        <time>2018-09-16T07:27:19Z</time>
      </trkpt>
      <trkpt lat="43.6954" lon="3.90896">
        <ele>72</ele>
        <time>2018-09-16T07:27:20Z</time>
      </trkpt>
      <trkpt lat="43.69534" lon="3.909">
        <ele>72</ele>
        <time>2018-09-16T07:27:21Z</time>
      </trkpt>
      <trkpt lat="43.69528" lon="3.90904">
        <ele>72</ele>
        <time>2018-09-16T07:27:22Z</time>
      </trkpt>
      <trkpt lat="43.69523" lon="3.90908">
        <ele>72</ele>
        <time>2018-09-16T07:27:23Z</time>
      </trkpt>
      <trkpt lat="43.69517" lon="3.90912">
        <ele>72</ele>
        <time>2018-09-16T07:27:24Z</time>
      </trkpt>
      <trkpt lat="43.69511" lon="3.90916">
        <ele>72</ele>
        <time>2018-09-16T07:27:25Z</time>
      </trkpt>
      <trkpt lat="43.69505" lon="3.9092">
        <ele>71.9</ele>
        <time>2018-09-16T07:27:26Z</time>
      </trkpt>
      <trkpt lat="43.695" lon="3.90923">
        <ele>71.8</ele>
        <time>2018-09-16T07:27:27Z</time>
      </trkpt>
      <trkpt lat="43.69494" lon="3.90928">
        <ele>71.6</ele>
        <time>2018-09-16T07:27:28Z</time>
      </trkpt>
      <trkpt lat="43.69489" lon="3.90933">
        <ele>71.4</ele>
        <time>2018-09-16T07:27:29Z</time>
      </trkpt>
      <trkpt lat="43.69484" lon="3.90938">
        <ele>71.2</ele>
        <time>2018-09-16T07:27:30Z</time>
      </trkpt>
      <trkpt lat="43.69479" lon="3.90943">
        <ele>71.1</ele>
        <time>2018-09-16T07:27:31Z</time>
      </trkpt>
      <trkpt lat="43.69474" lon="3.90947">
        <ele>71</ele>
        <time>2018-09-16T07:27:32Z</time>
      </trkpt>
      <trkpt lat="43.69469" lon="3.90952">
        <ele>71.1</ele>
        <time>2018-09-16T07:27:33Z</time>
      </trkpt>
      <trkpt lat="43.69463" lon="3.90956">
        <ele>71.2</ele>
        <time>2018-09-16T07:27:34Z</time>
      </trkpt>
      <trkpt lat="43.69457" lon="3.9096">
        <ele>71.2</ele>
        <time>2018-09-16T07:27:35Z</time>
      </trkpt>
      <trkpt lat="43.69452" lon="3.90964">
        <ele>71.2</ele>
        <time>2018-09-16T07:27:36Z</time>
      </trkpt>
      <trkpt lat="43.69447" lon="3.90968">
        <ele>71.1</ele>
        <time>2018-09-16T07:27:37Z</time>
      </trkpt>
      <trkpt lat="43.69442" lon="3.90973">
        <ele>71.1</ele>
        <time>2018-09-16T07:27:38Z</time>
      </trkpt>
      <trkpt lat="43.69438" lon="3.90977">
        <ele>71.2</ele>
        <time>2018-09-16T07:27:39Z</time>
      </trkpt>
      <trkpt lat="43.69433" lon="3.90981">
        <ele>71.4</ele>
        <time>2018-09-16T07:27:40Z</time>
      </trkpt>
      <trkpt lat="43.69429" lon="3.90986">
        <ele>71.6</ele>
        <time>2018-09-16T07:27:41Z</time>
      </trkpt>
      <trkpt lat="43.69421" lon="3.90992">
        <ele>71.8</ele>
        <time>2018-09-16T07:27:43Z</time>
      </trkpt>
      <trkpt lat="43.69417" lon="3.90993">
        <ele>72</ele>
        <time>2018-09-16T07:27:44Z</time>
      </trkpt>
      <trkpt lat="43.69411" lon="3.91">
        <ele>72</ele>
        <time>2018-09-16T07:27:48Z</time>
      </trkpt>
      <trkpt lat="43.69409" lon="3.91001">
        <ele>72</ele>
        <time>2018-09-16T07:27:49Z</time>
      </trkpt>
      <trkpt lat="43.69401" lon="3.91005">
        <ele>72.1</ele>
        <time>2018-09-16T07:27:53Z</time>
      </trkpt>
      <trkpt lat="43.69399" lon="3.91005">
        <ele>72.1</ele>
        <time>2018-09-16T07:27:54Z</time>
      </trkpt>
      <trkpt lat="43.69396" lon="3.91006">
        <ele>72.2</ele>
        <time>2018-09-16T07:27:55Z</time>
      </trkpt>
      <trkpt lat="43.69387" lon="3.91009">
        <ele>72.3</ele>
        <time>2018-09-16T07:27:56Z</time>
      </trkpt>
      <trkpt lat="43.69383" lon="3.91011">
        <ele>72.1</ele>
        <time>2018-09-16T07:27:57Z</time>
      </trkpt>
      <trkpt lat="43.69377" lon="3.91013">
        <ele>71.9</ele>
        <time>2018-09-16T07:27:58Z</time>
      </trkpt>
      <trkpt lat="43.69372" lon="3.91015">
        <ele>71.6</ele>
        <time>2018-09-16T07:27:59Z</time>
      </trkpt>
      <trkpt lat="43.69367" lon="3.91018">
        <ele>71.1</ele>
        <time>2018-09-16T07:28:00Z</time>
      </trkpt>
      <trkpt lat="43.69361" lon="3.91024">
        <ele>70.3</ele>
        <time>2018-09-16T07:28:01Z</time>
      </trkpt>
      <trkpt lat="43.69356" lon="3.91029">
        <ele>70.2</ele>
        <time>2018-09-16T07:28:02Z</time>
      </trkpt>
      <trkpt lat="43.6935" lon="3.91035">
        <ele>70.2</ele>
        <time>2018-09-16T07:28:03Z</time>
      </trkpt>
      <trkpt lat="43.69345" lon="3.9104">
        <ele>70</ele>
        <time>2018-09-16T07:28:04Z</time>
      </trkpt>
      <trkpt lat="43.69339" lon="3.91046">
        <ele>69.4</ele>
        <time>2018-09-16T07:28:05Z</time>
      </trkpt>
      <trkpt lat="43.69333" lon="3.91052">
        <ele>68.4</ele>
        <time>2018-09-16T07:28:06Z</time>
      </trkpt>
      <trkpt lat="43.69328" lon="3.91058">
        <ele>67.9</ele>
        <time>2018-09-16T07:28:07Z</time>
      </trkpt>
      <trkpt lat="43.69321" lon="3.91065">
        <ele>67.5</ele>
        <time>2018-09-16T07:28:08Z</time>
      </trkpt>
      <trkpt lat="43.69315" lon="3.91071">
        <ele>67.1</ele>
        <time>2018-09-16T07:28:09Z</time>
      </trkpt>
      <trkpt lat="43.69309" lon="3.91076">
        <ele>66.6</ele>
        <time>2018-09-16T07:28:10Z</time>
      </trkpt>
      <trkpt lat="43.69302" lon="3.91079">
        <ele>66.3</ele>
        <time>2018-09-16T07:28:11Z</time>
      </trkpt>
      <trkpt lat="43.69295" lon="3.9108">
        <ele>66.2</ele>
        <time>2018-09-16T07:28:12Z</time>
      </trkpt>
      <trkpt lat="43.69288" lon="3.91082">
        <ele>66.1</ele>
        <time>2018-09-16T07:28:13Z</time>
      </trkpt>
      <trkpt lat="43.69281" lon="3.91083">
        <ele>66</ele>
        <time>2018-09-16T07:28:14Z</time>
      </trkpt>
      <trkpt lat="43.69275" lon="3.91085">
        <ele>66.4</ele>
        <time>2018-09-16T07:28:15Z</time>
      </trkpt>
      <trkpt lat="43.69272" lon="3.91085">
        <ele>66.4</ele>
        <time>2018-09-16T07:28:16Z</time>
      </trkpt>
      <trkpt lat="43.69267" lon="3.91087">
        <ele>66.9</ele>
        <time>2018-09-16T07:28:17Z</time>
      </trkpt>
      <trkpt lat="43.69263" lon="3.9109">
        <ele>67.6</ele>
        <time>2018-09-16T07:28:18Z</time>
      </trkpt>
      <trkpt lat="43.69257" lon="3.91091">
        <ele>67.7</ele>
        <time>2018-09-16T07:28:19Z</time>
      </trkpt>
      <trkpt lat="43.69252" lon="3.91094">
        <ele>68.3</ele>
        <time>2018-09-16T07:28:20Z</time>
      </trkpt>
      <trkpt lat="43.69247" lon="3.91095">
        <ele>68.4</ele>
        <time>2018-09-16T07:28:21Z</time>
      </trkpt>
      <trkpt lat="43.69241" lon="3.91097">
        <ele>68.6</ele>
        <time>2018-09-16T07:28:22Z</time>
      </trkpt>
      <trkpt lat="43.69234" lon="3.91098">
        <ele>68.6</ele>
        <time>2018-09-16T07:28:23Z</time>
      </trkpt>
      <trkpt lat="43.69228" lon="3.91099">
        <ele>68.5</ele>
        <time>2018-09-16T07:28:24Z</time>
      </trkpt>
      <trkpt lat="43.69222" lon="3.911">
        <ele>68.4</ele>
        <time>2018-09-16T07:28:25Z</time>
      </trkpt>
      <trkpt lat="43.69216" lon="3.911">
        <ele>68</ele>
        <time>2018-09-16T07:28:26Z</time>
      </trkpt>
      <trkpt lat="43.69211" lon="3.91101">
        <ele>67.9</ele>
        <time>2018-09-16T07:28:27Z</time>
      </trkpt>
      <trkpt lat="43.69206" lon="3.91103">
        <ele>67.8</ele>
        <time>2018-09-16T07:28:28Z</time>
      </trkpt>
      <trkpt lat="43.69201" lon="3.91104">
        <ele>67.6</ele>
        <time>2018-09-16T07:28:29Z</time>
      </trkpt>
      <trkpt lat="43.69195" lon="3.91105">
        <ele>67.4</ele>
        <time>2018-09-16T07:28:30Z</time>
      </trkpt>
      <trkpt lat="43.69186" lon="3.9111">
        <ele>67.6</ele>
        <time>2018-09-16T07:28:32Z</time>
      </trkpt>
      <trkpt lat="43.69183" lon="3.91114">
        <ele>67.9</ele>
        <time>2018-09-16T07:28:33Z</time>
      </trkpt>
      <trkpt lat="43.69175" lon="3.9112">
        <ele>68</ele>
        <time>2018-09-16T07:28:35Z</time>
      </trkpt>
      <trkpt lat="43.69171" lon="3.91124">
        <ele>68.2</ele>
        <time>2018-09-16T07:28:36Z</time>
      </trkpt>
      <trkpt lat="43.69167" lon="3.91131">
        <ele>68.4</ele>
        <time>2018-09-16T07:28:37Z</time>
      </trkpt>
      <trkpt lat="43.69162" lon="3.9113">
        <ele>68.2</ele>
        <time>2018-09-16T07:28:38Z</time>
      </trkpt>
      <trkpt lat="43.69157" lon="3.91129">
        <ele>67.9</ele>
        <time>2018-09-16T07:28:39Z</time>
      </trkpt>
      <trkpt lat="43.69152" lon="3.9113">
        <ele>67.8</ele>
        <time>2018-09-16T07:28:40Z</time>
      </trkpt>
      <trkpt lat="43.69147" lon="3.91123">
        <ele>67.1</ele>
        <time>2018-09-16T07:28:41Z</time>
      </trkpt>
      <trkpt lat="43.69142" lon="3.91118">
        <ele>66.6</ele>
        <time>2018-09-16T07:28:42Z</time>
      </trkpt>
      <trkpt lat="43.69139" lon="3.91113">
        <ele>66.1</ele>
        <time>2018-09-16T07:28:43Z</time>
      </trkpt>
      <trkpt lat="43.69134" lon="3.9111">
        <ele>66</ele>
        <time>2018-09-16T07:28:44Z</time>
      </trkpt>
      <trkpt lat="43.69127" lon="3.91109">
        <ele>65.9</ele>
        <time>2018-09-16T07:28:46Z</time>
      </trkpt>
      <trkpt lat="43.69123" lon="3.91109">
        <ele>65.9</ele>
        <time>2018-09-16T07:28:47Z</time>
      </trkpt>
      <trkpt lat="43.69115" lon="3.9111">
        <ele>66</ele>
        <time>2018-09-16T07:28:49Z</time>
      </trkpt>
      <trkpt lat="43.6911" lon="3.91111">
        <ele>65.9</ele>
        <time>2018-09-16T07:28:50Z</time>
      </trkpt>
      <trkpt lat="43.69104" lon="3.91112">
        <ele>65.5</ele>
        <time>2018-09-16T07:28:51Z</time>
      </trkpt>
      <trkpt lat="43.69097" lon="3.91113">
        <ele>65.1</ele>
        <time>2018-09-16T07:28:52Z</time>
      </trkpt>
      <trkpt lat="43.69092" lon="3.91113">
        <ele>64.7</ele>
        <time>2018-09-16T07:28:53Z</time>
      </trkpt>
      <trkpt lat="43.69086" lon="3.91115">
        <ele>64.4</ele>
        <time>2018-09-16T07:28:54Z</time>
      </trkpt>
      <trkpt lat="43.69077" lon="3.91114">
        <ele>64.2</ele>
        <time>2018-09-16T07:28:55Z</time>
      </trkpt>
      <trkpt lat="43.69072" lon="3.91114">
        <ele>64.2</ele>
        <time>2018-09-16T07:28:56Z</time>
      </trkpt>
      <trkpt lat="43.69065" lon="3.91117">
        <ele>64.3</ele>
        <time>2018-09-16T07:28:57Z</time>
      </trkpt>
      <trkpt lat="43.6906" lon="3.91119">
        <ele>64.3</ele>
        <time>2018-09-16T07:28:58Z</time>
      </trkpt>
      <trkpt lat="43.69053" lon="3.91122">
        <ele>64.4</ele>
        <time>2018-09-16T07:28:59Z</time>
      </trkpt>
      <trkpt lat="43.69046" lon="3.91125">
        <ele>64.5</ele>
        <time>2018-09-16T07:29:00Z</time>
      </trkpt>
      <trkpt lat="43.69039" lon="3.91131">
        <ele>64.5</ele>
        <time>2018-09-16T07:29:01Z</time>
      </trkpt>
      <trkpt lat="43.69034" lon="3.91133">
        <ele>64.3</ele>
        <time>2018-09-16T07:29:02Z</time>
      </trkpt>
      <trkpt lat="43.6903" lon="3.91135">
        <ele>64.2</ele>
        <time>2018-09-16T07:29:03Z</time>
      </trkpt>
      <trkpt lat="43.69024" lon="3.91136">
        <ele>64</ele>
        <time>2018-09-16T07:29:04Z</time>
      </trkpt>
      <trkpt lat="43.69016" lon="3.91138">
        <ele>63.6</ele>
        <time>2018-09-16T07:29:05Z</time>
      </trkpt>
      <trkpt lat="43.69011" lon="3.91137">
        <ele>63.5</ele>
        <time>2018-09-16T07:29:06Z</time>
      </trkpt>
      <trkpt lat="43.69005" lon="3.91137">
        <ele>63.4</ele>
        <time>2018-09-16T07:29:07Z</time>
      </trkpt>
      <trkpt lat="43.68998" lon="3.91137">
        <ele>63.2</ele>
        <time>2018-09-16T07:29:08Z</time>
      </trkpt>
      <trkpt lat="43.68994" lon="3.91133">
        <ele>63.6</ele>
        <time>2018-09-16T07:29:09Z</time>
      </trkpt>
      <trkpt lat="43.68989" lon="3.91132">
        <ele>63.7</ele>
        <time>2018-09-16T07:29:10Z</time>
      </trkpt>
      <trkpt lat="43.68982" lon="3.91131">
        <ele>63.9</ele>
        <time>2018-09-16T07:29:11Z</time>
      </trkpt>
      <trkpt lat="43.68976" lon="3.91129">
        <ele>64.1</ele>
        <time>2018-09-16T07:29:12Z</time>
      </trkpt>
      <trkpt lat="43.68972" lon="3.91128">
        <ele>64.2</ele>
        <time>2018-09-16T07:29:13Z</time>
      </trkpt>
      <trkpt lat="43.68967" lon="3.91128">
        <ele>64.4</ele>
        <time>2018-09-16T07:29:14Z</time>
      </trkpt>
      <trkpt lat="43.68962" lon="3.91127">
        <ele>64.7</ele>
        <time>2018-09-16T07:29:15Z</time>
      </trkpt>
      <trkpt lat="43.68957" lon="3.91127">
        <ele>64.8</ele>
        <time>2018-09-16T07:29:16Z</time>
      </trkpt>
      <trkpt lat="43.68953" lon="3.91125">
        <ele>65.2</ele>
        <time>2018-09-16T07:29:17Z</time>
      </trkpt>
      <trkpt lat="43.68948" lon="3.91123">
        <ele>65.6</ele>
        <time>2018-09-16T07:29:18Z</time>
      </trkpt>
      <trkpt lat="43.68941" lon="3.91117">
        <ele>66.1</ele>
        <time>2018-09-16T07:29:20Z</time>
      </trkpt>
      <trkpt lat="43.68939" lon="3.9111">
        <ele>66.6</ele>
        <time>2018-09-16T07:29:21Z</time>
      </trkpt>
      <trkpt lat="43.68938" lon="3.91099">
        <ele>66.6</ele>
        <time>2018-09-16T07:29:23Z</time>
      </trkpt>
      <trkpt lat="43.68938" lon="3.91094">
        <ele>66.7</ele>
        <time>2018-09-16T07:29:24Z</time>
      </trkpt>
      <trkpt lat="43.68939" lon="3.91082">
        <ele>66.8</ele>
        <time>2018-09-16T07:29:27Z</time>
      </trkpt>
      <trkpt lat="43.68941" lon="3.91075">
        <ele>67.1</ele>
        <time>2018-09-16T07:29:28Z</time>
      </trkpt>
      <trkpt lat="43.68944" lon="3.91066">
        <ele>67.6</ele>
        <time>2018-09-16T07:29:31Z</time>
      </trkpt>
      <trkpt lat="43.68945" lon="3.91063">
        <ele>67.7</ele>
        <time>2018-09-16T07:29:32Z</time>
      </trkpt>
      <trkpt lat="43.68948" lon="3.91052">
        <ele>68</ele>
        <time>2018-09-16T07:29:33Z</time>
      </trkpt>
      <trkpt lat="43.68948" lon="3.91049">
        <ele>68.1</ele>
        <time>2018-09-16T07:29:34Z</time>
      </trkpt>
      <trkpt lat="43.68948" lon="3.91037">
        <ele>68.2</ele>
        <time>2018-09-16T07:29:37Z</time>
      </trkpt>
      <trkpt lat="43.68949" lon="3.91033">
        <ele>68.3</ele>
        <time>2018-09-16T07:29:38Z</time>
      </trkpt>
      <trkpt lat="43.68949" lon="3.91024">
        <ele>68.4</ele>
        <time>2018-09-16T07:29:40Z</time>
      </trkpt>
      <trkpt lat="43.6895" lon="3.9102">
        <ele>68.5</ele>
        <time>2018-09-16T07:29:41Z</time>
      </trkpt>
      <trkpt lat="43.68952" lon="3.91011">
        <ele>68.7</ele>
        <time>2018-09-16T07:29:43Z</time>
      </trkpt>
      <trkpt lat="43.68954" lon="3.91007">
        <ele>68.9</ele>
        <time>2018-09-16T07:29:44Z</time>
      </trkpt>
      <trkpt lat="43.68956" lon="3.90999">
        <ele>69.3</ele>
        <time>2018-09-16T07:29:46Z</time>
      </trkpt>
      <trkpt lat="43.68957" lon="3.90995">
        <ele>69.5</ele>
        <time>2018-09-16T07:29:47Z</time>
      </trkpt>
      <trkpt lat="43.6896" lon="3.90985">
        <ele>70.2</ele>
        <time>2018-09-16T07:29:50Z</time>
      </trkpt>
      <trkpt lat="43.68961" lon="3.90982">
        <ele>70.4</ele>
        <time>2018-09-16T07:29:51Z</time>
      </trkpt>
      <trkpt lat="43.68964" lon="3.90972">
        <ele>71.1</ele>
        <time>2018-09-16T07:29:54Z</time>
      </trkpt>
      <trkpt lat="43.68965" lon="3.90969">
        <ele>71.3</ele>
        <time>2018-09-16T07:29:55Z</time>
      </trkpt>
      <trkpt lat="43.68969" lon="3.90959">
        <ele>71.8</ele>
        <time>2018-09-16T07:29:58Z</time>
      </trkpt>
      <trkpt lat="43.6897" lon="3.90956">
        <ele>71.9</ele>
        <time>2018-09-16T07:29:59Z</time>
      </trkpt>
      <trkpt lat="43.68974" lon="3.90945">
        <ele>72.2</ele>
        <time>2018-09-16T07:30:02Z</time>
      </trkpt>
      <trkpt lat="43.68975" lon="3.90942">
        <ele>72.3</ele>
        <time>2018-09-16T07:30:03Z</time>
      </trkpt>
      <trkpt lat="43.68978" lon="3.90931">
        <ele>72.6</ele>
        <time>2018-09-16T07:30:06Z</time>
      </trkpt>
      <trkpt lat="43.68979" lon="3.90928">
        <ele>72.7</ele>
        <time>2018-09-16T07:30:07Z</time>
      </trkpt>
      <trkpt lat="43.6898" lon="3.90919">
        <ele>72.8</ele>
        <time>2018-09-16T07:30:09Z</time>
      </trkpt>
      <trkpt lat="43.6898" lon="3.90915">
        <ele>72.9</ele>
        <time>2018-09-16T07:30:10Z</time>
      </trkpt>
      <trkpt lat="43.68979" lon="3.90907">
        <ele>73.2</ele>
        <time>2018-09-16T07:30:12Z</time>
      </trkpt>
      <trkpt lat="43.68979" lon="3.90902">
        <ele>73.4</ele>
        <time>2018-09-16T07:30:13Z</time>
      </trkpt>
      <trkpt lat="43.68977" lon="3.90891">
        <ele>73.6</ele>
        <time>2018-09-16T07:30:16Z</time>
      </trkpt>
      <trkpt lat="43.68977" lon="3.90887">
        <ele>73.8</ele>
        <time>2018-09-16T07:30:17Z</time>
      </trkpt>
      <trkpt lat="43.68974" lon="3.90875">
        <ele>74.3</ele>
        <time>2018-09-16T07:30:20Z</time>
      </trkpt>
      <trkpt lat="43.68972" lon="3.90871">
        <ele>74.3</ele>
        <time>2018-09-16T07:30:21Z</time>
      </trkpt>
      <trkpt lat="43.6897" lon="3.90863">
        <ele>74.7</ele>
        <time>2018-09-16T07:30:23Z</time>
      </trkpt>
      <trkpt lat="43.68969" lon="3.9086">
        <ele>74.8</ele>
        <time>2018-09-16T07:30:24Z</time>
      </trkpt>
      <trkpt lat="43.68966" lon="3.90849">
        <ele>75.3</ele>
        <time>2018-09-16T07:30:27Z</time>
      </trkpt>
      <trkpt lat="43.68965" lon="3.90845">
        <ele>75.5</ele>
        <time>2018-09-16T07:30:28Z</time>
      </trkpt>
      <trkpt lat="43.68962" lon="3.90834">
        <ele>75.9</ele>
        <time>2018-09-16T07:30:31Z</time>
      </trkpt>
      <trkpt lat="43.68961" lon="3.9083">
        <ele>75.9</ele>
        <time>2018-09-16T07:30:32Z</time>
      </trkpt>
      <trkpt lat="43.68959" lon="3.90819">
        <ele>76.1</ele>
        <time>2018-09-16T07:30:35Z</time>
      </trkpt>
      <trkpt lat="43.68958" lon="3.90815">
        <ele>76.1</ele>
        <time>2018-09-16T07:30:36Z</time>
      </trkpt>
      <trkpt lat="43.68955" lon="3.90804">
        <ele>76.2</ele>
        <time>2018-09-16T07:30:39Z</time>
      </trkpt>
      <trkpt lat="43.68954" lon="3.90799">
        <ele>76.3</ele>
        <time>2018-09-16T07:30:40Z</time>
      </trkpt>
      <trkpt lat="43.68953" lon="3.90791">
        <ele>76.6</ele>
        <time>2018-09-16T07:30:42Z</time>
      </trkpt>
      <trkpt lat="43.68952" lon="3.90787">
        <ele>76.7</ele>
        <time>2018-09-16T07:30:43Z</time>
      </trkpt>
      <trkpt lat="43.68949" lon="3.90776">
        <ele>76.8</ele>
        <time>2018-09-16T07:30:46Z</time>
      </trkpt>
      <trkpt lat="43.68948" lon="3.90773">
        <ele>76.9</ele>
        <time>2018-09-16T07:30:47Z</time>
      </trkpt>
      <trkpt lat="43.68944" lon="3.90761">
        <ele>77.2</ele>
        <time>2018-09-16T07:30:50Z</time>
      </trkpt>
      <trkpt lat="43.68944" lon="3.90758">
        <ele>77.4</ele>
        <time>2018-09-16T07:30:51Z</time>
      </trkpt>
      <trkpt lat="43.68943" lon="3.90747">
        <ele>78.2</ele>
        <time>2018-09-16T07:30:54Z</time>
      </trkpt>
      <trkpt lat="43.68942" lon="3.90743">
        <ele>78.5</ele>
        <time>2018-09-16T07:30:55Z</time>
      </trkpt>
      <trkpt lat="43.68939" lon="3.90731">
        <ele>79.1</ele>
        <time>2018-09-16T07:30:58Z</time>
      </trkpt>
      <trkpt lat="43.68938" lon="3.90727">
        <ele>79.3</ele>
        <time>2018-09-16T07:30:59Z</time>
      </trkpt>
      <trkpt lat="43.68935" lon="3.90719">
        <ele>79.4</ele>
        <time>2018-09-16T07:31:01Z</time>
      </trkpt>
      <trkpt lat="43.68934" lon="3.90715">
        <ele>79.5</ele>
        <time>2018-09-16T07:31:02Z</time>
      </trkpt>
      <trkpt lat="43.68932" lon="3.90707">
        <ele>79.7</ele>
        <time>2018-09-16T07:31:04Z</time>
      </trkpt>
      <trkpt lat="43.68931" lon="3.90703">
        <ele>79.7</ele>
        <time>2018-09-16T07:31:05Z</time>
      </trkpt>
      <trkpt lat="43.6893" lon="3.90694">
        <ele>80</ele>
        <time>2018-09-16T07:31:07Z</time>
      </trkpt>
      <trkpt lat="43.68929" lon="3.9069">
        <ele>80</ele>
        <time>2018-09-16T07:31:08Z</time>
      </trkpt>
      <trkpt lat="43.68928" lon="3.90679">
        <ele>80.3</ele>
        <time>2018-09-16T07:31:11Z</time>
      </trkpt>
      <trkpt lat="43.68927" lon="3.90675">
        <ele>80.3</ele>
        <time>2018-09-16T07:31:12Z</time>
      </trkpt>
      <trkpt lat="43.68925" lon="3.90664">
        <ele>80.4</ele>
        <time>2018-09-16T07:31:15Z</time>
      </trkpt>
      <trkpt lat="43.68924" lon="3.9066">
        <ele>80.5</ele>
        <time>2018-09-16T07:31:16Z</time>
      </trkpt>
      <trkpt lat="43.6892" lon="3.90649">
        <ele>80.8</ele>
        <time>2018-09-16T07:31:19Z</time>
      </trkpt>
      <trkpt lat="43.68919" lon="3.90645">
        <ele>80.9</ele>
        <time>2018-09-16T07:31:20Z</time>
      </trkpt>
      <trkpt lat="43.68917" lon="3.90634">
        <ele>81.4</ele>
        <time>2018-09-16T07:31:23Z</time>
      </trkpt>
      <trkpt lat="43.68917" lon="3.90631">
        <ele>81.6</ele>
        <time>2018-09-16T07:31:24Z</time>
      </trkpt>
      <trkpt lat="43.68915" lon="3.9062">
        <ele>82.3</ele>
        <time>2018-09-16T07:31:27Z</time>
      </trkpt>
      <trkpt lat="43.68915" lon="3.90616">
        <ele>82.6</ele>
        <time>2018-09-16T07:31:28Z</time>
      </trkpt>
      <trkpt lat="43.68912" lon="3.90607">
        <ele>83.1</ele>
        <time>2018-09-16T07:31:31Z</time>
      </trkpt>
      <trkpt lat="43.68912" lon="3.90604">
        <ele>83.3</ele>
        <time>2018-09-16T07:31:32Z</time>
      </trkpt>
      <trkpt lat="43.6891" lon="3.90593">
        <ele>84.1</ele>
        <time>2018-09-16T07:31:35Z</time>
      </trkpt>
      <trkpt lat="43.6891" lon="3.9059">
        <ele>84.3</ele>
        <time>2018-09-16T07:31:36Z</time>
      </trkpt>
      <trkpt lat="43.68907" lon="3.90581">
        <ele>84.8</ele>
        <time>2018-09-16T07:31:39Z</time>
      </trkpt>
      <trkpt lat="43.68906" lon="3.90578">
        <ele>84.9</ele>
        <time>2018-09-16T07:31:40Z</time>
      </trkpt>
      <trkpt lat="43.68905" lon="3.90568">
        <ele>85.5</ele>
        <time>2018-09-16T07:31:43Z</time>
      </trkpt>
      <trkpt lat="43.68904" lon="3.90565">
        <ele>85.6</ele>
        <time>2018-09-16T07:31:44Z</time>
      </trkpt>
      <trkpt lat="43.68898" lon="3.90556">
        <ele>85.6</ele>
        <time>2018-09-16T07:31:47Z</time>
      </trkpt>
      <trkpt lat="43.68896" lon="3.90554">
        <ele>85.6</ele>
        <time>2018-09-16T07:31:48Z</time>
      </trkpt>
      <trkpt lat="43.68889" lon="3.90547">
        <ele>85.6</ele>
        <time>2018-09-16T07:31:52Z</time>
      </trkpt>
      <trkpt lat="43.68887" lon="3.90547">
        <ele>85.8</ele>
        <time>2018-09-16T07:31:53Z</time>
      </trkpt>
      <trkpt lat="43.68878" lon="3.90547">
        <ele>86.7</ele>
        <time>2018-09-16T07:31:57Z</time>
      </trkpt>
      <trkpt lat="43.68876" lon="3.90547">
        <ele>86.9</ele>
        <time>2018-09-16T07:31:58Z</time>
      </trkpt>
      <trkpt lat="43.68869" lon="3.90549">
        <ele>87.5</ele>
        <time>2018-09-16T07:32:01Z</time>
      </trkpt>
      <trkpt lat="43.68867" lon="3.9055">
        <ele>87.6</ele>
        <time>2018-09-16T07:32:02Z</time>
      </trkpt>
      <trkpt lat="43.68861" lon="3.90553">
        <ele>88.1</ele>
        <time>2018-09-16T07:32:05Z</time>
      </trkpt>
      <trkpt lat="43.68858" lon="3.90554">
        <ele>88.3</ele>
        <time>2018-09-16T07:32:06Z</time>
      </trkpt>
      <trkpt lat="43.6885" lon="3.90556">
        <ele>88.8</ele>
        <time>2018-09-16T07:32:10Z</time>
      </trkpt>
      <trkpt lat="43.68849" lon="3.90554">
        <ele>88.9</ele>
      </trkpt>
      <trkpt lat="43.68848" lon="3.90557">
        <ele>88.9</ele>
        <time>2018-09-16T07:32:11Z</time>
      </trkpt>
      <trkpt lat="43.68839" lon="3.90546">
        <ele>89.6</ele>
        <time>2018-09-16T07:32:15Z</time>
      </trkpt>
      <trkpt lat="43.68832" lon="3.90556">
        <ele>90</ele>
        <time>2018-09-16T07:32:16Z</time>
      </trkpt>
      <trkpt lat="43.68825" lon="3.90563">
        <ele>89.7</ele>
        <time>2018-09-16T07:32:19Z</time>
      </trkpt>
      <trkpt lat="43.68822" lon="3.90565">
        <ele>89.7</ele>
        <time>2018-09-16T07:32:20Z</time>
      </trkpt>
      <trkpt lat="43.68818" lon="3.90571">
        <ele>89.8</ele>
        <time>2018-09-16T07:32:23Z</time>
      </trkpt>
      <trkpt lat="43.68819" lon="3.90575">
        <ele>89.7</ele>
        <time>2018-09-16T07:32:24Z</time>
      </trkpt>
      <trkpt lat="43.68814" lon="3.90583">
        <ele>90.1</ele>
        <time>2018-09-16T07:32:27Z</time>
      </trkpt>
      <trkpt lat="43.68813" lon="3.90585">
        <ele>90.2</ele>
        <time>2018-09-16T07:32:28Z</time>
      </trkpt>
      <trkpt lat="43.6881" lon="3.90595">
        <ele>90.9</ele>
        <time>2018-09-16T07:32:32Z</time>
      </trkpt>
      <trkpt lat="43.68809" lon="3.90598">
        <ele>91.1</ele>
        <time>2018-09-16T07:32:33Z</time>
      </trkpt>
      <trkpt lat="43.68806" lon="3.90609">
        <ele>91.9</ele>
        <time>2018-09-16T07:32:38Z</time>
      </trkpt>
      <trkpt lat="43.68805" lon="3.90611">
        <ele>92</ele>
        <time>2018-09-16T07:32:39Z</time>
      </trkpt>
      <trkpt lat="43.68804" lon="3.90623">
        <ele>92.9</ele>
        <time>2018-09-16T07:32:45Z</time>
      </trkpt>
      <trkpt lat="43.68803" lon="3.90626">
        <ele>93.2</ele>
        <time>2018-09-16T07:32:46Z</time>
      </trkpt>
      <trkpt lat="43.68801" lon="3.90636">
        <ele>94</ele>
        <time>2018-09-16T07:32:49Z</time>
      </trkpt>
      <trkpt lat="43.688" lon="3.90639">
        <ele>94.2</ele>
        <time>2018-09-16T07:32:50Z</time>
      </trkpt>
      <trkpt lat="43.68797" lon="3.90651">
        <ele>94.7</ele>
        <time>2018-09-16T07:32:54Z</time>
      </trkpt>
      <trkpt lat="43.68797" lon="3.90653">
        <ele>94.8</ele>
        <time>2018-09-16T07:32:55Z</time>
      </trkpt>
      <trkpt lat="43.68797" lon="3.90664">
        <ele>95.2</ele>
        <time>2018-09-16T07:32:59Z</time>
      </trkpt>
      <trkpt lat="43.68797" lon="3.90667">
        <ele>95.3</ele>
        <time>2018-09-16T07:33:00Z</time>
      </trkpt>
      <trkpt lat="43.68794" lon="3.90676">
        <ele>96.1</ele>
        <time>2018-09-16T07:33:04Z</time>
      </trkpt>
      <trkpt lat="43.68794" lon="3.90679">
        <ele>96.3</ele>
        <time>2018-09-16T07:33:05Z</time>
      </trkpt>
      <trkpt lat="43.68792" lon="3.90689">
        <ele>97.1</ele>
        <time>2018-09-16T07:33:09Z</time>
      </trkpt>
      <trkpt lat="43.68791" lon="3.90692">
        <ele>97.3</ele>
        <time>2018-09-16T07:33:10Z</time>
      </trkpt>
      <trkpt lat="43.68789" lon="3.90702">
        <ele>98</ele>
        <time>2018-09-16T07:33:14Z</time>
      </trkpt>
      <trkpt lat="43.68788" lon="3.90704">
        <ele>98.1</ele>
        <time>2018-09-16T07:33:15Z</time>
      </trkpt>
      <trkpt lat="43.68782" lon="3.90713">
        <ele>98.6</ele>
        <time>2018-09-16T07:33:20Z</time>
      </trkpt>
      <trkpt lat="43.68781" lon="3.90715">
        <ele>98.7</ele>
        <time>2018-09-16T07:33:21Z</time>
      </trkpt>
      <trkpt lat="43.68775" lon="3.90722">
        <ele>99</ele>
        <time>2018-09-16T07:33:25Z</time>
      </trkpt>
      <trkpt lat="43.68773" lon="3.90724">
        <ele>99.1</ele>
        <time>2018-09-16T07:33:26Z</time>
      </trkpt>
      <trkpt lat="43.68767" lon="3.90733">
        <ele>99.4</ele>
        <time>2018-09-16T07:33:30Z</time>
      </trkpt>
      <trkpt lat="43.68766" lon="3.90735">
        <ele>99.5</ele>
        <time>2018-09-16T07:33:31Z</time>
      </trkpt>
      <trkpt lat="43.68761" lon="3.90742">
        <ele>99.7</ele>
        <time>2018-09-16T07:33:34Z</time>
      </trkpt>
      <trkpt lat="43.68759" lon="3.90745">
        <ele>99.8</ele>
        <time>2018-09-16T07:33:35Z</time>
      </trkpt>
      <trkpt lat="43.68755" lon="3.90751">
        <ele>100</ele>
        <time>2018-09-16T07:33:37Z</time>
      </trkpt>
      <trkpt lat="43.68753" lon="3.90755">
        <ele>100.2</ele>
        <time>2018-09-16T07:33:38Z</time>
      </trkpt>
      <trkpt lat="43.68748" lon="3.90762">
        <ele>100.4</ele>
        <time>2018-09-16T07:33:41Z</time>
      </trkpt>
      <trkpt lat="43.68747" lon="3.90764">
        <ele>100.4</ele>
        <time>2018-09-16T07:33:42Z</time>
      </trkpt>
      <trkpt lat="43.68741" lon="3.90772">
        <ele>100.5</ele>
        <time>2018-09-16T07:33:45Z</time>
      </trkpt>
      <trkpt lat="43.68739" lon="3.90775">
        <ele>100.5</ele>
        <time>2018-09-16T07:33:46Z</time>
      </trkpt>
      <trkpt lat="43.68735" lon="3.90783">
        <ele>100.5</ele>
        <time>2018-09-16T07:33:48Z</time>
      </trkpt>
      <trkpt lat="43.68733" lon="3.90788">
        <ele>100.4</ele>
        <time>2018-09-16T07:33:49Z</time>
      </trkpt>
      <trkpt lat="43.6873" lon="3.90796">
        <ele>100.3</ele>
        <time>2018-09-16T07:33:51Z</time>
      </trkpt>
      <trkpt lat="43.68728" lon="3.908">
        <ele>100.2</ele>
        <time>2018-09-16T07:33:52Z</time>
      </trkpt>
      <trkpt lat="43.68725" lon="3.90807">
        <ele>100.1</ele>
        <time>2018-09-16T07:33:54Z</time>
      </trkpt>
      <trkpt lat="43.6872" lon="3.90818">
        <ele>100</ele>
        <time>2018-09-16T07:33:55Z</time>
      </trkpt>
      <trkpt lat="43.68717" lon="3.90824">
        <ele>100</ele>
        <time>2018-09-16T07:33:56Z</time>
      </trkpt>
      <trkpt lat="43.68715" lon="3.90829">
        <ele>100</ele>
        <time>2018-09-16T07:33:57Z</time>
      </trkpt>
      <trkpt lat="43.68711" lon="3.90834">
        <ele>99.9</ele>
        <time>2018-09-16T07:33:58Z</time>
      </trkpt>
      <trkpt lat="43.68709" lon="3.90839">
        <ele>99.6</ele>
        <time>2018-09-16T07:33:59Z</time>
      </trkpt>
      <trkpt lat="43.68705" lon="3.90845">
        <ele>99.3</ele>
        <time>2018-09-16T07:34:02Z</time>
      </trkpt>
      <trkpt lat="43.68697" lon="3.90853">
        <ele>99.2</ele>
        <time>2018-09-16T07:34:03Z</time>
      </trkpt>
      <trkpt lat="43.68692" lon="3.90862">
        <ele>99</ele>
        <time>2018-09-16T07:34:05Z</time>
      </trkpt>
      <trkpt lat="43.6869" lon="3.90863">
        <ele>99</ele>
        <time>2018-09-16T07:34:06Z</time>
      </trkpt>
      <trkpt lat="43.68682" lon="3.90864">
        <ele>99.3</ele>
        <time>2018-09-16T07:34:09Z</time>
      </trkpt>
      <trkpt lat="43.6868" lon="3.90863">
        <ele>99.5</ele>
        <time>2018-09-16T07:34:10Z</time>
      </trkpt>
      <trkpt lat="43.68675" lon="3.90854">
        <ele>99.8</ele>
        <time>2018-09-16T07:34:14Z</time>
      </trkpt>
      <trkpt lat="43.68672" lon="3.90851">
        <ele>99.9</ele>
        <time>2018-09-16T07:34:15Z</time>
      </trkpt>
      <trkpt lat="43.68666" lon="3.90845">
        <ele>100</ele>
        <time>2018-09-16T07:34:18Z</time>
      </trkpt>
      <trkpt lat="43.68663" lon="3.90844">
        <ele>100.1</ele>
        <time>2018-09-16T07:34:19Z</time>
      </trkpt>
      <trkpt lat="43.68657" lon="3.90842">
        <ele>100.1</ele>
        <time>2018-09-16T07:34:21Z</time>
      </trkpt>
      <trkpt lat="43.68654" lon="3.90842">
        <ele>100.1</ele>
        <time>2018-09-16T07:34:22Z</time>
      </trkpt>
      <trkpt lat="43.68646" lon="3.90838">
        <ele>100.1</ele>
        <time>2018-09-16T07:34:25Z</time>
      </trkpt>
      <trkpt lat="43.68643" lon="3.90837">
        <ele>100.1</ele>
        <time>2018-09-16T07:34:26Z</time>
      </trkpt>
      <trkpt lat="43.68629" lon="3.90828">
        <ele>100</ele>
        <time>2018-09-16T07:34:27Z</time>
      </trkpt>
      <trkpt lat="43.68629" lon="3.90821">
        <ele>100</ele>
        <time>2018-09-16T07:34:28Z</time>
      </trkpt>
      <trkpt lat="43.68626" lon="3.90814">
        <ele>100</ele>
        <time>2018-09-16T07:34:29Z</time>
      </trkpt>
      <trkpt lat="43.68625" lon="3.90809">
        <ele>100</ele>
        <time>2018-09-16T07:34:31Z</time>
      </trkpt>
      <trkpt lat="43.68622" lon="3.90801">
        <ele>99.8</ele>
        <time>2018-09-16T07:34:32Z</time>
      </trkpt>
      <trkpt lat="43.68621" lon="3.9079">
        <ele>99.4</ele>
        <time>2018-09-16T07:34:36Z</time>
      </trkpt>
      <trkpt lat="43.68623" lon="3.90788">
        <ele>99.4</ele>
        <time>2018-09-16T07:34:37Z</time>
      </trkpt>
      <trkpt lat="43.68628" lon="3.9078">
        <ele>99.1</ele>
        <time>2018-09-16T07:34:40Z</time>
      </trkpt>
      <trkpt lat="43.68629" lon="3.90778">
        <ele>99</ele>
        <time>2018-09-16T07:34:41Z</time>
      </trkpt>
      <trkpt lat="43.68629" lon="3.90765">
        <ele>98.5</ele>
        <time>2018-09-16T07:34:45Z</time>
      </trkpt>
      <trkpt lat="43.68628" lon="3.90762">
        <ele>98.4</ele>
        <time>2018-09-16T07:34:46Z</time>
      </trkpt>
      <trkpt lat="43.68626" lon="3.90759">
        <ele>98.3</ele>
        <time>2018-09-16T07:34:47Z</time>
      </trkpt>
      <trkpt lat="43.68618" lon="3.90752">
        <ele>98.1</ele>
        <time>2018-09-16T07:34:48Z</time>
      </trkpt>
      <trkpt lat="43.68614" lon="3.90752">
        <ele>98.1</ele>
        <time>2018-09-16T07:34:50Z</time>
      </trkpt>
      <trkpt lat="43.68609" lon="3.90751">
        <ele>98</ele>
        <time>2018-09-16T07:34:51Z</time>
      </trkpt>
      <trkpt lat="43.68601" lon="3.90748">
        <ele>97.5</ele>
        <time>2018-09-16T07:34:53Z</time>
      </trkpt>
      <trkpt lat="43.68597" lon="3.90747">
        <ele>97.3</ele>
        <time>2018-09-16T07:34:54Z</time>
      </trkpt>
      <trkpt lat="43.68592" lon="3.90748">
        <ele>97.2</ele>
        <time>2018-09-16T07:34:55Z</time>
      </trkpt>
      <trkpt lat="43.68587" lon="3.90746">
        <ele>96.8</ele>
        <time>2018-09-16T07:34:56Z</time>
      </trkpt>
      <trkpt lat="43.6858" lon="3.90743">
        <ele>96.5</ele>
        <time>2018-09-16T07:34:58Z</time>
      </trkpt>
      <trkpt lat="43.68575" lon="3.90742">
        <ele>96.4</ele>
        <time>2018-09-16T07:34:59Z</time>
      </trkpt>
      <trkpt lat="43.68568" lon="3.90741">
        <ele>96.4</ele>
        <time>2018-09-16T07:35:01Z</time>
      </trkpt>
      <trkpt lat="43.68564" lon="3.9074">
        <ele>96.3</ele>
        <time>2018-09-16T07:35:02Z</time>
      </trkpt>
      <trkpt lat="43.68557" lon="3.9074">
        <ele>96.3</ele>
        <time>2018-09-16T07:35:04Z</time>
      </trkpt>
      <trkpt lat="43.68553" lon="3.90737">
        <ele>96</ele>
        <time>2018-09-16T07:35:05Z</time>
      </trkpt>
      <trkpt lat="43.68547" lon="3.90736">
        <ele>95.8</ele>
        <time>2018-09-16T07:35:06Z</time>
      </trkpt>
      <trkpt lat="43.68543" lon="3.90733">
        <ele>95.5</ele>
        <time>2018-09-16T07:35:07Z</time>
      </trkpt>
      <trkpt lat="43.68537" lon="3.90731">
        <ele>95.2</ele>
        <time>2018-09-16T07:35:08Z</time>
      </trkpt>
      <trkpt lat="43.68531" lon="3.9073">
        <ele>94.9</ele>
        <time>2018-09-16T07:35:09Z</time>
      </trkpt>
      <trkpt lat="43.68523" lon="3.90727">
        <ele>94.5</ele>
        <time>2018-09-16T07:35:11Z</time>
      </trkpt>
      <trkpt lat="43.6852" lon="3.90726">
        <ele>94.4</ele>
        <time>2018-09-16T07:35:12Z</time>
      </trkpt>
      <trkpt lat="43.68515" lon="3.90718">
        <ele>93.7</ele>
        <time>2018-09-16T07:35:14Z</time>
      </trkpt>
      <trkpt lat="43.6851" lon="3.90714">
        <ele>93.4</ele>
        <time>2018-09-16T07:35:15Z</time>
      </trkpt>
      <trkpt lat="43.68502" lon="3.90716">
        <ele>93.6</ele>
        <time>2018-09-16T07:35:17Z</time>
      </trkpt>
      <trkpt lat="43.68498" lon="3.90713">
        <ele>93.3</ele>
        <time>2018-09-16T07:35:18Z</time>
      </trkpt>
      <trkpt lat="43.68492" lon="3.90709">
        <ele>93</ele>
        <time>2018-09-16T07:35:20Z</time>
      </trkpt>
      <trkpt lat="43.68487" lon="3.90708">
        <ele>93</ele>
        <time>2018-09-16T07:35:21Z</time>
      </trkpt>
      <trkpt lat="43.68482" lon="3.90706">
        <ele>92.8</ele>
        <time>2018-09-16T07:35:22Z</time>
      </trkpt>
      <trkpt lat="43.68478" lon="3.90702">
        <ele>92.5</ele>
        <time>2018-09-16T07:35:23Z</time>
      </trkpt>
      <trkpt lat="43.68474" lon="3.907">
        <ele>92.4</ele>
        <time>2018-09-16T07:35:24Z</time>
      </trkpt>
      <trkpt lat="43.68468" lon="3.90698">
        <ele>92.3</ele>
        <time>2018-09-16T07:35:25Z</time>
      </trkpt>
      <trkpt lat="43.68464" lon="3.90696">
        <ele>92.1</ele>
        <time>2018-09-16T07:35:26Z</time>
      </trkpt>
      <trkpt lat="43.68459" lon="3.90694">
        <ele>92</ele>
        <time>2018-09-16T07:35:27Z</time>
      </trkpt>
      <trkpt lat="43.68453" lon="3.90693">
        <ele>91.8</ele>
        <time>2018-09-16T07:35:28Z</time>
      </trkpt>
      <trkpt lat="43.68447" lon="3.90689">
        <ele>91.4</ele>
        <time>2018-09-16T07:35:29Z</time>
      </trkpt>
      <trkpt lat="43.68443" lon="3.90686">
        <ele>91.2</ele>
        <time>2018-09-16T07:35:30Z</time>
      </trkpt>
      <trkpt lat="43.68439" lon="3.90681">
        <ele>90.8</ele>
        <time>2018-09-16T07:35:31Z</time>
      </trkpt>
      <trkpt lat="43.68431" lon="3.90677">
        <ele>90.9</ele>
        <time>2018-09-16T07:35:33Z</time>
      </trkpt>
      <trkpt lat="43.68427" lon="3.90674">
        <ele>90.9</ele>
        <time>2018-09-16T07:35:34Z</time>
      </trkpt>
      <trkpt lat="43.68422" lon="3.90671">
        <ele>91</ele>
        <time>2018-09-16T07:35:35Z</time>
      </trkpt>
      <trkpt lat="43.68417" lon="3.90667">
        <ele>91</ele>
        <time>2018-09-16T07:35:36Z</time>
      </trkpt>
      <trkpt lat="43.68412" lon="3.90663">
        <ele>90.8</ele>
        <time>2018-09-16T07:35:37Z</time>
      </trkpt>
      <trkpt lat="43.68408" lon="3.90661">
        <ele>90.7</ele>
        <time>2018-09-16T07:35:38Z</time>
      </trkpt>
      <trkpt lat="43.684" lon="3.90656">
        <ele>90.4</ele>
        <time>2018-09-16T07:35:40Z</time>
      </trkpt>
      <trkpt lat="43.68396" lon="3.90654">
        <ele>90.4</ele>
        <time>2018-09-16T07:35:41Z</time>
      </trkpt>
      <trkpt lat="43.68389" lon="3.9065">
        <ele>90.2</ele>
        <time>2018-09-16T07:35:43Z</time>
      </trkpt>
      <trkpt lat="43.68386" lon="3.90648">
        <ele>90.1</ele>
        <time>2018-09-16T07:35:44Z</time>
      </trkpt>
      <trkpt lat="43.68383" lon="3.90646">
        <ele>90</ele>
        <time>2018-09-16T07:35:45Z</time>
      </trkpt>
      <trkpt lat="43.68377" lon="3.90642">
        <ele>89.8</ele>
        <time>2018-09-16T07:35:46Z</time>
      </trkpt>
      <trkpt lat="43.6837" lon="3.90641">
        <ele>89.9</ele>
        <time>2018-09-16T07:35:48Z</time>
      </trkpt>
      <trkpt lat="43.68366" lon="3.90639">
        <ele>89.8</ele>
        <time>2018-09-16T07:35:49Z</time>
      </trkpt>
      <trkpt lat="43.68359" lon="3.90633">
        <ele>89.4</ele>
        <time>2018-09-16T07:35:51Z</time>
      </trkpt>
      <trkpt lat="43.68357" lon="3.90632">
        <ele>89.4</ele>
        <time>2018-09-16T07:35:52Z</time>
      </trkpt>
      <trkpt lat="43.68352" lon="3.90635">
        <ele>89.9</ele>
        <time>2018-09-16T07:35:53Z</time>
      </trkpt>
      <trkpt lat="43.68347" lon="3.90635">
        <ele>90.1</ele>
        <time>2018-09-16T07:35:54Z</time>
      </trkpt>
      <trkpt lat="43.68338" lon="3.90632">
        <ele>90.1</ele>
        <time>2018-09-16T07:35:56Z</time>
      </trkpt>
      <trkpt lat="43.68334" lon="3.9063">
        <ele>90</ele>
        <time>2018-09-16T07:35:57Z</time>
      </trkpt>
      <trkpt lat="43.68325" lon="3.90629">
        <ele>90.1</ele>
        <time>2018-09-16T07:35:59Z</time>
      </trkpt>
      <trkpt lat="43.68321" lon="3.90626">
        <ele>89.8</ele>
        <time>2018-09-16T07:36:00Z</time>
      </trkpt>
      <trkpt lat="43.68315" lon="3.90619">
        <ele>89</ele>
        <time>2018-09-16T07:36:02Z</time>
      </trkpt>
      <trkpt lat="43.68311" lon="3.90615">
        <ele>88.5</ele>
        <time>2018-09-16T07:36:03Z</time>
      </trkpt>
      <trkpt lat="43.68303" lon="3.90614">
        <ele>88.6</ele>
        <time>2018-09-16T07:36:05Z</time>
      </trkpt>
      <trkpt lat="43.683" lon="3.9061">
        <ele>88.3</ele>
        <time>2018-09-16T07:36:06Z</time>
      </trkpt>
      <trkpt lat="43.68295" lon="3.90601">
        <ele>87.5</ele>
        <time>2018-09-16T07:36:11Z</time>
      </trkpt>
      <trkpt lat="43.68295" lon="3.90598">
        <ele>87.2</ele>
        <time>2018-09-16T07:36:12Z</time>
      </trkpt>
      <trkpt lat="43.68295" lon="3.90587">
        <ele>85.8</ele>
        <time>2018-09-16T07:36:13Z</time>
      </trkpt>
      <trkpt lat="43.68295" lon="3.90582">
        <ele>85.2</ele>
        <time>2018-09-16T07:36:14Z</time>
      </trkpt>
      <trkpt lat="43.68294" lon="3.90575">
        <ele>84.5</ele>
        <time>2018-09-16T07:36:16Z</time>
      </trkpt>
      <trkpt lat="43.68296" lon="3.90564">
        <ele>83.3</ele>
        <time>2018-09-16T07:36:17Z</time>
      </trkpt>
      <trkpt lat="43.68296" lon="3.90555">
        <ele>82.3</ele>
        <time>2018-09-16T07:36:20Z</time>
      </trkpt>
      <trkpt lat="43.68296" lon="3.90551">
        <ele>81.9</ele>
        <time>2018-09-16T07:36:21Z</time>
      </trkpt>
      <trkpt lat="43.68298" lon="3.90538">
        <ele>80.4</ele>
        <time>2018-09-16T07:36:22Z</time>
      </trkpt>
      <trkpt lat="43.68302" lon="3.90527">
        <ele>79</ele>
        <time>2018-09-16T07:36:25Z</time>
      </trkpt>
      <trkpt lat="43.68302" lon="3.90523">
        <ele>78.4</ele>
        <time>2018-09-16T07:36:26Z</time>
      </trkpt>
      <trkpt lat="43.68304" lon="3.90512">
        <ele>76.8</ele>
        <time>2018-09-16T07:36:29Z</time>
      </trkpt>
      <trkpt lat="43.68305" lon="3.90507">
        <ele>76</ele>
        <time>2018-09-16T07:36:30Z</time>
      </trkpt>
      <trkpt lat="43.68306" lon="3.90498">
        <ele>74.7</ele>
        <time>2018-09-16T07:36:32Z</time>
      </trkpt>
      <trkpt lat="43.68307" lon="3.90494">
        <ele>74.1</ele>
        <time>2018-09-16T07:36:33Z</time>
      </trkpt>
      <trkpt lat="43.68307" lon="3.90485">
        <ele>72.8</ele>
        <time>2018-09-16T07:36:35Z</time>
      </trkpt>
      <trkpt lat="43.68307" lon="3.9048">
        <ele>72.1</ele>
        <time>2018-09-16T07:36:36Z</time>
      </trkpt>
      <trkpt lat="43.68307" lon="3.90465">
        <ele>70.2</ele>
        <time>2018-09-16T07:36:37Z</time>
      </trkpt>
      <trkpt lat="43.68309" lon="3.90452">
        <ele>68.9</ele>
        <time>2018-09-16T07:36:38Z</time>
      </trkpt>
      <trkpt lat="43.68303" lon="3.9045">
        <ele>68.6</ele>
        <time>2018-09-16T07:36:39Z</time>
      </trkpt>
      <trkpt lat="43.68297" lon="3.90448">
        <ele>68.4</ele>
        <time>2018-09-16T07:36:40Z</time>
      </trkpt>
      <trkpt lat="43.68293" lon="3.90444">
        <ele>68</ele>
        <time>2018-09-16T07:36:41Z</time>
      </trkpt>
      <trkpt lat="43.68289" lon="3.90444">
        <ele>68</ele>
        <time>2018-09-16T07:36:42Z</time>
      </trkpt>
      <trkpt lat="43.68283" lon="3.9044">
        <ele>67.8</ele>
        <time>2018-09-16T07:36:43Z</time>
      </trkpt>
      <trkpt lat="43.68277" lon="3.90438">
        <ele>67.8</ele>
        <time>2018-09-16T07:36:44Z</time>
      </trkpt>
      <trkpt lat="43.68271" lon="3.90436">
        <ele>67.6</ele>
        <time>2018-09-16T07:36:45Z</time>
      </trkpt>
      <trkpt lat="43.68265" lon="3.90434">
        <ele>67.5</ele>
        <time>2018-09-16T07:36:46Z</time>
      </trkpt>
      <trkpt lat="43.68259" lon="3.90434">
        <ele>67.4</ele>
        <time>2018-09-16T07:36:47Z</time>
      </trkpt>
      <trkpt lat="43.68253" lon="3.90433">
        <ele>67.2</ele>
        <time>2018-09-16T07:36:48Z</time>
      </trkpt>
      <trkpt lat="43.68247" lon="3.90431">
        <ele>67.1</ele>
        <time>2018-09-16T07:36:49Z</time>
      </trkpt>
      <trkpt lat="43.68241" lon="3.90428">
        <ele>67.1</ele>
        <time>2018-09-16T07:36:50Z</time>
      </trkpt>
      <trkpt lat="43.68236" lon="3.90425">
        <ele>66.9</ele>
        <time>2018-09-16T07:36:51Z</time>
      </trkpt>
      <trkpt lat="43.68232" lon="3.90421">
        <ele>66.5</ele>
        <time>2018-09-16T07:36:52Z</time>
      </trkpt>
      <trkpt lat="43.68227" lon="3.90419">
        <ele>66.3</ele>
        <time>2018-09-16T07:36:53Z</time>
      </trkpt>
      <trkpt lat="43.68221" lon="3.90415">
        <ele>66.1</ele>
        <time>2018-09-16T07:36:55Z</time>
      </trkpt>
      <trkpt lat="43.68216" lon="3.90411">
        <ele>66.5</ele>
        <time>2018-09-16T07:36:56Z</time>
      </trkpt>
      <trkpt lat="43.68213" lon="3.90407">
        <ele>66.5</ele>
        <time>2018-09-16T07:36:57Z</time>
      </trkpt>
      <trkpt lat="43.68208" lon="3.90405">
        <ele>66.7</ele>
        <time>2018-09-16T07:36:58Z</time>
      </trkpt>
      <trkpt lat="43.68205" lon="3.90402">
        <ele>66.6</ele>
        <time>2018-09-16T07:36:59Z</time>
      </trkpt>
      <trkpt lat="43.68199" lon="3.90398">
        <ele>66.3</ele>
        <time>2018-09-16T07:37:00Z</time>
      </trkpt>
      <trkpt lat="43.68195" lon="3.90394">
        <ele>65.7</ele>
        <time>2018-09-16T07:37:01Z</time>
      </trkpt>
      <trkpt lat="43.68191" lon="3.90392">
        <ele>65.5</ele>
        <time>2018-09-16T07:37:02Z</time>
      </trkpt>
      <trkpt lat="43.68187" lon="3.90391">
        <ele>65.3</ele>
        <time>2018-09-16T07:37:03Z</time>
      </trkpt>
      <trkpt lat="43.68181" lon="3.90389">
        <ele>65</ele>
        <time>2018-09-16T07:37:04Z</time>
      </trkpt>
      <trkpt lat="43.68176" lon="3.90387">
        <ele>65</ele>
        <time>2018-09-16T07:37:05Z</time>
      </trkpt>
      <trkpt lat="43.6817" lon="3.90385">
        <ele>65</ele>
        <time>2018-09-16T07:37:06Z</time>
      </trkpt>
      <trkpt lat="43.68165" lon="3.90386">
        <ele>65</ele>
        <time>2018-09-16T07:37:07Z</time>
      </trkpt>
      <trkpt lat="43.6816" lon="3.90385">
        <ele>65.2</ele>
        <time>2018-09-16T07:37:08Z</time>
      </trkpt>
      <trkpt lat="43.68154" lon="3.90384">
        <ele>65.3</ele>
        <time>2018-09-16T07:37:09Z</time>
      </trkpt>
      <trkpt lat="43.6815" lon="3.90383">
        <ele>65.3</ele>
        <time>2018-09-16T07:37:10Z</time>
      </trkpt>
      <trkpt lat="43.68145" lon="3.90381">
        <ele>65.3</ele>
        <time>2018-09-16T07:37:11Z</time>
      </trkpt>
      <trkpt lat="43.68139" lon="3.90379">
        <ele>65.3</ele>
        <time>2018-09-16T07:37:12Z</time>
      </trkpt>
      <trkpt lat="43.68132" lon="3.90376">
        <ele>65.2</ele>
        <time>2018-09-16T07:37:13Z</time>
      </trkpt>
      <trkpt lat="43.68128" lon="3.90374">
        <ele>65.1</ele>
        <time>2018-09-16T07:37:14Z</time>
      </trkpt>
      <trkpt lat="43.68121" lon="3.90376">
        <ele>65.4</ele>
        <time>2018-09-16T07:37:16Z</time>
      </trkpt>
      <trkpt lat="43.68115" lon="3.90376">
        <ele>65.5</ele>
        <time>2018-09-16T07:37:17Z</time>
      </trkpt>
      <trkpt lat="43.68109" lon="3.90377">
        <ele>65.5</ele>
        <time>2018-09-16T07:37:18Z</time>
      </trkpt>
      <trkpt lat="43.68103" lon="3.90377">
        <ele>65.4</ele>
        <time>2018-09-16T07:37:19Z</time>
      </trkpt>
      <trkpt lat="43.68099" lon="3.90377">
        <ele>65.3</ele>
        <time>2018-09-16T07:37:20Z</time>
      </trkpt>
      <trkpt lat="43.68093" lon="3.90378">
        <ele>65.2</ele>
        <time>2018-09-16T07:37:21Z</time>
      </trkpt>
      <trkpt lat="43.68088" lon="3.9038">
        <ele>65.1</ele>
        <time>2018-09-16T07:37:22Z</time>
      </trkpt>
      <trkpt lat="43.68082" lon="3.90379">
        <ele>65.1</ele>
        <time>2018-09-16T07:37:23Z</time>
      </trkpt>
      <trkpt lat="43.68074" lon="3.90376">
        <ele>65.4</ele>
        <time>2018-09-16T07:37:25Z</time>
      </trkpt>
      <trkpt lat="43.68071" lon="3.90371">
        <ele>65.3</ele>
        <time>2018-09-16T07:37:26Z</time>
      </trkpt>
      <trkpt lat="43.68062" lon="3.90367">
        <ele>65.3</ele>
        <time>2018-09-16T07:37:28Z</time>
      </trkpt>
      <trkpt lat="43.68058" lon="3.90365">
        <ele>65.3</ele>
        <time>2018-09-16T07:37:29Z</time>
      </trkpt>
      <trkpt lat="43.6805" lon="3.90365">
        <ele>65.3</ele>
        <time>2018-09-16T07:37:31Z</time>
      </trkpt>
      <trkpt lat="43.68046" lon="3.90366">
        <ele>65.4</ele>
        <time>2018-09-16T07:37:32Z</time>
      </trkpt>
      <trkpt lat="43.6804" lon="3.90366">
        <ele>65.4</ele>
        <time>2018-09-16T07:37:33Z</time>
      </trkpt>
      <trkpt lat="43.68034" lon="3.90366">
        <ele>65.4</ele>
        <time>2018-09-16T07:37:34Z</time>
      </trkpt>
      <trkpt lat="43.68029" lon="3.90367">
        <ele>65.4</ele>
        <time>2018-09-16T07:37:35Z</time>
      </trkpt>
      <trkpt lat="43.68025" lon="3.90367">
        <ele>65.4</ele>
        <time>2018-09-16T07:37:36Z</time>
      </trkpt>
      <trkpt lat="43.6802" lon="3.9037">
        <ele>65.4</ele>
        <time>2018-09-16T07:37:37Z</time>
      </trkpt>
      <trkpt lat="43.68015" lon="3.90373">
        <ele>65.3</ele>
        <time>2018-09-16T07:37:38Z</time>
      </trkpt>
      <trkpt lat="43.6801" lon="3.90376">
        <ele>65</ele>
        <time>2018-09-16T07:37:39Z</time>
      </trkpt>
      <trkpt lat="43.68006" lon="3.90377">
        <ele>64.8</ele>
        <time>2018-09-16T07:37:40Z</time>
      </trkpt>
      <trkpt lat="43.68002" lon="3.9038">
        <ele>64.5</ele>
        <time>2018-09-16T07:37:41Z</time>
      </trkpt>
      <trkpt lat="43.67997" lon="3.90383">
        <ele>64.3</ele>
        <time>2018-09-16T07:37:42Z</time>
      </trkpt>
      <trkpt lat="43.6799" lon="3.90388">
        <ele>64.4</ele>
        <time>2018-09-16T07:37:44Z</time>
      </trkpt>
      <trkpt lat="43.67988" lon="3.90389">
        <ele>64.4</ele>
        <time>2018-09-16T07:37:45Z</time>
      </trkpt>
      <trkpt lat="43.6798" lon="3.90385">
        <ele>64.8</ele>
        <time>2018-09-16T07:37:49Z</time>
      </trkpt>
      <trkpt lat="43.67979" lon="3.90382">
        <ele>64.8</ele>
        <time>2018-09-16T07:37:50Z</time>
      </trkpt>
      <trkpt lat="43.67978" lon="3.90378">
        <ele>64.9</ele>
        <time>2018-09-16T07:37:51Z</time>
      </trkpt>
      <trkpt lat="43.67976" lon="3.90363">
        <ele>65</ele>
        <time>2018-09-16T07:37:52Z</time>
      </trkpt>
      <trkpt lat="43.67974" lon="3.90351">
        <ele>65</ele>
        <time>2018-09-16T07:37:54Z</time>
      </trkpt>
      <trkpt lat="43.67973" lon="3.90346">
        <ele>65</ele>
        <time>2018-09-16T07:37:55Z</time>
      </trkpt>
      <trkpt lat="43.67971" lon="3.90335">
        <ele>65.1</ele>
        <time>2018-09-16T07:37:57Z</time>
      </trkpt>
      <trkpt lat="43.6797" lon="3.9033">
        <ele>65.2</ele>
        <time>2018-09-16T07:37:58Z</time>
      </trkpt>
      <trkpt lat="43.67967" lon="3.9032">
        <ele>65.5</ele>
        <time>2018-09-16T07:38:00Z</time>
      </trkpt>
      <trkpt lat="43.67965" lon="3.90315">
        <ele>65.6</ele>
        <time>2018-09-16T07:38:01Z</time>
      </trkpt>
      <trkpt lat="43.67963" lon="3.90306">
        <ele>65.7</ele>
        <time>2018-09-16T07:38:04Z</time>
      </trkpt>
      <trkpt lat="43.6796" lon="3.90297">
        <ele>65.7</ele>
        <time>2018-09-16T07:38:05Z</time>
      </trkpt>
      <trkpt lat="43.67957" lon="3.90289">
        <ele>65.8</ele>
        <time>2018-09-16T07:38:08Z</time>
      </trkpt>
      <trkpt lat="43.67956" lon="3.90285">
        <ele>65.7</ele>
        <time>2018-09-16T07:38:09Z</time>
      </trkpt>
      <trkpt lat="43.67952" lon="3.90276">
        <ele>65.7</ele>
        <time>2018-09-16T07:38:12Z</time>
      </trkpt>
      <trkpt lat="43.67943" lon="3.90249">
        <ele>66.1</ele>
        <time>2018-09-16T07:38:20Z</time>
      </trkpt>
      <trkpt lat="43.67942" lon="3.90246">
        <ele>66.1</ele>
        <time>2018-09-16T07:38:21Z</time>
      </trkpt>
      <trkpt lat="43.67938" lon="3.90238">
        <ele>66.1</ele>
        <time>2018-09-16T07:38:24Z</time>
      </trkpt>
      <trkpt lat="43.67925" lon="3.90217">
        <ele>65.9</ele>
        <time>2018-09-16T07:38:32Z</time>
      </trkpt>
      <trkpt lat="43.67923" lon="3.90215">
        <ele>65.8</ele>
        <time>2018-09-16T07:38:33Z</time>
      </trkpt>
      <trkpt lat="43.67915" lon="3.90209">
        <ele>65.6</ele>
        <time>2018-09-16T07:38:38Z</time>
      </trkpt>
      <trkpt lat="43.67914" lon="3.90209">
        <ele>65.7</ele>
        <time>2018-09-16T07:38:39Z</time>
      </trkpt>
      <trkpt lat="43.67913" lon="3.90209">
        <ele>65.8</ele>
        <time>2018-09-16T07:39:58Z</time>
      </trkpt>
      <trkpt lat="43.67909" lon="3.90208">
        <ele>66</ele>
        <time>2018-09-16T07:39:59Z</time>
      </trkpt>
      <trkpt lat="43.67902" lon="3.90204">
        <ele>66.4</ele>
        <time>2018-09-16T07:40:01Z</time>
      </trkpt>
      <trkpt lat="43.67899" lon="3.90204">
        <ele>66.6</ele>
        <time>2018-09-16T07:40:02Z</time>
      </trkpt>
      <trkpt lat="43.67892" lon="3.90201">
        <ele>67</ele>
        <time>2018-09-16T07:40:04Z</time>
      </trkpt>
      <trkpt lat="43.67887" lon="3.902">
        <ele>67.2</ele>
        <time>2018-09-16T07:40:05Z</time>
      </trkpt>
      <trkpt lat="43.67879" lon="3.90199">
        <ele>67.2</ele>
        <time>2018-09-16T07:40:07Z</time>
      </trkpt>
      <trkpt lat="43.67875" lon="3.90199">
        <ele>67.2</ele>
        <time>2018-09-16T07:40:08Z</time>
      </trkpt>
      <trkpt lat="43.67866" lon="3.90198">
        <ele>67.2</ele>
        <time>2018-09-16T07:40:11Z</time>
      </trkpt>
      <trkpt lat="43.67863" lon="3.90197">
        <ele>67.2</ele>
        <time>2018-09-16T07:40:12Z</time>
      </trkpt>
      <trkpt lat="43.67861" lon="3.90196">
        <ele>67.1</ele>
        <time>2018-09-16T07:40:13Z</time>
      </trkpt>
      <trkpt lat="43.67852" lon="3.90193">
        <ele>67</ele>
        <time>2018-09-16T07:40:14Z</time>
      </trkpt>
      <trkpt lat="43.67847" lon="3.9019">
        <ele>66.9</ele>
        <time>2018-09-16T07:40:16Z</time>
      </trkpt>
      <trkpt lat="43.67844" lon="3.90188">
        <ele>66.9</ele>
        <time>2018-09-16T07:40:17Z</time>
      </trkpt>
      <trkpt lat="43.67836" lon="3.90183">
        <ele>67</ele>
        <time>2018-09-16T07:40:19Z</time>
      </trkpt>
      <trkpt lat="43.67834" lon="3.90181">
        <ele>67</ele>
        <time>2018-09-16T07:40:20Z</time>
      </trkpt>
      <trkpt lat="43.6783" lon="3.90176">
        <ele>67</ele>
        <time>2018-09-16T07:40:21Z</time>
      </trkpt>
      <trkpt lat="43.67828" lon="3.90171">
        <ele>67</ele>
        <time>2018-09-16T07:40:22Z</time>
      </trkpt>
      <trkpt lat="43.67824" lon="3.90164">
        <ele>66.9</ele>
        <time>2018-09-16T07:40:24Z</time>
      </trkpt>
      <trkpt lat="43.67822" lon="3.9016">
        <ele>66.9</ele>
        <time>2018-09-16T07:40:25Z</time>
      </trkpt>
      <trkpt lat="43.67819" lon="3.90148">
        <ele>66.7</ele>
        <time>2018-09-16T07:40:27Z</time>
      </trkpt>
      <trkpt lat="43.67819" lon="3.90143">
        <ele>66.6</ele>
        <time>2018-09-16T07:40:28Z</time>
      </trkpt>
      <trkpt lat="43.67817" lon="3.90134">
        <ele>66.8</ele>
        <time>2018-09-16T07:40:31Z</time>
      </trkpt>
      <trkpt lat="43.67817" lon="3.9013">
        <ele>66.9</ele>
        <time>2018-09-16T07:40:32Z</time>
      </trkpt>
      <trkpt lat="43.67817" lon="3.90118">
        <ele>67.3</ele>
        <time>2018-09-16T07:40:35Z</time>
      </trkpt>
      <trkpt lat="43.67818" lon="3.90114">
        <ele>67.4</ele>
        <time>2018-09-16T07:40:36Z</time>
      </trkpt>
      <trkpt lat="43.67818" lon="3.90109">
        <ele>67.6</ele>
        <time>2018-09-16T07:40:37Z</time>
      </trkpt>
      <trkpt lat="43.67822" lon="3.90099">
        <ele>67.7</ele>
        <time>2018-09-16T07:40:38Z</time>
      </trkpt>
      <trkpt lat="43.67823" lon="3.90088">
        <ele>67.9</ele>
        <time>2018-09-16T07:40:40Z</time>
      </trkpt>
      <trkpt lat="43.67823" lon="3.90086">
        <ele>67.9</ele>
        <time>2018-09-16T07:40:41Z</time>
      </trkpt>
      <trkpt lat="43.67822" lon="3.90078">
        <ele>67.7</ele>
        <time>2018-09-16T07:40:42Z</time>
      </trkpt>
      <trkpt lat="43.67819" lon="3.90074">
        <ele>67.5</ele>
        <time>2018-09-16T07:40:43Z</time>
      </trkpt>
      <trkpt lat="43.67815" lon="3.90066">
        <ele>67.2</ele>
        <time>2018-09-16T07:40:45Z</time>
      </trkpt>
      <trkpt lat="43.67812" lon="3.90062">
        <ele>67.1</ele>
        <time>2018-09-16T07:40:46Z</time>
      </trkpt>
      <trkpt lat="43.67807" lon="3.90059">
        <ele>67.1</ele>
        <time>2018-09-16T07:40:47Z</time>
      </trkpt>
      <trkpt lat="43.67803" lon="3.90056">
        <ele>67</ele>
        <time>2018-09-16T07:40:48Z</time>
      </trkpt>
      <trkpt lat="43.678" lon="3.90049">
        <ele>67.2</ele>
        <time>2018-09-16T07:40:49Z</time>
      </trkpt>
      <trkpt lat="43.67796" lon="3.90047">
        <ele>67.3</ele>
        <time>2018-09-16T07:40:50Z</time>
      </trkpt>
      <trkpt lat="43.67794" lon="3.90041">
        <ele>67.5</ele>
        <time>2018-09-16T07:40:51Z</time>
      </trkpt>
      <trkpt lat="43.67792" lon="3.90032">
        <ele>67.9</ele>
        <time>2018-09-16T07:40:52Z</time>
      </trkpt>
      <trkpt lat="43.6779" lon="3.90017">
        <ele>67.8</ele>
        <time>2018-09-16T07:40:54Z</time>
      </trkpt>
      <trkpt lat="43.67794" lon="3.90009">
        <ele>67.6</ele>
        <time>2018-09-16T07:40:55Z</time>
      </trkpt>
      <trkpt lat="43.67798" lon="3.90005">
        <ele>67.4</ele>
        <time>2018-09-16T07:40:56Z</time>
      </trkpt>
      <trkpt lat="43.67802" lon="3.90002">
        <ele>67.2</ele>
        <time>2018-09-16T07:40:57Z</time>
      </trkpt>
      <trkpt lat="43.678" lon="3.89992">
        <ele>67.2</ele>
        <time>2018-09-16T07:40:59Z</time>
      </trkpt>
      <trkpt lat="43.678" lon="3.89985">
        <ele>67.2</ele>
        <time>2018-09-16T07:41:00Z</time>
      </trkpt>
      <trkpt lat="43.67797" lon="3.89973">
        <ele>67.3</ele>
        <time>2018-09-16T07:41:02Z</time>
      </trkpt>
      <trkpt lat="43.67798" lon="3.89967">
        <ele>67.3</ele>
        <time>2018-09-16T07:41:03Z</time>
      </trkpt>
      <trkpt lat="43.67796" lon="3.89957">
        <ele>67.3</ele>
        <time>2018-09-16T07:41:05Z</time>
      </trkpt>
      <trkpt lat="43.67795" lon="3.89952">
        <ele>67.4</ele>
        <time>2018-09-16T07:41:06Z</time>
      </trkpt>
      <trkpt lat="43.67794" lon="3.89946">
        <ele>67.4</ele>
        <time>2018-09-16T07:41:07Z</time>
      </trkpt>
      <trkpt lat="43.67793" lon="3.8994">
        <ele>67.5</ele>
        <time>2018-09-16T07:41:08Z</time>
      </trkpt>
      <trkpt lat="43.67791" lon="3.8993">
        <ele>67.8</ele>
        <time>2018-09-16T07:41:10Z</time>
      </trkpt>
      <trkpt lat="43.67791" lon="3.89925">
        <ele>67.9</ele>
        <time>2018-09-16T07:41:11Z</time>
      </trkpt>
      <trkpt lat="43.67788" lon="3.89913">
        <ele>68.1</ele>
        <time>2018-09-16T07:41:13Z</time>
      </trkpt>
      <trkpt lat="43.67788" lon="3.89908">
        <ele>68.2</ele>
        <time>2018-09-16T07:41:14Z</time>
      </trkpt>
      <trkpt lat="43.67785" lon="3.89897">
        <ele>68.5</ele>
        <time>2018-09-16T07:41:16Z</time>
      </trkpt>
      <trkpt lat="43.67784" lon="3.89895">
        <ele>68.6</ele>
        <time>2018-09-16T07:41:17Z</time>
      </trkpt>
      <trkpt lat="43.67783" lon="3.89888">
        <ele>68.8</ele>
        <time>2018-09-16T07:41:18Z</time>
      </trkpt>
      <trkpt lat="43.67781" lon="3.89882">
        <ele>68.9</ele>
        <time>2018-09-16T07:41:19Z</time>
      </trkpt>
      <trkpt lat="43.67777" lon="3.89872">
        <ele>69</ele>
        <time>2018-09-16T07:41:21Z</time>
      </trkpt>
      <trkpt lat="43.67776" lon="3.89867">
        <ele>69.1</ele>
        <time>2018-09-16T07:41:22Z</time>
      </trkpt>
      <trkpt lat="43.67776" lon="3.89861">
        <ele>69.1</ele>
        <time>2018-09-16T07:41:23Z</time>
      </trkpt>
      <trkpt lat="43.67775" lon="3.89855">
        <ele>69.3</ele>
        <time>2018-09-16T07:41:24Z</time>
      </trkpt>
      <trkpt lat="43.67771" lon="3.89844">
        <ele>69.7</ele>
        <time>2018-09-16T07:41:27Z</time>
      </trkpt>
      <trkpt lat="43.6777" lon="3.89841">
        <ele>69.8</ele>
        <time>2018-09-16T07:41:28Z</time>
      </trkpt>
      <trkpt lat="43.67769" lon="3.89831">
        <ele>70</ele>
        <time>2018-09-16T07:41:29Z</time>
      </trkpt>
      <trkpt lat="43.67768" lon="3.89826">
        <ele>70.1</ele>
        <time>2018-09-16T07:41:30Z</time>
      </trkpt>
      <trkpt lat="43.67767" lon="3.89814">
        <ele>70.3</ele>
        <time>2018-09-16T07:41:33Z</time>
      </trkpt>
      <trkpt lat="43.67767" lon="3.89811">
        <ele>70.3</ele>
        <time>2018-09-16T07:41:34Z</time>
      </trkpt>
      <trkpt lat="43.67765" lon="3.89803">
        <ele>70.6</ele>
        <time>2018-09-16T07:41:35Z</time>
      </trkpt>
      <trkpt lat="43.67764" lon="3.89797">
        <ele>70.8</ele>
        <time>2018-09-16T07:41:36Z</time>
      </trkpt>
      <trkpt lat="43.67763" lon="3.89788">
        <ele>71.2</ele>
        <time>2018-09-16T07:41:38Z</time>
      </trkpt>
      <trkpt lat="43.67762" lon="3.89783">
        <ele>71.4</ele>
        <time>2018-09-16T07:41:39Z</time>
      </trkpt>
      <trkpt lat="43.6776" lon="3.89772">
        <ele>71.7</ele>
        <time>2018-09-16T07:41:41Z</time>
      </trkpt>
      <trkpt lat="43.67759" lon="3.89767">
        <ele>71.8</ele>
        <time>2018-09-16T07:41:42Z</time>
      </trkpt>
      <trkpt lat="43.67758" lon="3.89759">
        <ele>71.9</ele>
        <time>2018-09-16T07:41:44Z</time>
      </trkpt>
      <trkpt lat="43.67759" lon="3.89753">
        <ele>72</ele>
        <time>2018-09-16T07:41:45Z</time>
      </trkpt>
      <trkpt lat="43.67758" lon="3.89743">
        <ele>72</ele>
        <time>2018-09-16T07:41:47Z</time>
      </trkpt>
      <trkpt lat="43.67757" lon="3.89737">
        <ele>72</ele>
        <time>2018-09-16T07:41:48Z</time>
      </trkpt>
      <trkpt lat="43.67757" lon="3.89725">
        <ele>72</ele>
        <time>2018-09-16T07:41:50Z</time>
      </trkpt>
      <trkpt lat="43.67757" lon="3.89718">
        <ele>72.2</ele>
        <time>2018-09-16T07:41:51Z</time>
      </trkpt>
      <trkpt lat="43.67757" lon="3.89709">
        <ele>72.5</ele>
        <time>2018-09-16T07:41:53Z</time>
      </trkpt>
      <trkpt lat="43.67757" lon="3.89703">
        <ele>72.7</ele>
        <time>2018-09-16T07:41:54Z</time>
      </trkpt>
      <trkpt lat="43.67756" lon="3.89693">
        <ele>73</ele>
        <time>2018-09-16T07:41:56Z</time>
      </trkpt>
      <trkpt lat="43.67755" lon="3.89686">
        <ele>73</ele>
        <time>2018-09-16T07:41:57Z</time>
      </trkpt>
      <trkpt lat="43.67755" lon="3.89674">
        <ele>73</ele>
        <time>2018-09-16T07:41:59Z</time>
      </trkpt>
      <trkpt lat="43.67754" lon="3.89667">
        <ele>73</ele>
        <time>2018-09-16T07:42:00Z</time>
      </trkpt>
      <trkpt lat="43.67752" lon="3.89655">
        <ele>73</ele>
        <time>2018-09-16T07:42:02Z</time>
      </trkpt>
      <trkpt lat="43.67752" lon="3.89649">
        <ele>73</ele>
        <time>2018-09-16T07:42:03Z</time>
      </trkpt>
      <trkpt lat="43.67751" lon="3.89643">
        <ele>73</ele>
        <time>2018-09-16T07:42:04Z</time>
      </trkpt>
      <trkpt lat="43.6775" lon="3.89636">
        <ele>73</ele>
        <time>2018-09-16T07:42:05Z</time>
      </trkpt>
      <trkpt lat="43.6775" lon="3.89626">
        <ele>73</ele>
        <time>2018-09-16T07:42:07Z</time>
      </trkpt>
      <trkpt lat="43.67749" lon="3.89619">
        <ele>73</ele>
        <time>2018-09-16T07:42:08Z</time>
      </trkpt>
      <trkpt lat="43.67748" lon="3.89608">
        <ele>73.1</ele>
        <time>2018-09-16T07:42:10Z</time>
      </trkpt>
      <trkpt lat="43.67747" lon="3.89602">
        <ele>73.3</ele>
        <time>2018-09-16T07:42:11Z</time>
      </trkpt>
      <trkpt lat="43.67747" lon="3.8959">
        <ele>73.7</ele>
        <time>2018-09-16T07:42:13Z</time>
      </trkpt>
      <trkpt lat="43.67746" lon="3.89583">
        <ele>73.9</ele>
        <time>2018-09-16T07:42:14Z</time>
      </trkpt>
      <trkpt lat="43.67746" lon="3.89573">
        <ele>73.9</ele>
        <time>2018-09-16T07:42:16Z</time>
      </trkpt>
      <trkpt lat="43.67745" lon="3.89567">
        <ele>73.9</ele>
        <time>2018-09-16T07:42:17Z</time>
      </trkpt>
      <trkpt lat="43.67745" lon="3.89555">
        <ele>74</ele>
        <time>2018-09-16T07:42:19Z</time>
      </trkpt>
      <trkpt lat="43.67744" lon="3.89549">
        <ele>74</ele>
        <time>2018-09-16T07:42:20Z</time>
      </trkpt>
      <trkpt lat="43.67743" lon="3.89538">
        <ele>74</ele>
        <time>2018-09-16T07:42:22Z</time>
      </trkpt>
      <trkpt lat="43.67743" lon="3.89533">
        <ele>74</ele>
        <time>2018-09-16T07:42:23Z</time>
      </trkpt>
      <trkpt lat="43.67742" lon="3.89523">
        <ele>74</ele>
        <time>2018-09-16T07:42:25Z</time>
      </trkpt>
      <trkpt lat="43.67741" lon="3.89518">
        <ele>74</ele>
        <time>2018-09-16T07:42:26Z</time>
      </trkpt>
      <trkpt lat="43.67739" lon="3.89507">
        <ele>74</ele>
        <time>2018-09-16T07:42:28Z</time>
      </trkpt>
      <trkpt lat="43.6774" lon="3.89502">
        <ele>74</ele>
        <time>2018-09-16T07:42:29Z</time>
      </trkpt>
      <trkpt lat="43.67739" lon="3.8949">
        <ele>74</ele>
        <time>2018-09-16T07:42:31Z</time>
      </trkpt>
      <trkpt lat="43.67739" lon="3.89484">
        <ele>74</ele>
        <time>2018-09-16T07:42:32Z</time>
      </trkpt>
      <trkpt lat="43.67738" lon="3.89473">
        <ele>74</ele>
        <time>2018-09-16T07:42:34Z</time>
      </trkpt>
      <trkpt lat="43.67738" lon="3.89467">
        <ele>74.2</ele>
        <time>2018-09-16T07:42:35Z</time>
      </trkpt>
      <trkpt lat="43.67736" lon="3.89455">
        <ele>74.6</ele>
        <time>2018-09-16T07:42:37Z</time>
      </trkpt>
      <trkpt lat="43.67735" lon="3.8945">
        <ele>74.8</ele>
        <time>2018-09-16T07:42:38Z</time>
      </trkpt>
      <trkpt lat="43.67732" lon="3.89438">
        <ele>75</ele>
        <time>2018-09-16T07:42:40Z</time>
      </trkpt>
      <trkpt lat="43.6773" lon="3.89434">
        <ele>75</ele>
        <time>2018-09-16T07:42:41Z</time>
      </trkpt>
      <trkpt lat="43.67726" lon="3.89423">
        <ele>75</ele>
        <time>2018-09-16T07:42:43Z</time>
      </trkpt>
      <trkpt lat="43.67724" lon="3.89419">
        <ele>75</ele>
        <time>2018-09-16T07:42:44Z</time>
      </trkpt>
      <trkpt lat="43.67721" lon="3.89408">
        <ele>75.3</ele>
        <time>2018-09-16T07:42:46Z</time>
      </trkpt>
      <trkpt lat="43.6772" lon="3.89403">
        <ele>75.4</ele>
        <time>2018-09-16T07:42:47Z</time>
      </trkpt>
      <trkpt lat="43.67717" lon="3.89392">
        <ele>75.7</ele>
        <time>2018-09-16T07:42:49Z</time>
      </trkpt>
      <trkpt lat="43.67716" lon="3.89387">
        <ele>75.8</ele>
        <time>2018-09-16T07:42:50Z</time>
      </trkpt>
      <trkpt lat="43.67714" lon="3.89376">
        <ele>76</ele>
        <time>2018-09-16T07:42:52Z</time>
      </trkpt>
      <trkpt lat="43.67712" lon="3.8937">
        <ele>76.1</ele>
        <time>2018-09-16T07:42:53Z</time>
      </trkpt>
      <trkpt lat="43.6771" lon="3.89358">
        <ele>76.1</ele>
        <time>2018-09-16T07:42:55Z</time>
      </trkpt>
      <trkpt lat="43.67708" lon="3.89352">
        <ele>76</ele>
        <time>2018-09-16T07:42:56Z</time>
      </trkpt>
      <trkpt lat="43.67707" lon="3.89345">
        <ele>75.9</ele>
        <time>2018-09-16T07:42:57Z</time>
      </trkpt>
      <trkpt lat="43.67705" lon="3.89338">
        <ele>75.8</ele>
        <time>2018-09-16T07:42:58Z</time>
      </trkpt>
      <trkpt lat="43.67706" lon="3.89331">
        <ele>75.8</ele>
        <time>2018-09-16T07:42:59Z</time>
      </trkpt>
      <trkpt lat="43.67705" lon="3.89326">
        <ele>75.8</ele>
        <time>2018-09-16T07:43:00Z</time>
      </trkpt>
      <trkpt lat="43.67704" lon="3.89319">
        <ele>75.7</ele>
        <time>2018-09-16T07:43:01Z</time>
      </trkpt>
      <trkpt lat="43.67702" lon="3.89312">
        <ele>75.5</ele>
        <time>2018-09-16T07:43:02Z</time>
      </trkpt>
      <trkpt lat="43.67701" lon="3.89305">
        <ele>75.5</ele>
        <time>2018-09-16T07:43:03Z</time>
      </trkpt>
      <trkpt lat="43.677" lon="3.89298">
        <ele>75.4</ele>
        <time>2018-09-16T07:43:04Z</time>
      </trkpt>
      <trkpt lat="43.67699" lon="3.89292">
        <ele>75.3</ele>
        <time>2018-09-16T07:43:05Z</time>
      </trkpt>
      <trkpt lat="43.67697" lon="3.89286">
        <ele>75.2</ele>
        <time>2018-09-16T07:43:06Z</time>
      </trkpt>
      <trkpt lat="43.67698" lon="3.89276">
        <ele>75.3</ele>
        <time>2018-09-16T07:43:08Z</time>
      </trkpt>
      <trkpt lat="43.67697" lon="3.89269">
        <ele>75.5</ele>
        <time>2018-09-16T07:43:09Z</time>
      </trkpt>
      <trkpt lat="43.67696" lon="3.89262">
        <ele>75.6</ele>
        <time>2018-09-16T07:43:10Z</time>
      </trkpt>
      <trkpt lat="43.67696" lon="3.89255">
        <ele>75.9</ele>
        <time>2018-09-16T07:43:11Z</time>
      </trkpt>
      <trkpt lat="43.67695" lon="3.89248">
        <ele>76</ele>
        <time>2018-09-16T07:43:12Z</time>
      </trkpt>
      <trkpt lat="43.67692" lon="3.89242">
        <ele>75.8</ele>
        <time>2018-09-16T07:43:13Z</time>
      </trkpt>
      <trkpt lat="43.67691" lon="3.89234">
        <ele>75.8</ele>
        <time>2018-09-16T07:43:14Z</time>
      </trkpt>
      <trkpt lat="43.67689" lon="3.89227">
        <ele>75.8</ele>
        <time>2018-09-16T07:43:15Z</time>
      </trkpt>
      <trkpt lat="43.67687" lon="3.89222">
        <ele>75.7</ele>
        <time>2018-09-16T07:43:16Z</time>
      </trkpt>
      <trkpt lat="43.67686" lon="3.89215">
        <ele>75.7</ele>
        <time>2018-09-16T07:43:17Z</time>
      </trkpt>
      <trkpt lat="43.67684" lon="3.89209">
        <ele>75.6</ele>
        <time>2018-09-16T07:43:18Z</time>
      </trkpt>
      <trkpt lat="43.67684" lon="3.89202">
        <ele>75.6</ele>
        <time>2018-09-16T07:43:19Z</time>
      </trkpt>
      <trkpt lat="43.67683" lon="3.89196">
        <ele>75.6</ele>
        <time>2018-09-16T07:43:20Z</time>
      </trkpt>
      <trkpt lat="43.67681" lon="3.8919">
        <ele>75.5</ele>
        <time>2018-09-16T07:43:21Z</time>
      </trkpt>
      <trkpt lat="43.6768" lon="3.89184">
        <ele>75.5</ele>
        <time>2018-09-16T07:43:22Z</time>
      </trkpt>
      <trkpt lat="43.67678" lon="3.89178">
        <ele>75.4</ele>
        <time>2018-09-16T07:43:23Z</time>
      </trkpt>
      <trkpt lat="43.67676" lon="3.89171">
        <ele>75.3</ele>
        <time>2018-09-16T07:43:24Z</time>
      </trkpt>
      <trkpt lat="43.67675" lon="3.89165">
        <ele>75.4</ele>
        <time>2018-09-16T07:43:25Z</time>
      </trkpt>
      <trkpt lat="43.67673" lon="3.89158">
        <ele>75.5</ele>
        <time>2018-09-16T07:43:26Z</time>
      </trkpt>
      <trkpt lat="43.67672" lon="3.89152">
        <ele>75.7</ele>
        <time>2018-09-16T07:43:27Z</time>
      </trkpt>
      <trkpt lat="43.6767" lon="3.8914">
        <ele>76.1</ele>
        <time>2018-09-16T07:43:29Z</time>
      </trkpt>
      <trkpt lat="43.67668" lon="3.89134">
        <ele>76.2</ele>
        <time>2018-09-16T07:43:30Z</time>
      </trkpt>
      <trkpt lat="43.67667" lon="3.89127">
        <ele>76.4</ele>
        <time>2018-09-16T07:43:31Z</time>
      </trkpt>
      <trkpt lat="43.67666" lon="3.89121">
        <ele>76.6</ele>
        <time>2018-09-16T07:43:32Z</time>
      </trkpt>
      <trkpt lat="43.67664" lon="3.8911">
        <ele>77</ele>
        <time>2018-09-16T07:43:34Z</time>
      </trkpt>
      <trkpt lat="43.67662" lon="3.89106">
        <ele>77</ele>
        <time>2018-09-16T07:43:35Z</time>
      </trkpt>
      <trkpt lat="43.67658" lon="3.89095">
        <ele>77</ele>
        <time>2018-09-16T07:43:37Z</time>
      </trkpt>
      <trkpt lat="43.67656" lon="3.8909">
        <ele>77</ele>
        <time>2018-09-16T07:43:38Z</time>
      </trkpt>
      <trkpt lat="43.67655" lon="3.89083">
        <ele>77</ele>
        <time>2018-09-16T07:43:39Z</time>
      </trkpt>
      <trkpt lat="43.67651" lon="3.89077">
        <ele>77</ele>
        <time>2018-09-16T07:43:40Z</time>
      </trkpt>
      <trkpt lat="43.67647" lon="3.89067">
        <ele>77</ele>
        <time>2018-09-16T07:43:42Z</time>
      </trkpt>
      <trkpt lat="43.67645" lon="3.89063">
        <ele>77</ele>
        <time>2018-09-16T07:43:43Z</time>
      </trkpt>
      <trkpt lat="43.67639" lon="3.89054">
        <ele>77.1</ele>
        <time>2018-09-16T07:43:45Z</time>
      </trkpt>
      <trkpt lat="43.67636" lon="3.89049">
        <ele>77.2</ele>
        <time>2018-09-16T07:43:46Z</time>
      </trkpt>
      <trkpt lat="43.6763" lon="3.8904">
        <ele>77.4</ele>
        <time>2018-09-16T07:43:48Z</time>
      </trkpt>
      <trkpt lat="43.67626" lon="3.89037">
        <ele>77.4</ele>
        <time>2018-09-16T07:43:49Z</time>
      </trkpt>
      <trkpt lat="43.67622" lon="3.89034">
        <ele>77.3</ele>
        <time>2018-09-16T07:43:50Z</time>
      </trkpt>
      <trkpt lat="43.67618" lon="3.89029">
        <ele>77.2</ele>
        <time>2018-09-16T07:43:51Z</time>
      </trkpt>
      <trkpt lat="43.67614" lon="3.89019">
        <ele>77.1</ele>
        <time>2018-09-16T07:43:53Z</time>
      </trkpt>
      <trkpt lat="43.67611" lon="3.89013">
        <ele>77</ele>
        <time>2018-09-16T07:43:54Z</time>
      </trkpt>
      <trkpt lat="43.67607" lon="3.89003">
        <ele>77.1</ele>
        <time>2018-09-16T07:43:56Z</time>
      </trkpt>
      <trkpt lat="43.67605" lon="3.88997">
        <ele>77.3</ele>
        <time>2018-09-16T07:43:57Z</time>
      </trkpt>
      <trkpt lat="43.676" lon="3.88988">
        <ele>77.7</ele>
        <time>2018-09-16T07:43:59Z</time>
      </trkpt>
      <trkpt lat="43.67598" lon="3.88984">
        <ele>77.8</ele>
        <time>2018-09-16T07:44:00Z</time>
      </trkpt>
      <trkpt lat="43.67593" lon="3.88974">
        <ele>78</ele>
        <time>2018-09-16T07:44:02Z</time>
      </trkpt>
      <trkpt lat="43.67591" lon="3.88969">
        <ele>78.1</ele>
        <time>2018-09-16T07:44:03Z</time>
      </trkpt>
      <trkpt lat="43.67586" lon="3.8896">
        <ele>78.4</ele>
        <time>2018-09-16T07:44:05Z</time>
      </trkpt>
      <trkpt lat="43.67585" lon="3.88958">
        <ele>78.5</ele>
        <time>2018-09-16T07:44:06Z</time>
      </trkpt>
      <trkpt lat="43.67581" lon="3.88949">
        <ele>78.8</ele>
        <time>2018-09-16T07:44:08Z</time>
      </trkpt>
      <trkpt lat="43.67579" lon="3.88944">
        <ele>79</ele>
        <time>2018-09-16T07:44:09Z</time>
      </trkpt>
      <trkpt lat="43.67577" lon="3.88939">
        <ele>79.2</ele>
        <time>2018-09-16T07:44:11Z</time>
      </trkpt>
      <trkpt lat="43.67573" lon="3.88932">
        <ele>79.4</ele>
        <time>2018-09-16T07:44:12Z</time>
      </trkpt>
      <trkpt lat="43.67569" lon="3.88922">
        <ele>79.8</ele>
        <time>2018-09-16T07:44:16Z</time>
      </trkpt>
      <trkpt lat="43.67567" lon="3.88919">
        <ele>79.9</ele>
        <time>2018-09-16T07:44:17Z</time>
      </trkpt>
      <trkpt lat="43.67561" lon="3.88911">
        <ele>80.2</ele>
      </trkpt>
      <trkpt lat="43.6757" lon="3.88908">
        <ele>80.5</ele>
        <time>2018-09-16T07:44:21Z</time>
      </trkpt>
      <trkpt lat="43.67572" lon="3.88909">
        <ele>80.4</ele>
        <time>2018-09-16T07:44:22Z</time>
      </trkpt>
      <trkpt lat="43.67575" lon="3.88907">
        <ele>80.6</ele>
        <time>2018-09-16T07:44:23Z</time>
      </trkpt>
      <trkpt lat="43.67582" lon="3.88903">
        <ele>81</ele>
        <time>2018-09-16T07:44:24Z</time>
      </trkpt>
      <trkpt lat="43.67591" lon="3.88902">
        <ele>80.8</ele>
        <time>2018-09-16T07:44:26Z</time>
      </trkpt>
      <trkpt lat="43.67595" lon="3.88902">
        <ele>80.6</ele>
        <time>2018-09-16T07:44:27Z</time>
      </trkpt>
      <trkpt lat="43.67604" lon="3.88901">
        <ele>80.4</ele>
        <time>2018-09-16T07:44:29Z</time>
      </trkpt>
      <trkpt lat="43.67609" lon="3.88901">
        <ele>80.2</ele>
        <time>2018-09-16T07:44:30Z</time>
      </trkpt>
      <trkpt lat="43.67616" lon="3.88893">
        <ele>80.7</ele>
        <time>2018-09-16T07:44:35Z</time>
      </trkpt>
      <trkpt lat="43.67617" lon="3.88891">
        <ele>80.8</ele>
        <time>2018-09-16T07:44:36Z</time>
      </trkpt>
      <trkpt lat="43.67622" lon="3.88882">
        <ele>81.7</ele>
        <time>2018-09-16T07:44:40Z</time>
      </trkpt>
      <trkpt lat="43.67623" lon="3.8888">
        <ele>82</ele>
        <time>2018-09-16T07:44:41Z</time>
      </trkpt>
      <trkpt lat="43.67626" lon="3.88869">
        <ele>83.1</ele>
        <time>2018-09-16T07:44:45Z</time>
      </trkpt>
      <trkpt lat="43.67627" lon="3.88866">
        <ele>83.5</ele>
        <time>2018-09-16T07:44:46Z</time>
      </trkpt>
      <trkpt lat="43.67632" lon="3.88857">
        <ele>84.7</ele>
        <time>2018-09-16T07:44:49Z</time>
      </trkpt>
      <trkpt lat="43.67633" lon="3.88855">
        <ele>85</ele>
        <time>2018-09-16T07:44:50Z</time>
      </trkpt>
      <trkpt lat="43.6764" lon="3.88849">
        <ele>85.7</ele>
        <time>2018-09-16T07:44:53Z</time>
      </trkpt>
      <trkpt lat="43.67643" lon="3.88846">
        <ele>86</ele>
        <time>2018-09-16T07:44:54Z</time>
      </trkpt>
      <trkpt lat="43.67647" lon="3.88838">
        <ele>87</ele>
        <time>2018-09-16T07:44:57Z</time>
      </trkpt>
      <trkpt lat="43.6765" lon="3.88836">
        <ele>87.2</ele>
        <time>2018-09-16T07:44:58Z</time>
      </trkpt>
      <trkpt lat="43.67656" lon="3.88833">
        <ele>87.4</ele>
        <time>2018-09-16T07:45:01Z</time>
      </trkpt>
      <trkpt lat="43.67658" lon="3.88832">
        <ele>87.6</ele>
        <time>2018-09-16T07:45:02Z</time>
      </trkpt>
      <trkpt lat="43.67664" lon="3.88831">
        <ele>87.5</ele>
        <time>2018-09-16T07:45:04Z</time>
      </trkpt>
      <trkpt lat="43.67668" lon="3.8883">
        <ele>87.6</ele>
        <time>2018-09-16T07:45:05Z</time>
      </trkpt>
      <trkpt lat="43.67675" lon="3.8883">
        <ele>87.6</ele>
        <time>2018-09-16T07:45:07Z</time>
      </trkpt>
      <trkpt lat="43.67679" lon="3.8883">
        <ele>87.5</ele>
        <time>2018-09-16T07:45:08Z</time>
      </trkpt>
      <trkpt lat="43.67692" lon="3.88832">
        <ele>87.2</ele>
        <time>2018-09-16T07:45:09Z</time>
      </trkpt>
      <trkpt lat="43.67695" lon="3.88833">
        <ele>87</ele>
        <time>2018-09-16T07:45:10Z</time>
      </trkpt>
      <trkpt lat="43.67701" lon="3.88836">
        <ele>86.6</ele>
        <time>2018-09-16T07:45:11Z</time>
      </trkpt>
      <trkpt lat="43.67705" lon="3.88837">
        <ele>86.5</ele>
        <time>2018-09-16T07:45:12Z</time>
      </trkpt>
      <trkpt lat="43.6771" lon="3.88839">
        <ele>86.3</ele>
        <time>2018-09-16T07:45:13Z</time>
      </trkpt>
      <trkpt lat="43.67716" lon="3.8884">
        <ele>86.2</ele>
        <time>2018-09-16T07:45:15Z</time>
      </trkpt>
      <trkpt lat="43.67723" lon="3.8884">
        <ele>86.3</ele>
        <time>2018-09-16T07:45:16Z</time>
      </trkpt>
      <trkpt lat="43.67729" lon="3.88838">
        <ele>86.7</ele>
        <time>2018-09-16T07:45:17Z</time>
      </trkpt>
      <trkpt lat="43.67732" lon="3.88836">
        <ele>87.1</ele>
        <time>2018-09-16T07:45:18Z</time>
      </trkpt>
      <trkpt lat="43.67739" lon="3.88831">
        <ele>88.2</ele>
        <time>2018-09-16T07:45:22Z</time>
      </trkpt>
      <trkpt lat="43.67741" lon="3.8883">
        <ele>88.5</ele>
        <time>2018-09-16T07:45:23Z</time>
      </trkpt>
      <trkpt lat="43.67748" lon="3.88828">
        <ele>89.4</ele>
        <time>2018-09-16T07:45:26Z</time>
      </trkpt>
      <trkpt lat="43.67751" lon="3.88828">
        <ele>89.6</ele>
        <time>2018-09-16T07:45:27Z</time>
      </trkpt>
      <trkpt lat="43.67758" lon="3.8883">
        <ele>89.4</ele>
        <time>2018-09-16T07:45:29Z</time>
      </trkpt>
      <trkpt lat="43.67771" lon="3.88834">
        <ele>89.4</ele>
        <time>2018-09-16T07:45:30Z</time>
      </trkpt>
      <trkpt lat="43.6778" lon="3.88836">
        <ele>89.4</ele>
        <time>2018-09-16T07:45:34Z</time>
      </trkpt>
      <trkpt lat="43.67782" lon="3.88834">
        <ele>89.7</ele>
        <time>2018-09-16T07:45:35Z</time>
      </trkpt>
      <trkpt lat="43.67785" lon="3.88833">
        <ele>89.8</ele>
        <time>2018-09-16T07:45:36Z</time>
      </trkpt>
      <trkpt lat="43.67796" lon="3.88833">
        <ele>89.5</ele>
        <time>2018-09-16T07:45:37Z</time>
      </trkpt>
      <trkpt lat="43.67804" lon="3.88829">
        <ele>89.7</ele>
        <time>2018-09-16T07:45:40Z</time>
      </trkpt>
      <trkpt lat="43.67815" lon="3.88825">
        <ele>89.9</ele>
        <time>2018-09-16T07:45:41Z</time>
      </trkpt>
      <trkpt lat="43.67823" lon="3.88825">
        <ele>89.6</ele>
        <time>2018-09-16T07:45:46Z</time>
      </trkpt>
      <trkpt lat="43.67826" lon="3.88825">
        <ele>89.4</ele>
        <time>2018-09-16T07:45:47Z</time>
      </trkpt>
      <trkpt lat="43.67833" lon="3.88824">
        <ele>89.4</ele>
        <time>2018-09-16T07:45:50Z</time>
      </trkpt>
      <trkpt lat="43.67835" lon="3.88824">
        <ele>89.3</ele>
        <time>2018-09-16T07:45:51Z</time>
      </trkpt>
      <trkpt lat="43.67845" lon="3.88827">
        <ele>88.7</ele>
        <time>2018-09-16T07:45:52Z</time>
      </trkpt>
      <trkpt lat="43.67853" lon="3.8883">
        <ele>88.2</ele>
        <time>2018-09-16T07:45:54Z</time>
      </trkpt>
      <trkpt lat="43.67863" lon="3.88828">
        <ele>88</ele>
        <time>2018-09-16T07:45:55Z</time>
      </trkpt>
      <trkpt lat="43.67872" lon="3.88826">
        <ele>87.5</ele>
        <time>2018-09-16T07:45:57Z</time>
      </trkpt>
      <trkpt lat="43.67876" lon="3.8882">
        <ele>87.4</ele>
        <time>2018-09-16T07:45:58Z</time>
      </trkpt>
      <trkpt lat="43.67879" lon="3.88815">
        <ele>87.4</ele>
        <time>2018-09-16T07:45:59Z</time>
      </trkpt>
      <trkpt lat="43.67886" lon="3.88817">
        <ele>86.8</ele>
        <time>2018-09-16T07:46:00Z</time>
      </trkpt>
      <trkpt lat="43.67892" lon="3.8882">
        <ele>86.4</ele>
        <time>2018-09-16T07:46:01Z</time>
      </trkpt>
      <trkpt lat="43.67895" lon="3.88825">
        <ele>86.1</ele>
        <time>2018-09-16T07:46:02Z</time>
      </trkpt>
      <trkpt lat="43.67899" lon="3.88834">
        <ele>85.6</ele>
        <time>2018-09-16T07:46:04Z</time>
      </trkpt>
      <trkpt lat="43.67902" lon="3.88839">
        <ele>85.3</ele>
        <time>2018-09-16T07:46:05Z</time>
      </trkpt>
      <trkpt lat="43.67906" lon="3.88844">
        <ele>85</ele>
        <time>2018-09-16T07:46:06Z</time>
      </trkpt>
      <trkpt lat="43.6791" lon="3.8885">
        <ele>84.6</ele>
        <time>2018-09-16T07:46:07Z</time>
      </trkpt>
      <trkpt lat="43.67917" lon="3.88845">
        <ele>84.6</ele>
        <time>2018-09-16T07:46:11Z</time>
      </trkpt>
      <trkpt lat="43.67919" lon="3.88844">
        <ele>84.7</ele>
        <time>2018-09-16T07:46:12Z</time>
      </trkpt>
      <trkpt lat="43.67926" lon="3.88841">
        <ele>85.2</ele>
        <time>2018-09-16T07:46:15Z</time>
      </trkpt>
      <trkpt lat="43.67929" lon="3.88841">
        <ele>85.4</ele>
        <time>2018-09-16T07:46:16Z</time>
      </trkpt>
      <trkpt lat="43.67936" lon="3.88839">
        <ele>85.9</ele>
        <time>2018-09-16T07:46:19Z</time>
      </trkpt>
      <trkpt lat="43.67939" lon="3.88838">
        <ele>86.2</ele>
        <time>2018-09-16T07:46:20Z</time>
      </trkpt>
      <trkpt lat="43.67945" lon="3.88835">
        <ele>86.8</ele>
      </trkpt>
      <trkpt lat="43.67939" lon="3.88828">
        <ele>87</ele>
        <time>2018-09-16T07:46:33Z</time>
      </trkpt>
      <trkpt lat="43.67934" lon="3.88825">
        <ele>86.9</ele>
        <time>2018-09-16T07:46:34Z</time>
      </trkpt>
      <trkpt lat="43.67929" lon="3.88819">
        <ele>86.9</ele>
        <time>2018-09-16T07:46:38Z</time>
      </trkpt>
      <trkpt lat="43.67928" lon="3.88812">
        <ele>87.4</ele>
        <time>2018-09-16T07:46:39Z</time>
      </trkpt>
      <trkpt lat="43.67927" lon="3.88799">
        <ele>87.7</ele>
        <time>2018-09-16T07:46:40Z</time>
      </trkpt>
      <trkpt lat="43.67922" lon="3.88793">
        <ele>87.4</ele>
        <time>2018-09-16T07:46:42Z</time>
      </trkpt>
      <trkpt lat="43.67918" lon="3.88793">
        <ele>87.1</ele>
        <time>2018-09-16T07:46:43Z</time>
      </trkpt>
      <trkpt lat="43.6791" lon="3.88789">
        <ele>87</ele>
        <time>2018-09-16T07:46:45Z</time>
      </trkpt>
      <trkpt lat="43.67905" lon="3.88785">
        <ele>87</ele>
        <time>2018-09-16T07:46:46Z</time>
      </trkpt>
      <trkpt lat="43.67896" lon="3.88786">
        <ele>87</ele>
        <time>2018-09-16T07:46:48Z</time>
      </trkpt>
      <trkpt lat="43.67894" lon="3.88788">
        <ele>87</ele>
        <time>2018-09-16T07:46:49Z</time>
      </trkpt>
      <trkpt lat="43.67888" lon="3.88793">
        <ele>87.1</ele>
        <time>2018-09-16T07:46:54Z</time>
      </trkpt>
      <trkpt lat="43.67885" lon="3.88795">
        <ele>87.4</ele>
        <time>2018-09-16T07:46:55Z</time>
      </trkpt>
      <trkpt lat="43.67881" lon="3.888">
        <ele>87.8</ele>
      </trkpt>
      <trkpt lat="43.67873" lon="3.88796">
        <ele>88.9</ele>
        <time>2018-09-16T07:46:59Z</time>
      </trkpt>
      <trkpt lat="43.67869" lon="3.88794">
        <ele>89.6</ele>
        <time>2018-09-16T07:47:00Z</time>
      </trkpt>
      <trkpt lat="43.67866" lon="3.88794">
        <ele>90</ele>
        <time>2018-09-16T07:47:04Z</time>
      </trkpt>
      <trkpt lat="43.67865" lon="3.88792">
        <ele>90.4</ele>
        <time>2018-09-16T07:47:05Z</time>
      </trkpt>
      <trkpt lat="43.67857" lon="3.88792">
        <ele>91.3</ele>
        <time>2018-09-16T07:47:09Z</time>
      </trkpt>
      <trkpt lat="43.67855" lon="3.88792">
        <ele>91.5</ele>
        <time>2018-09-16T07:47:10Z</time>
      </trkpt>
      <trkpt lat="43.67848" lon="3.88787">
        <ele>92.8</ele>
        <time>2018-09-16T07:47:14Z</time>
      </trkpt>
      <trkpt lat="43.67845" lon="3.88786">
        <ele>93.1</ele>
        <time>2018-09-16T07:47:15Z</time>
      </trkpt>
      <trkpt lat="43.67839" lon="3.88787">
        <ele>93.6</ele>
        <time>2018-09-16T07:47:18Z</time>
      </trkpt>
      <trkpt lat="43.67836" lon="3.88786">
        <ele>93.9</ele>
        <time>2018-09-16T07:47:19Z</time>
      </trkpt>
      <trkpt lat="43.67827" lon="3.88788">
        <ele>94</ele>
        <time>2018-09-16T07:47:23Z</time>
      </trkpt>
      <trkpt lat="43.67825" lon="3.88787">
        <ele>94.1</ele>
        <time>2018-09-16T07:47:24Z</time>
      </trkpt>
      <trkpt lat="43.67816" lon="3.88793">
        <ele>93.7</ele>
        <time>2018-09-16T07:47:28Z</time>
      </trkpt>
      <trkpt lat="43.67813" lon="3.88792">
        <ele>93.9</ele>
        <time>2018-09-16T07:47:29Z</time>
      </trkpt>
      <trkpt lat="43.67805" lon="3.88793">
        <ele>94</ele>
      </trkpt>
      <trkpt lat="43.67801" lon="3.88792">
        <ele>94.5</ele>
        <time>2018-09-16T07:47:34Z</time>
      </trkpt>
      <trkpt lat="43.67797" lon="3.88788">
        <ele>95.4</ele>
        <time>2018-09-16T07:47:39Z</time>
      </trkpt>
      <trkpt lat="43.67792" lon="3.88793">
        <ele>95.3</ele>
        <time>2018-09-16T07:47:40Z</time>
      </trkpt>
      <trkpt lat="43.67786" lon="3.88797">
        <ele>95.2</ele>
        <time>2018-09-16T07:47:42Z</time>
      </trkpt>
      <trkpt lat="43.67783" lon="3.888">
        <ele>94.9</ele>
        <time>2018-09-16T07:47:43Z</time>
      </trkpt>
      <trkpt lat="43.67776" lon="3.88803">
        <ele>94.7</ele>
        <time>2018-09-16T07:47:45Z</time>
      </trkpt>
      <trkpt lat="43.67774" lon="3.88803">
        <ele>94.8</ele>
        <time>2018-09-16T07:47:46Z</time>
      </trkpt>
      <trkpt lat="43.67767" lon="3.888">
        <ele>95.7</ele>
        <time>2018-09-16T07:47:49Z</time>
      </trkpt>
      <trkpt lat="43.67765" lon="3.88799">
        <ele>96</ele>
        <time>2018-09-16T07:47:50Z</time>
      </trkpt>
      <trkpt lat="43.67757" lon="3.88797">
        <ele>96.7</ele>
        <time>2018-09-16T07:47:55Z</time>
      </trkpt>
      <trkpt lat="43.67755" lon="3.88796">
        <ele>96.9</ele>
        <time>2018-09-16T07:47:56Z</time>
      </trkpt>
      <trkpt lat="43.67749" lon="3.88792">
        <ele>97.4</ele>
        <time>2018-09-16T07:47:59Z</time>
      </trkpt>
      <trkpt lat="43.67747" lon="3.8879">
        <ele>97.4</ele>
        <time>2018-09-16T07:48:00Z</time>
      </trkpt>
      <trkpt lat="43.67741" lon="3.88782">
        <ele>98.1</ele>
        <time>2018-09-16T07:48:04Z</time>
      </trkpt>
      <trkpt lat="43.67739" lon="3.8878">
        <ele>98.3</ele>
        <time>2018-09-16T07:48:05Z</time>
      </trkpt>
      <trkpt lat="43.67735" lon="3.8877">
        <ele>99.3</ele>
        <time>2018-09-16T07:48:10Z</time>
      </trkpt>
      <trkpt lat="43.67735" lon="3.88767">
        <ele>99.6</ele>
        <time>2018-09-16T07:48:11Z</time>
      </trkpt>
      <trkpt lat="43.67729" lon="3.88759">
        <ele>99.9</ele>
        <time>2018-09-16T07:48:16Z</time>
      </trkpt>
      <trkpt lat="43.67728" lon="3.88757">
        <ele>100</ele>
        <time>2018-09-16T07:48:17Z</time>
      </trkpt>
      <trkpt lat="43.67722" lon="3.88748">
        <ele>100.2</ele>
        <time>2018-09-16T07:48:23Z</time>
      </trkpt>
      <trkpt lat="43.67721" lon="3.88747">
        <ele>100.3</ele>
        <time>2018-09-16T07:48:24Z</time>
      </trkpt>
      <trkpt lat="43.67715" lon="3.8874">
        <ele>101.1</ele>
        <time>2018-09-16T07:48:28Z</time>
      </trkpt>
      <trkpt lat="43.67713" lon="3.88739">
        <ele>101.2</ele>
        <time>2018-09-16T07:48:29Z</time>
      </trkpt>
      <trkpt lat="43.67704" lon="3.88739">
        <ele>101.2</ele>
        <time>2018-09-16T07:48:33Z</time>
      </trkpt>
      <trkpt lat="43.67702" lon="3.8874">
        <ele>101.1</ele>
        <time>2018-09-16T07:48:34Z</time>
      </trkpt>
      <trkpt lat="43.67695" lon="3.88741">
        <ele>101</ele>
        <time>2018-09-16T07:48:37Z</time>
      </trkpt>
      <trkpt lat="43.67692" lon="3.88742">
        <ele>100.8</ele>
        <time>2018-09-16T07:48:38Z</time>
      </trkpt>
      <trkpt lat="43.6768" lon="3.88747">
        <ele>99.8</ele>
        <time>2018-09-16T07:48:39Z</time>
      </trkpt>
      <trkpt lat="43.67675" lon="3.88748">
        <ele>99.5</ele>
        <time>2018-09-16T07:48:40Z</time>
      </trkpt>
      <trkpt lat="43.67671" lon="3.88752">
        <ele>99.1</ele>
        <time>2018-09-16T07:48:41Z</time>
      </trkpt>
      <trkpt lat="43.67664" lon="3.88752">
        <ele>98.8</ele>
        <time>2018-09-16T07:48:45Z</time>
      </trkpt>
      <trkpt lat="43.67655" lon="3.88755">
        <ele>98.3</ele>
        <time>2018-09-16T07:48:46Z</time>
      </trkpt>
      <trkpt lat="43.67649" lon="3.88749">
        <ele>98.5</ele>
        <time>2018-09-16T07:48:50Z</time>
      </trkpt>
      <trkpt lat="43.67647" lon="3.88747">
        <ele>98.6</ele>
        <time>2018-09-16T07:48:51Z</time>
      </trkpt>
      <trkpt lat="43.6764" lon="3.88743">
        <ele>98.8</ele>
        <time>2018-09-16T07:48:54Z</time>
      </trkpt>
      <trkpt lat="43.67638" lon="3.88742">
        <ele>98.9</ele>
        <time>2018-09-16T07:48:55Z</time>
      </trkpt>
      <trkpt lat="43.6763" lon="3.88739">
        <ele>99.3</ele>
        <time>2018-09-16T07:48:58Z</time>
      </trkpt>
      <trkpt lat="43.67628" lon="3.88739">
        <ele>99.3</ele>
        <time>2018-09-16T07:48:59Z</time>
      </trkpt>
      <trkpt lat="43.6762" lon="3.88742">
        <ele>99.2</ele>
        <time>2018-09-16T07:49:03Z</time>
      </trkpt>
      <trkpt lat="43.67617" lon="3.88744">
        <ele>99.1</ele>
        <time>2018-09-16T07:49:04Z</time>
      </trkpt>
      <trkpt lat="43.67613" lon="3.88752">
        <ele>98.8</ele>
        <time>2018-09-16T07:49:07Z</time>
      </trkpt>
      <trkpt lat="43.67612" lon="3.88755">
        <ele>98.6</ele>
        <time>2018-09-16T07:49:08Z</time>
      </trkpt>
      <trkpt lat="43.67606" lon="3.88762">
        <ele>97.9</ele>
        <time>2018-09-16T07:49:11Z</time>
      </trkpt>
      <trkpt lat="43.67603" lon="3.88766">
        <ele>97.6</ele>
        <time>2018-09-16T07:49:12Z</time>
      </trkpt>
      <trkpt lat="43.67598" lon="3.88772">
        <ele>97.2</ele>
        <time>2018-09-16T07:49:14Z</time>
      </trkpt>
      <trkpt lat="43.67594" lon="3.88773">
        <ele>97.1</ele>
        <time>2018-09-16T07:49:15Z</time>
      </trkpt>
      <trkpt lat="43.67588" lon="3.88778">
        <ele>97</ele>
        <time>2018-09-16T07:49:18Z</time>
      </trkpt>
      <trkpt lat="43.67586" lon="3.88779">
        <ele>96.9</ele>
        <time>2018-09-16T07:49:19Z</time>
      </trkpt>
      <trkpt lat="43.67581" lon="3.88779">
        <ele>96.6</ele>
        <time>2018-09-16T07:49:21Z</time>
      </trkpt>
      <trkpt lat="43.67577" lon="3.88779">
        <ele>96</ele>
        <time>2018-09-16T07:49:22Z</time>
      </trkpt>
      <trkpt lat="43.67573" lon="3.8878">
        <ele>95.4</ele>
        <time>2018-09-16T07:49:23Z</time>
      </trkpt>
      <trkpt lat="43.67562" lon="3.88784">
        <ele>93.7</ele>
        <time>2018-09-16T07:49:24Z</time>
      </trkpt>
      <trkpt lat="43.67557" lon="3.88781">
        <ele>93.1</ele>
        <time>2018-09-16T07:49:26Z</time>
      </trkpt>
      <trkpt lat="43.67551" lon="3.88783">
        <ele>92.3</ele>
        <time>2018-09-16T07:49:27Z</time>
      </trkpt>
      <trkpt lat="43.67542" lon="3.88782">
        <ele>91.3</ele>
        <time>2018-09-16T07:49:31Z</time>
      </trkpt>
      <trkpt lat="43.6754" lon="3.88781">
        <ele>91.1</ele>
        <time>2018-09-16T07:49:32Z</time>
      </trkpt>
      <trkpt lat="43.67535" lon="3.88772">
        <ele>91.1</ele>
        <time>2018-09-16T07:49:38Z</time>
      </trkpt>
      <trkpt lat="43.67533" lon="3.8877">
        <ele>91.1</ele>
        <time>2018-09-16T07:49:39Z</time>
      </trkpt>
      <trkpt lat="43.67527" lon="3.88766">
        <ele>90.9</ele>
        <time>2018-09-16T07:49:43Z</time>
      </trkpt>
      <trkpt lat="43.67525" lon="3.88765">
        <ele>91.1</ele>
        <time>2018-09-16T07:49:44Z</time>
      </trkpt>
      <trkpt lat="43.67517" lon="3.88764">
        <ele>91.8</ele>
        <time>2018-09-16T07:49:48Z</time>
      </trkpt>
      <trkpt lat="43.67515" lon="3.88763">
        <ele>92</ele>
        <time>2018-09-16T07:49:49Z</time>
      </trkpt>
      <trkpt lat="43.67507" lon="3.8876">
        <ele>92.8</ele>
        <time>2018-09-16T07:49:53Z</time>
      </trkpt>
      <trkpt lat="43.67505" lon="3.88758">
        <ele>93.1</ele>
        <time>2018-09-16T07:49:54Z</time>
      </trkpt>
      <trkpt lat="43.67497" lon="3.88753">
        <ele>94</ele>
        <time>2018-09-16T07:50:00Z</time>
      </trkpt>
      <trkpt lat="43.67495" lon="3.88752">
        <ele>94.2</ele>
        <time>2018-09-16T07:50:01Z</time>
      </trkpt>
      <trkpt lat="43.67488" lon="3.88745">
        <ele>95.1</ele>
        <time>2018-09-16T07:50:07Z</time>
      </trkpt>
      <trkpt lat="43.67487" lon="3.88744">
        <ele>95.3</ele>
        <time>2018-09-16T07:50:08Z</time>
      </trkpt>
      <trkpt lat="43.67483" lon="3.88734">
        <ele>96</ele>
        <time>2018-09-16T07:50:14Z</time>
      </trkpt>
      <trkpt lat="43.67483" lon="3.88733">
        <ele>96.1</ele>
        <time>2018-09-16T07:50:15Z</time>
      </trkpt>
      <trkpt lat="43.67481" lon="3.88721">
        <ele>96.7</ele>
        <time>2018-09-16T07:50:22Z</time>
      </trkpt>
      <trkpt lat="43.67481" lon="3.88718">
        <ele>96.6</ele>
        <time>2018-09-16T07:50:23Z</time>
      </trkpt>
      <trkpt lat="43.67479" lon="3.88708">
        <ele>96.5</ele>
        <time>2018-09-16T07:50:27Z</time>
      </trkpt>
      <trkpt lat="43.67479" lon="3.88705">
        <ele>96.4</ele>
        <time>2018-09-16T07:50:28Z</time>
      </trkpt>
      <trkpt lat="43.67477" lon="3.88694">
        <ele>96.2</ele>
        <time>2018-09-16T07:50:32Z</time>
      </trkpt>
      <trkpt lat="43.67475" lon="3.88692">
        <ele>96.1</ele>
        <time>2018-09-16T07:50:33Z</time>
      </trkpt>
      <trkpt lat="43.6747" lon="3.88683">
        <ele>95.9</ele>
        <time>2018-09-16T07:50:36Z</time>
      </trkpt>
      <trkpt lat="43.67469" lon="3.8868">
        <ele>95.8</ele>
        <time>2018-09-16T07:50:37Z</time>
      </trkpt>
      <trkpt lat="43.67463" lon="3.88675">
        <ele>95.6</ele>
        <time>2018-09-16T07:50:41Z</time>
      </trkpt>
      <trkpt lat="43.6746" lon="3.88675">
        <ele>95.4</ele>
        <time>2018-09-16T07:50:42Z</time>
      </trkpt>
      <trkpt lat="43.67454" lon="3.88679">
        <ele>95</ele>
        <time>2018-09-16T07:50:44Z</time>
      </trkpt>
      <trkpt lat="43.67451" lon="3.8868">
        <ele>94.8</ele>
        <time>2018-09-16T07:50:45Z</time>
      </trkpt>
      <trkpt lat="43.6744" lon="3.88685">
        <ele>94</ele>
        <time>2018-09-16T07:50:46Z</time>
      </trkpt>
      <trkpt lat="43.67431" lon="3.88688">
        <ele>93.2</ele>
        <time>2018-09-16T07:50:48Z</time>
      </trkpt>
      <trkpt lat="43.67427" lon="3.88689">
        <ele>92.8</ele>
        <time>2018-09-16T07:50:49Z</time>
      </trkpt>
      <trkpt lat="43.67422" lon="3.88691">
        <ele>92.4</ele>
        <time>2018-09-16T07:50:50Z</time>
      </trkpt>
      <trkpt lat="43.67417" lon="3.88693">
        <ele>92</ele>
        <time>2018-09-16T07:50:51Z</time>
      </trkpt>
      <trkpt lat="43.67412" lon="3.88696">
        <ele>91.9</ele>
        <time>2018-09-16T07:50:52Z</time>
      </trkpt>
      <trkpt lat="43.67408" lon="3.88699">
        <ele>91.8</ele>
        <time>2018-09-16T07:50:53Z</time>
      </trkpt>
      <trkpt lat="43.67399" lon="3.88702">
        <ele>91.5</ele>
        <time>2018-09-16T07:50:55Z</time>
      </trkpt>
      <trkpt lat="43.67395" lon="3.88707">
        <ele>91.3</ele>
        <time>2018-09-16T07:50:56Z</time>
      </trkpt>
      <trkpt lat="43.67388" lon="3.88715">
        <ele>91</ele>
        <time>2018-09-16T07:50:58Z</time>
      </trkpt>
      <trkpt lat="43.67386" lon="3.8872">
        <ele>90.9</ele>
        <time>2018-09-16T07:50:59Z</time>
      </trkpt>
      <trkpt lat="43.67384" lon="3.88728">
        <ele>90.8</ele>
        <time>2018-09-16T07:51:00Z</time>
      </trkpt>
      <trkpt lat="43.67378" lon="3.88733">
        <ele>90.5</ele>
        <time>2018-09-16T07:51:01Z</time>
      </trkpt>
      <trkpt lat="43.6737" lon="3.88738">
        <ele>89.9</ele>
        <time>2018-09-16T07:51:06Z</time>
      </trkpt>
      <trkpt lat="43.67362" lon="3.88749">
        <ele>89.1</ele>
        <time>2018-09-16T07:51:07Z</time>
      </trkpt>
      <trkpt lat="43.67358" lon="3.88752">
        <ele>89</ele>
        <time>2018-09-16T07:51:09Z</time>
      </trkpt>
      <trkpt lat="43.67355" lon="3.88754">
        <ele>88.9</ele>
        <time>2018-09-16T07:51:10Z</time>
      </trkpt>
      <trkpt lat="43.67351" lon="3.8876">
        <ele>88.7</ele>
        <time>2018-09-16T07:51:13Z</time>
      </trkpt>
      <trkpt lat="43.67343" lon="3.88765">
        <ele>88.3</ele>
        <time>2018-09-16T07:51:14Z</time>
      </trkpt>
      <trkpt lat="43.67337" lon="3.88771">
        <ele>87.7</ele>
        <time>2018-09-16T07:51:16Z</time>
      </trkpt>
      <trkpt lat="43.6733" lon="3.88775">
        <ele>87.5</ele>
        <time>2018-09-16T07:51:17Z</time>
      </trkpt>
      <trkpt lat="43.67326" lon="3.88777">
        <ele>87.8</ele>
        <time>2018-09-16T07:51:18Z</time>
      </trkpt>
      <trkpt lat="43.67322" lon="3.8878">
        <ele>88.1</ele>
        <time>2018-09-16T07:51:19Z</time>
      </trkpt>
      <trkpt lat="43.67316" lon="3.88787">
        <ele>88.5</ele>
        <time>2018-09-16T07:51:21Z</time>
      </trkpt>
      <trkpt lat="43.67314" lon="3.88792">
        <ele>88.6</ele>
        <time>2018-09-16T07:51:22Z</time>
      </trkpt>
      <trkpt lat="43.67305" lon="3.88797">
        <ele>89.3</ele>
        <time>2018-09-16T07:51:26Z</time>
      </trkpt>
      <trkpt lat="43.673" lon="3.88807">
        <ele>89.3</ele>
        <time>2018-09-16T07:51:27Z</time>
      </trkpt>
      <trkpt lat="43.67307" lon="3.88811">
        <ele>89.3</ele>
        <time>2018-09-16T07:51:32Z</time>
      </trkpt>
      <trkpt lat="43.6731" lon="3.8881">
        <ele>88.8</ele>
        <time>2018-09-16T07:51:33Z</time>
      </trkpt>
      <trkpt lat="43.67319" lon="3.88822">
        <ele>88.2</ele>
        <time>2018-09-16T07:51:34Z</time>
      </trkpt>
      <trkpt lat="43.67323" lon="3.88831">
        <ele>87.8</ele>
        <time>2018-09-16T07:51:36Z</time>
      </trkpt>
      <trkpt lat="43.67327" lon="3.88837">
        <ele>87.4</ele>
        <time>2018-09-16T07:51:37Z</time>
      </trkpt>
      <trkpt lat="43.67332" lon="3.88844">
        <ele>87</ele>
        <time>2018-09-16T07:51:39Z</time>
      </trkpt>
      <trkpt lat="43.67335" lon="3.88848">
        <ele>87</ele>
        <time>2018-09-16T07:51:40Z</time>
      </trkpt>
      <trkpt lat="43.6734" lon="3.88856">
        <ele>87.2</ele>
        <time>2018-09-16T07:51:42Z</time>
      </trkpt>
      <trkpt lat="43.67344" lon="3.88859">
        <ele>87.1</ele>
        <time>2018-09-16T07:51:43Z</time>
      </trkpt>
      <trkpt lat="43.67351" lon="3.88862">
        <ele>86.8</ele>
        <time>2018-09-16T07:51:45Z</time>
      </trkpt>
      <trkpt lat="43.67355" lon="3.88864">
        <ele>86.6</ele>
        <time>2018-09-16T07:51:46Z</time>
      </trkpt>
      <trkpt lat="43.67359" lon="3.88867">
        <ele>86.4</ele>
        <time>2018-09-16T07:51:47Z</time>
      </trkpt>
      <trkpt lat="43.67364" lon="3.88872">
        <ele>86.1</ele>
        <time>2018-09-16T07:51:48Z</time>
      </trkpt>
      <trkpt lat="43.67371" lon="3.88879">
        <ele>85.7</ele>
        <time>2018-09-16T07:51:50Z</time>
      </trkpt>
      <trkpt lat="43.67371" lon="3.8888">
        <ele>85.7</ele>
        <time>2018-09-16T07:51:51Z</time>
      </trkpt>
      <trkpt lat="43.67376" lon="3.88887">
        <ele>85.4</ele>
        <time>2018-09-16T07:51:53Z</time>
      </trkpt>
      <trkpt lat="43.6738" lon="3.88895">
        <ele>85.5</ele>
        <time>2018-09-16T07:51:54Z</time>
      </trkpt>
      <trkpt lat="43.67382" lon="3.88902">
        <ele>85.8</ele>
        <time>2018-09-16T07:51:56Z</time>
      </trkpt>
      <trkpt lat="43.67385" lon="3.88908">
        <ele>85.9</ele>
        <time>2018-09-16T07:51:57Z</time>
      </trkpt>
      <trkpt lat="43.67387" lon="3.88917">
        <ele>86.3</ele>
        <time>2018-09-16T07:51:59Z</time>
      </trkpt>
      <trkpt lat="43.67388" lon="3.88923">
        <ele>86.3</ele>
        <time>2018-09-16T07:52:00Z</time>
      </trkpt>
      <trkpt lat="43.67393" lon="3.88929">
        <ele>86</ele>
        <time>2018-09-16T07:52:02Z</time>
      </trkpt>
      <trkpt lat="43.67395" lon="3.88936">
        <ele>85.8</ele>
        <time>2018-09-16T07:52:03Z</time>
      </trkpt>
      <trkpt lat="43.67393" lon="3.88941">
        <ele>86.3</ele>
        <time>2018-09-16T07:52:10Z</time>
      </trkpt>
      <trkpt lat="43.67392" lon="3.88943">
        <ele>86.5</ele>
        <time>2018-09-16T07:52:11Z</time>
      </trkpt>
      <trkpt lat="43.67389" lon="3.88944">
        <ele>87</ele>
        <time>2018-09-16T07:52:14Z</time>
      </trkpt>
      <trkpt lat="43.67387" lon="3.88949">
        <ele>87.9</ele>
      </trkpt>
      <trkpt lat="43.67388" lon="3.88954">
        <ele>87.9</ele>
        <time>2018-09-16T07:52:15Z</time>
      </trkpt>
      <trkpt lat="43.67391" lon="3.88965">
        <ele>88.1</ele>
        <time>2018-09-16T07:52:19Z</time>
      </trkpt>
      <trkpt lat="43.67387" lon="3.88971">
        <ele>89.4</ele>
        <time>2018-09-16T07:52:20Z</time>
      </trkpt>
      <trkpt lat="43.67384" lon="3.88977">
        <ele>90.4</ele>
        <time>2018-09-16T07:52:25Z</time>
      </trkpt>
      <trkpt lat="43.67383" lon="3.88979">
        <ele>90.7</ele>
        <time>2018-09-16T07:52:26Z</time>
      </trkpt>
      <trkpt lat="43.67382" lon="3.88989">
        <ele>91.3</ele>
        <time>2018-09-16T07:52:29Z</time>
      </trkpt>
      <trkpt lat="43.67382" lon="3.88992">
        <ele>91.4</ele>
        <time>2018-09-16T07:52:30Z</time>
      </trkpt>
      <trkpt lat="43.67382" lon="3.89004">
        <ele>92</ele>
        <time>2018-09-16T07:52:33Z</time>
      </trkpt>
      <trkpt lat="43.67382" lon="3.89008">
        <ele>92.2</ele>
        <time>2018-09-16T07:52:34Z</time>
      </trkpt>
      <trkpt lat="43.6738" lon="3.89018">
        <ele>93.3</ele>
        <time>2018-09-16T07:52:37Z</time>
      </trkpt>
      <trkpt lat="43.6738" lon="3.89021">
        <ele>93.5</ele>
        <time>2018-09-16T07:52:38Z</time>
      </trkpt>
      <trkpt lat="43.6738" lon="3.89032">
        <ele>93.8</ele>
        <time>2018-09-16T07:52:42Z</time>
      </trkpt>
      <trkpt lat="43.6738" lon="3.89034">
        <ele>93.7</ele>
        <time>2018-09-16T07:52:43Z</time>
      </trkpt>
      <trkpt lat="43.67377" lon="3.89044">
        <ele>94</ele>
        <time>2018-09-16T07:52:49Z</time>
      </trkpt>
      <trkpt lat="43.67377" lon="3.89047">
        <ele>93.9</ele>
        <time>2018-09-16T07:52:50Z</time>
      </trkpt>
      <trkpt lat="43.67375" lon="3.89059">
        <ele>93.8</ele>
        <time>2018-09-16T07:52:55Z</time>
      </trkpt>
      <trkpt lat="43.67375" lon="3.89062">
        <ele>93.7</ele>
        <time>2018-09-16T07:52:56Z</time>
      </trkpt>
      <trkpt lat="43.67373" lon="3.89072">
        <ele>93.6</ele>
        <time>2018-09-16T07:52:59Z</time>
      </trkpt>
      <trkpt lat="43.67372" lon="3.89076">
        <ele>93.6</ele>
        <time>2018-09-16T07:53:00Z</time>
      </trkpt>
      <trkpt lat="43.67369" lon="3.89086">
        <ele>93.9</ele>
        <time>2018-09-16T07:53:03Z</time>
      </trkpt>
      <trkpt lat="43.67368" lon="3.8909">
        <ele>94.1</ele>
        <time>2018-09-16T07:53:04Z</time>
      </trkpt>
      <trkpt lat="43.67365" lon="3.89099">
        <ele>94.5</ele>
        <time>2018-09-16T07:53:07Z</time>
      </trkpt>
      <trkpt lat="43.67364" lon="3.89102">
        <ele>94.7</ele>
        <time>2018-09-16T07:53:08Z</time>
      </trkpt>
      <trkpt lat="43.67359" lon="3.89108">
        <ele>95.9</ele>
        <time>2018-09-16T07:53:14Z</time>
      </trkpt>
      <trkpt lat="43.67359" lon="3.89107">
        <ele>95.9</ele>
        <time>2018-09-16T07:53:16Z</time>
      </trkpt>
      <trkpt lat="43.6735" lon="3.8911">
        <ele>99</ele>
        <time>2018-09-16T07:54:03Z</time>
      </trkpt>
      <trkpt lat="43.67349" lon="3.8911">
        <ele>99.4</ele>
        <time>2018-09-16T07:54:04Z</time>
      </trkpt>
      <trkpt lat="43.6734" lon="3.8911">
        <ele>102.6</ele>
        <time>2018-09-16T07:54:16Z</time>
      </trkpt>
      <trkpt lat="43.67339" lon="3.8911">
        <ele>103</ele>
        <time>2018-09-16T07:54:17Z</time>
      </trkpt>
      <trkpt lat="43.67331" lon="3.89113">
        <ele>105.4</ele>
        <time>2018-09-16T07:54:23Z</time>
      </trkpt>
      <trkpt lat="43.6733" lon="3.89114">
        <ele>105.5</ele>
        <time>2018-09-16T07:54:24Z</time>
      </trkpt>
      <trkpt lat="43.67324" lon="3.89111">
        <ele>106.7</ele>
        <time>2018-09-16T07:54:30Z</time>
      </trkpt>
      <trkpt lat="43.67322" lon="3.89112">
        <ele>107.1</ele>
        <time>2018-09-16T07:54:31Z</time>
      </trkpt>
      <trkpt lat="43.67319" lon="3.89113">
        <ele>107.6</ele>
      </trkpt>
      <trkpt lat="43.67311" lon="3.89114">
        <ele>109.1</ele>
        <time>2018-09-16T07:54:39Z</time>
      </trkpt>
      <trkpt lat="43.67305" lon="3.89116">
        <ele>110.2</ele>
        <time>2018-09-16T07:54:51Z</time>
      </trkpt>
      <trkpt lat="43.67303" lon="3.89117">
        <ele>110.3</ele>
        <time>2018-09-16T07:54:53Z</time>
      </trkpt>
      <trkpt lat="43.67296" lon="3.89115">
        <ele>110.4</ele>
        <time>2018-09-16T07:55:03Z</time>
      </trkpt>
      <trkpt lat="43.67294" lon="3.89113">
        <ele>110.5</ele>
        <time>2018-09-16T07:55:04Z</time>
      </trkpt>
      <trkpt lat="43.67288" lon="3.89105">
        <ele>110.5</ele>
        <time>2018-09-16T07:55:08Z</time>
      </trkpt>
      <trkpt lat="43.67287" lon="3.89104">
        <ele>110.5</ele>
        <time>2018-09-16T07:55:09Z</time>
      </trkpt>
      <trkpt lat="43.67279" lon="3.89104">
        <ele>110.7</ele>
        <time>2018-09-16T07:55:13Z</time>
      </trkpt>
      <trkpt lat="43.67277" lon="3.89106">
        <ele>110.7</ele>
        <time>2018-09-16T07:55:14Z</time>
      </trkpt>
      <trkpt lat="43.67268" lon="3.89108">
        <ele>109.2</ele>
        <time>2018-09-16T07:55:17Z</time>
      </trkpt>
      <trkpt lat="43.67266" lon="3.89109">
        <ele>108.8</ele>
        <time>2018-09-16T07:55:18Z</time>
      </trkpt>
      <trkpt lat="43.67259" lon="3.89114">
        <ele>107.6</ele>
        <time>2018-09-16T07:55:21Z</time>
      </trkpt>
      <trkpt lat="43.67257" lon="3.89117">
        <ele>107.3</ele>
        <time>2018-09-16T07:55:22Z</time>
      </trkpt>
      <trkpt lat="43.67254" lon="3.89126">
        <ele>106.7</ele>
        <time>2018-09-16T07:55:25Z</time>
      </trkpt>
      <trkpt lat="43.67252" lon="3.89128">
        <ele>106.4</ele>
        <time>2018-09-16T07:55:26Z</time>
      </trkpt>
      <trkpt lat="43.67245" lon="3.89133">
        <ele>105.5</ele>
        <time>2018-09-16T07:55:28Z</time>
      </trkpt>
      <trkpt lat="43.67242" lon="3.89136">
        <ele>105.1</ele>
        <time>2018-09-16T07:55:29Z</time>
      </trkpt>
      <trkpt lat="43.67237" lon="3.89142">
        <ele>104.7</ele>
        <time>2018-09-16T07:55:32Z</time>
      </trkpt>
      <trkpt lat="43.67234" lon="3.89144">
        <ele>104.5</ele>
        <time>2018-09-16T07:55:33Z</time>
      </trkpt>
      <trkpt lat="43.6723" lon="3.89152">
        <ele>104.3</ele>
        <time>2018-09-16T07:55:35Z</time>
      </trkpt>
      <trkpt lat="43.67228" lon="3.89156">
        <ele>104.2</ele>
        <time>2018-09-16T07:55:36Z</time>
      </trkpt>
      <trkpt lat="43.67225" lon="3.89164">
        <ele>104.2</ele>
        <time>2018-09-16T07:55:38Z</time>
      </trkpt>
      <trkpt lat="43.67223" lon="3.89169">
        <ele>104.2</ele>
        <time>2018-09-16T07:55:39Z</time>
      </trkpt>
      <trkpt lat="43.67218" lon="3.89177">
        <ele>104.1</ele>
        <time>2018-09-16T07:55:41Z</time>
      </trkpt>
      <trkpt lat="43.67215" lon="3.89181">
        <ele>104</ele>
        <time>2018-09-16T07:55:42Z</time>
      </trkpt>
      <trkpt lat="43.67212" lon="3.8919">
        <ele>104.1</ele>
        <time>2018-09-16T07:55:45Z</time>
      </trkpt>
      <trkpt lat="43.67211" lon="3.89195">
        <ele>104.2</ele>
        <time>2018-09-16T07:55:46Z</time>
      </trkpt>
      <trkpt lat="43.67206" lon="3.89205">
        <ele>104.2</ele>
        <time>2018-09-16T07:55:49Z</time>
      </trkpt>
      <trkpt lat="43.67205" lon="3.89208">
        <ele>104.2</ele>
        <time>2018-09-16T07:55:50Z</time>
      </trkpt>
      <trkpt lat="43.67201" lon="3.89216">
        <ele>104.2</ele>
        <time>2018-09-16T07:55:52Z</time>
      </trkpt>
      <trkpt lat="43.67198" lon="3.89219">
        <ele>104.1</ele>
        <time>2018-09-16T07:55:53Z</time>
      </trkpt>
      <trkpt lat="43.67192" lon="3.89223">
        <ele>103.9</ele>
        <time>2018-09-16T07:55:55Z</time>
      </trkpt>
      <trkpt lat="43.6719" lon="3.89224">
        <ele>103.7</ele>
        <time>2018-09-16T07:55:56Z</time>
      </trkpt>
      <trkpt lat="43.67187" lon="3.89226">
        <ele>103.6</ele>
        <time>2018-09-16T07:55:57Z</time>
      </trkpt>
      <trkpt lat="43.67176" lon="3.89235">
        <ele>103.1</ele>
        <time>2018-09-16T07:55:58Z</time>
      </trkpt>
      <trkpt lat="43.67167" lon="3.89233">
        <ele>102.4</ele>
        <time>2018-09-16T07:56:00Z</time>
      </trkpt>
      <trkpt lat="43.67164" lon="3.89233">
        <ele>102.3</ele>
        <time>2018-09-16T07:56:01Z</time>
      </trkpt>
      <trkpt lat="43.67158" lon="3.89235">
        <ele>102</ele>
        <time>2018-09-16T07:56:02Z</time>
      </trkpt>
      <trkpt lat="43.67155" lon="3.89237">
        <ele>101.9</ele>
        <time>2018-09-16T07:56:03Z</time>
      </trkpt>
      <trkpt lat="43.67148" lon="3.89242">
        <ele>101.6</ele>
        <time>2018-09-16T07:56:05Z</time>
      </trkpt>
      <trkpt lat="43.67145" lon="3.89247">
        <ele>101.4</ele>
        <time>2018-09-16T07:56:06Z</time>
      </trkpt>
      <trkpt lat="43.67141" lon="3.89249">
        <ele>101.1</ele>
        <time>2018-09-16T07:56:07Z</time>
      </trkpt>
      <trkpt lat="43.67136" lon="3.89252">
        <ele>101</ele>
        <time>2018-09-16T07:56:08Z</time>
      </trkpt>
      <trkpt lat="43.67132" lon="3.89256">
        <ele>101.2</ele>
        <time>2018-09-16T07:56:09Z</time>
      </trkpt>
      <trkpt lat="43.67126" lon="3.89257">
        <ele>101.2</ele>
        <time>2018-09-16T07:56:10Z</time>
      </trkpt>
      <trkpt lat="43.6712" lon="3.89256">
        <ele>100.9</ele>
        <time>2018-09-16T07:56:11Z</time>
      </trkpt>
      <trkpt lat="43.67115" lon="3.89256">
        <ele>100.8</ele>
        <time>2018-09-16T07:56:12Z</time>
      </trkpt>
      <trkpt lat="43.67106" lon="3.89257">
        <ele>101.1</ele>
        <time>2018-09-16T07:56:14Z</time>
      </trkpt>
      <trkpt lat="43.67102" lon="3.89256">
        <ele>101.2</ele>
        <time>2018-09-16T07:56:15Z</time>
      </trkpt>
      <trkpt lat="43.67094" lon="3.89252">
        <ele>101.4</ele>
        <time>2018-09-16T07:56:17Z</time>
      </trkpt>
      <trkpt lat="43.67093" lon="3.89252">
        <ele>101.5</ele>
        <time>2018-09-16T07:56:18Z</time>
      </trkpt>
      <trkpt lat="43.67085" lon="3.89251">
        <ele>102</ele>
        <time>2018-09-16T07:56:22Z</time>
      </trkpt>
      <trkpt lat="43.67083" lon="3.89251">
        <ele>102.1</ele>
        <time>2018-09-16T07:56:23Z</time>
      </trkpt>
      <trkpt lat="43.67074" lon="3.89247">
        <ele>102.4</ele>
        <time>2018-09-16T07:56:27Z</time>
      </trkpt>
      <trkpt lat="43.67072" lon="3.89246">
        <ele>102.5</ele>
        <time>2018-09-16T07:56:28Z</time>
      </trkpt>
      <trkpt lat="43.67064" lon="3.89243">
        <ele>103</ele>
        <time>2018-09-16T07:56:32Z</time>
      </trkpt>
      <trkpt lat="43.67062" lon="3.89241">
        <ele>103.1</ele>
        <time>2018-09-16T07:56:33Z</time>
      </trkpt>
      <trkpt lat="43.67061" lon="3.89245">
        <ele>103.4</ele>
      </trkpt>
      <trkpt lat="43.67053" lon="3.89245">
        <ele>103.6</ele>
        <time>2018-09-16T07:56:37Z</time>
      </trkpt>
      <trkpt lat="43.67049" lon="3.89234">
        <ele>103</ele>
        <time>2018-09-16T07:56:38Z</time>
      </trkpt>
      <trkpt lat="43.67046" lon="3.89224">
        <ele>102.7</ele>
        <time>2018-09-16T07:56:40Z</time>
      </trkpt>
      <trkpt lat="43.67044" lon="3.89216">
        <ele>102.8</ele>
        <time>2018-09-16T07:56:41Z</time>
      </trkpt>
      <trkpt lat="43.67044" lon="3.89209">
        <ele>103</ele>
        <time>2018-09-16T07:56:43Z</time>
      </trkpt>
      <trkpt lat="43.67043" lon="3.89205">
        <ele>103.1</ele>
        <time>2018-09-16T07:56:44Z</time>
      </trkpt>
      <trkpt lat="43.6704" lon="3.89195">
        <ele>103.5</ele>
        <time>2018-09-16T07:56:46Z</time>
      </trkpt>
      <trkpt lat="43.67038" lon="3.89189">
        <ele>103.8</ele>
        <time>2018-09-16T07:56:47Z</time>
      </trkpt>
      <trkpt lat="43.67036" lon="3.89177">
        <ele>104.1</ele>
        <time>2018-09-16T07:56:49Z</time>
      </trkpt>
      <trkpt lat="43.67035" lon="3.89172">
        <ele>104.3</ele>
        <time>2018-09-16T07:56:50Z</time>
      </trkpt>
      <trkpt lat="43.67035" lon="3.89161">
        <ele>104.6</ele>
        <time>2018-09-16T07:56:52Z</time>
      </trkpt>
      <trkpt lat="43.67034" lon="3.89157">
        <ele>104.8</ele>
        <time>2018-09-16T07:56:53Z</time>
      </trkpt>
      <trkpt lat="43.67034" lon="3.89148">
        <ele>105.1</ele>
        <time>2018-09-16T07:56:55Z</time>
      </trkpt>
      <trkpt lat="43.67033" lon="3.89144">
        <ele>105.3</ele>
        <time>2018-09-16T07:56:56Z</time>
      </trkpt>
      <trkpt lat="43.67032" lon="3.89135">
        <ele>105.5</ele>
        <time>2018-09-16T07:56:58Z</time>
      </trkpt>
      <trkpt lat="43.67032" lon="3.8913">
        <ele>105.5</ele>
        <time>2018-09-16T07:56:59Z</time>
      </trkpt>
      <trkpt lat="43.6703" lon="3.89121">
        <ele>105.7</ele>
        <time>2018-09-16T07:57:01Z</time>
      </trkpt>
      <trkpt lat="43.67029" lon="3.89116">
        <ele>105.8</ele>
        <time>2018-09-16T07:57:02Z</time>
      </trkpt>
      <trkpt lat="43.67027" lon="3.89107">
        <ele>105.9</ele>
        <time>2018-09-16T07:57:04Z</time>
      </trkpt>
      <trkpt lat="43.67026" lon="3.89103">
        <ele>105.9</ele>
        <time>2018-09-16T07:57:05Z</time>
      </trkpt>
      <trkpt lat="43.67025" lon="3.89094">
        <ele>105.9</ele>
        <time>2018-09-16T07:57:07Z</time>
      </trkpt>
      <trkpt lat="43.67024" lon="3.8909">
        <ele>105.8</ele>
        <time>2018-09-16T07:57:08Z</time>
      </trkpt>
      <trkpt lat="43.67023" lon="3.89081">
        <ele>105.8</ele>
        <time>2018-09-16T07:57:10Z</time>
      </trkpt>
      <trkpt lat="43.67023" lon="3.89077">
        <ele>105.9</ele>
        <time>2018-09-16T07:57:11Z</time>
      </trkpt>
      <trkpt lat="43.67021" lon="3.89068">
        <ele>105.9</ele>
        <time>2018-09-16T07:57:13Z</time>
      </trkpt>
      <trkpt lat="43.67021" lon="3.89064">
        <ele>105.9</ele>
        <time>2018-09-16T07:57:14Z</time>
      </trkpt>
      <trkpt lat="43.67016" lon="3.89047">
        <ele>106</ele>
        <time>2018-09-16T07:57:15Z</time>
      </trkpt>
      <trkpt lat="43.67016" lon="3.89035">
        <ele>106</ele>
        <time>2018-09-16T07:57:19Z</time>
      </trkpt>
      <trkpt lat="43.67015" lon="3.8903">
        <ele>106</ele>
        <time>2018-09-16T07:57:20Z</time>
      </trkpt>
      <trkpt lat="43.67014" lon="3.89022">
        <ele>106.1</ele>
        <time>2018-09-16T07:57:22Z</time>
      </trkpt>
      <trkpt lat="43.67013" lon="3.89017">
        <ele>106.2</ele>
        <time>2018-09-16T07:57:23Z</time>
      </trkpt>
      <trkpt lat="43.67011" lon="3.89005">
        <ele>106.5</ele>
        <time>2018-09-16T07:57:26Z</time>
      </trkpt>
      <trkpt lat="43.6701" lon="3.89002">
        <ele>106.6</ele>
        <time>2018-09-16T07:57:27Z</time>
      </trkpt>
      <trkpt lat="43.67011" lon="3.88993">
        <ele>106.9</ele>
        <time>2018-09-16T07:57:29Z</time>
      </trkpt>
      <trkpt lat="43.67012" lon="3.88989">
        <ele>107</ele>
        <time>2018-09-16T07:57:30Z</time>
      </trkpt>
      <trkpt lat="43.67013" lon="3.8898">
        <ele>107.3</ele>
        <time>2018-09-16T07:57:32Z</time>
      </trkpt>
      <trkpt lat="43.67013" lon="3.88974">
        <ele>107.5</ele>
        <time>2018-09-16T07:57:33Z</time>
      </trkpt>
      <trkpt lat="43.67012" lon="3.88965">
        <ele>108</ele>
        <time>2018-09-16T07:57:35Z</time>
      </trkpt>
      <trkpt lat="43.67011" lon="3.8896">
        <ele>108.3</ele>
        <time>2018-09-16T07:57:36Z</time>
      </trkpt>
      <trkpt lat="43.6701" lon="3.8895">
        <ele>109</ele>
        <time>2018-09-16T07:57:39Z</time>
      </trkpt>
      <trkpt lat="43.67009" lon="3.88946">
        <ele>109.3</ele>
        <time>2018-09-16T07:57:40Z</time>
      </trkpt>
      <trkpt lat="43.67008" lon="3.88935">
        <ele>109.7</ele>
        <time>2018-09-16T07:57:43Z</time>
      </trkpt>
      <trkpt lat="43.67008" lon="3.88931">
        <ele>109.8</ele>
        <time>2018-09-16T07:57:44Z</time>
      </trkpt>
      <trkpt lat="43.67008" lon="3.88921">
        <ele>110</ele>
        <time>2018-09-16T07:57:47Z</time>
      </trkpt>
      <trkpt lat="43.67006" lon="3.88917">
        <ele>110.3</ele>
        <time>2018-09-16T07:57:48Z</time>
      </trkpt>
      <trkpt lat="43.67004" lon="3.88908">
        <ele>110.6</ele>
        <time>2018-09-16T07:57:50Z</time>
      </trkpt>
      <trkpt lat="43.67004" lon="3.88905">
        <ele>110.6</ele>
        <time>2018-09-16T07:57:51Z</time>
      </trkpt>
      <trkpt lat="43.67005" lon="3.88894">
        <ele>110.5</ele>
        <time>2018-09-16T07:57:54Z</time>
      </trkpt>
      <trkpt lat="43.67005" lon="3.8889">
        <ele>110.5</ele>
        <time>2018-09-16T07:57:55Z</time>
      </trkpt>
      <trkpt lat="43.67004" lon="3.88879">
        <ele>110.9</ele>
        <time>2018-09-16T07:57:58Z</time>
      </trkpt>
      <trkpt lat="43.67004" lon="3.88874">
        <ele>111.1</ele>
        <time>2018-09-16T07:57:59Z</time>
      </trkpt>
      <trkpt lat="43.67002" lon="3.88863">
        <ele>111.7</ele>
        <time>2018-09-16T07:58:01Z</time>
      </trkpt>
      <trkpt lat="43.67002" lon="3.88857">
        <ele>111.9</ele>
        <time>2018-09-16T07:58:02Z</time>
      </trkpt>
      <trkpt lat="43.67001" lon="3.8885">
        <ele>112.3</ele>
        <time>2018-09-16T07:58:03Z</time>
      </trkpt>
      <trkpt lat="43.67" lon="3.88845">
        <ele>112.6</ele>
        <time>2018-09-16T07:58:04Z</time>
      </trkpt>
      <trkpt lat="43.66999" lon="3.88836">
        <ele>112.9</ele>
        <time>2018-09-16T07:58:06Z</time>
      </trkpt>
      <trkpt lat="43.67" lon="3.88831">
        <ele>113</ele>
        <time>2018-09-16T07:58:07Z</time>
      </trkpt>
      <trkpt lat="43.67" lon="3.88823">
        <ele>113</ele>
        <time>2018-09-16T07:58:09Z</time>
      </trkpt>
      <trkpt lat="43.67001" lon="3.88819">
        <ele>112.9</ele>
        <time>2018-09-16T07:58:10Z</time>
      </trkpt>
      <trkpt lat="43.67002" lon="3.88809">
        <ele>112.8</ele>
        <time>2018-09-16T07:58:12Z</time>
      </trkpt>
      <trkpt lat="43.67003" lon="3.88804">
        <ele>112.8</ele>
        <time>2018-09-16T07:58:13Z</time>
      </trkpt>
      <trkpt lat="43.67003" lon="3.88795">
        <ele>113.1</ele>
        <time>2018-09-16T07:58:15Z</time>
      </trkpt>
      <trkpt lat="43.67002" lon="3.88791">
        <ele>113.3</ele>
        <time>2018-09-16T07:58:16Z</time>
      </trkpt>
      <trkpt lat="43.67003" lon="3.88781">
        <ele>113.6</ele>
        <time>2018-09-16T07:58:18Z</time>
      </trkpt>
      <trkpt lat="43.67003" lon="3.88776">
        <ele>113.7</ele>
        <time>2018-09-16T07:58:19Z</time>
      </trkpt>
      <trkpt lat="43.67002" lon="3.88764">
        <ele>114.3</ele>
        <time>2018-09-16T07:58:21Z</time>
      </trkpt>
      <trkpt lat="43.67002" lon="3.88758">
        <ele>114.5</ele>
        <time>2018-09-16T07:58:22Z</time>
      </trkpt>
      <trkpt lat="43.67002" lon="3.88749">
        <ele>114.8</ele>
        <time>2018-09-16T07:58:24Z</time>
      </trkpt>
      <trkpt lat="43.67003" lon="3.88745">
        <ele>114.7</ele>
        <time>2018-09-16T07:58:25Z</time>
      </trkpt>
      <trkpt lat="43.67004" lon="3.88735">
        <ele>114.5</ele>
        <time>2018-09-16T07:58:27Z</time>
      </trkpt>
      <trkpt lat="43.67" lon="3.8872">
        <ele>114.9</ele>
        <time>2018-09-16T07:58:28Z</time>
      </trkpt>
      <trkpt lat="43.66999" lon="3.88714">
        <ele>114.7</ele>
        <time>2018-09-16T07:58:30Z</time>
      </trkpt>
      <trkpt lat="43.66998" lon="3.88704">
        <ele>114.4</ele>
        <time>2018-09-16T07:58:31Z</time>
      </trkpt>
      <trkpt lat="43.67004" lon="3.88697">
        <ele>113.5</ele>
        <time>2018-09-16T07:58:33Z</time>
      </trkpt>
      <trkpt lat="43.67004" lon="3.88693">
        <ele>113.3</ele>
        <time>2018-09-16T07:58:34Z</time>
      </trkpt>
      <trkpt lat="43.67004" lon="3.88686">
        <ele>112.6</ele>
        <time>2018-09-16T07:58:35Z</time>
      </trkpt>
      <trkpt lat="43.67004" lon="3.88679">
        <ele>111.8</ele>
        <time>2018-09-16T07:58:36Z</time>
      </trkpt>
      <trkpt lat="43.67005" lon="3.88674">
        <ele>111.2</ele>
        <time>2018-09-16T07:58:37Z</time>
      </trkpt>
      <trkpt lat="43.67007" lon="3.88667">
        <ele>110.3</ele>
        <time>2018-09-16T07:58:38Z</time>
      </trkpt>
      <trkpt lat="43.67008" lon="3.8866">
        <ele>109.7</ele>
        <time>2018-09-16T07:58:39Z</time>
      </trkpt>
      <trkpt lat="43.67008" lon="3.8865">
        <ele>108.9</ele>
        <time>2018-09-16T07:58:40Z</time>
      </trkpt>
      <trkpt lat="43.67008" lon="3.88642">
        <ele>108.4</ele>
        <time>2018-09-16T07:58:41Z</time>
      </trkpt>
      <trkpt lat="43.67008" lon="3.88634">
        <ele>107.8</ele>
        <time>2018-09-16T07:58:42Z</time>
      </trkpt>
      <trkpt lat="43.67006" lon="3.88624">
        <ele>107.4</ele>
        <time>2018-09-16T07:58:43Z</time>
      </trkpt>
      <trkpt lat="43.67007" lon="3.88615">
        <ele>106.7</ele>
        <time>2018-09-16T07:58:44Z</time>
      </trkpt>
      <trkpt lat="43.67007" lon="3.88607">
        <ele>106.2</ele>
        <time>2018-09-16T07:58:45Z</time>
      </trkpt>
      <trkpt lat="43.67011" lon="3.88601">
        <ele>105.5</ele>
        <time>2018-09-16T07:58:46Z</time>
      </trkpt>
      <trkpt lat="43.67009" lon="3.88588">
        <ele>104.7</ele>
        <time>2018-09-16T07:58:47Z</time>
      </trkpt>
      <trkpt lat="43.67009" lon="3.8858">
        <ele>104.1</ele>
        <time>2018-09-16T07:58:48Z</time>
      </trkpt>
      <trkpt lat="43.67009" lon="3.8857">
        <ele>103.4</ele>
        <time>2018-09-16T07:58:49Z</time>
      </trkpt>
      <trkpt lat="43.67011" lon="3.88562">
        <ele>102.7</ele>
        <time>2018-09-16T07:58:50Z</time>
      </trkpt>
      <trkpt lat="43.67012" lon="3.88552">
        <ele>101.9</ele>
        <time>2018-09-16T07:58:51Z</time>
      </trkpt>
      <trkpt lat="43.67014" lon="3.88545">
        <ele>101.2</ele>
        <time>2018-09-16T07:58:52Z</time>
      </trkpt>
      <trkpt lat="43.67017" lon="3.88536">
        <ele>100.5</ele>
        <time>2018-09-16T07:58:53Z</time>
      </trkpt>
      <trkpt lat="43.67025" lon="3.88531">
        <ele>100.1</ele>
        <time>2018-09-16T07:58:54Z</time>
      </trkpt>
      <trkpt lat="43.6703" lon="3.88523">
        <ele>99.5</ele>
        <time>2018-09-16T07:58:55Z</time>
      </trkpt>
      <trkpt lat="43.67036" lon="3.88517">
        <ele>98.7</ele>
        <time>2018-09-16T07:58:56Z</time>
      </trkpt>
      <trkpt lat="43.67043" lon="3.8851">
        <ele>98</ele>
        <time>2018-09-16T07:58:57Z</time>
      </trkpt>
      <trkpt lat="43.67051" lon="3.88504">
        <ele>97.3</ele>
        <time>2018-09-16T07:58:58Z</time>
      </trkpt>
      <trkpt lat="43.67057" lon="3.88499">
        <ele>97</ele>
        <time>2018-09-16T07:58:59Z</time>
      </trkpt>
      <trkpt lat="43.67065" lon="3.88495">
        <ele>97</ele>
        <time>2018-09-16T07:59:00Z</time>
      </trkpt>
      <trkpt lat="43.67072" lon="3.88491">
        <ele>97</ele>
        <time>2018-09-16T07:59:01Z</time>
      </trkpt>
      <trkpt lat="43.67079" lon="3.88487">
        <ele>97</ele>
        <time>2018-09-16T07:59:02Z</time>
      </trkpt>
      <trkpt lat="43.67087" lon="3.88484">
        <ele>97.1</ele>
        <time>2018-09-16T07:59:03Z</time>
      </trkpt>
      <trkpt lat="43.67093" lon="3.8848">
        <ele>97.3</ele>
        <time>2018-09-16T07:59:04Z</time>
      </trkpt>
      <trkpt lat="43.67098" lon="3.88475">
        <ele>97.5</ele>
        <time>2018-09-16T07:59:05Z</time>
      </trkpt>
      <trkpt lat="43.67102" lon="3.88469">
        <ele>97.8</ele>
        <time>2018-09-16T07:59:06Z</time>
      </trkpt>
      <trkpt lat="43.67103" lon="3.88464">
        <ele>98.1</ele>
        <time>2018-09-16T07:59:07Z</time>
      </trkpt>
      <trkpt lat="43.67106" lon="3.88453">
        <ele>98.9</ele>
        <time>2018-09-16T07:59:10Z</time>
      </trkpt>
      <trkpt lat="43.67106" lon="3.88449">
        <ele>99.2</ele>
        <time>2018-09-16T07:59:11Z</time>
      </trkpt>
      <trkpt lat="43.67106" lon="3.88439">
        <ele>99.8</ele>
        <time>2018-09-16T07:59:14Z</time>
      </trkpt>
      <trkpt lat="43.67106" lon="3.88435">
        <ele>100.1</ele>
        <time>2018-09-16T07:59:15Z</time>
      </trkpt>
      <trkpt lat="43.67105" lon="3.88425">
        <ele>100.6</ele>
        <time>2018-09-16T07:59:18Z</time>
      </trkpt>
      <trkpt lat="43.67105" lon="3.88421">
        <ele>100.8</ele>
        <time>2018-09-16T07:59:19Z</time>
      </trkpt>
      <trkpt lat="43.67105" lon="3.8841">
        <ele>101.4</ele>
        <time>2018-09-16T07:59:23Z</time>
      </trkpt>
      <trkpt lat="43.67105" lon="3.88408">
        <ele>101.5</ele>
        <time>2018-09-16T07:59:24Z</time>
      </trkpt>
      <trkpt lat="43.67108" lon="3.88397">
        <ele>102.3</ele>
        <time>2018-09-16T07:59:28Z</time>
      </trkpt>
      <trkpt lat="43.67109" lon="3.88394">
        <ele>102.6</ele>
        <time>2018-09-16T07:59:29Z</time>
      </trkpt>
      <trkpt lat="43.67113" lon="3.88386">
        <ele>103.4</ele>
        <time>2018-09-16T07:59:33Z</time>
      </trkpt>
      <trkpt lat="43.67115" lon="3.88384">
        <ele>103.8</ele>
        <time>2018-09-16T07:59:34Z</time>
      </trkpt>
      <trkpt lat="43.67122" lon="3.88378">
        <ele>105.1</ele>
        <time>2018-09-16T07:59:42Z</time>
      </trkpt>
      <trkpt lat="43.67123" lon="3.88379">
        <ele>105.1</ele>
        <time>2018-09-16T07:59:43Z</time>
      </trkpt>
      <trkpt lat="43.67131" lon="3.88382">
        <ele>105.8</ele>
        <time>2018-09-16T07:59:48Z</time>
      </trkpt>
      <trkpt lat="43.67133" lon="3.88383">
        <ele>106</ele>
        <time>2018-09-16T07:59:49Z</time>
      </trkpt>
      <trkpt lat="43.6714" lon="3.88387">
        <ele>106.2</ele>
        <time>2018-09-16T07:59:53Z</time>
      </trkpt>
      <trkpt lat="43.67143" lon="3.88388">
        <ele>106.2</ele>
        <time>2018-09-16T07:59:54Z</time>
      </trkpt>
      <trkpt lat="43.6715" lon="3.88388">
        <ele>106.5</ele>
        <time>2018-09-16T07:59:57Z</time>
      </trkpt>
      <trkpt lat="43.67152" lon="3.88388">
        <ele>106.6</ele>
        <time>2018-09-16T07:59:58Z</time>
      </trkpt>
      <trkpt lat="43.6716" lon="3.88387">
        <ele>107</ele>
        <time>2018-09-16T08:00:01Z</time>
      </trkpt>
      <trkpt lat="43.67162" lon="3.88387">
        <ele>107.1</ele>
        <time>2018-09-16T08:00:02Z</time>
      </trkpt>
      <trkpt lat="43.67169" lon="3.88388">
        <ele>107.1</ele>
        <time>2018-09-16T08:00:05Z</time>
      </trkpt>
      <trkpt lat="43.67171" lon="3.88389">
        <ele>107</ele>
        <time>2018-09-16T08:00:06Z</time>
      </trkpt>
      <trkpt lat="43.67177" lon="3.88392">
        <ele>106.6</ele>
        <time>2018-09-16T08:00:09Z</time>
      </trkpt>
      <trkpt lat="43.67179" lon="3.88394">
        <ele>106.4</ele>
        <time>2018-09-16T08:00:10Z</time>
      </trkpt>
      <trkpt lat="43.67186" lon="3.88398">
        <ele>105.8</ele>
        <time>2018-09-16T08:00:14Z</time>
      </trkpt>
      <trkpt lat="43.67188" lon="3.88398">
        <ele>105.8</ele>
        <time>2018-09-16T08:00:15Z</time>
      </trkpt>
      <trkpt lat="43.67195" lon="3.88395">
        <ele>106.1</ele>
        <time>2018-09-16T08:00:18Z</time>
      </trkpt>
      <trkpt lat="43.67197" lon="3.88394">
        <ele>106.2</ele>
        <time>2018-09-16T08:00:19Z</time>
      </trkpt>
      <trkpt lat="43.67204" lon="3.88391">
        <ele>106.4</ele>
        <time>2018-09-16T08:00:23Z</time>
      </trkpt>
      <trkpt lat="43.67206" lon="3.8839">
        <ele>106.4</ele>
        <time>2018-09-16T08:00:24Z</time>
      </trkpt>
      <trkpt lat="43.67214" lon="3.88391">
        <ele>106</ele>
        <time>2018-09-16T08:00:27Z</time>
      </trkpt>
      <trkpt lat="43.67217" lon="3.88392">
        <ele>105.8</ele>
        <time>2018-09-16T08:00:28Z</time>
      </trkpt>
      <trkpt lat="43.67225" lon="3.8839">
        <ele>105.9</ele>
        <time>2018-09-16T08:00:33Z</time>
      </trkpt>
      <trkpt lat="43.67226" lon="3.8839">
        <ele>105.9</ele>
        <time>2018-09-16T08:00:34Z</time>
      </trkpt>
      <trkpt lat="43.67227" lon="3.88378">
        <ele>107.6</ele>
        <time>2018-09-16T08:00:48Z</time>
      </trkpt>
      <trkpt lat="43.67227" lon="3.88377">
        <ele>107.7</ele>
        <time>2018-09-16T08:00:49Z</time>
      </trkpt>
      <trkpt lat="43.67222" lon="3.88367">
        <ele>109.2</ele>
        <time>2018-09-16T08:00:57Z</time>
      </trkpt>
      <trkpt lat="43.67222" lon="3.88366">
        <ele>109.3</ele>
        <time>2018-09-16T08:00:58Z</time>
      </trkpt>
      <trkpt lat="43.67218" lon="3.88355">
        <ele>111</ele>
        <time>2018-09-16T08:01:12Z</time>
      </trkpt>
      <trkpt lat="43.67216" lon="3.88355">
        <ele>111.1</ele>
        <time>2018-09-16T08:01:13Z</time>
      </trkpt>
      <trkpt lat="43.67208" lon="3.88354">
        <ele>111.5</ele>
        <time>2018-09-16T08:01:17Z</time>
      </trkpt>
      <trkpt lat="43.67206" lon="3.88352">
        <ele>111.9</ele>
        <time>2018-09-16T08:01:18Z</time>
      </trkpt>
      <trkpt lat="43.67199" lon="3.88344">
        <ele>113.3</ele>
        <time>2018-09-16T08:01:25Z</time>
      </trkpt>
      <trkpt lat="43.67198" lon="3.88343">
        <ele>113.5</ele>
        <time>2018-09-16T08:01:26Z</time>
      </trkpt>
      <trkpt lat="43.67191" lon="3.88334">
        <ele>114.9</ele>
        <time>2018-09-16T08:01:31Z</time>
      </trkpt>
      <trkpt lat="43.6719" lon="3.88333">
        <ele>115</ele>
        <time>2018-09-16T08:01:32Z</time>
      </trkpt>
      <trkpt lat="43.67188" lon="3.88324">
        <ele>116</ele>
        <time>2018-09-16T08:01:54Z</time>
      </trkpt>
      <trkpt lat="43.67188" lon="3.88323">
        <ele>116.1</ele>
        <time>2018-09-16T08:01:56Z</time>
      </trkpt>
      <trkpt lat="43.67188" lon="3.88311">
        <ele>117.4</ele>
        <time>2018-09-16T08:02:08Z</time>
      </trkpt>
      <trkpt lat="43.67188" lon="3.88309">
        <ele>117.6</ele>
        <time>2018-09-16T08:02:09Z</time>
      </trkpt>
      <trkpt lat="43.67187" lon="3.88298">
        <ele>118.5</ele>
        <time>2018-09-16T08:02:16Z</time>
      </trkpt>
      <trkpt lat="43.67186" lon="3.88296">
        <ele>118.6</ele>
        <time>2018-09-16T08:02:17Z</time>
      </trkpt>
      <trkpt lat="43.67192" lon="3.88291">
        <ele>119</ele>
        <time>2018-09-16T08:02:30Z</time>
      </trkpt>
      <trkpt lat="43.67194" lon="3.88291">
        <ele>119</ele>
        <time>2018-09-16T08:02:31Z</time>
      </trkpt>
      <trkpt lat="43.67202" lon="3.88293">
        <ele>118.8</ele>
        <time>2018-09-16T08:02:35Z</time>
      </trkpt>
      <trkpt lat="43.67204" lon="3.88294">
        <ele>118.6</ele>
        <time>2018-09-16T08:02:36Z</time>
      </trkpt>
      <trkpt lat="43.67212" lon="3.88293">
        <ele>118.6</ele>
        <time>2018-09-16T08:02:39Z</time>
      </trkpt>
      <trkpt lat="43.67214" lon="3.88291">
        <ele>118.7</ele>
        <time>2018-09-16T08:02:40Z</time>
      </trkpt>
      <trkpt lat="43.67221" lon="3.88285">
        <ele>119.2</ele>
        <time>2018-09-16T08:02:44Z</time>
      </trkpt>
      <trkpt lat="43.67222" lon="3.88283">
        <ele>119.4</ele>
        <time>2018-09-16T08:02:45Z</time>
      </trkpt>
      <trkpt lat="43.67227" lon="3.88273">
        <ele>120</ele>
        <time>2018-09-16T08:02:49Z</time>
      </trkpt>
      <trkpt lat="43.67228" lon="3.88271">
        <ele>120.1</ele>
        <time>2018-09-16T08:02:50Z</time>
      </trkpt>
      <trkpt lat="43.67234" lon="3.88264">
        <ele>120.3</ele>
        <time>2018-09-16T08:02:54Z</time>
      </trkpt>
      <trkpt lat="43.67236" lon="3.88262">
        <ele>120.4</ele>
        <time>2018-09-16T08:02:55Z</time>
      </trkpt>
      <trkpt lat="43.67242" lon="3.88258">
        <ele>120.5</ele>
        <time>2018-09-16T08:02:58Z</time>
      </trkpt>
      <trkpt lat="43.67244" lon="3.88256">
        <ele>120.6</ele>
        <time>2018-09-16T08:02:59Z</time>
      </trkpt>
      <trkpt lat="43.6725" lon="3.88251">
        <ele>120.9</ele>
        <time>2018-09-16T08:03:02Z</time>
      </trkpt>
      <trkpt lat="43.67252" lon="3.88249">
        <ele>121</ele>
        <time>2018-09-16T08:03:03Z</time>
      </trkpt>
      <trkpt lat="43.67258" lon="3.88242">
        <ele>121.4</ele>
        <time>2018-09-16T08:03:06Z</time>
      </trkpt>
      <trkpt lat="43.67261" lon="3.8824">
        <ele>121.5</ele>
        <time>2018-09-16T08:03:07Z</time>
      </trkpt>
      <trkpt lat="43.67267" lon="3.88231">
        <ele>122.1</ele>
        <time>2018-09-16T08:03:10Z</time>
      </trkpt>
      <trkpt lat="43.67268" lon="3.88228">
        <ele>122.3</ele>
        <time>2018-09-16T08:03:11Z</time>
      </trkpt>
      <trkpt lat="43.67267" lon="3.88216">
        <ele>122.9</ele>
        <time>2018-09-16T08:03:15Z</time>
      </trkpt>
      <trkpt lat="43.67266" lon="3.88213">
        <ele>123</ele>
        <time>2018-09-16T08:03:16Z</time>
      </trkpt>
      <trkpt lat="43.6726" lon="3.88203">
        <ele>122.9</ele>
        <time>2018-09-16T08:03:19Z</time>
      </trkpt>
      <trkpt lat="43.67253" lon="3.8819">
        <ele>122.5</ele>
        <time>2018-09-16T08:03:20Z</time>
      </trkpt>
      <trkpt lat="43.6725" lon="3.88186">
        <ele>122.3</ele>
        <time>2018-09-16T08:03:21Z</time>
      </trkpt>
      <trkpt lat="43.67248" lon="3.88179">
        <ele>122.3</ele>
        <time>2018-09-16T08:03:22Z</time>
      </trkpt>
      <trkpt lat="43.67243" lon="3.8817">
        <ele>121.9</ele>
        <time>2018-09-16T08:03:24Z</time>
      </trkpt>
      <trkpt lat="43.67241" lon="3.88166">
        <ele>121.7</ele>
        <time>2018-09-16T08:03:25Z</time>
      </trkpt>
      <trkpt lat="43.67238" lon="3.88159">
        <ele>121.3</ele>
        <time>2018-09-16T08:03:26Z</time>
      </trkpt>
      <trkpt lat="43.67234" lon="3.8815">
        <ele>120.7</ele>
        <time>2018-09-16T08:03:27Z</time>
      </trkpt>
      <trkpt lat="43.67231" lon="3.88147">
        <ele>120.3</ele>
        <time>2018-09-16T08:03:28Z</time>
      </trkpt>
      <trkpt lat="43.67226" lon="3.88143">
        <ele>119.5</ele>
        <time>2018-09-16T08:03:29Z</time>
      </trkpt>
      <trkpt lat="43.67219" lon="3.88135">
        <ele>118.5</ele>
        <time>2018-09-16T08:03:34Z</time>
      </trkpt>
      <trkpt lat="43.67217" lon="3.88132">
        <ele>118.2</ele>
        <time>2018-09-16T08:03:35Z</time>
      </trkpt>
      <trkpt lat="43.67212" lon="3.88126">
        <ele>117.4</ele>
        <time>2018-09-16T08:03:38Z</time>
      </trkpt>
      <trkpt lat="43.6721" lon="3.88124">
        <ele>117</ele>
        <time>2018-09-16T08:03:39Z</time>
      </trkpt>
      <trkpt lat="43.67203" lon="3.88122">
        <ele>115.8</ele>
        <time>2018-09-16T08:03:42Z</time>
      </trkpt>
      <trkpt lat="43.67201" lon="3.88121">
        <ele>115.5</ele>
        <time>2018-09-16T08:03:43Z</time>
      </trkpt>
      <trkpt lat="43.67197" lon="3.88118">
        <ele>114.7</ele>
        <time>2018-09-16T08:03:45Z</time>
      </trkpt>
      <trkpt lat="43.67189" lon="3.8811">
        <ele>113.2</ele>
        <time>2018-09-16T08:03:46Z</time>
      </trkpt>
      <trkpt lat="43.67183" lon="3.881">
        <ele>112.4</ele>
        <time>2018-09-16T08:03:48Z</time>
      </trkpt>
      <trkpt lat="43.67181" lon="3.88092">
        <ele>112.1</ele>
        <time>2018-09-16T08:03:49Z</time>
      </trkpt>
      <trkpt lat="43.67177" lon="3.88086">
        <ele>111.5</ele>
        <time>2018-09-16T08:03:50Z</time>
      </trkpt>
      <trkpt lat="43.67173" lon="3.8808">
        <ele>110.9</ele>
        <time>2018-09-16T08:03:51Z</time>
      </trkpt>
      <trkpt lat="43.67171" lon="3.88075">
        <ele>110.7</ele>
        <time>2018-09-16T08:03:52Z</time>
      </trkpt>
      <trkpt lat="43.67167" lon="3.88067">
        <ele>110.1</ele>
        <time>2018-09-16T08:03:53Z</time>
      </trkpt>
      <trkpt lat="43.67163" lon="3.8806">
        <ele>109.5</ele>
        <time>2018-09-16T08:03:54Z</time>
      </trkpt>
      <trkpt lat="43.67159" lon="3.88054">
        <ele>109</ele>
        <time>2018-09-16T08:03:55Z</time>
      </trkpt>
      <trkpt lat="43.67156" lon="3.88046">
        <ele>108.8</ele>
        <time>2018-09-16T08:03:56Z</time>
      </trkpt>
      <trkpt lat="43.67151" lon="3.88042">
        <ele>108.2</ele>
        <time>2018-09-16T08:03:57Z</time>
      </trkpt>
      <trkpt lat="43.67145" lon="3.88038">
        <ele>107.5</ele>
        <time>2018-09-16T08:03:58Z</time>
      </trkpt>
      <trkpt lat="43.67142" lon="3.88035">
        <ele>107.2</ele>
        <time>2018-09-16T08:03:59Z</time>
      </trkpt>
      <trkpt lat="43.67134" lon="3.88036">
        <ele>106.2</ele>
        <time>2018-09-16T08:04:01Z</time>
      </trkpt>
      <trkpt lat="43.67133" lon="3.8802">
        <ele>106.6</ele>
        <time>2018-09-16T08:07:04Z</time>
      </trkpt>
      <trkpt lat="43.67134" lon="3.88019">
        <ele>106.8</ele>
        <time>2018-09-16T08:07:05Z</time>
      </trkpt>
      <trkpt lat="43.67136" lon="3.88009">
        <ele>107.4</ele>
        <time>2018-09-16T08:07:09Z</time>
      </trkpt>
      <trkpt lat="43.67137" lon="3.88007">
        <ele>107.5</ele>
        <time>2018-09-16T08:07:10Z</time>
      </trkpt>
      <trkpt lat="43.67137" lon="3.87996">
        <ele>107.9</ele>
        <time>2018-09-16T08:07:14Z</time>
      </trkpt>
      <trkpt lat="43.67138" lon="3.87993">
        <ele>108.2</ele>
        <time>2018-09-16T08:07:15Z</time>
      </trkpt>
      <trkpt lat="43.67138" lon="3.87984">
        <ele>108.5</ele>
        <time>2018-09-16T08:07:18Z</time>
      </trkpt>
      <trkpt lat="43.67138" lon="3.8798">
        <ele>108.6</ele>
        <time>2018-09-16T08:07:19Z</time>
      </trkpt>
      <trkpt lat="43.67137" lon="3.87968">
        <ele>109.2</ele>
        <time>2018-09-16T08:07:22Z</time>
      </trkpt>
      <trkpt lat="43.67137" lon="3.87965">
        <ele>109.4</ele>
        <time>2018-09-16T08:07:23Z</time>
      </trkpt>
      <trkpt lat="43.6714" lon="3.87955">
        <ele>110.3</ele>
        <time>2018-09-16T08:07:27Z</time>
      </trkpt>
      <trkpt lat="43.6714" lon="3.87953">
        <ele>110.5</ele>
        <time>2018-09-16T08:07:28Z</time>
      </trkpt>
      <trkpt lat="43.67144" lon="3.87943">
        <ele>111.1</ele>
        <time>2018-09-16T08:07:33Z</time>
      </trkpt>
      <trkpt lat="43.67144" lon="3.87942">
        <ele>111.1</ele>
        <time>2018-09-16T08:07:34Z</time>
      </trkpt>
      <trkpt lat="43.67144" lon="3.87932">
        <ele>110.6</ele>
        <time>2018-09-16T08:07:39Z</time>
      </trkpt>
      <trkpt lat="43.67143" lon="3.87929">
        <ele>110.4</ele>
        <time>2018-09-16T08:07:40Z</time>
      </trkpt>
      <trkpt lat="43.67142" lon="3.87919">
        <ele>110</ele>
        <time>2018-09-16T08:07:43Z</time>
      </trkpt>
      <trkpt lat="43.67141" lon="3.87916">
        <ele>109.9</ele>
        <time>2018-09-16T08:07:44Z</time>
      </trkpt>
      <trkpt lat="43.67138" lon="3.87906">
        <ele>109.6</ele>
        <time>2018-09-16T08:07:47Z</time>
      </trkpt>
      <trkpt lat="43.67136" lon="3.87903">
        <ele>109.5</ele>
        <time>2018-09-16T08:07:48Z</time>
      </trkpt>
      <trkpt lat="43.67133" lon="3.87893">
        <ele>109.3</ele>
        <time>2018-09-16T08:07:51Z</time>
      </trkpt>
      <trkpt lat="43.67132" lon="3.87889">
        <ele>109.3</ele>
        <time>2018-09-16T08:07:52Z</time>
      </trkpt>
      <trkpt lat="43.67129" lon="3.87879">
        <ele>109.4</ele>
        <time>2018-09-16T08:07:54Z</time>
      </trkpt>
      <trkpt lat="43.67129" lon="3.87874">
        <ele>109.4</ele>
        <time>2018-09-16T08:07:55Z</time>
      </trkpt>
      <trkpt lat="43.67127" lon="3.87866">
        <ele>109.4</ele>
        <time>2018-09-16T08:07:57Z</time>
      </trkpt>
      <trkpt lat="43.67126" lon="3.87861">
        <ele>109.5</ele>
        <time>2018-09-16T08:07:58Z</time>
      </trkpt>
      <trkpt lat="43.67124" lon="3.87847">
        <ele>109.5</ele>
        <time>2018-09-16T08:07:59Z</time>
      </trkpt>
      <trkpt lat="43.6712" lon="3.87835">
        <ele>109.7</ele>
        <time>2018-09-16T08:08:01Z</time>
      </trkpt>
      <trkpt lat="43.6712" lon="3.8783">
        <ele>109.7</ele>
        <time>2018-09-16T08:08:02Z</time>
      </trkpt>
      <trkpt lat="43.67119" lon="3.87824">
        <ele>109.7</ele>
        <time>2018-09-16T08:08:03Z</time>
      </trkpt>
      <trkpt lat="43.67118" lon="3.87818">
        <ele>109.8</ele>
        <time>2018-09-16T08:08:04Z</time>
      </trkpt>
      <trkpt lat="43.67117" lon="3.87807">
        <ele>109.8</ele>
        <time>2018-09-16T08:08:06Z</time>
      </trkpt>
      <trkpt lat="43.67117" lon="3.87801">
        <ele>109.8</ele>
        <time>2018-09-16T08:08:07Z</time>
      </trkpt>
      <trkpt lat="43.6712" lon="3.8779">
        <ele>109.9</ele>
        <time>2018-09-16T08:08:09Z</time>
      </trkpt>
      <trkpt lat="43.67119" lon="3.87786">
        <ele>109.9</ele>
        <time>2018-09-16T08:08:10Z</time>
      </trkpt>
      <trkpt lat="43.67116" lon="3.87777">
        <ele>110</ele>
        <time>2018-09-16T08:08:11Z</time>
      </trkpt>
      <trkpt lat="43.67117" lon="3.87771">
        <ele>110</ele>
        <time>2018-09-16T08:08:12Z</time>
      </trkpt>
      <trkpt lat="43.67113" lon="3.87759">
        <ele>110</ele>
        <time>2018-09-16T08:08:14Z</time>
      </trkpt>
      <trkpt lat="43.67112" lon="3.87754">
        <ele>110</ele>
        <time>2018-09-16T08:08:15Z</time>
      </trkpt>
      <trkpt lat="43.67112" lon="3.87742">
        <ele>110.3</ele>
        <time>2018-09-16T08:08:17Z</time>
      </trkpt>
      <trkpt lat="43.67111" lon="3.87736">
        <ele>110.5</ele>
        <time>2018-09-16T08:08:18Z</time>
      </trkpt>
      <trkpt lat="43.67109" lon="3.87724">
        <ele>110.8</ele>
        <time>2018-09-16T08:08:20Z</time>
      </trkpt>
      <trkpt lat="43.67105" lon="3.87716">
        <ele>110.6</ele>
        <time>2018-09-16T08:08:21Z</time>
      </trkpt>
      <trkpt lat="43.67103" lon="3.87708">
        <ele>110.4</ele>
        <time>2018-09-16T08:08:22Z</time>
      </trkpt>
      <trkpt lat="43.67099" lon="3.877">
        <ele>110.1</ele>
        <time>2018-09-16T08:08:23Z</time>
      </trkpt>
      <trkpt lat="43.671" lon="3.87689">
        <ele>110.3</ele>
        <time>2018-09-16T08:08:26Z</time>
      </trkpt>
      <trkpt lat="43.67101" lon="3.87686">
        <ele>110.4</ele>
        <time>2018-09-16T08:08:27Z</time>
      </trkpt>
      <trkpt lat="43.67101" lon="3.87675">
        <ele>110.5</ele>
        <time>2018-09-16T08:08:30Z</time>
      </trkpt>
      <trkpt lat="43.67101" lon="3.87664">
        <ele>110.7</ele>
        <time>2018-09-16T08:08:31Z</time>
      </trkpt>
      <trkpt lat="43.671" lon="3.87652">
        <ele>110.8</ele>
        <time>2018-09-16T08:08:36Z</time>
      </trkpt>
      <trkpt lat="43.671" lon="3.8765">
        <ele>110.8</ele>
        <time>2018-09-16T08:08:37Z</time>
      </trkpt>
      <trkpt lat="43.67097" lon="3.87639">
        <ele>111</ele>
        <time>2018-09-16T08:08:41Z</time>
      </trkpt>
      <trkpt lat="43.67097" lon="3.87637">
        <ele>111</ele>
        <time>2018-09-16T08:08:42Z</time>
      </trkpt>
      <trkpt lat="43.67093" lon="3.87627">
        <ele>111</ele>
        <time>2018-09-16T08:08:46Z</time>
      </trkpt>
      <trkpt lat="43.67092" lon="3.87626">
        <ele>111</ele>
        <time>2018-09-16T08:08:47Z</time>
      </trkpt>
      <trkpt lat="43.67094" lon="3.87635">
        <ele>111</ele>
        <time>2018-09-16T08:08:54Z</time>
      </trkpt>
      <trkpt lat="43.67096" lon="3.87639">
        <ele>111</ele>
        <time>2018-09-16T08:08:55Z</time>
      </trkpt>
      <trkpt lat="43.67098" lon="3.87648">
        <ele>110.8</ele>
        <time>2018-09-16T08:08:57Z</time>
      </trkpt>
      <trkpt lat="43.67099" lon="3.87652">
        <ele>110.8</ele>
        <time>2018-09-16T08:08:58Z</time>
      </trkpt>
      <trkpt lat="43.67101" lon="3.87661">
        <ele>110.7</ele>
        <time>2018-09-16T08:09:00Z</time>
      </trkpt>
      <trkpt lat="43.67103" lon="3.87666">
        <ele>110.7</ele>
        <time>2018-09-16T08:09:01Z</time>
      </trkpt>
      <trkpt lat="43.67105" lon="3.87675">
        <ele>110.7</ele>
        <time>2018-09-16T08:09:03Z</time>
      </trkpt>
      <trkpt lat="43.67106" lon="3.87679">
        <ele>110.7</ele>
        <time>2018-09-16T08:09:04Z</time>
      </trkpt>
      <trkpt lat="43.67111" lon="3.87689">
        <ele>111</ele>
        <time>2018-09-16T08:09:09Z</time>
      </trkpt>
      <trkpt lat="43.67111" lon="3.8769">
        <ele>111</ele>
        <time>2018-09-16T08:09:10Z</time>
      </trkpt>
      <trkpt lat="43.67106" lon="3.87683">
        <ele>110.7</ele>
        <time>2018-09-16T08:09:55Z</time>
      </trkpt>
      <trkpt lat="43.67105" lon="3.8768">
        <ele>110.7</ele>
        <time>2018-09-16T08:09:56Z</time>
      </trkpt>
      <trkpt lat="43.67103" lon="3.87672">
        <ele>110.7</ele>
        <time>2018-09-16T08:09:58Z</time>
      </trkpt>
      <trkpt lat="43.67102" lon="3.87668">
        <ele>110.7</ele>
        <time>2018-09-16T08:09:59Z</time>
      </trkpt>
      <trkpt lat="43.671" lon="3.8766">
        <ele>110.7</ele>
        <time>2018-09-16T08:10:01Z</time>
      </trkpt>
      <trkpt lat="43.67099" lon="3.87656">
        <ele>110.7</ele>
        <time>2018-09-16T08:10:02Z</time>
      </trkpt>
      <trkpt lat="43.67097" lon="3.87647">
        <ele>110.9</ele>
        <time>2018-09-16T08:10:04Z</time>
      </trkpt>
      <trkpt lat="43.67096" lon="3.87643">
        <ele>110.9</ele>
        <time>2018-09-16T08:10:05Z</time>
      </trkpt>
      <trkpt lat="43.67096" lon="3.87632">
        <ele>111</ele>
        <time>2018-09-16T08:10:08Z</time>
      </trkpt>
      <trkpt lat="43.67095" lon="3.87627">
        <ele>111</ele>
        <time>2018-09-16T08:10:09Z</time>
      </trkpt>
      <trkpt lat="43.67095" lon="3.87623">
        <ele>111</ele>
        <time>2018-09-16T08:10:10Z</time>
      </trkpt>
      <trkpt lat="43.67092" lon="3.87608">
        <ele>111</ele>
        <time>2018-09-16T08:10:11Z</time>
      </trkpt>
      <trkpt lat="43.6709" lon="3.87601">
        <ele>110.9</ele>
        <time>2018-09-16T08:10:13Z</time>
      </trkpt>
      <trkpt lat="43.67089" lon="3.87591">
        <ele>110.9</ele>
        <time>2018-09-16T08:10:14Z</time>
      </trkpt>
      <trkpt lat="43.67087" lon="3.87583">
        <ele>110.9</ele>
        <time>2018-09-16T08:10:17Z</time>
      </trkpt>
      <trkpt lat="43.67084" lon="3.87573">
        <ele>111</ele>
        <time>2018-09-16T08:10:18Z</time>
      </trkpt>
      <trkpt lat="43.67082" lon="3.87562">
        <ele>111</ele>
        <time>2018-09-16T08:10:20Z</time>
      </trkpt>
      <trkpt lat="43.67079" lon="3.87556">
        <ele>111</ele>
        <time>2018-09-16T08:10:21Z</time>
      </trkpt>
      <trkpt lat="43.6708" lon="3.87546">
        <ele>111</ele>
        <time>2018-09-16T08:10:23Z</time>
      </trkpt>
      <trkpt lat="43.6708" lon="3.87543">
        <ele>111</ele>
        <time>2018-09-16T08:10:24Z</time>
      </trkpt>
      <trkpt lat="43.67081" lon="3.87533">
        <ele>111</ele>
        <time>2018-09-16T08:10:27Z</time>
      </trkpt>
      <trkpt lat="43.67082" lon="3.87521">
        <ele>111.2</ele>
        <time>2018-09-16T08:10:28Z</time>
      </trkpt>
      <trkpt lat="43.67084" lon="3.8751">
        <ele>111.6</ele>
        <time>2018-09-16T08:10:30Z</time>
      </trkpt>
      <trkpt lat="43.67085" lon="3.87506">
        <ele>111.7</ele>
        <time>2018-09-16T08:10:31Z</time>
      </trkpt>
      <trkpt lat="43.67086" lon="3.87499">
        <ele>111.9</ele>
        <time>2018-09-16T08:10:33Z</time>
      </trkpt>
      <trkpt lat="43.67086" lon="3.87489">
        <ele>111.9</ele>
        <time>2018-09-16T08:10:34Z</time>
      </trkpt>
      <trkpt lat="43.67086" lon="3.87478">
        <ele>112</ele>
        <time>2018-09-16T08:10:36Z</time>
      </trkpt>
      <trkpt lat="43.67086" lon="3.87476">
        <ele>112</ele>
        <time>2018-09-16T08:10:37Z</time>
      </trkpt>
      <trkpt lat="43.67088" lon="3.87465">
        <ele>112.3</ele>
        <time>2018-09-16T08:10:40Z</time>
      </trkpt>
      <trkpt lat="43.67089" lon="3.87461">
        <ele>112.4</ele>
        <time>2018-09-16T08:10:41Z</time>
      </trkpt>
      <trkpt lat="43.67092" lon="3.87454">
        <ele>112.7</ele>
        <time>2018-09-16T08:10:43Z</time>
      </trkpt>
      <trkpt lat="43.67094" lon="3.87451">
        <ele>112.8</ele>
        <time>2018-09-16T08:10:44Z</time>
      </trkpt>
      <trkpt lat="43.67099" lon="3.87445">
        <ele>113</ele>
        <time>2018-09-16T08:10:46Z</time>
      </trkpt>
      <trkpt lat="43.67107" lon="3.87438">
        <ele>113.2</ele>
        <time>2018-09-16T08:10:47Z</time>
      </trkpt>
      <trkpt lat="43.67114" lon="3.87434">
        <ele>113.2</ele>
        <time>2018-09-16T08:10:49Z</time>
      </trkpt>
      <trkpt lat="43.67117" lon="3.87432">
        <ele>113.1</ele>
        <time>2018-09-16T08:10:50Z</time>
      </trkpt>
      <trkpt lat="43.67125" lon="3.87428">
        <ele>112.9</ele>
        <time>2018-09-16T08:10:54Z</time>
      </trkpt>
      <trkpt lat="43.67127" lon="3.87427">
        <ele>112.8</ele>
        <time>2018-09-16T08:10:55Z</time>
      </trkpt>
      <trkpt lat="43.67137" lon="3.87424">
        <ele>112.6</ele>
        <time>2018-09-16T08:10:56Z</time>
      </trkpt>
      <trkpt lat="43.67146" lon="3.87421">
        <ele>112</ele>
        <time>2018-09-16T08:10:58Z</time>
      </trkpt>
      <trkpt lat="43.67151" lon="3.87417">
        <ele>111.7</ele>
        <time>2018-09-16T08:10:59Z</time>
      </trkpt>
      <trkpt lat="43.67159" lon="3.87412">
        <ele>110.7</ele>
        <time>2018-09-16T08:11:01Z</time>
      </trkpt>
      <trkpt lat="43.6716" lon="3.87412">
        <ele>110.6</ele>
        <time>2018-09-16T08:11:02Z</time>
      </trkpt>
      <trkpt lat="43.67168" lon="3.8741">
        <ele>109.5</ele>
        <time>2018-09-16T08:11:08Z</time>
      </trkpt>
      <trkpt lat="43.6717" lon="3.8741">
        <ele>109.2</ele>
        <time>2018-09-16T08:11:09Z</time>
      </trkpt>
      <trkpt lat="43.67177" lon="3.87411">
        <ele>107.9</ele>
        <time>2018-09-16T08:11:12Z</time>
      </trkpt>
      <trkpt lat="43.67179" lon="3.87411">
        <ele>107.6</ele>
        <time>2018-09-16T08:11:13Z</time>
      </trkpt>
      <trkpt lat="43.67186" lon="3.87409">
        <ele>106.2</ele>
        <time>2018-09-16T08:11:16Z</time>
      </trkpt>
      <trkpt lat="43.6719" lon="3.87409">
        <ele>105.5</ele>
        <time>2018-09-16T08:11:17Z</time>
      </trkpt>
      <trkpt lat="43.67196" lon="3.87405">
        <ele>104.2</ele>
        <time>2018-09-16T08:11:20Z</time>
      </trkpt>
      <trkpt lat="43.67198" lon="3.87403">
        <ele>103.6</ele>
        <time>2018-09-16T08:11:21Z</time>
      </trkpt>
      <trkpt lat="43.67204" lon="3.87397">
        <ele>101.9</ele>
        <time>2018-09-16T08:11:24Z</time>
      </trkpt>
      <trkpt lat="43.67207" lon="3.87396">
        <ele>101.1</ele>
        <time>2018-09-16T08:11:25Z</time>
      </trkpt>
      <trkpt lat="43.67214" lon="3.87392">
        <ele>99.2</ele>
        <time>2018-09-16T08:11:28Z</time>
      </trkpt>
      <trkpt lat="43.67217" lon="3.87391">
        <ele>98.4</ele>
        <time>2018-09-16T08:11:29Z</time>
      </trkpt>
      <trkpt lat="43.67223" lon="3.87389">
        <ele>96.9</ele>
        <time>2018-09-16T08:11:31Z</time>
      </trkpt>
      <trkpt lat="43.67226" lon="3.87388">
        <ele>96.4</ele>
        <time>2018-09-16T08:11:32Z</time>
      </trkpt>
      <trkpt lat="43.67234" lon="3.87387">
        <ele>95.2</ele>
        <time>2018-09-16T08:11:34Z</time>
      </trkpt>
      <trkpt lat="43.67249" lon="3.87387">
        <ele>93.1</ele>
        <time>2018-09-16T08:11:35Z</time>
      </trkpt>
      <trkpt lat="43.67254" lon="3.87384">
        <ele>92.3</ele>
        <time>2018-09-16T08:11:36Z</time>
      </trkpt>
      <trkpt lat="43.67261" lon="3.87379">
        <ele>91.3</ele>
        <time>2018-09-16T08:11:37Z</time>
      </trkpt>
      <trkpt lat="43.67267" lon="3.87377">
        <ele>90.6</ele>
        <time>2018-09-16T08:11:38Z</time>
      </trkpt>
      <trkpt lat="43.67274" lon="3.87376">
        <ele>89.9</ele>
        <time>2018-09-16T08:11:39Z</time>
      </trkpt>
      <trkpt lat="43.67281" lon="3.87375">
        <ele>89.2</ele>
        <time>2018-09-16T08:11:40Z</time>
      </trkpt>
      <trkpt lat="43.67286" lon="3.87377">
        <ele>88.5</ele>
        <time>2018-09-16T08:11:41Z</time>
      </trkpt>
      <trkpt lat="43.67292" lon="3.8738">
        <ele>87.8</ele>
        <time>2018-09-16T08:11:42Z</time>
      </trkpt>
      <trkpt lat="43.67295" lon="3.87383">
        <ele>87.4</ele>
        <time>2018-09-16T08:11:43Z</time>
      </trkpt>
      <trkpt lat="43.67301" lon="3.8739">
        <ele>86.5</ele>
        <time>2018-09-16T08:11:44Z</time>
      </trkpt>
      <trkpt lat="43.67305" lon="3.87396">
        <ele>86.1</ele>
        <time>2018-09-16T08:11:45Z</time>
      </trkpt>
      <trkpt lat="43.67309" lon="3.87402">
        <ele>85.7</ele>
        <time>2018-09-16T08:11:46Z</time>
      </trkpt>
      <trkpt lat="43.67313" lon="3.87409">
        <ele>85.3</ele>
        <time>2018-09-16T08:11:47Z</time>
      </trkpt>
      <trkpt lat="43.67316" lon="3.87416">
        <ele>84.9</ele>
        <time>2018-09-16T08:11:48Z</time>
      </trkpt>
      <trkpt lat="43.67319" lon="3.87422">
        <ele>84.4</ele>
        <time>2018-09-16T08:11:49Z</time>
      </trkpt>
      <trkpt lat="43.67323" lon="3.87431">
        <ele>83.6</ele>
        <time>2018-09-16T08:11:50Z</time>
      </trkpt>
      <trkpt lat="43.67324" lon="3.87438">
        <ele>83.2</ele>
        <time>2018-09-16T08:11:51Z</time>
      </trkpt>
      <trkpt lat="43.67328" lon="3.87445">
        <ele>82.5</ele>
        <time>2018-09-16T08:11:52Z</time>
      </trkpt>
      <trkpt lat="43.67332" lon="3.87449">
        <ele>81.8</ele>
        <time>2018-09-16T08:11:53Z</time>
      </trkpt>
      <trkpt lat="43.67336" lon="3.87454">
        <ele>81.1</ele>
        <time>2018-09-16T08:11:54Z</time>
      </trkpt>
      <trkpt lat="43.6734" lon="3.87458">
        <ele>80.4</ele>
        <time>2018-09-16T08:11:55Z</time>
      </trkpt>
      <trkpt lat="43.67344" lon="3.87459">
        <ele>80</ele>
        <time>2018-09-16T08:11:56Z</time>
      </trkpt>
      <trkpt lat="43.67349" lon="3.87459">
        <ele>79.6</ele>
        <time>2018-09-16T08:11:57Z</time>
      </trkpt>
      <trkpt lat="43.67355" lon="3.87457">
        <ele>79.1</ele>
        <time>2018-09-16T08:11:58Z</time>
      </trkpt>
      <trkpt lat="43.67361" lon="3.87454">
        <ele>78.7</ele>
        <time>2018-09-16T08:11:59Z</time>
      </trkpt>
      <trkpt lat="43.67367" lon="3.87452">
        <ele>78.3</ele>
        <time>2018-09-16T08:12:00Z</time>
      </trkpt>
      <trkpt lat="43.67371" lon="3.87448">
        <ele>78.2</ele>
        <time>2018-09-16T08:12:01Z</time>
      </trkpt>
      <trkpt lat="43.67372" lon="3.8744">
        <ele>78.3</ele>
        <time>2018-09-16T08:12:02Z</time>
      </trkpt>
      <trkpt lat="43.67374" lon="3.87433">
        <ele>78.3</ele>
        <time>2018-09-16T08:12:03Z</time>
      </trkpt>
      <trkpt lat="43.6738" lon="3.87425">
        <ele>77.9</ele>
        <time>2018-09-16T08:12:07Z</time>
      </trkpt>
      <trkpt lat="43.67389" lon="3.87422">
        <ele>77</ele>
        <time>2018-09-16T08:12:08Z</time>
      </trkpt>
      <trkpt lat="43.67395" lon="3.87422">
        <ele>76.5</ele>
        <time>2018-09-16T08:12:09Z</time>
      </trkpt>
      <trkpt lat="43.67399" lon="3.8742">
        <ele>76.2</ele>
        <time>2018-09-16T08:12:10Z</time>
      </trkpt>
      <trkpt lat="43.67406" lon="3.87424">
        <ele>75.6</ele>
        <time>2018-09-16T08:12:11Z</time>
      </trkpt>
      <trkpt lat="43.67412" lon="3.87426">
        <ele>75.1</ele>
        <time>2018-09-16T08:12:12Z</time>
      </trkpt>
      <trkpt lat="43.6742" lon="3.87425">
        <ele>74.3</ele>
        <time>2018-09-16T08:12:14Z</time>
      </trkpt>
      <trkpt lat="43.6742" lon="3.87424">
        <ele>74.4</ele>
        <time>2018-09-16T08:12:15Z</time>
      </trkpt>
      <trkpt lat="43.67425" lon="3.87415">
        <ele>74.2</ele>
        <time>2018-09-16T08:12:36Z</time>
      </trkpt>
      <trkpt lat="43.67426" lon="3.87414">
        <ele>74.1</ele>
        <time>2018-09-16T08:12:37Z</time>
      </trkpt>
      <trkpt lat="43.67432" lon="3.87407">
        <ele>73.9</ele>
        <time>2018-09-16T08:12:41Z</time>
      </trkpt>
      <trkpt lat="43.67433" lon="3.87406">
        <ele>73.8</ele>
        <time>2018-09-16T08:12:42Z</time>
      </trkpt>
      <trkpt lat="43.67438" lon="3.87396">
        <ele>74</ele>
        <time>2018-09-16T08:12:51Z</time>
      </trkpt>
      <trkpt lat="43.67439" lon="3.87395">
        <ele>74</ele>
        <time>2018-09-16T08:12:52Z</time>
      </trkpt>
      <trkpt lat="43.67439" lon="3.87392">
        <ele>74.2</ele>
        <time>2018-09-16T08:12:55Z</time>
      </trkpt>
      <trkpt lat="43.67439" lon="3.87391">
        <ele>74.3</ele>
        <time>2018-09-16T08:13:02Z</time>
      </trkpt>
      <trkpt lat="43.67439" lon="3.8739">
        <ele>74.3</ele>
        <time>2018-09-16T08:13:03Z</time>
      </trkpt>
      <trkpt lat="43.67431" lon="3.87387">
        <ele>75.1</ele>
        <time>2018-09-16T08:13:11Z</time>
      </trkpt>
      <trkpt lat="43.67429" lon="3.87386">
        <ele>75.4</ele>
        <time>2018-09-16T08:13:12Z</time>
      </trkpt>
      <trkpt lat="43.67422" lon="3.87381">
        <ele>76.2</ele>
        <time>2018-09-16T08:13:15Z</time>
      </trkpt>
      <trkpt lat="43.6742" lon="3.8738">
        <ele>76.4</ele>
        <time>2018-09-16T08:13:16Z</time>
      </trkpt>
      <trkpt lat="43.67414" lon="3.87375">
        <ele>77.2</ele>
        <time>2018-09-16T08:13:19Z</time>
      </trkpt>
      <trkpt lat="43.67412" lon="3.87373">
        <ele>77.5</ele>
        <time>2018-09-16T08:13:20Z</time>
      </trkpt>
      <trkpt lat="43.67405" lon="3.87366">
        <ele>78.5</ele>
        <time>2018-09-16T08:13:24Z</time>
      </trkpt>
      <trkpt lat="43.67403" lon="3.87363">
        <ele>78.8</ele>
        <time>2018-09-16T08:13:25Z</time>
      </trkpt>
      <trkpt lat="43.67398" lon="3.87357">
        <ele>79.7</ele>
        <time>2018-09-16T08:13:28Z</time>
      </trkpt>
      <trkpt lat="43.67396" lon="3.87354">
        <ele>80.1</ele>
        <time>2018-09-16T08:13:29Z</time>
      </trkpt>
      <trkpt lat="43.6739" lon="3.87348">
        <ele>80.9</ele>
        <time>2018-09-16T08:13:33Z</time>
      </trkpt>
      <trkpt lat="43.67388" lon="3.87347">
        <ele>81.1</ele>
        <time>2018-09-16T08:13:34Z</time>
      </trkpt>
      <trkpt lat="43.67381" lon="3.87344">
        <ele>81.8</ele>
        <time>2018-09-16T08:13:39Z</time>
      </trkpt>
      <trkpt lat="43.67379" lon="3.87343">
        <ele>82</ele>
        <time>2018-09-16T08:13:40Z</time>
      </trkpt>
      <trkpt lat="43.6737" lon="3.8734">
        <ele>82.9</ele>
        <time>2018-09-16T08:13:45Z</time>
      </trkpt>
      <trkpt lat="43.67368" lon="3.87339">
        <ele>83.1</ele>
        <time>2018-09-16T08:13:46Z</time>
      </trkpt>
      <trkpt lat="43.6736" lon="3.87336">
        <ele>83.9</ele>
        <time>2018-09-16T08:13:50Z</time>
      </trkpt>
      <trkpt lat="43.67358" lon="3.87336">
        <ele>83.9</ele>
        <time>2018-09-16T08:13:51Z</time>
      </trkpt>
      <trkpt lat="43.67351" lon="3.87333">
        <ele>84.4</ele>
        <time>2018-09-16T08:13:57Z</time>
      </trkpt>
      <trkpt lat="43.67349" lon="3.87332">
        <ele>84.6</ele>
        <time>2018-09-16T08:13:58Z</time>
      </trkpt>
      <trkpt lat="43.67342" lon="3.87326">
        <ele>85.4</ele>
        <time>2018-09-16T08:14:03Z</time>
      </trkpt>
      <trkpt lat="43.67341" lon="3.87325">
        <ele>85.5</ele>
        <time>2018-09-16T08:14:04Z</time>
      </trkpt>
      <trkpt lat="43.67336" lon="3.87317">
        <ele>86.6</ele>
        <time>2018-09-16T08:14:09Z</time>
      </trkpt>
      <trkpt lat="43.67334" lon="3.87316">
        <ele>86.8</ele>
        <time>2018-09-16T08:14:10Z</time>
      </trkpt>
      <trkpt lat="43.67328" lon="3.87307">
        <ele>88.2</ele>
        <time>2018-09-16T08:14:15Z</time>
      </trkpt>
      <trkpt lat="43.67328" lon="3.87305">
        <ele>88.4</ele>
        <time>2018-09-16T08:14:16Z</time>
      </trkpt>
      <trkpt lat="43.67325" lon="3.87295">
        <ele>89.5</ele>
        <time>2018-09-16T08:14:20Z</time>
      </trkpt>
      <trkpt lat="43.67324" lon="3.87293">
        <ele>89.7</ele>
        <time>2018-09-16T08:14:21Z</time>
      </trkpt>
      <trkpt lat="43.67322" lon="3.87282">
        <ele>90.9</ele>
        <time>2018-09-16T08:14:26Z</time>
      </trkpt>
      <trkpt lat="43.67322" lon="3.87279">
        <ele>91.1</ele>
        <time>2018-09-16T08:14:27Z</time>
      </trkpt>
      <trkpt lat="43.67323" lon="3.87268">
        <ele>91.7</ele>
        <time>2018-09-16T08:14:32Z</time>
      </trkpt>
      <trkpt lat="43.67323" lon="3.87266">
        <ele>91.8</ele>
        <time>2018-09-16T08:14:33Z</time>
      </trkpt>
      <trkpt lat="43.67316" lon="3.87259">
        <ele>92.8</ele>
        <time>2018-09-16T08:14:40Z</time>
      </trkpt>
      <trkpt lat="43.67315" lon="3.87258">
        <ele>92.9</ele>
        <time>2018-09-16T08:14:41Z</time>
      </trkpt>
      <trkpt lat="43.67308" lon="3.87252">
        <ele>93.7</ele>
        <time>2018-09-16T08:14:47Z</time>
      </trkpt>
      <trkpt lat="43.67307" lon="3.87251">
        <ele>93.9</ele>
        <time>2018-09-16T08:14:48Z</time>
      </trkpt>
      <trkpt lat="43.67299" lon="3.87245">
        <ele>94.6</ele>
        <time>2018-09-16T08:14:54Z</time>
      </trkpt>
      <trkpt lat="43.67291" lon="3.8724">
        <ele>95</ele>
        <time>2018-09-16T08:15:01Z</time>
      </trkpt>
      <trkpt lat="43.6729" lon="3.8724">
        <ele>95.1</ele>
        <time>2018-09-16T08:15:02Z</time>
      </trkpt>
      <trkpt lat="43.67281" lon="3.8724">
        <ele>95.5</ele>
        <time>2018-09-16T08:15:08Z</time>
      </trkpt>
      <trkpt lat="43.6728" lon="3.8724">
        <ele>95.5</ele>
        <time>2018-09-16T08:15:09Z</time>
      </trkpt>
      <trkpt lat="43.67271" lon="3.87238">
        <ele>95.7</ele>
        <time>2018-09-16T08:15:14Z</time>
      </trkpt>
      <trkpt lat="43.67269" lon="3.87238">
        <ele>95.7</ele>
        <time>2018-09-16T08:15:15Z</time>
      </trkpt>
      <trkpt lat="43.67262" lon="3.87237">
        <ele>95.8</ele>
        <time>2018-09-16T08:15:18Z</time>
      </trkpt>
      <trkpt lat="43.6726" lon="3.87237">
        <ele>95.9</ele>
        <time>2018-09-16T08:15:19Z</time>
      </trkpt>
      <trkpt lat="43.67251" lon="3.87238">
        <ele>96.1</ele>
        <time>2018-09-16T08:15:23Z</time>
      </trkpt>
      <trkpt lat="43.67249" lon="3.87238">
        <ele>96.2</ele>
        <time>2018-09-16T08:15:24Z</time>
      </trkpt>
      <trkpt lat="43.67241" lon="3.87238">
        <ele>96.5</ele>
        <time>2018-09-16T08:15:27Z</time>
      </trkpt>
      <trkpt lat="43.67238" lon="3.87238">
        <ele>96.6</ele>
        <time>2018-09-16T08:15:28Z</time>
      </trkpt>
      <trkpt lat="43.6723" lon="3.87237">
        <ele>96.8</ele>
        <time>2018-09-16T08:15:31Z</time>
      </trkpt>
      <trkpt lat="43.67227" lon="3.87236">
        <ele>96.8</ele>
        <time>2018-09-16T08:15:32Z</time>
      </trkpt>
      <trkpt lat="43.67219" lon="3.87232">
        <ele>97</ele>
        <time>2018-09-16T08:15:35Z</time>
      </trkpt>
      <trkpt lat="43.67216" lon="3.87229">
        <ele>97.1</ele>
        <time>2018-09-16T08:15:36Z</time>
      </trkpt>
      <trkpt lat="43.67211" lon="3.87223">
        <ele>97.3</ele>
        <time>2018-09-16T08:15:38Z</time>
      </trkpt>
      <trkpt lat="43.67209" lon="3.8722">
        <ele>97.4</ele>
        <time>2018-09-16T08:15:39Z</time>
      </trkpt>
      <trkpt lat="43.67206" lon="3.87216">
        <ele>97.5</ele>
        <time>2018-09-16T08:15:40Z</time>
      </trkpt>
      <trkpt lat="43.67196" lon="3.87208">
        <ele>97.9</ele>
        <time>2018-09-16T08:15:41Z</time>
      </trkpt>
      <trkpt lat="43.67189" lon="3.87205">
        <ele>98.3</ele>
        <time>2018-09-16T08:15:43Z</time>
      </trkpt>
      <trkpt lat="43.67185" lon="3.87202">
        <ele>98.6</ele>
        <time>2018-09-16T08:15:44Z</time>
      </trkpt>
      <trkpt lat="43.67177" lon="3.87198">
        <ele>99.1</ele>
        <time>2018-09-16T08:15:50Z</time>
      </trkpt>
      <trkpt lat="43.67175" lon="3.87197">
        <ele>99.3</ele>
        <time>2018-09-16T08:15:51Z</time>
      </trkpt>
      <trkpt lat="43.67167" lon="3.87192">
        <ele>99.8</ele>
        <time>2018-09-16T08:15:55Z</time>
      </trkpt>
      <trkpt lat="43.67165" lon="3.8719">
        <ele>99.8</ele>
        <time>2018-09-16T08:15:56Z</time>
      </trkpt>
      <trkpt lat="43.67159" lon="3.87186">
        <ele>99.8</ele>
        <time>2018-09-16T08:15:59Z</time>
      </trkpt>
      <trkpt lat="43.67156" lon="3.87184">
        <ele>99.7</ele>
        <time>2018-09-16T08:16:00Z</time>
      </trkpt>
      <trkpt lat="43.67148" lon="3.87182">
        <ele>99.8</ele>
        <time>2018-09-16T08:16:03Z</time>
      </trkpt>
      <trkpt lat="43.67146" lon="3.87183">
        <ele>100.1</ele>
        <time>2018-09-16T08:16:04Z</time>
      </trkpt>
      <trkpt lat="43.67138" lon="3.87185">
        <ele>100.6</ele>
        <time>2018-09-16T08:16:07Z</time>
      </trkpt>
      <trkpt lat="43.67135" lon="3.87186">
        <ele>100.8</ele>
        <time>2018-09-16T08:16:08Z</time>
      </trkpt>
      <trkpt lat="43.67128" lon="3.8719">
        <ele>101.4</ele>
        <time>2018-09-16T08:16:12Z</time>
      </trkpt>
      <trkpt lat="43.67126" lon="3.87191">
        <ele>101.5</ele>
        <time>2018-09-16T08:16:13Z</time>
      </trkpt>
      <trkpt lat="43.67122" lon="3.87193">
        <ele>101.8</ele>
        <time>2018-09-16T08:16:15Z</time>
      </trkpt>
      <trkpt lat="43.67113" lon="3.87197">
        <ele>102.4</ele>
        <time>2018-09-16T08:16:16Z</time>
      </trkpt>
      <trkpt lat="43.67105" lon="3.87196">
        <ele>102.9</ele>
        <time>2018-09-16T08:16:20Z</time>
      </trkpt>
      <trkpt lat="43.67103" lon="3.87195">
        <ele>103</ele>
        <time>2018-09-16T08:16:21Z</time>
      </trkpt>
      <trkpt lat="43.67095" lon="3.87192">
        <ele>103.4</ele>
        <time>2018-09-16T08:16:26Z</time>
      </trkpt>
      <trkpt lat="43.67093" lon="3.87192">
        <ele>103.7</ele>
        <time>2018-09-16T08:16:27Z</time>
      </trkpt>
      <trkpt lat="43.67086" lon="3.87188">
        <ele>104</ele>
        <time>2018-09-16T08:16:32Z</time>
      </trkpt>
      <trkpt lat="43.67084" lon="3.87187">
        <ele>104.1</ele>
        <time>2018-09-16T08:16:33Z</time>
      </trkpt>
      <trkpt lat="43.67076" lon="3.87184">
        <ele>104.8</ele>
        <time>2018-09-16T08:16:39Z</time>
      </trkpt>
      <trkpt lat="43.67075" lon="3.87183">
        <ele>104.8</ele>
        <time>2018-09-16T08:16:40Z</time>
      </trkpt>
      <trkpt lat="43.67066" lon="3.87179">
        <ele>105.6</ele>
        <time>2018-09-16T08:16:45Z</time>
      </trkpt>
      <trkpt lat="43.67064" lon="3.87179">
        <ele>105.8</ele>
        <time>2018-09-16T08:16:46Z</time>
      </trkpt>
      <trkpt lat="43.67057" lon="3.87174">
        <ele>106.3</ele>
        <time>2018-09-16T08:16:50Z</time>
      </trkpt>
      <trkpt lat="43.67056" lon="3.87172">
        <ele>106.3</ele>
        <time>2018-09-16T08:16:51Z</time>
      </trkpt>
      <trkpt lat="43.6705" lon="3.87167">
        <ele>106.2</ele>
        <time>2018-09-16T08:16:54Z</time>
      </trkpt>
      <trkpt lat="43.67048" lon="3.87165">
        <ele>106.2</ele>
        <time>2018-09-16T08:16:55Z</time>
      </trkpt>
      <trkpt lat="43.67043" lon="3.87157">
        <ele>106.1</ele>
        <time>2018-09-16T08:16:58Z</time>
      </trkpt>
      <trkpt lat="43.67041" lon="3.87154">
        <ele>106.1</ele>
        <time>2018-09-16T08:16:59Z</time>
      </trkpt>
      <trkpt lat="43.67035" lon="3.87147">
        <ele>106.4</ele>
        <time>2018-09-16T08:17:02Z</time>
      </trkpt>
      <trkpt lat="43.67033" lon="3.87145">
        <ele>106.5</ele>
        <time>2018-09-16T08:17:03Z</time>
      </trkpt>
      <trkpt lat="43.67027" lon="3.87141">
        <ele>107</ele>
        <time>2018-09-16T08:17:06Z</time>
      </trkpt>
      <trkpt lat="43.67025" lon="3.87139">
        <ele>106.9</ele>
        <time>2018-09-16T08:17:07Z</time>
      </trkpt>
      <trkpt lat="43.67021" lon="3.87132">
        <ele>106.3</ele>
        <time>2018-09-16T08:17:25Z</time>
      </trkpt>
      <trkpt lat="43.67022" lon="3.87131">
        <ele>106.3</ele>
        <time>2018-09-16T08:17:41Z</time>
      </trkpt>
      <trkpt lat="43.67022" lon="3.87133">
        <ele>106.4</ele>
        <time>2018-09-16T08:22:43Z</time>
      </trkpt>
      <trkpt lat="43.67022" lon="3.87134">
        <ele>106.5</ele>
        <time>2018-09-16T08:22:46Z</time>
      </trkpt>
      <trkpt lat="43.67016" lon="3.87142">
        <ele>106.6</ele>
        <time>2018-09-16T08:23:09Z</time>
      </trkpt>
      <trkpt lat="43.67015" lon="3.87142">
        <ele>106.5</ele>
        <time>2018-09-16T08:23:10Z</time>
      </trkpt>
      <trkpt lat="43.67006" lon="3.87145">
        <ele>106.2</ele>
        <time>2018-09-16T08:23:15Z</time>
      </trkpt>
      <trkpt lat="43.67003" lon="3.87146">
        <ele>106.1</ele>
        <time>2018-09-16T08:23:16Z</time>
      </trkpt>
      <trkpt lat="43.67" lon="3.87147">
        <ele>106</ele>
        <time>2018-09-16T08:23:17Z</time>
      </trkpt>
      <trkpt lat="43.66991" lon="3.87148">
        <ele>105.8</ele>
        <time>2018-09-16T08:23:18Z</time>
      </trkpt>
      <trkpt lat="43.66983" lon="3.87146">
        <ele>105.7</ele>
        <time>2018-09-16T08:23:20Z</time>
      </trkpt>
      <trkpt lat="43.66979" lon="3.87145">
        <ele>105.7</ele>
        <time>2018-09-16T08:23:21Z</time>
      </trkpt>
      <trkpt lat="43.6697" lon="3.87144">
        <ele>105.7</ele>
        <time>2018-09-16T08:23:23Z</time>
      </trkpt>
      <trkpt lat="43.66966" lon="3.87143">
        <ele>105.9</ele>
        <time>2018-09-16T08:23:24Z</time>
      </trkpt>
      <trkpt lat="43.66957" lon="3.87143">
        <ele>106.3</ele>
        <time>2018-09-16T08:23:26Z</time>
      </trkpt>
      <trkpt lat="43.66953" lon="3.87143">
        <ele>106.4</ele>
        <time>2018-09-16T08:23:27Z</time>
      </trkpt>
      <trkpt lat="43.66945" lon="3.87143">
        <ele>106.7</ele>
        <time>2018-09-16T08:23:29Z</time>
      </trkpt>
      <trkpt lat="43.66941" lon="3.87142">
        <ele>107</ele>
        <time>2018-09-16T08:23:30Z</time>
      </trkpt>
      <trkpt lat="43.66932" lon="3.87142">
        <ele>107.6</ele>
        <time>2018-09-16T08:23:32Z</time>
      </trkpt>
      <trkpt lat="43.66927" lon="3.87141">
        <ele>108</ele>
        <time>2018-09-16T08:23:33Z</time>
      </trkpt>
      <trkpt lat="43.6692" lon="3.87141">
        <ele>108.5</ele>
        <time>2018-09-16T08:23:36Z</time>
      </trkpt>
      <trkpt lat="43.66912" lon="3.8714">
        <ele>108.8</ele>
        <time>2018-09-16T08:23:37Z</time>
      </trkpt>
      <trkpt lat="43.66905" lon="3.87139">
        <ele>109</ele>
        <time>2018-09-16T08:23:39Z</time>
      </trkpt>
      <trkpt lat="43.66903" lon="3.8714">
        <ele>108.9</ele>
        <time>2018-09-16T08:23:40Z</time>
      </trkpt>
      <trkpt lat="43.66896" lon="3.87141">
        <ele>108.8</ele>
        <time>2018-09-16T08:23:43Z</time>
      </trkpt>
      <trkpt lat="43.66893" lon="3.87141">
        <ele>108.8</ele>
        <time>2018-09-16T08:23:44Z</time>
      </trkpt>
      <trkpt lat="43.66885" lon="3.87142">
        <ele>108.7</ele>
        <time>2018-09-16T08:23:47Z</time>
      </trkpt>
      <trkpt lat="43.66882" lon="3.87142">
        <ele>108.7</ele>
        <time>2018-09-16T08:23:48Z</time>
      </trkpt>
      <trkpt lat="43.6687" lon="3.87143">
        <ele>108.6</ele>
        <time>2018-09-16T08:23:49Z</time>
      </trkpt>
      <trkpt lat="43.66862" lon="3.87144">
        <ele>108.4</ele>
        <time>2018-09-16T08:23:51Z</time>
      </trkpt>
      <trkpt lat="43.66857" lon="3.87145">
        <ele>108.1</ele>
        <time>2018-09-16T08:23:52Z</time>
      </trkpt>
      <trkpt lat="43.66853" lon="3.87144">
        <ele>107.9</ele>
        <time>2018-09-16T08:23:53Z</time>
      </trkpt>
      <trkpt lat="43.66848" lon="3.87144">
        <ele>107.6</ele>
        <time>2018-09-16T08:23:54Z</time>
      </trkpt>
      <trkpt lat="43.66844" lon="3.87144">
        <ele>107.3</ele>
        <time>2018-09-16T08:23:55Z</time>
      </trkpt>
      <trkpt lat="43.66839" lon="3.87145">
        <ele>106.9</ele>
        <time>2018-09-16T08:23:56Z</time>
      </trkpt>
      <trkpt lat="43.6683" lon="3.87144">
        <ele>106.2</ele>
        <time>2018-09-16T08:23:58Z</time>
      </trkpt>
      <trkpt lat="43.66825" lon="3.87144">
        <ele>105.5</ele>
        <time>2018-09-16T08:23:59Z</time>
      </trkpt>
      <trkpt lat="43.66818" lon="3.87144">
        <ele>104.5</ele>
        <time>2018-09-16T08:24:00Z</time>
      </trkpt>
      <trkpt lat="43.66813" lon="3.87143">
        <ele>103.9</ele>
        <time>2018-09-16T08:24:01Z</time>
      </trkpt>
      <trkpt lat="43.66807" lon="3.87143">
        <ele>103.1</ele>
        <time>2018-09-16T08:24:02Z</time>
      </trkpt>
      <trkpt lat="43.668" lon="3.87142">
        <ele>102.1</ele>
        <time>2018-09-16T08:24:03Z</time>
      </trkpt>
      <trkpt lat="43.66793" lon="3.87141">
        <ele>101.2</ele>
        <time>2018-09-16T08:24:04Z</time>
      </trkpt>
      <trkpt lat="43.66787" lon="3.87139">
        <ele>100.3</ele>
        <time>2018-09-16T08:24:05Z</time>
      </trkpt>
      <trkpt lat="43.66781" lon="3.87138">
        <ele>99.4</ele>
        <time>2018-09-16T08:24:06Z</time>
      </trkpt>
      <trkpt lat="43.66775" lon="3.87137">
        <ele>98.5</ele>
        <time>2018-09-16T08:24:07Z</time>
      </trkpt>
      <trkpt lat="43.6677" lon="3.87136">
        <ele>97.7</ele>
        <time>2018-09-16T08:24:08Z</time>
      </trkpt>
      <trkpt lat="43.66764" lon="3.87136">
        <ele>96.9</ele>
        <time>2018-09-16T08:24:09Z</time>
      </trkpt>
      <trkpt lat="43.66759" lon="3.87137">
        <ele>96.2</ele>
        <time>2018-09-16T08:24:10Z</time>
      </trkpt>
      <trkpt lat="43.66754" lon="3.87138">
        <ele>95.5</ele>
        <time>2018-09-16T08:24:11Z</time>
      </trkpt>
      <trkpt lat="43.66746" lon="3.87139">
        <ele>94.7</ele>
        <time>2018-09-16T08:24:13Z</time>
      </trkpt>
      <trkpt lat="43.66741" lon="3.87141">
        <ele>94.4</ele>
        <time>2018-09-16T08:24:14Z</time>
      </trkpt>
      <trkpt lat="43.66734" lon="3.87148">
        <ele>94.2</ele>
        <time>2018-09-16T08:24:17Z</time>
      </trkpt>
      <trkpt lat="43.66733" lon="3.8715">
        <ele>94.2</ele>
        <time>2018-09-16T08:24:18Z</time>
      </trkpt>
      <trkpt lat="43.66731" lon="3.87159">
        <ele>94.4</ele>
        <time>2018-09-16T08:24:21Z</time>
      </trkpt>
      <trkpt lat="43.66732" lon="3.87163">
        <ele>94.6</ele>
        <time>2018-09-16T08:24:22Z</time>
      </trkpt>
      <trkpt lat="43.66734" lon="3.87174">
        <ele>94.8</ele>
        <time>2018-09-16T08:24:25Z</time>
      </trkpt>
      <trkpt lat="43.66734" lon="3.87177">
        <ele>94.8</ele>
        <time>2018-09-16T08:24:26Z</time>
      </trkpt>
      <trkpt lat="43.66732" lon="3.87186">
        <ele>94.7</ele>
        <time>2018-09-16T08:24:48Z</time>
      </trkpt>
      <trkpt lat="43.6673" lon="3.87188">
        <ele>94.6</ele>
        <time>2018-09-16T08:24:49Z</time>
      </trkpt>
      <trkpt lat="43.66727" lon="3.8719">
        <ele>94.3</ele>
        <time>2018-09-16T08:24:50Z</time>
      </trkpt>
      <trkpt lat="43.66716" lon="3.87193">
        <ele>93.8</ele>
        <time>2018-09-16T08:24:51Z</time>
      </trkpt>
      <trkpt lat="43.66708" lon="3.87193">
        <ele>93.5</ele>
        <time>2018-09-16T08:24:53Z</time>
      </trkpt>
      <trkpt lat="43.66704" lon="3.87194">
        <ele>93.3</ele>
        <time>2018-09-16T08:24:54Z</time>
      </trkpt>
      <trkpt lat="43.66696" lon="3.87197">
        <ele>93.1</ele>
        <time>2018-09-16T08:24:56Z</time>
      </trkpt>
      <trkpt lat="43.66695" lon="3.87198">
        <ele>93</ele>
        <time>2018-09-16T08:24:57Z</time>
      </trkpt>
      <trkpt lat="43.66688" lon="3.87203">
        <ele>93</ele>
        <time>2018-09-16T08:25:03Z</time>
      </trkpt>
      <trkpt lat="43.66686" lon="3.87204">
        <ele>93</ele>
        <time>2018-09-16T08:25:04Z</time>
      </trkpt>
      <trkpt lat="43.66678" lon="3.87203">
        <ele>93</ele>
        <time>2018-09-16T08:25:07Z</time>
      </trkpt>
      <trkpt lat="43.66674" lon="3.87203">
        <ele>93</ele>
        <time>2018-09-16T08:25:08Z</time>
      </trkpt>
      <trkpt lat="43.66667" lon="3.87203">
        <ele>93</ele>
        <time>2018-09-16T08:25:10Z</time>
      </trkpt>
      <trkpt lat="43.66654" lon="3.87205">
        <ele>92.8</ele>
        <time>2018-09-16T08:25:11Z</time>
      </trkpt>
      <trkpt lat="43.66649" lon="3.87202">
        <ele>92.8</ele>
        <time>2018-09-16T08:25:13Z</time>
      </trkpt>
      <trkpt lat="43.66643" lon="3.87199">
        <ele>92.9</ele>
        <time>2018-09-16T08:25:14Z</time>
      </trkpt>
      <trkpt lat="43.66635" lon="3.87193">
        <ele>92.9</ele>
        <time>2018-09-16T08:25:18Z</time>
      </trkpt>
      <trkpt lat="43.66633" lon="3.87191">
        <ele>92.8</ele>
        <time>2018-09-16T08:25:19Z</time>
      </trkpt>
      <trkpt lat="43.66628" lon="3.87185">
        <ele>92.6</ele>
        <time>2018-09-16T08:25:21Z</time>
      </trkpt>
      <trkpt lat="43.66621" lon="3.87174">
        <ele>92.4</ele>
        <time>2018-09-16T08:25:22Z</time>
      </trkpt>
      <trkpt lat="43.66618" lon="3.87172">
        <ele>92.2</ele>
        <time>2018-09-16T08:25:24Z</time>
      </trkpt>
      <trkpt lat="43.6661" lon="3.8717">
        <ele>92</ele>
        <time>2018-09-16T08:25:25Z</time>
      </trkpt>
      <trkpt lat="43.66605" lon="3.8717">
        <ele>91.9</ele>
        <time>2018-09-16T08:25:26Z</time>
      </trkpt>
      <trkpt lat="43.666" lon="3.8717">
        <ele>91.9</ele>
        <time>2018-09-16T08:25:27Z</time>
      </trkpt>
      <trkpt lat="43.66595" lon="3.87169">
        <ele>91.9</ele>
        <time>2018-09-16T08:25:28Z</time>
      </trkpt>
      <trkpt lat="43.6659" lon="3.87168">
        <ele>91.9</ele>
        <time>2018-09-16T08:25:29Z</time>
      </trkpt>
      <trkpt lat="43.66585" lon="3.87167">
        <ele>92</ele>
        <time>2018-09-16T08:25:30Z</time>
      </trkpt>
      <trkpt lat="43.6658" lon="3.87164">
        <ele>92.1</ele>
        <time>2018-09-16T08:25:31Z</time>
      </trkpt>
      <trkpt lat="43.66575" lon="3.87163">
        <ele>92.1</ele>
        <time>2018-09-16T08:25:32Z</time>
      </trkpt>
      <trkpt lat="43.6657" lon="3.87159">
        <ele>92.3</ele>
        <time>2018-09-16T08:25:33Z</time>
      </trkpt>
      <trkpt lat="43.66564" lon="3.87151">
        <ele>92.6</ele>
        <time>2018-09-16T08:25:37Z</time>
      </trkpt>
      <trkpt lat="43.66562" lon="3.87149">
        <ele>92.6</ele>
        <time>2018-09-16T08:25:38Z</time>
      </trkpt>
      <trkpt lat="43.66555" lon="3.87145">
        <ele>92.8</ele>
        <time>2018-09-16T08:25:41Z</time>
      </trkpt>
      <trkpt lat="43.66553" lon="3.87143">
        <ele>92.8</ele>
        <time>2018-09-16T08:25:42Z</time>
      </trkpt>
      <trkpt lat="43.66547" lon="3.8714">
        <ele>92.9</ele>
        <time>2018-09-16T08:25:44Z</time>
      </trkpt>
      <trkpt lat="43.66543" lon="3.8714">
        <ele>92.9</ele>
        <time>2018-09-16T08:25:45Z</time>
      </trkpt>
      <trkpt lat="43.66532" lon="3.87139">
        <ele>93</ele>
        <time>2018-09-16T08:25:46Z</time>
      </trkpt>
      <trkpt lat="43.66524" lon="3.87139">
        <ele>93</ele>
        <time>2018-09-16T08:25:49Z</time>
      </trkpt>
      <trkpt lat="43.66522" lon="3.8714">
        <ele>92.9</ele>
        <time>2018-09-16T08:25:50Z</time>
      </trkpt>
      <trkpt lat="43.66513" lon="3.87142">
        <ele>92.7</ele>
        <time>2018-09-16T08:25:53Z</time>
      </trkpt>
      <trkpt lat="43.66511" lon="3.87141">
        <ele>92.8</ele>
        <time>2018-09-16T08:25:54Z</time>
      </trkpt>
      <trkpt lat="43.66503" lon="3.87136">
        <ele>93.2</ele>
        <time>2018-09-16T08:25:57Z</time>
      </trkpt>
      <trkpt lat="43.66502" lon="3.87134">
        <ele>93.3</ele>
        <time>2018-09-16T08:25:58Z</time>
      </trkpt>
      <trkpt lat="43.66499" lon="3.87123">
        <ele>94.1</ele>
        <time>2018-09-16T08:26:03Z</time>
      </trkpt>
      <trkpt lat="43.665" lon="3.87121">
        <ele>94.3</ele>
        <time>2018-09-16T08:26:04Z</time>
      </trkpt>
      <trkpt lat="43.66506" lon="3.87112">
        <ele>94.7</ele>
        <time>2018-09-16T08:26:09Z</time>
      </trkpt>
      <trkpt lat="43.66506" lon="3.87109">
        <ele>94.8</ele>
        <time>2018-09-16T08:26:10Z</time>
      </trkpt>
      <trkpt lat="43.66509" lon="3.871">
        <ele>94.9</ele>
        <time>2018-09-16T08:26:13Z</time>
      </trkpt>
      <trkpt lat="43.6651" lon="3.87097">
        <ele>95</ele>
        <time>2018-09-16T08:26:14Z</time>
      </trkpt>
      <trkpt lat="43.66512" lon="3.87087">
        <ele>95.1</ele>
        <time>2018-09-16T08:26:16Z</time>
      </trkpt>
      <trkpt lat="43.66513" lon="3.87083">
        <ele>95.1</ele>
        <time>2018-09-16T08:26:17Z</time>
      </trkpt>
      <trkpt lat="43.66518" lon="3.87072">
        <ele>94.6</ele>
        <time>2018-09-16T08:26:22Z</time>
      </trkpt>
      <trkpt lat="43.66519" lon="3.87073">
        <ele>94.5</ele>
        <time>2018-09-16T08:26:23Z</time>
      </trkpt>
      <trkpt lat="43.66527" lon="3.87072">
        <ele>94</ele>
        <time>2018-09-16T08:26:27Z</time>
      </trkpt>
      <trkpt lat="43.66529" lon="3.87071">
        <ele>93.8</ele>
        <time>2018-09-16T08:26:28Z</time>
      </trkpt>
      <trkpt lat="43.66534" lon="3.87066">
        <ele>93</ele>
        <time>2018-09-16T08:26:30Z</time>
      </trkpt>
      <trkpt lat="43.66536" lon="3.87063">
        <ele>92.7</ele>
        <time>2018-09-16T08:26:31Z</time>
      </trkpt>
      <trkpt lat="43.66541" lon="3.87057">
        <ele>91.7</ele>
        <time>2018-09-16T08:26:33Z</time>
      </trkpt>
      <trkpt lat="43.66543" lon="3.87054">
        <ele>91.2</ele>
        <time>2018-09-16T08:26:34Z</time>
      </trkpt>
      <trkpt lat="43.6655" lon="3.87047">
        <ele>89.6</ele>
        <time>2018-09-16T08:26:37Z</time>
      </trkpt>
      <trkpt lat="43.66553" lon="3.87046">
        <ele>89.1</ele>
        <time>2018-09-16T08:26:38Z</time>
      </trkpt>
      <trkpt lat="43.66559" lon="3.87044">
        <ele>87.8</ele>
        <time>2018-09-16T08:26:40Z</time>
      </trkpt>
      <trkpt lat="43.66561" lon="3.87041">
        <ele>87.2</ele>
        <time>2018-09-16T08:26:41Z</time>
      </trkpt>
      <trkpt lat="43.66568" lon="3.87033">
        <ele>84.9</ele>
        <time>2018-09-16T08:26:44Z</time>
      </trkpt>
      <trkpt lat="43.6657" lon="3.87031">
        <ele>84.1</ele>
        <time>2018-09-16T08:26:45Z</time>
      </trkpt>
      <trkpt lat="43.66575" lon="3.87026">
        <ele>82.3</ele>
        <time>2018-09-16T08:26:48Z</time>
      </trkpt>
      <trkpt lat="43.66578" lon="3.87024">
        <ele>81.3</ele>
        <time>2018-09-16T08:26:49Z</time>
      </trkpt>
      <trkpt lat="43.66581" lon="3.87013">
        <ele>79.6</ele>
        <time>2018-09-16T08:26:53Z</time>
      </trkpt>
      <trkpt lat="43.66582" lon="3.87011">
        <ele>79.2</ele>
        <time>2018-09-16T08:26:54Z</time>
      </trkpt>
      <trkpt lat="43.66584" lon="3.87002">
        <ele>78</ele>
        <time>2018-09-16T08:26:59Z</time>
      </trkpt>
      <trkpt lat="43.66586" lon="3.86999">
        <ele>77.5</ele>
        <time>2018-09-16T08:27:00Z</time>
      </trkpt>
      <trkpt lat="43.66589" lon="3.86991">
        <ele>76.5</ele>
        <time>2018-09-16T08:27:02Z</time>
      </trkpt>
      <trkpt lat="43.6659" lon="3.86986">
        <ele>76</ele>
        <time>2018-09-16T08:27:03Z</time>
      </trkpt>
      <trkpt lat="43.6659" lon="3.86977">
        <ele>75.4</ele>
        <time>2018-09-16T08:27:05Z</time>
      </trkpt>
      <trkpt lat="43.6659" lon="3.86973">
        <ele>75.1</ele>
        <time>2018-09-16T08:27:06Z</time>
      </trkpt>
      <trkpt lat="43.6659" lon="3.86963">
        <ele>73.9</ele>
        <time>2018-09-16T08:27:08Z</time>
      </trkpt>
      <trkpt lat="43.66589" lon="3.86959">
        <ele>73.5</ele>
        <time>2018-09-16T08:27:09Z</time>
      </trkpt>
      <trkpt lat="43.6659" lon="3.86948">
        <ele>72</ele>
        <time>2018-09-16T08:27:11Z</time>
      </trkpt>
      <trkpt lat="43.66588" lon="3.86931">
        <ele>70.4</ele>
        <time>2018-09-16T08:27:12Z</time>
      </trkpt>
      <trkpt lat="43.66585" lon="3.8692">
        <ele>69.3</ele>
        <time>2018-09-16T08:27:13Z</time>
      </trkpt>
      <trkpt lat="43.66584" lon="3.86913">
        <ele>68.9</ele>
        <time>2018-09-16T08:27:14Z</time>
      </trkpt>
      <trkpt lat="43.66584" lon="3.86903">
        <ele>68.5</ele>
        <time>2018-09-16T08:27:18Z</time>
      </trkpt>
      <trkpt lat="43.66585" lon="3.869">
        <ele>68.4</ele>
        <time>2018-09-16T08:27:19Z</time>
      </trkpt>
      <trkpt lat="43.66584" lon="3.86891">
        <ele>68.1</ele>
        <time>2018-09-16T08:27:22Z</time>
      </trkpt>
      <trkpt lat="43.66584" lon="3.86887">
        <ele>67.9</ele>
        <time>2018-09-16T08:27:23Z</time>
      </trkpt>
      <trkpt lat="43.6658" lon="3.86878">
        <ele>67.6</ele>
        <time>2018-09-16T08:27:26Z</time>
      </trkpt>
      <trkpt lat="43.66579" lon="3.86874">
        <ele>67.5</ele>
        <time>2018-09-16T08:27:27Z</time>
      </trkpt>
      <trkpt lat="43.66576" lon="3.86864">
        <ele>67</ele>
        <time>2018-09-16T08:27:30Z</time>
      </trkpt>
      <trkpt lat="43.66576" lon="3.8686">
        <ele>66.7</ele>
        <time>2018-09-16T08:27:31Z</time>
      </trkpt>
      <trkpt lat="43.66575" lon="3.86849">
        <ele>65.9</ele>
        <time>2018-09-16T08:27:34Z</time>
      </trkpt>
      <trkpt lat="43.66574" lon="3.86846">
        <ele>65.7</ele>
        <time>2018-09-16T08:27:35Z</time>
      </trkpt>
      <trkpt lat="43.66573" lon="3.86836">
        <ele>65</ele>
        <time>2018-09-16T08:27:38Z</time>
      </trkpt>
      <trkpt lat="43.66572" lon="3.86832">
        <ele>64.7</ele>
        <time>2018-09-16T08:27:39Z</time>
      </trkpt>
      <trkpt lat="43.66568" lon="3.86822">
        <ele>64.5</ele>
        <time>2018-09-16T08:27:42Z</time>
      </trkpt>
      <trkpt lat="43.66567" lon="3.86819">
        <ele>64.4</ele>
        <time>2018-09-16T08:27:43Z</time>
      </trkpt>
      <trkpt lat="43.66563" lon="3.8681">
        <ele>64.4</ele>
        <time>2018-09-16T08:27:46Z</time>
      </trkpt>
      <trkpt lat="43.66561" lon="3.86807">
        <ele>64.5</ele>
        <time>2018-09-16T08:27:47Z</time>
      </trkpt>
      <trkpt lat="43.66557" lon="3.868">
        <ele>64.4</ele>
        <time>2018-09-16T08:27:49Z</time>
      </trkpt>
      <trkpt lat="43.66555" lon="3.86796">
        <ele>64.4</ele>
        <time>2018-09-16T08:27:50Z</time>
      </trkpt>
      <trkpt lat="43.66552" lon="3.86788">
        <ele>64</ele>
        <time>2018-09-16T08:27:52Z</time>
      </trkpt>
      <trkpt lat="43.66551" lon="3.86785">
        <ele>63.8</ele>
        <time>2018-09-16T08:27:53Z</time>
      </trkpt>
      <trkpt lat="43.66548" lon="3.86777">
        <ele>63.5</ele>
        <time>2018-09-16T08:27:55Z</time>
      </trkpt>
      <trkpt lat="43.66547" lon="3.86772">
        <ele>63.2</ele>
        <time>2018-09-16T08:27:56Z</time>
      </trkpt>
      <trkpt lat="43.66544" lon="3.86762">
        <ele>62.7</ele>
        <time>2018-09-16T08:27:58Z</time>
      </trkpt>
      <trkpt lat="43.66543" lon="3.86759">
        <ele>62.6</ele>
        <time>2018-09-16T08:27:59Z</time>
      </trkpt>
      <trkpt lat="43.66538" lon="3.86749">
        <ele>62.2</ele>
        <time>2018-09-16T08:28:02Z</time>
      </trkpt>
      <trkpt lat="43.66537" lon="3.86746">
        <ele>62</ele>
        <time>2018-09-16T08:28:03Z</time>
      </trkpt>
      <trkpt lat="43.66531" lon="3.86739">
        <ele>61.9</ele>
        <time>2018-09-16T08:28:07Z</time>
      </trkpt>
      <trkpt lat="43.6653" lon="3.86738">
        <ele>61.9</ele>
        <time>2018-09-16T08:28:08Z</time>
      </trkpt>
      <trkpt lat="43.66526" lon="3.86729">
        <ele>61.5</ele>
        <time>2018-09-16T08:28:11Z</time>
      </trkpt>
      <trkpt lat="43.66525" lon="3.86726">
        <ele>61.3</ele>
        <time>2018-09-16T08:28:12Z</time>
      </trkpt>
      <trkpt lat="43.6652" lon="3.86719">
        <ele>60.7</ele>
        <time>2018-09-16T08:28:15Z</time>
      </trkpt>
      <trkpt lat="43.66518" lon="3.86717">
        <ele>60.4</ele>
        <time>2018-09-16T08:28:16Z</time>
      </trkpt>
      <trkpt lat="43.6651" lon="3.86714">
        <ele>60.1</ele>
        <time>2018-09-16T08:28:22Z</time>
      </trkpt>
      <trkpt lat="43.66509" lon="3.86715">
        <ele>60.2</ele>
        <time>2018-09-16T08:28:23Z</time>
      </trkpt>
      <trkpt lat="43.665" lon="3.86719">
        <ele>60.7</ele>
        <time>2018-09-16T08:28:28Z</time>
      </trkpt>
      <trkpt lat="43.66498" lon="3.86721">
        <ele>60.8</ele>
        <time>2018-09-16T08:28:29Z</time>
      </trkpt>
      <trkpt lat="43.66491" lon="3.86723">
        <ele>60.7</ele>
        <time>2018-09-16T08:28:32Z</time>
      </trkpt>
      <trkpt lat="43.66489" lon="3.86723">
        <ele>60.7</ele>
        <time>2018-09-16T08:28:33Z</time>
      </trkpt>
      <trkpt lat="43.66482" lon="3.86724">
        <ele>60.5</ele>
        <time>2018-09-16T08:28:35Z</time>
      </trkpt>
      <trkpt lat="43.66479" lon="3.86725">
        <ele>60.4</ele>
        <time>2018-09-16T08:28:36Z</time>
      </trkpt>
      <trkpt lat="43.66472" lon="3.86727">
        <ele>60.3</ele>
        <time>2018-09-16T08:28:39Z</time>
      </trkpt>
      <trkpt lat="43.6647" lon="3.86728">
        <ele>60.3</ele>
        <time>2018-09-16T08:28:40Z</time>
      </trkpt>
      <trkpt lat="43.66461" lon="3.86729">
        <ele>59.9</ele>
        <time>2018-09-16T08:28:44Z</time>
      </trkpt>
      <trkpt lat="43.66459" lon="3.86729">
        <ele>59.8</ele>
        <time>2018-09-16T08:28:45Z</time>
      </trkpt>
      <trkpt lat="43.66451" lon="3.86733">
        <ele>59.8</ele>
        <time>2018-09-16T08:28:49Z</time>
      </trkpt>
      <trkpt lat="43.6645" lon="3.86734">
        <ele>59.9</ele>
        <time>2018-09-16T08:28:50Z</time>
      </trkpt>
      <trkpt lat="43.66443" lon="3.86738">
        <ele>60.3</ele>
        <time>2018-09-16T08:28:54Z</time>
      </trkpt>
      <trkpt lat="43.66441" lon="3.86739">
        <ele>60.4</ele>
        <time>2018-09-16T08:28:55Z</time>
      </trkpt>
      <trkpt lat="43.66433" lon="3.86742">
        <ele>60.7</ele>
        <time>2018-09-16T08:29:02Z</time>
      </trkpt>
      <trkpt lat="43.66432" lon="3.86742">
        <ele>60.7</ele>
        <time>2018-09-16T08:29:03Z</time>
      </trkpt>
      <trkpt lat="43.66424" lon="3.86747">
        <ele>61</ele>
        <time>2018-09-16T08:29:09Z</time>
      </trkpt>
      <trkpt lat="43.66423" lon="3.86747">
        <ele>61</ele>
        <time>2018-09-16T08:29:10Z</time>
      </trkpt>
      <trkpt lat="43.66416" lon="3.86753">
        <ele>61.3</ele>
        <time>2018-09-16T08:29:16Z</time>
      </trkpt>
      <trkpt lat="43.66414" lon="3.86755">
        <ele>61.5</ele>
        <time>2018-09-16T08:29:17Z</time>
      </trkpt>
      <trkpt lat="43.66407" lon="3.86761">
        <ele>62.2</ele>
        <time>2018-09-16T08:29:21Z</time>
      </trkpt>
      <trkpt lat="43.66404" lon="3.86763">
        <ele>62.4</ele>
        <time>2018-09-16T08:29:22Z</time>
      </trkpt>
      <trkpt lat="43.66397" lon="3.86764">
        <ele>62.5</ele>
        <time>2018-09-16T08:29:24Z</time>
      </trkpt>
      <trkpt lat="43.66384" lon="3.86765">
        <ele>62.8</ele>
        <time>2018-09-16T08:29:25Z</time>
      </trkpt>
      <trkpt lat="43.66377" lon="3.86767">
        <ele>63.3</ele>
        <time>2018-09-16T08:29:28Z</time>
      </trkpt>
      <trkpt lat="43.66368" lon="3.86761">
        <ele>62.9</ele>
        <time>2018-09-16T08:29:29Z</time>
      </trkpt>
      <trkpt lat="43.66361" lon="3.86755">
        <ele>62.5</ele>
        <time>2018-09-16T08:29:32Z</time>
      </trkpt>
      <trkpt lat="43.66359" lon="3.86754">
        <ele>62.4</ele>
        <time>2018-09-16T08:29:33Z</time>
      </trkpt>
      <trkpt lat="43.66359" lon="3.86743">
        <ele>61.5</ele>
        <time>2018-09-16T08:29:38Z</time>
      </trkpt>
      <trkpt lat="43.66361" lon="3.86739">
        <ele>61.2</ele>
        <time>2018-09-16T08:29:39Z</time>
      </trkpt>
      <trkpt lat="43.66359" lon="3.86729">
        <ele>60.5</ele>
        <time>2018-09-16T08:29:41Z</time>
      </trkpt>
      <trkpt lat="43.66357" lon="3.86723">
        <ele>60.2</ele>
        <time>2018-09-16T08:29:42Z</time>
      </trkpt>
      <trkpt lat="43.66358" lon="3.86715">
        <ele>59.8</ele>
        <time>2018-09-16T08:29:44Z</time>
      </trkpt>
      <trkpt lat="43.66363" lon="3.86697">
        <ele>59</ele>
        <time>2018-09-16T08:29:45Z</time>
      </trkpt>
      <trkpt lat="43.6637" lon="3.86692">
        <ele>58.6</ele>
        <time>2018-09-16T08:29:47Z</time>
      </trkpt>
      <trkpt lat="43.66371" lon="3.86691">
        <ele>58.5</ele>
        <time>2018-09-16T08:29:48Z</time>
      </trkpt>
      <trkpt lat="43.66377" lon="3.86684">
        <ele>58.1</ele>
        <time>2018-09-16T08:29:52Z</time>
      </trkpt>
      <trkpt lat="43.66379" lon="3.86682">
        <ele>57.9</ele>
        <time>2018-09-16T08:29:53Z</time>
      </trkpt>
      <trkpt lat="43.66384" lon="3.86677">
        <ele>57.5</ele>
        <time>2018-09-16T08:29:55Z</time>
      </trkpt>
      <trkpt lat="43.66387" lon="3.86675">
        <ele>57.4</ele>
        <time>2018-09-16T08:29:56Z</time>
      </trkpt>
      <trkpt lat="43.66392" lon="3.86672">
        <ele>57</ele>
        <time>2018-09-16T08:29:58Z</time>
      </trkpt>
      <trkpt lat="43.66395" lon="3.8667">
        <ele>56.7</ele>
        <time>2018-09-16T08:29:59Z</time>
      </trkpt>
      <trkpt lat="43.66401" lon="3.86665">
        <ele>56.1</ele>
        <time>2018-09-16T08:30:02Z</time>
      </trkpt>
      <trkpt lat="43.66403" lon="3.86663">
        <ele>56</ele>
        <time>2018-09-16T08:30:03Z</time>
      </trkpt>
      <trkpt lat="43.6641" lon="3.86661">
        <ele>55.5</ele>
        <time>2018-09-16T08:30:06Z</time>
      </trkpt>
      <trkpt lat="43.66412" lon="3.8666">
        <ele>55.3</ele>
        <time>2018-09-16T08:30:07Z</time>
      </trkpt>
      <trkpt lat="43.66418" lon="3.86659">
        <ele>55</ele>
        <time>2018-09-16T08:30:09Z</time>
      </trkpt>
      <trkpt lat="43.66429" lon="3.86658">
        <ele>54.7</ele>
        <time>2018-09-16T08:30:10Z</time>
      </trkpt>
      <trkpt lat="43.66435" lon="3.86657">
        <ele>54.5</ele>
        <time>2018-09-16T08:30:13Z</time>
      </trkpt>
      <trkpt lat="43.66438" lon="3.86658">
        <ele>54.5</ele>
        <time>2018-09-16T08:30:14Z</time>
      </trkpt>
      <trkpt lat="43.66447" lon="3.8666">
        <ele>54.5</ele>
        <time>2018-09-16T08:30:15Z</time>
      </trkpt>
      <trkpt lat="43.66452" lon="3.86659">
        <ele>54.4</ele>
        <time>2018-09-16T08:30:16Z</time>
      </trkpt>
      <trkpt lat="43.66457" lon="3.8666">
        <ele>54.4</ele>
        <time>2018-09-16T08:30:17Z</time>
      </trkpt>
      <trkpt lat="43.66465" lon="3.86663">
        <ele>54.6</ele>
        <time>2018-09-16T08:30:19Z</time>
      </trkpt>
      <trkpt lat="43.66466" lon="3.86663">
        <ele>54.6</ele>
        <time>2018-09-16T08:30:20Z</time>
      </trkpt>
      <trkpt lat="43.66475" lon="3.86666">
        <ele>54.9</ele>
        <time>2018-09-16T08:30:24Z</time>
      </trkpt>
      <trkpt lat="43.66477" lon="3.86666">
        <ele>54.9</ele>
        <time>2018-09-16T08:30:25Z</time>
      </trkpt>
      <trkpt lat="43.66485" lon="3.86665">
        <ele>54.8</ele>
        <time>2018-09-16T08:30:28Z</time>
      </trkpt>
      <trkpt lat="43.66488" lon="3.86664">
        <ele>54.7</ele>
        <time>2018-09-16T08:30:29Z</time>
      </trkpt>
      <trkpt lat="43.66495" lon="3.86662">
        <ele>54.5</ele>
        <time>2018-09-16T08:30:31Z</time>
      </trkpt>
      <trkpt lat="43.66498" lon="3.86661">
        <ele>54.4</ele>
        <time>2018-09-16T08:30:32Z</time>
      </trkpt>
      <trkpt lat="43.66505" lon="3.86659">
        <ele>54.2</ele>
        <time>2018-09-16T08:30:34Z</time>
      </trkpt>
      <trkpt lat="43.66508" lon="3.86658">
        <ele>54.1</ele>
        <time>2018-09-16T08:30:35Z</time>
      </trkpt>
      <trkpt lat="43.66514" lon="3.86655">
        <ele>53.7</ele>
        <time>2018-09-16T08:30:37Z</time>
      </trkpt>
      <trkpt lat="43.66518" lon="3.86653">
        <ele>53.5</ele>
        <time>2018-09-16T08:30:38Z</time>
      </trkpt>
      <trkpt lat="43.66528" lon="3.86649">
        <ele>53.1</ele>
        <time>2018-09-16T08:30:39Z</time>
      </trkpt>
      <trkpt lat="43.66536" lon="3.86647">
        <ele>52.6</ele>
        <time>2018-09-16T08:30:41Z</time>
      </trkpt>
      <trkpt lat="43.66544" lon="3.86646">
        <ele>52.2</ele>
        <time>2018-09-16T08:30:42Z</time>
      </trkpt>
      <trkpt lat="43.66549" lon="3.86644">
        <ele>51.8</ele>
        <time>2018-09-16T08:30:43Z</time>
      </trkpt>
      <trkpt lat="43.66555" lon="3.86644">
        <ele>51.6</ele>
        <time>2018-09-16T08:30:44Z</time>
      </trkpt>
      <trkpt lat="43.66562" lon="3.86642">
        <ele>51.1</ele>
        <time>2018-09-16T08:30:45Z</time>
      </trkpt>
      <trkpt lat="43.66568" lon="3.86639">
        <ele>50.6</ele>
        <time>2018-09-16T08:30:46Z</time>
      </trkpt>
      <trkpt lat="43.66575" lon="3.8664">
        <ele>50.4</ele>
        <time>2018-09-16T08:30:47Z</time>
      </trkpt>
      <trkpt lat="43.66582" lon="3.86642">
        <ele>50.3</ele>
        <time>2018-09-16T08:30:48Z</time>
      </trkpt>
      <trkpt lat="43.66589" lon="3.86642">
        <ele>50.2</ele>
        <time>2018-09-16T08:30:49Z</time>
      </trkpt>
      <trkpt lat="43.66594" lon="3.86641">
        <ele>50.1</ele>
        <time>2018-09-16T08:30:50Z</time>
      </trkpt>
      <trkpt lat="43.666" lon="3.86643">
        <ele>50.2</ele>
        <time>2018-09-16T08:30:51Z</time>
      </trkpt>
      <trkpt lat="43.66607" lon="3.86645">
        <ele>50.3</ele>
        <time>2018-09-16T08:30:52Z</time>
      </trkpt>
      <trkpt lat="43.66612" lon="3.86645">
        <ele>50.2</ele>
        <time>2018-09-16T08:30:53Z</time>
      </trkpt>
      <trkpt lat="43.66618" lon="3.86647">
        <ele>50.4</ele>
        <time>2018-09-16T08:30:54Z</time>
      </trkpt>
      <trkpt lat="43.66624" lon="3.86648">
        <ele>50.5</ele>
        <time>2018-09-16T08:30:55Z</time>
      </trkpt>
      <trkpt lat="43.6663" lon="3.86654">
        <ele>50.9</ele>
        <time>2018-09-16T08:30:56Z</time>
      </trkpt>
      <trkpt lat="43.66636" lon="3.86653">
        <ele>51</ele>
        <time>2018-09-16T08:30:58Z</time>
      </trkpt>
      <trkpt lat="43.66639" lon="3.86653">
        <ele>51</ele>
        <time>2018-09-16T08:30:59Z</time>
      </trkpt>
      <trkpt lat="43.66647" lon="3.86654">
        <ele>51</ele>
        <time>2018-09-16T08:31:15Z</time>
      </trkpt>
      <trkpt lat="43.66648" lon="3.86655">
        <ele>51</ele>
        <time>2018-09-16T08:31:16Z</time>
      </trkpt>
      <trkpt lat="43.66654" lon="3.86659">
        <ele>51.3</ele>
        <time>2018-09-16T08:31:22Z</time>
      </trkpt>
      <trkpt lat="43.66657" lon="3.8666">
        <ele>51.4</ele>
        <time>2018-09-16T08:31:23Z</time>
      </trkpt>
      <trkpt lat="43.66662" lon="3.86662">
        <ele>51.5</ele>
        <time>2018-09-16T08:31:25Z</time>
      </trkpt>
      <trkpt lat="43.66665" lon="3.86664">
        <ele>51.7</ele>
        <time>2018-09-16T08:31:26Z</time>
      </trkpt>
      <trkpt lat="43.66672" lon="3.86667">
        <ele>51.7</ele>
        <time>2018-09-16T08:31:29Z</time>
      </trkpt>
      <trkpt lat="43.66675" lon="3.86669">
        <ele>51.7</ele>
        <time>2018-09-16T08:31:30Z</time>
      </trkpt>
      <trkpt lat="43.66683" lon="3.86672">
        <ele>51.4</ele>
        <time>2018-09-16T08:31:34Z</time>
      </trkpt>
      <trkpt lat="43.66684" lon="3.86673">
        <ele>51.4</ele>
        <time>2018-09-16T08:31:35Z</time>
      </trkpt>
      <trkpt lat="43.6669" lon="3.86678">
        <ele>51.5</ele>
        <time>2018-09-16T08:31:38Z</time>
      </trkpt>
      <trkpt lat="43.66693" lon="3.86681">
        <ele>51.7</ele>
        <time>2018-09-16T08:31:39Z</time>
      </trkpt>
      <trkpt lat="43.66698" lon="3.86687">
        <ele>51.9</ele>
        <time>2018-09-16T08:31:41Z</time>
      </trkpt>
      <trkpt lat="43.66701" lon="3.86689">
        <ele>51.9</ele>
        <time>2018-09-16T08:31:42Z</time>
      </trkpt>
      <trkpt lat="43.66704" lon="3.86691">
        <ele>51.9</ele>
        <time>2018-09-16T08:31:43Z</time>
      </trkpt>
      <trkpt lat="43.66714" lon="3.86697">
        <ele>51.9</ele>
        <time>2018-09-16T08:31:44Z</time>
      </trkpt>
      <trkpt lat="43.66721" lon="3.86706">
        <ele>52.4</ele>
        <time>2018-09-16T08:31:48Z</time>
      </trkpt>
      <trkpt lat="43.66722" lon="3.86708">
        <ele>52.5</ele>
        <time>2018-09-16T08:31:49Z</time>
      </trkpt>
      <trkpt lat="43.66726" lon="3.86714">
        <ele>52.7</ele>
        <time>2018-09-16T08:31:51Z</time>
      </trkpt>
      <trkpt lat="43.66728" lon="3.86718">
        <ele>53</ele>
        <time>2018-09-16T08:31:52Z</time>
      </trkpt>
      <trkpt lat="43.6673" lon="3.86721">
        <ele>53</ele>
        <time>2018-09-16T08:31:53Z</time>
      </trkpt>
      <trkpt lat="43.66737" lon="3.86733">
        <ele>53.4</ele>
        <time>2018-09-16T08:31:54Z</time>
      </trkpt>
      <trkpt lat="43.66744" lon="3.86741">
        <ele>53.1</ele>
        <time>2018-09-16T08:31:56Z</time>
      </trkpt>
      <trkpt lat="43.66745" lon="3.86742">
        <ele>53.1</ele>
        <time>2018-09-16T08:31:57Z</time>
      </trkpt>
      <trkpt lat="43.66747" lon="3.86745">
        <ele>53.1</ele>
        <time>2018-09-16T08:31:58Z</time>
      </trkpt>
      <trkpt lat="43.66753" lon="3.86752">
        <ele>52.9</ele>
        <time>2018-09-16T08:31:59Z</time>
      </trkpt>
      <trkpt lat="43.66757" lon="3.86763">
        <ele>53.5</ele>
        <time>2018-09-16T08:32:01Z</time>
      </trkpt>
      <trkpt lat="43.6676" lon="3.86765">
        <ele>53.3</ele>
        <time>2018-09-16T08:32:02Z</time>
      </trkpt>
      <trkpt lat="43.66766" lon="3.86773">
        <ele>53.3</ele>
        <time>2018-09-16T08:32:04Z</time>
      </trkpt>
      <trkpt lat="43.66769" lon="3.86777">
        <ele>53.2</ele>
        <time>2018-09-16T08:32:05Z</time>
      </trkpt>
      <trkpt lat="43.66776" lon="3.86784">
        <ele>52.7</ele>
        <time>2018-09-16T08:32:08Z</time>
      </trkpt>
      <trkpt lat="43.66777" lon="3.86786">
        <ele>52.7</ele>
        <time>2018-09-16T08:32:09Z</time>
      </trkpt>
      <trkpt lat="43.66779" lon="3.86795">
        <ele>53.2</ele>
        <time>2018-09-16T08:32:12Z</time>
      </trkpt>
      <trkpt lat="43.66781" lon="3.86797">
        <ele>53.2</ele>
        <time>2018-09-16T08:32:13Z</time>
      </trkpt>
      <trkpt lat="43.66788" lon="3.86803">
        <ele>53.1</ele>
        <time>2018-09-16T08:32:16Z</time>
      </trkpt>
      <trkpt lat="43.6679" lon="3.86805">
        <ele>53.1</ele>
        <time>2018-09-16T08:32:17Z</time>
      </trkpt>
      <trkpt lat="43.66792" lon="3.86808">
        <ele>53.2</ele>
        <time>2018-09-16T08:32:18Z</time>
      </trkpt>
      <trkpt lat="43.668" lon="3.86814">
        <ele>53.1</ele>
        <time>2018-09-16T08:32:19Z</time>
      </trkpt>
      <trkpt lat="43.66805" lon="3.86823">
        <ele>53.3</ele>
        <time>2018-09-16T08:32:22Z</time>
      </trkpt>
      <trkpt lat="43.66809" lon="3.86827">
        <ele>53.5</ele>
        <time>2018-09-16T08:32:23Z</time>
      </trkpt>
      <trkpt lat="43.66817" lon="3.86832">
        <ele>53.9</ele>
        <time>2018-09-16T08:32:27Z</time>
      </trkpt>
      <trkpt lat="43.66819" lon="3.86834">
        <ele>54.1</ele>
        <time>2018-09-16T08:32:28Z</time>
      </trkpt>
      <trkpt lat="43.66825" lon="3.86837">
        <ele>54.4</ele>
        <time>2018-09-16T08:32:30Z</time>
      </trkpt>
      <trkpt lat="43.66828" lon="3.86839">
        <ele>54.6</ele>
        <time>2018-09-16T08:32:31Z</time>
      </trkpt>
      <trkpt lat="43.66834" lon="3.86843">
        <ele>55</ele>
        <time>2018-09-16T08:32:33Z</time>
      </trkpt>
      <trkpt lat="43.66837" lon="3.86844">
        <ele>55.2</ele>
        <time>2018-09-16T08:32:34Z</time>
      </trkpt>
      <trkpt lat="43.66845" lon="3.86847">
        <ele>55.5</ele>
        <time>2018-09-16T08:32:37Z</time>
      </trkpt>
      <trkpt lat="43.66849" lon="3.86848">
        <ele>55.6</ele>
        <time>2018-09-16T08:32:38Z</time>
      </trkpt>
      <trkpt lat="43.66856" lon="3.86851">
        <ele>55.9</ele>
        <time>2018-09-16T08:32:40Z</time>
      </trkpt>
      <trkpt lat="43.66859" lon="3.86852">
        <ele>56</ele>
        <time>2018-09-16T08:32:41Z</time>
      </trkpt>
      <trkpt lat="43.66866" lon="3.86854">
        <ele>56.1</ele>
        <time>2018-09-16T08:32:43Z</time>
      </trkpt>
      <trkpt lat="43.66869" lon="3.86855">
        <ele>56.1</ele>
        <time>2018-09-16T08:32:44Z</time>
      </trkpt>
      <trkpt lat="43.66876" lon="3.86856">
        <ele>56</ele>
        <time>2018-09-16T08:32:46Z</time>
      </trkpt>
      <trkpt lat="43.66888" lon="3.86858">
        <ele>55.8</ele>
        <time>2018-09-16T08:32:47Z</time>
      </trkpt>
      <trkpt lat="43.66896" lon="3.86862">
        <ele>56.2</ele>
        <time>2018-09-16T08:32:50Z</time>
      </trkpt>
      <trkpt lat="43.66898" lon="3.86862">
        <ele>56.1</ele>
        <time>2018-09-16T08:32:51Z</time>
      </trkpt>
      <trkpt lat="43.66901" lon="3.86862">
        <ele>56.1</ele>
        <time>2018-09-16T08:32:52Z</time>
      </trkpt>
      <trkpt lat="43.66912" lon="3.86861">
        <ele>56</ele>
        <time>2018-09-16T08:32:53Z</time>
      </trkpt>
      <trkpt lat="43.6692" lon="3.86859">
        <ele>55.8</ele>
        <time>2018-09-16T08:32:57Z</time>
      </trkpt>
      <trkpt lat="43.66922" lon="3.86859">
        <ele>55.8</ele>
        <time>2018-09-16T08:32:58Z</time>
      </trkpt>
      <trkpt lat="43.66929" lon="3.8686">
        <ele>55.9</ele>
        <time>2018-09-16T08:33:02Z</time>
      </trkpt>
      <trkpt lat="43.66931" lon="3.8686">
        <ele>55.9</ele>
        <time>2018-09-16T08:33:03Z</time>
      </trkpt>
      <trkpt lat="43.66938" lon="3.86861">
        <ele>56</ele>
        <time>2018-09-16T08:33:07Z</time>
      </trkpt>
      <trkpt lat="43.6694" lon="3.86861">
        <ele>56</ele>
        <time>2018-09-16T08:33:08Z</time>
      </trkpt>
      <trkpt lat="43.66947" lon="3.86861">
        <ele>56</ele>
        <time>2018-09-16T08:33:11Z</time>
      </trkpt>
      <trkpt lat="43.6695" lon="3.86861">
        <ele>56</ele>
        <time>2018-09-16T08:33:12Z</time>
      </trkpt>
      <trkpt lat="43.66958" lon="3.8686">
        <ele>55.9</ele>
        <time>2018-09-16T08:33:15Z</time>
      </trkpt>
      <trkpt lat="43.66961" lon="3.86859">
        <ele>55.8</ele>
        <time>2018-09-16T08:33:16Z</time>
      </trkpt>
      <trkpt lat="43.66969" lon="3.86856">
        <ele>55.4</ele>
        <time>2018-09-16T08:33:21Z</time>
      </trkpt>
      <trkpt lat="43.6697" lon="3.86855">
        <ele>55.3</ele>
        <time>2018-09-16T08:33:22Z</time>
      </trkpt>
      <trkpt lat="43.66978" lon="3.86857">
        <ele>55.7</ele>
        <time>2018-09-16T08:33:31Z</time>
      </trkpt>
      <trkpt lat="43.6698" lon="3.86857">
        <ele>55.8</ele>
        <time>2018-09-16T08:33:32Z</time>
      </trkpt>
      <trkpt lat="43.66986" lon="3.86853">
        <ele>55.5</ele>
        <time>2018-09-16T08:33:35Z</time>
      </trkpt>
      <trkpt lat="43.66989" lon="3.86852">
        <ele>55.4</ele>
        <time>2018-09-16T08:33:36Z</time>
      </trkpt>
      <trkpt lat="43.66997" lon="3.8685">
        <ele>55.3</ele>
        <time>2018-09-16T08:33:38Z</time>
      </trkpt>
      <trkpt lat="43.67001" lon="3.86849">
        <ele>55.3</ele>
        <time>2018-09-16T08:33:39Z</time>
      </trkpt>
      <trkpt lat="43.67007" lon="3.86847">
        <ele>55.2</ele>
        <time>2018-09-16T08:33:42Z</time>
      </trkpt>
      <trkpt lat="43.6701" lon="3.86846">
        <ele>55.2</ele>
        <time>2018-09-16T08:33:43Z</time>
      </trkpt>
      <trkpt lat="43.67018" lon="3.86846">
        <ele>55.5</ele>
        <time>2018-09-16T08:33:46Z</time>
      </trkpt>
      <trkpt lat="43.6702" lon="3.86846">
        <ele>55.5</ele>
        <time>2018-09-16T08:33:47Z</time>
      </trkpt>
      <trkpt lat="43.67027" lon="3.86846">
        <ele>55.8</ele>
        <time>2018-09-16T08:33:50Z</time>
      </trkpt>
      <trkpt lat="43.6703" lon="3.86846">
        <ele>55.9</ele>
        <time>2018-09-16T08:33:51Z</time>
      </trkpt>
      <trkpt lat="43.67036" lon="3.86844">
        <ele>55.9</ele>
        <time>2018-09-16T08:33:53Z</time>
      </trkpt>
      <trkpt lat="43.67039" lon="3.86843">
        <ele>55.9</ele>
        <time>2018-09-16T08:33:54Z</time>
      </trkpt>
      <trkpt lat="43.67049" lon="3.86836">
        <ele>55.2</ele>
        <time>2018-09-16T08:33:55Z</time>
      </trkpt>
      <trkpt lat="43.67057" lon="3.86835">
        <ele>55.4</ele>
        <time>2018-09-16T08:33:58Z</time>
      </trkpt>
      <trkpt lat="43.67059" lon="3.86834">
        <ele>55.2</ele>
        <time>2018-09-16T08:33:59Z</time>
      </trkpt>
      <trkpt lat="43.67064" lon="3.86832">
        <ele>55.2</ele>
        <time>2018-09-16T08:34:01Z</time>
      </trkpt>
      <trkpt lat="43.67076" lon="3.86825">
        <ele>54.8</ele>
        <time>2018-09-16T08:34:02Z</time>
      </trkpt>
      <trkpt lat="43.67083" lon="3.86823">
        <ele>54.9</ele>
        <time>2018-09-16T08:34:05Z</time>
      </trkpt>
      <trkpt lat="43.67086" lon="3.86824">
        <ele>55.2</ele>
        <time>2018-09-16T08:34:06Z</time>
      </trkpt>
      <trkpt lat="43.67094" lon="3.86826">
        <ele>55.9</ele>
        <time>2018-09-16T08:34:09Z</time>
      </trkpt>
      <trkpt lat="43.67096" lon="3.86826">
        <ele>56</ele>
        <time>2018-09-16T08:34:10Z</time>
      </trkpt>
      <trkpt lat="43.67104" lon="3.86826">
        <ele>56.5</ele>
        <time>2018-09-16T08:34:13Z</time>
      </trkpt>
      <trkpt lat="43.67106" lon="3.86825">
        <ele>56.5</ele>
        <time>2018-09-16T08:34:14Z</time>
      </trkpt>
      <trkpt lat="43.67114" lon="3.86824">
        <ele>56.8</ele>
        <time>2018-09-16T08:34:18Z</time>
      </trkpt>
      <trkpt lat="43.67116" lon="3.86823">
        <ele>56.7</ele>
        <time>2018-09-16T08:34:19Z</time>
      </trkpt>
      <trkpt lat="43.67122" lon="3.86819">
        <ele>56.3</ele>
        <time>2018-09-16T08:34:22Z</time>
      </trkpt>
      <trkpt lat="43.67125" lon="3.86818">
        <ele>56.3</ele>
        <time>2018-09-16T08:34:23Z</time>
      </trkpt>
      <trkpt lat="43.67133" lon="3.86816">
        <ele>56.3</ele>
        <time>2018-09-16T08:34:27Z</time>
      </trkpt>
      <trkpt lat="43.67135" lon="3.86816">
        <ele>56.4</ele>
        <time>2018-09-16T08:34:28Z</time>
      </trkpt>
      <trkpt lat="43.67143" lon="3.86818">
        <ele>56.7</ele>
        <time>2018-09-16T08:34:33Z</time>
      </trkpt>
      <trkpt lat="43.67145" lon="3.86819">
        <ele>56.8</ele>
        <time>2018-09-16T08:34:34Z</time>
      </trkpt>
      <trkpt lat="43.67152" lon="3.86826">
        <ele>57.6</ele>
        <time>2018-09-16T08:34:39Z</time>
      </trkpt>
      <trkpt lat="43.67153" lon="3.86827">
        <ele>57.7</ele>
        <time>2018-09-16T08:34:40Z</time>
      </trkpt>
      <trkpt lat="43.6716" lon="3.86834">
        <ele>58.3</ele>
        <time>2018-09-16T08:34:46Z</time>
      </trkpt>
      <trkpt lat="43.67161" lon="3.86835">
        <ele>58.4</ele>
        <time>2018-09-16T08:34:47Z</time>
      </trkpt>
      <trkpt lat="43.67165" lon="3.86846">
        <ele>59.5</ele>
        <time>2018-09-16T08:34:54Z</time>
      </trkpt>
      <trkpt lat="43.67168" lon="3.86856">
        <ele>60.5</ele>
        <time>2018-09-16T08:35:02Z</time>
      </trkpt>
      <trkpt lat="43.67169" lon="3.86856">
        <ele>60.6</ele>
        <time>2018-09-16T08:35:03Z</time>
      </trkpt>
      <trkpt lat="43.67176" lon="3.86848">
        <ele>60.1</ele>
        <time>2018-09-16T08:35:19Z</time>
      </trkpt>
      <trkpt lat="43.67176" lon="3.86847">
        <ele>60</ele>
        <time>2018-09-16T08:35:20Z</time>
      </trkpt>
      <trkpt lat="43.67184" lon="3.86843">
        <ele>59.9</ele>
        <time>2018-09-16T08:35:26Z</time>
      </trkpt>
      <trkpt lat="43.67186" lon="3.86842">
        <ele>59.8</ele>
        <time>2018-09-16T08:35:27Z</time>
      </trkpt>
      <trkpt lat="43.67191" lon="3.86834">
        <ele>59</ele>
        <time>2018-09-16T08:35:33Z</time>
      </trkpt>
      <trkpt lat="43.67193" lon="3.86833">
        <ele>58.9</ele>
        <time>2018-09-16T08:35:34Z</time>
      </trkpt>
      <trkpt lat="43.67199" lon="3.86829">
        <ele>59</ele>
        <time>2018-09-16T08:35:38Z</time>
      </trkpt>
      <trkpt lat="43.672" lon="3.86828">
        <ele>58.9</ele>
        <time>2018-09-16T08:35:39Z</time>
      </trkpt>
      <trkpt lat="43.67209" lon="3.86825">
        <ele>59.4</ele>
        <time>2018-09-16T08:35:47Z</time>
      </trkpt>
      <trkpt lat="43.6721" lon="3.86825">
        <ele>59.4</ele>
        <time>2018-09-16T08:35:48Z</time>
      </trkpt>
      <trkpt lat="43.67216" lon="3.86823">
        <ele>59.6</ele>
        <time>2018-09-16T08:35:52Z</time>
      </trkpt>
      <trkpt lat="43.67219" lon="3.86823">
        <ele>59.9</ele>
        <time>2018-09-16T08:35:53Z</time>
      </trkpt>
      <trkpt lat="43.67225" lon="3.86821">
        <ele>59.9</ele>
        <time>2018-09-16T08:35:55Z</time>
      </trkpt>
      <trkpt lat="43.67228" lon="3.86821">
        <ele>60</ele>
        <time>2018-09-16T08:35:56Z</time>
      </trkpt>
      <trkpt lat="43.67236" lon="3.86821">
        <ele>60.3</ele>
        <time>2018-09-16T08:35:59Z</time>
      </trkpt>
      <trkpt lat="43.67239" lon="3.86821">
        <ele>60.4</ele>
        <time>2018-09-16T08:36:00Z</time>
      </trkpt>
      <trkpt lat="43.67246" lon="3.8682">
        <ele>60.5</ele>
        <time>2018-09-16T08:36:05Z</time>
      </trkpt>
      <trkpt lat="43.67248" lon="3.8682">
        <ele>60.5</ele>
        <time>2018-09-16T08:36:06Z</time>
      </trkpt>
      <trkpt lat="43.67256" lon="3.86821">
        <ele>61.2</ele>
        <time>2018-09-16T08:36:10Z</time>
      </trkpt>
      <trkpt lat="43.67257" lon="3.86821">
        <ele>61.3</ele>
        <time>2018-09-16T08:36:11Z</time>
      </trkpt>
      <trkpt lat="43.67266" lon="3.86821">
        <ele>61.9</ele>
        <time>2018-09-16T08:36:17Z</time>
      </trkpt>
      <trkpt lat="43.67267" lon="3.86822">
        <ele>62.1</ele>
        <time>2018-09-16T08:36:18Z</time>
      </trkpt>
      <trkpt lat="43.67274" lon="3.8683">
        <ele>63.5</ele>
        <time>2018-09-16T08:36:28Z</time>
      </trkpt>
      <trkpt lat="43.67275" lon="3.8683">
        <ele>63.5</ele>
        <time>2018-09-16T08:36:29Z</time>
      </trkpt>
      <trkpt lat="43.67283" lon="3.86831">
        <ele>63.9</ele>
        <time>2018-09-16T08:36:39Z</time>
      </trkpt>
      <trkpt lat="43.67284" lon="3.86831">
        <ele>64</ele>
        <time>2018-09-16T08:36:40Z</time>
      </trkpt>
      <trkpt lat="43.67291" lon="3.86837">
        <ele>64.9</ele>
        <time>2018-09-16T08:36:47Z</time>
      </trkpt>
      <trkpt lat="43.67292" lon="3.86838">
        <ele>65</ele>
        <time>2018-09-16T08:36:48Z</time>
      </trkpt>
      <trkpt lat="43.67299" lon="3.86843">
        <ele>65.6</ele>
        <time>2018-09-16T08:36:53Z</time>
      </trkpt>
      <trkpt lat="43.673" lon="3.86843">
        <ele>65.6</ele>
        <time>2018-09-16T08:36:54Z</time>
      </trkpt>
      <trkpt lat="43.67308" lon="3.86842">
        <ele>65.5</ele>
        <time>2018-09-16T08:37:00Z</time>
      </trkpt>
      <trkpt lat="43.67311" lon="3.8684">
        <ele>65.2</ele>
        <time>2018-09-16T08:37:01Z</time>
      </trkpt>
      <trkpt lat="43.67317" lon="3.86836">
        <ele>64.7</ele>
        <time>2018-09-16T08:37:04Z</time>
      </trkpt>
      <trkpt lat="43.67319" lon="3.86835">
        <ele>64.6</ele>
        <time>2018-09-16T08:37:05Z</time>
      </trkpt>
      <trkpt lat="43.67323" lon="3.86831">
        <ele>64.1</ele>
        <time>2018-09-16T08:37:19Z</time>
      </trkpt>
      <trkpt lat="43.67326" lon="3.86816">
        <ele>62.4</ele>
        <time>2018-09-16T08:37:20Z</time>
      </trkpt>
      <trkpt lat="43.67328" lon="3.86809">
        <ele>61.6</ele>
        <time>2018-09-16T08:37:21Z</time>
      </trkpt>
      <trkpt lat="43.67332" lon="3.86804">
        <ele>60.9</ele>
        <time>2018-09-16T08:37:22Z</time>
      </trkpt>
      <trkpt lat="43.67335" lon="3.86794">
        <ele>60.1</ele>
        <time>2018-09-16T08:37:24Z</time>
      </trkpt>
      <trkpt lat="43.67336" lon="3.86789">
        <ele>59.7</ele>
        <time>2018-09-16T08:37:25Z</time>
      </trkpt>
      <trkpt lat="43.67339" lon="3.8678">
        <ele>59</ele>
        <time>2018-09-16T08:37:28Z</time>
      </trkpt>
      <trkpt lat="43.6734" lon="3.86777">
        <ele>58.7</ele>
        <time>2018-09-16T08:37:29Z</time>
      </trkpt>
      <trkpt lat="43.67344" lon="3.8677">
        <ele>57.9</ele>
        <time>2018-09-16T08:37:31Z</time>
      </trkpt>
      <trkpt lat="43.67347" lon="3.86766">
        <ele>57.4</ele>
        <time>2018-09-16T08:37:32Z</time>
      </trkpt>
      <trkpt lat="43.67351" lon="3.86758">
        <ele>56.7</ele>
        <time>2018-09-16T08:37:34Z</time>
      </trkpt>
      <trkpt lat="43.67353" lon="3.86755">
        <ele>56.4</ele>
        <time>2018-09-16T08:37:35Z</time>
      </trkpt>
      <trkpt lat="43.67353" lon="3.86744">
        <ele>55.8</ele>
        <time>2018-09-16T08:37:38Z</time>
      </trkpt>
      <trkpt lat="43.67345" lon="3.86734">
        <ele>55.4</ele>
        <time>2018-09-16T08:37:39Z</time>
      </trkpt>
      <trkpt lat="43.67338" lon="3.86731">
        <ele>55.3</ele>
        <time>2018-09-16T08:37:41Z</time>
      </trkpt>
      <trkpt lat="43.67335" lon="3.86723">
        <ele>55</ele>
        <time>2018-09-16T08:37:42Z</time>
      </trkpt>
      <trkpt lat="43.67334" lon="3.86717">
        <ele>55</ele>
        <time>2018-09-16T08:37:43Z</time>
      </trkpt>
      <trkpt lat="43.67332" lon="3.86709">
        <ele>54.8</ele>
        <time>2018-09-16T08:37:44Z</time>
      </trkpt>
      <trkpt lat="43.67332" lon="3.86702">
        <ele>54.8</ele>
        <time>2018-09-16T08:37:45Z</time>
      </trkpt>
      <trkpt lat="43.67331" lon="3.86696">
        <ele>54.7</ele>
        <time>2018-09-16T08:37:46Z</time>
      </trkpt>
      <trkpt lat="43.67329" lon="3.86688">
        <ele>52</ele>
        <time>2018-09-16T08:37:47Z</time>
      </trkpt>
      <trkpt lat="43.67327" lon="3.8668">
        <ele>48.8</ele>
        <time>2018-09-16T08:37:48Z</time>
      </trkpt>
      <trkpt lat="43.67326" lon="3.86669">
        <ele>44.8</ele>
        <time>2018-09-16T08:37:50Z</time>
      </trkpt>
      <trkpt lat="43.67324" lon="3.86662">
        <ele>44.5</ele>
        <time>2018-09-16T08:37:51Z</time>
      </trkpt>
      <trkpt lat="43.67323" lon="3.86655">
        <ele>45.2</ele>
        <time>2018-09-16T08:37:52Z</time>
      </trkpt>
      <trkpt lat="43.67321" lon="3.86648">
        <ele>46.2</ele>
        <time>2018-09-16T08:37:53Z</time>
      </trkpt>
      <trkpt lat="43.67319" lon="3.86641">
        <ele>47.3</ele>
        <time>2018-09-16T08:37:54Z</time>
      </trkpt>
      <trkpt lat="43.67316" lon="3.86631">
        <ele>49</ele>
        <time>2018-09-16T08:37:55Z</time>
      </trkpt>
      <trkpt lat="43.67316" lon="3.86623">
        <ele>49.9</ele>
        <time>2018-09-16T08:37:56Z</time>
      </trkpt>
      <trkpt lat="43.67312" lon="3.8661">
        <ele>51.5</ele>
        <time>2018-09-16T08:37:57Z</time>
      </trkpt>
      <trkpt lat="43.67311" lon="3.866">
        <ele>51.7</ele>
        <time>2018-09-16T08:37:58Z</time>
      </trkpt>
      <trkpt lat="43.67309" lon="3.86591">
        <ele>51.8</ele>
        <time>2018-09-16T08:37:59Z</time>
      </trkpt>
      <trkpt lat="43.67306" lon="3.8658">
        <ele>51.9</ele>
        <time>2018-09-16T08:38:00Z</time>
      </trkpt>
      <trkpt lat="43.67303" lon="3.86568">
        <ele>51.3</ele>
        <time>2018-09-16T08:38:01Z</time>
      </trkpt>
      <trkpt lat="43.67302" lon="3.86558">
        <ele>50.9</ele>
        <time>2018-09-16T08:38:02Z</time>
      </trkpt>
      <trkpt lat="43.67299" lon="3.86547">
        <ele>50.8</ele>
        <time>2018-09-16T08:38:03Z</time>
      </trkpt>
      <trkpt lat="43.67297" lon="3.86537">
        <ele>50.7</ele>
        <time>2018-09-16T08:38:04Z</time>
      </trkpt>
      <trkpt lat="43.67295" lon="3.86527">
        <ele>50.6</ele>
        <time>2018-09-16T08:38:05Z</time>
      </trkpt>
      <trkpt lat="43.67294" lon="3.8652">
        <ele>50.7</ele>
        <time>2018-09-16T08:38:06Z</time>
      </trkpt>
      <trkpt lat="43.67293" lon="3.86514">
        <ele>50.8</ele>
        <time>2018-09-16T08:38:07Z</time>
      </trkpt>
      <trkpt lat="43.673" lon="3.86518">
        <ele>50.9</ele>
        <time>2018-09-16T08:38:11Z</time>
      </trkpt>
      <trkpt lat="43.67302" lon="3.86524">
        <ele>50.9</ele>
        <time>2018-09-16T08:38:12Z</time>
      </trkpt>
      <trkpt lat="43.67304" lon="3.86531">
        <ele>50.9</ele>
        <time>2018-09-16T08:38:13Z</time>
      </trkpt>
      <trkpt lat="43.67304" lon="3.86537">
        <ele>50.9</ele>
        <time>2018-09-16T08:38:14Z</time>
      </trkpt>
      <trkpt lat="43.67305" lon="3.86545">
        <ele>51</ele>
        <time>2018-09-16T08:38:15Z</time>
      </trkpt>
      <trkpt lat="43.67307" lon="3.86553">
        <ele>51</ele>
        <time>2018-09-16T08:38:16Z</time>
      </trkpt>
      <trkpt lat="43.67309" lon="3.86562">
        <ele>51.2</ele>
        <time>2018-09-16T08:38:17Z</time>
      </trkpt>
      <trkpt lat="43.6731" lon="3.86569">
        <ele>51.4</ele>
        <time>2018-09-16T08:38:18Z</time>
      </trkpt>
      <trkpt lat="43.67312" lon="3.86575">
        <ele>51.5</ele>
        <time>2018-09-16T08:38:19Z</time>
      </trkpt>
      <trkpt lat="43.67313" lon="3.86581">
        <ele>51.7</ele>
        <time>2018-09-16T08:38:20Z</time>
      </trkpt>
      <trkpt lat="43.67315" lon="3.86587">
        <ele>51.6</ele>
        <time>2018-09-16T08:38:21Z</time>
      </trkpt>
      <trkpt lat="43.67316" lon="3.86595">
        <ele>51.5</ele>
        <time>2018-09-16T08:38:22Z</time>
      </trkpt>
      <trkpt lat="43.67319" lon="3.86602">
        <ele>51.2</ele>
        <time>2018-09-16T08:38:23Z</time>
      </trkpt>
      <trkpt lat="43.67321" lon="3.86608">
        <ele>51</ele>
        <time>2018-09-16T08:38:24Z</time>
      </trkpt>
      <trkpt lat="43.67326" lon="3.86617">
        <ele>49.6</ele>
        <time>2018-09-16T08:38:26Z</time>
      </trkpt>
      <trkpt lat="43.67331" lon="3.86616">
        <ele>49.3</ele>
        <time>2018-09-16T08:38:27Z</time>
      </trkpt>
      <trkpt lat="43.67336" lon="3.86614">
        <ele>49.1</ele>
        <time>2018-09-16T08:38:28Z</time>
      </trkpt>
      <trkpt lat="43.67342" lon="3.86613">
        <ele>48.5</ele>
        <time>2018-09-16T08:38:29Z</time>
      </trkpt>
      <trkpt lat="43.67347" lon="3.86609">
        <ele>48.2</ele>
        <time>2018-09-16T08:38:30Z</time>
      </trkpt>
      <trkpt lat="43.6735" lon="3.86605">
        <ele>48.2</ele>
        <time>2018-09-16T08:38:31Z</time>
      </trkpt>
      <trkpt lat="43.67358" lon="3.86609">
        <ele>46.7</ele>
        <time>2018-09-16T08:38:58Z</time>
      </trkpt>
      <trkpt lat="43.67359" lon="3.86608">
        <ele>46.7</ele>
        <time>2018-09-16T08:38:59Z</time>
      </trkpt>
      <trkpt lat="43.67362" lon="3.86607">
        <ele>46.5</ele>
        <time>2018-09-16T08:39:00Z</time>
      </trkpt>
      <trkpt lat="43.67374" lon="3.86602">
        <ele>46.5</ele>
        <time>2018-09-16T08:39:01Z</time>
      </trkpt>
      <trkpt lat="43.67375" lon="3.86606">
        <ele>45.8</ele>
        <time>2018-09-16T08:39:02Z</time>
      </trkpt>
      <trkpt lat="43.67384" lon="3.86608">
        <ele>44.9</ele>
        <time>2018-09-16T08:39:03Z</time>
      </trkpt>
      <trkpt lat="43.67391" lon="3.86602">
        <ele>45.6</ele>
        <time>2018-09-16T08:39:11Z</time>
      </trkpt>
      <trkpt lat="43.67393" lon="3.86599">
        <ele>46</ele>
        <time>2018-09-16T08:39:12Z</time>
      </trkpt>
      <trkpt lat="43.67397" lon="3.86581">
        <ele>48.3</ele>
        <time>2018-09-16T08:39:13Z</time>
      </trkpt>
      <trkpt lat="43.67401" lon="3.86586">
        <ele>47.3</ele>
        <time>2018-09-16T08:39:14Z</time>
      </trkpt>
      <trkpt lat="43.67405" lon="3.86587">
        <ele>46.8</ele>
        <time>2018-09-16T08:39:15Z</time>
      </trkpt>
      <trkpt lat="43.67413" lon="3.86587">
        <ele>46.1</ele>
        <time>2018-09-16T08:39:20Z</time>
      </trkpt>
      <trkpt lat="43.67415" lon="3.86586">
        <ele>46</ele>
        <time>2018-09-16T08:39:21Z</time>
      </trkpt>
      <trkpt lat="43.67422" lon="3.86581">
        <ele>45.9</ele>
        <time>2018-09-16T08:39:25Z</time>
      </trkpt>
      <trkpt lat="43.67425" lon="3.8658">
        <ele>45.8</ele>
        <time>2018-09-16T08:39:26Z</time>
      </trkpt>
      <trkpt lat="43.67432" lon="3.86578">
        <ele>45.7</ele>
        <time>2018-09-16T08:39:29Z</time>
      </trkpt>
      <trkpt lat="43.67435" lon="3.86577">
        <ele>45.7</ele>
        <time>2018-09-16T08:39:30Z</time>
      </trkpt>
      <trkpt lat="43.67443" lon="3.86577">
        <ele>45.2</ele>
        <time>2018-09-16T08:39:34Z</time>
      </trkpt>
      <trkpt lat="43.67446" lon="3.86577">
        <ele>45.1</ele>
        <time>2018-09-16T08:39:35Z</time>
      </trkpt>
      <trkpt lat="43.67452" lon="3.86569">
        <ele>46</ele>
        <time>2018-09-16T08:39:42Z</time>
      </trkpt>
      <trkpt lat="43.67452" lon="3.86567">
        <ele>46.3</ele>
        <time>2018-09-16T08:39:43Z</time>
      </trkpt>
      <trkpt lat="43.67458" lon="3.86559">
        <ele>46.7</ele>
        <time>2018-09-16T08:39:48Z</time>
      </trkpt>
      <trkpt lat="43.6746" lon="3.86556">
        <ele>46.7</ele>
        <time>2018-09-16T08:39:49Z</time>
      </trkpt>
      <trkpt lat="43.67467" lon="3.86549">
        <ele>46.8</ele>
        <time>2018-09-16T08:39:52Z</time>
      </trkpt>
      <trkpt lat="43.6747" lon="3.86547">
        <ele>46.8</ele>
        <time>2018-09-16T08:39:53Z</time>
      </trkpt>
      <trkpt lat="43.67477" lon="3.8654">
        <ele>47.2</ele>
        <time>2018-09-16T08:39:56Z</time>
      </trkpt>
      <trkpt lat="43.6748" lon="3.86539">
        <ele>47</ele>
        <time>2018-09-16T08:39:57Z</time>
      </trkpt>
      <trkpt lat="43.67484" lon="3.86529">
        <ele>47.7</ele>
        <time>2018-09-16T08:40:01Z</time>
      </trkpt>
      <trkpt lat="43.67485" lon="3.86526">
        <ele>48</ele>
        <time>2018-09-16T08:40:02Z</time>
      </trkpt>
      <trkpt lat="43.6749" lon="3.86517">
        <ele>48.5</ele>
        <time>2018-09-16T08:40:06Z</time>
      </trkpt>
      <trkpt lat="43.67492" lon="3.86515">
        <ele>48.5</ele>
        <time>2018-09-16T08:40:07Z</time>
      </trkpt>
      <trkpt lat="43.67495" lon="3.86508">
        <ele>49.2</ele>
        <time>2018-09-16T08:40:09Z</time>
      </trkpt>
      <trkpt lat="43.67496" lon="3.86504">
        <ele>49.8</ele>
        <time>2018-09-16T08:40:10Z</time>
      </trkpt>
      <trkpt lat="43.675" lon="3.86496">
        <ele>50.3</ele>
        <time>2018-09-16T08:40:12Z</time>
      </trkpt>
      <trkpt lat="43.67502" lon="3.86492">
        <ele>50.1</ele>
        <time>2018-09-16T08:40:13Z</time>
      </trkpt>
      <trkpt lat="43.67505" lon="3.86484">
        <ele>49.9</ele>
        <time>2018-09-16T08:40:16Z</time>
      </trkpt>
      <trkpt lat="43.67506" lon="3.86481">
        <ele>49.8</ele>
        <time>2018-09-16T08:40:17Z</time>
      </trkpt>
      <trkpt lat="43.67507" lon="3.86471">
        <ele>50</ele>
        <time>2018-09-16T08:40:20Z</time>
      </trkpt>
      <trkpt lat="43.67508" lon="3.86468">
        <ele>49.8</ele>
        <time>2018-09-16T08:40:21Z</time>
      </trkpt>
      <trkpt lat="43.67509" lon="3.86461">
        <ele>49.8</ele>
        <time>2018-09-16T08:40:23Z</time>
      </trkpt>
      <trkpt lat="43.67518" lon="3.86444">
        <ele>47.8</ele>
        <time>2018-09-16T08:40:24Z</time>
      </trkpt>
      <trkpt lat="43.67523" lon="3.86435">
        <ele>47.2</ele>
        <time>2018-09-16T08:40:26Z</time>
      </trkpt>
      <trkpt lat="43.67524" lon="3.86432">
        <ele>47.2</ele>
        <time>2018-09-16T08:40:27Z</time>
      </trkpt>
      <trkpt lat="43.6753" lon="3.86426">
        <ele>46.9</ele>
        <time>2018-09-16T08:40:33Z</time>
      </trkpt>
      <trkpt lat="43.6753" lon="3.86423">
        <ele>47.2</ele>
        <time>2018-09-16T08:40:34Z</time>
      </trkpt>
      <trkpt lat="43.67533" lon="3.86411">
        <ele>47.7</ele>
        <time>2018-09-16T08:40:37Z</time>
      </trkpt>
      <trkpt lat="43.67534" lon="3.86408">
        <ele>47.7</ele>
        <time>2018-09-16T08:40:38Z</time>
      </trkpt>
      <trkpt lat="43.67536" lon="3.864">
        <ele>47.8</ele>
        <time>2018-09-16T08:40:40Z</time>
      </trkpt>
      <trkpt lat="43.67536" lon="3.86396">
        <ele>47.9</ele>
        <time>2018-09-16T08:40:41Z</time>
      </trkpt>
      <trkpt lat="43.67539" lon="3.86387">
        <ele>47.7</ele>
        <time>2018-09-16T08:40:43Z</time>
      </trkpt>
      <trkpt lat="43.67541" lon="3.86384">
        <ele>47.5</ele>
        <time>2018-09-16T08:40:44Z</time>
      </trkpt>
      <trkpt lat="43.67544" lon="3.86376">
        <ele>47.4</ele>
        <time>2018-09-16T08:40:46Z</time>
      </trkpt>
      <trkpt lat="43.67545" lon="3.86371">
        <ele>47.6</ele>
        <time>2018-09-16T08:40:47Z</time>
      </trkpt>
      <trkpt lat="43.67548" lon="3.86361">
        <ele>47.6</ele>
        <time>2018-09-16T08:40:50Z</time>
      </trkpt>
      <trkpt lat="43.6755" lon="3.86358">
        <ele>47.6</ele>
        <time>2018-09-16T08:40:51Z</time>
      </trkpt>
      <trkpt lat="43.67555" lon="3.86351">
        <ele>47.6</ele>
        <time>2018-09-16T08:40:54Z</time>
      </trkpt>
      <trkpt lat="43.67556" lon="3.86348">
        <ele>47.9</ele>
        <time>2018-09-16T08:40:55Z</time>
      </trkpt>
      <trkpt lat="43.67558" lon="3.86345">
        <ele>48.1</ele>
        <time>2018-09-16T08:40:56Z</time>
      </trkpt>
      <trkpt lat="43.67568" lon="3.8633">
        <ele>47.8</ele>
        <time>2018-09-16T08:40:57Z</time>
      </trkpt>
      <trkpt lat="43.67572" lon="3.86324">
        <ele>47.8</ele>
        <time>2018-09-16T08:40:58Z</time>
      </trkpt>
      <trkpt lat="43.67577" lon="3.86321">
        <ele>47.1</ele>
        <time>2018-09-16T08:40:59Z</time>
      </trkpt>
      <trkpt lat="43.67585" lon="3.86316">
        <ele>46.5</ele>
        <time>2018-09-16T08:41:01Z</time>
      </trkpt>
      <trkpt lat="43.67586" lon="3.86311">
        <ele>47</ele>
        <time>2018-09-16T08:41:02Z</time>
      </trkpt>
      <trkpt lat="43.67592" lon="3.86303">
        <ele>47.2</ele>
        <time>2018-09-16T08:41:04Z</time>
      </trkpt>
      <trkpt lat="43.67597" lon="3.86298">
        <ele>47.5</ele>
        <time>2018-09-16T08:41:05Z</time>
      </trkpt>
      <trkpt lat="43.67605" lon="3.863">
        <ele>46</ele>
        <time>2018-09-16T08:41:10Z</time>
      </trkpt>
      <trkpt lat="43.67607" lon="3.86297">
        <ele>46.4</ele>
        <time>2018-09-16T08:41:11Z</time>
      </trkpt>
      <trkpt lat="43.67612" lon="3.86288">
        <ele>47.8</ele>
        <time>2018-09-16T08:41:14Z</time>
      </trkpt>
      <trkpt lat="43.67614" lon="3.86284">
        <ele>48.6</ele>
        <time>2018-09-16T08:41:15Z</time>
      </trkpt>
      <trkpt lat="43.67615" lon="3.86275">
        <ele>50.3</ele>
        <time>2018-09-16T08:41:17Z</time>
      </trkpt>
      <trkpt lat="43.67616" lon="3.86271">
        <ele>50.8</ele>
        <time>2018-09-16T08:41:18Z</time>
      </trkpt>
      <trkpt lat="43.67619" lon="3.86262">
        <ele>52</ele>
        <time>2018-09-16T08:41:21Z</time>
      </trkpt>
      <trkpt lat="43.67619" lon="3.86259">
        <ele>52.4</ele>
        <time>2018-09-16T08:41:22Z</time>
      </trkpt>
      <trkpt lat="43.67623" lon="3.86253">
        <ele>53.1</ele>
        <time>2018-09-16T08:41:24Z</time>
      </trkpt>
      <trkpt lat="43.67625" lon="3.86249">
        <ele>53.5</ele>
        <time>2018-09-16T08:41:25Z</time>
      </trkpt>
      <trkpt lat="43.6763" lon="3.86241">
        <ele>53.3</ele>
        <time>2018-09-16T08:41:28Z</time>
      </trkpt>
      <trkpt lat="43.67631" lon="3.86238">
        <ele>53.3</ele>
        <time>2018-09-16T08:41:29Z</time>
      </trkpt>
      <trkpt lat="43.67636" lon="3.86229">
        <ele>53.1</ele>
        <time>2018-09-16T08:41:32Z</time>
      </trkpt>
      <trkpt lat="43.67637" lon="3.86226">
        <ele>53.1</ele>
        <time>2018-09-16T08:41:33Z</time>
      </trkpt>
      <trkpt lat="43.67639" lon="3.86215">
        <ele>53.3</ele>
        <time>2018-09-16T08:41:36Z</time>
      </trkpt>
      <trkpt lat="43.67639" lon="3.86213">
        <ele>53.3</ele>
        <time>2018-09-16T08:41:37Z</time>
      </trkpt>
      <trkpt lat="43.67637" lon="3.86202">
        <ele>53.8</ele>
        <time>2018-09-16T08:41:41Z</time>
      </trkpt>
      <trkpt lat="43.67637" lon="3.86201">
        <ele>53.8</ele>
        <time>2018-09-16T08:41:42Z</time>
      </trkpt>
      <trkpt lat="43.67636" lon="3.86189">
        <ele>54.5</ele>
        <time>2018-09-16T08:41:47Z</time>
      </trkpt>
      <trkpt lat="43.67636" lon="3.86187">
        <ele>54.6</ele>
        <time>2018-09-16T08:41:48Z</time>
      </trkpt>
      <trkpt lat="43.67634" lon="3.86176">
        <ele>55.4</ele>
        <time>2018-09-16T08:41:52Z</time>
      </trkpt>
      <trkpt lat="43.67633" lon="3.86174">
        <ele>55.5</ele>
        <time>2018-09-16T08:41:53Z</time>
      </trkpt>
      <trkpt lat="43.67633" lon="3.86162">
        <ele>56.4</ele>
        <time>2018-09-16T08:41:59Z</time>
      </trkpt>
      <trkpt lat="43.67632" lon="3.8616">
        <ele>56.5</ele>
        <time>2018-09-16T08:42:00Z</time>
      </trkpt>
      <trkpt lat="43.67627" lon="3.86152">
        <ele>57.3</ele>
        <time>2018-09-16T08:42:04Z</time>
      </trkpt>
      <trkpt lat="43.67624" lon="3.86151">
        <ele>57.4</ele>
        <time>2018-09-16T08:42:05Z</time>
      </trkpt>
      <trkpt lat="43.67616" lon="3.86149">
        <ele>57.8</ele>
        <time>2018-09-16T08:42:08Z</time>
      </trkpt>
      <trkpt lat="43.67613" lon="3.86149">
        <ele>57.9</ele>
        <time>2018-09-16T08:42:09Z</time>
      </trkpt>
      <trkpt lat="43.67606" lon="3.86149">
        <ele>57.9</ele>
        <time>2018-09-16T08:42:11Z</time>
      </trkpt>
      <trkpt lat="43.67603" lon="3.8615">
        <ele>57.8</ele>
        <time>2018-09-16T08:42:12Z</time>
      </trkpt>
      <trkpt lat="43.67599" lon="3.8615">
        <ele>57.8</ele>
        <time>2018-09-16T08:42:13Z</time>
      </trkpt>
      <trkpt lat="43.67587" lon="3.86153">
        <ele>57.5</ele>
        <time>2018-09-16T08:42:14Z</time>
      </trkpt>
      <trkpt lat="43.6758" lon="3.86153">
        <ele>57.5</ele>
        <time>2018-09-16T08:42:16Z</time>
      </trkpt>
      <trkpt lat="43.67577" lon="3.86154">
        <ele>57.5</ele>
        <time>2018-09-16T08:42:17Z</time>
      </trkpt>
      <trkpt lat="43.6757" lon="3.86155">
        <ele>57.5</ele>
        <time>2018-09-16T08:42:19Z</time>
      </trkpt>
      <trkpt lat="43.67566" lon="3.86156">
        <ele>57.5</ele>
        <time>2018-09-16T08:42:20Z</time>
      </trkpt>
      <trkpt lat="43.67562" lon="3.86158">
        <ele>57.5</ele>
        <time>2018-09-16T08:42:21Z</time>
      </trkpt>
      <trkpt lat="43.67557" lon="3.86159">
        <ele>57.5</ele>
        <time>2018-09-16T08:42:22Z</time>
      </trkpt>
      <trkpt lat="43.67549" lon="3.86159">
        <ele>57.6</ele>
        <time>2018-09-16T08:42:24Z</time>
      </trkpt>
      <trkpt lat="43.67548" lon="3.86157">
        <ele>57.8</ele>
        <time>2018-09-16T08:42:25Z</time>
      </trkpt>
      <trkpt lat="43.67555" lon="3.8615">
        <ele>58.2</ele>
        <time>2018-09-16T08:42:32Z</time>
      </trkpt>
      <trkpt lat="43.67559" lon="3.8615">
        <ele>58.2</ele>
        <time>2018-09-16T08:42:33Z</time>
      </trkpt>
      <trkpt lat="43.6757" lon="3.8615">
        <ele>58</ele>
        <time>2018-09-16T08:42:34Z</time>
      </trkpt>
      <trkpt lat="43.67578" lon="3.86147">
        <ele>58.2</ele>
        <time>2018-09-16T08:42:36Z</time>
      </trkpt>
      <trkpt lat="43.67585" lon="3.86148">
        <ele>58</ele>
        <time>2018-09-16T08:42:37Z</time>
      </trkpt>
      <trkpt lat="43.67591" lon="3.86144">
        <ele>58.4</ele>
        <time>2018-09-16T08:42:39Z</time>
      </trkpt>
      <trkpt lat="43.67597" lon="3.86144">
        <ele>58.4</ele>
        <time>2018-09-16T08:42:40Z</time>
      </trkpt>
      <trkpt lat="43.67604" lon="3.86139">
        <ele>59</ele>
        <time>2018-09-16T08:42:42Z</time>
      </trkpt>
      <trkpt lat="43.6761" lon="3.8614">
        <ele>58.9</ele>
        <time>2018-09-16T08:42:43Z</time>
      </trkpt>
      <trkpt lat="43.67617" lon="3.8614">
        <ele>58.7</ele>
        <time>2018-09-16T08:42:44Z</time>
      </trkpt>
      <trkpt lat="43.67623" lon="3.8614">
        <ele>58.5</ele>
        <time>2018-09-16T08:42:45Z</time>
      </trkpt>
      <trkpt lat="43.67627" lon="3.86138">
        <ele>58.6</ele>
        <time>2018-09-16T08:42:46Z</time>
      </trkpt>
      <trkpt lat="43.67632" lon="3.86137">
        <ele>58.7</ele>
        <time>2018-09-16T08:42:47Z</time>
      </trkpt>
      <trkpt lat="43.67639" lon="3.86134">
        <ele>59.1</ele>
        <time>2018-09-16T08:42:49Z</time>
      </trkpt>
      <trkpt lat="43.67642" lon="3.86133">
        <ele>59.2</ele>
        <time>2018-09-16T08:42:50Z</time>
      </trkpt>
      <trkpt lat="43.67647" lon="3.86132">
        <ele>59.4</ele>
        <time>2018-09-16T08:42:51Z</time>
      </trkpt>
      <trkpt lat="43.67655" lon="3.86133">
        <ele>59.1</ele>
        <time>2018-09-16T08:42:52Z</time>
      </trkpt>
      <trkpt lat="43.67662" lon="3.86131">
        <ele>59.5</ele>
        <time>2018-09-16T08:42:55Z</time>
      </trkpt>
      <trkpt lat="43.67668" lon="3.8613">
        <ele>59.6</ele>
        <time>2018-09-16T08:42:56Z</time>
      </trkpt>
      <trkpt lat="43.67675" lon="3.8613">
        <ele>59.6</ele>
        <time>2018-09-16T08:42:58Z</time>
      </trkpt>
      <trkpt lat="43.67681" lon="3.8613">
        <ele>59.6</ele>
        <time>2018-09-16T08:42:59Z</time>
      </trkpt>
      <trkpt lat="43.67687" lon="3.8613">
        <ele>59.6</ele>
        <time>2018-09-16T08:43:02Z</time>
      </trkpt>
      <trkpt lat="43.67697" lon="3.86131">
        <ele>59.4</ele>
        <time>2018-09-16T08:43:03Z</time>
      </trkpt>
      <trkpt lat="43.67702" lon="3.86133">
        <ele>59.1</ele>
        <time>2018-09-16T08:43:04Z</time>
      </trkpt>
      <trkpt lat="43.67708" lon="3.86136">
        <ele>58.5</ele>
        <time>2018-09-16T08:43:05Z</time>
      </trkpt>
      <trkpt lat="43.67714" lon="3.86138">
        <ele>58.2</ele>
        <time>2018-09-16T08:43:06Z</time>
      </trkpt>
      <trkpt lat="43.67721" lon="3.86139">
        <ele>58</ele>
        <time>2018-09-16T08:43:07Z</time>
      </trkpt>
      <trkpt lat="43.67726" lon="3.86141">
        <ele>57.4</ele>
        <time>2018-09-16T08:43:08Z</time>
      </trkpt>
      <trkpt lat="43.6773" lon="3.86143">
        <ele>56.9</ele>
        <time>2018-09-16T08:43:09Z</time>
      </trkpt>
      <trkpt lat="43.67736" lon="3.86143">
        <ele>56.5</ele>
        <time>2018-09-16T08:43:10Z</time>
      </trkpt>
      <trkpt lat="43.67743" lon="3.86144">
        <ele>55.9</ele>
        <time>2018-09-16T08:43:11Z</time>
      </trkpt>
      <trkpt lat="43.67748" lon="3.86142">
        <ele>55.8</ele>
        <time>2018-09-16T08:43:12Z</time>
      </trkpt>
      <trkpt lat="43.67755" lon="3.86141">
        <ele>55.3</ele>
        <time>2018-09-16T08:43:13Z</time>
      </trkpt>
      <trkpt lat="43.67763" lon="3.86136">
        <ele>54.9</ele>
        <time>2018-09-16T08:43:14Z</time>
      </trkpt>
      <trkpt lat="43.67767" lon="3.86131">
        <ele>54.8</ele>
        <time>2018-09-16T08:43:15Z</time>
      </trkpt>
      <trkpt lat="43.67773" lon="3.86126">
        <ele>54.2</ele>
        <time>2018-09-16T08:43:16Z</time>
      </trkpt>
      <trkpt lat="43.67778" lon="3.86119">
        <ele>53.7</ele>
        <time>2018-09-16T08:43:17Z</time>
      </trkpt>
      <trkpt lat="43.67783" lon="3.86114">
        <ele>54.1</ele>
        <time>2018-09-16T08:43:18Z</time>
      </trkpt>
      <trkpt lat="43.67788" lon="3.86114">
        <ele>54.3</ele>
        <time>2018-09-16T08:43:19Z</time>
      </trkpt>
      <trkpt lat="43.67793" lon="3.86119">
        <ele>54.4</ele>
        <time>2018-09-16T08:43:20Z</time>
      </trkpt>
      <trkpt lat="43.67796" lon="3.86122">
        <ele>54.5</ele>
        <time>2018-09-16T08:43:21Z</time>
      </trkpt>
      <trkpt lat="43.678" lon="3.86133">
        <ele>54.6</ele>
        <time>2018-09-16T08:43:23Z</time>
      </trkpt>
      <trkpt lat="43.67803" lon="3.86136">
        <ele>54.8</ele>
        <time>2018-09-16T08:43:24Z</time>
      </trkpt>
      <trkpt lat="43.67809" lon="3.8614">
        <ele>55.2</ele>
        <time>2018-09-16T08:43:26Z</time>
      </trkpt>
      <trkpt lat="43.67813" lon="3.86141">
        <ele>55.3</ele>
        <time>2018-09-16T08:43:27Z</time>
      </trkpt>
      <trkpt lat="43.67818" lon="3.86135">
        <ele>55.4</ele>
        <time>2018-09-16T08:43:30Z</time>
      </trkpt>
      <trkpt lat="43.67819" lon="3.86132">
        <ele>55.5</ele>
        <time>2018-09-16T08:43:31Z</time>
      </trkpt>
      <trkpt lat="43.67822" lon="3.86125">
        <ele>55.6</ele>
        <time>2018-09-16T08:43:33Z</time>
      </trkpt>
      <trkpt lat="43.67827" lon="3.86113">
        <ele>55.8</ele>
        <time>2018-09-16T08:43:34Z</time>
      </trkpt>
      <trkpt lat="43.67828" lon="3.86102">
        <ele>55.8</ele>
        <time>2018-09-16T08:43:37Z</time>
      </trkpt>
      <trkpt lat="43.67829" lon="3.86092">
        <ele>55.8</ele>
        <time>2018-09-16T08:43:38Z</time>
      </trkpt>
      <trkpt lat="43.67832" lon="3.86082">
        <ele>55.9</ele>
        <time>2018-09-16T08:43:40Z</time>
      </trkpt>
      <trkpt lat="43.67833" lon="3.86077">
        <ele>55.8</ele>
        <time>2018-09-16T08:43:41Z</time>
      </trkpt>
      <trkpt lat="43.67835" lon="3.8607">
        <ele>55.5</ele>
        <time>2018-09-16T08:43:42Z</time>
      </trkpt>
      <trkpt lat="43.67837" lon="3.86063">
        <ele>55.4</ele>
        <time>2018-09-16T08:43:43Z</time>
      </trkpt>
      <trkpt lat="43.6784" lon="3.86058">
        <ele>55.3</ele>
        <time>2018-09-16T08:43:44Z</time>
      </trkpt>
      <trkpt lat="43.67844" lon="3.86053">
        <ele>55.4</ele>
        <time>2018-09-16T08:43:45Z</time>
      </trkpt>
      <trkpt lat="43.6785" lon="3.86051">
        <ele>55.7</ele>
        <time>2018-09-16T08:43:46Z</time>
      </trkpt>
      <trkpt lat="43.67856" lon="3.8605">
        <ele>55.9</ele>
        <time>2018-09-16T08:43:47Z</time>
      </trkpt>
      <trkpt lat="43.67861" lon="3.86049">
        <ele>56</ele>
        <time>2018-09-16T08:43:48Z</time>
      </trkpt>
      <trkpt lat="43.67866" lon="3.86049">
        <ele>55.9</ele>
        <time>2018-09-16T08:43:49Z</time>
      </trkpt>
      <trkpt lat="43.67871" lon="3.86049">
        <ele>55.7</ele>
        <time>2018-09-16T08:43:50Z</time>
      </trkpt>
      <trkpt lat="43.67877" lon="3.8605">
        <ele>55.5</ele>
        <time>2018-09-16T08:43:51Z</time>
      </trkpt>
      <trkpt lat="43.67882" lon="3.8605">
        <ele>55.4</ele>
        <time>2018-09-16T08:43:52Z</time>
      </trkpt>
      <trkpt lat="43.67888" lon="3.8605">
        <ele>55.2</ele>
        <time>2018-09-16T08:43:53Z</time>
      </trkpt>
      <trkpt lat="43.67893" lon="3.86051">
        <ele>55.2</ele>
        <time>2018-09-16T08:43:54Z</time>
      </trkpt>
      <trkpt lat="43.67899" lon="3.86051">
        <ele>55.2</ele>
        <time>2018-09-16T08:43:55Z</time>
      </trkpt>
      <trkpt lat="43.67904" lon="3.86052">
        <ele>55.1</ele>
        <time>2018-09-16T08:43:56Z</time>
      </trkpt>
      <trkpt lat="43.6791" lon="3.86054">
        <ele>55.1</ele>
        <time>2018-09-16T08:43:57Z</time>
      </trkpt>
      <trkpt lat="43.67915" lon="3.86055">
        <ele>55</ele>
        <time>2018-09-16T08:43:58Z</time>
      </trkpt>
      <trkpt lat="43.6792" lon="3.86054">
        <ele>55</ele>
        <time>2018-09-16T08:43:59Z</time>
      </trkpt>
      <trkpt lat="43.67924" lon="3.86056">
        <ele>55</ele>
        <time>2018-09-16T08:44:00Z</time>
      </trkpt>
      <trkpt lat="43.67929" lon="3.86057">
        <ele>55</ele>
        <time>2018-09-16T08:44:01Z</time>
      </trkpt>
      <trkpt lat="43.67934" lon="3.86057">
        <ele>55</ele>
        <time>2018-09-16T08:44:02Z</time>
      </trkpt>
      <trkpt lat="43.67939" lon="3.86059">
        <ele>55</ele>
        <time>2018-09-16T08:44:03Z</time>
      </trkpt>
      <trkpt lat="43.67946" lon="3.86054">
        <ele>54.9</ele>
        <time>2018-09-16T08:44:05Z</time>
      </trkpt>
      <trkpt lat="43.67946" lon="3.86049">
        <ele>54.9</ele>
        <time>2018-09-16T08:44:06Z</time>
      </trkpt>
      <trkpt lat="43.67946" lon="3.86038">
        <ele>54.9</ele>
        <time>2018-09-16T08:44:08Z</time>
      </trkpt>
      <trkpt lat="43.67945" lon="3.86031">
        <ele>55</ele>
        <time>2018-09-16T08:44:09Z</time>
      </trkpt>
      <trkpt lat="43.67946" lon="3.86019">
        <ele>55.3</ele>
        <time>2018-09-16T08:44:11Z</time>
      </trkpt>
      <trkpt lat="43.67946" lon="3.86014">
        <ele>55.4</ele>
        <time>2018-09-16T08:44:12Z</time>
      </trkpt>
      <trkpt lat="43.67945" lon="3.86001">
        <ele>55.9</ele>
        <time>2018-09-16T08:44:14Z</time>
      </trkpt>
      <trkpt lat="43.67945" lon="3.85995">
        <ele>56</ele>
        <time>2018-09-16T08:44:15Z</time>
      </trkpt>
      <trkpt lat="43.67951" lon="3.85987">
        <ele>55.8</ele>
        <time>2018-09-16T08:44:17Z</time>
      </trkpt>
      <trkpt lat="43.67956" lon="3.85988">
        <ele>55.6</ele>
        <time>2018-09-16T08:44:18Z</time>
      </trkpt>
      <trkpt lat="43.67961" lon="3.85989">
        <ele>55.4</ele>
        <time>2018-09-16T08:44:19Z</time>
      </trkpt>
      <trkpt lat="43.67965" lon="3.8599">
        <ele>55.3</ele>
        <time>2018-09-16T08:44:20Z</time>
      </trkpt>
      <trkpt lat="43.67974" lon="3.85988">
        <ele>55</ele>
        <time>2018-09-16T08:44:22Z</time>
      </trkpt>
      <trkpt lat="43.67978" lon="3.85987">
        <ele>54.9</ele>
        <time>2018-09-16T08:44:23Z</time>
      </trkpt>
      <trkpt lat="43.67982" lon="3.85986">
        <ele>54.8</ele>
        <time>2018-09-16T08:44:24Z</time>
      </trkpt>
      <trkpt lat="43.67987" lon="3.85985">
        <ele>54.8</ele>
        <time>2018-09-16T08:44:25Z</time>
      </trkpt>
      <trkpt lat="43.67995" lon="3.85984">
        <ele>54.7</ele>
        <time>2018-09-16T08:44:27Z</time>
      </trkpt>
      <trkpt lat="43.68" lon="3.85984">
        <ele>54.6</ele>
        <time>2018-09-16T08:44:28Z</time>
      </trkpt>
      <trkpt lat="43.68004" lon="3.85983">
        <ele>54.6</ele>
        <time>2018-09-16T08:44:29Z</time>
      </trkpt>
      <trkpt lat="43.6801" lon="3.85983">
        <ele>54.6</ele>
        <time>2018-09-16T08:44:30Z</time>
      </trkpt>
      <trkpt lat="43.68014" lon="3.85983">
        <ele>54.6</ele>
        <time>2018-09-16T08:44:31Z</time>
      </trkpt>
      <trkpt lat="43.6802" lon="3.85984">
        <ele>54.6</ele>
        <time>2018-09-16T08:44:32Z</time>
      </trkpt>
      <trkpt lat="43.68029" lon="3.85982">
        <ele>54.6</ele>
        <time>2018-09-16T08:44:34Z</time>
      </trkpt>
      <trkpt lat="43.68032" lon="3.85977">
        <ele>54.7</ele>
        <time>2018-09-16T08:44:35Z</time>
      </trkpt>
      <trkpt lat="43.68035" lon="3.85973">
        <ele>54.7</ele>
        <time>2018-09-16T08:44:36Z</time>
      </trkpt>
      <trkpt lat="43.68034" lon="3.85964">
        <ele>54.8</ele>
        <time>2018-09-16T08:44:37Z</time>
      </trkpt>
      <trkpt lat="43.68034" lon="3.85957">
        <ele>54.8</ele>
        <time>2018-09-16T08:44:38Z</time>
      </trkpt>
      <trkpt lat="43.68033" lon="3.85949">
        <ele>54.8</ele>
        <time>2018-09-16T08:44:39Z</time>
      </trkpt>
      <trkpt lat="43.68033" lon="3.85943">
        <ele>54.8</ele>
        <time>2018-09-16T08:44:40Z</time>
      </trkpt>
      <trkpt lat="43.68033" lon="3.85936">
        <ele>54.9</ele>
        <time>2018-09-16T08:44:41Z</time>
      </trkpt>
      <trkpt lat="43.68033" lon="3.85929">
        <ele>54.9</ele>
        <time>2018-09-16T08:44:42Z</time>
      </trkpt>
      <trkpt lat="43.68033" lon="3.85921">
        <ele>55</ele>
        <time>2018-09-16T08:44:43Z</time>
      </trkpt>
      <trkpt lat="43.68032" lon="3.85914">
        <ele>55</ele>
        <time>2018-09-16T08:44:44Z</time>
      </trkpt>
      <trkpt lat="43.6803" lon="3.85909">
        <ele>55</ele>
        <time>2018-09-16T08:44:45Z</time>
      </trkpt>
      <trkpt lat="43.68033" lon="3.85898">
        <ele>55</ele>
        <time>2018-09-16T08:44:47Z</time>
      </trkpt>
      <trkpt lat="43.68037" lon="3.85897">
        <ele>55</ele>
        <time>2018-09-16T08:44:48Z</time>
      </trkpt>
      <trkpt lat="43.68041" lon="3.85895">
        <ele>55</ele>
        <time>2018-09-16T08:44:49Z</time>
      </trkpt>
      <trkpt lat="43.68046" lon="3.85893">
        <ele>55</ele>
        <time>2018-09-16T08:44:50Z</time>
      </trkpt>
      <trkpt lat="43.68051" lon="3.85892">
        <ele>55</ele>
        <time>2018-09-16T08:44:52Z</time>
      </trkpt>
      <trkpt lat="43.68056" lon="3.85891">
        <ele>55</ele>
        <time>2018-09-16T08:44:53Z</time>
      </trkpt>
      <trkpt lat="43.68063" lon="3.85885">
        <ele>55</ele>
        <time>2018-09-16T08:44:55Z</time>
      </trkpt>
      <trkpt lat="43.68066" lon="3.85881">
        <ele>55</ele>
        <time>2018-09-16T08:44:56Z</time>
      </trkpt>
      <trkpt lat="43.6807" lon="3.85877">
        <ele>55</ele>
        <time>2018-09-16T08:44:57Z</time>
      </trkpt>
      <trkpt lat="43.68074" lon="3.85874">
        <ele>55</ele>
        <time>2018-09-16T08:44:58Z</time>
      </trkpt>
      <trkpt lat="43.68079" lon="3.85867">
        <ele>55</ele>
        <time>2018-09-16T08:45:00Z</time>
      </trkpt>
      <trkpt lat="43.68082" lon="3.85864">
        <ele>55</ele>
        <time>2018-09-16T08:45:01Z</time>
      </trkpt>
      <trkpt lat="43.68087" lon="3.85855">
        <ele>55.3</ele>
        <time>2018-09-16T08:45:03Z</time>
      </trkpt>
      <trkpt lat="43.6809" lon="3.8585">
        <ele>55.5</ele>
        <time>2018-09-16T08:45:04Z</time>
      </trkpt>
      <trkpt lat="43.68095" lon="3.85842">
        <ele>55.8</ele>
        <time>2018-09-16T08:45:06Z</time>
      </trkpt>
      <trkpt lat="43.68097" lon="3.85839">
        <ele>55.9</ele>
        <time>2018-09-16T08:45:07Z</time>
      </trkpt>
      <trkpt lat="43.68102" lon="3.8583">
        <ele>56</ele>
        <time>2018-09-16T08:45:09Z</time>
      </trkpt>
      <trkpt lat="43.68105" lon="3.85826">
        <ele>56</ele>
        <time>2018-09-16T08:45:10Z</time>
      </trkpt>
      <trkpt lat="43.6811" lon="3.85816">
        <ele>56</ele>
        <time>2018-09-16T08:45:12Z</time>
      </trkpt>
      <trkpt lat="43.68112" lon="3.85811">
        <ele>56</ele>
        <time>2018-09-16T08:45:13Z</time>
      </trkpt>
      <trkpt lat="43.68116" lon="3.85801">
        <ele>56.1</ele>
        <time>2018-09-16T08:45:15Z</time>
      </trkpt>
      <trkpt lat="43.68118" lon="3.85797">
        <ele>56.2</ele>
        <time>2018-09-16T08:45:16Z</time>
      </trkpt>
      <trkpt lat="43.68125" lon="3.85789">
        <ele>56.3</ele>
        <time>2018-09-16T08:45:18Z</time>
      </trkpt>
      <trkpt lat="43.68128" lon="3.85785">
        <ele>56.3</ele>
        <time>2018-09-16T08:45:19Z</time>
      </trkpt>
      <trkpt lat="43.68132" lon="3.85781">
        <ele>56.2</ele>
        <time>2018-09-16T08:45:20Z</time>
      </trkpt>
      <trkpt lat="43.68133" lon="3.85775">
        <ele>56.3</ele>
        <time>2018-09-16T08:45:21Z</time>
      </trkpt>
      <trkpt lat="43.68138" lon="3.85764">
        <ele>56.5</ele>
        <time>2018-09-16T08:45:23Z</time>
      </trkpt>
      <trkpt lat="43.68138" lon="3.85762">
        <ele>56.6</ele>
        <time>2018-09-16T08:45:24Z</time>
      </trkpt>
      <trkpt lat="43.68142" lon="3.85754">
        <ele>56.8</ele>
        <time>2018-09-16T08:45:26Z</time>
      </trkpt>
      <trkpt lat="43.68143" lon="3.85751">
        <ele>56.8</ele>
        <time>2018-09-16T08:45:27Z</time>
      </trkpt>
      <trkpt lat="43.68144" lon="3.8574">
        <ele>57.2</ele>
        <time>2018-09-16T08:45:30Z</time>
      </trkpt>
      <trkpt lat="43.68144" lon="3.85735">
        <ele>57.5</ele>
        <time>2018-09-16T08:45:31Z</time>
      </trkpt>
      <trkpt lat="43.68144" lon="3.85723">
        <ele>58</ele>
        <time>2018-09-16T08:45:34Z</time>
      </trkpt>
      <trkpt lat="43.68143" lon="3.8572">
        <ele>58.2</ele>
        <time>2018-09-16T08:45:35Z</time>
      </trkpt>
      <trkpt lat="43.68141" lon="3.85709">
        <ele>59</ele>
        <time>2018-09-16T08:45:38Z</time>
      </trkpt>
      <trkpt lat="43.68141" lon="3.85705">
        <ele>59.2</ele>
        <time>2018-09-16T08:45:39Z</time>
      </trkpt>
      <trkpt lat="43.68136" lon="3.85697">
        <ele>59.9</ele>
        <time>2018-09-16T08:45:42Z</time>
      </trkpt>
      <trkpt lat="43.68133" lon="3.85694">
        <ele>60.3</ele>
        <time>2018-09-16T08:45:43Z</time>
      </trkpt>
      <trkpt lat="43.6813" lon="3.85692">
        <ele>60.6</ele>
        <time>2018-09-16T08:45:44Z</time>
      </trkpt>
      <trkpt lat="43.68121" lon="3.85689">
        <ele>61.1</ele>
        <time>2018-09-16T08:45:45Z</time>
      </trkpt>
      <trkpt lat="43.68113" lon="3.8569">
        <ele>61.3</ele>
        <time>2018-09-16T08:45:47Z</time>
      </trkpt>
      <trkpt lat="43.68109" lon="3.8569">
        <ele>61.2</ele>
        <time>2018-09-16T08:45:48Z</time>
      </trkpt>
      <trkpt lat="43.68103" lon="3.85692">
        <ele>60.9</ele>
        <time>2018-09-16T08:45:50Z</time>
      </trkpt>
      <trkpt lat="43.68099" lon="3.85692">
        <ele>60.7</ele>
        <time>2018-09-16T08:45:51Z</time>
      </trkpt>
      <trkpt lat="43.6809" lon="3.85692">
        <ele>60.4</ele>
        <time>2018-09-16T08:45:53Z</time>
      </trkpt>
      <trkpt lat="43.68086" lon="3.85689">
        <ele>60.5</ele>
        <time>2018-09-16T08:45:54Z</time>
      </trkpt>
      <trkpt lat="43.68083" lon="3.8568">
        <ele>61</ele>
        <time>2018-09-16T08:45:56Z</time>
      </trkpt>
      <trkpt lat="43.68081" lon="3.85675">
        <ele>61.4</ele>
        <time>2018-09-16T08:45:57Z</time>
      </trkpt>
      <trkpt lat="43.68075" lon="3.85668">
        <ele>61.9</ele>
        <time>2018-09-16T08:46:02Z</time>
      </trkpt>
      <trkpt lat="43.68072" lon="3.85667">
        <ele>62</ele>
        <time>2018-09-16T08:46:03Z</time>
      </trkpt>
      <trkpt lat="43.68064" lon="3.85665">
        <ele>62.1</ele>
        <time>2018-09-16T08:46:06Z</time>
      </trkpt>
      <trkpt lat="43.6806" lon="3.85664">
        <ele>62.2</ele>
        <time>2018-09-16T08:46:07Z</time>
      </trkpt>
      <trkpt lat="43.68054" lon="3.85663">
        <ele>62.3</ele>
        <time>2018-09-16T08:46:09Z</time>
      </trkpt>
      <trkpt lat="43.68044" lon="3.85661">
        <ele>62.3</ele>
        <time>2018-09-16T08:46:10Z</time>
      </trkpt>
      <trkpt lat="43.6804" lon="3.85659">
        <ele>62.4</ele>
        <time>2018-09-16T08:46:12Z</time>
      </trkpt>
      <trkpt lat="43.68035" lon="3.85658">
        <ele>62.4</ele>
        <time>2018-09-16T08:46:13Z</time>
      </trkpt>
      <trkpt lat="43.68026" lon="3.85657">
        <ele>62.3</ele>
        <time>2018-09-16T08:46:15Z</time>
      </trkpt>
      <trkpt lat="43.68023" lon="3.85657">
        <ele>62.2</ele>
        <time>2018-09-16T08:46:16Z</time>
      </trkpt>
      <trkpt lat="43.68015" lon="3.85654">
        <ele>62.2</ele>
        <time>2018-09-16T08:46:18Z</time>
      </trkpt>
      <trkpt lat="43.68011" lon="3.85654">
        <ele>62.1</ele>
        <time>2018-09-16T08:46:19Z</time>
      </trkpt>
      <trkpt lat="43.68003" lon="3.8565">
        <ele>62.2</ele>
        <time>2018-09-16T08:46:23Z</time>
      </trkpt>
      <trkpt lat="43.68001" lon="3.85649">
        <ele>62.3</ele>
        <time>2018-09-16T08:46:24Z</time>
      </trkpt>
      <trkpt lat="43.67995" lon="3.85647">
        <ele>62.5</ele>
        <time>2018-09-16T08:46:26Z</time>
      </trkpt>
      <trkpt lat="43.67991" lon="3.85646">
        <ele>62.7</ele>
        <time>2018-09-16T08:46:27Z</time>
      </trkpt>
      <trkpt lat="43.67983" lon="3.85644">
        <ele>63.1</ele>
        <time>2018-09-16T08:46:30Z</time>
      </trkpt>
      <trkpt lat="43.6798" lon="3.85644">
        <ele>63.2</ele>
        <time>2018-09-16T08:46:31Z</time>
      </trkpt>
      <trkpt lat="43.67972" lon="3.85642">
        <ele>63.7</ele>
        <time>2018-09-16T08:46:34Z</time>
      </trkpt>
      <trkpt lat="43.6797" lon="3.85642">
        <ele>63.6</ele>
        <time>2018-09-16T08:46:35Z</time>
      </trkpt>
      <trkpt lat="43.67961" lon="3.85642">
        <ele>63.3</ele>
        <time>2018-09-16T08:46:38Z</time>
      </trkpt>
      <trkpt lat="43.67958" lon="3.85642">
        <ele>63.2</ele>
        <time>2018-09-16T08:46:39Z</time>
      </trkpt>
      <trkpt lat="43.67951" lon="3.85641">
        <ele>63.1</ele>
        <time>2018-09-16T08:46:41Z</time>
      </trkpt>
      <trkpt lat="43.67947" lon="3.85641">
        <ele>62.9</ele>
        <time>2018-09-16T08:46:42Z</time>
      </trkpt>
      <trkpt lat="43.67941" lon="3.8564">
        <ele>62.9</ele>
        <time>2018-09-16T08:46:44Z</time>
      </trkpt>
      <trkpt lat="43.67938" lon="3.8564">
        <ele>62.9</ele>
        <time>2018-09-16T08:46:45Z</time>
      </trkpt>
      <trkpt lat="43.67931" lon="3.85639">
        <ele>63</ele>
        <time>2018-09-16T08:46:47Z</time>
      </trkpt>
      <trkpt lat="43.67928" lon="3.85638">
        <ele>63</ele>
        <time>2018-09-16T08:46:48Z</time>
      </trkpt>
      <trkpt lat="43.67921" lon="3.85637">
        <ele>63.1</ele>
        <time>2018-09-16T08:46:50Z</time>
      </trkpt>
      <trkpt lat="43.67918" lon="3.85636">
        <ele>63.1</ele>
        <time>2018-09-16T08:46:51Z</time>
      </trkpt>
      <trkpt lat="43.67912" lon="3.85636">
        <ele>63</ele>
        <time>2018-09-16T08:46:53Z</time>
      </trkpt>
      <trkpt lat="43.67909" lon="3.85635">
        <ele>62.9</ele>
        <time>2018-09-16T08:46:54Z</time>
      </trkpt>
      <trkpt lat="43.67902" lon="3.85635">
        <ele>62.7</ele>
        <time>2018-09-16T08:46:56Z</time>
      </trkpt>
      <trkpt lat="43.67892" lon="3.85634">
        <ele>62.4</ele>
        <time>2018-09-16T08:46:57Z</time>
      </trkpt>
      <trkpt lat="43.67885" lon="3.85633">
        <ele>62.4</ele>
        <time>2018-09-16T08:46:59Z</time>
      </trkpt>
      <trkpt lat="43.67881" lon="3.85631">
        <ele>62.6</ele>
        <time>2018-09-16T08:47:00Z</time>
      </trkpt>
      <trkpt lat="43.67873" lon="3.85628">
        <ele>62.8</ele>
        <time>2018-09-16T08:47:03Z</time>
      </trkpt>
      <trkpt lat="43.67871" lon="3.85628">
        <ele>62.8</ele>
        <time>2018-09-16T08:47:04Z</time>
      </trkpt>
      <trkpt lat="43.67863" lon="3.85625">
        <ele>63</ele>
        <time>2018-09-16T08:47:07Z</time>
      </trkpt>
      <trkpt lat="43.6786" lon="3.85624">
        <ele>63.1</ele>
        <time>2018-09-16T08:47:08Z</time>
      </trkpt>
      <trkpt lat="43.67852" lon="3.85621">
        <ele>63.4</ele>
        <time>2018-09-16T08:47:11Z</time>
      </trkpt>
      <trkpt lat="43.67849" lon="3.8562">
        <ele>63.5</ele>
        <time>2018-09-16T08:47:12Z</time>
      </trkpt>
      <trkpt lat="43.67842" lon="3.85612">
        <ele>64</ele>
        <time>2018-09-16T08:47:15Z</time>
      </trkpt>
      <trkpt lat="43.6784" lon="3.85609">
        <ele>64.1</ele>
        <time>2018-09-16T08:47:16Z</time>
      </trkpt>
      <trkpt lat="43.67835" lon="3.85602">
        <ele>64.3</ele>
        <time>2018-09-16T08:47:18Z</time>
      </trkpt>
      <trkpt lat="43.67833" lon="3.85598">
        <ele>64.5</ele>
        <time>2018-09-16T08:47:19Z</time>
      </trkpt>
      <trkpt lat="43.67829" lon="3.85591">
        <ele>64.7</ele>
        <time>2018-09-16T08:47:21Z</time>
      </trkpt>
      <trkpt lat="43.67827" lon="3.85587">
        <ele>64.9</ele>
        <time>2018-09-16T08:47:22Z</time>
      </trkpt>
      <trkpt lat="43.67823" lon="3.85579">
        <ele>65.2</ele>
        <time>2018-09-16T08:47:24Z</time>
      </trkpt>
      <trkpt lat="43.67822" lon="3.85575">
        <ele>65.3</ele>
        <time>2018-09-16T08:47:25Z</time>
      </trkpt>
      <trkpt lat="43.67817" lon="3.85565">
        <ele>65.7</ele>
        <time>2018-09-16T08:47:28Z</time>
      </trkpt>
      <trkpt lat="43.67816" lon="3.85561">
        <ele>65.8</ele>
        <time>2018-09-16T08:47:29Z</time>
      </trkpt>
      <trkpt lat="43.67811" lon="3.85551">
        <ele>66.2</ele>
        <time>2018-09-16T08:47:32Z</time>
      </trkpt>
      <trkpt lat="43.6781" lon="3.85548">
        <ele>66.3</ele>
        <time>2018-09-16T08:47:33Z</time>
      </trkpt>
      <trkpt lat="43.67806" lon="3.8554">
        <ele>66.6</ele>
        <time>2018-09-16T08:47:35Z</time>
      </trkpt>
      <trkpt lat="43.67803" lon="3.85537">
        <ele>66.6</ele>
        <time>2018-09-16T08:47:36Z</time>
      </trkpt>
      <trkpt lat="43.67796" lon="3.85535">
        <ele>66.4</ele>
        <time>2018-09-16T08:47:39Z</time>
      </trkpt>
      <trkpt lat="43.67794" lon="3.85536">
        <ele>66.3</ele>
        <time>2018-09-16T08:47:40Z</time>
      </trkpt>
      <trkpt lat="43.67786" lon="3.85542">
        <ele>65.8</ele>
        <time>2018-09-16T08:47:41Z</time>
      </trkpt>
      <trkpt lat="43.67782" lon="3.85544">
        <ele>65.6</ele>
        <time>2018-09-16T08:47:42Z</time>
      </trkpt>
      <trkpt lat="43.67778" lon="3.85546">
        <ele>65.4</ele>
        <time>2018-09-16T08:47:43Z</time>
      </trkpt>
      <trkpt lat="43.67774" lon="3.85548">
        <ele>65.1</ele>
        <time>2018-09-16T08:47:44Z</time>
      </trkpt>
      <trkpt lat="43.67769" lon="3.8555">
        <ele>64.9</ele>
        <time>2018-09-16T08:47:45Z</time>
      </trkpt>
      <trkpt lat="43.67765" lon="3.85552">
        <ele>64.7</ele>
        <time>2018-09-16T08:47:46Z</time>
      </trkpt>
      <trkpt lat="43.67757" lon="3.85547">
        <ele>64.6</ele>
        <time>2018-09-16T08:47:48Z</time>
      </trkpt>
      <trkpt lat="43.67753" lon="3.85544">
        <ele>64.5</ele>
        <time>2018-09-16T08:47:49Z</time>
      </trkpt>
      <trkpt lat="43.67747" lon="3.85538">
        <ele>64.5</ele>
        <time>2018-09-16T08:47:51Z</time>
      </trkpt>
      <trkpt lat="43.67744" lon="3.85535">
        <ele>64.5</ele>
        <time>2018-09-16T08:47:52Z</time>
      </trkpt>
      <trkpt lat="43.67736" lon="3.85532">
        <ele>64.3</ele>
        <time>2018-09-16T08:47:55Z</time>
      </trkpt>
      <trkpt lat="43.67734" lon="3.85531">
        <ele>64.3</ele>
        <time>2018-09-16T08:47:56Z</time>
      </trkpt>
      <trkpt lat="43.67729" lon="3.85521">
        <ele>64.5</ele>
        <time>2018-09-16T08:48:00Z</time>
      </trkpt>
      <trkpt lat="43.67728" lon="3.85517">
        <ele>64.6</ele>
        <time>2018-09-16T08:48:01Z</time>
      </trkpt>
      <trkpt lat="43.67727" lon="3.85508">
        <ele>64.9</ele>
        <time>2018-09-16T08:48:03Z</time>
      </trkpt>
      <trkpt lat="43.67727" lon="3.85503">
        <ele>65.1</ele>
        <time>2018-09-16T08:48:04Z</time>
      </trkpt>
      <trkpt lat="43.67727" lon="3.85492">
        <ele>65.5</ele>
        <time>2018-09-16T08:48:07Z</time>
      </trkpt>
      <trkpt lat="43.67727" lon="3.85488">
        <ele>65.7</ele>
        <time>2018-09-16T08:48:08Z</time>
      </trkpt>
      <trkpt lat="43.67729" lon="3.85477">
        <ele>66.3</ele>
        <time>2018-09-16T08:48:11Z</time>
      </trkpt>
      <trkpt lat="43.6773" lon="3.85474">
        <ele>66.5</ele>
        <time>2018-09-16T08:48:12Z</time>
      </trkpt>
      <trkpt lat="43.67732" lon="3.85464">
        <ele>67.1</ele>
        <time>2018-09-16T08:48:15Z</time>
      </trkpt>
      <trkpt lat="43.67733" lon="3.85461">
        <ele>67.3</ele>
        <time>2018-09-16T08:48:16Z</time>
      </trkpt>
      <trkpt lat="43.67736" lon="3.85452">
        <ele>68.1</ele>
        <time>2018-09-16T08:48:19Z</time>
      </trkpt>
      <trkpt lat="43.67737" lon="3.85449">
        <ele>68.3</ele>
        <time>2018-09-16T08:48:20Z</time>
      </trkpt>
      <trkpt lat="43.67738" lon="3.85438">
        <ele>68.9</ele>
        <time>2018-09-16T08:48:23Z</time>
      </trkpt>
      <trkpt lat="43.67739" lon="3.85435">
        <ele>69.2</ele>
        <time>2018-09-16T08:48:24Z</time>
      </trkpt>
      <trkpt lat="43.67742" lon="3.85424">
        <ele>69.9</ele>
        <time>2018-09-16T08:48:28Z</time>
      </trkpt>
      <trkpt lat="43.67743" lon="3.85422">
        <ele>70.1</ele>
        <time>2018-09-16T08:48:29Z</time>
      </trkpt>
      <trkpt lat="43.67744" lon="3.85412">
        <ele>70.7</ele>
        <time>2018-09-16T08:48:33Z</time>
      </trkpt>
      <trkpt lat="43.67744" lon="3.85409">
        <ele>70.9</ele>
        <time>2018-09-16T08:48:34Z</time>
      </trkpt>
      <trkpt lat="43.67741" lon="3.85398">
        <ele>71.4</ele>
        <time>2018-09-16T08:48:37Z</time>
      </trkpt>
      <trkpt lat="43.6774" lon="3.85394">
        <ele>71.6</ele>
        <time>2018-09-16T08:48:38Z</time>
      </trkpt>
      <trkpt lat="43.67735" lon="3.85384">
        <ele>71.7</ele>
        <time>2018-09-16T08:48:41Z</time>
      </trkpt>
      <trkpt lat="43.67733" lon="3.85381">
        <ele>71.7</ele>
        <time>2018-09-16T08:48:42Z</time>
      </trkpt>
      <trkpt lat="43.67728" lon="3.85373">
        <ele>71.8</ele>
        <time>2018-09-16T08:48:45Z</time>
      </trkpt>
      <trkpt lat="43.67726" lon="3.8537">
        <ele>71.8</ele>
        <time>2018-09-16T08:48:46Z</time>
      </trkpt>
      <trkpt lat="43.67721" lon="3.85364">
        <ele>71.7</ele>
        <time>2018-09-16T08:48:48Z</time>
      </trkpt>
      <trkpt lat="43.67719" lon="3.85361">
        <ele>71.9</ele>
        <time>2018-09-16T08:48:49Z</time>
      </trkpt>
      <trkpt lat="43.67713" lon="3.85354">
        <ele>72.6</ele>
        <time>2018-09-16T08:48:52Z</time>
      </trkpt>
      <trkpt lat="43.67711" lon="3.85352">
        <ele>72.8</ele>
        <time>2018-09-16T08:48:53Z</time>
      </trkpt>
      <trkpt lat="43.67704" lon="3.85344">
        <ele>73.4</ele>
        <time>2018-09-16T08:48:57Z</time>
      </trkpt>
      <trkpt lat="43.67703" lon="3.85343">
        <ele>73.5</ele>
        <time>2018-09-16T08:48:58Z</time>
      </trkpt>
      <trkpt lat="43.67697" lon="3.85337">
        <ele>73.8</ele>
        <time>2018-09-16T08:49:02Z</time>
      </trkpt>
      <trkpt lat="43.67695" lon="3.85334">
        <ele>74</ele>
        <time>2018-09-16T08:49:03Z</time>
      </trkpt>
      <trkpt lat="43.6769" lon="3.85327">
        <ele>74.2</ele>
        <time>2018-09-16T08:49:06Z</time>
      </trkpt>
      <trkpt lat="43.67688" lon="3.85324">
        <ele>74.2</ele>
        <time>2018-09-16T08:49:07Z</time>
      </trkpt>
      <trkpt lat="43.67685" lon="3.85318">
        <ele>74.4</ele>
        <time>2018-09-16T08:49:09Z</time>
      </trkpt>
      <trkpt lat="43.67683" lon="3.85314">
        <ele>74.6</ele>
        <time>2018-09-16T08:49:10Z</time>
      </trkpt>
      <trkpt lat="43.67679" lon="3.85304">
        <ele>74.9</ele>
        <time>2018-09-16T08:49:13Z</time>
      </trkpt>
      <trkpt lat="43.67678" lon="3.85301">
        <ele>74.9</ele>
        <time>2018-09-16T08:49:14Z</time>
      </trkpt>
      <trkpt lat="43.67676" lon="3.8529">
        <ele>75.3</ele>
        <time>2018-09-16T08:49:17Z</time>
      </trkpt>
      <trkpt lat="43.67676" lon="3.85287">
        <ele>75.5</ele>
        <time>2018-09-16T08:49:18Z</time>
      </trkpt>
      <trkpt lat="43.67674" lon="3.85278">
        <ele>75.8</ele>
        <time>2018-09-16T08:49:21Z</time>
      </trkpt>
      <trkpt lat="43.67673" lon="3.85274">
        <ele>76.1</ele>
        <time>2018-09-16T08:49:22Z</time>
      </trkpt>
      <trkpt lat="43.67667" lon="3.85265">
        <ele>76.4</ele>
        <time>2018-09-16T08:49:25Z</time>
      </trkpt>
      <trkpt lat="43.67665" lon="3.85263">
        <ele>76.5</ele>
        <time>2018-09-16T08:49:26Z</time>
      </trkpt>
      <trkpt lat="43.67659" lon="3.85258">
        <ele>76.6</ele>
        <time>2018-09-16T08:49:28Z</time>
      </trkpt>
      <trkpt lat="43.67655" lon="3.85257">
        <ele>76.4</ele>
        <time>2018-09-16T08:49:29Z</time>
      </trkpt>
      <trkpt lat="43.67647" lon="3.85254">
        <ele>76.2</ele>
        <time>2018-09-16T08:49:30Z</time>
      </trkpt>
      <trkpt lat="43.67643" lon="3.85252">
        <ele>76.1</ele>
        <time>2018-09-16T08:49:31Z</time>
      </trkpt>
      <trkpt lat="43.67636" lon="3.85248">
        <ele>76.1</ele>
        <time>2018-09-16T08:49:33Z</time>
      </trkpt>
      <trkpt lat="43.67632" lon="3.85246">
        <ele>76.2</ele>
        <time>2018-09-16T08:49:34Z</time>
      </trkpt>
      <trkpt lat="43.67628" lon="3.85243">
        <ele>76.3</ele>
        <time>2018-09-16T08:49:35Z</time>
      </trkpt>
      <trkpt lat="43.67624" lon="3.85239">
        <ele>76.5</ele>
        <time>2018-09-16T08:49:36Z</time>
      </trkpt>
      <trkpt lat="43.67619" lon="3.85236">
        <ele>76.4</ele>
        <time>2018-09-16T08:49:37Z</time>
      </trkpt>
      <trkpt lat="43.67614" lon="3.85234">
        <ele>76.1</ele>
        <time>2018-09-16T08:49:38Z</time>
      </trkpt>
      <trkpt lat="43.67611" lon="3.85232">
        <ele>75.9</ele>
        <time>2018-09-16T08:49:39Z</time>
      </trkpt>
      <trkpt lat="43.67606" lon="3.85229">
        <ele>76</ele>
        <time>2018-09-16T08:49:40Z</time>
      </trkpt>
      <trkpt lat="43.676" lon="3.85226">
        <ele>75.9</ele>
        <time>2018-09-16T08:49:41Z</time>
      </trkpt>
      <trkpt lat="43.67596" lon="3.85222">
        <ele>75.9</ele>
        <time>2018-09-16T08:49:42Z</time>
      </trkpt>
      <trkpt lat="43.67592" lon="3.85218">
        <ele>75.9</ele>
        <time>2018-09-16T08:49:43Z</time>
      </trkpt>
      <trkpt lat="43.67586" lon="3.85215">
        <ele>75.5</ele>
        <time>2018-09-16T08:49:44Z</time>
      </trkpt>
      <trkpt lat="43.67581" lon="3.85211">
        <ele>75.6</ele>
        <time>2018-09-16T08:49:45Z</time>
      </trkpt>
      <trkpt lat="43.67576" lon="3.85208">
        <ele>76</ele>
        <time>2018-09-16T08:49:46Z</time>
      </trkpt>
      <trkpt lat="43.67572" lon="3.85204">
        <ele>76.3</ele>
        <time>2018-09-16T08:49:47Z</time>
      </trkpt>
      <trkpt lat="43.67569" lon="3.852">
        <ele>76.5</ele>
        <time>2018-09-16T08:49:48Z</time>
      </trkpt>
      <trkpt lat="43.67566" lon="3.85194">
        <ele>76.6</ele>
        <time>2018-09-16T08:49:49Z</time>
      </trkpt>
      <trkpt lat="43.67565" lon="3.85188">
        <ele>76.6</ele>
        <time>2018-09-16T08:49:50Z</time>
      </trkpt>
      <trkpt lat="43.67562" lon="3.85179">
        <ele>76.5</ele>
        <time>2018-09-16T08:49:52Z</time>
      </trkpt>
      <trkpt lat="43.6756" lon="3.85172">
        <ele>76.3</ele>
        <time>2018-09-16T08:49:53Z</time>
      </trkpt>
      <trkpt lat="43.67557" lon="3.85167">
        <ele>76.1</ele>
        <time>2018-09-16T08:49:54Z</time>
      </trkpt>
      <trkpt lat="43.67554" lon="3.8516">
        <ele>76.2</ele>
        <time>2018-09-16T08:49:55Z</time>
      </trkpt>
      <trkpt lat="43.67552" lon="3.85154">
        <ele>76.3</ele>
        <time>2018-09-16T08:49:56Z</time>
      </trkpt>
      <trkpt lat="43.67549" lon="3.85147">
        <ele>76.5</ele>
        <time>2018-09-16T08:49:57Z</time>
      </trkpt>
      <trkpt lat="43.67546" lon="3.85141">
        <ele>76.7</ele>
        <time>2018-09-16T08:49:58Z</time>
      </trkpt>
      <trkpt lat="43.67543" lon="3.85134">
        <ele>76.9</ele>
        <time>2018-09-16T08:49:59Z</time>
      </trkpt>
      <trkpt lat="43.67539" lon="3.85124">
        <ele>77.2</ele>
        <time>2018-09-16T08:50:01Z</time>
      </trkpt>
      <trkpt lat="43.67538" lon="3.85117">
        <ele>77.3</ele>
        <time>2018-09-16T08:50:02Z</time>
      </trkpt>
      <trkpt lat="43.67535" lon="3.85107">
        <ele>77.5</ele>
        <time>2018-09-16T08:50:04Z</time>
      </trkpt>
      <trkpt lat="43.67535" lon="3.85103">
        <ele>77.5</ele>
        <time>2018-09-16T08:50:05Z</time>
      </trkpt>
      <trkpt lat="43.67531" lon="3.85094">
        <ele>77.8</ele>
        <time>2018-09-16T08:50:07Z</time>
      </trkpt>
      <trkpt lat="43.67529" lon="3.8509">
        <ele>77.9</ele>
        <time>2018-09-16T08:50:08Z</time>
      </trkpt>
      <trkpt lat="43.67523" lon="3.85082">
        <ele>78.5</ele>
        <time>2018-09-16T08:50:10Z</time>
      </trkpt>
      <trkpt lat="43.67521" lon="3.8508">
        <ele>78.8</ele>
        <time>2018-09-16T08:50:11Z</time>
      </trkpt>
      <trkpt lat="43.6752" lon="3.85078">
        <ele>78.9</ele>
        <time>2018-09-16T08:50:12Z</time>
      </trkpt>
      <trkpt lat="43.67515" lon="3.8507">
        <ele>79.6</ele>
        <time>2018-09-16T08:50:13Z</time>
      </trkpt>
      <trkpt lat="43.67511" lon="3.85064">
        <ele>80.2</ele>
        <time>2018-09-16T08:50:16Z</time>
      </trkpt>
      <trkpt lat="43.6751" lon="3.8506">
        <ele>80.5</ele>
        <time>2018-09-16T08:50:17Z</time>
      </trkpt>
      <trkpt lat="43.67506" lon="3.85053">
        <ele>81.1</ele>
        <time>2018-09-16T08:50:19Z</time>
      </trkpt>
      <trkpt lat="43.67504" lon="3.85049">
        <ele>81.3</ele>
        <time>2018-09-16T08:50:20Z</time>
      </trkpt>
      <trkpt lat="43.67503" lon="3.85045">
        <ele>81.3</ele>
        <time>2018-09-16T08:50:21Z</time>
      </trkpt>
      <trkpt lat="43.675" lon="3.85036">
        <ele>81.3</ele>
        <time>2018-09-16T08:50:22Z</time>
      </trkpt>
      <trkpt lat="43.67496" lon="3.85027">
        <ele>81.4</ele>
        <time>2018-09-16T08:50:24Z</time>
      </trkpt>
      <trkpt lat="43.67494" lon="3.85022">
        <ele>81.6</ele>
        <time>2018-09-16T08:50:25Z</time>
      </trkpt>
      <trkpt lat="43.67491" lon="3.85016">
        <ele>82</ele>
        <time>2018-09-16T08:50:26Z</time>
      </trkpt>
      <trkpt lat="43.67489" lon="3.8501">
        <ele>82.2</ele>
        <time>2018-09-16T08:50:27Z</time>
      </trkpt>
      <trkpt lat="43.67485" lon="3.85003">
        <ele>82.6</ele>
        <time>2018-09-16T08:50:30Z</time>
      </trkpt>
      <trkpt lat="43.67484" lon="3.85">
        <ele>82.7</ele>
        <time>2018-09-16T08:50:31Z</time>
      </trkpt>
      <trkpt lat="43.67478" lon="3.84989">
        <ele>83.1</ele>
        <time>2018-09-16T08:50:32Z</time>
      </trkpt>
      <trkpt lat="43.67477" lon="3.84985">
        <ele>83</ele>
        <time>2018-09-16T08:50:33Z</time>
      </trkpt>
      <trkpt lat="43.67473" lon="3.84978">
        <ele>83.1</ele>
        <time>2018-09-16T08:50:34Z</time>
      </trkpt>
      <trkpt lat="43.6747" lon="3.84969">
        <ele>83.2</ele>
        <time>2018-09-16T08:50:36Z</time>
      </trkpt>
      <trkpt lat="43.67468" lon="3.84964">
        <ele>83.4</ele>
        <time>2018-09-16T08:50:37Z</time>
      </trkpt>
      <trkpt lat="43.67467" lon="3.84954">
        <ele>83.4</ele>
        <time>2018-09-16T08:50:40Z</time>
      </trkpt>
      <trkpt lat="43.67467" lon="3.84951">
        <ele>83.4</ele>
        <time>2018-09-16T08:50:41Z</time>
      </trkpt>
      <trkpt lat="43.67467" lon="3.84947">
        <ele>83.4</ele>
        <time>2018-09-16T08:50:42Z</time>
      </trkpt>
      <trkpt lat="43.67467" lon="3.84934">
        <ele>83.4</ele>
        <time>2018-09-16T08:50:43Z</time>
      </trkpt>
      <trkpt lat="43.67464" lon="3.84924">
        <ele>83.8</ele>
        <time>2018-09-16T08:50:48Z</time>
      </trkpt>
      <trkpt lat="43.67463" lon="3.84921">
        <ele>83.9</ele>
        <time>2018-09-16T08:50:49Z</time>
      </trkpt>
      <trkpt lat="43.67463" lon="3.84913">
        <ele>83.9</ele>
        <time>2018-09-16T08:50:51Z</time>
      </trkpt>
      <trkpt lat="43.67463" lon="3.84908">
        <ele>83.8</ele>
        <time>2018-09-16T08:50:52Z</time>
      </trkpt>
      <trkpt lat="43.67462" lon="3.84898">
        <ele>83.7</ele>
        <time>2018-09-16T08:50:54Z</time>
      </trkpt>
      <trkpt lat="43.67461" lon="3.84893">
        <ele>83.7</ele>
        <time>2018-09-16T08:50:55Z</time>
      </trkpt>
      <trkpt lat="43.6746" lon="3.84882">
        <ele>83.7</ele>
        <time>2018-09-16T08:50:57Z</time>
      </trkpt>
      <trkpt lat="43.67459" lon="3.84876">
        <ele>83.7</ele>
        <time>2018-09-16T08:50:58Z</time>
      </trkpt>
      <trkpt lat="43.67458" lon="3.84871">
        <ele>83.7</ele>
        <time>2018-09-16T08:50:59Z</time>
      </trkpt>
      <trkpt lat="43.67455" lon="3.84854">
        <ele>83.7</ele>
        <time>2018-09-16T08:51:00Z</time>
      </trkpt>
      <trkpt lat="43.67453" lon="3.84845">
        <ele>83.7</ele>
        <time>2018-09-16T08:51:02Z</time>
      </trkpt>
      <trkpt lat="43.67452" lon="3.84841">
        <ele>83.7</ele>
        <time>2018-09-16T08:51:03Z</time>
      </trkpt>
      <trkpt lat="43.6745" lon="3.84831">
        <ele>83.5</ele>
        <time>2018-09-16T08:51:06Z</time>
      </trkpt>
      <trkpt lat="43.67448" lon="3.84829">
        <ele>83.6</ele>
        <time>2018-09-16T08:51:07Z</time>
      </trkpt>
      <trkpt lat="43.67444" lon="3.84822">
        <ele>83.6</ele>
        <time>2018-09-16T08:51:09Z</time>
      </trkpt>
      <trkpt lat="43.67442" lon="3.84818">
        <ele>83.7</ele>
        <time>2018-09-16T08:51:10Z</time>
      </trkpt>
      <trkpt lat="43.67439" lon="3.84815">
        <ele>83.9</ele>
        <time>2018-09-16T08:51:11Z</time>
      </trkpt>
      <trkpt lat="43.67433" lon="3.84806">
        <ele>84.3</ele>
        <time>2018-09-16T08:51:12Z</time>
      </trkpt>
      <trkpt lat="43.67426" lon="3.84798">
        <ele>84.8</ele>
        <time>2018-09-16T08:51:15Z</time>
      </trkpt>
      <trkpt lat="43.67425" lon="3.84794">
        <ele>84.8</ele>
        <time>2018-09-16T08:51:16Z</time>
      </trkpt>
      <trkpt lat="43.67421" lon="3.84785">
        <ele>84.9</ele>
        <time>2018-09-16T08:51:19Z</time>
      </trkpt>
      <trkpt lat="43.6742" lon="3.84781">
        <ele>84.9</ele>
        <time>2018-09-16T08:51:20Z</time>
      </trkpt>
      <trkpt lat="43.67416" lon="3.8477">
        <ele>85.1</ele>
        <time>2018-09-16T08:51:23Z</time>
      </trkpt>
      <trkpt lat="43.67415" lon="3.84766">
        <ele>85.2</ele>
        <time>2018-09-16T08:51:24Z</time>
      </trkpt>
      <trkpt lat="43.67412" lon="3.84757">
        <ele>85.7</ele>
        <time>2018-09-16T08:51:27Z</time>
      </trkpt>
      <trkpt lat="43.67411" lon="3.84753">
        <ele>85.8</ele>
        <time>2018-09-16T08:51:28Z</time>
      </trkpt>
      <trkpt lat="43.67409" lon="3.84742">
        <ele>86.1</ele>
        <time>2018-09-16T08:51:31Z</time>
      </trkpt>
      <trkpt lat="43.67408" lon="3.84738">
        <ele>86.2</ele>
        <time>2018-09-16T08:51:32Z</time>
      </trkpt>
      <trkpt lat="43.67407" lon="3.84728">
        <ele>86.4</ele>
        <time>2018-09-16T08:51:34Z</time>
      </trkpt>
      <trkpt lat="43.67407" lon="3.84722">
        <ele>86.4</ele>
        <time>2018-09-16T08:51:35Z</time>
      </trkpt>
      <trkpt lat="43.67406" lon="3.84716">
        <ele>86.8</ele>
        <time>2018-09-16T08:51:36Z</time>
      </trkpt>
      <trkpt lat="43.67406" lon="3.8471">
        <ele>87</ele>
        <time>2018-09-16T08:51:37Z</time>
      </trkpt>
      <trkpt lat="43.67405" lon="3.84698">
        <ele>87.6</ele>
        <time>2018-09-16T08:51:40Z</time>
      </trkpt>
      <trkpt lat="43.67404" lon="3.84696">
        <ele>87.8</ele>
        <time>2018-09-16T08:51:41Z</time>
      </trkpt>
      <trkpt lat="43.67397" lon="3.84703">
        <ele>88.5</ele>
        <time>2018-09-16T08:51:51Z</time>
      </trkpt>
      <trkpt lat="43.67396" lon="3.84705">
        <ele>88.6</ele>
        <time>2018-09-16T08:51:52Z</time>
      </trkpt>
      <trkpt lat="43.67392" lon="3.84714">
        <ele>88.8</ele>
        <time>2018-09-16T08:51:57Z</time>
      </trkpt>
      <trkpt lat="43.6739" lon="3.84716">
        <ele>89.1</ele>
        <time>2018-09-16T08:51:58Z</time>
      </trkpt>
      <trkpt lat="43.67383" lon="3.84723">
        <ele>90.1</ele>
        <time>2018-09-16T08:52:04Z</time>
      </trkpt>
      <trkpt lat="43.67382" lon="3.84724">
        <ele>90.2</ele>
        <time>2018-09-16T08:52:05Z</time>
      </trkpt>
      <trkpt lat="43.67379" lon="3.84732">
        <ele>90.7</ele>
        <time>2018-09-16T08:52:09Z</time>
      </trkpt>
      <trkpt lat="43.67379" lon="3.84736">
        <ele>90.6</ele>
        <time>2018-09-16T08:52:10Z</time>
      </trkpt>
      <trkpt lat="43.67379" lon="3.84746">
        <ele>90.5</ele>
        <time>2018-09-16T08:52:12Z</time>
      </trkpt>
      <trkpt lat="43.67379" lon="3.84759">
        <ele>90.4</ele>
        <time>2018-09-16T08:52:13Z</time>
      </trkpt>
      <trkpt lat="43.67379" lon="3.8477">
        <ele>90.4</ele>
        <time>2018-09-16T08:52:15Z</time>
      </trkpt>
      <trkpt lat="43.67381" lon="3.84775">
        <ele>90.1</ele>
        <time>2018-09-16T08:52:16Z</time>
      </trkpt>
      <trkpt lat="43.67382" lon="3.84782">
        <ele>90</ele>
        <time>2018-09-16T08:52:17Z</time>
      </trkpt>
      <trkpt lat="43.67384" lon="3.84788">
        <ele>89.6</ele>
        <time>2018-09-16T08:52:18Z</time>
      </trkpt>
      <trkpt lat="43.67386" lon="3.84794">
        <ele>89.4</ele>
        <time>2018-09-16T08:52:19Z</time>
      </trkpt>
      <trkpt lat="43.67389" lon="3.84799">
        <ele>89</ele>
        <time>2018-09-16T08:52:20Z</time>
      </trkpt>
      <trkpt lat="43.67391" lon="3.84804">
        <ele>88.8</ele>
        <time>2018-09-16T08:52:21Z</time>
      </trkpt>
      <trkpt lat="43.67394" lon="3.84809">
        <ele>88.6</ele>
        <time>2018-09-16T08:52:22Z</time>
      </trkpt>
      <trkpt lat="43.67397" lon="3.84814">
        <ele>88.4</ele>
        <time>2018-09-16T08:52:23Z</time>
      </trkpt>
      <trkpt lat="43.67399" lon="3.8482">
        <ele>88.4</ele>
        <time>2018-09-16T08:52:24Z</time>
      </trkpt>
      <trkpt lat="43.67403" lon="3.84825">
        <ele>88.2</ele>
        <time>2018-09-16T08:52:25Z</time>
      </trkpt>
      <trkpt lat="43.67406" lon="3.8483">
        <ele>88</ele>
        <time>2018-09-16T08:52:26Z</time>
      </trkpt>
      <trkpt lat="43.67409" lon="3.84836">
        <ele>87.9</ele>
        <time>2018-09-16T08:52:27Z</time>
      </trkpt>
      <trkpt lat="43.67413" lon="3.84841">
        <ele>87.6</ele>
        <time>2018-09-16T08:52:28Z</time>
      </trkpt>
      <trkpt lat="43.67416" lon="3.84847">
        <ele>87.6</ele>
        <time>2018-09-16T08:52:29Z</time>
      </trkpt>
      <trkpt lat="43.67419" lon="3.84853">
        <ele>87.5</ele>
        <time>2018-09-16T08:52:30Z</time>
      </trkpt>
      <trkpt lat="43.67422" lon="3.84858">
        <ele>87.3</ele>
        <time>2018-09-16T08:52:31Z</time>
      </trkpt>
      <trkpt lat="43.67425" lon="3.84864">
        <ele>87.2</ele>
        <time>2018-09-16T08:52:32Z</time>
      </trkpt>
      <trkpt lat="43.67428" lon="3.84869">
        <ele>87.1</ele>
        <time>2018-09-16T08:52:33Z</time>
      </trkpt>
      <trkpt lat="43.67429" lon="3.84876">
        <ele>87.2</ele>
        <time>2018-09-16T08:52:34Z</time>
      </trkpt>
      <trkpt lat="43.67427" lon="3.84888">
        <ele>87.9</ele>
        <time>2018-09-16T08:52:36Z</time>
      </trkpt>
      <trkpt lat="43.67424" lon="3.84892">
        <ele>88.1</ele>
        <time>2018-09-16T08:52:37Z</time>
      </trkpt>
      <trkpt lat="43.67417" lon="3.84894">
        <ele>88.8</ele>
        <time>2018-09-16T08:52:39Z</time>
      </trkpt>
      <trkpt lat="43.67414" lon="3.84892">
        <ele>89.1</ele>
        <time>2018-09-16T08:52:40Z</time>
      </trkpt>
      <trkpt lat="43.67405" lon="3.84893">
        <ele>89.8</ele>
        <time>2018-09-16T08:52:43Z</time>
      </trkpt>
      <trkpt lat="43.67403" lon="3.84892">
        <ele>89.9</ele>
        <time>2018-09-16T08:52:44Z</time>
      </trkpt>
      <trkpt lat="43.67397" lon="3.84894">
        <ele>90.4</ele>
        <time>2018-09-16T08:52:46Z</time>
      </trkpt>
      <trkpt lat="43.67394" lon="3.84897">
        <ele>90.6</ele>
        <time>2018-09-16T08:52:47Z</time>
      </trkpt>
      <trkpt lat="43.67388" lon="3.84904">
        <ele>91</ele>
        <time>2018-09-16T08:52:49Z</time>
      </trkpt>
      <trkpt lat="43.67386" lon="3.84907">
        <ele>91.1</ele>
        <time>2018-09-16T08:52:50Z</time>
      </trkpt>
      <trkpt lat="43.67381" lon="3.84914">
        <ele>91.3</ele>
        <time>2018-09-16T08:52:52Z</time>
      </trkpt>
      <trkpt lat="43.6738" lon="3.84919">
        <ele>91.3</ele>
        <time>2018-09-16T08:52:53Z</time>
      </trkpt>
      <trkpt lat="43.67377" lon="3.84928">
        <ele>91.2</ele>
        <time>2018-09-16T08:52:55Z</time>
      </trkpt>
      <trkpt lat="43.67375" lon="3.84931">
        <ele>91.2</ele>
        <time>2018-09-16T08:52:56Z</time>
      </trkpt>
      <trkpt lat="43.67369" lon="3.84933">
        <ele>91.5</ele>
        <time>2018-09-16T08:52:58Z</time>
      </trkpt>
      <trkpt lat="43.67366" lon="3.84933">
        <ele>91.7</ele>
        <time>2018-09-16T08:52:59Z</time>
      </trkpt>
      <trkpt lat="43.67358" lon="3.84933">
        <ele>92.2</ele>
        <time>2018-09-16T08:53:02Z</time>
      </trkpt>
      <trkpt lat="43.67356" lon="3.84933">
        <ele>92.4</ele>
        <time>2018-09-16T08:53:03Z</time>
      </trkpt>
      <trkpt lat="43.67348" lon="3.84933">
        <ele>92.9</ele>
        <time>2018-09-16T08:53:06Z</time>
      </trkpt>
      <trkpt lat="43.67346" lon="3.84933">
        <ele>93.1</ele>
        <time>2018-09-16T08:53:07Z</time>
      </trkpt>
      <trkpt lat="43.67338" lon="3.84935">
        <ele>93.7</ele>
        <time>2018-09-16T08:53:11Z</time>
      </trkpt>
      <trkpt lat="43.67337" lon="3.84936">
        <ele>93.7</ele>
        <time>2018-09-16T08:53:12Z</time>
      </trkpt>
      <trkpt lat="43.67329" lon="3.84939">
        <ele>94.4</ele>
        <time>2018-09-16T08:53:16Z</time>
      </trkpt>
      <trkpt lat="43.67328" lon="3.8494">
        <ele>94.5</ele>
        <time>2018-09-16T08:53:17Z</time>
      </trkpt>
      <trkpt lat="43.6732" lon="3.84942">
        <ele>95.4</ele>
        <time>2018-09-16T08:53:21Z</time>
      </trkpt>
      <trkpt lat="43.67318" lon="3.84945">
        <ele>95.7</ele>
        <time>2018-09-16T08:53:22Z</time>
      </trkpt>
      <trkpt lat="43.67312" lon="3.8495">
        <ele>96.4</ele>
        <time>2018-09-16T08:53:25Z</time>
      </trkpt>
      <trkpt lat="43.6731" lon="3.84952">
        <ele>96.6</ele>
        <time>2018-09-16T08:53:26Z</time>
      </trkpt>
      <trkpt lat="43.67304" lon="3.8496">
        <ele>97.2</ele>
        <time>2018-09-16T08:53:30Z</time>
      </trkpt>
      <trkpt lat="43.67303" lon="3.84961">
        <ele>97.3</ele>
        <time>2018-09-16T08:53:31Z</time>
      </trkpt>
      <trkpt lat="43.67297" lon="3.84968">
        <ele>97.9</ele>
        <time>2018-09-16T08:53:35Z</time>
      </trkpt>
      <trkpt lat="43.67295" lon="3.8497">
        <ele>98.1</ele>
        <time>2018-09-16T08:53:36Z</time>
      </trkpt>
      <trkpt lat="43.67289" lon="3.84977">
        <ele>98.8</ele>
        <time>2018-09-16T08:53:39Z</time>
      </trkpt>
      <trkpt lat="43.67287" lon="3.84978">
        <ele>99</ele>
        <time>2018-09-16T08:53:40Z</time>
      </trkpt>
      <trkpt lat="43.67279" lon="3.84982">
        <ele>99.9</ele>
        <time>2018-09-16T08:53:44Z</time>
      </trkpt>
      <trkpt lat="43.67277" lon="3.84983">
        <ele>100.1</ele>
        <time>2018-09-16T08:53:45Z</time>
      </trkpt>
      <trkpt lat="43.6727" lon="3.84989">
        <ele>100.6</ele>
        <time>2018-09-16T08:53:49Z</time>
      </trkpt>
      <trkpt lat="43.67268" lon="3.8499">
        <ele>100.7</ele>
        <time>2018-09-16T08:53:50Z</time>
      </trkpt>
      <trkpt lat="43.67263" lon="3.84998">
        <ele>101.1</ele>
        <time>2018-09-16T08:53:54Z</time>
      </trkpt>
      <trkpt lat="43.67261" lon="3.85001">
        <ele>101.2</ele>
        <time>2018-09-16T08:53:55Z</time>
      </trkpt>
      <trkpt lat="43.67257" lon="3.85011">
        <ele>101.5</ele>
        <time>2018-09-16T08:53:58Z</time>
      </trkpt>
      <trkpt lat="43.67256" lon="3.85014">
        <ele>101.6</ele>
        <time>2018-09-16T08:53:59Z</time>
      </trkpt>
      <trkpt lat="43.67254" lon="3.85022">
        <ele>101.7</ele>
        <time>2018-09-16T08:54:01Z</time>
      </trkpt>
      <trkpt lat="43.67253" lon="3.85026">
        <ele>101.8</ele>
        <time>2018-09-16T08:54:02Z</time>
      </trkpt>
      <trkpt lat="43.6725" lon="3.85035">
        <ele>101.7</ele>
        <time>2018-09-16T08:54:04Z</time>
      </trkpt>
      <trkpt lat="43.67248" lon="3.85039">
        <ele>101.7</ele>
        <time>2018-09-16T08:54:05Z</time>
      </trkpt>
      <trkpt lat="43.67242" lon="3.85044">
        <ele>102</ele>
        <time>2018-09-16T08:54:07Z</time>
      </trkpt>
      <trkpt lat="43.6724" lon="3.85046">
        <ele>102.1</ele>
        <time>2018-09-16T08:54:08Z</time>
      </trkpt>
      <trkpt lat="43.67233" lon="3.85051">
        <ele>102.4</ele>
        <time>2018-09-16T08:54:11Z</time>
      </trkpt>
      <trkpt lat="43.6723" lon="3.85052">
        <ele>102.6</ele>
        <time>2018-09-16T08:54:12Z</time>
      </trkpt>
      <trkpt lat="43.67223" lon="3.85057">
        <ele>102.9</ele>
        <time>2018-09-16T08:54:15Z</time>
      </trkpt>
      <trkpt lat="43.67221" lon="3.85058">
        <ele>103.1</ele>
        <time>2018-09-16T08:54:16Z</time>
      </trkpt>
      <trkpt lat="43.67214" lon="3.85064">
        <ele>103.8</ele>
        <time>2018-09-16T08:54:19Z</time>
      </trkpt>
      <trkpt lat="43.67212" lon="3.85066">
        <ele>104</ele>
        <time>2018-09-16T08:54:20Z</time>
      </trkpt>
      <trkpt lat="43.67205" lon="3.85071">
        <ele>104.5</ele>
        <time>2018-09-16T08:54:24Z</time>
      </trkpt>
      <trkpt lat="43.67203" lon="3.85073">
        <ele>104.6</ele>
        <time>2018-09-16T08:54:25Z</time>
      </trkpt>
      <trkpt lat="43.67198" lon="3.85078">
        <ele>104.9</ele>
        <time>2018-09-16T08:54:28Z</time>
      </trkpt>
      <trkpt lat="43.67195" lon="3.8508">
        <ele>105.1</ele>
        <time>2018-09-16T08:54:29Z</time>
      </trkpt>
      <trkpt lat="43.6719" lon="3.85086">
        <ele>105.5</ele>
        <time>2018-09-16T08:54:32Z</time>
      </trkpt>
      <trkpt lat="43.67188" lon="3.85088">
        <ele>105.7</ele>
        <time>2018-09-16T08:54:33Z</time>
      </trkpt>
      <trkpt lat="43.67181" lon="3.85094">
        <ele>106.5</ele>
        <time>2018-09-16T08:54:37Z</time>
      </trkpt>
      <trkpt lat="43.67178" lon="3.85095">
        <ele>106.8</ele>
        <time>2018-09-16T08:54:38Z</time>
      </trkpt>
      <trkpt lat="43.67171" lon="3.85101">
        <ele>107.5</ele>
        <time>2018-09-16T08:54:42Z</time>
      </trkpt>
      <trkpt lat="43.67168" lon="3.85103">
        <ele>107.9</ele>
        <time>2018-09-16T08:54:43Z</time>
      </trkpt>
      <trkpt lat="43.67161" lon="3.85108">
        <ele>108.4</ele>
        <time>2018-09-16T08:54:46Z</time>
      </trkpt>
      <trkpt lat="43.67158" lon="3.8511">
        <ele>108.6</ele>
        <time>2018-09-16T08:54:47Z</time>
      </trkpt>
      <trkpt lat="43.67152" lon="3.85116">
        <ele>109</ele>
        <time>2018-09-16T08:54:50Z</time>
      </trkpt>
      <trkpt lat="43.6715" lon="3.85118">
        <ele>109.1</ele>
        <time>2018-09-16T08:54:51Z</time>
      </trkpt>
      <trkpt lat="43.67142" lon="3.85124">
        <ele>109.7</ele>
        <time>2018-09-16T08:54:55Z</time>
      </trkpt>
      <trkpt lat="43.6714" lon="3.85127">
        <ele>109.9</ele>
        <time>2018-09-16T08:54:56Z</time>
      </trkpt>
      <trkpt lat="43.67136" lon="3.85136">
        <ele>110.3</ele>
        <time>2018-09-16T08:54:59Z</time>
      </trkpt>
      <trkpt lat="43.67135" lon="3.85139">
        <ele>110.4</ele>
        <time>2018-09-16T08:55:00Z</time>
      </trkpt>
      <trkpt lat="43.67135" lon="3.85143">
        <ele>110.3</ele>
        <time>2018-09-16T08:55:01Z</time>
      </trkpt>
      <trkpt lat="43.67136" lon="3.85157">
        <ele>109.7</ele>
        <time>2018-09-16T08:55:02Z</time>
      </trkpt>
      <trkpt lat="43.67135" lon="3.85168">
        <ele>109.6</ele>
        <time>2018-09-16T08:55:04Z</time>
      </trkpt>
      <trkpt lat="43.67132" lon="3.85173">
        <ele>109.9</ele>
        <time>2018-09-16T08:55:05Z</time>
      </trkpt>
      <trkpt lat="43.67126" lon="3.85178">
        <ele>110.7</ele>
        <time>2018-09-16T08:55:09Z</time>
      </trkpt>
      <trkpt lat="43.67125" lon="3.8518">
        <ele>110.8</ele>
        <time>2018-09-16T08:55:10Z</time>
      </trkpt>
      <trkpt lat="43.67119" lon="3.85187">
        <ele>111.3</ele>
        <time>2018-09-16T08:55:13Z</time>
      </trkpt>
      <trkpt lat="43.67117" lon="3.8519">
        <ele>111.5</ele>
        <time>2018-09-16T08:55:14Z</time>
      </trkpt>
      <trkpt lat="43.67111" lon="3.85197">
        <ele>112</ele>
        <time>2018-09-16T08:55:17Z</time>
      </trkpt>
      <trkpt lat="43.67109" lon="3.852">
        <ele>112.3</ele>
        <time>2018-09-16T08:55:18Z</time>
      </trkpt>
      <trkpt lat="43.67104" lon="3.85208">
        <ele>113</ele>
        <time>2018-09-16T08:55:21Z</time>
      </trkpt>
      <trkpt lat="43.67102" lon="3.8521">
        <ele>113.3</ele>
        <time>2018-09-16T08:55:22Z</time>
      </trkpt>
      <trkpt lat="43.67096" lon="3.85218">
        <ele>114.2</ele>
        <time>2018-09-16T08:55:25Z</time>
      </trkpt>
      <trkpt lat="43.67095" lon="3.8522">
        <ele>114.3</ele>
        <time>2018-09-16T08:55:26Z</time>
      </trkpt>
      <trkpt lat="43.6709" lon="3.85228">
        <ele>114.8</ele>
        <time>2018-09-16T08:55:29Z</time>
      </trkpt>
      <trkpt lat="43.67088" lon="3.8523">
        <ele>115</ele>
        <time>2018-09-16T08:55:30Z</time>
      </trkpt>
      <trkpt lat="43.67082" lon="3.85235">
        <ele>115.6</ele>
        <time>2018-09-16T08:55:33Z</time>
      </trkpt>
      <trkpt lat="43.6708" lon="3.85237">
        <ele>115.7</ele>
        <time>2018-09-16T08:55:34Z</time>
      </trkpt>
      <trkpt lat="43.67075" lon="3.85244">
        <ele>115.8</ele>
        <time>2018-09-16T08:55:37Z</time>
      </trkpt>
      <trkpt lat="43.67073" lon="3.85246">
        <ele>115.9</ele>
        <time>2018-09-16T08:55:38Z</time>
      </trkpt>
      <trkpt lat="43.67067" lon="3.85253">
        <ele>116.1</ele>
        <time>2018-09-16T08:55:41Z</time>
      </trkpt>
      <trkpt lat="43.67064" lon="3.85253">
        <ele>116.3</ele>
        <time>2018-09-16T08:55:42Z</time>
      </trkpt>
      <trkpt lat="43.67057" lon="3.85254">
        <ele>116.8</ele>
        <time>2018-09-16T08:55:45Z</time>
      </trkpt>
      <trkpt lat="43.67054" lon="3.85255">
        <ele>116.9</ele>
        <time>2018-09-16T08:55:46Z</time>
      </trkpt>
      <trkpt lat="43.67047" lon="3.85259">
        <ele>117</ele>
        <time>2018-09-16T08:55:49Z</time>
      </trkpt>
      <trkpt lat="43.67045" lon="3.8526">
        <ele>117</ele>
        <time>2018-09-16T08:55:50Z</time>
      </trkpt>
      <trkpt lat="43.67037" lon="3.85265">
        <ele>117.1</ele>
        <time>2018-09-16T08:55:53Z</time>
      </trkpt>
      <trkpt lat="43.67035" lon="3.85266">
        <ele>117.2</ele>
        <time>2018-09-16T08:55:54Z</time>
      </trkpt>
      <trkpt lat="43.67027" lon="3.8527">
        <ele>117.3</ele>
        <time>2018-09-16T08:55:57Z</time>
      </trkpt>
      <trkpt lat="43.67024" lon="3.85271">
        <ele>117.2</ele>
        <time>2018-09-16T08:55:58Z</time>
      </trkpt>
      <trkpt lat="43.67021" lon="3.85274">
        <ele>117.1</ele>
        <time>2018-09-16T08:55:59Z</time>
      </trkpt>
      <trkpt lat="43.67015" lon="3.85284">
        <ele>116.7</ele>
        <time>2018-09-16T08:56:00Z</time>
      </trkpt>
      <trkpt lat="43.67015" lon="3.85291">
        <ele>116.3</ele>
        <time>2018-09-16T08:56:01Z</time>
      </trkpt>
      <trkpt lat="43.67017" lon="3.85298">
        <ele>116</ele>
        <time>2018-09-16T08:56:02Z</time>
      </trkpt>
      <trkpt lat="43.67019" lon="3.85306">
        <ele>115.6</ele>
        <time>2018-09-16T08:56:03Z</time>
      </trkpt>
      <trkpt lat="43.6702" lon="3.85314">
        <ele>115</ele>
        <time>2018-09-16T08:56:04Z</time>
      </trkpt>
      <trkpt lat="43.67022" lon="3.85323">
        <ele>114.4</ele>
        <time>2018-09-16T08:56:05Z</time>
      </trkpt>
      <trkpt lat="43.67023" lon="3.85328">
        <ele>114.1</ele>
        <time>2018-09-16T08:56:06Z</time>
      </trkpt>
      <trkpt lat="43.67023" lon="3.85341">
        <ele>112.6</ele>
        <time>2018-09-16T08:56:10Z</time>
      </trkpt>
      <trkpt lat="43.67021" lon="3.85344">
        <ele>112.2</ele>
        <time>2018-09-16T08:56:11Z</time>
      </trkpt>
      <trkpt lat="43.67016" lon="3.85348">
        <ele>111.5</ele>
        <time>2018-09-16T08:56:13Z</time>
      </trkpt>
      <trkpt lat="43.67008" lon="3.85353">
        <ele>110.8</ele>
        <time>2018-09-16T08:56:14Z</time>
      </trkpt>
      <trkpt lat="43.67002" lon="3.85361">
        <ele>110</ele>
        <time>2018-09-16T08:56:17Z</time>
      </trkpt>
      <trkpt lat="43.67" lon="3.85363">
        <ele>109.7</ele>
        <time>2018-09-16T08:56:18Z</time>
      </trkpt>
      <trkpt lat="43.66995" lon="3.85369">
        <ele>108.1</ele>
        <time>2018-09-16T08:56:22Z</time>
      </trkpt>
      <trkpt lat="43.66993" lon="3.85371">
        <ele>107.6</ele>
        <time>2018-09-16T08:56:23Z</time>
      </trkpt>
      <trkpt lat="43.66991" lon="3.85382">
        <ele>105.7</ele>
        <time>2018-09-16T08:56:27Z</time>
      </trkpt>
      <trkpt lat="43.66994" lon="3.85395">
        <ele>104.3</ele>
        <time>2018-09-16T08:56:28Z</time>
      </trkpt>
      <trkpt lat="43.66996" lon="3.854">
        <ele>103.9</ele>
        <time>2018-09-16T08:56:29Z</time>
      </trkpt>
      <trkpt lat="43.66998" lon="3.85406">
        <ele>103.3</ele>
        <time>2018-09-16T08:56:30Z</time>
      </trkpt>
      <trkpt lat="43.67003" lon="3.85413">
        <ele>102.3</ele>
        <time>2018-09-16T08:56:32Z</time>
      </trkpt>
      <trkpt lat="43.67008" lon="3.85417">
        <ele>101.4</ele>
        <time>2018-09-16T08:56:33Z</time>
      </trkpt>
      <trkpt lat="43.67013" lon="3.85415">
        <ele>101.3</ele>
        <time>2018-09-16T08:56:34Z</time>
      </trkpt>
      <trkpt lat="43.67019" lon="3.85408">
        <ele>102.1</ele>
        <time>2018-09-16T08:56:35Z</time>
      </trkpt>
      <trkpt lat="43.67025" lon="3.85404">
        <ele>102.4</ele>
        <time>2018-09-16T08:56:36Z</time>
      </trkpt>
      <trkpt lat="43.67031" lon="3.85401">
        <ele>102.6</ele>
        <time>2018-09-16T08:56:37Z</time>
      </trkpt>
      <trkpt lat="43.67036" lon="3.854">
        <ele>102.4</ele>
        <time>2018-09-16T08:56:38Z</time>
      </trkpt>
      <trkpt lat="43.6704" lon="3.85398">
        <ele>102.5</ele>
        <time>2018-09-16T08:56:39Z</time>
      </trkpt>
      <trkpt lat="43.67045" lon="3.85397">
        <ele>102.3</ele>
        <time>2018-09-16T08:56:40Z</time>
      </trkpt>
      <trkpt lat="43.6705" lon="3.85397">
        <ele>101.9</ele>
        <time>2018-09-16T08:56:41Z</time>
      </trkpt>
      <trkpt lat="43.67056" lon="3.85398">
        <ele>101.3</ele>
        <time>2018-09-16T08:56:42Z</time>
      </trkpt>
      <trkpt lat="43.67059" lon="3.85402">
        <ele>100.5</ele>
        <time>2018-09-16T08:56:43Z</time>
      </trkpt>
      <trkpt lat="43.67063" lon="3.8541">
        <ele>98.7</ele>
        <time>2018-09-16T08:56:44Z</time>
      </trkpt>
      <trkpt lat="43.67058" lon="3.85415">
        <ele>98.1</ele>
        <time>2018-09-16T08:56:45Z</time>
      </trkpt>
      <trkpt lat="43.67054" lon="3.85421">
        <ele>97.5</ele>
        <time>2018-09-16T08:56:46Z</time>
      </trkpt>
      <trkpt lat="43.6705" lon="3.85427">
        <ele>97</ele>
        <time>2018-09-16T08:56:47Z</time>
      </trkpt>
      <trkpt lat="43.67045" lon="3.85431">
        <ele>96.9</ele>
        <time>2018-09-16T08:56:48Z</time>
      </trkpt>
      <trkpt lat="43.6704" lon="3.85435">
        <ele>96.8</ele>
        <time>2018-09-16T08:56:49Z</time>
      </trkpt>
      <trkpt lat="43.67035" lon="3.85439">
        <ele>96.9</ele>
        <time>2018-09-16T08:56:50Z</time>
      </trkpt>
      <trkpt lat="43.67031" lon="3.85442">
        <ele>96.9</ele>
        <time>2018-09-16T08:56:51Z</time>
      </trkpt>
      <trkpt lat="43.67025" lon="3.85446">
        <ele>96.9</ele>
        <time>2018-09-16T08:56:52Z</time>
      </trkpt>
      <trkpt lat="43.67021" lon="3.85451">
        <ele>96.3</ele>
        <time>2018-09-16T08:56:53Z</time>
      </trkpt>
      <trkpt lat="43.67016" lon="3.85454">
        <ele>96</ele>
        <time>2018-09-16T08:56:54Z</time>
      </trkpt>
      <trkpt lat="43.67011" lon="3.85458">
        <ele>95.7</ele>
        <time>2018-09-16T08:56:55Z</time>
      </trkpt>
      <trkpt lat="43.67005" lon="3.85461">
        <ele>95.4</ele>
        <time>2018-09-16T08:56:56Z</time>
      </trkpt>
      <trkpt lat="43.66998" lon="3.85465">
        <ele>94.9</ele>
        <time>2018-09-16T08:56:57Z</time>
      </trkpt>
      <trkpt lat="43.66992" lon="3.85467">
        <ele>94.4</ele>
        <time>2018-09-16T08:56:58Z</time>
      </trkpt>
      <trkpt lat="43.66987" lon="3.85469">
        <ele>93.9</ele>
        <time>2018-09-16T08:56:59Z</time>
      </trkpt>
      <trkpt lat="43.66985" lon="3.85473">
        <ele>93.4</ele>
        <time>2018-09-16T08:57:01Z</time>
      </trkpt>
      <trkpt lat="43.66983" lon="3.85481">
        <ele>92.8</ele>
        <time>2018-09-16T08:57:02Z</time>
      </trkpt>
      <trkpt lat="43.6699" lon="3.85487">
        <ele>92.6</ele>
        <time>2018-09-16T08:57:04Z</time>
      </trkpt>
      <trkpt lat="43.66993" lon="3.85489">
        <ele>92.5</ele>
        <time>2018-09-16T08:57:05Z</time>
      </trkpt>
      <trkpt lat="43.66998" lon="3.85493">
        <ele>92.4</ele>
        <time>2018-09-16T08:57:07Z</time>
      </trkpt>
      <trkpt lat="43.67004" lon="3.85494">
        <ele>92.3</ele>
        <time>2018-09-16T08:57:08Z</time>
      </trkpt>
      <trkpt lat="43.67011" lon="3.85494">
        <ele>92</ele>
        <time>2018-09-16T08:57:10Z</time>
      </trkpt>
      <trkpt lat="43.67016" lon="3.85492">
        <ele>92</ele>
        <time>2018-09-16T08:57:11Z</time>
      </trkpt>
      <trkpt lat="43.67022" lon="3.8549">
        <ele>91.9</ele>
        <time>2018-09-16T08:57:12Z</time>
      </trkpt>
      <trkpt lat="43.67026" lon="3.85486">
        <ele>92.1</ele>
        <time>2018-09-16T08:57:13Z</time>
      </trkpt>
      <trkpt lat="43.6703" lon="3.85483">
        <ele>92</ele>
        <time>2018-09-16T08:57:14Z</time>
      </trkpt>
      <trkpt lat="43.67035" lon="3.85481">
        <ele>91.5</ele>
        <time>2018-09-16T08:57:15Z</time>
      </trkpt>
      <trkpt lat="43.67044" lon="3.8548">
        <ele>90.5</ele>
        <time>2018-09-16T08:59:15Z</time>
      </trkpt>
      <trkpt lat="43.67048" lon="3.8548">
        <ele>90.1</ele>
        <time>2018-09-16T08:59:16Z</time>
      </trkpt>
      <trkpt lat="43.67059" lon="3.85476">
        <ele>89.1</ele>
        <time>2018-09-16T08:59:17Z</time>
      </trkpt>
      <trkpt lat="43.67066" lon="3.85469">
        <ele>89</ele>
        <time>2018-09-16T08:59:19Z</time>
      </trkpt>
      <trkpt lat="43.67071" lon="3.85467">
        <ele>88.5</ele>
        <time>2018-09-16T08:59:20Z</time>
      </trkpt>
      <trkpt lat="43.67075" lon="3.85464">
        <ele>88.4</ele>
        <time>2018-09-16T08:59:21Z</time>
      </trkpt>
      <trkpt lat="43.67081" lon="3.8546">
        <ele>88.1</ele>
        <time>2018-09-16T08:59:22Z</time>
      </trkpt>
      <trkpt lat="43.67086" lon="3.85458">
        <ele>87.9</ele>
        <time>2018-09-16T08:59:23Z</time>
      </trkpt>
      <trkpt lat="43.67091" lon="3.85455">
        <ele>87.9</ele>
        <time>2018-09-16T08:59:24Z</time>
      </trkpt>
      <trkpt lat="43.67095" lon="3.85453">
        <ele>87.9</ele>
        <time>2018-09-16T08:59:25Z</time>
      </trkpt>
      <trkpt lat="43.671" lon="3.85451">
        <ele>87.9</ele>
        <time>2018-09-16T08:59:26Z</time>
      </trkpt>
      <trkpt lat="43.67105" lon="3.85448">
        <ele>87.9</ele>
        <time>2018-09-16T08:59:27Z</time>
      </trkpt>
      <trkpt lat="43.67109" lon="3.85445">
        <ele>88.1</ele>
        <time>2018-09-16T08:59:28Z</time>
      </trkpt>
      <trkpt lat="43.67114" lon="3.85443">
        <ele>88.1</ele>
        <time>2018-09-16T08:59:29Z</time>
      </trkpt>
      <trkpt lat="43.6712" lon="3.85443">
        <ele>87.6</ele>
        <time>2018-09-16T08:59:30Z</time>
      </trkpt>
      <trkpt lat="43.67128" lon="3.85436">
        <ele>88.3</ele>
        <time>2018-09-16T08:59:32Z</time>
      </trkpt>
      <trkpt lat="43.67131" lon="3.85434">
        <ele>88.4</ele>
        <time>2018-09-16T08:59:33Z</time>
      </trkpt>
      <trkpt lat="43.67137" lon="3.85427">
        <ele>89.3</ele>
        <time>2018-09-16T08:59:35Z</time>
      </trkpt>
      <trkpt lat="43.6714" lon="3.85424">
        <ele>89.6</ele>
        <time>2018-09-16T08:59:36Z</time>
      </trkpt>
      <trkpt lat="43.67146" lon="3.85418">
        <ele>90.3</ele>
        <time>2018-09-16T08:59:38Z</time>
      </trkpt>
      <trkpt lat="43.67148" lon="3.85417">
        <ele>90.3</ele>
        <time>2018-09-16T08:59:39Z</time>
      </trkpt>
      <trkpt lat="43.67155" lon="3.85424">
        <ele>88.7</ele>
        <time>2018-09-16T08:59:47Z</time>
      </trkpt>
      <trkpt lat="43.67156" lon="3.85425">
        <ele>88.5</ele>
        <time>2018-09-16T08:59:48Z</time>
      </trkpt>
      <trkpt lat="43.67161" lon="3.85434">
        <ele>86.8</ele>
        <time>2018-09-16T08:59:54Z</time>
      </trkpt>
      <trkpt lat="43.67162" lon="3.85436">
        <ele>86.4</ele>
        <time>2018-09-16T08:59:55Z</time>
      </trkpt>
      <trkpt lat="43.67163" lon="3.85447">
        <ele>84.9</ele>
        <time>2018-09-16T09:00:00Z</time>
      </trkpt>
      <trkpt lat="43.67164" lon="3.85449">
        <ele>84.6</ele>
        <time>2018-09-16T09:00:01Z</time>
      </trkpt>
      <trkpt lat="43.67165" lon="3.85459">
        <ele>83.5</ele>
        <time>2018-09-16T09:00:06Z</time>
      </trkpt>
      <trkpt lat="43.67165" lon="3.85462">
        <ele>83.2</ele>
        <time>2018-09-16T09:00:07Z</time>
      </trkpt>
      <trkpt lat="43.67166" lon="3.85473">
        <ele>81.9</ele>
        <time>2018-09-16T09:00:10Z</time>
      </trkpt>
      <trkpt lat="43.67165" lon="3.85478">
        <ele>81.4</ele>
        <time>2018-09-16T09:00:11Z</time>
      </trkpt>
      <trkpt lat="43.67163" lon="3.85494">
        <ele>79.8</ele>
        <time>2018-09-16T09:00:12Z</time>
      </trkpt>
      <trkpt lat="43.67162" lon="3.85502">
        <ele>79</ele>
        <time>2018-09-16T09:00:13Z</time>
      </trkpt>
      <trkpt lat="43.6716" lon="3.85509">
        <ele>78.7</ele>
        <time>2018-09-16T09:00:14Z</time>
      </trkpt>
      <trkpt lat="43.67156" lon="3.85514">
        <ele>78.6</ele>
        <time>2018-09-16T09:00:15Z</time>
      </trkpt>
      <trkpt lat="43.67153" lon="3.8552">
        <ele>78.4</ele>
        <time>2018-09-16T09:00:16Z</time>
      </trkpt>
      <trkpt lat="43.67149" lon="3.85527">
        <ele>78.3</ele>
        <time>2018-09-16T09:00:17Z</time>
      </trkpt>
      <trkpt lat="43.67146" lon="3.85533">
        <ele>78.2</ele>
        <time>2018-09-16T09:00:18Z</time>
      </trkpt>
      <trkpt lat="43.67143" lon="3.85539">
        <ele>78</ele>
        <time>2018-09-16T09:00:19Z</time>
      </trkpt>
      <trkpt lat="43.67139" lon="3.85546">
        <ele>77.7</ele>
        <time>2018-09-16T09:00:20Z</time>
      </trkpt>
      <trkpt lat="43.67135" lon="3.85553">
        <ele>77.3</ele>
        <time>2018-09-16T09:00:21Z</time>
      </trkpt>
      <trkpt lat="43.67131" lon="3.8556">
        <ele>77.2</ele>
        <time>2018-09-16T09:00:22Z</time>
      </trkpt>
      <trkpt lat="43.67128" lon="3.85567">
        <ele>77.1</ele>
        <time>2018-09-16T09:00:23Z</time>
      </trkpt>
      <trkpt lat="43.67127" lon="3.85575">
        <ele>77</ele>
        <time>2018-09-16T09:00:24Z</time>
      </trkpt>
      <trkpt lat="43.67123" lon="3.85584">
        <ele>77.2</ele>
        <time>2018-09-16T09:00:25Z</time>
      </trkpt>
      <trkpt lat="43.67125" lon="3.85594">
        <ele>77.4</ele>
        <time>2018-09-16T09:00:26Z</time>
      </trkpt>
      <trkpt lat="43.67126" lon="3.85602">
        <ele>77.6</ele>
        <time>2018-09-16T09:00:27Z</time>
      </trkpt>
      <trkpt lat="43.67126" lon="3.85609">
        <ele>77.9</ele>
        <time>2018-09-16T09:00:28Z</time>
      </trkpt>
      <trkpt lat="43.67128" lon="3.85615">
        <ele>77.9</ele>
        <time>2018-09-16T09:00:29Z</time>
      </trkpt>
      <trkpt lat="43.67129" lon="3.85621">
        <ele>78.1</ele>
        <time>2018-09-16T09:00:30Z</time>
      </trkpt>
      <trkpt lat="43.67132" lon="3.85628">
        <ele>78.1</ele>
        <time>2018-09-16T09:00:31Z</time>
      </trkpt>
      <trkpt lat="43.67134" lon="3.85634">
        <ele>78.2</ele>
        <time>2018-09-16T09:00:32Z</time>
      </trkpt>
      <trkpt lat="43.67137" lon="3.8564">
        <ele>78.2</ele>
        <time>2018-09-16T09:00:33Z</time>
      </trkpt>
      <trkpt lat="43.67138" lon="3.85646">
        <ele>78.3</ele>
        <time>2018-09-16T09:00:34Z</time>
      </trkpt>
      <trkpt lat="43.67141" lon="3.85652">
        <ele>78.3</ele>
        <time>2018-09-16T09:00:35Z</time>
      </trkpt>
      <trkpt lat="43.67142" lon="3.85657">
        <ele>78.4</ele>
        <time>2018-09-16T09:00:36Z</time>
      </trkpt>
      <trkpt lat="43.67146" lon="3.85665">
        <ele>78.4</ele>
        <time>2018-09-16T09:00:39Z</time>
      </trkpt>
      <trkpt lat="43.67146" lon="3.85668">
        <ele>78.5</ele>
        <time>2018-09-16T09:00:40Z</time>
      </trkpt>
      <trkpt lat="43.67138" lon="3.8567">
        <ele>79.2</ele>
        <time>2018-09-16T09:00:44Z</time>
      </trkpt>
      <trkpt lat="43.67135" lon="3.85669">
        <ele>79.4</ele>
        <time>2018-09-16T09:00:45Z</time>
      </trkpt>
      <trkpt lat="43.67127" lon="3.85667">
        <ele>79.9</ele>
        <time>2018-09-16T09:00:47Z</time>
      </trkpt>
      <trkpt lat="43.67123" lon="3.85667">
        <ele>80.2</ele>
        <time>2018-09-16T09:00:48Z</time>
      </trkpt>
      <trkpt lat="43.67116" lon="3.85667">
        <ele>80.7</ele>
        <time>2018-09-16T09:00:50Z</time>
      </trkpt>
      <trkpt lat="43.67112" lon="3.85667">
        <ele>80.9</ele>
        <time>2018-09-16T09:00:51Z</time>
      </trkpt>
      <trkpt lat="43.67105" lon="3.85669">
        <ele>81.3</ele>
        <time>2018-09-16T09:00:53Z</time>
      </trkpt>
      <trkpt lat="43.67102" lon="3.85671">
        <ele>81.5</ele>
        <time>2018-09-16T09:00:54Z</time>
      </trkpt>
      <trkpt lat="43.67095" lon="3.85673">
        <ele>81.8</ele>
        <time>2018-09-16T09:00:56Z</time>
      </trkpt>
      <trkpt lat="43.67092" lon="3.85674">
        <ele>82</ele>
        <time>2018-09-16T09:00:57Z</time>
      </trkpt>
      <trkpt lat="43.67086" lon="3.85675">
        <ele>82.2</ele>
        <time>2018-09-16T09:00:59Z</time>
      </trkpt>
      <trkpt lat="43.67082" lon="3.85675">
        <ele>82.3</ele>
        <time>2018-09-16T09:01:00Z</time>
      </trkpt>
      <trkpt lat="43.67074" lon="3.85677">
        <ele>82.6</ele>
        <time>2018-09-16T09:01:01Z</time>
      </trkpt>
      <trkpt lat="43.6707" lon="3.85677">
        <ele>82.7</ele>
        <time>2018-09-16T09:01:02Z</time>
      </trkpt>
      <trkpt lat="43.67061" lon="3.85679">
        <ele>82.9</ele>
        <time>2018-09-16T09:01:04Z</time>
      </trkpt>
      <trkpt lat="43.67057" lon="3.85681">
        <ele>83</ele>
        <time>2018-09-16T09:01:05Z</time>
      </trkpt>
      <trkpt lat="43.67052" lon="3.85685">
        <ele>82.9</ele>
        <time>2018-09-16T09:01:06Z</time>
      </trkpt>
      <trkpt lat="43.67047" lon="3.85687">
        <ele>82.7</ele>
        <time>2018-09-16T09:01:07Z</time>
      </trkpt>
      <trkpt lat="43.67042" lon="3.85688">
        <ele>82.5</ele>
        <time>2018-09-16T09:01:08Z</time>
      </trkpt>
      <trkpt lat="43.67038" lon="3.85689">
        <ele>82.4</ele>
        <time>2018-09-16T09:01:09Z</time>
      </trkpt>
      <trkpt lat="43.67032" lon="3.85691">
        <ele>82.2</ele>
        <time>2018-09-16T09:01:10Z</time>
      </trkpt>
      <trkpt lat="43.67027" lon="3.85692">
        <ele>82</ele>
        <time>2018-09-16T09:01:11Z</time>
      </trkpt>
      <trkpt lat="43.67022" lon="3.85693">
        <ele>81.8</ele>
        <time>2018-09-16T09:01:12Z</time>
      </trkpt>
      <trkpt lat="43.67017" lon="3.85693">
        <ele>81.6</ele>
        <time>2018-09-16T09:01:13Z</time>
      </trkpt>
      <trkpt lat="43.67011" lon="3.85692">
        <ele>81.4</ele>
        <time>2018-09-16T09:01:14Z</time>
      </trkpt>
      <trkpt lat="43.67007" lon="3.8569">
        <ele>81.4</ele>
        <time>2018-09-16T09:01:15Z</time>
      </trkpt>
      <trkpt lat="43.67002" lon="3.85688">
        <ele>81.3</ele>
        <time>2018-09-16T09:01:16Z</time>
      </trkpt>
      <trkpt lat="43.66997" lon="3.85686">
        <ele>81.2</ele>
        <time>2018-09-16T09:01:17Z</time>
      </trkpt>
      <trkpt lat="43.66991" lon="3.85684">
        <ele>81.2</ele>
        <time>2018-09-16T09:01:18Z</time>
      </trkpt>
      <trkpt lat="43.66985" lon="3.85682">
        <ele>81.1</ele>
        <time>2018-09-16T09:01:19Z</time>
      </trkpt>
      <trkpt lat="43.66979" lon="3.85682">
        <ele>81</ele>
        <time>2018-09-16T09:01:20Z</time>
      </trkpt>
      <trkpt lat="43.66973" lon="3.85682">
        <ele>80.9</ele>
        <time>2018-09-16T09:01:21Z</time>
      </trkpt>
      <trkpt lat="43.66967" lon="3.85682">
        <ele>80.7</ele>
        <time>2018-09-16T09:01:22Z</time>
      </trkpt>
      <trkpt lat="43.66961" lon="3.85682">
        <ele>80.5</ele>
        <time>2018-09-16T09:01:23Z</time>
      </trkpt>
      <trkpt lat="43.66956" lon="3.85682">
        <ele>80.3</ele>
        <time>2018-09-16T09:01:24Z</time>
      </trkpt>
      <trkpt lat="43.6695" lon="3.85683">
        <ele>80</ele>
        <time>2018-09-16T09:01:25Z</time>
      </trkpt>
      <trkpt lat="43.66945" lon="3.85684">
        <ele>79.8</ele>
        <time>2018-09-16T09:01:26Z</time>
      </trkpt>
      <trkpt lat="43.66939" lon="3.85685">
        <ele>79.5</ele>
        <time>2018-09-16T09:01:27Z</time>
      </trkpt>
      <trkpt lat="43.66934" lon="3.85685">
        <ele>79.3</ele>
        <time>2018-09-16T09:01:28Z</time>
      </trkpt>
      <trkpt lat="43.66929" lon="3.85686">
        <ele>79.1</ele>
        <time>2018-09-16T09:01:29Z</time>
      </trkpt>
      <trkpt lat="43.66923" lon="3.8569">
        <ele>78.5</ele>
        <time>2018-09-16T09:01:30Z</time>
      </trkpt>
      <trkpt lat="43.66918" lon="3.85692">
        <ele>78.2</ele>
        <time>2018-09-16T09:01:31Z</time>
      </trkpt>
      <trkpt lat="43.66923" lon="3.85685">
        <ele>78.9</ele>
        <time>2018-09-16T09:01:41Z</time>
      </trkpt>
      <trkpt lat="43.66924" lon="3.85681">
        <ele>79.2</ele>
        <time>2018-09-16T09:01:42Z</time>
      </trkpt>
      <trkpt lat="43.66925" lon="3.85673">
        <ele>79.8</ele>
        <time>2018-09-16T09:01:44Z</time>
      </trkpt>
      <trkpt lat="43.66926" lon="3.85669">
        <ele>80.2</ele>
        <time>2018-09-16T09:01:45Z</time>
      </trkpt>
      <trkpt lat="43.66929" lon="3.85659">
        <ele>81</ele>
        <time>2018-09-16T09:01:48Z</time>
      </trkpt>
      <trkpt lat="43.6693" lon="3.85656">
        <ele>81.2</ele>
        <time>2018-09-16T09:01:49Z</time>
      </trkpt>
      <trkpt lat="43.66934" lon="3.85647">
        <ele>82</ele>
        <time>2018-09-16T09:01:52Z</time>
      </trkpt>
      <trkpt lat="43.66934" lon="3.85644">
        <ele>82.3</ele>
        <time>2018-09-16T09:01:53Z</time>
      </trkpt>
      <trkpt lat="43.66937" lon="3.85634">
        <ele>83.1</ele>
        <time>2018-09-16T09:01:57Z</time>
      </trkpt>
      <trkpt lat="43.66937" lon="3.85632">
        <ele>83.2</ele>
        <time>2018-09-16T09:01:58Z</time>
      </trkpt>
      <trkpt lat="43.66936" lon="3.8562">
        <ele>84.1</ele>
        <time>2018-09-16T09:02:03Z</time>
      </trkpt>
      <trkpt lat="43.66935" lon="3.85617">
        <ele>84.2</ele>
        <time>2018-09-16T09:02:04Z</time>
      </trkpt>
      <trkpt lat="43.66931" lon="3.85606">
        <ele>84.7</ele>
        <time>2018-09-16T09:02:08Z</time>
      </trkpt>
      <trkpt lat="43.66931" lon="3.85602">
        <ele>84.8</ele>
        <time>2018-09-16T09:02:09Z</time>
      </trkpt>
      <trkpt lat="43.66932" lon="3.8559">
        <ele>85.3</ele>
        <time>2018-09-16T09:02:13Z</time>
      </trkpt>
      <trkpt lat="43.66933" lon="3.85587">
        <ele>85.5</ele>
        <time>2018-09-16T09:02:14Z</time>
      </trkpt>
      <trkpt lat="43.66932" lon="3.85576">
        <ele>86</ele>
        <time>2018-09-16T09:02:17Z</time>
      </trkpt>
      <trkpt lat="43.66931" lon="3.85572">
        <ele>86.1</ele>
        <time>2018-09-16T09:02:18Z</time>
      </trkpt>
      <trkpt lat="43.66931" lon="3.8556">
        <ele>86.8</ele>
        <time>2018-09-16T09:02:22Z</time>
      </trkpt>
      <trkpt lat="43.6693" lon="3.85557">
        <ele>86.9</ele>
        <time>2018-09-16T09:02:23Z</time>
      </trkpt>
      <trkpt lat="43.66928" lon="3.85546">
        <ele>87.2</ele>
        <time>2018-09-16T09:02:26Z</time>
      </trkpt>
      <trkpt lat="43.66928" lon="3.85541">
        <ele>87.3</ele>
        <time>2018-09-16T09:02:27Z</time>
      </trkpt>
      <trkpt lat="43.66927" lon="3.85537">
        <ele>87.4</ele>
        <time>2018-09-16T09:02:28Z</time>
      </trkpt>
      <trkpt lat="43.66927" lon="3.85521">
        <ele>87.8</ele>
        <time>2018-09-16T09:02:29Z</time>
      </trkpt>
      <trkpt lat="43.66928" lon="3.85516">
        <ele>88</ele>
        <time>2018-09-16T09:02:31Z</time>
      </trkpt>
      <trkpt lat="43.66928" lon="3.85505">
        <ele>88.2</ele>
        <time>2018-09-16T09:02:32Z</time>
      </trkpt>
      <trkpt lat="43.66927" lon="3.85494">
        <ele>88.1</ele>
        <time>2018-09-16T09:02:35Z</time>
      </trkpt>
      <trkpt lat="43.66927" lon="3.85493">
        <ele>88.1</ele>
        <time>2018-09-16T09:02:36Z</time>
      </trkpt>
      <trkpt lat="43.66923" lon="3.85492">
        <ele>87.7</ele>
        <time>2018-09-16T09:02:38Z</time>
      </trkpt>
      <trkpt lat="43.66915" lon="3.85493">
        <ele>86.8</ele>
        <time>2018-09-16T09:02:39Z</time>
      </trkpt>
      <trkpt lat="43.66911" lon="3.85496">
        <ele>86.2</ele>
        <time>2018-09-16T09:02:40Z</time>
      </trkpt>
      <trkpt lat="43.66907" lon="3.85498">
        <ele>85.6</ele>
        <time>2018-09-16T09:02:41Z</time>
      </trkpt>
      <trkpt lat="43.66901" lon="3.855">
        <ele>84.7</ele>
        <time>2018-09-16T09:02:42Z</time>
      </trkpt>
      <trkpt lat="43.66895" lon="3.85505">
        <ele>83.9</ele>
        <time>2018-09-16T09:02:43Z</time>
      </trkpt>
      <trkpt lat="43.66889" lon="3.85508">
        <ele>83</ele>
        <time>2018-09-16T09:02:44Z</time>
      </trkpt>
      <trkpt lat="43.66883" lon="3.85511">
        <ele>82.6</ele>
        <time>2018-09-16T09:02:45Z</time>
      </trkpt>
      <trkpt lat="43.66877" lon="3.85515">
        <ele>82.1</ele>
        <time>2018-09-16T09:02:46Z</time>
      </trkpt>
      <trkpt lat="43.6687" lon="3.8552">
        <ele>81.6</ele>
        <time>2018-09-16T09:02:47Z</time>
      </trkpt>
      <trkpt lat="43.66862" lon="3.85526">
        <ele>81.1</ele>
        <time>2018-09-16T09:02:48Z</time>
      </trkpt>
      <trkpt lat="43.66855" lon="3.85531">
        <ele>80.5</ele>
        <time>2018-09-16T09:02:49Z</time>
      </trkpt>
      <trkpt lat="43.66848" lon="3.85534">
        <ele>79.9</ele>
        <time>2018-09-16T09:02:50Z</time>
      </trkpt>
      <trkpt lat="43.6684" lon="3.85539">
        <ele>79.4</ele>
        <time>2018-09-16T09:02:51Z</time>
      </trkpt>
      <trkpt lat="43.66834" lon="3.85544">
        <ele>79</ele>
        <time>2018-09-16T09:02:52Z</time>
      </trkpt>
      <trkpt lat="43.66826" lon="3.85548">
        <ele>78.7</ele>
        <time>2018-09-16T09:02:53Z</time>
      </trkpt>
      <trkpt lat="43.66817" lon="3.85554">
        <ele>78.4</ele>
        <time>2018-09-16T09:02:54Z</time>
      </trkpt>
      <trkpt lat="43.66812" lon="3.85554">
        <ele>78.2</ele>
        <time>2018-09-16T09:02:55Z</time>
      </trkpt>
      <trkpt lat="43.66805" lon="3.85559">
        <ele>77.9</ele>
        <time>2018-09-16T09:02:56Z</time>
      </trkpt>
      <trkpt lat="43.66798" lon="3.85566">
        <ele>77.4</ele>
        <time>2018-09-16T09:02:57Z</time>
      </trkpt>
      <trkpt lat="43.66792" lon="3.85574">
        <ele>76.8</ele>
        <time>2018-09-16T09:02:58Z</time>
      </trkpt>
      <trkpt lat="43.66785" lon="3.85582">
        <ele>76.3</ele>
        <time>2018-09-16T09:02:59Z</time>
      </trkpt>
      <trkpt lat="43.66781" lon="3.85591">
        <ele>75.8</ele>
        <time>2018-09-16T09:03:00Z</time>
      </trkpt>
      <trkpt lat="43.66777" lon="3.856">
        <ele>75.4</ele>
        <time>2018-09-16T09:03:01Z</time>
      </trkpt>
      <trkpt lat="43.66773" lon="3.85609">
        <ele>74.9</ele>
        <time>2018-09-16T09:03:02Z</time>
      </trkpt>
      <trkpt lat="43.66769" lon="3.85619">
        <ele>74.7</ele>
        <time>2018-09-16T09:03:03Z</time>
      </trkpt>
      <trkpt lat="43.66766" lon="3.85628">
        <ele>74.6</ele>
        <time>2018-09-16T09:03:04Z</time>
      </trkpt>
      <trkpt lat="43.66763" lon="3.85636">
        <ele>74.5</ele>
        <time>2018-09-16T09:03:05Z</time>
      </trkpt>
      <trkpt lat="43.6676" lon="3.85644">
        <ele>74.4</ele>
        <time>2018-09-16T09:03:06Z</time>
      </trkpt>
      <trkpt lat="43.66757" lon="3.85653">
        <ele>74.5</ele>
        <time>2018-09-16T09:03:07Z</time>
      </trkpt>
      <trkpt lat="43.66754" lon="3.85661">
        <ele>74.7</ele>
        <time>2018-09-16T09:03:08Z</time>
      </trkpt>
      <trkpt lat="43.66752" lon="3.85667">
        <ele>74.9</ele>
        <time>2018-09-16T09:03:09Z</time>
      </trkpt>
      <trkpt lat="43.6675" lon="3.85676">
        <ele>75</ele>
        <time>2018-09-16T09:03:10Z</time>
      </trkpt>
      <trkpt lat="43.66747" lon="3.85683">
        <ele>75.1</ele>
        <time>2018-09-16T09:03:11Z</time>
      </trkpt>
      <trkpt lat="43.66743" lon="3.85689">
        <ele>75.2</ele>
        <time>2018-09-16T09:03:12Z</time>
      </trkpt>
      <trkpt lat="43.66741" lon="3.85697">
        <ele>75.3</ele>
        <time>2018-09-16T09:03:13Z</time>
      </trkpt>
      <trkpt lat="43.66739" lon="3.85703">
        <ele>75.4</ele>
        <time>2018-09-16T09:03:14Z</time>
      </trkpt>
      <trkpt lat="43.66736" lon="3.85709">
        <ele>75.5</ele>
        <time>2018-09-16T09:03:15Z</time>
      </trkpt>
      <trkpt lat="43.66733" lon="3.8572">
        <ele>75.6</ele>
        <time>2018-09-16T09:03:17Z</time>
      </trkpt>
      <trkpt lat="43.66732" lon="3.85722">
        <ele>75.6</ele>
        <time>2018-09-16T09:03:18Z</time>
      </trkpt>
      <trkpt lat="43.66736" lon="3.85731">
        <ele>75.5</ele>
        <time>2018-09-16T09:03:23Z</time>
      </trkpt>
      <trkpt lat="43.66737" lon="3.85734">
        <ele>75.5</ele>
        <time>2018-09-16T09:03:24Z</time>
      </trkpt>
      <trkpt lat="43.6674" lon="3.85745">
        <ele>75.4</ele>
        <time>2018-09-16T09:03:28Z</time>
      </trkpt>
      <trkpt lat="43.6674" lon="3.85749">
        <ele>75.4</ele>
        <time>2018-09-16T09:03:28.666Z</time>
      </trkpt>
      <trkpt lat="43.6674" lon="3.85747">
        <ele>75.4</ele>
        <time>2018-09-16T09:03:29Z</time>
      </trkpt>
      <trkpt lat="43.66728" lon="3.85726">
        <ele>75.8</ele>
        <time>2018-09-16T09:03:29.679Z</time>
      </trkpt>
      <trkpt lat="43.66657" lon="3.85831">
        <ele>81.3</ele>
        <time>2018-09-16T09:03:33.328Z</time>
      </trkpt>
      <trkpt lat="43.66633" lon="3.85823">
        <ele>81.8</ele>
        <time>2018-09-16T09:03:34.194Z</time>
      </trkpt>
      <trkpt lat="43.66616" lon="3.85696">
        <ele>78.9</ele>
        <time>2018-09-16T09:03:37.474Z</time>
      </trkpt>
      <trkpt lat="43.66559" lon="3.85687">
        <ele>80</ele>
        <time>2018-09-16T09:03:39.488Z</time>
      </trkpt>
      <trkpt lat="43.66551" lon="3.85618">
        <ele>80.2</ele>
        <time>2018-09-16T09:03:41.264Z</time>
        <extensions>
          <visugpx:TrkExtension xmlns:visugpx="https://www.visugpx.com/editgpx/">
            <visugpx:node>1</visugpx:node>
            </visugpx:TrkExtension>
        </extensions>
      </trkpt>
    </trkseg>
  </trk>
  <trk>
    <name><![CDATA[Pinède Montferrier Sur Lez]]></name>
    <extensions>
      <line xmlns="http://www.topografix.com/GPX/gpx_style/0/2">
        <color>00FF00</color>
        <width>4</width>
      </line>
    </extensions>
    <trkseg>
      <trkpt lat="43.66531" lon="3.85699">
        <ele>81</ele>
        <time>2024-04-19T06:05:55.000Z</time>
      </trkpt>
      <trkpt lat="43.66539" lon="3.85701">
        <ele>80.8</ele>
        <time>2024-04-19T06:05:57.728Z</time>
      </trkpt>
      <trkpt lat="43.66586" lon="3.85697">
        <ele>79.9</ele>
        <time>2024-04-19T06:06:13.789Z</time>
      </trkpt>
      <trkpt lat="43.6661" lon="3.857">
        <ele>79.2</ele>
        <time>2024-04-19T06:06:21.769Z</time>
      </trkpt>
      <trkpt lat="43.66615" lon="3.85706">
        <ele>79.3</ele>
        <time>2024-04-19T06:06:24.277Z</time>
      </trkpt>
      <trkpt lat="43.66624" lon="3.85793">
        <ele>81.1</ele>
        <time>2024-04-19T06:06:49.392Z</time>
      </trkpt>
      <trkpt lat="43.66631" lon="3.85821">
        <ele>81.8</ele>
        <time>2024-04-19T06:06:57.976Z</time>
      </trkpt>
      <trkpt lat="43.66657" lon="3.85833">
        <ele>81.3</ele>
        <time>2024-04-19T06:07:07.350Z</time>
      </trkpt>
      <trkpt lat="43.66669" lon="3.85834">
        <ele>81</ele>
        <time>2024-04-19T06:07:11.380Z</time>
      </trkpt>
      <trkpt lat="43.6668" lon="3.85819">
        <ele>80</ele>
        <time>2024-04-19T06:07:16.267Z</time>
      </trkpt>
      <trkpt lat="43.66684" lon="3.85812">
        <ele>79.6</ele>
        <time>2024-04-19T06:07:18.308Z</time>
      </trkpt>
      <trkpt lat="43.66714" lon="3.85763">
        <ele>76.4</ele>
        <time>2024-04-19T06:07:32.997Z</time>
      </trkpt>
      <trkpt lat="43.66717" lon="3.85755">
        <ele>76.2</ele>
        <time>2024-04-19T06:07:35.145Z</time>
      </trkpt>
      <trkpt lat="43.66726" lon="3.85739">
        <ele>75.9</ele>
        <time>2024-04-19T06:07:40.126Z</time>
      </trkpt>
      <trkpt lat="43.66733" lon="3.8573">
        <ele>75.6</ele>
        <time>2024-04-19T06:07:43.269Z</time>
      </trkpt>
      <trkpt lat="43.66739" lon="3.85739">
        <ele>75.4</ele>
        <time>2024-04-19T06:07:46.258Z</time>
      </trkpt>
      <trkpt lat="43.66738" lon="3.85746">
        <ele>75.4</ele>
        <time>2024-04-19T06:07:48.123Z</time>
      </trkpt>
      <trkpt lat="43.66732" lon="3.85756">
        <ele>75.6</ele>
        <time>2024-04-19T06:07:51.754Z</time>
      </trkpt>
      <trkpt lat="43.66743" lon="3.85766">
        <ele>75.3</ele>
        <time>2024-04-19T06:07:56.196Z</time>
      </trkpt>
      <trkpt lat="43.66756" lon="3.85774">
        <ele>74.4</ele>
        <time>2024-04-19T06:08:00.697Z</time>
      </trkpt>
      <trkpt lat="43.66756" lon="3.85786">
        <ele>74.4</ele>
        <time>2024-04-19T06:08:03.835Z</time>
      </trkpt>
      <trkpt lat="43.66745" lon="3.85807">
        <ele>75.6</ele>
        <time>2024-04-19T06:08:12.158Z</time>
      </trkpt>
      <trkpt lat="43.66737" lon="3.85813">
        <ele>76.7</ele>
        <time>2024-04-19T06:08:17.074Z</time>
      </trkpt>
      <trkpt lat="43.66728" lon="3.85809">
        <ele>77.5</ele>
        <time>2024-04-19T06:08:21.573Z</time>
      </trkpt>
      <trkpt lat="43.66724" lon="3.85819">
        <ele>78.3</ele>
        <time>2024-04-19T06:08:25.674Z</time>
      </trkpt>
      <trkpt lat="43.66718" lon="3.85848">
        <ele>79.8</ele>
        <time>2024-04-19T06:08:35.512Z</time>
      </trkpt>
      <trkpt lat="43.66713" lon="3.85853">
        <ele>80.3</ele>
        <time>2024-04-19T06:08:38.413Z</time>
      </trkpt>
      <trkpt lat="43.66644" lon="3.85824">
        <ele>81.5</ele>
        <time>2024-04-19T06:09:05.869Z</time>
      </trkpt>
      <trkpt lat="43.66639" lon="3.85822">
        <ele>81.6</ele>
        <time>2024-04-19T06:09:07.867Z</time>
      </trkpt>
      <trkpt lat="43.66633" lon="3.85831">
        <ele>82.1</ele>
        <time>2024-04-19T06:09:11.699Z</time>
      </trkpt>
      <trkpt lat="43.66625" lon="3.85844">
        <ele>83.3</ele>
        <time>2024-04-19T06:09:17.834Z</time>
      </trkpt>
      <trkpt lat="43.66621" lon="3.85855">
        <ele>84.2</ele>
        <time>2024-04-19T06:09:22.320Z</time>
      </trkpt>
      <trkpt lat="43.66618" lon="3.85863">
        <ele>84.9</ele>
        <time>2024-04-19T06:09:25.676Z</time>
      </trkpt>
      <trkpt lat="43.66609" lon="3.85887">
        <ele>86.8</ele>
        <time>2024-04-19T06:09:35.392Z</time>
      </trkpt>
      <trkpt lat="43.66606" lon="3.85893">
        <ele>87.1</ele>
        <time>2024-04-19T06:09:37.679Z</time>
      </trkpt>
      <trkpt lat="43.666" lon="3.85919">
        <ele>88.3</ele>
        <time>2024-04-19T06:09:46.347Z</time>
      </trkpt>
      <trkpt lat="43.66612" lon="3.85968">
        <ele>90.9</ele>
        <time>2024-04-19T06:10:03.263Z</time>
      </trkpt>
      <trkpt lat="43.66611" lon="3.8598">
        <ele>91.3</ele>
        <time>2024-04-19T06:10:06.914Z</time>
      </trkpt>
      <trkpt lat="43.66605" lon="3.85991">
        <ele>90.5</ele>
        <time>2024-04-19T06:10:10.067Z</time>
      </trkpt>
      <trkpt lat="43.66602" lon="3.86017">
        <ele>90.4</ele>
        <time>2024-04-19T06:10:16.842Z</time>
      </trkpt>
      <trkpt lat="43.66603" lon="3.86046">
        <ele>90.8</ele>
        <time>2024-04-19T06:10:24.898Z</time>
      </trkpt>
      <trkpt lat="43.66597" lon="3.86067">
        <ele>88.5</ele>
        <time>2024-04-19T06:10:30.065Z</time>
      </trkpt>
      <trkpt lat="43.66595" lon="3.86073">
        <ele>87.7</ele>
        <time>2024-04-19T06:10:31.576Z</time>
      </trkpt>
      <trkpt lat="43.66593" lon="3.8608">
        <ele>86.9</ele>
        <time>2024-04-19T06:10:33.299Z</time>
      </trkpt>
      <trkpt lat="43.66592" lon="3.86087">
        <ele>86.2</ele>
        <time>2024-04-19T06:10:34.931Z</time>
      </trkpt>
      <trkpt lat="43.66595" lon="3.86101">
        <ele>86.1</ele>
        <time>2024-04-19T06:10:38.641Z</time>
      </trkpt>
      <trkpt lat="43.66606" lon="3.86124">
        <ele>86.4</ele>
        <time>2024-04-19T06:10:46.196Z</time>
      </trkpt>
      <trkpt lat="43.66621" lon="3.86145">
        <ele>85.9</ele>
        <time>2024-04-19T06:10:53.384Z</time>
      </trkpt>
      <trkpt lat="43.66642" lon="3.86161">
        <ele>85.8</ele>
        <time>2024-04-19T06:11:01.943Z</time>
      </trkpt>
      <trkpt lat="43.66657" lon="3.86176">
        <ele>82.7</ele>
        <time>2024-04-19T06:11:07.799Z</time>
      </trkpt>
      <trkpt lat="43.66668" lon="3.8618">
        <ele>82.3</ele>
        <time>2024-04-19T06:11:11.497Z</time>
      </trkpt>
      <trkpt lat="43.66681" lon="3.86182">
        <ele>82.5</ele>
        <time>2024-04-19T06:11:16.456Z</time>
      </trkpt>
      <trkpt lat="43.66699" lon="3.86181">
        <ele>83.9</ele>
        <time>2024-04-19T06:11:24.828Z</time>
      </trkpt>
      <trkpt lat="43.66715" lon="3.86186">
        <ele>82.6</ele>
        <time>2024-04-19T06:11:30.017Z</time>
      </trkpt>
      <trkpt lat="43.6674" lon="3.86196">
        <ele>79.6</ele>
        <time>2024-04-19T06:11:38.250Z</time>
      </trkpt>
      <trkpt lat="43.66747" lon="3.86198">
        <ele>79.1</ele>
        <time>2024-04-19T06:11:40.511Z</time>
      </trkpt>
      <trkpt lat="43.66767" lon="3.86198">
        <ele>78</ele>
        <time>2024-04-19T06:11:46.837Z</time>
      </trkpt>
      <trkpt lat="43.66798" lon="3.86205">
        <ele>72.8</ele>
        <time>2024-04-19T06:11:56.773Z</time>
      </trkpt>
      <trkpt lat="43.66814" lon="3.86204">
        <ele>70.3</ele>
        <time>2024-04-19T06:12:01.839Z</time>
      </trkpt>
      <trkpt lat="43.66819" lon="3.86211">
        <ele>68.1</ele>
        <time>2024-04-19T06:12:04.090Z</time>
      </trkpt>
      <trkpt lat="43.6682" lon="3.86224">
        <ele>65.6</ele>
        <time>2024-04-19T06:12:07.082Z</time>
      </trkpt>
      <trkpt lat="43.66813" lon="3.8624">
        <ele>63.7</ele>
        <time>2024-04-19T06:12:11.360Z</time>
      </trkpt>
      <trkpt lat="43.66805" lon="3.86244">
        <ele>64.1</ele>
        <time>2024-04-19T06:12:14.930Z</time>
      </trkpt>
      <trkpt lat="43.66792" lon="3.86243">
        <ele>65.8</ele>
        <time>2024-04-19T06:12:22.213Z</time>
      </trkpt>
      <trkpt lat="43.66784" lon="3.86241">
        <ele>67.2</ele>
        <time>2024-04-19T06:12:27.521Z</time>
      </trkpt>
      <trkpt lat="43.66749" lon="3.86246">
        <ele>67.8</ele>
        <time>2024-04-19T06:12:40.934Z</time>
      </trkpt>
      <trkpt lat="43.6673" lon="3.86241">
        <ele>67.7</ele>
        <time>2024-04-19T06:12:47.816Z</time>
      </trkpt>
      <trkpt lat="43.66696" lon="3.86226">
        <ele>69</ele>
        <time>2024-04-19T06:13:02.286Z</time>
      </trkpt>
      <trkpt lat="43.66656" lon="3.86222">
        <ele>67.3</ele>
        <time>2024-04-19T06:13:15.054Z</time>
      </trkpt>
      <trkpt lat="43.66651" lon="3.86221">
        <ele>67.3</ele>
        <time>2024-04-19T06:13:16.880Z</time>
      </trkpt>
      <trkpt lat="43.66628" lon="3.86207">
        <ele>70.5</ele>
        <time>2024-04-19T06:13:30.774Z</time>
      </trkpt>
      <trkpt lat="43.66616" lon="3.86202">
        <ele>71.4</ele>
        <time>2024-04-19T06:13:36.484Z</time>
      </trkpt>
      <trkpt lat="43.66598" lon="3.86206">
        <ele>68.9</ele>
        <time>2024-04-19T06:13:42.251Z</time>
      </trkpt>
      <trkpt lat="43.6658" lon="3.86206">
        <ele>67</ele>
        <time>2024-04-19T06:13:47.945Z</time>
      </trkpt>
      <trkpt lat="43.66575" lon="3.86204">
        <ele>66.6</ele>
        <time>2024-04-19T06:13:49.591Z</time>
      </trkpt>
      <trkpt lat="43.66561" lon="3.86197">
        <ele>65.6</ele>
        <time>2024-04-19T06:13:54.301Z</time>
      </trkpt>
      <trkpt lat="43.66554" lon="3.86194">
        <ele>64.7</ele>
        <time>2024-04-19T06:13:56.619Z</time>
      </trkpt>
      <trkpt lat="43.66544" lon="3.86188">
        <ele>63.2</ele>
        <time>2024-04-19T06:14:00.067Z</time>
      </trkpt>
      <trkpt lat="43.66538" lon="3.86181">
        <ele>62.7</ele>
        <time>2024-04-19T06:14:02.551Z</time>
      </trkpt>
      <trkpt lat="43.66531" lon="3.86172">
        <ele>62.1</ele>
        <time>2024-04-19T06:14:05.575Z</time>
      </trkpt>
      <trkpt lat="43.66527" lon="3.86161">
        <ele>62.5</ele>
        <time>2024-04-19T06:14:09.286Z</time>
      </trkpt>
      <trkpt lat="43.66527" lon="3.86144">
        <ele>64.3</ele>
        <time>2024-04-19T06:14:16.574Z</time>
      </trkpt>
      <trkpt lat="43.66527" lon="3.86128">
        <ele>66.1</ele>
        <time>2024-04-19T06:14:23.670Z</time>
      </trkpt>
      <trkpt lat="43.66518" lon="3.86121">
        <ele>65.3</ele>
        <time>2024-04-19T06:14:26.937Z</time>
      </trkpt>
      <trkpt lat="43.66507" lon="3.86107">
        <ele>64.7</ele>
        <time>2024-04-19T06:14:31.729Z</time>
      </trkpt>
      <trkpt lat="43.66494" lon="3.86095">
        <ele>64.6</ele>
        <time>2024-04-19T06:14:37.270Z</time>
      </trkpt>
      <trkpt lat="43.66486" lon="3.8609">
        <ele>65</ele>
        <time>2024-04-19T06:14:40.937Z</time>
      </trkpt>
      <trkpt lat="43.66482" lon="3.86094">
        <ele>64.4</ele>
        <time>2024-04-19T06:14:42.498Z</time>
      </trkpt>
      <trkpt lat="43.66464" lon="3.86099">
        <ele>62.5</ele>
        <time>2024-04-19T06:14:48.306Z</time>
      </trkpt>
      <trkpt lat="43.66457" lon="3.86097">
        <ele>62.2</ele>
        <time>2024-04-19T06:14:50.584Z</time>
      </trkpt>
      <trkpt lat="43.66449" lon="3.86093">
        <ele>62</ele>
        <time>2024-04-19T06:14:53.448Z</time>
      </trkpt>
      <trkpt lat="43.66405" lon="3.86063">
        <ele>62.8</ele>
        <time>2024-04-19T06:15:12.107Z</time>
      </trkpt>
      <trkpt lat="43.66389" lon="3.86059">
        <ele>61.4</ele>
        <time>2024-04-19T06:15:17.250Z</time>
      </trkpt>
      <trkpt lat="43.6638" lon="3.86059">
        <ele>60.1</ele>
        <time>2024-04-19T06:15:20.097Z</time>
      </trkpt>
      <trkpt lat="43.66351" lon="3.86065">
        <ele>55.1</ele>
        <time>2024-04-19T06:15:29.372Z</time>
      </trkpt>
      <trkpt lat="43.66344" lon="3.86063">
        <ele>54.2</ele>
        <time>2024-04-19T06:15:31.633Z</time>
      </trkpt>
      <trkpt lat="43.66334" lon="3.8606">
        <ele>52.8</ele>
        <time>2024-04-19T06:15:34.870Z</time>
      </trkpt>
      <trkpt lat="43.66329" lon="3.86055">
        <ele>52.6</ele>
        <time>2024-04-19T06:15:36.893Z</time>
      </trkpt>
      <trkpt lat="43.66317" lon="3.86041">
        <ele>52.4</ele>
        <time>2024-04-19T06:15:42.353Z</time>
      </trkpt>
      <trkpt lat="43.66312" lon="3.86037">
        <ele>51.8</ele>
        <time>2024-04-19T06:15:44.181Z</time>
      </trkpt>
      <trkpt lat="43.66306" lon="3.86032">
        <ele>50.9</ele>
        <time>2024-04-19T06:15:46.397Z</time>
      </trkpt>
      <trkpt lat="43.66294" lon="3.86026">
        <ele>50.6</ele>
        <time>2024-04-19T06:15:50.692Z</time>
      </trkpt>
      <trkpt lat="43.66281" lon="3.86025">
        <ele>50.2</ele>
        <time>2024-04-19T06:15:54.982Z</time>
      </trkpt>
      <trkpt lat="43.66262" lon="3.86019">
        <ele>51.8</ele>
        <time>2024-04-19T06:16:04.176Z</time>
      </trkpt>
      <trkpt lat="43.66245" lon="3.86016">
        <ele>53.5</ele>
        <time>2024-04-19T06:16:12.752Z</time>
      </trkpt>
      <trkpt lat="43.66238" lon="3.86016">
        <ele>53.7</ele>
        <time>2024-04-19T06:16:15.519Z</time>
      </trkpt>
      <trkpt lat="43.66228" lon="3.86023">
        <ele>53.3</ele>
        <time>2024-04-19T06:16:19.159Z</time>
      </trkpt>
      <trkpt lat="43.66223" lon="3.86025">
        <ele>53.3</ele>
        <time>2024-04-19T06:16:21.040Z</time>
      </trkpt>
      <trkpt lat="43.66205" lon="3.86029">
        <ele>54</ele>
        <time>2024-04-19T06:16:28.479Z</time>
      </trkpt>
      <trkpt lat="43.66177" lon="3.86027">
        <ele>55.2</ele>
        <time>2024-04-19T06:16:40.084Z</time>
      </trkpt>
      <trkpt lat="43.66171" lon="3.86026">
        <ele>55.4</ele>
        <time>2024-04-19T06:16:42.508Z</time>
      </trkpt>
      <trkpt lat="43.66146" lon="3.86025">
        <ele>54.8</ele>
        <time>2024-04-19T06:16:50.915Z</time>
      </trkpt>
      <trkpt lat="43.66112" lon="3.86024">
        <ele>53.6</ele>
        <time>2024-04-19T06:17:01.970Z</time>
      </trkpt>
      <trkpt lat="43.66084" lon="3.86006">
        <ele>56.1</ele>
        <time>2024-04-19T06:17:16.480Z</time>
      </trkpt>
      <trkpt lat="43.66054" lon="3.8599">
        <ele>55.6</ele>
        <time>2024-04-19T06:17:27.567Z</time>
      </trkpt>
      <trkpt lat="43.66042" lon="3.85978">
        <ele>55.1</ele>
        <time>2024-04-19T06:17:32.403Z</time>
      </trkpt>
      <trkpt lat="43.66024" lon="3.8597">
        <ele>54</ele>
        <time>2024-04-19T06:17:38.384Z</time>
      </trkpt>
      <trkpt lat="43.66015" lon="3.85971">
        <ele>53.6</ele>
        <time>2024-04-19T06:17:41.242Z</time>
      </trkpt>
      <trkpt lat="43.65953" lon="3.85981">
        <ele>50.8</ele>
        <time>2024-04-19T06:18:00.987Z</time>
      </trkpt>
      <trkpt lat="43.65907" lon="3.85982">
        <ele>51.3</ele>
        <time>2024-04-19T06:18:18.189Z</time>
      </trkpt>
      <trkpt lat="43.65898" lon="3.85981">
        <ele>51.7</ele>
        <time>2024-04-19T06:18:21.944Z</time>
      </trkpt>
      <trkpt lat="43.65891" lon="3.85975">
        <ele>52.6</ele>
        <time>2024-04-19T06:18:26.214Z</time>
      </trkpt>
      <trkpt lat="43.65876" lon="3.85957">
        <ele>55.7</ele>
        <time>2024-04-19T06:18:38.417Z</time>
      </trkpt>
      <trkpt lat="43.65872" lon="3.8595">
        <ele>56.8</ele>
        <time>2024-04-19T06:18:42.602Z</time>
      </trkpt>
      <trkpt lat="43.65861" lon="3.85936">
        <ele>59.2</ele>
        <time>2024-04-19T06:18:51.942Z</time>
      </trkpt>
      <trkpt lat="43.65853" lon="3.85932">
        <ele>60</ele>
        <time>2024-04-19T06:18:56.124Z</time>
      </trkpt>
      <trkpt lat="43.65848" lon="3.8593">
        <ele>60.3</ele>
        <time>2024-04-19T06:18:58.385Z</time>
      </trkpt>
      <trkpt lat="43.65841" lon="3.85927">
        <ele>60.8</ele>
        <time>2024-04-19T06:19:01.684Z</time>
      </trkpt>
      <trkpt lat="43.65833" lon="3.85919">
        <ele>61.8</ele>
        <time>2024-04-19T06:19:06.661Z</time>
      </trkpt>
      <trkpt lat="43.65818" lon="3.85898">
        <ele>65.2</ele>
        <time>2024-04-19T06:19:19.934Z</time>
      </trkpt>
      <trkpt lat="43.65812" lon="3.85895">
        <ele>65.9</ele>
        <time>2024-04-19T06:19:23.247Z</time>
      </trkpt>
      <trkpt lat="43.65799" lon="3.85899">
        <ele>65.8</ele>
        <time>2024-04-19T06:19:27.952Z</time>
      </trkpt>
      <trkpt lat="43.65787" lon="3.85899">
        <ele>66.2</ele>
        <time>2024-04-19T06:19:32.770Z</time>
      </trkpt>
      <trkpt lat="43.65782" lon="3.85897">
        <ele>66.7</ele>
        <time>2024-04-19T06:19:35.346Z</time>
      </trkpt>
      <trkpt lat="43.65773" lon="3.85892">
        <ele>67.7</ele>
        <time>2024-04-19T06:19:40.266Z</time>
      </trkpt>
      <trkpt lat="43.65741" lon="3.85878">
        <ele>71.1</ele>
        <time>2024-04-19T06:19:57.185Z</time>
      </trkpt>
      <trkpt lat="43.65733" lon="3.85876">
        <ele>71.6</ele>
        <time>2024-04-19T06:20:00.763Z</time>
      </trkpt>
      <trkpt lat="43.65709" lon="3.85877">
        <ele>71.2</ele>
        <time>2024-04-19T06:20:09.014Z</time>
      </trkpt>
      <trkpt lat="43.65689" lon="3.85866">
        <ele>71.7</ele>
        <time>2024-04-19T06:20:17.381Z</time>
      </trkpt>
      <trkpt lat="43.65673" lon="3.85851">
        <ele>72.1</ele>
        <time>2024-04-19T06:20:24.836Z</time>
      </trkpt>
      <trkpt lat="43.65667" lon="3.85845">
        <ele>72.4</ele>
        <time>2024-04-19T06:20:27.878Z</time>
      </trkpt>
      <trkpt lat="43.65645" lon="3.85836">
        <ele>72.3</ele>
        <time>2024-04-19T06:20:36.062Z</time>
      </trkpt>
      <trkpt lat="43.65626" lon="3.85825">
        <ele>72.2</ele>
        <time>2024-04-19T06:20:43.399Z</time>
      </trkpt>
      <trkpt lat="43.65616" lon="3.85821">
        <ele>71.8</ele>
        <time>2024-04-19T06:20:46.752Z</time>
      </trkpt>
      <trkpt lat="43.65572" lon="3.85843">
        <ele>71.8</ele>
        <time>2024-04-19T06:21:03.667Z</time>
      </trkpt>
      <trkpt lat="43.65549" lon="3.85851">
        <ele>72.2</ele>
        <time>2024-04-19T06:21:12.703Z</time>
      </trkpt>
      <trkpt lat="43.65538" lon="3.8585">
        <ele>71.4</ele>
        <time>2024-04-19T06:21:16.190Z</time>
      </trkpt>
      <trkpt lat="43.65529" lon="3.85821">
        <ele>67.7</ele>
        <time>2024-04-19T06:21:23.412Z</time>
      </trkpt>
      <trkpt lat="43.65526" lon="3.85816">
        <ele>67</ele>
        <time>2024-04-19T06:21:24.898Z</time>
      </trkpt>
      <trkpt lat="43.65528" lon="3.85809">
        <ele>66.4</ele>
        <time>2024-04-19T06:21:26.621Z</time>
      </trkpt>
      <trkpt lat="43.6552" lon="3.85797">
        <ele>64.8</ele>
        <time>2024-04-19T06:21:30.355Z</time>
      </trkpt>
      <trkpt lat="43.65492" lon="3.85776">
        <ele>61.5</ele>
        <time>2024-04-19T06:21:40.432Z</time>
      </trkpt>
      <trkpt lat="43.65482" lon="3.85771">
        <ele>60.1</ele>
        <time>2024-04-19T06:21:43.796Z</time>
      </trkpt>
      <trkpt lat="43.65466" lon="3.85767">
        <ele>58.6</ele>
        <time>2024-04-19T06:21:48.939Z</time>
      </trkpt>
      <trkpt lat="43.65461" lon="3.85763">
        <ele>57.8</ele>
        <time>2024-04-19T06:21:50.767Z</time>
      </trkpt>
      <trkpt lat="43.65451" lon="3.85752">
        <ele>56.1</ele>
        <time>2024-04-19T06:21:54.810Z</time>
      </trkpt>
      <trkpt lat="43.65444" lon="3.85735">
        <ele>54.4</ele>
        <time>2024-04-19T06:21:59.286Z</time>
      </trkpt>
      <trkpt lat="43.65438" lon="3.85714">
        <ele>53.1</ele>
        <time>2024-04-19T06:22:04.454Z</time>
      </trkpt>
      <trkpt lat="43.65435" lon="3.85705">
        <ele>52.8</ele>
        <time>2024-04-19T06:22:06.740Z</time>
      </trkpt>
      <trkpt lat="43.65426" lon="3.85683">
        <ele>51.9</ele>
        <time>2024-04-19T06:22:12.524Z</time>
      </trkpt>
      <trkpt lat="43.65426" lon="3.85676">
        <ele>51.2</ele>
        <time>2024-04-19T06:22:14.126Z</time>
      </trkpt>
      <trkpt lat="43.65421" lon="3.85663">
        <ele>49.9</ele>
        <time>2024-04-19T06:22:17.495Z</time>
      </trkpt>
      <trkpt lat="43.65417" lon="3.85657">
        <ele>49.3</ele>
        <time>2024-04-19T06:22:19.363Z</time>
      </trkpt>
      <trkpt lat="43.65409" lon="3.85647">
        <ele>48.4</ele>
        <time>2024-04-19T06:22:22.775Z</time>
      </trkpt>
      <trkpt lat="43.65396" lon="3.85627">
        <ele>47.8</ele>
        <time>2024-04-19T06:22:29.181Z</time>
      </trkpt>
      <trkpt lat="43.6538" lon="3.85636">
        <ele>47.2</ele>
        <time>2024-04-19T06:22:34.806Z</time>
      </trkpt>
      <trkpt lat="43.65376" lon="3.85641">
        <ele>47.1</ele>
        <time>2024-04-19T06:22:36.648Z</time>
      </trkpt>
      <trkpt lat="43.65369" lon="3.85651">
        <ele>46.9</ele>
        <time>2024-04-19T06:22:40.074Z</time>
      </trkpt>
      <trkpt lat="43.65358" lon="3.85667">
        <ele>46.7</ele>
        <time>2024-04-19T06:22:45.631Z</time>
      </trkpt>
      <trkpt lat="43.65344" lon="3.85685">
        <ele>44.7</ele>
        <time>2024-04-19T06:22:51.679Z</time>
      </trkpt>
      <trkpt lat="43.6533" lon="3.85684">
        <ele>43.6</ele>
        <time>2024-04-19T06:22:56.114Z</time>
      </trkpt>
      <trkpt lat="43.65322" lon="3.85685">
        <ele>44.2</ele>
        <time>2024-04-19T06:22:59.809Z</time>
      </trkpt>
      <trkpt lat="43.65322" lon="3.85667">
        <ele>44.8</ele>
        <time>2024-04-19T06:23:05.257Z</time>
      </trkpt>
      <trkpt lat="43.65316" lon="3.85659">
        <ele>45.4</ele>
        <time>2024-04-19T06:23:09.057Z</time>
      </trkpt>
      <trkpt lat="43.65302" lon="3.85648">
        <ele>46.2</ele>
        <time>2024-04-19T06:23:15.874Z</time>
      </trkpt>
      <trkpt lat="43.65293" lon="3.85638">
        <ele>46.9</ele>
        <time>2024-04-19T06:23:20.941Z</time>
      </trkpt>
      <trkpt lat="43.65295" lon="3.85617">
        <ele>47.7</ele>
        <time>2024-04-19T06:23:27.482Z</time>
      </trkpt>
      <trkpt lat="43.65308" lon="3.85586">
        <ele>47.6</ele>
        <time>2024-04-19T06:23:36.744Z</time>
      </trkpt>
      <trkpt lat="43.6533" lon="3.85557">
        <ele>48.2</ele>
        <time>2024-04-19T06:23:48.432Z</time>
      </trkpt>
      <trkpt lat="43.65341" lon="3.85549">
        <ele>48.2</ele>
        <time>2024-04-19T06:23:52.925Z</time>
      </trkpt>
      <trkpt lat="43.65355" lon="3.85544">
        <ele>48.1</ele>
        <time>2024-04-19T06:23:58.043Z</time>
      </trkpt>
      <trkpt lat="43.65394" lon="3.85518">
        <ele>47.7</ele>
        <time>2024-04-19T06:24:13.260Z</time>
      </trkpt>
      <trkpt lat="43.65449" lon="3.85469">
        <ele>47.4</ele>
        <time>2024-04-19T06:24:36.585Z</time>
      </trkpt>
      <trkpt lat="43.65464" lon="3.85451">
        <ele>47.9</ele>
        <time>2024-04-19T06:24:44.354Z</time>
      </trkpt>
      <trkpt lat="43.65468" lon="3.85447">
        <ele>47.6</ele>
        <time>2024-04-19T06:24:45.916Z</time>
      </trkpt>
      <trkpt lat="43.65469" lon="3.85436">
        <ele>48.4</ele>
        <time>2024-04-19T06:24:49.937Z</time>
      </trkpt>
      <trkpt lat="43.65475" lon="3.85423">
        <ele>49.2</ele>
        <time>2024-04-19T06:24:55.018Z</time>
      </trkpt>
      <trkpt lat="43.65485" lon="3.85406">
        <ele>49.9</ele>
        <time>2024-04-19T06:25:01.608Z</time>
      </trkpt>
      <trkpt lat="43.65491" lon="3.85382">
        <ele>50.3</ele>
        <time>2024-04-19T06:25:08.717Z</time>
      </trkpt>
      <trkpt lat="43.65491" lon="3.85349">
        <ele>51.1</ele>
        <time>2024-04-19T06:25:18.307Z</time>
      </trkpt>
      <trkpt lat="43.65488" lon="3.85338">
        <ele>51.7</ele>
        <time>2024-04-19T06:25:22.165Z</time>
      </trkpt>
      <trkpt lat="43.6548" lon="3.85335">
        <ele>53.4</ele>
        <time>2024-04-19T06:25:28.311Z</time>
      </trkpt>
      <trkpt lat="43.65479" lon="3.85342">
        <ele>53.8</ele>
        <time>2024-04-19T06:25:30.708Z</time>
      </trkpt>
      <trkpt lat="43.65473" lon="3.85354">
        <ele>55.6</ele>
        <time>2024-04-19T06:25:37.555Z</time>
      </trkpt>
      <trkpt lat="43.65467" lon="3.85358">
        <ele>56.8</ele>
        <time>2024-04-19T06:25:42.038Z</time>
      </trkpt>
      <trkpt lat="43.65464" lon="3.85369">
        <ele>56.9</ele>
        <time>2024-04-19T06:25:45.227Z</time>
      </trkpt>
      <trkpt lat="43.65456" lon="3.85383">
        <ele>57.3</ele>
        <time>2024-04-19T06:25:50.370Z</time>
      </trkpt>
      <trkpt lat="43.65452" lon="3.85389">
        <ele>57.6</ele>
        <time>2024-04-19T06:25:52.878Z</time>
      </trkpt>
      <trkpt lat="43.65426" lon="3.85421">
        <ele>58.6</ele>
        <time>2024-04-19T06:26:06.649Z</time>
      </trkpt>
      <trkpt lat="43.65407" lon="3.85439">
        <ele>58.8</ele>
        <time>2024-04-19T06:26:15.203Z</time>
      </trkpt>
      <trkpt lat="43.65363" lon="3.85469">
        <ele>58.2</ele>
        <time>2024-04-19T06:26:32.290Z</time>
      </trkpt>
      <trkpt lat="43.65349" lon="3.8548">
        <ele>55.8</ele>
        <time>2024-04-19T06:26:37.384Z</time>
      </trkpt>
      <trkpt lat="43.6534" lon="3.8548">
        <ele>55</ele>
        <time>2024-04-19T06:26:40.231Z</time>
      </trkpt>
      <trkpt lat="43.65332" lon="3.85476">
        <ele>54.8</ele>
        <time>2024-04-19T06:26:43.094Z</time>
      </trkpt>
      <trkpt lat="43.65324" lon="3.85469">
        <ele>55.6</ele>
        <time>2024-04-19T06:26:47.598Z</time>
      </trkpt>
      <trkpt lat="43.65318" lon="3.85465">
        <ele>56.2</ele>
        <time>2024-04-19T06:26:50.827Z</time>
      </trkpt>
      <trkpt lat="43.65305" lon="3.8547">
        <ele>56.4</ele>
        <time>2024-04-19T06:26:55.935Z</time>
      </trkpt>
      <trkpt lat="43.65292" lon="3.85485">
        <ele>59</ele>
        <time>2024-04-19T06:27:06.241Z</time>
      </trkpt>
      <trkpt lat="43.65288" lon="3.85489">
        <ele>59.7</ele>
        <time>2024-04-19T06:27:09.118Z</time>
      </trkpt>
      <trkpt lat="43.65279" lon="3.85502">
        <ele>60.6</ele>
        <time>2024-04-19T06:27:14.996Z</time>
      </trkpt>
      <trkpt lat="43.65265" lon="3.85517">
        <ele>61.6</ele>
        <time>2024-04-19T06:27:22.663Z</time>
      </trkpt>
      <trkpt lat="43.65259" lon="3.85527">
        <ele>61.8</ele>
        <time>2024-04-19T06:27:26.294Z</time>
      </trkpt>
      <trkpt lat="43.65254" lon="3.85536">
        <ele>62.1</ele>
        <time>2024-04-19T06:27:29.624Z</time>
      </trkpt>
      <trkpt lat="43.65248" lon="3.85543">
        <ele>62.6</ele>
        <time>2024-04-19T06:27:33.105Z</time>
      </trkpt>
      <trkpt lat="43.65245" lon="3.85554">
        <ele>62.4</ele>
        <time>2024-04-19T06:27:35.968Z</time>
      </trkpt>
      <trkpt lat="43.65243" lon="3.85563">
        <ele>62.2</ele>
        <time>2024-04-19T06:27:38.222Z</time>
      </trkpt>
      <trkpt lat="43.65245" lon="3.8558">
        <ele>61.5</ele>
        <time>2024-04-19T06:27:42.164Z</time>
      </trkpt>
      <trkpt lat="43.6524" lon="3.85604">
        <ele>60.2</ele>
        <time>2024-04-19T06:27:47.880Z</time>
      </trkpt>
      <trkpt lat="43.65226" lon="3.85622">
        <ele>59.9</ele>
        <time>2024-04-19T06:27:54.470Z</time>
      </trkpt>
      <trkpt lat="43.65215" lon="3.85624">
        <ele>60.1</ele>
        <time>2024-04-19T06:27:58.712Z</time>
      </trkpt>
      <trkpt lat="43.65206" lon="3.85617">
        <ele>60.6</ele>
        <time>2024-04-19T06:28:03.065Z</time>
      </trkpt>
      <trkpt lat="43.65193" lon="3.85608">
        <ele>61</ele>
        <time>2024-04-19T06:28:08.795Z</time>
      </trkpt>
      <trkpt lat="43.65187" lon="3.85603">
        <ele>60.7</ele>
        <time>2024-04-19T06:28:11.022Z</time>
      </trkpt>
      <trkpt lat="43.65184" lon="3.85597">
        <ele>60.6</ele>
        <time>2024-04-19T06:28:12.823Z</time>
      </trkpt>
      <trkpt lat="43.65176" lon="3.85555">
        <ele>60.4</ele>
        <time>2024-04-19T06:28:23.964Z</time>
      </trkpt>
      <trkpt lat="43.6517" lon="3.85537">
        <ele>60.7</ele>
        <time>2024-04-19T06:28:29.497Z</time>
      </trkpt>
      <trkpt lat="43.65156" lon="3.85504">
        <ele>61</ele>
        <time>2024-04-19T06:28:39.845Z</time>
      </trkpt>
      <trkpt lat="43.65141" lon="3.85492">
        <ele>61</ele>
        <time>2024-04-19T06:28:46.111Z</time>
      </trkpt>
      <trkpt lat="43.65127" lon="3.85484">
        <ele>61.1</ele>
        <time>2024-04-19T06:28:51.700Z</time>
      </trkpt>
      <trkpt lat="43.6511" lon="3.85479">
        <ele>60.4</ele>
        <time>2024-04-19T06:28:57.268Z</time>
      </trkpt>
      <trkpt lat="43.65108" lon="3.85466">
        <ele>60.6</ele>
        <time>2024-04-19T06:29:00.977Z</time>
      </trkpt>
      <trkpt lat="43.65104" lon="3.85397">
        <ele>61.6</ele>
        <time>2024-04-19T06:29:20.246Z</time>
      </trkpt>
      <trkpt lat="43.65104" lon="3.85389">
        <ele>61.7</ele>
        <time>2024-04-19T06:29:22.455Z</time>
      </trkpt>
      <trkpt lat="43.65108" lon="3.85368">
        <ele>63.3</ele>
        <time>2024-04-19T06:29:30.389Z</time>
      </trkpt>
      <trkpt lat="43.65106" lon="3.85347">
        <ele>62.8</ele>
        <time>2024-04-19T06:29:35.410Z</time>
      </trkpt>
      <trkpt lat="43.65108" lon="3.85316">
        <ele>62.1</ele>
        <time>2024-04-19T06:29:42.822Z</time>
      </trkpt>
      <trkpt lat="43.65113" lon="3.85295">
        <ele>61.3</ele>
        <time>2024-04-19T06:29:47.882Z</time>
      </trkpt>
      <trkpt lat="43.65155" lon="3.85248">
        <ele>61</ele>
        <time>2024-04-19T06:30:07.089Z</time>
      </trkpt>
      <trkpt lat="43.65168" lon="3.85235">
        <ele>61</ele>
        <time>2024-04-19T06:30:12.889Z</time>
      </trkpt>
      <trkpt lat="43.65173" lon="3.85231">
        <ele>61</ele>
        <time>2024-04-19T06:30:14.978Z</time>
      </trkpt>
      <trkpt lat="43.6518" lon="3.85224">
        <ele>61.1</ele>
        <time>2024-04-19T06:30:18.216Z</time>
      </trkpt>
      <trkpt lat="43.65185" lon="3.85226">
        <ele>61.5</ele>
        <time>2024-04-19T06:30:20.628Z</time>
      </trkpt>
      <trkpt lat="43.65205" lon="3.85229">
        <ele>62.5</ele>
        <time>2024-04-19T06:30:29.144Z</time>
      </trkpt>
      <trkpt lat="43.65217" lon="3.85232">
        <ele>62.9</ele>
        <time>2024-04-19T06:30:34.031Z</time>
      </trkpt>
      <trkpt lat="43.65228" lon="3.85227">
        <ele>63.4</ele>
        <time>2024-04-19T06:30:38.830Z</time>
      </trkpt>
      <trkpt lat="43.65231" lon="3.85219">
        <ele>63.6</ele>
        <time>2024-04-19T06:30:41.425Z</time>
      </trkpt>
      <trkpt lat="43.65231" lon="3.85199">
        <ele>63.6</ele>
        <time>2024-04-19T06:30:46.656Z</time>
      </trkpt>
      <trkpt lat="43.65225" lon="3.85165">
        <ele>63.4</ele>
        <time>2024-04-19T06:30:55.591Z</time>
      </trkpt>
      <trkpt lat="43.65208" lon="3.85123">
        <ele>64.3</ele>
        <time>2024-04-19T06:31:09.240Z</time>
      </trkpt>
      <trkpt lat="43.6518" lon="3.85076">
        <ele>64.7</ele>
        <time>2024-04-19T06:31:25.618Z</time>
      </trkpt>
      <trkpt lat="43.65172" lon="3.8506">
        <ele>65</ele>
        <time>2024-04-19T06:31:31.055Z</time>
      </trkpt>
      <trkpt lat="43.65169" lon="3.85048">
        <ele>65.4</ele>
        <time>2024-04-19T06:31:34.867Z</time>
      </trkpt>
      <trkpt lat="43.65167" lon="3.85036">
        <ele>65.7</ele>
        <time>2024-04-19T06:31:38.447Z</time>
      </trkpt>
      <trkpt lat="43.65166" lon="3.85016">
        <ele>66.8</ele>
        <time>2024-04-19T06:31:45.146Z</time>
      </trkpt>
      <trkpt lat="43.65173" lon="3.84946">
        <ele>71.9</ele>
        <time>2024-04-19T06:32:10.780Z</time>
      </trkpt>
      <trkpt lat="43.65175" lon="3.84937">
        <ele>72.3</ele>
        <time>2024-04-19T06:32:13.750Z</time>
      </trkpt>
      <trkpt lat="43.65181" lon="3.84923">
        <ele>73.2</ele>
        <time>2024-04-19T06:32:19.199Z</time>
      </trkpt>
      <trkpt lat="43.65189" lon="3.84917">
        <ele>73.8</ele>
        <time>2024-04-19T06:32:23.264Z</time>
      </trkpt>
      <trkpt lat="43.65195" lon="3.84915">
        <ele>74.2</ele>
        <time>2024-04-19T06:32:26.011Z</time>
      </trkpt>
      <trkpt lat="43.65203" lon="3.84913">
        <ele>74.6</ele>
        <time>2024-04-19T06:32:29.447Z</time>
      </trkpt>
      <trkpt lat="43.6521" lon="3.84909">
        <ele>75.1</ele>
        <time>2024-04-19T06:32:32.831Z</time>
      </trkpt>
      <trkpt lat="43.6522" lon="3.84901">
        <ele>75.6</ele>
        <time>2024-04-19T06:32:37.621Z</time>
      </trkpt>
      <trkpt lat="43.65231" lon="3.84885">
        <ele>76.2</ele>
        <time>2024-04-19T06:32:44.119Z</time>
      </trkpt>
      <trkpt lat="43.6524" lon="3.84841">
        <ele>77.4</ele>
        <time>2024-04-19T06:32:57.527Z</time>
      </trkpt>
      <trkpt lat="43.65244" lon="3.8483">
        <ele>77.2</ele>
        <time>2024-04-19T06:33:00.535Z</time>
      </trkpt>
      <trkpt lat="43.65247" lon="3.84764">
        <ele>76.1</ele>
        <time>2024-04-19T06:33:16.666Z</time>
      </trkpt>
      <trkpt lat="43.65244" lon="3.84713">
        <ele>76.8</ele>
        <time>2024-04-19T06:33:30.862Z</time>
      </trkpt>
      <trkpt lat="43.65247" lon="3.84672">
        <ele>78.1</ele>
        <time>2024-04-19T06:33:43.235Z</time>
      </trkpt>
      <trkpt lat="43.65246" lon="3.84651">
        <ele>79.5</ele>
        <time>2024-04-19T06:33:50.665Z</time>
      </trkpt>
      <trkpt lat="43.65247" lon="3.84613">
        <ele>81.9</ele>
        <time>2024-04-19T06:34:03.874Z</time>
      </trkpt>
      <trkpt lat="43.65248" lon="3.84599">
        <ele>82.8</ele>
        <time>2024-04-19T06:34:08.781Z</time>
      </trkpt>
      <trkpt lat="43.65251" lon="3.84582">
        <ele>84</ele>
        <time>2024-04-19T06:34:15.020Z</time>
      </trkpt>
      <trkpt lat="43.65252" lon="3.84574">
        <ele>84.4</ele>
        <time>2024-04-19T06:34:17.663Z</time>
      </trkpt>
      <trkpt lat="43.65251" lon="3.84556">
        <ele>85.8</ele>
        <time>2024-04-19T06:34:24.384Z</time>
      </trkpt>
      <trkpt lat="43.65252" lon="3.84531">
        <ele>87.4</ele>
        <time>2024-04-19T06:34:33.114Z</time>
      </trkpt>
      <trkpt lat="43.65255" lon="3.84501">
        <ele>89</ele>
        <time>2024-04-19T06:34:43.138Z</time>
      </trkpt>
      <trkpt lat="43.65251" lon="3.84471">
        <ele>90.8</ele>
        <time>2024-04-19T06:34:53.530Z</time>
      </trkpt>
      <trkpt lat="43.65248" lon="3.84461">
        <ele>90.8</ele>
        <time>2024-04-19T06:34:56.362Z</time>
      </trkpt>
      <trkpt lat="43.65245" lon="3.84455">
        <ele>91</ele>
        <time>2024-04-19T06:34:58.512Z</time>
      </trkpt>
      <trkpt lat="43.65212" lon="3.84348">
        <ele>95.7</ele>
        <time>2024-04-19T06:35:34.865Z</time>
      </trkpt>
      <trkpt lat="43.65209" lon="3.84332">
        <ele>96.1</ele>
        <time>2024-04-19T06:35:39.668Z</time>
      </trkpt>
      <trkpt lat="43.6522" lon="3.84336">
        <ele>95.2</ele>
        <time>2024-04-19T06:35:43.266Z</time>
      </trkpt>
      <trkpt lat="43.65252" lon="3.8431">
        <ele>92.1</ele>
        <time>2024-04-19T06:35:55.008Z</time>
      </trkpt>
      <trkpt lat="43.65257" lon="3.84308">
        <ele>90.8</ele>
        <time>2024-04-19T06:35:56.654Z</time>
      </trkpt>
      <trkpt lat="43.65263" lon="3.84304">
        <ele>89.3</ele>
        <time>2024-04-19T06:35:58.761Z</time>
      </trkpt>
      <trkpt lat="43.65269" lon="3.84305">
        <ele>87.5</ele>
        <time>2024-04-19T06:36:00.673Z</time>
      </trkpt>
      <trkpt lat="43.65274" lon="3.84309">
        <ele>85.8</ele>
        <time>2024-04-19T06:36:02.500Z</time>
      </trkpt>
      <trkpt lat="43.65279" lon="3.84312">
        <ele>84.3</ele>
        <time>2024-04-19T06:36:04.225Z</time>
      </trkpt>
      <trkpt lat="43.65285" lon="3.84313">
        <ele>83</ele>
        <time>2024-04-19T06:36:06.136Z</time>
      </trkpt>
      <trkpt lat="43.65289" lon="3.84318">
        <ele>81.9</ele>
        <time>2024-04-19T06:36:07.842Z</time>
      </trkpt>
      <trkpt lat="43.65296" lon="3.84331">
        <ele>79.8</ele>
        <time>2024-04-19T06:36:11.551Z</time>
      </trkpt>
      <trkpt lat="43.65299" lon="3.84336">
        <ele>79.2</ele>
        <time>2024-04-19T06:36:13.038Z</time>
      </trkpt>
      <trkpt lat="43.65334" lon="3.84353">
        <ele>75.6</ele>
        <time>2024-04-19T06:36:24.773Z</time>
      </trkpt>
      <trkpt lat="43.6534" lon="3.84359">
        <ele>75.2</ele>
        <time>2024-04-19T06:36:27.116Z</time>
      </trkpt>
      <trkpt lat="43.65349" lon="3.84368">
        <ele>74.1</ele>
        <time>2024-04-19T06:36:30.629Z</time>
      </trkpt>
      <trkpt lat="43.65355" lon="3.84376">
        <ele>73.1</ele>
        <time>2024-04-19T06:36:33.267Z</time>
      </trkpt>
      <trkpt lat="43.65358" lon="3.84383">
        <ele>72.5</ele>
        <time>2024-04-19T06:36:35.129Z</time>
      </trkpt>
      <trkpt lat="43.65353" lon="3.84392">
        <ele>72.6</ele>
        <time>2024-04-19T06:36:38.211Z</time>
      </trkpt>
      <trkpt lat="43.65338" lon="3.84413">
        <ele>72</ele>
        <time>2024-04-19T06:36:45.300Z</time>
      </trkpt>
      <trkpt lat="43.65334" lon="3.84424">
        <ele>72.5</ele>
        <time>2024-04-19T06:36:49.152Z</time>
      </trkpt>
      <trkpt lat="43.65334" lon="3.84432">
        <ele>73</ele>
        <time>2024-04-19T06:36:51.922Z</time>
      </trkpt>
      <trkpt lat="43.65345" lon="3.84427">
        <ele>71.6</ele>
        <time>2024-04-19T06:36:55.585Z</time>
      </trkpt>
      <trkpt lat="43.65379" lon="3.84437">
        <ele>68.1</ele>
        <time>2024-04-19T06:37:06.581Z</time>
      </trkpt>
      <trkpt lat="43.65384" lon="3.84438">
        <ele>67.5</ele>
        <time>2024-04-19T06:37:08.179Z</time>
      </trkpt>
      <trkpt lat="43.65391" lon="3.84434">
        <ele>66.8</ele>
        <time>2024-04-19T06:37:10.575Z</time>
      </trkpt>
      <trkpt lat="43.65392" lon="3.84426">
        <ele>66.7</ele>
        <time>2024-04-19T06:37:12.591Z</time>
      </trkpt>
      <trkpt lat="43.65399" lon="3.84376">
        <ele>68.4</ele>
        <time>2024-04-19T06:37:28.009Z</time>
      </trkpt>
      <trkpt lat="43.65396" lon="3.84349">
        <ele>68.7</ele>
        <time>2024-04-19T06:37:35.499Z</time>
      </trkpt>
      <trkpt lat="43.65395" lon="3.84328">
        <ele>68.6</ele>
        <time>2024-04-19T06:37:40.894Z</time>
      </trkpt>
      <trkpt lat="43.65405" lon="3.84302">
        <ele>70.4</ele>
        <time>2024-04-19T06:37:51.026Z</time>
      </trkpt>
      <trkpt lat="43.65419" lon="3.84276">
        <ele>69.4</ele>
        <time>2024-04-19T06:37:58.486Z</time>
      </trkpt>
      <trkpt lat="43.65433" lon="3.84279">
        <ele>70.7</ele>
        <time>2024-04-19T06:38:05.395Z</time>
      </trkpt>
      <trkpt lat="43.65444" lon="3.84277">
        <ele>72</ele>
        <time>2024-04-19T06:38:11.309Z</time>
      </trkpt>
      <trkpt lat="43.6545" lon="3.84288">
        <ele>71.8</ele>
        <time>2024-04-19T06:38:14.699Z</time>
      </trkpt>
      <trkpt lat="43.65449" lon="3.84297">
        <ele>71.4</ele>
        <time>2024-04-19T06:38:16.783Z</time>
      </trkpt>
      <trkpt lat="43.65447" lon="3.84325">
        <ele>70.3</ele>
        <time>2024-04-19T06:38:23.222Z</time>
      </trkpt>
      <trkpt lat="43.65447" lon="3.84344">
        <ele>69.6</ele>
        <time>2024-04-19T06:38:27.571Z</time>
      </trkpt>
      <trkpt lat="43.65452" lon="3.84395">
        <ele>67.6</ele>
        <time>2024-04-19T06:38:39.350Z</time>
      </trkpt>
      <trkpt lat="43.65461" lon="3.84456">
        <ele>66</ele>
        <time>2024-04-19T06:38:53.981Z</time>
      </trkpt>
      <trkpt lat="43.65462" lon="3.84487">
        <ele>65.7</ele>
        <time>2024-04-19T06:39:01.773Z</time>
      </trkpt>
      <trkpt lat="43.65466" lon="3.84502">
        <ele>66</ele>
        <time>2024-04-19T06:39:06.308Z</time>
      </trkpt>
      <trkpt lat="43.65473" lon="3.84527">
        <ele>65.1</ele>
        <time>2024-04-19T06:39:12.443Z</time>
      </trkpt>
      <trkpt lat="43.65475" lon="3.84542">
        <ele>65.4</ele>
        <time>2024-04-19T06:39:16.787Z</time>
      </trkpt>
      <trkpt lat="43.65476" lon="3.84564">
        <ele>65</ele>
        <time>2024-04-19T06:39:22.130Z</time>
      </trkpt>
      <trkpt lat="43.65476" lon="3.84598">
        <ele>63.1</ele>
        <time>2024-04-19T06:39:29.912Z</time>
      </trkpt>
      <trkpt lat="43.65475" lon="3.84605">
        <ele>62.7</ele>
        <time>2024-04-19T06:39:31.545Z</time>
      </trkpt>
      <trkpt lat="43.65467" lon="3.84637">
        <ele>63.3</ele>
        <time>2024-04-19T06:39:41.105Z</time>
      </trkpt>
      <trkpt lat="43.65453" lon="3.84758">
        <ele>61.2</ele>
        <time>2024-04-19T06:40:10.933Z</time>
      </trkpt>
      <trkpt lat="43.65454" lon="3.84801">
        <ele>62.2</ele>
        <time>2024-04-19T06:40:23.381Z</time>
      </trkpt>
      <trkpt lat="43.65463" lon="3.84814">
        <ele>63.2</ele>
        <time>2024-04-19T06:40:29.412Z</time>
      </trkpt>
      <trkpt lat="43.65472" lon="3.84836">
        <ele>62.9</ele>
        <time>2024-04-19T06:40:35.700Z</time>
      </trkpt>
      <trkpt lat="43.65483" lon="3.84872">
        <ele>63.6</ele>
        <time>2024-04-19T06:40:46.744Z</time>
      </trkpt>
      <trkpt lat="43.65487" lon="3.8489">
        <ele>64.1</ele>
        <time>2024-04-19T06:40:52.273Z</time>
      </trkpt>
      <trkpt lat="43.65485" lon="3.84899">
        <ele>64.5</ele>
        <time>2024-04-19T06:40:55.243Z</time>
      </trkpt>
      <trkpt lat="43.65477" lon="3.84928">
        <ele>65.7</ele>
        <time>2024-04-19T06:41:04.867Z</time>
      </trkpt>
      <trkpt lat="43.65476" lon="3.84935">
        <ele>66.3</ele>
        <time>2024-04-19T06:41:07.609Z</time>
      </trkpt>
      <trkpt lat="43.65474" lon="3.84946">
        <ele>67.1</ele>
        <time>2024-04-19T06:41:11.691Z</time>
      </trkpt>
      <trkpt lat="43.65475" lon="3.84964">
        <ele>66.6</ele>
        <time>2024-04-19T06:41:15.900Z</time>
      </trkpt>
      <trkpt lat="43.6548" lon="3.84991">
        <ele>65.3</ele>
        <time>2024-04-19T06:41:22.278Z</time>
      </trkpt>
      <trkpt lat="43.65492" lon="3.85001">
        <ele>65.4</ele>
        <time>2024-04-19T06:41:27.457Z</time>
      </trkpt>
      <trkpt lat="43.65505" lon="3.85019">
        <ele>65.5</ele>
        <time>2024-04-19T06:41:34.222Z</time>
      </trkpt>
      <trkpt lat="43.6551" lon="3.85022">
        <ele>65.6</ele>
        <time>2024-04-19T06:41:36.308Z</time>
      </trkpt>
      <trkpt lat="43.65516" lon="3.85022">
        <ele>65.8</ele>
        <time>2024-04-19T06:41:38.717Z</time>
      </trkpt>
      <trkpt lat="43.65522" lon="3.85014">
        <ele>66.3</ele>
        <time>2024-04-19T06:41:42.367Z</time>
      </trkpt>
      <trkpt lat="43.6553" lon="3.85006">
        <ele>66.6</ele>
        <time>2024-04-19T06:41:46.294Z</time>
      </trkpt>
      <trkpt lat="43.6554" lon="3.84995">
        <ele>66.2</ele>
        <time>2024-04-19T06:41:50.498Z</time>
      </trkpt>
      <trkpt lat="43.65548" lon="3.84974">
        <ele>65.8</ele>
        <time>2024-04-19T06:41:56.282Z</time>
      </trkpt>
      <trkpt lat="43.6555" lon="3.84952">
        <ele>66</ele>
        <time>2024-04-19T06:42:02.310Z</time>
      </trkpt>
      <trkpt lat="43.65557" lon="3.84908">
        <ele>66.6</ele>
        <time>2024-04-19T06:42:14.788Z</time>
      </trkpt>
      <trkpt lat="43.65555" lon="3.84897">
        <ele>67.4</ele>
        <time>2024-04-19T06:42:18.870Z</time>
      </trkpt>
      <trkpt lat="43.6556" lon="3.84894">
        <ele>67.5</ele>
        <time>2024-04-19T06:42:20.956Z</time>
      </trkpt>
      <trkpt lat="43.6557" lon="3.84885">
        <ele>67.7</ele>
        <time>2024-04-19T06:42:25.501Z</time>
      </trkpt>
      <trkpt lat="43.65571" lon="3.84871">
        <ele>68.4</ele>
        <time>2024-04-19T06:42:30.091Z</time>
      </trkpt>
      <trkpt lat="43.65572" lon="3.8486">
        <ele>69.1</ele>
        <time>2024-04-19T06:42:33.943Z</time>
      </trkpt>
      <trkpt lat="43.65579" lon="3.84847">
        <ele>70.6</ele>
        <time>2024-04-19T06:42:40.439Z</time>
      </trkpt>
      <trkpt lat="43.65582" lon="3.84839">
        <ele>71.4</ele>
        <time>2024-04-19T06:42:43.984Z</time>
      </trkpt>
      <trkpt lat="43.65588" lon="3.84817">
        <ele>73.1</ele>
        <time>2024-04-19T06:42:52.518Z</time>
      </trkpt>
      <trkpt lat="43.65588" lon="3.84808">
        <ele>73.7</ele>
        <time>2024-04-19T06:42:55.697Z</time>
      </trkpt>
      <trkpt lat="43.65592" lon="3.84779">
        <ele>74.6</ele>
        <time>2024-04-19T06:43:04.519Z</time>
      </trkpt>
      <trkpt lat="43.65599" lon="3.84756">
        <ele>74.8</ele>
        <time>2024-04-19T06:43:11.273Z</time>
      </trkpt>
      <trkpt lat="43.65606" lon="3.8474">
        <ele>74.7</ele>
        <time>2024-04-19T06:43:16.054Z</time>
      </trkpt>
      <trkpt lat="43.65612" lon="3.84745">
        <ele>74.1</ele>
        <time>2024-04-19T06:43:18.270Z</time>
      </trkpt>
      <trkpt lat="43.65616" lon="3.84757">
        <ele>73.6</ele>
        <time>2024-04-19T06:43:21.294Z</time>
      </trkpt>
      <trkpt lat="43.65618" lon="3.84768">
        <ele>73.5</ele>
        <time>2024-04-19T06:43:24.152Z</time>
      </trkpt>
      <trkpt lat="43.65625" lon="3.84791">
        <ele>72.3</ele>
        <time>2024-04-19T06:43:29.863Z</time>
      </trkpt>
      <trkpt lat="43.6563" lon="3.84802">
        <ele>71.2</ele>
        <time>2024-04-19T06:43:32.836Z</time>
      </trkpt>
      <trkpt lat="43.6564" lon="3.84819">
        <ele>69.5</ele>
        <time>2024-04-19T06:43:37.850Z</time>
      </trkpt>
      <trkpt lat="43.65645" lon="3.84824">
        <ele>69</ele>
        <time>2024-04-19T06:43:39.802Z</time>
      </trkpt>
      <trkpt lat="43.65651" lon="3.84812">
        <ele>69.2</ele>
        <time>2024-04-19T06:43:43.849Z</time>
      </trkpt>
      <trkpt lat="43.65653" lon="3.84804">
        <ele>69.5</ele>
        <time>2024-04-19T06:43:46.435Z</time>
      </trkpt>
      <trkpt lat="43.65657" lon="3.84779">
        <ele>70</ele>
        <time>2024-04-19T06:43:53.723Z</time>
      </trkpt>
      <trkpt lat="43.65664" lon="3.84764">
        <ele>70.2</ele>
        <time>2024-04-19T06:43:58.621Z</time>
      </trkpt>
      <trkpt lat="43.6568" lon="3.84777">
        <ele>69.5</ele>
        <time>2024-04-19T06:44:04.611Z</time>
      </trkpt>
      <trkpt lat="43.65703" lon="3.84791">
        <ele>69.5</ele>
        <time>2024-04-19T06:44:13.697Z</time>
      </trkpt>
      <trkpt lat="43.65711" lon="3.84792">
        <ele>69.9</ele>
        <time>2024-04-19T06:44:17.098Z</time>
      </trkpt>
      <trkpt lat="43.65713" lon="3.84784">
        <ele>70.4</ele>
        <time>2024-04-19T06:44:19.982Z</time>
      </trkpt>
      <trkpt lat="43.65712" lon="3.84773">
        <ele>71.1</ele>
        <time>2024-04-19T06:44:23.834Z</time>
      </trkpt>
      <trkpt lat="43.65709" lon="3.84711">
        <ele>74.5</ele>
        <time>2024-04-19T06:44:44.580Z</time>
      </trkpt>
      <trkpt lat="43.65707" lon="3.84671">
        <ele>76.6</ele>
        <time>2024-04-19T06:44:57.822Z</time>
      </trkpt>
      <trkpt lat="43.65708" lon="3.84631">
        <ele>79.3</ele>
        <time>2024-04-19T06:45:12.015Z</time>
      </trkpt>
      <trkpt lat="43.65706" lon="3.84602">
        <ele>80.5</ele>
        <time>2024-04-19T06:45:21.152Z</time>
      </trkpt>
      <trkpt lat="43.65705" lon="3.84587">
        <ele>81.4</ele>
        <time>2024-04-19T06:45:26.302Z</time>
      </trkpt>
      <trkpt lat="43.65706" lon="3.84573">
        <ele>82.2</ele>
        <time>2024-04-19T06:45:31.046Z</time>
      </trkpt>
      <trkpt lat="43.65707" lon="3.84545">
        <ele>83.6</ele>
        <time>2024-04-19T06:45:40.200Z</time>
      </trkpt>
      <trkpt lat="43.65706" lon="3.84524">
        <ele>84.7</ele>
        <time>2024-04-19T06:45:47.147Z</time>
      </trkpt>
      <trkpt lat="43.65707" lon="3.84509">
        <ele>85.2</ele>
        <time>2024-04-19T06:45:51.703Z</time>
      </trkpt>
      <trkpt lat="43.65714" lon="3.84485">
        <ele>86.2</ele>
        <time>2024-04-19T06:45:59.725Z</time>
      </trkpt>
      <trkpt lat="43.65715" lon="3.84465">
        <ele>87.3</ele>
        <time>2024-04-19T06:46:06.424Z</time>
      </trkpt>
      <trkpt lat="43.65715" lon="3.84447">
        <ele>87.9</ele>
        <time>2024-04-19T06:46:11.871Z</time>
      </trkpt>
      <trkpt lat="43.65741" lon="3.84376">
        <ele>91.1</ele>
        <time>2024-04-19T06:46:36.719Z</time>
      </trkpt>
      <trkpt lat="43.65754" lon="3.84357">
        <ele>93</ele>
        <time>2024-04-19T06:46:46.227Z</time>
      </trkpt>
      <trkpt lat="43.65762" lon="3.84333">
        <ele>93.4</ele>
        <time>2024-04-19T06:46:53.604Z</time>
      </trkpt>
      <trkpt lat="43.65768" lon="3.8432">
        <ele>94.4</ele>
        <time>2024-04-19T06:46:59.004Z</time>
      </trkpt>
      <trkpt lat="43.65773" lon="3.84306">
        <ele>95.6</ele>
        <time>2024-04-19T06:47:04.798Z</time>
      </trkpt>
      <trkpt lat="43.6577" lon="3.8429">
        <ele>96</ele>
        <time>2024-04-19T06:47:09.600Z</time>
      </trkpt>
      <trkpt lat="43.65743" lon="3.84216">
        <ele>94.7</ele>
        <time>2024-04-19T06:47:29.895Z</time>
      </trkpt>
      <trkpt lat="43.65737" lon="3.84207">
        <ele>94</ele>
        <time>2024-04-19T06:47:32.696Z</time>
      </trkpt>
      <trkpt lat="43.65724" lon="3.84179">
        <ele>94.8</ele>
        <time>2024-04-19T06:47:42.355Z</time>
      </trkpt>
      <trkpt lat="43.65706" lon="3.84133">
        <ele>98.9</ele>
        <time>2024-04-19T06:48:01.906Z</time>
      </trkpt>
      <trkpt lat="43.657" lon="3.84121">
        <ele>99.6</ele>
        <time>2024-04-19T06:48:06.626Z</time>
      </trkpt>
      <trkpt lat="43.65702" lon="3.84114">
        <ele>100.3</ele>
        <time>2024-04-19T06:48:09.650Z</time>
      </trkpt>
      <trkpt lat="43.65708" lon="3.84109">
        <ele>101.2</ele>
        <time>2024-04-19T06:48:13.539Z</time>
      </trkpt>
      <trkpt lat="43.65723" lon="3.84098">
        <ele>103</ele>
        <time>2024-04-19T06:48:22.241Z</time>
      </trkpt>
      <trkpt lat="43.65741" lon="3.84085">
        <ele>104.6</ele>
        <time>2024-04-19T06:48:31.714Z</time>
      </trkpt>
      <trkpt lat="43.6577" lon="3.84062">
        <ele>105.8</ele>
        <time>2024-04-19T06:48:45.247Z</time>
      </trkpt>
      <trkpt lat="43.65778" lon="3.84059">
        <ele>105.8</ele>
        <time>2024-04-19T06:48:48.243Z</time>
      </trkpt>
      <trkpt lat="43.65782" lon="3.84064">
        <ele>105.2</ele>
        <time>2024-04-19T06:48:49.949Z</time>
      </trkpt>
      <trkpt lat="43.65793" lon="3.84072">
        <ele>104.2</ele>
        <time>2024-04-19T06:48:53.881Z</time>
      </trkpt>
      <trkpt lat="43.65799" lon="3.84074">
        <ele>103.8</ele>
        <time>2024-04-19T06:48:55.833Z</time>
      </trkpt>
      <trkpt lat="43.65803" lon="3.84081">
        <ele>103.9</ele>
        <time>2024-04-19T06:48:58.282Z</time>
      </trkpt>
      <trkpt lat="43.65807" lon="3.84086">
        <ele>103.7</ele>
        <time>2024-04-19T06:49:00.025Z</time>
      </trkpt>
      <trkpt lat="43.65815" lon="3.84101">
        <ele>103</ele>
        <time>2024-04-19T06:49:04.290Z</time>
      </trkpt>
      <trkpt lat="43.65832" lon="3.84129">
        <ele>103.7</ele>
        <time>2024-04-19T06:49:14.676Z</time>
      </trkpt>
      <trkpt lat="43.65857" lon="3.84178">
        <ele>103.4</ele>
        <time>2024-04-19T06:49:30.029Z</time>
      </trkpt>
      <trkpt lat="43.65879" lon="3.84249">
        <ele>101.7</ele>
        <time>2024-04-19T06:49:48.456Z</time>
      </trkpt>
      <trkpt lat="43.65895" lon="3.84289">
        <ele>100</ele>
        <time>2024-04-19T06:49:58.916Z</time>
      </trkpt>
      <trkpt lat="43.65918" lon="3.8436">
        <ele>99.7</ele>
        <time>2024-04-19T06:50:18.932Z</time>
      </trkpt>
      <trkpt lat="43.65928" lon="3.8438">
        <ele>98.7</ele>
        <time>2024-04-19T06:50:24.495Z</time>
      </trkpt>
      <trkpt lat="43.65934" lon="3.84393">
        <ele>98.8</ele>
        <time>2024-04-19T06:50:28.642Z</time>
      </trkpt>
      <trkpt lat="43.65942" lon="3.84413">
        <ele>99</ele>
        <time>2024-04-19T06:50:34.847Z</time>
      </trkpt>
      <trkpt lat="43.65945" lon="3.84418">
        <ele>98.9</ele>
        <time>2024-04-19T06:50:36.440Z</time>
      </trkpt>
      <trkpt lat="43.65952" lon="3.84429">
        <ele>97.9</ele>
        <time>2024-04-19T06:50:39.792Z</time>
      </trkpt>
      <trkpt lat="43.6596" lon="3.84438">
        <ele>97.1</ele>
        <time>2024-04-19T06:50:43.055Z</time>
      </trkpt>
      <trkpt lat="43.65969" lon="3.84465">
        <ele>95.5</ele>
        <time>2024-04-19T06:50:49.858Z</time>
      </trkpt>
      <trkpt lat="43.65976" lon="3.84491">
        <ele>92.9</ele>
        <time>2024-04-19T06:50:56.207Z</time>
      </trkpt>
      <trkpt lat="43.65976" lon="3.84501">
        <ele>92.3</ele>
        <time>2024-04-19T06:50:58.495Z</time>
      </trkpt>
      <trkpt lat="43.65986" lon="3.84526">
        <ele>91</ele>
        <time>2024-04-19T06:51:05.033Z</time>
      </trkpt>
      <trkpt lat="43.65991" lon="3.84529">
        <ele>90.3</ele>
        <time>2024-04-19T06:51:06.757Z</time>
      </trkpt>
      <trkpt lat="43.65998" lon="3.84516">
        <ele>88.9</ele>
        <time>2024-04-19T06:51:10.465Z</time>
      </trkpt>
      <trkpt lat="43.66001" lon="3.84509">
        <ele>88</ele>
        <time>2024-04-19T06:51:12.327Z</time>
      </trkpt>
      <trkpt lat="43.66006" lon="3.84498">
        <ele>86.1</ele>
        <time>2024-04-19T06:51:15.300Z</time>
      </trkpt>
      <trkpt lat="43.6601" lon="3.84491">
        <ele>85.1</ele>
        <time>2024-04-19T06:51:17.341Z</time>
      </trkpt>
      <trkpt lat="43.66015" lon="3.84483">
        <ele>83.8</ele>
        <time>2024-04-19T06:51:19.761Z</time>
      </trkpt>
      <trkpt lat="43.66021" lon="3.84483">
        <ele>81.8</ele>
        <time>2024-04-19T06:51:21.659Z</time>
      </trkpt>
      <trkpt lat="43.66026" lon="3.84485">
        <ele>80.1</ele>
        <time>2024-04-19T06:51:23.305Z</time>
      </trkpt>
      <trkpt lat="43.66037" lon="3.84491">
        <ele>75.9</ele>
        <time>2024-04-19T06:51:27.046Z</time>
      </trkpt>
      <trkpt lat="43.66047" lon="3.84492">
        <ele>72.1</ele>
        <time>2024-04-19T06:51:30.217Z</time>
      </trkpt>
      <trkpt lat="43.66055" lon="3.84489">
        <ele>69.4</ele>
        <time>2024-04-19T06:51:32.839Z</time>
      </trkpt>
      <trkpt lat="43.66063" lon="3.84488">
        <ele>67.6</ele>
        <time>2024-04-19T06:51:35.380Z</time>
      </trkpt>
      <trkpt lat="43.66072" lon="3.84491">
        <ele>65.2</ele>
        <time>2024-04-19T06:51:38.309Z</time>
      </trkpt>
      <trkpt lat="43.66082" lon="3.84486">
        <ele>63.3</ele>
        <time>2024-04-19T06:51:41.673Z</time>
      </trkpt>
      <trkpt lat="43.66091" lon="3.84481">
        <ele>62.2</ele>
        <time>2024-04-19T06:51:44.741Z</time>
      </trkpt>
      <trkpt lat="43.66096" lon="3.84479">
        <ele>61.5</ele>
        <time>2024-04-19T06:51:46.387Z</time>
      </trkpt>
      <trkpt lat="43.66099" lon="3.84472">
        <ele>61.2</ele>
        <time>2024-04-19T06:51:48.249Z</time>
      </trkpt>
      <trkpt lat="43.66105" lon="3.84459">
        <ele>59.9</ele>
        <time>2024-04-19T06:51:51.778Z</time>
      </trkpt>
      <trkpt lat="43.66104" lon="3.84448">
        <ele>60.1</ele>
        <time>2024-04-19T06:51:54.912Z</time>
      </trkpt>
      <trkpt lat="43.661" lon="3.84437">
        <ele>61</ele>
        <time>2024-04-19T06:51:59.398Z</time>
      </trkpt>
      <trkpt lat="43.66097" lon="3.84425">
        <ele>61.3</ele>
        <time>2024-04-19T06:52:03.077Z</time>
      </trkpt>
      <trkpt lat="43.66094" lon="3.84416">
        <ele>61.4</ele>
        <time>2024-04-19T06:52:05.784Z</time>
      </trkpt>
      <trkpt lat="43.66091" lon="3.84408">
        <ele>61.5</ele>
        <time>2024-04-19T06:52:08.255Z</time>
      </trkpt>
      <trkpt lat="43.66087" lon="3.844">
        <ele>61.5</ele>
        <time>2024-04-19T06:52:10.799Z</time>
      </trkpt>
      <trkpt lat="43.66083" lon="3.84393">
        <ele>61.4</ele>
        <time>2024-04-19T06:52:13.024Z</time>
      </trkpt>
      <trkpt lat="43.66079" lon="3.84385">
        <ele>62.2</ele>
        <time>2024-04-19T06:52:16.729Z</time>
      </trkpt>
      <trkpt lat="43.66076" lon="3.84377">
        <ele>62.9</ele>
        <time>2024-04-19T06:52:20.085Z</time>
      </trkpt>
      <trkpt lat="43.66073" lon="3.84366">
        <ele>63.4</ele>
        <time>2024-04-19T06:52:23.795Z</time>
      </trkpt>
      <trkpt lat="43.66055" lon="3.84318">
        <ele>63.1</ele>
        <time>2024-04-19T06:52:37.607Z</time>
      </trkpt>
      <trkpt lat="43.6605" lon="3.84307">
        <ele>63.5</ele>
        <time>2024-04-19T06:52:41.493Z</time>
      </trkpt>
      <trkpt lat="43.66044" lon="3.843">
        <ele>64.5</ele>
        <time>2024-04-19T06:52:45.835Z</time>
      </trkpt>
      <trkpt lat="43.66039" lon="3.84296">
        <ele>65.1</ele>
        <time>2024-04-19T06:52:48.773Z</time>
      </trkpt>
      <trkpt lat="43.66032" lon="3.84288">
        <ele>65.3</ele>
        <time>2024-04-19T06:52:52.290Z</time>
      </trkpt>
      <trkpt lat="43.66029" lon="3.84282">
        <ele>64.6</ele>
        <time>2024-04-19T06:52:53.959Z</time>
      </trkpt>
      <trkpt lat="43.66029" lon="3.84258">
        <ele>63.2</ele>
        <time>2024-04-19T06:52:59.451Z</time>
      </trkpt>
      <trkpt lat="43.66025" lon="3.84237">
        <ele>63</ele>
        <time>2024-04-19T06:53:04.914Z</time>
      </trkpt>
      <trkpt lat="43.65988" lon="3.84171">
        <ele>64.9</ele>
        <time>2024-04-19T06:53:29.018Z</time>
      </trkpt>
      <trkpt lat="43.65979" lon="3.84145">
        <ele>65</ele>
        <time>2024-04-19T06:53:36.669Z</time>
      </trkpt>
      <trkpt lat="43.65953" lon="3.84098">
        <ele>68.2</ele>
        <time>2024-04-19T06:53:56.364Z</time>
      </trkpt>
      <trkpt lat="43.65949" lon="3.84089">
        <ele>68</ele>
        <time>2024-04-19T06:53:58.916Z</time>
      </trkpt>
      <trkpt lat="43.65932" lon="3.84067">
        <ele>69</ele>
        <time>2024-04-19T06:54:08.559Z</time>
      </trkpt>
      <trkpt lat="43.6592" lon="3.84061">
        <ele>70.3</ele>
        <time>2024-04-19T06:54:15.004Z</time>
      </trkpt>
      <trkpt lat="43.65915" lon="3.84057">
        <ele>70.7</ele>
        <time>2024-04-19T06:54:17.614Z</time>
      </trkpt>
      <trkpt lat="43.65911" lon="3.84052">
        <ele>71.4</ele>
        <time>2024-04-19T06:54:20.622Z</time>
      </trkpt>
      <trkpt lat="43.65907" lon="3.84035">
        <ele>70.4</ele>
        <time>2024-04-19T06:54:24.713Z</time>
      </trkpt>
      <trkpt lat="43.65888" lon="3.83984">
        <ele>69</ele>
        <time>2024-04-19T06:54:38.265Z</time>
      </trkpt>
      <trkpt lat="43.65892" lon="3.83978">
        <ele>68.3</ele>
        <time>2024-04-19T06:54:40.132Z</time>
      </trkpt>
      <trkpt lat="43.65912" lon="3.84002">
        <ele>67.6</ele>
        <time>2024-04-19T06:54:48.971Z</time>
      </trkpt>
      <trkpt lat="43.6592" lon="3.83993">
        <ele>66.9</ele>
        <time>2024-04-19T06:54:52.233Z</time>
      </trkpt>
      <trkpt lat="43.6593" lon="3.83902">
        <ele>68.3</ele>
        <time>2024-04-19T06:55:17.938Z</time>
      </trkpt>
      <trkpt lat="43.65932" lon="3.83842">
        <ele>69.4</ele>
        <time>2024-04-19T06:55:34.941Z</time>
      </trkpt>
      <trkpt lat="43.65928" lon="3.83819">
        <ele>69.7</ele>
        <time>2024-04-19T06:55:41.474Z</time>
      </trkpt>
      <trkpt lat="43.65925" lon="3.83806">
        <ele>70</ele>
        <time>2024-04-19T06:55:45.400Z</time>
      </trkpt>
      <trkpt lat="43.65919" lon="3.83792">
        <ele>70.5</ele>
        <time>2024-04-19T06:55:50.268Z</time>
      </trkpt>
      <trkpt lat="43.65916" lon="3.8377">
        <ele>71</ele>
        <time>2024-04-19T06:55:56.718Z</time>
      </trkpt>
      <trkpt lat="43.65928" lon="3.83749">
        <ele>71.4</ele>
        <time>2024-04-19T06:56:04.183Z</time>
      </trkpt>
      <trkpt lat="43.65934" lon="3.8375">
        <ele>71.6</ele>
        <time>2024-04-19T06:56:06.607Z</time>
      </trkpt>
      <trkpt lat="43.65969" lon="3.83768">
        <ele>71.9</ele>
        <time>2024-04-19T06:56:20.447Z</time>
      </trkpt>
      <trkpt lat="43.65983" lon="3.8376">
        <ele>72</ele>
        <time>2024-04-19T06:56:26.037Z</time>
      </trkpt>
      <trkpt lat="43.66006" lon="3.83743">
        <ele>72.5</ele>
        <time>2024-04-19T06:56:36.046Z</time>
      </trkpt>
      <trkpt lat="43.66013" lon="3.83734">
        <ele>73</ele>
        <time>2024-04-19T06:56:40.127Z</time>
      </trkpt>
      <trkpt lat="43.66015" lon="3.83727">
        <ele>73.4</ele>
        <time>2024-04-19T06:56:42.622Z</time>
      </trkpt>
      <trkpt lat="43.66017" lon="3.83708">
        <ele>74.1</ele>
        <time>2024-04-19T06:56:48.515Z</time>
      </trkpt>
      <trkpt lat="43.66024" lon="3.83685">
        <ele>75.2</ele>
        <time>2024-04-19T06:56:56.445Z</time>
      </trkpt>
      <trkpt lat="43.66034" lon="3.83675">
        <ele>75.9</ele>
        <time>2024-04-19T06:57:01.792Z</time>
      </trkpt>
      <trkpt lat="43.66061" lon="3.83662">
        <ele>77.7</ele>
        <time>2024-04-19T06:57:14.437Z</time>
      </trkpt>
      <trkpt lat="43.66078" lon="3.8366">
        <ele>78.9</ele>
        <time>2024-04-19T06:57:22.171Z</time>
      </trkpt>
      <trkpt lat="43.66095" lon="3.83669">
        <ele>79.7</ele>
        <time>2024-04-19T06:57:29.734Z</time>
      </trkpt>
      <trkpt lat="43.66111" lon="3.83684">
        <ele>79.7</ele>
        <time>2024-04-19T06:57:36.723Z</time>
      </trkpt>
      <trkpt lat="43.66128" lon="3.83698">
        <ele>80</ele>
        <time>2024-04-19T06:57:44.222Z</time>
      </trkpt>
      <trkpt lat="43.6615" lon="3.8372">
        <ele>79.6</ele>
        <time>2024-04-19T06:57:53.607Z</time>
      </trkpt>
      <trkpt lat="43.66168" lon="3.83741">
        <ele>78.7</ele>
        <time>2024-04-19T06:58:01.198Z</time>
      </trkpt>
      <trkpt lat="43.66192" lon="3.83757">
        <ele>78.2</ele>
        <time>2024-04-19T06:58:10.296Z</time>
      </trkpt>
      <trkpt lat="43.66235" lon="3.83778">
        <ele>75.5</ele>
        <time>2024-04-19T06:58:24.721Z</time>
      </trkpt>
      <trkpt lat="43.66304" lon="3.83816">
        <ele>73.9</ele>
        <time>2024-04-19T06:58:49.872Z</time>
      </trkpt>
      <trkpt lat="43.66325" lon="3.83839">
        <ele>73</ele>
        <time>2024-04-19T06:58:58.624Z</time>
      </trkpt>
      <trkpt lat="43.66335" lon="3.83857">
        <ele>71.6</ele>
        <time>2024-04-19T06:59:03.818Z</time>
      </trkpt>
      <trkpt lat="43.66338" lon="3.83865">
        <ele>71.4</ele>
        <time>2024-04-19T06:59:05.966Z</time>
      </trkpt>
      <trkpt lat="43.66339" lon="3.83872">
        <ele>71.2</ele>
        <time>2024-04-19T06:59:07.627Z</time>
      </trkpt>
      <trkpt lat="43.66338" lon="3.83896">
        <ele>70.2</ele>
        <time>2024-04-19T06:59:13.128Z</time>
      </trkpt>
      <trkpt lat="43.66339" lon="3.83903">
        <ele>69.9</ele>
        <time>2024-04-19T06:59:14.760Z</time>
      </trkpt>
      <trkpt lat="43.6635" lon="3.83916">
        <ele>69.7</ele>
        <time>2024-04-19T06:59:19.776Z</time>
      </trkpt>
      <trkpt lat="43.66362" lon="3.83908">
        <ele>71</ele>
        <time>2024-04-19T06:59:26.405Z</time>
      </trkpt>
      <trkpt lat="43.66382" lon="3.83897">
        <ele>72.3</ele>
        <time>2024-04-19T06:59:35.844Z</time>
      </trkpt>
      <trkpt lat="43.66395" lon="3.83899">
        <ele>72.4</ele>
        <time>2024-04-19T06:59:40.686Z</time>
      </trkpt>
      <trkpt lat="43.66407" lon="3.83906">
        <ele>72.5</ele>
        <time>2024-04-19T06:59:45.508Z</time>
      </trkpt>
      <trkpt lat="43.66508" lon="3.83959">
        <ele>70.5</ele>
        <time>2024-04-19T07:00:22.423Z</time>
      </trkpt>
      <trkpt lat="43.66523" lon="3.8396">
        <ele>70.4</ele>
        <time>2024-04-19T07:00:27.742Z</time>
      </trkpt>
      <trkpt lat="43.66525" lon="3.83968">
        <ele>70.2</ele>
        <time>2024-04-19T07:00:29.748Z</time>
      </trkpt>
      <trkpt lat="43.66522" lon="3.83984">
        <ele>69.3</ele>
        <time>2024-04-19T07:00:33.530Z</time>
      </trkpt>
      <trkpt lat="43.6653" lon="3.83994">
        <ele>68.6</ele>
        <time>2024-04-19T07:00:36.942Z</time>
      </trkpt>
      <trkpt lat="43.66627" lon="3.8406">
        <ele>68.9</ele>
        <time>2024-04-19T07:01:16.362Z</time>
      </trkpt>
      <trkpt lat="43.66636" lon="3.84076">
        <ele>67.9</ele>
        <time>2024-04-19T07:01:20.999Z</time>
      </trkpt>
      <trkpt lat="43.66642" lon="3.84107">
        <ele>67.1</ele>
        <time>2024-04-19T07:01:28.563Z</time>
      </trkpt>
      <trkpt lat="43.66648" lon="3.84106">
        <ele>67.3</ele>
        <time>2024-04-19T07:01:30.988Z</time>
      </trkpt>
      <trkpt lat="43.66654" lon="3.84096">
        <ele>68.5</ele>
        <time>2024-04-19T07:01:36.190Z</time>
      </trkpt>
      <trkpt lat="43.66645" lon="3.8403">
        <ele>76.5</ele>
        <time>2024-04-19T07:02:07.016Z</time>
      </trkpt>
      <trkpt lat="43.66641" lon="3.84011">
        <ele>79.3</ele>
        <time>2024-04-19T07:02:17.242Z</time>
      </trkpt>
      <trkpt lat="43.66646" lon="3.83996">
        <ele>82.1</ele>
        <time>2024-04-19T07:02:27.197Z</time>
      </trkpt>
      <trkpt lat="43.66648" lon="3.83989">
        <ele>82.9</ele>
        <time>2024-04-19T07:02:30.431Z</time>
      </trkpt>
      <trkpt lat="43.66653" lon="3.83981">
        <ele>83.9</ele>
        <time>2024-04-19T07:02:34.712Z</time>
      </trkpt>
      <trkpt lat="43.66658" lon="3.83975">
        <ele>84.5</ele>
        <time>2024-04-19T07:02:37.928Z</time>
      </trkpt>
      <trkpt lat="43.66658" lon="3.83962">
        <ele>86.2</ele>
        <time>2024-04-19T07:02:44.271Z</time>
      </trkpt>
      <trkpt lat="43.66652" lon="3.83953">
        <ele>87.2</ele>
        <time>2024-04-19T07:02:48.921Z</time>
      </trkpt>
      <trkpt lat="43.66651" lon="3.83946">
        <ele>88.2</ele>
        <time>2024-04-19T07:02:52.582Z</time>
      </trkpt>
      <trkpt lat="43.66657" lon="3.83936">
        <ele>89.2</ele>
        <time>2024-04-19T07:02:57.404Z</time>
      </trkpt>
      <trkpt lat="43.66659" lon="3.83929">
        <ele>89.7</ele>
        <time>2024-04-19T07:03:00.060Z</time>
      </trkpt>
      <trkpt lat="43.66659" lon="3.83921">
        <ele>90.2</ele>
        <time>2024-04-19T07:03:02.830Z</time>
      </trkpt>
      <trkpt lat="43.66655" lon="3.83914">
        <ele>90.3</ele>
        <time>2024-04-19T07:03:05.278Z</time>
      </trkpt>
      <trkpt lat="43.66649" lon="3.839">
        <ele>90.3</ele>
        <time>2024-04-19T07:03:09.534Z</time>
      </trkpt>
      <trkpt lat="43.66645" lon="3.83886">
        <ele>90.5</ele>
        <time>2024-04-19T07:03:13.702Z</time>
      </trkpt>
      <trkpt lat="43.66649" lon="3.83868">
        <ele>90.9</ele>
        <time>2024-04-19T07:03:19.101Z</time>
      </trkpt>
      <trkpt lat="43.66657" lon="3.83853">
        <ele>90.7</ele>
        <time>2024-04-19T07:03:23.759Z</time>
      </trkpt>
      <trkpt lat="43.6666" lon="3.83834">
        <ele>90</ele>
        <time>2024-04-19T07:03:28.209Z</time>
      </trkpt>
      <trkpt lat="43.66652" lon="3.83832">
        <ele>90</ele>
        <time>2024-04-19T07:03:31.148Z</time>
      </trkpt>
      <trkpt lat="43.66654" lon="3.83831">
        <ele>89.9</ele>
        <time>2024-04-19T07:03:31.820Z</time>
      </trkpt>
      <trkpt lat="43.66662" lon="3.83829">
        <ele>89.8</ele>
        <time>2024-04-19T07:03:34.651Z</time>
      </trkpt>
      <trkpt lat="43.66672" lon="3.8383">
        <ele>90.2</ele>
        <time>2024-04-19T07:03:38.762Z</time>
      </trkpt>
      <trkpt lat="43.6668" lon="3.83836">
        <ele>91</ele>
        <time>2024-04-19T07:03:43.142Z</time>
      </trkpt>
      <trkpt lat="43.66693" lon="3.83849">
        <ele>91.9</ele>
        <time>2024-04-19T07:03:50.078Z</time>
      </trkpt>
      <trkpt lat="43.66702" lon="3.83861">
        <ele>92.5</ele>
        <time>2024-04-19T07:03:55.341Z</time>
      </trkpt>
      <trkpt lat="43.66709" lon="3.83874">
        <ele>92.8</ele>
        <time>2024-04-19T07:03:59.933Z</time>
      </trkpt>
      <trkpt lat="43.66707" lon="3.83896">
        <ele>92.2</ele>
        <time>2024-04-19T07:04:05.114Z</time>
      </trkpt>
      <trkpt lat="43.66708" lon="3.8393">
        <ele>90.8</ele>
        <time>2024-04-19T07:04:12.900Z</time>
      </trkpt>
      <trkpt lat="43.66704" lon="3.83967">
        <ele>87.8</ele>
        <time>2024-04-19T07:04:21.460Z</time>
      </trkpt>
      <trkpt lat="43.66708" lon="3.83983">
        <ele>86.5</ele>
        <time>2024-04-19T07:04:25.334Z</time>
      </trkpt>
      <trkpt lat="43.66714" lon="3.83985">
        <ele>86.5</ele>
        <time>2024-04-19T07:04:27.565Z</time>
      </trkpt>
      <trkpt lat="43.66723" lon="3.83985">
        <ele>86.6</ele>
        <time>2024-04-19T07:04:30.933Z</time>
      </trkpt>
      <trkpt lat="43.66736" lon="3.83983">
        <ele>86.6</ele>
        <time>2024-04-19T07:04:35.661Z</time>
      </trkpt>
      <trkpt lat="43.66746" lon="3.83981">
        <ele>86.8</ele>
        <time>2024-04-19T07:04:39.546Z</time>
      </trkpt>
      <trkpt lat="43.66754" lon="3.8399">
        <ele>85.4</ele>
        <time>2024-04-19T07:04:42.809Z</time>
      </trkpt>
      <trkpt lat="43.66768" lon="3.84013">
        <ele>82.3</ele>
        <time>2024-04-19T07:04:49.687Z</time>
      </trkpt>
      <trkpt lat="43.66775" lon="3.84016">
        <ele>81.8</ele>
        <time>2024-04-19T07:04:52.005Z</time>
      </trkpt>
      <trkpt lat="43.66783" lon="3.84017">
        <ele>81.6</ele>
        <time>2024-04-19T07:04:54.698Z</time>
      </trkpt>
      <trkpt lat="43.66811" lon="3.84043">
        <ele>77.2</ele>
        <time>2024-04-19T07:05:05.368Z</time>
      </trkpt>
      <trkpt lat="43.66822" lon="3.84046">
        <ele>76.5</ele>
        <time>2024-04-19T07:05:08.914Z</time>
      </trkpt>
      <trkpt lat="43.66839" lon="3.84049">
        <ele>75.7</ele>
        <time>2024-04-19T07:05:14.335Z</time>
      </trkpt>
      <trkpt lat="43.66854" lon="3.84054">
        <ele>74.5</ele>
        <time>2024-04-19T07:05:19.216Z</time>
      </trkpt>
      <trkpt lat="43.66861" lon="3.84056">
        <ele>73.9</ele>
        <time>2024-04-19T07:05:21.477Z</time>
      </trkpt>
      <trkpt lat="43.66874" lon="3.84063">
        <ele>71.4</ele>
        <time>2024-04-19T07:05:25.890Z</time>
      </trkpt>
      <trkpt lat="43.66881" lon="3.84061">
        <ele>71.1</ele>
        <time>2024-04-19T07:05:28.169Z</time>
      </trkpt>
      <trkpt lat="43.66889" lon="3.84062">
        <ele>70.3</ele>
        <time>2024-04-19T07:05:30.710Z</time>
      </trkpt>
      <trkpt lat="43.66898" lon="3.84055">
        <ele>69.7</ele>
        <time>2024-04-19T07:05:33.976Z</time>
      </trkpt>
      <trkpt lat="43.66903" lon="3.84048">
        <ele>69.5</ele>
        <time>2024-04-19T07:05:36.339Z</time>
      </trkpt>
      <trkpt lat="43.66907" lon="3.84042">
        <ele>69.2</ele>
        <time>2024-04-19T07:05:38.206Z</time>
      </trkpt>
      <trkpt lat="43.66912" lon="3.84031">
        <ele>68.9</ele>
        <time>2024-04-19T07:05:41.291Z</time>
      </trkpt>
      <trkpt lat="43.66915" lon="3.84018">
        <ele>68.4</ele>
        <time>2024-04-19T07:05:44.413Z</time>
      </trkpt>
      <trkpt lat="43.66914" lon="3.84">
        <ele>68.8</ele>
        <time>2024-04-19T07:05:49.610Z</time>
      </trkpt>
      <trkpt lat="43.66914" lon="3.8399">
        <ele>69</ele>
        <time>2024-04-19T07:05:52.462Z</time>
      </trkpt>
      <trkpt lat="43.6691" lon="3.83977">
        <ele>70.2</ele>
        <time>2024-04-19T07:05:57.914Z</time>
      </trkpt>
      <trkpt lat="43.66906" lon="3.83969">
        <ele>70.8</ele>
        <time>2024-04-19T07:06:01.269Z</time>
      </trkpt>
      <trkpt lat="43.66893" lon="3.83955">
        <ele>71.2</ele>
        <time>2024-04-19T07:06:07.696Z</time>
      </trkpt>
      <trkpt lat="43.66886" lon="3.83934">
        <ele>70.8</ele>
        <time>2024-04-19T07:06:13.320Z</time>
      </trkpt>
      <trkpt lat="43.66881" lon="3.83889">
        <ele>72.3</ele>
        <time>2024-04-19T07:06:27.073Z</time>
      </trkpt>
      <trkpt lat="43.66881" lon="3.83878">
        <ele>72.6</ele>
        <time>2024-04-19T07:06:30.312Z</time>
      </trkpt>
      <trkpt lat="43.66882" lon="3.83843">
        <ele>73.2</ele>
        <time>2024-04-19T07:06:40.175Z</time>
      </trkpt>
      <trkpt lat="43.66884" lon="3.83835">
        <ele>73</ele>
        <time>2024-04-19T07:06:42.180Z</time>
      </trkpt>
      <trkpt lat="43.66883" lon="3.83818">
        <ele>74.8</ele>
        <time>2024-04-19T07:06:49.479Z</time>
      </trkpt>
      <trkpt lat="43.66876" lon="3.83798">
        <ele>76.5</ele>
        <time>2024-04-19T07:06:57.709Z</time>
      </trkpt>
      <trkpt lat="43.6687" lon="3.83777">
        <ele>75.9</ele>
        <time>2024-04-19T07:07:02.995Z</time>
      </trkpt>
      <trkpt lat="43.66869" lon="3.83762">
        <ele>76</ele>
        <time>2024-04-19T07:07:07.047Z</time>
      </trkpt>
      <trkpt lat="43.66866" lon="3.83743">
        <ele>75.4</ele>
        <time>2024-04-19T07:07:11.522Z</time>
      </trkpt>
      <trkpt lat="43.66867" lon="3.83734">
        <ele>75.7</ele>
        <time>2024-04-19T07:07:14.273Z</time>
      </trkpt>
      <trkpt lat="43.66875" lon="3.83708">
        <ele>76.2</ele>
        <time>2024-04-19T07:07:22.249Z</time>
      </trkpt>
      <trkpt lat="43.66878" lon="3.83661">
        <ele>76.7</ele>
        <time>2024-04-19T07:07:35.161Z</time>
      </trkpt>
      <trkpt lat="43.66876" lon="3.83625">
        <ele>77.7</ele>
        <time>2024-04-19T07:07:45.814Z</time>
      </trkpt>
      <trkpt lat="43.6687" lon="3.83607">
        <ele>78.4</ele>
        <time>2024-04-19T07:07:51.866Z</time>
      </trkpt>
      <trkpt lat="43.66864" lon="3.83601">
        <ele>78.8</ele>
        <time>2024-04-19T07:07:55.045Z</time>
      </trkpt>
      <trkpt lat="43.66858" lon="3.83596">
        <ele>79.3</ele>
        <time>2024-04-19T07:07:58.232Z</time>
      </trkpt>
      <trkpt lat="43.66849" lon="3.83591">
        <ele>80</ele>
        <time>2024-04-19T07:08:02.656Z</time>
      </trkpt>
      <trkpt lat="43.66841" lon="3.83584">
        <ele>80.5</ele>
        <time>2024-04-19T07:08:06.705Z</time>
      </trkpt>
      <trkpt lat="43.66833" lon="3.83582">
        <ele>81</ele>
        <time>2024-04-19T07:08:10.283Z</time>
      </trkpt>
      <trkpt lat="43.66827" lon="3.8358">
        <ele>81.3</ele>
        <time>2024-04-19T07:08:12.887Z</time>
      </trkpt>
      <trkpt lat="43.66823" lon="3.83574">
        <ele>81.3</ele>
        <time>2024-04-19T07:08:15.020Z</time>
      </trkpt>
      <trkpt lat="43.66817" lon="3.83561">
        <ele>80.9</ele>
        <time>2024-04-19T07:08:18.640Z</time>
      </trkpt>
      <trkpt lat="43.66811" lon="3.83562">
        <ele>81.2</ele>
        <time>2024-04-19T07:08:21.198Z</time>
      </trkpt>
      <trkpt lat="43.66805" lon="3.83564">
        <ele>81.7</ele>
        <time>2024-04-19T07:08:24.099Z</time>
      </trkpt>
      <trkpt lat="43.66798" lon="3.83562">
        <ele>82.3</ele>
        <time>2024-04-19T07:08:27.492Z</time>
      </trkpt>
      <trkpt lat="43.66793" lon="3.83559">
        <ele>82.7</ele>
        <time>2024-04-19T07:08:29.989Z</time>
      </trkpt>
      <trkpt lat="43.66788" lon="3.83559">
        <ele>83.2</ele>
        <time>2024-04-19T07:08:32.497Z</time>
      </trkpt>
      <trkpt lat="43.66778" lon="3.83563">
        <ele>84.8</ele>
        <time>2024-04-19T07:08:38.837Z</time>
      </trkpt>
      <trkpt lat="43.66772" lon="3.83563">
        <ele>85.8</ele>
        <time>2024-04-19T07:08:42.673Z</time>
      </trkpt>
      <trkpt lat="43.66751" lon="3.83477">
        <ele>85.9</ele>
        <time>2024-04-19T07:09:06.520Z</time>
      </trkpt>
      <trkpt lat="43.66746" lon="3.8345">
        <ele>86.8</ele>
        <time>2024-04-19T07:09:14.915Z</time>
      </trkpt>
      <trkpt lat="43.6675" lon="3.83434">
        <ele>86.4</ele>
        <time>2024-04-19T07:09:18.926Z</time>
      </trkpt>
      <trkpt lat="43.6676" lon="3.83407">
        <ele>87.4</ele>
        <time>2024-04-19T07:09:28.090Z</time>
      </trkpt>
      <trkpt lat="43.66774" lon="3.83387">
        <ele>87.9</ele>
        <time>2024-04-19T07:09:35.956Z</time>
      </trkpt>
      <trkpt lat="43.66788" lon="3.8337">
        <ele>89.5</ele>
        <time>2024-04-19T07:09:44.860Z</time>
      </trkpt>
      <trkpt lat="43.66794" lon="3.83365">
        <ele>89.7</ele>
        <time>2024-04-19T07:09:47.630Z</time>
      </trkpt>
      <trkpt lat="43.6681" lon="3.83354">
        <ele>89.6</ele>
        <time>2024-04-19T07:09:53.980Z</time>
      </trkpt>
      <trkpt lat="43.66813" lon="3.83348">
        <ele>90</ele>
        <time>2024-04-19T07:09:56.416Z</time>
      </trkpt>
      <trkpt lat="43.66818" lon="3.83327">
        <ele>91.6</ele>
        <time>2024-04-19T07:10:04.442Z</time>
      </trkpt>
      <trkpt lat="43.66819" lon="3.83311">
        <ele>92.7</ele>
        <time>2024-04-19T07:10:10.165Z</time>
      </trkpt>
      <trkpt lat="43.66816" lon="3.83298">
        <ele>93.9</ele>
        <time>2024-04-19T07:10:15.510Z</time>
      </trkpt>
      <trkpt lat="43.66814" lon="3.8329">
        <ele>94.5</ele>
        <time>2024-04-19T07:10:18.561Z</time>
      </trkpt>
      <trkpt lat="43.66813" lon="3.8328">
        <ele>95.1</ele>
        <time>2024-04-19T07:10:22.006Z</time>
      </trkpt>
      <trkpt lat="43.6681" lon="3.83268">
        <ele>95.6</ele>
        <time>2024-04-19T07:10:25.955Z</time>
      </trkpt>
      <trkpt lat="43.66804" lon="3.83263">
        <ele>96.1</ele>
        <time>2024-04-19T07:10:29.142Z</time>
      </trkpt>
      <trkpt lat="43.66795" lon="3.8326">
        <ele>96.8</ele>
        <time>2024-04-19T07:10:33.414Z</time>
      </trkpt>
      <trkpt lat="43.66789" lon="3.8326">
        <ele>97.2</ele>
        <time>2024-04-19T07:10:36.101Z</time>
      </trkpt>
      <trkpt lat="43.66785" lon="3.83254">
        <ele>97.5</ele>
        <time>2024-04-19T07:10:38.609Z</time>
      </trkpt>
      <trkpt lat="43.66781" lon="3.83248">
        <ele>97.9</ele>
        <time>2024-04-19T07:10:41.261Z</time>
      </trkpt>
      <trkpt lat="43.66772" lon="3.83238">
        <ele>99.6</ele>
        <time>2024-04-19T07:10:48.126Z</time>
      </trkpt>
      <trkpt lat="43.66767" lon="3.83235">
        <ele>100.4</ele>
        <time>2024-04-19T07:10:51.361Z</time>
      </trkpt>
      <trkpt lat="43.66756" lon="3.83234">
        <ele>101.8</ele>
        <time>2024-04-19T07:10:57.449Z</time>
      </trkpt>
      <trkpt lat="43.66748" lon="3.83217">
        <ele>103.7</ele>
        <time>2024-04-19T07:11:05.624Z</time>
      </trkpt>
      <trkpt lat="43.66736" lon="3.83175">
        <ele>110</ele>
        <time>2024-04-19T07:11:28.712Z</time>
      </trkpt>
      <trkpt lat="43.66737" lon="3.8316">
        <ele>111.4</ele>
        <time>2024-04-19T07:11:34.761Z</time>
      </trkpt>
      <trkpt lat="43.66734" lon="3.83146">
        <ele>112.5</ele>
        <time>2024-04-19T07:11:40.139Z</time>
      </trkpt>
      <trkpt lat="43.6673" lon="3.83137">
        <ele>113.2</ele>
        <time>2024-04-19T07:11:43.863Z</time>
      </trkpt>
      <trkpt lat="43.66724" lon="3.83136">
        <ele>113.3</ele>
        <time>2024-04-19T07:11:46.163Z</time>
      </trkpt>
      <trkpt lat="43.66712" lon="3.83133">
        <ele>114.3</ele>
        <time>2024-04-19T07:11:51.914Z</time>
      </trkpt>
      <trkpt lat="43.66703" lon="3.83135">
        <ele>114.7</ele>
        <time>2024-04-19T07:11:55.700Z</time>
      </trkpt>
      <trkpt lat="43.66696" lon="3.83135">
        <ele>115.2</ele>
        <time>2024-04-19T07:11:58.885Z</time>
      </trkpt>
      <trkpt lat="43.6669" lon="3.83134">
        <ele>115.5</ele>
        <time>2024-04-19T07:12:01.443Z</time>
      </trkpt>
      <trkpt lat="43.66666" lon="3.83138">
        <ele>116.1</ele>
        <time>2024-04-19T07:12:10.887Z</time>
      </trkpt>
      <trkpt lat="43.66655" lon="3.83142">
        <ele>117</ele>
        <time>2024-04-19T07:12:16.199Z</time>
      </trkpt>
      <trkpt lat="43.66647" lon="3.83141">
        <ele>117.5</ele>
        <time>2024-04-19T07:12:19.743Z</time>
      </trkpt>
      <trkpt lat="43.66642" lon="3.8314">
        <ele>117.8</ele>
        <time>2024-04-19T07:12:21.951Z</time>
      </trkpt>
      <trkpt lat="43.66636" lon="3.83134">
        <ele>117.9</ele>
        <time>2024-04-19T07:12:24.742Z</time>
      </trkpt>
      <trkpt lat="43.66636" lon="3.83112">
        <ele>117.1</ele>
        <time>2024-04-19T07:12:29.776Z</time>
      </trkpt>
      <trkpt lat="43.66642" lon="3.83077">
        <ele>117</ele>
        <time>2024-04-19T07:12:39.072Z</time>
      </trkpt>
      <trkpt lat="43.66647" lon="3.83042">
        <ele>117.1</ele>
        <time>2024-04-19T07:12:48.514Z</time>
      </trkpt>
      <trkpt lat="43.66634" lon="3.82963">
        <ele>116.8</ele>
        <time>2024-04-19T07:13:09.371Z</time>
      </trkpt>
      <trkpt lat="43.66622" lon="3.82931">
        <ele>116.1</ele>
        <time>2024-04-19T07:13:18.061Z</time>
      </trkpt>
      <trkpt lat="43.66614" lon="3.82903">
        <ele>115.2</ele>
        <time>2024-04-19T07:13:25.015Z</time>
      </trkpt>
      <trkpt lat="43.66614" lon="3.82865">
        <ele>115</ele>
        <time>2024-04-19T07:13:34.733Z</time>
      </trkpt>
      <trkpt lat="43.66614" lon="3.82857">
        <ele>115</ele>
        <time>2024-04-19T07:13:36.825Z</time>
      </trkpt>
      <trkpt lat="43.66619" lon="3.82849">
        <ele>115</ele>
        <time>2024-04-19T07:13:39.590Z</time>
      </trkpt>
      <trkpt lat="43.6663" lon="3.82838">
        <ele>115</ele>
        <time>2024-04-19T07:13:44.498Z</time>
      </trkpt>
      <trkpt lat="43.66641" lon="3.82826">
        <ele>114.7</ele>
        <time>2024-04-19T07:13:49.245Z</time>
      </trkpt>
      <trkpt lat="43.66786" lon="3.82697">
        <ele>113.9</ele>
        <time>2024-04-19T07:14:50.699Z</time>
      </trkpt>
      <trkpt lat="43.66831" lon="3.82657">
        <ele>113.4</ele>
        <time>2024-04-19T07:15:09.494Z</time>
      </trkpt>
      <trkpt lat="43.6686" lon="3.82638">
        <ele>111</ele>
        <time>2024-04-19T07:15:19.646Z</time>
      </trkpt>
      <trkpt lat="43.66869" lon="3.82631">
        <ele>110.6</ele>
        <time>2024-04-19T07:15:22.969Z</time>
      </trkpt>
      <trkpt lat="43.66874" lon="3.82623">
        <ele>110.2</ele>
        <time>2024-04-19T07:15:25.388Z</time>
      </trkpt>
      <trkpt lat="43.66889" lon="3.82607">
        <ele>109.3</ele>
        <time>2024-04-19T07:15:31.381Z</time>
      </trkpt>
      <trkpt lat="43.66927" lon="3.82575">
        <ele>109.1</ele>
        <time>2024-04-19T07:15:47.246Z</time>
      </trkpt>
      <trkpt lat="43.67038" lon="3.82464">
        <ele>110.6</ele>
        <time>2024-04-19T07:16:38.480Z</time>
      </trkpt>
      <trkpt lat="43.67048" lon="3.82448">
        <ele>110.7</ele>
        <time>2024-04-19T07:16:44.122Z</time>
      </trkpt>
      <trkpt lat="43.67052" lon="3.8244">
        <ele>110.7</ele>
        <time>2024-04-19T07:16:46.665Z</time>
      </trkpt>
      <trkpt lat="43.67062" lon="3.82426">
        <ele>111.4</ele>
        <time>2024-04-19T07:16:52.680Z</time>
      </trkpt>
      <trkpt lat="43.67069" lon="3.82415">
        <ele>112.2</ele>
        <time>2024-04-19T07:16:57.568Z</time>
      </trkpt>
      <trkpt lat="43.67079" lon="3.82403">
        <ele>113.1</ele>
        <time>2024-04-19T07:17:03.523Z</time>
      </trkpt>
      <trkpt lat="43.67083" lon="3.82393">
        <ele>113.7</ele>
        <time>2024-04-19T07:17:07.299Z</time>
      </trkpt>
      <trkpt lat="43.67085" lon="3.82385">
        <ele>114.4</ele>
        <time>2024-04-19T07:17:10.530Z</time>
      </trkpt>
      <trkpt lat="43.67092" lon="3.82377">
        <ele>115.5</ele>
        <time>2024-04-19T07:17:15.440Z</time>
      </trkpt>
      <trkpt lat="43.67104" lon="3.82361">
        <ele>117.2</ele>
        <time>2024-04-19T07:17:23.863Z</time>
      </trkpt>
      <trkpt lat="43.67119" lon="3.82337">
        <ele>118.3</ele>
        <time>2024-04-19T07:17:33.520Z</time>
      </trkpt>
      <trkpt lat="43.6713" lon="3.82316">
        <ele>119.1</ele>
        <time>2024-04-19T07:17:41.279Z</time>
      </trkpt>
      <trkpt lat="43.67137" lon="3.82304">
        <ele>118.9</ele>
        <time>2024-04-19T07:17:45.095Z</time>
      </trkpt>
      <trkpt lat="43.67159" lon="3.82266">
        <ele>119.8</ele>
        <time>2024-04-19T07:17:58.882Z</time>
      </trkpt>
      <trkpt lat="43.67194" lon="3.82216">
        <ele>122.7</ele>
        <time>2024-04-19T07:18:20.750Z</time>
      </trkpt>
      <trkpt lat="43.67201" lon="3.82202">
        <ele>124.2</ele>
        <time>2024-04-19T07:18:27.423Z</time>
      </trkpt>
      <trkpt lat="43.67211" lon="3.8219">
        <ele>125.4</ele>
        <time>2024-04-19T07:18:33.855Z</time>
      </trkpt>
      <trkpt lat="43.67215" lon="3.8218">
        <ele>126.4</ele>
        <time>2024-04-19T07:18:38.322Z</time>
      </trkpt>
      <trkpt lat="43.67221" lon="3.82171">
        <ele>127.5</ele>
        <time>2024-04-19T07:18:43.162Z</time>
      </trkpt>
      <trkpt lat="43.67233" lon="3.82171">
        <ele>128</ele>
        <time>2024-04-19T07:18:48.111Z</time>
      </trkpt>
      <trkpt lat="43.67242" lon="3.82176">
        <ele>127.9</ele>
        <time>2024-04-19T07:18:51.509Z</time>
      </trkpt>
      <trkpt lat="43.67249" lon="3.82177">
        <ele>128.2</ele>
        <time>2024-04-19T07:18:54.420Z</time>
      </trkpt>
      <trkpt lat="43.67255" lon="3.82174">
        <ele>128.7</ele>
        <time>2024-04-19T07:18:57.392Z</time>
      </trkpt>
      <trkpt lat="43.67259" lon="3.82167">
        <ele>129.3</ele>
        <time>2024-04-19T07:19:00.551Z</time>
      </trkpt>
      <trkpt lat="43.67266" lon="3.82161">
        <ele>129.8</ele>
        <time>2024-04-19T07:19:04.167Z</time>
      </trkpt>
      <trkpt lat="43.67276" lon="3.82155">
        <ele>130.4</ele>
        <time>2024-04-19T07:19:08.863Z</time>
      </trkpt>
      <trkpt lat="43.67285" lon="3.82154">
        <ele>131.1</ele>
        <time>2024-04-19T07:19:13.057Z</time>
      </trkpt>
      <trkpt lat="43.67292" lon="3.82152">
        <ele>131.8</ele>
        <time>2024-04-19T07:19:16.618Z</time>
      </trkpt>
      <trkpt lat="43.67298" lon="3.8215">
        <ele>132.3</ele>
        <time>2024-04-19T07:19:19.519Z</time>
      </trkpt>
      <trkpt lat="43.6731" lon="3.82147">
        <ele>133.5</ele>
        <time>2024-04-19T07:19:25.604Z</time>
      </trkpt>
      <trkpt lat="43.67318" lon="3.82144">
        <ele>134.3</ele>
        <time>2024-04-19T07:19:29.713Z</time>
      </trkpt>
      <trkpt lat="43.67329" lon="3.82142">
        <ele>135.5</ele>
        <time>2024-04-19T07:19:35.442Z</time>
      </trkpt>
      <trkpt lat="43.67335" lon="3.82139">
        <ele>136.2</ele>
        <time>2024-04-19T07:19:38.754Z</time>
      </trkpt>
      <trkpt lat="43.67365" lon="3.82135">
        <ele>139.9</ele>
        <time>2024-04-19T07:19:55.146Z</time>
      </trkpt>
      <trkpt lat="43.6737" lon="3.82134">
        <ele>139.8</ele>
        <time>2024-04-19T07:19:56.866Z</time>
      </trkpt>
      <trkpt lat="43.67386" lon="3.82134">
        <ele>139.8</ele>
        <time>2024-04-19T07:20:02.650Z</time>
      </trkpt>
      <trkpt lat="43.67402" lon="3.82136">
        <ele>139.5</ele>
        <time>2024-04-19T07:20:08.137Z</time>
      </trkpt>
      <trkpt lat="43.67461" lon="3.82129">
        <ele>135.5</ele>
        <time>2024-04-19T07:20:26.868Z</time>
      </trkpt>
      <trkpt lat="43.67475" lon="3.82127">
        <ele>134.3</ele>
        <time>2024-04-19T07:20:31.320Z</time>
      </trkpt>
      <trkpt lat="43.67492" lon="3.82125">
        <ele>132.4</ele>
        <time>2024-04-19T07:20:36.717Z</time>
      </trkpt>
      <trkpt lat="43.67498" lon="3.82124">
        <ele>131.7</ele>
        <time>2024-04-19T07:20:38.629Z</time>
      </trkpt>
      <trkpt lat="43.67544" lon="3.8212">
        <ele>126.1</ele>
        <time>2024-04-19T07:20:53.209Z</time>
      </trkpt>
      <trkpt lat="43.67562" lon="3.8212">
        <ele>123.5</ele>
        <time>2024-04-19T07:20:58.902Z</time>
      </trkpt>
      <trkpt lat="43.67569" lon="3.82129">
        <ele>122.9</ele>
        <time>2024-04-19T07:21:01.926Z</time>
      </trkpt>
      <trkpt lat="43.67568" lon="3.82144">
        <ele>123.9</ele>
        <time>2024-04-19T07:21:07.239Z</time>
      </trkpt>
      <trkpt lat="43.67578" lon="3.82174">
        <ele>125.5</ele>
        <time>2024-04-19T07:21:17.948Z</time>
      </trkpt>
      <trkpt lat="43.67582" lon="3.82177">
        <ele>125.3</ele>
        <time>2024-04-19T07:21:19.390Z</time>
      </trkpt>
      <trkpt lat="43.67587" lon="3.82175">
        <ele>124.9</ele>
        <time>2024-04-19T07:21:21.037Z</time>
      </trkpt>
      <trkpt lat="43.67593" lon="3.8217">
        <ele>124.4</ele>
        <time>2024-04-19T07:21:23.253Z</time>
      </trkpt>
      <trkpt lat="43.67598" lon="3.82168">
        <ele>124.1</ele>
        <time>2024-04-19T07:21:24.899Z</time>
      </trkpt>
      <trkpt lat="43.67631" lon="3.82167">
        <ele>124.8</ele>
        <time>2024-04-19T07:21:37.648Z</time>
      </trkpt>
      <trkpt lat="43.67634" lon="3.82176">
        <ele>125.8</ele>
        <time>2024-04-19T07:21:41.790Z</time>
      </trkpt>
      <trkpt lat="43.67624" lon="3.82179">
        <ele>125.8</ele>
        <time>2024-04-19T07:21:45.489Z</time>
      </trkpt>
      <trkpt lat="43.67608" lon="3.82186">
        <ele>126.1</ele>
        <time>2024-04-19T07:21:51.903Z</time>
      </trkpt>
      <trkpt lat="43.67591" lon="3.82195">
        <ele>127</ele>
        <time>2024-04-19T07:21:59.603Z</time>
      </trkpt>
      <trkpt lat="43.67503" lon="3.82251">
        <ele>127.9</ele>
        <time>2024-04-19T07:22:35.645Z</time>
      </trkpt>
      <trkpt lat="43.67494" lon="3.82258">
        <ele>128.4</ele>
        <time>2024-04-19T07:22:39.998Z</time>
      </trkpt>
      <trkpt lat="43.67481" lon="3.82275">
        <ele>128.8</ele>
        <time>2024-04-19T07:22:46.935Z</time>
      </trkpt>
      <trkpt lat="43.67468" lon="3.82308">
        <ele>129.4</ele>
        <time>2024-04-19T07:22:57.461Z</time>
      </trkpt>
      <trkpt lat="43.67462" lon="3.82346">
        <ele>130.4</ele>
        <time>2024-04-19T07:23:08.835Z</time>
      </trkpt>
      <trkpt lat="43.67446" lon="3.82428">
        <ele>135.2</ele>
        <time>2024-04-19T07:23:37.425Z</time>
      </trkpt>
      <trkpt lat="43.67443" lon="3.82436">
        <ele>136.1</ele>
        <time>2024-04-19T07:23:41.172Z</time>
      </trkpt>
      <trkpt lat="43.67423" lon="3.8245">
        <ele>136.4</ele>
        <time>2024-04-19T07:23:49.620Z</time>
      </trkpt>
      <trkpt lat="43.67414" lon="3.82452">
        <ele>136.2</ele>
        <time>2024-04-19T07:23:52.703Z</time>
      </trkpt>
      <trkpt lat="43.67366" lon="3.82436">
        <ele>134.7</ele>
        <time>2024-04-19T07:24:08.987Z</time>
      </trkpt>
      <trkpt lat="43.67357" lon="3.82429">
        <ele>134.2</ele>
        <time>2024-04-19T07:24:12.254Z</time>
      </trkpt>
      <trkpt lat="43.67337" lon="3.82428">
        <ele>133</ele>
        <time>2024-04-19T07:24:18.584Z</time>
      </trkpt>
      <trkpt lat="43.67327" lon="3.82429">
        <ele>132.9</ele>
        <time>2024-04-19T07:24:22.100Z</time>
      </trkpt>
      <trkpt lat="43.67301" lon="3.82437">
        <ele>133.4</ele>
        <time>2024-04-19T07:24:32.309Z</time>
      </trkpt>
      <trkpt lat="43.67283" lon="3.82438">
        <ele>133.2</ele>
        <time>2024-04-19T07:24:38.604Z</time>
      </trkpt>
      <trkpt lat="43.67278" lon="3.82439">
        <ele>133.2</ele>
        <time>2024-04-19T07:24:40.431Z</time>
      </trkpt>
      <trkpt lat="43.67232" lon="3.82463">
        <ele>133.9</ele>
        <time>2024-04-19T07:24:59.008Z</time>
      </trkpt>
      <trkpt lat="43.67221" lon="3.82463">
        <ele>133.2</ele>
        <time>2024-04-19T07:25:02.488Z</time>
      </trkpt>
      <trkpt lat="43.67216" lon="3.82464">
        <ele>132.7</ele>
        <time>2024-04-19T07:25:04.086Z</time>
      </trkpt>
      <trkpt lat="43.672" lon="3.82475">
        <ele>131.8</ele>
        <time>2024-04-19T07:25:09.738Z</time>
      </trkpt>
      <trkpt lat="43.67191" lon="3.82483">
        <ele>131.3</ele>
        <time>2024-04-19T07:25:13.123Z</time>
      </trkpt>
      <trkpt lat="43.6718" lon="3.82498">
        <ele>131.2</ele>
        <time>2024-04-19T07:25:18.599Z</time>
      </trkpt>
      <trkpt lat="43.67177" lon="3.82503">
        <ele>131.2</ele>
        <time>2024-04-19T07:25:20.297Z</time>
      </trkpt>
      <trkpt lat="43.67162" lon="3.82533">
        <ele>128.8</ele>
        <time>2024-04-19T07:25:28.642Z</time>
      </trkpt>
      <trkpt lat="43.67154" lon="3.82558">
        <ele>127.5</ele>
        <time>2024-04-19T07:25:34.896Z</time>
      </trkpt>
      <trkpt lat="43.67148" lon="3.82587">
        <ele>127.4</ele>
        <time>2024-04-19T07:25:42.673Z</time>
      </trkpt>
      <trkpt lat="43.67147" lon="3.82615">
        <ele>127.9</ele>
        <time>2024-04-19T07:25:50.591Z</time>
      </trkpt>
      <trkpt lat="43.67148" lon="3.82622">
        <ele>127.8</ele>
        <time>2024-04-19T07:25:52.350Z</time>
      </trkpt>
      <trkpt lat="43.67152" lon="3.82642">
        <ele>127.5</ele>
        <time>2024-04-19T07:25:57.456Z</time>
      </trkpt>
      <trkpt lat="43.67167" lon="3.82696">
        <ele>126.9</ele>
        <time>2024-04-19T07:26:11.934Z</time>
      </trkpt>
      <trkpt lat="43.67167" lon="3.82705">
        <ele>126.3</ele>
        <time>2024-04-19T07:26:13.993Z</time>
      </trkpt>
      <trkpt lat="43.67163" lon="3.82724">
        <ele>123.7</ele>
        <time>2024-04-19T07:26:18.521Z</time>
      </trkpt>
      <trkpt lat="43.67161" lon="3.82734">
        <ele>123.1</ele>
        <time>2024-04-19T07:26:20.895Z</time>
      </trkpt>
      <trkpt lat="43.67157" lon="3.82753">
        <ele>122.1</ele>
        <time>2024-04-19T07:26:25.422Z</time>
      </trkpt>
      <trkpt lat="43.67155" lon="3.82792">
        <ele>119.9</ele>
        <time>2024-04-19T07:26:34.368Z</time>
      </trkpt>
      <trkpt lat="43.67156" lon="3.82823">
        <ele>118.7</ele>
        <time>2024-04-19T07:26:41.468Z</time>
      </trkpt>
      <trkpt lat="43.67155" lon="3.82834">
        <ele>117.7</ele>
        <time>2024-04-19T07:26:44.004Z</time>
      </trkpt>
      <trkpt lat="43.67154" lon="3.82844">
        <ele>116</ele>
        <time>2024-04-19T07:26:46.314Z</time>
      </trkpt>
      <trkpt lat="43.6715" lon="3.82864">
        <ele>112.9</ele>
        <time>2024-04-19T07:26:51.062Z</time>
      </trkpt>
      <trkpt lat="43.67145" lon="3.82884">
        <ele>111.3</ele>
        <time>2024-04-19T07:26:55.903Z</time>
      </trkpt>
      <trkpt lat="43.67116" lon="3.82961">
        <ele>100.6</ele>
        <time>2024-04-19T07:27:15.766Z</time>
      </trkpt>
      <trkpt lat="43.67109" lon="3.8299">
        <ele>97.4</ele>
        <time>2024-04-19T07:27:22.761Z</time>
      </trkpt>
      <trkpt lat="43.67099" lon="3.83039">
        <ele>92.4</ele>
        <time>2024-04-19T07:27:34.410Z</time>
      </trkpt>
      <trkpt lat="43.67094" lon="3.83056">
        <ele>90.4</ele>
        <time>2024-04-19T07:27:38.609Z</time>
      </trkpt>
      <trkpt lat="43.67082" lon="3.8308">
        <ele>89.4</ele>
        <time>2024-04-19T07:27:45.284Z</time>
      </trkpt>
      <trkpt lat="43.67078" lon="3.83089">
        <ele>89.5</ele>
        <time>2024-04-19T07:27:48.161Z</time>
      </trkpt>
      <trkpt lat="43.67076" lon="3.83097">
        <ele>89.1</ele>
        <time>2024-04-19T07:27:50.098Z</time>
      </trkpt>
      <trkpt lat="43.67074" lon="3.83105">
        <ele>88.6</ele>
        <time>2024-04-19T07:27:52.034Z</time>
      </trkpt>
      <trkpt lat="43.67073" lon="3.83114">
        <ele>88</ele>
        <time>2024-04-19T07:27:54.118Z</time>
      </trkpt>
      <trkpt lat="43.6707" lon="3.83146">
        <ele>87.7</ele>
        <time>2024-04-19T07:28:02.231Z</time>
      </trkpt>
      <trkpt lat="43.67068" lon="3.8316">
        <ele>88.2</ele>
        <time>2024-04-19T07:28:06.582Z</time>
      </trkpt>
      <trkpt lat="43.67068" lon="3.83172">
        <ele>88.3</ele>
        <time>2024-04-19T07:28:09.834Z</time>
      </trkpt>
      <trkpt lat="43.67075" lon="3.83177">
        <ele>88.7</ele>
        <time>2024-04-19T07:28:13.181Z</time>
      </trkpt>
      <trkpt lat="43.67084" lon="3.83168">
        <ele>89.1</ele>
        <time>2024-04-19T07:28:17.679Z</time>
      </trkpt>
      <trkpt lat="43.67093" lon="3.83161">
        <ele>89.2</ele>
        <time>2024-04-19T07:28:21.526Z</time>
      </trkpt>
      <trkpt lat="43.67099" lon="3.83159">
        <ele>89.4</ele>
        <time>2024-04-19T07:28:23.996Z</time>
      </trkpt>
      <trkpt lat="43.67111" lon="3.83156">
        <ele>89.8</ele>
        <time>2024-04-19T07:28:28.883Z</time>
      </trkpt>
      <trkpt lat="43.67117" lon="3.8314">
        <ele>88.7</ele>
        <time>2024-04-19T07:28:33.006Z</time>
      </trkpt>
      <trkpt lat="43.6712" lon="3.83108">
        <ele>88.5</ele>
        <time>2024-04-19T07:28:41.225Z</time>
      </trkpt>
      <trkpt lat="43.67126" lon="3.83097">
        <ele>89.9</ele>
        <time>2024-04-19T07:28:47.005Z</time>
      </trkpt>
      <trkpt lat="43.67175" lon="3.83108">
        <ele>92.4</ele>
        <time>2024-04-19T07:29:08.065Z</time>
      </trkpt>
      <trkpt lat="43.67179" lon="3.83113">
        <ele>92.4</ele>
        <time>2024-04-19T07:29:10.014Z</time>
      </trkpt>
      <trkpt lat="43.67164" lon="3.83259">
        <ele>95.1</ele>
        <time>2024-04-19T07:29:51.751Z</time>
      </trkpt>
      <trkpt lat="43.6716" lon="3.83281">
        <ele>95</ele>
        <time>2024-04-19T07:29:57.572Z</time>
      </trkpt>
      <trkpt lat="43.6716" lon="3.83292">
        <ele>94.2</ele>
        <time>2024-04-19T07:30:00.089Z</time>
      </trkpt>
      <trkpt lat="43.67163" lon="3.83353">
        <ele>89.9</ele>
        <time>2024-04-19T07:30:14.078Z</time>
      </trkpt>
      <trkpt lat="43.67162" lon="3.8336">
        <ele>89.7</ele>
        <time>2024-04-19T07:30:15.739Z</time>
      </trkpt>
      <trkpt lat="43.67156" lon="3.83367">
        <ele>89</ele>
        <time>2024-04-19T07:30:18.222Z</time>
      </trkpt>
      <trkpt lat="43.67148" lon="3.83372">
        <ele>88.3</ele>
        <time>2024-04-19T07:30:20.999Z</time>
      </trkpt>
      <trkpt lat="43.67074" lon="3.83359">
        <ele>83.9</ele>
        <time>2024-04-19T07:30:44.595Z</time>
      </trkpt>
      <trkpt lat="43.67069" lon="3.83366">
        <ele>82.7</ele>
        <time>2024-04-19T07:30:46.846Z</time>
      </trkpt>
      <trkpt lat="43.67071" lon="3.83397">
        <ele>81.9</ele>
        <time>2024-04-19T07:30:54.158Z</time>
      </trkpt>
      <trkpt lat="43.67071" lon="3.83405">
        <ele>82.2</ele>
        <time>2024-04-19T07:30:56.625Z</time>
      </trkpt>
      <trkpt lat="43.67072" lon="3.83415">
        <ele>82.7</ele>
        <time>2024-04-19T07:30:59.915Z</time>
      </trkpt>
      <trkpt lat="43.67073" lon="3.83433">
        <ele>82.9</ele>
        <time>2024-04-19T07:31:04.866Z</time>
      </trkpt>
      <trkpt lat="43.67069" lon="3.83502">
        <ele>82.5</ele>
        <time>2024-04-19T07:31:22.529Z</time>
      </trkpt>
      <trkpt lat="43.67072" lon="3.83544">
        <ele>82.8</ele>
        <time>2024-04-19T07:31:33.906Z</time>
      </trkpt>
      <trkpt lat="43.67073" lon="3.8356">
        <ele>82.4</ele>
        <time>2024-04-19T07:31:37.691Z</time>
      </trkpt>
      <trkpt lat="43.67075" lon="3.83583">
        <ele>82.1</ele>
        <time>2024-04-19T07:31:43.427Z</time>
      </trkpt>
      <trkpt lat="43.67077" lon="3.83594">
        <ele>82</ele>
        <time>2024-04-19T07:31:46.285Z</time>
      </trkpt>
      <trkpt lat="43.67083" lon="3.83613">
        <ele>82</ele>
        <time>2024-04-19T07:31:51.706Z</time>
      </trkpt>
      <trkpt lat="43.67089" lon="3.83623">
        <ele>82.3</ele>
        <time>2024-04-19T07:31:55.461Z</time>
      </trkpt>
      <trkpt lat="43.67095" lon="3.83636">
        <ele>81.8</ele>
        <time>2024-04-19T07:31:58.990Z</time>
      </trkpt>
      <trkpt lat="43.671" lon="3.83646">
        <ele>81.1</ele>
        <time>2024-04-19T07:32:01.771Z</time>
      </trkpt>
      <trkpt lat="43.67104" lon="3.83652">
        <ele>80.6</ele>
        <time>2024-04-19T07:32:03.638Z</time>
      </trkpt>
      <trkpt lat="43.67117" lon="3.83662">
        <ele>79.3</ele>
        <time>2024-04-19T07:32:08.344Z</time>
      </trkpt>
      <trkpt lat="43.67148" lon="3.83676">
        <ele>78.9</ele>
        <time>2024-04-19T07:32:19.700Z</time>
      </trkpt>
      <trkpt lat="43.67167" lon="3.83689">
        <ele>79</ele>
        <time>2024-04-19T07:32:27.476Z</time>
      </trkpt>
      <trkpt lat="43.67193" lon="3.83716">
        <ele>76.5</ele>
        <time>2024-04-19T07:32:37.762Z</time>
      </trkpt>
      <trkpt lat="43.67198" lon="3.83719">
        <ele>76.4</ele>
        <time>2024-04-19T07:32:39.626Z</time>
      </trkpt>
      <trkpt lat="43.67234" lon="3.8374">
        <ele>77.1</ele>
        <time>2024-04-19T07:32:54.561Z</time>
      </trkpt>
      <trkpt lat="43.67249" lon="3.83745">
        <ele>77.9</ele>
        <time>2024-04-19T07:33:01.139Z</time>
      </trkpt>
      <trkpt lat="43.67262" lon="3.83739">
        <ele>79.4</ele>
        <time>2024-04-19T07:33:08.248Z</time>
      </trkpt>
      <trkpt lat="43.67306" lon="3.83711">
        <ele>82</ele>
        <time>2024-04-19T07:33:29.022Z</time>
      </trkpt>
      <trkpt lat="43.67323" lon="3.83704">
        <ele>82.8</ele>
        <time>2024-04-19T07:33:36.419Z</time>
      </trkpt>
      <trkpt lat="43.67329" lon="3.83702">
        <ele>83.1</ele>
        <time>2024-04-19T07:33:39.022Z</time>
      </trkpt>
      <trkpt lat="43.6734" lon="3.83697">
        <ele>83.6</ele>
        <time>2024-04-19T07:33:43.821Z</time>
      </trkpt>
      <trkpt lat="43.6735" lon="3.83688">
        <ele>83.9</ele>
        <time>2024-04-19T07:33:48.487Z</time>
      </trkpt>
      <trkpt lat="43.67358" lon="3.83677">
        <ele>83.7</ele>
        <time>2024-04-19T07:33:52.352Z</time>
      </trkpt>
      <trkpt lat="43.67361" lon="3.83688">
        <ele>84.5</ele>
        <time>2024-04-19T07:33:56.531Z</time>
      </trkpt>
      <trkpt lat="43.67367" lon="3.83699">
        <ele>85.5</ele>
        <time>2024-04-19T07:34:01.538Z</time>
      </trkpt>
      <trkpt lat="43.6737" lon="3.83708">
        <ele>85.8</ele>
        <time>2024-04-19T07:34:04.495Z</time>
      </trkpt>
      <trkpt lat="43.67378" lon="3.83724">
        <ele>86</ele>
        <time>2024-04-19T07:34:09.811Z</time>
      </trkpt>
      <trkpt lat="43.6739" lon="3.83729">
        <ele>86</ele>
        <time>2024-04-19T07:34:14.342Z</time>
      </trkpt>
      <trkpt lat="43.67421" lon="3.83735">
        <ele>85.3</ele>
        <time>2024-04-19T07:34:24.915Z</time>
      </trkpt>
      <trkpt lat="43.67478" lon="3.83749">
        <ele>81.7</ele>
        <time>2024-04-19T07:34:43.228Z</time>
      </trkpt>
      <trkpt lat="43.67485" lon="3.83758">
        <ele>81.8</ele>
        <time>2024-04-19T07:34:46.797Z</time>
      </trkpt>
      <trkpt lat="43.67498" lon="3.83793">
        <ele>79.8</ele>
        <time>2024-04-19T07:34:55.799Z</time>
      </trkpt>
      <trkpt lat="43.67511" lon="3.83822">
        <ele>77.9</ele>
        <time>2024-04-19T07:35:03.605Z</time>
      </trkpt>
      <trkpt lat="43.67514" lon="3.83827">
        <ele>77.4</ele>
        <time>2024-04-19T07:35:05.091Z</time>
      </trkpt>
      <trkpt lat="43.67519" lon="3.83831">
        <ele>76.8</ele>
        <time>2024-04-19T07:35:06.918Z</time>
      </trkpt>
      <trkpt lat="43.67533" lon="3.83837">
        <ele>76</ele>
        <time>2024-04-19T07:35:11.555Z</time>
      </trkpt>
      <trkpt lat="43.67549" lon="3.83838">
        <ele>76</ele>
        <time>2024-04-19T07:35:17.345Z</time>
      </trkpt>
      <trkpt lat="43.67584" lon="3.83833">
        <ele>76.1</ele>
        <time>2024-04-19T07:35:30.177Z</time>
      </trkpt>
      <trkpt lat="43.67591" lon="3.83834">
        <ele>76.3</ele>
        <time>2024-04-19T07:35:32.958Z</time>
      </trkpt>
      <trkpt lat="43.6761" lon="3.83832">
        <ele>77.1</ele>
        <time>2024-04-19T07:35:40.824Z</time>
      </trkpt>
      <trkpt lat="43.67637" lon="3.83833">
        <ele>77</ele>
        <time>2024-04-19T07:35:50.478Z</time>
      </trkpt>
      <trkpt lat="43.6765" lon="3.83832">
        <ele>77.6</ele>
        <time>2024-04-19T07:35:55.925Z</time>
      </trkpt>
      <trkpt lat="43.67688" lon="3.83832">
        <ele>79.6</ele>
        <time>2024-04-19T07:36:12.166Z</time>
      </trkpt>
      <trkpt lat="43.67693" lon="3.83828">
        <ele>80.1</ele>
        <time>2024-04-19T07:36:14.933Z</time>
      </trkpt>
      <trkpt lat="43.67697" lon="3.83822">
        <ele>80.5</ele>
        <time>2024-04-19T07:36:17.586Z</time>
      </trkpt>
      <trkpt lat="43.67707" lon="3.83804">
        <ele>81.5</ele>
        <time>2024-04-19T07:36:24.797Z</time>
      </trkpt>
      <trkpt lat="43.67712" lon="3.83791">
        <ele>82.2</ele>
        <time>2024-04-19T07:36:29.550Z</time>
      </trkpt>
      <trkpt lat="43.67715" lon="3.83784">
        <ele>82.5</ele>
        <time>2024-04-19T07:36:32.052Z</time>
      </trkpt>
      <trkpt lat="43.67725" lon="3.83759">
        <ele>82.8</ele>
        <time>2024-04-19T07:36:39.866Z</time>
      </trkpt>
      <trkpt lat="43.67729" lon="3.83765">
        <ele>83.5</ele>
        <time>2024-04-19T07:36:43.029Z</time>
      </trkpt>
      <trkpt lat="43.67731" lon="3.83784">
        <ele>83.7</ele>
        <time>2024-04-19T07:36:48.278Z</time>
      </trkpt>
      <trkpt lat="43.67737" lon="3.83799">
        <ele>83.4</ele>
        <time>2024-04-19T07:36:52.443Z</time>
      </trkpt>
      <trkpt lat="43.67751" lon="3.83811">
        <ele>83.4</ele>
        <time>2024-04-19T07:36:58.398Z</time>
      </trkpt>
      <trkpt lat="43.67774" lon="3.83817">
        <ele>82.6</ele>
        <time>2024-04-19T07:37:06.031Z</time>
      </trkpt>
      <trkpt lat="43.67792" lon="3.83815">
        <ele>81.6</ele>
        <time>2024-04-19T07:37:11.743Z</time>
      </trkpt>
      <trkpt lat="43.67798" lon="3.83816">
        <ele>81.2</ele>
        <time>2024-04-19T07:37:13.655Z</time>
      </trkpt>
      <trkpt lat="43.67819" lon="3.83818">
        <ele>80.1</ele>
        <time>2024-04-19T07:37:20.313Z</time>
      </trkpt>
      <trkpt lat="43.67826" lon="3.83813">
        <ele>80</ele>
        <time>2024-04-19T07:37:23.053Z</time>
      </trkpt>
      <trkpt lat="43.67839" lon="3.838">
        <ele>80</ele>
        <time>2024-04-19T07:37:28.853Z</time>
      </trkpt>
      <trkpt lat="43.67917" lon="3.83748">
        <ele>79.2</ele>
        <time>2024-04-19T07:37:59.285Z</time>
      </trkpt>
      <trkpt lat="43.67961" lon="3.83705">
        <ele>81.5</ele>
        <time>2024-04-19T07:38:21.577Z</time>
      </trkpt>
      <trkpt lat="43.67969" lon="3.837">
        <ele>81.2</ele>
        <time>2024-04-19T07:38:24.441Z</time>
      </trkpt>
      <trkpt lat="43.67994" lon="3.83661">
        <ele>80.9</ele>
        <time>2024-04-19T07:38:37.738Z</time>
      </trkpt>
      <trkpt lat="43.68021" lon="3.8363">
        <ele>81</ele>
        <time>2024-04-19T07:38:50.537Z</time>
      </trkpt>
      <trkpt lat="43.68107" lon="3.83535">
        <ele>81.8</ele>
        <time>2024-04-19T07:39:31.234Z</time>
      </trkpt>
      <trkpt lat="43.68138" lon="3.83478">
        <ele>83.7</ele>
        <time>2024-04-19T07:39:52.174Z</time>
      </trkpt>
      <trkpt lat="43.68158" lon="3.83455">
        <ele>83.4</ele>
        <time>2024-04-19T07:40:01.252Z</time>
      </trkpt>
      <trkpt lat="43.6821" lon="3.8337">
        <ele>84.5</ele>
        <time>2024-04-19T07:40:31.620Z</time>
      </trkpt>
      <trkpt lat="43.68258" lon="3.8332">
        <ele>84.5</ele>
        <time>2024-04-19T07:40:53.346Z</time>
      </trkpt>
      <trkpt lat="43.68261" lon="3.83313">
        <ele>84.8</ele>
        <time>2024-04-19T07:40:55.847Z</time>
      </trkpt>
      <trkpt lat="43.68266" lon="3.83307">
        <ele>84.8</ele>
        <time>2024-04-19T07:40:58.240Z</time>
      </trkpt>
      <trkpt lat="43.68283" lon="3.83338">
        <ele>82.8</ele>
        <time>2024-04-19T07:41:07.140Z</time>
      </trkpt>
      <trkpt lat="43.68294" lon="3.83344">
        <ele>82.6</ele>
        <time>2024-04-19T07:41:11.200Z</time>
      </trkpt>
      <trkpt lat="43.68302" lon="3.83351">
        <ele>82.7</ele>
        <time>2024-04-19T07:41:14.737Z</time>
      </trkpt>
      <trkpt lat="43.68332" lon="3.83349">
        <ele>86.9</ele>
        <time>2024-04-19T07:41:32.114Z</time>
      </trkpt>
      <trkpt lat="43.68338" lon="3.83337">
        <ele>86.3</ele>
        <time>2024-04-19T07:41:35.452Z</time>
      </trkpt>
      <trkpt lat="43.6834" lon="3.8333">
        <ele>86.1</ele>
        <time>2024-04-19T07:41:37.213Z</time>
      </trkpt>
      <trkpt lat="43.68349" lon="3.83316">
        <ele>86.7</ele>
        <time>2024-04-19T07:41:42.847Z</time>
      </trkpt>
      <trkpt lat="43.68351" lon="3.83309">
        <ele>87.1</ele>
        <time>2024-04-19T07:41:45.341Z</time>
      </trkpt>
      <trkpt lat="43.68358" lon="3.83298">
        <ele>88.4</ele>
        <time>2024-04-19T07:41:51.102Z</time>
      </trkpt>
      <trkpt lat="43.6837" lon="3.8327">
        <ele>88.7</ele>
        <time>2024-04-19T07:41:59.955Z</time>
      </trkpt>
      <trkpt lat="43.68373" lon="3.83245">
        <ele>88.2</ele>
        <time>2024-04-19T07:42:06.055Z</time>
      </trkpt>
      <trkpt lat="43.68378" lon="3.83235">
        <ele>88.7</ele>
        <time>2024-04-19T07:42:09.865Z</time>
      </trkpt>
      <trkpt lat="43.68395" lon="3.8323">
        <ele>90.7</ele>
        <time>2024-04-19T07:42:19.062Z</time>
      </trkpt>
      <trkpt lat="43.68402" lon="3.83226">
        <ele>90.9</ele>
        <time>2024-04-19T07:42:22.036Z</time>
      </trkpt>
      <trkpt lat="43.68405" lon="3.83219">
        <ele>91.1</ele>
        <time>2024-04-19T07:42:24.403Z</time>
      </trkpt>
      <trkpt lat="43.68407" lon="3.8321">
        <ele>91.3</ele>
        <time>2024-04-19T07:42:27.102Z</time>
      </trkpt>
      <trkpt lat="43.68411" lon="3.83197">
        <ele>91.7</ele>
        <time>2024-04-19T07:42:31.281Z</time>
      </trkpt>
      <trkpt lat="43.6841" lon="3.83182">
        <ele>92.1</ele>
        <time>2024-04-19T07:42:35.702Z</time>
      </trkpt>
      <trkpt lat="43.68411" lon="3.83174">
        <ele>92.4</ele>
        <time>2024-04-19T07:42:38.198Z</time>
      </trkpt>
      <trkpt lat="43.68415" lon="3.83166">
        <ele>92.9</ele>
        <time>2024-04-19T07:42:41.395Z</time>
      </trkpt>
      <trkpt lat="43.68425" lon="3.83149">
        <ele>93.1</ele>
        <time>2024-04-19T07:42:47.353Z</time>
      </trkpt>
      <trkpt lat="43.68424" lon="3.83138">
        <ele>93</ele>
        <time>2024-04-19T07:42:50.143Z</time>
      </trkpt>
      <trkpt lat="43.68425" lon="3.83117">
        <ele>93.2</ele>
        <time>2024-04-19T07:42:55.874Z</time>
      </trkpt>
      <trkpt lat="43.68423" lon="3.83098">
        <ele>93</ele>
        <time>2024-04-19T07:43:00.677Z</time>
      </trkpt>
      <trkpt lat="43.68424" lon="3.83091">
        <ele>92.9</ele>
        <time>2024-04-19T07:43:02.436Z</time>
      </trkpt>
      <trkpt lat="43.68421" lon="3.83069">
        <ele>92.4</ele>
        <time>2024-04-19T07:43:07.767Z</time>
      </trkpt>
      <trkpt lat="43.68419" lon="3.83058">
        <ele>92.1</ele>
        <time>2024-04-19T07:43:10.424Z</time>
      </trkpt>
      <trkpt lat="43.68416" lon="3.83049">
        <ele>91.7</ele>
        <time>2024-04-19T07:43:12.690Z</time>
      </trkpt>
      <trkpt lat="43.68413" lon="3.83038">
        <ele>91.1</ele>
        <time>2024-04-19T07:43:15.380Z</time>
      </trkpt>
      <trkpt lat="43.68412" lon="3.83028">
        <ele>90.8</ele>
        <time>2024-04-19T07:43:17.713Z</time>
      </trkpt>
      <trkpt lat="43.68409" lon="3.83009">
        <ele>90.5</ele>
        <time>2024-04-19T07:43:22.478Z</time>
      </trkpt>
      <trkpt lat="43.68416" lon="3.82993">
        <ele>90.4</ele>
        <time>2024-04-19T07:43:27.257Z</time>
      </trkpt>
      <trkpt lat="43.6842" lon="3.82987">
        <ele>90.2</ele>
        <time>2024-04-19T07:43:29.183Z</time>
      </trkpt>
      <trkpt lat="43.68445" lon="3.82947">
        <ele>90.2</ele>
        <time>2024-04-19T07:43:43.005Z</time>
      </trkpt>
      <trkpt lat="43.6846" lon="3.82938">
        <ele>91.2</ele>
        <time>2024-04-19T07:43:50.193Z</time>
      </trkpt>
      <trkpt lat="43.6847" lon="3.82933">
        <ele>91.6</ele>
        <time>2024-04-19T07:43:54.521Z</time>
      </trkpt>
      <trkpt lat="43.68483" lon="3.82929">
        <ele>92.5</ele>
        <time>2024-04-19T07:44:00.503Z</time>
      </trkpt>
      <trkpt lat="43.68494" lon="3.82923">
        <ele>92.6</ele>
        <time>2024-04-19T07:44:04.891Z</time>
      </trkpt>
      <trkpt lat="43.68518" lon="3.82913">
        <ele>93.2</ele>
        <time>2024-04-19T07:44:14.656Z</time>
      </trkpt>
      <trkpt lat="43.68533" lon="3.82903">
        <ele>93.8</ele>
        <time>2024-04-19T07:44:21.399Z</time>
      </trkpt>
      <trkpt lat="43.68561" lon="3.82876">
        <ele>93.8</ele>
        <time>2024-04-19T07:44:33.740Z</time>
      </trkpt>
      <trkpt lat="43.6857" lon="3.82856">
        <ele>93.3</ele>
        <time>2024-04-19T07:44:39.375Z</time>
      </trkpt>
      <trkpt lat="43.68577" lon="3.82854">
        <ele>93.5</ele>
        <time>2024-04-19T07:44:42.196Z</time>
      </trkpt>
      <trkpt lat="43.68585" lon="3.82846">
        <ele>93.6</ele>
        <time>2024-04-19T07:44:45.878Z</time>
      </trkpt>
      <trkpt lat="43.68592" lon="3.82791">
        <ele>93.3</ele>
        <time>2024-04-19T07:45:00.149Z</time>
      </trkpt>
      <trkpt lat="43.68593" lon="3.82759">
        <ele>94.2</ele>
        <time>2024-04-19T07:45:09.614Z</time>
      </trkpt>
      <trkpt lat="43.68589" lon="3.82748">
        <ele>94.8</ele>
        <time>2024-04-19T07:45:13.611Z</time>
      </trkpt>
      <trkpt lat="43.68579" lon="3.82737">
        <ele>94.8</ele>
        <time>2024-04-19T07:45:18.230Z</time>
      </trkpt>
      <trkpt lat="43.68576" lon="3.8273">
        <ele>94.7</ele>
        <time>2024-04-19T07:45:20.250Z</time>
      </trkpt>
      <trkpt lat="43.68574" lon="3.82722">
        <ele>94.7</ele>
        <time>2024-04-19T07:45:22.463Z</time>
      </trkpt>
      <trkpt lat="43.68574" lon="3.82711">
        <ele>94.4</ele>
        <time>2024-04-19T07:45:25.030Z</time>
      </trkpt>
      <trkpt lat="43.6857" lon="3.82703">
        <ele>93.9</ele>
        <time>2024-04-19T07:45:27.255Z</time>
      </trkpt>
      <trkpt lat="43.6857" lon="3.82692">
        <ele>93.5</ele>
        <time>2024-04-19T07:45:29.771Z</time>
      </trkpt>
      <trkpt lat="43.6858" lon="3.8268">
        <ele>93.7</ele>
        <time>2024-04-19T07:45:34.787Z</time>
      </trkpt>
      <trkpt lat="43.686" lon="3.82668">
        <ele>94.3</ele>
        <time>2024-04-19T07:45:43.378Z</time>
      </trkpt>
      <trkpt lat="43.68621" lon="3.82646">
        <ele>94.4</ele>
        <time>2024-04-19T07:45:53.015Z</time>
      </trkpt>
      <trkpt lat="43.68641" lon="3.82634">
        <ele>95.8</ele>
        <time>2024-04-19T07:46:02.697Z</time>
      </trkpt>
      <trkpt lat="43.68656" lon="3.82631">
        <ele>96.4</ele>
        <time>2024-04-19T07:46:08.905Z</time>
      </trkpt>
      <trkpt lat="43.68662" lon="3.8262">
        <ele>96.6</ele>
        <time>2024-04-19T07:46:12.740Z</time>
      </trkpt>
      <trkpt lat="43.68683" lon="3.82597">
        <ele>97</ele>
        <time>2024-04-19T07:46:22.884Z</time>
      </trkpt>
      <trkpt lat="43.68703" lon="3.82576">
        <ele>97.8</ele>
        <time>2024-04-19T07:46:32.917Z</time>
      </trkpt>
      <trkpt lat="43.68718" lon="3.82553">
        <ele>98.2</ele>
        <time>2024-04-19T07:46:41.477Z</time>
      </trkpt>
      <trkpt lat="43.68729" lon="3.8254">
        <ele>98.3</ele>
        <time>2024-04-19T07:46:46.821Z</time>
      </trkpt>
      <trkpt lat="43.68745" lon="3.82526">
        <ele>98.5</ele>
        <time>2024-04-19T07:46:53.893Z</time>
      </trkpt>
      <trkpt lat="43.68758" lon="3.8251">
        <ele>98.3</ele>
        <time>2024-04-19T07:46:59.967Z</time>
      </trkpt>
      <trkpt lat="43.68763" lon="3.82503">
        <ele>98.2</ele>
        <time>2024-04-19T07:47:02.432Z</time>
      </trkpt>
      <trkpt lat="43.68769" lon="3.82491">
        <ele>98.3</ele>
        <time>2024-04-19T07:47:06.359Z</time>
      </trkpt>
      <trkpt lat="43.68774" lon="3.8247">
        <ele>98.4</ele>
        <time>2024-04-19T07:47:12.251Z</time>
      </trkpt>
      <trkpt lat="43.68786" lon="3.82457">
        <ele>97.4</ele>
        <time>2024-04-19T07:47:17.073Z</time>
      </trkpt>
      <trkpt lat="43.68791" lon="3.82459">
        <ele>97.5</ele>
        <time>2024-04-19T07:47:19.071Z</time>
      </trkpt>
      <trkpt lat="43.68801" lon="3.82468">
        <ele>98</ele>
        <time>2024-04-19T07:47:23.995Z</time>
      </trkpt>
      <trkpt lat="43.68812" lon="3.82456">
        <ele>97.9</ele>
        <time>2024-04-19T07:47:28.951Z</time>
      </trkpt>
      <trkpt lat="43.6885" lon="3.82441">
        <ele>98.1</ele>
        <time>2024-04-19T07:47:43.462Z</time>
      </trkpt>
      <trkpt lat="43.68896" lon="3.82444">
        <ele>99.3</ele>
        <time>2024-04-19T07:48:01.524Z</time>
      </trkpt>
      <trkpt lat="43.68919" lon="3.82458">
        <ele>101.2</ele>
        <time>2024-04-19T07:48:13.120Z</time>
      </trkpt>
      <trkpt lat="43.68939" lon="3.8246">
        <ele>103.2</ele>
        <time>2024-04-19T07:48:23.173Z</time>
      </trkpt>
      <trkpt lat="43.68962" lon="3.82466">
        <ele>106.4</ele>
        <time>2024-04-19T07:48:36.561Z</time>
      </trkpt>
      <trkpt lat="43.68997" lon="3.82482">
        <ele>111.7</ele>
        <time>2024-04-19T07:48:58.200Z</time>
      </trkpt>
      <trkpt lat="43.69002" lon="3.82487">
        <ele>111.9</ele>
        <time>2024-04-19T07:49:00.669Z</time>
      </trkpt>
      <trkpt lat="43.69055" lon="3.82517">
        <ele>112</ele>
        <time>2024-04-19T07:49:21.484Z</time>
      </trkpt>
      <trkpt lat="43.6906" lon="3.82519">
        <ele>111.7</ele>
        <time>2024-04-19T07:49:23.130Z</time>
      </trkpt>
      <trkpt lat="43.69069" lon="3.82527">
        <ele>111.9</ele>
        <time>2024-04-19T07:49:27.230Z</time>
      </trkpt>
      <trkpt lat="43.69077" lon="3.82532">
        <ele>111.6</ele>
        <time>2024-04-19T07:49:30.093Z</time>
      </trkpt>
      <trkpt lat="43.69087" lon="3.82541">
        <ele>110.3</ele>
        <time>2024-04-19T07:49:33.867Z</time>
      </trkpt>
      <trkpt lat="43.69104" lon="3.8255">
        <ele>109</ele>
        <time>2024-04-19T07:49:39.625Z</time>
      </trkpt>
      <trkpt lat="43.69115" lon="3.82555">
        <ele>109.3</ele>
        <time>2024-04-19T07:49:44.164Z</time>
      </trkpt>
      <trkpt lat="43.69129" lon="3.82563">
        <ele>110.7</ele>
        <time>2024-04-19T07:49:51.568Z</time>
      </trkpt>
      <trkpt lat="43.69143" lon="3.82574">
        <ele>111.5</ele>
        <time>2024-04-19T07:49:58.384Z</time>
      </trkpt>
      <trkpt lat="43.6916" lon="3.82581">
        <ele>111.7</ele>
        <time>2024-04-19T07:50:05.024Z</time>
      </trkpt>
      <trkpt lat="43.69173" lon="3.82582">
        <ele>111.5</ele>
        <time>2024-04-19T07:50:09.516Z</time>
      </trkpt>
      <trkpt lat="43.69186" lon="3.8259">
        <ele>110.8</ele>
        <time>2024-04-19T07:50:14.017Z</time>
      </trkpt>
      <trkpt lat="43.69198" lon="3.826">
        <ele>109.5</ele>
        <time>2024-04-19T07:50:18.448Z</time>
      </trkpt>
      <trkpt lat="43.69207" lon="3.82605">
        <ele>108.7</ele>
        <time>2024-04-19T07:50:21.516Z</time>
      </trkpt>
      <trkpt lat="43.69233" lon="3.82624">
        <ele>106.5</ele>
        <time>2024-04-19T07:50:30.818Z</time>
      </trkpt>
      <trkpt lat="43.69248" lon="3.82632">
        <ele>104.9</ele>
        <time>2024-04-19T07:50:35.904Z</time>
      </trkpt>
      <trkpt lat="43.69275" lon="3.82634">
        <ele>103.8</ele>
        <time>2024-04-19T07:50:44.555Z</time>
      </trkpt>
      <trkpt lat="43.69281" lon="3.82635">
        <ele>103.7</ele>
        <time>2024-04-19T07:50:46.632Z</time>
      </trkpt>
      <trkpt lat="43.69287" lon="3.82638">
        <ele>103.5</ele>
        <time>2024-04-19T07:50:48.730Z</time>
      </trkpt>
      <trkpt lat="43.69292" lon="3.82642">
        <ele>103.4</ele>
        <time>2024-04-19T07:50:50.711Z</time>
      </trkpt>
      <trkpt lat="43.69294" lon="3.82652">
        <ele>103.1</ele>
        <time>2024-04-19T07:50:53.116Z</time>
      </trkpt>
      <trkpt lat="43.69301" lon="3.82657">
        <ele>103.2</ele>
        <time>2024-04-19T07:50:56.079Z</time>
      </trkpt>
      <trkpt lat="43.69314" lon="3.82662">
        <ele>103.3</ele>
        <time>2024-04-19T07:51:01.070Z</time>
      </trkpt>
      <trkpt lat="43.69339" lon="3.82662">
        <ele>103.6</ele>
        <time>2024-04-19T07:51:10.450Z</time>
      </trkpt>
      <trkpt lat="43.69424" lon="3.8269">
        <ele>103.4</ele>
        <time>2024-04-19T07:51:41.817Z</time>
      </trkpt>
      <trkpt lat="43.69433" lon="3.82693">
        <ele>103.6</ele>
        <time>2024-04-19T07:51:45.397Z</time>
      </trkpt>
      <trkpt lat="43.69453" lon="3.82695">
        <ele>104.3</ele>
        <time>2024-04-19T07:51:53.488Z</time>
      </trkpt>
      <trkpt lat="43.69461" lon="3.82698">
        <ele>104.7</ele>
        <time>2024-04-19T07:51:56.980Z</time>
      </trkpt>
      <trkpt lat="43.69454" lon="3.82705">
        <ele>104.5</ele>
        <time>2024-04-19T07:51:59.891Z</time>
      </trkpt>
      <trkpt lat="43.69434" lon="3.8271">
        <ele>103.6</ele>
        <time>2024-04-19T07:52:06.325Z</time>
      </trkpt>
      <trkpt lat="43.69426" lon="3.82714">
        <ele>103.3</ele>
        <time>2024-04-19T07:52:09.091Z</time>
      </trkpt>
      <trkpt lat="43.69403" lon="3.82732">
        <ele>102.5</ele>
        <time>2024-04-19T07:52:17.809Z</time>
      </trkpt>
      <trkpt lat="43.69394" lon="3.82737">
        <ele>102.2</ele>
        <time>2024-04-19T07:52:21.003Z</time>
      </trkpt>
      <trkpt lat="43.69286" lon="3.82767">
        <ele>100.2</ele>
        <time>2024-04-19T07:52:58.685Z</time>
      </trkpt>
      <trkpt lat="43.69287" lon="3.82776">
        <ele>100.3</ele>
        <time>2024-04-19T07:53:01.180Z</time>
      </trkpt>
      <trkpt lat="43.69317" lon="3.82816">
        <ele>105.1</ele>
        <time>2024-04-19T07:53:23.239Z</time>
      </trkpt>
      <trkpt lat="43.69331" lon="3.82813">
        <ele>105.9</ele>
        <time>2024-04-19T07:53:29.371Z</time>
      </trkpt>
      <trkpt lat="43.69342" lon="3.82818">
        <ele>106.7</ele>
        <time>2024-04-19T07:53:34.598Z</time>
      </trkpt>
      <trkpt lat="43.6935" lon="3.82815">
        <ele>106.2</ele>
        <time>2024-04-19T07:53:37.220Z</time>
      </trkpt>
      <trkpt lat="43.69358" lon="3.82819">
        <ele>106.5</ele>
        <time>2024-04-19T07:53:40.656Z</time>
      </trkpt>
      <trkpt lat="43.69367" lon="3.82819">
        <ele>106.5</ele>
        <time>2024-04-19T07:53:43.910Z</time>
      </trkpt>
      <trkpt lat="43.69375" lon="3.82817">
        <ele>106.2</ele>
        <time>2024-04-19T07:53:46.540Z</time>
      </trkpt>
      <trkpt lat="43.69387" lon="3.8281">
        <ele>105.5</ele>
        <time>2024-04-19T07:53:50.659Z</time>
      </trkpt>
      <trkpt lat="43.69398" lon="3.82799">
        <ele>104.9</ele>
        <time>2024-04-19T07:53:54.958Z</time>
      </trkpt>
      <trkpt lat="43.69413" lon="3.82781">
        <ele>104.1</ele>
        <time>2024-04-19T07:54:01.319Z</time>
      </trkpt>
      <trkpt lat="43.69416" lon="3.82775">
        <ele>103.9</ele>
        <time>2024-04-19T07:54:03.020Z</time>
      </trkpt>
      <trkpt lat="43.69425" lon="3.82764">
        <ele>104.1</ele>
        <time>2024-04-19T07:54:07.593Z</time>
      </trkpt>
      <trkpt lat="43.69463" lon="3.82746">
        <ele>106.8</ele>
        <time>2024-04-19T07:54:25.612Z</time>
      </trkpt>
      <trkpt lat="43.69471" lon="3.82748">
        <ele>107.7</ele>
        <time>2024-04-19T07:54:29.848Z</time>
      </trkpt>
      <trkpt lat="43.69478" lon="3.8274">
        <ele>107.6</ele>
        <time>2024-04-19T07:54:33.022Z</time>
      </trkpt>
      <trkpt lat="43.69485" lon="3.82734">
        <ele>107.6</ele>
        <time>2024-04-19T07:54:35.999Z</time>
      </trkpt>
      <trkpt lat="43.69518" lon="3.82715">
        <ele>108.3</ele>
        <time>2024-04-19T07:54:49.735Z</time>
      </trkpt>
      <trkpt lat="43.69527" lon="3.82711">
        <ele>108.6</ele>
        <time>2024-04-19T07:54:53.510Z</time>
      </trkpt>
      <trkpt lat="43.69542" lon="3.82709">
        <ele>108.5</ele>
        <time>2024-04-19T07:54:58.848Z</time>
      </trkpt>
      <trkpt lat="43.69555" lon="3.82704">
        <ele>108.3</ele>
        <time>2024-04-19T07:55:03.511Z</time>
      </trkpt>
      <trkpt lat="43.69564" lon="3.82703">
        <ele>107.9</ele>
        <time>2024-04-19T07:55:06.369Z</time>
      </trkpt>
      <trkpt lat="43.6957" lon="3.82698">
        <ele>107.5</ele>
        <time>2024-04-19T07:55:08.585Z</time>
      </trkpt>
      <trkpt lat="43.69584" lon="3.82693">
        <ele>107</ele>
        <time>2024-04-19T07:55:13.295Z</time>
      </trkpt>
      <trkpt lat="43.69594" lon="3.82699">
        <ele>106.6</ele>
        <time>2024-04-19T07:55:16.823Z</time>
      </trkpt>
      <trkpt lat="43.69599" lon="3.82708">
        <ele>106.2</ele>
        <time>2024-04-19T07:55:19.419Z</time>
      </trkpt>
      <trkpt lat="43.69601" lon="3.82719">
        <ele>105.8</ele>
        <time>2024-04-19T07:55:22.013Z</time>
      </trkpt>
      <trkpt lat="43.69604" lon="3.8273">
        <ele>104.9</ele>
        <time>2024-04-19T07:55:24.702Z</time>
      </trkpt>
      <trkpt lat="43.6961" lon="3.82742">
        <ele>103.6</ele>
        <time>2024-04-19T07:55:28.039Z</time>
      </trkpt>
      <trkpt lat="43.69615" lon="3.82746">
        <ele>103.6</ele>
        <time>2024-04-19T07:55:30.127Z</time>
      </trkpt>
      <trkpt lat="43.69625" lon="3.82746">
        <ele>104.3</ele>
        <time>2024-04-19T07:55:34.655Z</time>
      </trkpt>
      <trkpt lat="43.69633" lon="3.82755">
        <ele>104.5</ele>
        <time>2024-04-19T07:55:38.615Z</time>
      </trkpt>
      <trkpt lat="43.69644" lon="3.82775">
        <ele>105.7</ele>
        <time>2024-04-19T07:55:46.734Z</time>
      </trkpt>
      <trkpt lat="43.6965" lon="3.82785">
        <ele>106.5</ele>
        <time>2024-04-19T07:55:51.212Z</time>
      </trkpt>
      <trkpt lat="43.69656" lon="3.82791">
        <ele>107.2</ele>
        <time>2024-04-19T07:55:54.858Z</time>
      </trkpt>
      <trkpt lat="43.69665" lon="3.82797">
        <ele>108.1</ele>
        <time>2024-04-19T07:55:59.702Z</time>
      </trkpt>
      <trkpt lat="43.6968" lon="3.82799">
        <ele>108.3</ele>
        <time>2024-04-19T07:56:05.379Z</time>
      </trkpt>
      <trkpt lat="43.69688" lon="3.82802">
        <ele>108.2</ele>
        <time>2024-04-19T07:56:08.267Z</time>
      </trkpt>
      <trkpt lat="43.69695" lon="3.82807">
        <ele>107.9</ele>
        <time>2024-04-19T07:56:10.807Z</time>
      </trkpt>
      <trkpt lat="43.69709" lon="3.82823">
        <ele>107.1</ele>
        <time>2024-04-19T07:56:16.560Z</time>
      </trkpt>
      <trkpt lat="43.69714" lon="3.82832">
        <ele>106.8</ele>
        <time>2024-04-19T07:56:19.218Z</time>
      </trkpt>
      <trkpt lat="43.69718" lon="3.82845">
        <ele>106.1</ele>
        <time>2024-04-19T07:56:22.449Z</time>
      </trkpt>
      <trkpt lat="43.69719" lon="3.82853">
        <ele>105.6</ele>
        <time>2024-04-19T07:56:24.306Z</time>
      </trkpt>
      <trkpt lat="43.69721" lon="3.82871">
        <ele>104.6</ele>
        <time>2024-04-19T07:56:28.471Z</time>
      </trkpt>
      <trkpt lat="43.69725" lon="3.82876">
        <ele>104.6</ele>
        <time>2024-04-19T07:56:30.420Z</time>
      </trkpt>
      <trkpt lat="43.69732" lon="3.82879">
        <ele>104.7</ele>
        <time>2024-04-19T07:56:33.184Z</time>
      </trkpt>
      <trkpt lat="43.6974" lon="3.82881">
        <ele>104.9</ele>
        <time>2024-04-19T07:56:36.358Z</time>
      </trkpt>
      <trkpt lat="43.69746" lon="3.82885">
        <ele>105</ele>
        <time>2024-04-19T07:56:38.880Z</time>
      </trkpt>
      <trkpt lat="43.69761" lon="3.82901">
        <ele>106.4</ele>
        <time>2024-04-19T07:56:47.571Z</time>
      </trkpt>
      <trkpt lat="43.69762" lon="3.82914">
        <ele>107.2</ele>
        <time>2024-04-19T07:56:52.069Z</time>
      </trkpt>
      <trkpt lat="43.69765" lon="3.82926">
        <ele>108.4</ele>
        <time>2024-04-19T07:56:57.207Z</time>
      </trkpt>
      <trkpt lat="43.69766" lon="3.82933">
        <ele>109.2</ele>
        <time>2024-04-19T07:57:00.365Z</time>
      </trkpt>
      <trkpt lat="43.69774" lon="3.82957">
        <ele>111.2</ele>
        <time>2024-04-19T07:57:10.111Z</time>
      </trkpt>
      <trkpt lat="43.6978" lon="3.82968">
        <ele>111.9</ele>
        <time>2024-04-19T07:57:14.626Z</time>
      </trkpt>
      <trkpt lat="43.69786" lon="3.82975">
        <ele>112.4</ele>
        <time>2024-04-19T07:57:18.106Z</time>
      </trkpt>
      <trkpt lat="43.69794" lon="3.82972">
        <ele>112.6</ele>
        <time>2024-04-19T07:57:21.337Z</time>
      </trkpt>
      <trkpt lat="43.69805" lon="3.82961">
        <ele>113</ele>
        <time>2024-04-19T07:57:26.719Z</time>
      </trkpt>
      <trkpt lat="43.6981" lon="3.82954">
        <ele>113.2</ele>
        <time>2024-04-19T07:57:29.528Z</time>
      </trkpt>
      <trkpt lat="43.69833" lon="3.82935">
        <ele>113.6</ele>
        <time>2024-04-19T07:57:39.672Z</time>
      </trkpt>
      <trkpt lat="43.69844" lon="3.82923">
        <ele>113.9</ele>
        <time>2024-04-19T07:57:45.087Z</time>
      </trkpt>
      <trkpt lat="43.69851" lon="3.82919">
        <ele>114.3</ele>
        <time>2024-04-19T07:57:48.326Z</time>
      </trkpt>
      <trkpt lat="43.69872" lon="3.82928">
        <ele>115</ele>
        <time>2024-04-19T07:57:57.109Z</time>
      </trkpt>
      <trkpt lat="43.69885" lon="3.82937">
        <ele>115</ele>
        <time>2024-04-19T07:58:02.365Z</time>
      </trkpt>
      <trkpt lat="43.69892" lon="3.82941">
        <ele>115.2</ele>
        <time>2024-04-19T07:58:05.339Z</time>
      </trkpt>
      <trkpt lat="43.69909" lon="3.82941">
        <ele>116.4</ele>
        <time>2024-04-19T07:58:13.052Z</time>
      </trkpt>
      <trkpt lat="43.6992" lon="3.82933">
        <ele>116.8</ele>
        <time>2024-04-19T07:58:18.023Z</time>
      </trkpt>
      <trkpt lat="43.6994" lon="3.82931">
        <ele>117.8</ele>
        <time>2024-04-19T07:58:26.516Z</time>
      </trkpt>
      <trkpt lat="43.69948" lon="3.82935">
        <ele>118.1</ele>
        <time>2024-04-19T07:58:29.952Z</time>
      </trkpt>
      <trkpt lat="43.69957" lon="3.82942">
        <ele>118.4</ele>
        <time>2024-04-19T07:58:34.041Z</time>
      </trkpt>
      <trkpt lat="43.69964" lon="3.82946">
        <ele>118.7</ele>
        <time>2024-04-19T07:58:37.143Z</time>
      </trkpt>
      <trkpt lat="43.69983" lon="3.82949">
        <ele>118.5</ele>
        <time>2024-04-19T07:58:43.839Z</time>
      </trkpt>
      <trkpt lat="43.69994" lon="3.82955">
        <ele>117.9</ele>
        <time>2024-04-19T07:58:47.579Z</time>
      </trkpt>
      <trkpt lat="43.69992" lon="3.82973">
        <ele>117.6</ele>
        <time>2024-04-19T07:58:52.021Z</time>
      </trkpt>
      <trkpt lat="43.69979" lon="3.82992">
        <ele>118.3</ele>
        <time>2024-04-19T07:58:59.703Z</time>
      </trkpt>
      <trkpt lat="43.69962" lon="3.83002">
        <ele>118.1</ele>
        <time>2024-04-19T07:59:06.164Z</time>
      </trkpt>
      <trkpt lat="43.69954" lon="3.83003">
        <ele>117.5</ele>
        <time>2024-04-19T07:59:08.705Z</time>
      </trkpt>
      <trkpt lat="43.69936" lon="3.83004">
        <ele>116.3</ele>
        <time>2024-04-19T07:59:14.404Z</time>
      </trkpt>
      <trkpt lat="43.69921" lon="3.83002">
        <ele>115.3</ele>
        <time>2024-04-19T07:59:19.170Z</time>
      </trkpt>
      <trkpt lat="43.69911" lon="3.83006">
        <ele>114.8</ele>
        <time>2024-04-19T07:59:22.463Z</time>
      </trkpt>
      <trkpt lat="43.69897" lon="3.83017">
        <ele>113.9</ele>
        <time>2024-04-19T07:59:27.556Z</time>
      </trkpt>
      <trkpt lat="43.69892" lon="3.8302">
        <ele>113.5</ele>
        <time>2024-04-19T07:59:29.280Z</time>
      </trkpt>
      <trkpt lat="43.69885" lon="3.83028">
        <ele>112.9</ele>
        <time>2024-04-19T07:59:32.153Z</time>
      </trkpt>
      <trkpt lat="43.6988" lon="3.83035">
        <ele>112.3</ele>
        <time>2024-04-19T07:59:34.403Z</time>
      </trkpt>
      <trkpt lat="43.69872" lon="3.83049">
        <ele>111.2</ele>
        <time>2024-04-19T07:59:38.484Z</time>
      </trkpt>
      <trkpt lat="43.69869" lon="3.83056">
        <ele>110.6</ele>
        <time>2024-04-19T07:59:40.345Z</time>
      </trkpt>
      <trkpt lat="43.69868" lon="3.83065">
        <ele>110.5</ele>
        <time>2024-04-19T07:59:42.617Z</time>
      </trkpt>
      <trkpt lat="43.69874" lon="3.83064">
        <ele>110.9</ele>
        <time>2024-04-19T07:59:45.319Z</time>
      </trkpt>
      <trkpt lat="43.69931" lon="3.8305">
        <ele>114.7</ele>
        <time>2024-04-19T08:00:11.153Z</time>
      </trkpt>
      <trkpt lat="43.6994" lon="3.83057">
        <ele>114.8</ele>
        <time>2024-04-19T08:00:14.999Z</time>
      </trkpt>
      <trkpt lat="43.69944" lon="3.83076">
        <ele>114.2</ele>
        <time>2024-04-19T08:00:19.560Z</time>
      </trkpt>
      <trkpt lat="43.69952" lon="3.83093">
        <ele>114.5</ele>
        <time>2024-04-19T08:00:25.211Z</time>
      </trkpt>
      <trkpt lat="43.69968" lon="3.83098">
        <ele>114.9</ele>
        <time>2024-04-19T08:00:31.610Z</time>
      </trkpt>
      <trkpt lat="43.69976" lon="3.83108">
        <ele>115.1</ele>
        <time>2024-04-19T08:00:35.740Z</time>
      </trkpt>
      <trkpt lat="43.69976" lon="3.8312">
        <ele>115.5</ele>
        <time>2024-04-19T08:00:39.370Z</time>
      </trkpt>
      <trkpt lat="43.69979" lon="3.8314">
        <ele>116.2</ele>
        <time>2024-04-19T08:00:45.574Z</time>
      </trkpt>
      <trkpt lat="43.69979" lon="3.83162">
        <ele>116.2</ele>
        <time>2024-04-19T08:00:51.324Z</time>
      </trkpt>
      <trkpt lat="43.69979" lon="3.83263">
        <ele>118</ele>
        <time>2024-04-19T08:01:19.836Z</time>
      </trkpt>
      <trkpt lat="43.69978" lon="3.83288">
        <ele>118.3</ele>
        <time>2024-04-19T08:01:26.726Z</time>
      </trkpt>
      <trkpt lat="43.69977" lon="3.83305">
        <ele>118.8</ele>
        <time>2024-04-19T08:01:31.793Z</time>
      </trkpt>
      <trkpt lat="43.6998" lon="3.83325">
        <ele>116.8</ele>
        <time>2024-04-19T08:01:36.464Z</time>
      </trkpt>
      <trkpt lat="43.6998" lon="3.83343">
        <ele>115.3</ele>
        <time>2024-04-19T08:01:40.581Z</time>
      </trkpt>
      <trkpt lat="43.69977" lon="3.83351">
        <ele>114.7</ele>
        <time>2024-04-19T08:01:42.642Z</time>
      </trkpt>
      <trkpt lat="43.69977" lon="3.83358">
        <ele>114.2</ele>
        <time>2024-04-19T08:01:44.243Z</time>
      </trkpt>
      <trkpt lat="43.69986" lon="3.83372">
        <ele>114.4</ele>
        <time>2024-04-19T08:01:49.369Z</time>
      </trkpt>
      <trkpt lat="43.69991" lon="3.83386">
        <ele>114.9</ele>
        <time>2024-04-19T08:01:54.064Z</time>
      </trkpt>
      <trkpt lat="43.69991" lon="3.83393">
        <ele>115.3</ele>
        <time>2024-04-19T08:01:56.427Z</time>
      </trkpt>
      <trkpt lat="43.69992" lon="3.83402">
        <ele>115.9</ele>
        <time>2024-04-19T08:01:59.630Z</time>
      </trkpt>
      <trkpt lat="43.69994" lon="3.8341">
        <ele>116.5</ele>
        <time>2024-04-19T08:02:02.680Z</time>
      </trkpt>
      <trkpt lat="43.70007" lon="3.83422">
        <ele>117.2</ele>
        <time>2024-04-19T08:02:09.191Z</time>
      </trkpt>
      <trkpt lat="43.70014" lon="3.83428">
        <ele>117.4</ele>
        <time>2024-04-19T08:02:12.403Z</time>
      </trkpt>
      <trkpt lat="43.7002" lon="3.83431">
        <ele>117.5</ele>
        <time>2024-04-19T08:02:14.824Z</time>
      </trkpt>
      <trkpt lat="43.70027" lon="3.83433">
        <ele>117.6</ele>
        <time>2024-04-19T08:02:17.523Z</time>
      </trkpt>
      <trkpt lat="43.70042" lon="3.83435">
        <ele>117.7</ele>
        <time>2024-04-19T08:02:23.084Z</time>
      </trkpt>
      <trkpt lat="43.70049" lon="3.83447">
        <ele>118.1</ele>
        <time>2024-04-19T08:02:27.595Z</time>
      </trkpt>
      <trkpt lat="43.70043" lon="3.83525">
        <ele>121.3</ele>
        <time>2024-04-19T08:02:52.139Z</time>
      </trkpt>
      <trkpt lat="43.70043" lon="3.83533">
        <ele>121.7</ele>
        <time>2024-04-19T08:02:54.750Z</time>
      </trkpt>
      <trkpt lat="43.7004" lon="3.83551">
        <ele>122.9</ele>
        <time>2024-04-19T08:03:01.220Z</time>
      </trkpt>
      <trkpt lat="43.70046" lon="3.83602">
        <ele>124.8</ele>
        <time>2024-04-19T08:03:17.094Z</time>
      </trkpt>
      <trkpt lat="43.70047" lon="3.8362">
        <ele>125.4</ele>
        <time>2024-04-19T08:03:22.552Z</time>
      </trkpt>
      <trkpt lat="43.70053" lon="3.83639">
        <ele>125.2</ele>
        <time>2024-04-19T08:03:27.754Z</time>
      </trkpt>
      <trkpt lat="43.70047" lon="3.83652">
        <ele>125</ele>
        <time>2024-04-19T08:03:31.571Z</time>
      </trkpt>
      <trkpt lat="43.70034" lon="3.83655">
        <ele>125.5</ele>
        <time>2024-04-19T08:03:36.941Z</time>
      </trkpt>
      <trkpt lat="43.70026" lon="3.83654">
        <ele>125.9</ele>
        <time>2024-04-19T08:03:40.343Z</time>
      </trkpt>
      <trkpt lat="43.70042" lon="3.83654">
        <ele>125.2</ele>
        <time>2024-04-19T08:03:45.416Z</time>
      </trkpt>
      <trkpt lat="43.70052" lon="3.83644">
        <ele>125</ele>
        <time>2024-04-19T08:03:49.662Z</time>
      </trkpt>
      <trkpt lat="43.70052" lon="3.83637">
        <ele>125.2</ele>
        <time>2024-04-19T08:03:51.734Z</time>
      </trkpt>
      <trkpt lat="43.70059" lon="3.83633">
        <ele>124.8</ele>
        <time>2024-04-19T08:03:54.130Z</time>
      </trkpt>
      <trkpt lat="43.70065" lon="3.83618">
        <ele>124.3</ele>
        <time>2024-04-19T08:03:58.099Z</time>
      </trkpt>
      <trkpt lat="43.70066" lon="3.83597">
        <ele>123.4</ele>
        <time>2024-04-19T08:04:02.912Z</time>
      </trkpt>
      <trkpt lat="43.70069" lon="3.83575">
        <ele>122.2</ele>
        <time>2024-04-19T08:04:08.032Z</time>
      </trkpt>
      <trkpt lat="43.70076" lon="3.83562">
        <ele>121.5</ele>
        <time>2024-04-19T08:04:11.739Z</time>
      </trkpt>
      <trkpt lat="43.7008" lon="3.83556">
        <ele>121.1</ele>
        <time>2024-04-19T08:04:13.605Z</time>
      </trkpt>
      <trkpt lat="43.7009" lon="3.83539">
        <ele>120.3</ele>
        <time>2024-04-19T08:04:18.617Z</time>
      </trkpt>
      <trkpt lat="43.70093" lon="3.83533">
        <ele>120.1</ele>
        <time>2024-04-19T08:04:20.319Z</time>
      </trkpt>
      <trkpt lat="43.70096" lon="3.83527">
        <ele>120</ele>
        <time>2024-04-19T08:04:22.118Z</time>
      </trkpt>
      <trkpt lat="43.70134" lon="3.8349">
        <ele>118.9</ele>
        <time>2024-04-19T08:04:37.754Z</time>
      </trkpt>
      <trkpt lat="43.70144" lon="3.83472">
        <ele>119</ele>
        <time>2024-04-19T08:04:43.800Z</time>
      </trkpt>
      <trkpt lat="43.70148" lon="3.83461">
        <ele>118.7</ele>
        <time>2024-04-19T08:04:46.707Z</time>
      </trkpt>
      <trkpt lat="43.70155" lon="3.83453">
        <ele>118.7</ele>
        <time>2024-04-19T08:04:49.989Z</time>
      </trkpt>
      <trkpt lat="43.702" lon="3.83423">
        <ele>118.7</ele>
        <time>2024-04-19T08:05:08.048Z</time>
      </trkpt>
      <trkpt lat="43.7022" lon="3.83397">
        <ele>119.3</ele>
        <time>2024-04-19T08:05:18.671Z</time>
      </trkpt>
      <trkpt lat="43.70233" lon="3.83413">
        <ele>117.2</ele>
        <time>2024-04-19T08:05:24.175Z</time>
      </trkpt>
      <trkpt lat="43.70235" lon="3.83419">
        <ele>116.5</ele>
        <time>2024-04-19T08:05:25.686Z</time>
      </trkpt>
      <trkpt lat="43.70241" lon="3.83436">
        <ele>115.1</ele>
        <time>2024-04-19T08:05:30.012Z</time>
      </trkpt>
      <trkpt lat="43.70248" lon="3.83453">
        <ele>113.8</ele>
        <time>2024-04-19T08:05:34.486Z</time>
      </trkpt>
      <trkpt lat="43.70253" lon="3.83479">
        <ele>112.9</ele>
        <time>2024-04-19T08:05:40.639Z</time>
      </trkpt>
      <trkpt lat="43.70265" lon="3.83695">
        <ele>107.5</ele>
        <time>2024-04-19T08:06:31.669Z</time>
      </trkpt>
      <trkpt lat="43.70339" lon="3.83741">
        <ele>107.7</ele>
        <time>2024-04-19T08:07:01.222Z</time>
      </trkpt>
      <trkpt lat="43.7039" lon="3.83774">
        <ele>101.8</ele>
        <time>2024-04-19T08:07:19.032Z</time>
      </trkpt>
      <trkpt lat="43.70397" lon="3.83767">
        <ele>100.7</ele>
        <time>2024-04-19T08:07:21.764Z</time>
      </trkpt>
      <trkpt lat="43.70418" lon="3.83734">
        <ele>98.6</ele>
        <time>2024-04-19T08:07:31.818Z</time>
      </trkpt>
      <trkpt lat="43.70422" lon="3.8374">
        <ele>98.7</ele>
        <time>2024-04-19T08:07:34.066Z</time>
      </trkpt>
      <trkpt lat="43.70419" lon="3.83753">
        <ele>98.1</ele>
        <time>2024-04-19T08:07:37.187Z</time>
      </trkpt>
      <trkpt lat="43.70417" lon="3.83767">
        <ele>97.4</ele>
        <time>2024-04-19T08:07:40.450Z</time>
      </trkpt>
      <trkpt lat="43.70417" lon="3.83779">
        <ele>97</ele>
        <time>2024-04-19T08:07:43.194Z</time>
      </trkpt>
      <trkpt lat="43.70418" lon="3.83791">
        <ele>97</ele>
        <time>2024-04-19T08:07:46.351Z</time>
      </trkpt>
      <trkpt lat="43.70419" lon="3.83798">
        <ele>97</ele>
        <time>2024-04-19T08:07:48.216Z</time>
      </trkpt>
      <trkpt lat="43.70437" lon="3.83873">
        <ele>96.8</ele>
        <time>2024-04-19T08:08:08.647Z</time>
      </trkpt>
      <trkpt lat="43.7044" lon="3.83898">
        <ele>95.7</ele>
        <time>2024-04-19T08:08:14.442Z</time>
      </trkpt>
      <trkpt lat="43.7044" lon="3.8398">
        <ele>93.4</ele>
        <time>2024-04-19T08:08:33.514Z</time>
      </trkpt>
      <trkpt lat="43.70449" lon="3.84041">
        <ele>93.2</ele>
        <time>2024-04-19T08:08:49.564Z</time>
      </trkpt>
      <trkpt lat="43.70456" lon="3.84075">
        <ele>93.6</ele>
        <time>2024-04-19T08:08:59.263Z</time>
      </trkpt>
      <trkpt lat="43.70488" lon="3.84166">
        <ele>90</ele>
        <time>2024-04-19T08:09:22.404Z</time>
      </trkpt>
      <trkpt lat="43.70491" lon="3.84186">
        <ele>89.5</ele>
        <time>2024-04-19T08:09:27.224Z</time>
      </trkpt>
      <trkpt lat="43.70494" lon="3.84215">
        <ele>89.1</ele>
        <time>2024-04-19T08:09:34.452Z</time>
      </trkpt>
      <trkpt lat="43.70489" lon="3.84259">
        <ele>87.5</ele>
        <time>2024-04-19T08:09:44.637Z</time>
      </trkpt>
      <trkpt lat="43.70485" lon="3.84271">
        <ele>87.6</ele>
        <time>2024-04-19T08:09:48.204Z</time>
      </trkpt>
      <trkpt lat="43.70477" lon="3.84287">
        <ele>89.1</ele>
        <time>2024-04-19T08:09:55.428Z</time>
      </trkpt>
      <trkpt lat="43.70472" lon="3.84283">
        <ele>90</ele>
        <time>2024-04-19T08:09:58.973Z</time>
      </trkpt>
      <trkpt lat="43.70461" lon="3.84274">
        <ele>91.8</ele>
        <time>2024-04-19T08:10:06.395Z</time>
      </trkpt>
      <trkpt lat="43.70453" lon="3.8427">
        <ele>92.8</ele>
        <time>2024-04-19T08:10:10.936Z</time>
      </trkpt>
      <trkpt lat="43.70446" lon="3.84268">
        <ele>93.9</ele>
        <time>2024-04-19T08:10:15.292Z</time>
      </trkpt>
      <trkpt lat="43.7044" lon="3.84264">
        <ele>94.8</ele>
        <time>2024-04-19T08:10:19.080Z</time>
      </trkpt>
      <trkpt lat="43.70422" lon="3.8425">
        <ele>97.5</ele>
        <time>2024-04-19T08:10:30.638Z</time>
      </trkpt>
      <trkpt lat="43.70416" lon="3.84246">
        <ele>98.2</ele>
        <time>2024-04-19T08:10:34.041Z</time>
      </trkpt>
      <trkpt lat="43.70411" lon="3.84244">
        <ele>98.9</ele>
        <time>2024-04-19T08:10:36.994Z</time>
      </trkpt>
      <trkpt lat="43.704" lon="3.84238">
        <ele>100.2</ele>
        <time>2024-04-19T08:10:43.138Z</time>
      </trkpt>
      <trkpt lat="43.70391" lon="3.84232">
        <ele>100.9</ele>
        <time>2024-04-19T08:10:47.663Z</time>
      </trkpt>
      <trkpt lat="43.70377" lon="3.84224">
        <ele>101.2</ele>
        <time>2024-04-19T08:10:53.487Z</time>
      </trkpt>
      <trkpt lat="43.70365" lon="3.84213">
        <ele>102.7</ele>
        <time>2024-04-19T08:11:00.818Z</time>
      </trkpt>
      <trkpt lat="43.7036" lon="3.8421">
        <ele>103.6</ele>
        <time>2024-04-19T08:11:04.282Z</time>
      </trkpt>
      <trkpt lat="43.70338" lon="3.842">
        <ele>106.6</ele>
        <time>2024-04-19T08:11:17.188Z</time>
      </trkpt>
      <trkpt lat="43.70327" lon="3.84193">
        <ele>108.9</ele>
        <time>2024-04-19T08:11:25.650Z</time>
      </trkpt>
      <trkpt lat="43.70318" lon="3.84189">
        <ele>111.7</ele>
        <time>2024-04-19T08:11:35.814Z</time>
      </trkpt>
      <trkpt lat="43.70307" lon="3.84182">
        <ele>114.2</ele>
        <time>2024-04-19T08:11:44.840Z</time>
      </trkpt>
      <trkpt lat="43.70302" lon="3.84181">
        <ele>115.2</ele>
        <time>2024-04-19T08:11:48.482Z</time>
      </trkpt>
      <trkpt lat="43.70291" lon="3.84176">
        <ele>117.1</ele>
        <time>2024-04-19T08:11:55.813Z</time>
      </trkpt>
      <trkpt lat="43.70285" lon="3.84172">
        <ele>117.7</ele>
        <time>2024-04-19T08:11:59.042Z</time>
      </trkpt>
      <trkpt lat="43.70278" lon="3.84166">
        <ele>118</ele>
        <time>2024-04-19T08:12:02.381Z</time>
      </trkpt>
      <trkpt lat="43.70266" lon="3.84147">
        <ele>120.3</ele>
        <time>2024-04-19T08:12:12.421Z</time>
      </trkpt>
      <trkpt lat="43.70262" lon="3.84142">
        <ele>120.4</ele>
        <time>2024-04-19T08:12:14.486Z</time>
      </trkpt>
      <trkpt lat="43.70259" lon="3.84149">
        <ele>121.5</ele>
        <time>2024-04-19T08:12:18.550Z</time>
      </trkpt>
      <trkpt lat="43.7026" lon="3.84157">
        <ele>122.1</ele>
        <time>2024-04-19T08:12:21.518Z</time>
      </trkpt>
      <trkpt lat="43.70262" lon="3.84166">
        <ele>122.5</ele>
        <time>2024-04-19T08:12:24.487Z</time>
      </trkpt>
      <trkpt lat="43.70263" lon="3.84175">
        <ele>123.3</ele>
        <time>2024-04-19T08:12:28.051Z</time>
      </trkpt>
      <trkpt lat="43.70263" lon="3.84184">
        <ele>124.4</ele>
        <time>2024-04-19T08:12:32.249Z</time>
      </trkpt>
      <trkpt lat="43.70263" lon="3.84198">
        <ele>126</ele>
        <time>2024-04-19T08:12:38.514Z</time>
      </trkpt>
      <trkpt lat="43.70258" lon="3.84238">
        <ele>129.6</ele>
        <time>2024-04-19T08:12:54.469Z</time>
      </trkpt>
      <trkpt lat="43.70255" lon="3.84252">
        <ele>130.8</ele>
        <time>2024-04-19T08:13:00.027Z</time>
      </trkpt>
      <trkpt lat="43.7025" lon="3.84259">
        <ele>132</ele>
        <time>2024-04-19T08:13:04.610Z</time>
      </trkpt>
      <trkpt lat="43.70245" lon="3.84261">
        <ele>132.5</ele>
        <time>2024-04-19T08:13:07.186Z</time>
      </trkpt>
      <trkpt lat="43.70239" lon="3.84267">
        <ele>133.2</ele>
        <time>2024-04-19T08:13:10.831Z</time>
      </trkpt>
      <trkpt lat="43.70228" lon="3.84279">
        <ele>134.3</ele>
        <time>2024-04-19T08:13:17.360Z</time>
      </trkpt>
      <trkpt lat="43.70222" lon="3.84302">
        <ele>134.1</ele>
        <time>2024-04-19T08:13:23.533Z</time>
      </trkpt>
      <trkpt lat="43.70218" lon="3.84354">
        <ele>135.6</ele>
        <time>2024-04-19T08:13:39.023Z</time>
      </trkpt>
      <trkpt lat="43.70213" lon="3.84369">
        <ele>136.2</ele>
        <time>2024-04-19T08:13:44.087Z</time>
      </trkpt>
      <trkpt lat="43.7021" lon="3.84412">
        <ele>138.4</ele>
        <time>2024-04-19T08:13:58.250Z</time>
      </trkpt>
      <trkpt lat="43.70212" lon="3.84428">
        <ele>138.6</ele>
        <time>2024-04-19T08:14:02.725Z</time>
      </trkpt>
      <trkpt lat="43.70235" lon="3.84437">
        <ele>140.4</ele>
        <time>2024-04-19T08:14:13.743Z</time>
      </trkpt>
      <trkpt lat="43.70245" lon="3.84438">
        <ele>141.5</ele>
        <time>2024-04-19T08:14:18.949Z</time>
      </trkpt>
      <trkpt lat="43.70255" lon="3.84444">
        <ele>142.2</ele>
        <time>2024-04-19T08:14:23.790Z</time>
      </trkpt>
      <trkpt lat="43.70266" lon="3.84452">
        <ele>142.3</ele>
        <time>2024-04-19T08:14:28.396Z</time>
      </trkpt>
      <trkpt lat="43.70277" lon="3.84464">
        <ele>142.3</ele>
        <time>2024-04-19T08:14:33.460Z</time>
      </trkpt>
      <trkpt lat="43.70283" lon="3.84467">
        <ele>141.4</ele>
        <time>2024-04-19T08:14:35.478Z</time>
      </trkpt>
      <trkpt lat="43.70284" lon="3.84476">
        <ele>140.8</ele>
        <time>2024-04-19T08:14:37.561Z</time>
      </trkpt>
      <trkpt lat="43.70286" lon="3.84499">
        <ele>139.9</ele>
        <time>2024-04-19T08:14:42.858Z</time>
      </trkpt>
      <trkpt lat="43.70282" lon="3.84564">
        <ele>141.4</ele>
        <time>2024-04-19T08:15:01.698Z</time>
      </trkpt>
      <trkpt lat="43.70276" lon="3.84589">
        <ele>140.2</ele>
        <time>2024-04-19T08:15:07.722Z</time>
      </trkpt>
      <trkpt lat="43.70274" lon="3.84595">
        <ele>139.5</ele>
        <time>2024-04-19T08:15:09.233Z</time>
      </trkpt>
      <trkpt lat="43.70268" lon="3.84609">
        <ele>138.3</ele>
        <time>2024-04-19T08:15:12.955Z</time>
      </trkpt>
      <trkpt lat="43.7026" lon="3.84619">
        <ele>137.7</ele>
        <time>2024-04-19T08:15:16.365Z</time>
      </trkpt>
      <trkpt lat="43.7025" lon="3.84629">
        <ele>138.7</ele>
        <time>2024-04-19T08:15:22.165Z</time>
      </trkpt>
      <trkpt lat="43.70246" lon="3.84635">
        <ele>138.4</ele>
        <time>2024-04-19T08:15:24.032Z</time>
      </trkpt>
      <trkpt lat="43.70239" lon="3.84648">
        <ele>137.4</ele>
        <time>2024-04-19T08:15:27.739Z</time>
      </trkpt>
      <trkpt lat="43.70237" lon="3.84655">
        <ele>136.9</ele>
        <time>2024-04-19T08:15:29.460Z</time>
      </trkpt>
      <trkpt lat="43.70228" lon="3.84673">
        <ele>136.7</ele>
        <time>2024-04-19T08:15:34.963Z</time>
      </trkpt>
      <trkpt lat="43.70224" lon="3.84678">
        <ele>136.9</ele>
        <time>2024-04-19T08:15:37.154Z</time>
      </trkpt>
      <trkpt lat="43.70219" lon="3.84683">
        <ele>136.7</ele>
        <time>2024-04-19T08:15:39.176Z</time>
      </trkpt>
      <trkpt lat="43.70173" lon="3.8473">
        <ele>135.2</ele>
        <time>2024-04-19T08:15:58.272Z</time>
      </trkpt>
      <trkpt lat="43.70166" lon="3.84739">
        <ele>134.8</ele>
        <time>2024-04-19T08:16:01.319Z</time>
      </trkpt>
      <trkpt lat="43.70152" lon="3.84765">
        <ele>134</ele>
        <time>2024-04-19T08:16:08.964Z</time>
      </trkpt>
      <trkpt lat="43.70149" lon="3.84773">
        <ele>134.3</ele>
        <time>2024-04-19T08:16:11.689Z</time>
      </trkpt>
      <trkpt lat="43.70138" lon="3.84828">
        <ele>132.5</ele>
        <time>2024-04-19T08:16:24.775Z</time>
      </trkpt>
      <trkpt lat="43.70135" lon="3.84851">
        <ele>131.4</ele>
        <time>2024-04-19T08:16:30.120Z</time>
      </trkpt>
      <trkpt lat="43.70135" lon="3.84859">
        <ele>131</ele>
        <time>2024-04-19T08:16:31.949Z</time>
      </trkpt>
      <trkpt lat="43.70138" lon="3.84875">
        <ele>130.7</ele>
        <time>2024-04-19T08:16:35.953Z</time>
      </trkpt>
      <trkpt lat="43.70141" lon="3.84883">
        <ele>130.2</ele>
        <time>2024-04-19T08:16:38.014Z</time>
      </trkpt>
      <trkpt lat="43.7015" lon="3.84899">
        <ele>129</ele>
        <time>2024-04-19T08:16:42.650Z</time>
      </trkpt>
      <trkpt lat="43.70159" lon="3.84915">
        <ele>126.1</ele>
        <time>2024-04-19T08:16:47.286Z</time>
      </trkpt>
      <trkpt lat="43.70165" lon="3.84921">
        <ele>123</ele>
        <time>2024-04-19T08:16:49.628Z</time>
      </trkpt>
      <trkpt lat="43.70171" lon="3.84928">
        <ele>121.2</ele>
        <time>2024-04-19T08:16:52.111Z</time>
      </trkpt>
      <trkpt lat="43.70175" lon="3.84935">
        <ele>120.2</ele>
        <time>2024-04-19T08:16:54.151Z</time>
      </trkpt>
      <trkpt lat="43.70178" lon="3.84943">
        <ele>119.3</ele>
        <time>2024-04-19T08:16:56.212Z</time>
      </trkpt>
      <trkpt lat="43.7018" lon="3.84952">
        <ele>118.3</ele>
        <time>2024-04-19T08:16:58.365Z</time>
      </trkpt>
      <trkpt lat="43.70181" lon="3.84973">
        <ele>116.8</ele>
        <time>2024-04-19T08:17:03.178Z</time>
      </trkpt>
      <trkpt lat="43.70188" lon="3.85003">
        <ele>111.9</ele>
        <time>2024-04-19T08:17:10.387Z</time>
      </trkpt>
      <trkpt lat="43.70188" lon="3.85011">
        <ele>110.6</ele>
        <time>2024-04-19T08:17:12.217Z</time>
      </trkpt>
      <trkpt lat="43.70181" lon="3.85024">
        <ele>109.6</ele>
        <time>2024-04-19T08:17:15.923Z</time>
      </trkpt>
      <trkpt lat="43.70172" lon="3.85031">
        <ele>109.9</ele>
        <time>2024-04-19T08:17:20.012Z</time>
      </trkpt>
      <trkpt lat="43.70162" lon="3.85039">
        <ele>110.5</ele>
        <time>2024-04-19T08:17:24.938Z</time>
      </trkpt>
      <trkpt lat="43.70152" lon="3.85051">
        <ele>109.9</ele>
        <time>2024-04-19T08:17:29.126Z</time>
      </trkpt>
      <trkpt lat="43.70144" lon="3.85067">
        <ele>108.7</ele>
        <time>2024-04-19T08:17:33.575Z</time>
      </trkpt>
      <trkpt lat="43.70139" lon="3.85084">
        <ele>107.9</ele>
        <time>2024-04-19T08:17:37.772Z</time>
      </trkpt>
      <trkpt lat="43.70135" lon="3.85104">
        <ele>106.2</ele>
        <time>2024-04-19T08:17:42.517Z</time>
      </trkpt>
      <trkpt lat="43.70132" lon="3.85114">
        <ele>105.3</ele>
        <time>2024-04-19T08:17:44.993Z</time>
      </trkpt>
      <trkpt lat="43.70127" lon="3.85122">
        <ele>104.5</ele>
        <time>2024-04-19T08:17:47.412Z</time>
      </trkpt>
      <trkpt lat="43.70106" lon="3.85155">
        <ele>100</ele>
        <time>2024-04-19T08:17:57.465Z</time>
      </trkpt>
      <trkpt lat="43.70094" lon="3.85172">
        <ele>97.7</ele>
        <time>2024-04-19T08:18:02.899Z</time>
      </trkpt>
      <trkpt lat="43.70065" lon="3.85198">
        <ele>94.4</ele>
        <time>2024-04-19T08:18:13.831Z</time>
      </trkpt>
      <trkpt lat="43.70049" lon="3.85208">
        <ele>92.9</ele>
        <time>2024-04-19T08:18:19.384Z</time>
      </trkpt>
      <trkpt lat="43.70031" lon="3.85216">
        <ele>91.7</ele>
        <time>2024-04-19T08:18:25.365Z</time>
      </trkpt>
      <trkpt lat="43.70013" lon="3.85227">
        <ele>90.6</ele>
        <time>2024-04-19T08:18:31.590Z</time>
      </trkpt>
      <trkpt lat="43.69997" lon="3.8524">
        <ele>89.3</ele>
        <time>2024-04-19T08:18:37.459Z</time>
      </trkpt>
      <trkpt lat="43.69989" lon="3.85244">
        <ele>89</ele>
        <time>2024-04-19T08:18:40.225Z</time>
      </trkpt>
      <trkpt lat="43.69974" lon="3.8525">
        <ele>88.9</ele>
        <time>2024-04-19T08:18:45.760Z</time>
      </trkpt>
      <trkpt lat="43.69952" lon="3.85255">
        <ele>88.6</ele>
        <time>2024-04-19T08:18:53.495Z</time>
      </trkpt>
      <trkpt lat="43.69932" lon="3.85262">
        <ele>87</ele>
        <time>2024-04-19T08:19:00.021Z</time>
      </trkpt>
      <trkpt lat="43.69927" lon="3.85268">
        <ele>85.5</ele>
        <time>2024-04-19T08:19:02.115Z</time>
      </trkpt>
      <trkpt lat="43.69918" lon="3.8528">
        <ele>82.6</ele>
        <time>2024-04-19T08:19:06.069Z</time>
      </trkpt>
      <trkpt lat="43.6991" lon="3.85287">
        <ele>80.8</ele>
        <time>2024-04-19T08:19:09.064Z</time>
      </trkpt>
      <trkpt lat="43.69885" lon="3.85287">
        <ele>78.8</ele>
        <time>2024-04-19T08:19:16.972Z</time>
      </trkpt>
      <trkpt lat="43.69875" lon="3.85289">
        <ele>77.7</ele>
        <time>2024-04-19T08:19:20.168Z</time>
      </trkpt>
      <trkpt lat="43.6988" lon="3.85294">
        <ele>76.8</ele>
        <time>2024-04-19T08:19:22.120Z</time>
      </trkpt>
      <trkpt lat="43.69889" lon="3.85303">
        <ele>75.6</ele>
        <time>2024-04-19T08:19:25.633Z</time>
      </trkpt>
      <trkpt lat="43.69916" lon="3.85324">
        <ele>74.6</ele>
        <time>2024-04-19T08:19:35.791Z</time>
      </trkpt>
      <trkpt lat="43.69922" lon="3.85328">
        <ele>74</ele>
        <time>2024-04-19T08:19:37.898Z</time>
      </trkpt>
      <trkpt lat="43.69943" lon="3.85341">
        <ele>71.6</ele>
        <time>2024-04-19T08:19:45.176Z</time>
      </trkpt>
      <trkpt lat="43.69951" lon="3.85343">
        <ele>70.9</ele>
        <time>2024-04-19T08:19:47.747Z</time>
      </trkpt>
      <trkpt lat="43.69981" lon="3.85343">
        <ele>69.4</ele>
        <time>2024-04-19T08:19:57.237Z</time>
      </trkpt>
      <trkpt lat="43.70001" lon="3.85343">
        <ele>68.2</ele>
        <time>2024-04-19T08:20:03.564Z</time>
      </trkpt>
      <trkpt lat="43.70014" lon="3.8534">
        <ele>67.9</ele>
        <time>2024-04-19T08:20:08.010Z</time>
      </trkpt>
      <trkpt lat="43.70032" lon="3.85334">
        <ele>67.9</ele>
        <time>2024-04-19T08:20:14.704Z</time>
      </trkpt>
      <trkpt lat="43.70038" lon="3.85333">
        <ele>68.1</ele>
        <time>2024-04-19T08:20:17.128Z</time>
      </trkpt>
      <trkpt lat="43.7009" lon="3.85343">
        <ele>65.3</ele>
        <time>2024-04-19T08:20:33.735Z</time>
      </trkpt>
      <trkpt lat="43.70096" lon="3.85347">
        <ele>65</ele>
        <time>2024-04-19T08:20:35.842Z</time>
      </trkpt>
      <trkpt lat="43.70105" lon="3.85351">
        <ele>64.7</ele>
        <time>2024-04-19T08:20:38.947Z</time>
      </trkpt>
      <trkpt lat="43.70113" lon="3.85352">
        <ele>64.7</ele>
        <time>2024-04-19T08:20:41.851Z</time>
      </trkpt>
      <trkpt lat="43.70119" lon="3.85352">
        <ele>64.7</ele>
        <time>2024-04-19T08:20:44.020Z</time>
      </trkpt>
      <trkpt lat="43.70126" lon="3.85353">
        <ele>64.6</ele>
        <time>2024-04-19T08:20:46.456Z</time>
      </trkpt>
      <trkpt lat="43.70149" lon="3.85359">
        <ele>64.5</ele>
        <time>2024-04-19T08:20:54.807Z</time>
      </trkpt>
      <trkpt lat="43.70162" lon="3.85368">
        <ele>64.6</ele>
        <time>2024-04-19T08:21:00.175Z</time>
      </trkpt>
      <trkpt lat="43.70164" lon="3.85382">
        <ele>64.2</ele>
        <time>2024-04-19T08:21:03.495Z</time>
      </trkpt>
      <trkpt lat="43.70173" lon="3.85404">
        <ele>63</ele>
        <time>2024-04-19T08:21:09.275Z</time>
      </trkpt>
      <trkpt lat="43.70183" lon="3.8542">
        <ele>62.5</ele>
        <time>2024-04-19T08:21:14.284Z</time>
      </trkpt>
      <trkpt lat="43.70188" lon="3.85433">
        <ele>62.6</ele>
        <time>2024-04-19T08:21:18.246Z</time>
      </trkpt>
      <trkpt lat="43.70189" lon="3.85441">
        <ele>62.6</ele>
        <time>2024-04-19T08:21:20.368Z</time>
      </trkpt>
      <trkpt lat="43.70187" lon="3.85464">
        <ele>61.9</ele>
        <time>2024-04-19T08:21:25.709Z</time>
      </trkpt>
      <trkpt lat="43.70183" lon="3.85478">
        <ele>61.5</ele>
        <time>2024-04-19T08:21:29.231Z</time>
      </trkpt>
      <trkpt lat="43.70165" lon="3.85571">
        <ele>60.9</ele>
        <time>2024-04-19T08:21:53.737Z</time>
      </trkpt>
      <trkpt lat="43.70163" lon="3.85586">
        <ele>60.8</ele>
        <time>2024-04-19T08:21:57.615Z</time>
      </trkpt>
      <trkpt lat="43.70163" lon="3.85607">
        <ele>60</ele>
        <time>2024-04-19T08:22:02.417Z</time>
      </trkpt>
      <trkpt lat="43.70162" lon="3.85621">
        <ele>60.2</ele>
        <time>2024-04-19T08:22:06.326Z</time>
      </trkpt>
      <trkpt lat="43.70155" lon="3.85643">
        <ele>60.5</ele>
        <time>2024-04-19T08:22:12.955Z</time>
      </trkpt>
      <trkpt lat="43.70152" lon="3.85658">
        <ele>60.1</ele>
        <time>2024-04-19T08:22:16.609Z</time>
      </trkpt>
      <trkpt lat="43.70155" lon="3.85676">
        <ele>59.4</ele>
        <time>2024-04-19T08:22:20.834Z</time>
      </trkpt>
      <trkpt lat="43.70153" lon="3.85693">
        <ele>58.1</ele>
        <time>2024-04-19T08:22:24.772Z</time>
      </trkpt>
      <trkpt lat="43.70146" lon="3.85737">
        <ele>58.3</ele>
        <time>2024-04-19T08:22:36.773Z</time>
      </trkpt>
      <trkpt lat="43.70138" lon="3.85761">
        <ele>61</ele>
        <time>2024-04-19T08:22:47.887Z</time>
      </trkpt>
      <trkpt lat="43.70125" lon="3.85833">
        <ele>60.5</ele>
        <time>2024-04-19T08:23:06.737Z</time>
      </trkpt>
      <trkpt lat="43.70121" lon="3.85848">
        <ele>60.4</ele>
        <time>2024-04-19T08:23:10.807Z</time>
      </trkpt>
      <trkpt lat="43.70115" lon="3.85845">
        <ele>60.1</ele>
        <time>2024-04-19T08:23:12.825Z</time>
      </trkpt>
      <trkpt lat="43.70104" lon="3.85828">
        <ele>60</ele>
        <time>2024-04-19T08:23:18.678Z</time>
      </trkpt>
      <trkpt lat="43.70098" lon="3.85824">
        <ele>60</ele>
        <time>2024-04-19T08:23:21.085Z</time>
      </trkpt>
      <trkpt lat="43.7005" lon="3.8581">
        <ele>60</ele>
        <time>2024-04-19T08:23:38.820Z</time>
      </trkpt>
      <trkpt lat="43.70037" lon="3.858">
        <ele>59.9</ele>
        <time>2024-04-19T08:23:44.087Z</time>
      </trkpt>
      <trkpt lat="43.70027" lon="3.85779">
        <ele>59</ele>
        <time>2024-04-19T08:23:49.838Z</time>
      </trkpt>
      <trkpt lat="43.70005" lon="3.85749">
        <ele>59</ele>
        <time>2024-04-19T08:24:01.006Z</time>
      </trkpt>
      <trkpt lat="43.69991" lon="3.85724">
        <ele>59</ele>
        <time>2024-04-19T08:24:09.271Z</time>
      </trkpt>
      <trkpt lat="43.69987" lon="3.85718">
        <ele>59</ele>
        <time>2024-04-19T08:24:11.404Z</time>
      </trkpt>
      <trkpt lat="43.69982" lon="3.85728">
        <ele>59</ele>
        <time>2024-04-19T08:24:14.582Z</time>
      </trkpt>
      <trkpt lat="43.69977" lon="3.85752">
        <ele>59</ele>
        <time>2024-04-19T08:24:21.110Z</time>
      </trkpt>
      <trkpt lat="43.69963" lon="3.85843">
        <ele>60</ele>
        <time>2024-04-19T08:24:46.576Z</time>
      </trkpt>
      <trkpt lat="43.69956" lon="3.85902">
        <ele>60.3</ele>
        <time>2024-04-19T08:25:02.542Z</time>
      </trkpt>
      <trkpt lat="43.69954" lon="3.85925">
        <ele>60.8</ele>
        <time>2024-04-19T08:25:09.190Z</time>
      </trkpt>
      <trkpt lat="43.69949" lon="3.85932">
        <ele>60.9</ele>
        <time>2024-04-19T08:25:11.877Z</time>
      </trkpt>
      <trkpt lat="43.69925" lon="3.85928">
        <ele>61</ele>
        <time>2024-04-19T08:25:20.728Z</time>
      </trkpt>
      <trkpt lat="43.69917" lon="3.85927">
        <ele>61</ele>
        <time>2024-04-19T08:25:23.632Z</time>
      </trkpt>
      <trkpt lat="43.69909" lon="3.85922">
        <ele>60.8</ele>
        <time>2024-04-19T08:25:26.594Z</time>
      </trkpt>
      <trkpt lat="43.69907" lon="3.85907">
        <ele>60.7</ele>
        <time>2024-04-19T08:25:30.471Z</time>
      </trkpt>
      <trkpt lat="43.69914" lon="3.85793">
        <ele>60</ele>
        <time>2024-04-19T08:25:59.609Z</time>
      </trkpt>
      <trkpt lat="43.69921" lon="3.85757">
        <ele>59.8</ele>
        <time>2024-04-19T08:26:09.134Z</time>
      </trkpt>
      <trkpt lat="43.69928" lon="3.85731">
        <ele>59.2</ele>
        <time>2024-04-19T08:26:15.758Z</time>
      </trkpt>
      <trkpt lat="43.69933" lon="3.85719">
        <ele>59</ele>
        <time>2024-04-19T08:26:19.165Z</time>
      </trkpt>
      <trkpt lat="43.69937" lon="3.85664">
        <ele>58.3</ele>
        <time>2024-04-19T08:26:32.862Z</time>
      </trkpt>
      <trkpt lat="43.69941" lon="3.85643">
        <ele>58.1</ele>
        <time>2024-04-19T08:26:38.321Z</time>
      </trkpt>
      <trkpt lat="43.69941" lon="3.85629">
        <ele>58</ele>
        <time>2024-04-19T08:26:41.871Z</time>
      </trkpt>
      <trkpt lat="43.69926" lon="3.85623">
        <ele>57.9</ele>
        <time>2024-04-19T08:26:47.407Z</time>
      </trkpt>
      <trkpt lat="43.69918" lon="3.85623">
        <ele>57.9</ele>
        <time>2024-04-19T08:26:50.299Z</time>
      </trkpt>
      <trkpt lat="43.69893" lon="3.85617">
        <ele>58.1</ele>
        <time>2024-04-19T08:26:59.698Z</time>
      </trkpt>
      <trkpt lat="43.69881" lon="3.85621">
        <ele>58.4</ele>
        <time>2024-04-19T08:27:04.512Z</time>
      </trkpt>
      <trkpt lat="43.69861" lon="3.85621">
        <ele>58.4</ele>
        <time>2024-04-19T08:27:11.743Z</time>
      </trkpt>
      <trkpt lat="43.69845" lon="3.85623">
        <ele>58.4</ele>
        <time>2024-04-19T08:27:17.550Z</time>
      </trkpt>
      <trkpt lat="43.69834" lon="3.85621">
        <ele>58.4</ele>
        <time>2024-04-19T08:27:21.561Z</time>
      </trkpt>
      <trkpt lat="43.69698" lon="3.85553">
        <ele>58.1</ele>
        <time>2024-04-19T08:28:13.508Z</time>
      </trkpt>
      <trkpt lat="43.69688" lon="3.85536">
        <ele>56.8</ele>
        <time>2024-04-19T08:28:18.520Z</time>
      </trkpt>
      <trkpt lat="43.6968" lon="3.85522">
        <ele>56.7</ele>
        <time>2024-04-19T08:28:23.075Z</time>
      </trkpt>
      <trkpt lat="43.69668" lon="3.8549">
        <ele>56.7</ele>
        <time>2024-04-19T08:28:32.497Z</time>
      </trkpt>
      <trkpt lat="43.69663" lon="3.85481">
        <ele>56.3</ele>
        <time>2024-04-19T08:28:35.093Z</time>
      </trkpt>
      <trkpt lat="43.69658" lon="3.85479">
        <ele>56.5</ele>
        <time>2024-04-19T08:28:37.217Z</time>
      </trkpt>
      <trkpt lat="43.69655" lon="3.85497">
        <ele>58.2</ele>
        <time>2024-04-19T08:28:44.600Z</time>
      </trkpt>
      <trkpt lat="43.6965" lon="3.85516">
        <ele>58.8</ele>
        <time>2024-04-19T08:28:50.616Z</time>
      </trkpt>
      <trkpt lat="43.69647" lon="3.85536">
        <ele>59</ele>
        <time>2024-04-19T08:28:56.184Z</time>
      </trkpt>
      <trkpt lat="43.69643" lon="3.85588">
        <ele>58.9</ele>
        <time>2024-04-19T08:29:09.742Z</time>
      </trkpt>
      <trkpt lat="43.69643" lon="3.85609">
        <ele>58.2</ele>
        <time>2024-04-19T08:29:14.544Z</time>
      </trkpt>
      <trkpt lat="43.69636" lon="3.85617">
        <ele>58.1</ele>
        <time>2024-04-19T08:29:17.718Z</time>
      </trkpt>
      <trkpt lat="43.69585" lon="3.85618">
        <ele>58.8</ele>
        <time>2024-04-19T08:29:36.960Z</time>
      </trkpt>
      <trkpt lat="43.69405" lon="3.85658">
        <ele>58</ele>
        <time>2024-04-19T08:30:41.985Z</time>
      </trkpt>
      <trkpt lat="43.69349" lon="3.85687">
        <ele>57.6</ele>
        <time>2024-04-19T08:31:03.163Z</time>
      </trkpt>
      <trkpt lat="43.69349" lon="3.85699">
        <ele>57.4</ele>
        <time>2024-04-19T08:31:06.088Z</time>
      </trkpt>
      <trkpt lat="43.69351" lon="3.85717">
        <ele>57.1</ele>
        <time>2024-04-19T08:31:10.530Z</time>
      </trkpt>
      <trkpt lat="43.69361" lon="3.85752">
        <ele>58</ele>
        <time>2024-04-19T08:31:21.444Z</time>
      </trkpt>
      <trkpt lat="43.6933" lon="3.85781">
        <ele>57.9</ele>
        <time>2024-04-19T08:31:34.864Z</time>
      </trkpt>
      <trkpt lat="43.69323" lon="3.85802">
        <ele>58</ele>
        <time>2024-04-19T08:31:41.021Z</time>
      </trkpt>
      <trkpt lat="43.69312" lon="3.85869">
        <ele>58</ele>
        <time>2024-04-19T08:31:58.980Z</time>
      </trkpt>
      <trkpt lat="43.69302" lon="3.85873">
        <ele>58</ele>
        <time>2024-04-19T08:32:02.743Z</time>
      </trkpt>
      <trkpt lat="43.69245" lon="3.85879">
        <ele>58</ele>
        <time>2024-04-19T08:32:23.409Z</time>
      </trkpt>
      <trkpt lat="43.69205" lon="3.85889">
        <ele>58</ele>
        <time>2024-04-19T08:32:38.103Z</time>
      </trkpt>
      <trkpt lat="43.69193" lon="3.85896">
        <ele>57.9</ele>
        <time>2024-04-19T08:32:42.702Z</time>
      </trkpt>
      <trkpt lat="43.69175" lon="3.85918">
        <ele>57.3</ele>
        <time>2024-04-19T08:32:50.753Z</time>
      </trkpt>
      <trkpt lat="43.69169" lon="3.85927">
        <ele>57.4</ele>
        <time>2024-04-19T08:32:54.067Z</time>
      </trkpt>
      <trkpt lat="43.69153" lon="3.85944">
        <ele>57.5</ele>
        <time>2024-04-19T08:33:01.474Z</time>
      </trkpt>
      <trkpt lat="43.6915" lon="3.85954">
        <ele>57.4</ele>
        <time>2024-04-19T08:33:04.195Z</time>
      </trkpt>
      <trkpt lat="43.69147" lon="3.85965">
        <ele>57.3</ele>
        <time>2024-04-19T08:33:07.160Z</time>
      </trkpt>
      <trkpt lat="43.69144" lon="3.85976">
        <ele>57.3</ele>
        <time>2024-04-19T08:33:10.233Z</time>
      </trkpt>
      <trkpt lat="43.69135" lon="3.85992">
        <ele>57.6</ele>
        <time>2024-04-19T08:33:15.881Z</time>
      </trkpt>
      <trkpt lat="43.69125" lon="3.86008">
        <ele>57.6</ele>
        <time>2024-04-19T08:33:21.409Z</time>
      </trkpt>
      <trkpt lat="43.69118" lon="3.86015">
        <ele>57.7</ele>
        <time>2024-04-19T08:33:24.646Z</time>
      </trkpt>
      <trkpt lat="43.69081" lon="3.86069">
        <ele>58</ele>
        <time>2024-04-19T08:33:44.431Z</time>
      </trkpt>
      <trkpt lat="43.69076" lon="3.86079">
        <ele>58</ele>
        <time>2024-04-19T08:33:47.609Z</time>
      </trkpt>
      <trkpt lat="43.69074" lon="3.8609">
        <ele>58.2</ele>
        <time>2024-04-19T08:33:50.808Z</time>
      </trkpt>
      <trkpt lat="43.69072" lon="3.86137">
        <ele>59</ele>
        <time>2024-04-19T08:34:04.053Z</time>
      </trkpt>
      <trkpt lat="43.69065" lon="3.86191">
        <ele>59.9</ele>
        <time>2024-04-19T08:34:19.446Z</time>
      </trkpt>
      <trkpt lat="43.69065" lon="3.86211">
        <ele>60.2</ele>
        <time>2024-04-19T08:34:25.024Z</time>
      </trkpt>
      <trkpt lat="43.69073" lon="3.8622">
        <ele>60.6</ele>
        <time>2024-04-19T08:34:29.237Z</time>
      </trkpt>
      <trkpt lat="43.69081" lon="3.86222">
        <ele>60.9</ele>
        <time>2024-04-19T08:34:32.538Z</time>
      </trkpt>
      <trkpt lat="43.69089" lon="3.86233">
        <ele>61.6</ele>
        <time>2024-04-19T08:34:37.512Z</time>
      </trkpt>
      <trkpt lat="43.69091" lon="3.86246">
        <ele>62.1</ele>
        <time>2024-04-19T08:34:41.612Z</time>
      </trkpt>
      <trkpt lat="43.69092" lon="3.86253">
        <ele>62.4</ele>
        <time>2024-04-19T08:34:43.858Z</time>
      </trkpt>
      <trkpt lat="43.69089" lon="3.86262">
        <ele>62.6</ele>
        <time>2024-04-19T08:34:46.685Z</time>
      </trkpt>
      <trkpt lat="43.68992" lon="3.8626">
        <ele>62.4</ele>
        <time>2024-04-19T08:35:21.534Z</time>
      </trkpt>
      <trkpt lat="43.68646" lon="3.86369">
        <ele>57.5</ele>
        <time>2024-04-19T08:37:24.527Z</time>
      </trkpt>
      <trkpt lat="43.68605" lon="3.86377">
        <ele>57.2</ele>
        <time>2024-04-19T08:37:39.167Z</time>
      </trkpt>
      <trkpt lat="43.6857" lon="3.8638">
        <ele>56.5</ele>
        <time>2024-04-19T08:37:51.097Z</time>
      </trkpt>
      <trkpt lat="43.68535" lon="3.86376">
        <ele>57.4</ele>
        <time>2024-04-19T08:38:04.853Z</time>
      </trkpt>
      <trkpt lat="43.6842" lon="3.86341">
        <ele>58.6</ele>
        <time>2024-04-19T08:38:48.787Z</time>
      </trkpt>
      <trkpt lat="43.68407" lon="3.86334">
        <ele>58.1</ele>
        <time>2024-04-19T08:38:53.315Z</time>
      </trkpt>
      <trkpt lat="43.68401" lon="3.86324">
        <ele>57.5</ele>
        <time>2024-04-19T08:38:56.287Z</time>
      </trkpt>
      <trkpt lat="43.68391" lon="3.86306">
        <ele>56.9</ele>
        <time>2024-04-19T08:39:01.603Z</time>
      </trkpt>
      <trkpt lat="43.68382" lon="3.86299">
        <ele>56.5</ele>
        <time>2024-04-19T08:39:04.925Z</time>
      </trkpt>
      <trkpt lat="43.68367" lon="3.86306">
        <ele>57</ele>
        <time>2024-04-19T08:39:11.245Z</time>
      </trkpt>
      <trkpt lat="43.68361" lon="3.86318">
        <ele>57</ele>
        <time>2024-04-19T08:39:15.059Z</time>
      </trkpt>
      <trkpt lat="43.68362" lon="3.86344">
        <ele>57.8</ele>
        <time>2024-04-19T08:39:22.844Z</time>
      </trkpt>
      <trkpt lat="43.68356" lon="3.8637">
        <ele>59.5</ele>
        <time>2024-04-19T08:39:32.284Z</time>
      </trkpt>
      <trkpt lat="43.68306" lon="3.86433">
        <ele>57.7</ele>
        <time>2024-04-19T08:39:54.845Z</time>
      </trkpt>
      <trkpt lat="43.6821" lon="3.86515">
        <ele>56.4</ele>
        <time>2024-04-19T08:40:34.226Z</time>
      </trkpt>
      <trkpt lat="43.68178" lon="3.8653">
        <ele>55.5</ele>
        <time>2024-04-19T08:40:45.495Z</time>
      </trkpt>
      <trkpt lat="43.68135" lon="3.8654">
        <ele>54.9</ele>
        <time>2024-04-19T08:41:00.609Z</time>
      </trkpt>
      <trkpt lat="43.68099" lon="3.86553">
        <ele>54.9</ele>
        <time>2024-04-19T08:41:14.060Z</time>
      </trkpt>
      <trkpt lat="43.68044" lon="3.86584">
        <ele>55</ele>
        <time>2024-04-19T08:41:35.644Z</time>
      </trkpt>
      <trkpt lat="43.68037" lon="3.86586">
        <ele>55</ele>
        <time>2024-04-19T08:41:38.228Z</time>
      </trkpt>
      <trkpt lat="43.68032" lon="3.86591">
        <ele>55</ele>
        <time>2024-04-19T08:41:40.458Z</time>
      </trkpt>
      <trkpt lat="43.6803" lon="3.86599">
        <ele>55</ele>
        <time>2024-04-19T08:41:42.671Z</time>
      </trkpt>
      <trkpt lat="43.68036" lon="3.86618">
        <ele>55.2</ele>
        <time>2024-04-19T08:41:48.321Z</time>
      </trkpt>
      <trkpt lat="43.68043" lon="3.86649">
        <ele>56</ele>
        <time>2024-04-19T08:41:57.771Z</time>
      </trkpt>
      <trkpt lat="43.68036" lon="3.86669">
        <ele>56.2</ele>
        <time>2024-04-19T08:42:03.809Z</time>
      </trkpt>
      <trkpt lat="43.6802" lon="3.86687">
        <ele>57.3</ele>
        <time>2024-04-19T08:42:12.645Z</time>
      </trkpt>
      <trkpt lat="43.68013" lon="3.86705">
        <ele>58.4</ele>
        <time>2024-04-19T08:42:19.439Z</time>
      </trkpt>
      <trkpt lat="43.68031" lon="3.86724">
        <ele>61.1</ele>
        <time>2024-04-19T08:42:31.600Z</time>
      </trkpt>
      <trkpt lat="43.68036" lon="3.86729">
        <ele>61.6</ele>
        <time>2024-04-19T08:42:34.500Z</time>
      </trkpt>
      <trkpt lat="43.68041" lon="3.86739">
        <ele>62.5</ele>
        <time>2024-04-19T08:42:38.949Z</time>
      </trkpt>
      <trkpt lat="43.68042" lon="3.86753">
        <ele>63.8</ele>
        <time>2024-04-19T08:42:44.583Z</time>
      </trkpt>
      <trkpt lat="43.68035" lon="3.86764">
        <ele>64.8</ele>
        <time>2024-04-19T08:42:49.797Z</time>
      </trkpt>
      <trkpt lat="43.6803" lon="3.86778">
        <ele>66.1</ele>
        <time>2024-04-19T08:42:55.773Z</time>
      </trkpt>
      <trkpt lat="43.68026" lon="3.86786">
        <ele>67</ele>
        <time>2024-04-19T08:42:59.671Z</time>
      </trkpt>
      <trkpt lat="43.6802" lon="3.86797">
        <ele>68</ele>
        <time>2024-04-19T08:43:04.677Z</time>
      </trkpt>
      <trkpt lat="43.68017" lon="3.86805">
        <ele>68.8</ele>
        <time>2024-04-19T08:43:08.221Z</time>
      </trkpt>
      <trkpt lat="43.68014" lon="3.86814">
        <ele>70</ele>
        <time>2024-04-19T08:43:12.816Z</time>
      </trkpt>
      <trkpt lat="43.6801" lon="3.86824">
        <ele>71.2</ele>
        <time>2024-04-19T08:43:17.693Z</time>
      </trkpt>
      <trkpt lat="43.68006" lon="3.86828">
        <ele>71.2</ele>
        <time>2024-04-19T08:43:19.478Z</time>
      </trkpt>
      <trkpt lat="43.67995" lon="3.86835">
        <ele>70.3</ele>
        <time>2024-04-19T08:43:23.308Z</time>
      </trkpt>
      <trkpt lat="43.67982" lon="3.86846">
        <ele>69.3</ele>
        <time>2024-04-19T08:43:28.129Z</time>
      </trkpt>
      <trkpt lat="43.67967" lon="3.86864">
        <ele>68.9</ele>
        <time>2024-04-19T08:43:34.883Z</time>
      </trkpt>
      <trkpt lat="43.67948" lon="3.8689">
        <ele>69.8</ele>
        <time>2024-04-19T08:43:45.625Z</time>
      </trkpt>
      <trkpt lat="43.67936" lon="3.86897">
        <ele>69.5</ele>
        <time>2024-04-19T08:43:50.016Z</time>
      </trkpt>
      <trkpt lat="43.67916" lon="3.86911">
        <ele>69.4</ele>
        <time>2024-04-19T08:43:58.009Z</time>
      </trkpt>
      <trkpt lat="43.67907" lon="3.86922">
        <ele>70.5</ele>
        <time>2024-04-19T08:44:03.863Z</time>
      </trkpt>
      <trkpt lat="43.67904" lon="3.86929">
        <ele>71.5</ele>
        <time>2024-04-19T08:44:07.672Z</time>
      </trkpt>
      <trkpt lat="43.67898" lon="3.86934">
        <ele>72.2</ele>
        <time>2024-04-19T08:44:11.186Z</time>
      </trkpt>
      <trkpt lat="43.67892" lon="3.86938">
        <ele>72.9</ele>
        <time>2024-04-19T08:44:14.589Z</time>
      </trkpt>
      <trkpt lat="43.67882" lon="3.86946">
        <ele>75.2</ele>
        <time>2024-04-19T08:44:22.955Z</time>
      </trkpt>
      <trkpt lat="43.67873" lon="3.86943">
        <ele>76</ele>
        <time>2024-04-19T08:44:27.387Z</time>
      </trkpt>
      <trkpt lat="43.67873" lon="3.86954">
        <ele>77.5</ele>
        <time>2024-04-19T08:44:32.917Z</time>
      </trkpt>
      <trkpt lat="43.6788" lon="3.86965">
        <ele>78</ele>
        <time>2024-04-19T08:44:37.366Z</time>
      </trkpt>
      <trkpt lat="43.67883" lon="3.86973">
        <ele>78.7</ele>
        <time>2024-04-19T08:44:40.722Z</time>
      </trkpt>
      <trkpt lat="43.67879" lon="3.86994">
        <ele>79.3</ele>
        <time>2024-04-19T08:44:47.127Z</time>
      </trkpt>
      <trkpt lat="43.67875" lon="3.87001">
        <ele>79.4</ele>
        <time>2024-04-19T08:44:49.574Z</time>
      </trkpt>
      <trkpt lat="43.67869" lon="3.87007">
        <ele>79.3</ele>
        <time>2024-04-19T08:44:52.143Z</time>
      </trkpt>
      <trkpt lat="43.67855" lon="3.87022">
        <ele>78.9</ele>
        <time>2024-04-19T08:44:58.122Z</time>
      </trkpt>
      <trkpt lat="43.67843" lon="3.87031">
        <ele>79</ele>
        <time>2024-04-19T08:45:03.170Z</time>
      </trkpt>
      <trkpt lat="43.67827" lon="3.87042">
        <ele>78.5</ele>
        <time>2024-04-19T08:45:09.105Z</time>
      </trkpt>
      <trkpt lat="43.67819" lon="3.87049">
        <ele>77.7</ele>
        <time>2024-04-19T08:45:12.100Z</time>
      </trkpt>
      <trkpt lat="43.67806" lon="3.87064">
        <ele>76.4</ele>
        <time>2024-04-19T08:45:17.456Z</time>
      </trkpt>
      <trkpt lat="43.67801" lon="3.8707">
        <ele>75.7</ele>
        <time>2024-04-19T08:45:19.550Z</time>
      </trkpt>
      <trkpt lat="43.67787" lon="3.87092">
        <ele>73.9</ele>
        <time>2024-04-19T08:45:26.254Z</time>
      </trkpt>
      <trkpt lat="43.67781" lon="3.87098">
        <ele>73.5</ele>
        <time>2024-04-19T08:45:28.596Z</time>
      </trkpt>
      <trkpt lat="43.67772" lon="3.87111">
        <ele>71.1</ele>
        <time>2024-04-19T08:45:32.714Z</time>
      </trkpt>
      <trkpt lat="43.67762" lon="3.87134">
        <ele>67.2</ele>
        <time>2024-04-19T08:45:38.853Z</time>
      </trkpt>
      <trkpt lat="43.67764" lon="3.87142">
        <ele>67.4</ele>
        <time>2024-04-19T08:45:41.305Z</time>
      </trkpt>
      <trkpt lat="43.67769" lon="3.87165">
        <ele>67.2</ele>
        <time>2024-04-19T08:45:47.367Z</time>
      </trkpt>
      <trkpt lat="43.6777" lon="3.87184">
        <ele>66.2</ele>
        <time>2024-04-19T08:45:51.726Z</time>
      </trkpt>
      <trkpt lat="43.6777" lon="3.87194">
        <ele>65.6</ele>
        <time>2024-04-19T08:45:54.013Z</time>
      </trkpt>
      <trkpt lat="43.67765" lon="3.87218">
        <ele>64.6</ele>
        <time>2024-04-19T08:45:59.727Z</time>
      </trkpt>
      <trkpt lat="43.67761" lon="3.87228">
        <ele>63.9</ele>
        <time>2024-04-19T08:46:02.342Z</time>
      </trkpt>
      <trkpt lat="43.67754" lon="3.87231">
        <ele>63.3</ele>
        <time>2024-04-19T08:46:04.660Z</time>
      </trkpt>
      <trkpt lat="43.67744" lon="3.87234">
        <ele>62.4</ele>
        <time>2024-04-19T08:46:07.897Z</time>
      </trkpt>
      <trkpt lat="43.67741" lon="3.87244">
        <ele>61.4</ele>
        <time>2024-04-19T08:46:10.373Z</time>
      </trkpt>
      <trkpt lat="43.67738" lon="3.87269">
        <ele>61</ele>
        <time>2024-04-19T08:46:16.574Z</time>
      </trkpt>
      <trkpt lat="43.67735" lon="3.87282">
        <ele>61.2</ele>
        <time>2024-04-19T08:46:20.375Z</time>
      </trkpt>
      <trkpt lat="43.67734" lon="3.87293">
        <ele>61.5</ele>
        <time>2024-04-19T08:46:23.636Z</time>
      </trkpt>
      <trkpt lat="43.67734" lon="3.87302">
        <ele>61.9</ele>
        <time>2024-04-19T08:46:26.501Z</time>
      </trkpt>
      <trkpt lat="43.67735" lon="3.87321">
        <ele>62.6</ele>
        <time>2024-04-19T08:46:32.354Z</time>
      </trkpt>
      <trkpt lat="43.6773" lon="3.87346">
        <ele>63.7</ele>
        <time>2024-04-19T08:46:40.533Z</time>
      </trkpt>
      <trkpt lat="43.67718" lon="3.8737">
        <ele>65.6</ele>
        <time>2024-04-19T08:46:50.762Z</time>
      </trkpt>
      <trkpt lat="43.6771" lon="3.8739">
        <ele>67.4</ele>
        <time>2024-04-19T08:46:59.319Z</time>
      </trkpt>
      <trkpt lat="43.67707" lon="3.87396">
        <ele>67.9</ele>
        <time>2024-04-19T08:47:01.919Z</time>
      </trkpt>
      <trkpt lat="43.67698" lon="3.87414">
        <ele>69.5</ele>
        <time>2024-04-19T08:47:09.891Z</time>
      </trkpt>
      <trkpt lat="43.67693" lon="3.87421">
        <ele>70.4</ele>
        <time>2024-04-19T08:47:13.813Z</time>
      </trkpt>
      <trkpt lat="43.6769" lon="3.87429">
        <ele>71.1</ele>
        <time>2024-04-19T08:47:17.169Z</time>
      </trkpt>
      <trkpt lat="43.67686" lon="3.87453">
        <ele>72.4</ele>
        <time>2024-04-19T08:47:25.316Z</time>
      </trkpt>
      <trkpt lat="43.67685" lon="3.87462">
        <ele>72.8</ele>
        <time>2024-04-19T08:47:28.208Z</time>
      </trkpt>
      <trkpt lat="43.67683" lon="3.87474">
        <ele>73.3</ele>
        <time>2024-04-19T08:47:32.059Z</time>
      </trkpt>
      <trkpt lat="43.6768" lon="3.87483">
        <ele>73.8</ele>
        <time>2024-04-19T08:47:35.301Z</time>
      </trkpt>
      <trkpt lat="43.67661" lon="3.87513">
        <ele>76.7</ele>
        <time>2024-04-19T08:47:49.801Z</time>
      </trkpt>
      <trkpt lat="43.67657" lon="3.87521">
        <ele>77.3</ele>
        <time>2024-04-19T08:47:53.156Z</time>
      </trkpt>
      <trkpt lat="43.67644" lon="3.87555">
        <ele>79.1</ele>
        <time>2024-04-19T08:48:05.530Z</time>
      </trkpt>
      <trkpt lat="43.67637" lon="3.8757">
        <ele>80.2</ele>
        <time>2024-04-19T08:48:11.685Z</time>
      </trkpt>
      <trkpt lat="43.67616" lon="3.87595">
        <ele>82.4</ele>
        <time>2024-04-19T08:48:24.638Z</time>
      </trkpt>
      <trkpt lat="43.6761" lon="3.876">
        <ele>83.1</ele>
        <time>2024-04-19T08:48:28.152Z</time>
      </trkpt>
      <trkpt lat="43.67603" lon="3.87603">
        <ele>83.7</ele>
        <time>2024-04-19T08:48:31.607Z</time>
      </trkpt>
      <trkpt lat="43.67598" lon="3.87612">
        <ele>83.9</ele>
        <time>2024-04-19T08:48:34.809Z</time>
      </trkpt>
      <trkpt lat="43.67587" lon="3.87624">
        <ele>84.6</ele>
        <time>2024-04-19T08:48:40.745Z</time>
      </trkpt>
      <trkpt lat="43.67568" lon="3.87643">
        <ele>86.7</ele>
        <time>2024-04-19T08:48:52.093Z</time>
      </trkpt>
      <trkpt lat="43.67561" lon="3.87652">
        <ele>87.4</ele>
        <time>2024-04-19T08:48:56.469Z</time>
      </trkpt>
      <trkpt lat="43.67556" lon="3.87656">
        <ele>88</ele>
        <time>2024-04-19T08:48:59.407Z</time>
      </trkpt>
      <trkpt lat="43.67549" lon="3.87648">
        <ele>88.5</ele>
        <time>2024-04-19T08:49:03.320Z</time>
      </trkpt>
      <trkpt lat="43.67539" lon="3.87646">
        <ele>89.2</ele>
        <time>2024-04-19T08:49:07.884Z</time>
      </trkpt>
      <trkpt lat="43.67532" lon="3.87647">
        <ele>89.7</ele>
        <time>2024-04-19T08:49:11.082Z</time>
      </trkpt>
      <trkpt lat="43.67527" lon="3.87658">
        <ele>90</ele>
        <time>2024-04-19T08:49:14.837Z</time>
      </trkpt>
      <trkpt lat="43.67521" lon="3.87668">
        <ele>90</ele>
        <time>2024-04-19T08:49:18.234Z</time>
      </trkpt>
      <trkpt lat="43.67511" lon="3.8768">
        <ele>90.5</ele>
        <time>2024-04-19T08:49:23.626Z</time>
      </trkpt>
      <trkpt lat="43.67499" lon="3.87708">
        <ele>91.9</ele>
        <time>2024-04-19T08:49:33.917Z</time>
      </trkpt>
      <trkpt lat="43.67495" lon="3.87723">
        <ele>92.7</ele>
        <time>2024-04-19T08:49:39.139Z</time>
      </trkpt>
      <trkpt lat="43.67487" lon="3.87725">
        <ele>92.2</ele>
        <time>2024-04-19T08:49:41.710Z</time>
      </trkpt>
      <trkpt lat="43.67481" lon="3.87736">
        <ele>92.1</ele>
        <time>2024-04-19T08:49:45.204Z</time>
      </trkpt>
      <trkpt lat="43.67478" lon="3.87762">
        <ele>92.5</ele>
        <time>2024-04-19T08:49:52.554Z</time>
      </trkpt>
      <trkpt lat="43.6747" lon="3.87788">
        <ele>91.4</ele>
        <time>2024-04-19T08:49:59.019Z</time>
      </trkpt>
      <trkpt lat="43.67457" lon="3.87797">
        <ele>87.4</ele>
        <time>2024-04-19T08:50:03.617Z</time>
      </trkpt>
      <trkpt lat="43.67452" lon="3.87801">
        <ele>85.7</ele>
        <time>2024-04-19T08:50:05.445Z</time>
      </trkpt>
      <trkpt lat="43.67452" lon="3.87815">
        <ele>84.9</ele>
        <time>2024-04-19T08:50:08.648Z</time>
      </trkpt>
      <trkpt lat="43.67456" lon="3.87836">
        <ele>85.2</ele>
        <time>2024-04-19T08:50:14.674Z</time>
      </trkpt>
      <trkpt lat="43.67454" lon="3.87871">
        <ele>84.7</ele>
        <time>2024-04-19T08:50:23.320Z</time>
      </trkpt>
      <trkpt lat="43.67444" lon="3.87875">
        <ele>81.6</ele>
        <time>2024-04-19T08:50:26.613Z</time>
      </trkpt>
      <trkpt lat="43.67434" lon="3.87869">
        <ele>83.8</ele>
        <time>2024-04-19T08:50:34.592Z</time>
      </trkpt>
      <trkpt lat="43.6743" lon="3.87862">
        <ele>84.2</ele>
        <time>2024-04-19T08:50:37.437Z</time>
      </trkpt>
      <trkpt lat="43.67424" lon="3.8785">
        <ele>84.2</ele>
        <time>2024-04-19T08:50:41.251Z</time>
      </trkpt>
      <trkpt lat="43.67417" lon="3.87847">
        <ele>84.9</ele>
        <time>2024-04-19T08:50:44.872Z</time>
      </trkpt>
      <trkpt lat="43.67412" lon="3.87848">
        <ele>85.8</ele>
        <time>2024-04-19T08:50:48.246Z</time>
      </trkpt>
      <trkpt lat="43.67376" lon="3.8789">
        <ele>93.5</ele>
        <time>2024-04-19T08:51:17.998Z</time>
      </trkpt>
      <trkpt lat="43.67366" lon="3.87901">
        <ele>95.4</ele>
        <time>2024-04-19T08:51:25.636Z</time>
      </trkpt>
      <trkpt lat="43.67361" lon="3.87906">
        <ele>96.2</ele>
        <time>2024-04-19T08:51:29.077Z</time>
      </trkpt>
      <trkpt lat="43.67357" lon="3.87911">
        <ele>97.1</ele>
        <time>2024-04-19T08:51:32.527Z</time>
      </trkpt>
      <trkpt lat="43.67351" lon="3.87924">
        <ele>98.5</ele>
        <time>2024-04-19T08:51:38.654Z</time>
      </trkpt>
      <trkpt lat="43.67353" lon="3.87937">
        <ele>99.1</ele>
        <time>2024-04-19T08:51:42.898Z</time>
      </trkpt>
      <trkpt lat="43.67323" lon="3.87965">
        <ele>103.7</ele>
        <time>2024-04-19T08:52:02.892Z</time>
      </trkpt>
      <trkpt lat="43.67328" lon="3.87974">
        <ele>103.8</ele>
        <time>2024-04-19T08:52:05.973Z</time>
      </trkpt>
      <trkpt lat="43.67325" lon="3.87979">
        <ele>104.6</ele>
        <time>2024-04-19T08:52:09.018Z</time>
      </trkpt>
      <trkpt lat="43.67318" lon="3.87984">
        <ele>105.7</ele>
        <time>2024-04-19T08:52:13.573Z</time>
      </trkpt>
      <trkpt lat="43.67313" lon="3.8798">
        <ele>105.8</ele>
        <time>2024-04-19T08:52:15.777Z</time>
      </trkpt>
      <trkpt lat="43.673" lon="3.87972">
        <ele>106.8</ele>
        <time>2024-04-19T08:52:22.226Z</time>
      </trkpt>
      <trkpt lat="43.67293" lon="3.87966">
        <ele>107.6</ele>
        <time>2024-04-19T08:52:26.318Z</time>
      </trkpt>
      <trkpt lat="43.67286" lon="3.87958">
        <ele>108.3</ele>
        <time>2024-04-19T08:52:30.530Z</time>
      </trkpt>
      <trkpt lat="43.67283" lon="3.87951">
        <ele>108.5</ele>
        <time>2024-04-19T08:52:32.897Z</time>
      </trkpt>
      <trkpt lat="43.67277" lon="3.87948">
        <ele>109.2</ele>
        <time>2024-04-19T08:52:36.210Z</time>
      </trkpt>
      <trkpt lat="43.67271" lon="3.87952">
        <ele>109.8</ele>
        <time>2024-04-19T08:52:39.439Z</time>
      </trkpt>
      <trkpt lat="43.67246" lon="3.87976">
        <ele>113.4</ele>
        <time>2024-04-19T08:52:55.729Z</time>
      </trkpt>
      <trkpt lat="43.67245" lon="3.87988">
        <ele>114.3</ele>
        <time>2024-04-19T08:53:00.160Z</time>
      </trkpt>
      <trkpt lat="43.67236" lon="3.88012">
        <ele>116.2</ele>
        <time>2024-04-19T08:53:09.875Z</time>
      </trkpt>
      <trkpt lat="43.67228" lon="3.88013">
        <ele>116.4</ele>
        <time>2024-04-19T08:53:13.014Z</time>
      </trkpt>
      <trkpt lat="43.67218" lon="3.88017">
        <ele>116.4</ele>
        <time>2024-04-19T08:53:16.777Z</time>
      </trkpt>
      <trkpt lat="43.67212" lon="3.88012">
        <ele>115.9</ele>
        <time>2024-04-19T08:53:18.993Z</time>
      </trkpt>
      <trkpt lat="43.67202" lon="3.87996">
        <ele>115.1</ele>
        <time>2024-04-19T08:53:23.832Z</time>
      </trkpt>
      <trkpt lat="43.67194" lon="3.87988">
        <ele>114.5</ele>
        <time>2024-04-19T08:53:26.955Z</time>
      </trkpt>
      <trkpt lat="43.67182" lon="3.87979">
        <ele>113.6</ele>
        <time>2024-04-19T08:53:31.273Z</time>
      </trkpt>
      <trkpt lat="43.67176" lon="3.87974">
        <ele>113.3</ele>
        <time>2024-04-19T08:53:33.501Z</time>
      </trkpt>
      <trkpt lat="43.67161" lon="3.87955">
        <ele>111.9</ele>
        <time>2024-04-19T08:53:39.936Z</time>
      </trkpt>
      <trkpt lat="43.67157" lon="3.87947">
        <ele>111.6</ele>
        <time>2024-04-19T08:53:42.174Z</time>
      </trkpt>
      <trkpt lat="43.6715" lon="3.87931">
        <ele>110.5</ele>
        <time>2024-04-19T08:53:46.452Z</time>
      </trkpt>
      <trkpt lat="43.67132" lon="3.87885">
        <ele>109.2</ele>
        <time>2024-04-19T08:53:58.782Z</time>
      </trkpt>
      <trkpt lat="43.67127" lon="3.87855">
        <ele>109.4</ele>
        <time>2024-04-19T08:54:07.059Z</time>
      </trkpt>
      <trkpt lat="43.67124" lon="3.87846">
        <ele>109.5</ele>
        <time>2024-04-19T08:54:09.765Z</time>
      </trkpt>
      <trkpt lat="43.67121" lon="3.87814">
        <ele>109.6</ele>
        <time>2024-04-19T08:54:18.315Z</time>
      </trkpt>
      <trkpt lat="43.6712" lon="3.87783">
        <ele>109.9</ele>
        <time>2024-04-19T08:54:26.773Z</time>
      </trkpt>
      <trkpt lat="43.67109" lon="3.87718">
        <ele>110.8</ele>
        <time>2024-04-19T08:54:45.272Z</time>
      </trkpt>
      <trkpt lat="43.67105" lon="3.8769">
        <ele>110.6</ele>
        <time>2024-04-19T08:54:52.517Z</time>
      </trkpt>
      <trkpt lat="43.67104" lon="3.87677">
        <ele>110.6</ele>
        <time>2024-04-19T08:54:55.935Z</time>
      </trkpt>
      <trkpt lat="43.67103" lon="3.8767">
        <ele>110.7</ele>
        <time>2024-04-19T08:54:57.917Z</time>
      </trkpt>
      <trkpt lat="43.67094" lon="3.87629">
        <ele>111</ele>
        <time>2024-04-19T08:55:09.462Z</time>
      </trkpt>
      <trkpt lat="43.67083" lon="3.87563">
        <ele>111</ele>
        <time>2024-04-19T08:55:27.172Z</time>
      </trkpt>
      <trkpt lat="43.67082" lon="3.87553">
        <ele>111</ele>
        <time>2024-04-19T08:55:29.812Z</time>
      </trkpt>
      <trkpt lat="43.67082" lon="3.87522">
        <ele>111.2</ele>
        <time>2024-04-19T08:55:38.145Z</time>
      </trkpt>
      <trkpt lat="43.67083" lon="3.87507">
        <ele>111.7</ele>
        <time>2024-04-19T08:55:42.700Z</time>
      </trkpt>
      <trkpt lat="43.67087" lon="3.8742">
        <ele>113.9</ele>
        <time>2024-04-19T08:56:08.140Z</time>
      </trkpt>
      <trkpt lat="43.67086" lon="3.87394">
        <ele>114.8</ele>
        <time>2024-04-19T08:56:16.063Z</time>
      </trkpt>
      <trkpt lat="43.67083" lon="3.87362">
        <ele>115</ele>
        <time>2024-04-19T08:56:24.727Z</time>
      </trkpt>
      <trkpt lat="43.67078" lon="3.87349">
        <ele>114.9</ele>
        <time>2024-04-19T08:56:28.468Z</time>
      </trkpt>
      <trkpt lat="43.67075" lon="3.87336">
        <ele>115</ele>
        <time>2024-04-19T08:56:32.150Z</time>
      </trkpt>
      <trkpt lat="43.67073" lon="3.87312">
        <ele>114.5</ele>
        <time>2024-04-19T08:56:37.944Z</time>
      </trkpt>
      <trkpt lat="43.67076" lon="3.87299">
        <ele>114</ele>
        <time>2024-04-19T08:56:41.066Z</time>
      </trkpt>
      <trkpt lat="43.67081" lon="3.87249">
        <ele>111.9</ele>
        <time>2024-04-19T08:56:52.615Z</time>
      </trkpt>
      <trkpt lat="43.67077" lon="3.87232">
        <ele>110.2</ele>
        <time>2024-04-19T08:56:56.705Z</time>
      </trkpt>
      <trkpt lat="43.67073" lon="3.87225">
        <ele>109.6</ele>
        <time>2024-04-19T08:56:58.746Z</time>
      </trkpt>
      <trkpt lat="43.67058" lon="3.87192">
        <ele>107.6</ele>
        <time>2024-04-19T08:57:07.664Z</time>
      </trkpt>
      <trkpt lat="43.67047" lon="3.87172">
        <ele>106.6</ele>
        <time>2024-04-19T08:57:13.412Z</time>
      </trkpt>
      <trkpt lat="43.67039" lon="3.87161">
        <ele>106.4</ele>
        <time>2024-04-19T08:57:17.277Z</time>
      </trkpt>
      <trkpt lat="43.67025" lon="3.87144">
        <ele>106.9</ele>
        <time>2024-04-19T08:57:24.603Z</time>
      </trkpt>
      <trkpt lat="43.67018" lon="3.87136">
        <ele>106.5</ele>
        <time>2024-04-19T08:57:27.481Z</time>
      </trkpt>
      <trkpt lat="43.67011" lon="3.87129">
        <ele>105.9</ele>
        <time>2024-04-19T08:57:30.214Z</time>
      </trkpt>
      <trkpt lat="43.66996" lon="3.87123">
        <ele>105.4</ele>
        <time>2024-04-19T08:57:35.339Z</time>
      </trkpt>
      <trkpt lat="43.66968" lon="3.87116">
        <ele>105.5</ele>
        <time>2024-04-19T08:57:45.737Z</time>
      </trkpt>
      <trkpt lat="43.66955" lon="3.87121">
        <ele>106.4</ele>
        <time>2024-04-19T08:57:51.780Z</time>
      </trkpt>
      <trkpt lat="43.66942" lon="3.87119">
        <ele>107.2</ele>
        <time>2024-04-19T08:57:57.530Z</time>
      </trkpt>
      <trkpt lat="43.66935" lon="3.87115">
        <ele>107.7</ele>
        <time>2024-04-19T08:58:00.915Z</time>
      </trkpt>
      <trkpt lat="43.66929" lon="3.87114">
        <ele>108.1</ele>
        <time>2024-04-19T08:58:03.616Z</time>
      </trkpt>
      <trkpt lat="43.66912" lon="3.87104">
        <ele>108.4</ele>
        <time>2024-04-19T08:58:10.641Z</time>
      </trkpt>
      <trkpt lat="43.66892" lon="3.87083">
        <ele>106.8</ele>
        <time>2024-04-19T08:58:18.586Z</time>
      </trkpt>
      <trkpt lat="43.66886" lon="3.8708">
        <ele>106.3</ele>
        <time>2024-04-19T08:58:20.604Z</time>
      </trkpt>
      <trkpt lat="43.66876" lon="3.87072">
        <ele>104.6</ele>
        <time>2024-04-19T08:58:24.258Z</time>
      </trkpt>
      <trkpt lat="43.66851" lon="3.87062">
        <ele>101.9</ele>
        <time>2024-04-19T08:58:32.491Z</time>
      </trkpt>
      <trkpt lat="43.66844" lon="3.87055">
        <ele>100.3</ele>
        <time>2024-04-19T08:58:35.224Z</time>
      </trkpt>
      <trkpt lat="43.668" lon="3.87037">
        <ele>93.7</ele>
        <time>2024-04-19T08:58:49.738Z</time>
      </trkpt>
      <trkpt lat="43.66793" lon="3.87034">
        <ele>92.5</ele>
        <time>2024-04-19T08:58:52.057Z</time>
      </trkpt>
      <trkpt lat="43.6679" lon="3.87024">
        <ele>90.5</ele>
        <time>2024-04-19T08:58:54.534Z</time>
      </trkpt>
      <trkpt lat="43.66785" lon="3.8702">
        <ele>89.2</ele>
        <time>2024-04-19T08:58:56.361Z</time>
      </trkpt>
      <trkpt lat="43.66778" lon="3.87016">
        <ele>87.9</ele>
        <time>2024-04-19T08:58:58.757Z</time>
      </trkpt>
      <trkpt lat="43.66765" lon="3.87005">
        <ele>84.8</ele>
        <time>2024-04-19T08:59:03.578Z</time>
      </trkpt>
      <trkpt lat="43.66757" lon="3.87005">
        <ele>84.1</ele>
        <time>2024-04-19T08:59:06.109Z</time>
      </trkpt>
      <trkpt lat="43.66752" lon="3.87001">
        <ele>83.3</ele>
        <time>2024-04-19T08:59:07.936Z</time>
      </trkpt>
      <trkpt lat="43.66736" lon="3.86981">
        <ele>80.6</ele>
        <time>2024-04-19T08:59:14.760Z</time>
      </trkpt>
      <trkpt lat="43.66732" lon="3.86975">
        <ele>80.2</ele>
        <time>2024-04-19T08:59:16.627Z</time>
      </trkpt>
      <trkpt lat="43.66725" lon="3.86961">
        <ele>79.5</ele>
        <time>2024-04-19T08:59:20.521Z</time>
      </trkpt>
      <trkpt lat="43.66719" lon="3.86963">
        <ele>79.3</ele>
        <time>2024-04-19T08:59:22.544Z</time>
      </trkpt>
      <trkpt lat="43.6671" lon="3.86956">
        <ele>78.1</ele>
        <time>2024-04-19T08:59:25.811Z</time>
      </trkpt>
      <trkpt lat="43.66701" lon="3.86946">
        <ele>76.8</ele>
        <time>2024-04-19T08:59:29.463Z</time>
      </trkpt>
      <trkpt lat="43.66656" lon="3.86919">
        <ele>72.2</ele>
        <time>2024-04-19T08:59:44.981Z</time>
      </trkpt>
      <trkpt lat="43.66644" lon="3.86904">
        <ele>71.4</ele>
        <time>2024-04-19T08:59:50.098Z</time>
      </trkpt>
      <trkpt lat="43.66637" lon="3.86881">
        <ele>70.5</ele>
        <time>2024-04-19T08:59:55.808Z</time>
      </trkpt>
      <trkpt lat="43.6664" lon="3.86873">
        <ele>70.5</ele>
        <time>2024-04-19T08:59:58.164Z</time>
      </trkpt>
      <trkpt lat="43.66645" lon="3.86866">
        <ele>70.6</ele>
        <time>2024-04-19T09:00:00.852Z</time>
      </trkpt>
      <trkpt lat="43.6664" lon="3.86857">
        <ele>69.8</ele>
        <time>2024-04-19T09:00:03.448Z</time>
      </trkpt>
      <trkpt lat="43.66636" lon="3.86852">
        <ele>68.9</ele>
        <time>2024-04-19T09:00:05.154Z</time>
      </trkpt>
      <trkpt lat="43.66629" lon="3.86846">
        <ele>67.5</ele>
        <time>2024-04-19T09:00:07.759Z</time>
      </trkpt>
      <trkpt lat="43.66617" lon="3.86839">
        <ele>65.3</ele>
        <time>2024-04-19T09:00:11.879Z</time>
      </trkpt>
      <trkpt lat="43.6661" lon="3.86839">
        <ele>64.4</ele>
        <time>2024-04-19T09:00:14.094Z</time>
      </trkpt>
      <trkpt lat="43.66605" lon="3.86834">
        <ele>64</ele>
        <time>2024-04-19T09:00:16.046Z</time>
      </trkpt>
      <trkpt lat="43.66598" lon="3.86831">
        <ele>63.8</ele>
        <time>2024-04-19T09:00:18.485Z</time>
      </trkpt>
      <trkpt lat="43.66595" lon="3.86824">
        <ele>63.2</ele>
        <time>2024-04-19T09:00:20.347Z</time>
      </trkpt>
      <trkpt lat="43.66582" lon="3.86812">
        <ele>62.6</ele>
        <time>2024-04-19T09:00:25.382Z</time>
      </trkpt>
      <trkpt lat="43.66573" lon="3.86808">
        <ele>63.3</ele>
        <time>2024-04-19T09:00:29.721Z</time>
      </trkpt>
      <trkpt lat="43.66565" lon="3.86811">
        <ele>64.2</ele>
        <time>2024-04-19T09:00:34.008Z</time>
      </trkpt>
      <trkpt lat="43.66569" lon="3.86824">
        <ele>64.5</ele>
        <time>2024-04-19T09:00:38.058Z</time>
      </trkpt>
      <trkpt lat="43.6657" lon="3.86847">
        <ele>66.2</ele>
        <time>2024-04-19T09:00:46.480Z</time>
      </trkpt>
      <trkpt lat="43.66573" lon="3.86864">
        <ele>67.4</ele>
        <time>2024-04-19T09:00:52.718Z</time>
      </trkpt>
      <trkpt lat="43.66578" lon="3.86881">
        <ele>68.1</ele>
        <time>2024-04-19T09:00:58.394Z</time>
      </trkpt>
      <trkpt lat="43.66584" lon="3.86893">
        <ele>68.1</ele>
        <time>2024-04-19T09:01:02.209Z</time>
      </trkpt>
      <trkpt lat="43.66588" lon="3.86908">
        <ele>68.7</ele>
        <time>2024-04-19T09:01:07.139Z</time>
      </trkpt>
      <trkpt lat="43.66581" lon="3.86905">
        <ele>69</ele>
        <time>2024-04-19T09:01:10.155Z</time>
      </trkpt>
      <trkpt lat="43.66573" lon="3.86892">
        <ele>69.7</ele>
        <time>2024-04-19T09:01:15.503Z</time>
      </trkpt>
      <trkpt lat="43.66537" lon="3.86853">
        <ele>70.8</ele>
        <time>2024-04-19T09:01:33.328Z</time>
      </trkpt>
      <trkpt lat="43.6652" lon="3.86844">
        <ele>71.9</ele>
        <time>2024-04-19T09:01:41.311Z</time>
      </trkpt>
      <trkpt lat="43.66497" lon="3.8684">
        <ele>73.3</ele>
        <time>2024-04-19T09:01:51.477Z</time>
      </trkpt>
      <trkpt lat="43.66493" lon="3.86845">
        <ele>74.4</ele>
        <time>2024-04-19T09:01:55.457Z</time>
      </trkpt>
      <trkpt lat="43.66491" lon="3.86852">
        <ele>75.7</ele>
        <time>2024-04-19T09:02:00.076Z</time>
      </trkpt>
      <trkpt lat="43.66486" lon="3.86862">
        <ele>77.6</ele>
        <time>2024-04-19T09:02:06.885Z</time>
      </trkpt>
      <trkpt lat="43.66482" lon="3.8695">
        <ele>88.6</ele>
        <time>2024-04-19T09:02:48.567Z</time>
      </trkpt>
      <trkpt lat="43.66481" lon="3.86959">
        <ele>89.6</ele>
        <time>2024-04-19T09:02:52.550Z</time>
      </trkpt>
      <trkpt lat="43.66482" lon="3.86975">
        <ele>91.2</ele>
        <time>2024-04-19T09:02:59.220Z</time>
      </trkpt>
      <trkpt lat="43.66487" lon="3.86995">
        <ele>92.6</ele>
        <time>2024-04-19T09:03:06.677Z</time>
      </trkpt>
      <trkpt lat="43.66483" lon="3.87048">
        <ele>95.4</ele>
        <time>2024-04-19T09:03:24.287Z</time>
      </trkpt>
      <trkpt lat="43.6648" lon="3.87057">
        <ele>95.7</ele>
        <time>2024-04-19T09:03:27.245Z</time>
      </trkpt>
      <trkpt lat="43.66458" lon="3.87071">
        <ele>95.3</ele>
        <time>2024-04-19T09:03:35.571Z</time>
      </trkpt>
      <trkpt lat="43.66447" lon="3.87085">
        <ele>95</ele>
        <time>2024-04-19T09:03:40.656Z</time>
      </trkpt>
      <trkpt lat="43.6644" lon="3.87087">
        <ele>94.5</ele>
        <time>2024-04-19T09:03:42.917Z</time>
      </trkpt>
      <trkpt lat="43.66433" lon="3.8709">
        <ele>93.8</ele>
        <time>2024-04-19T09:03:45.235Z</time>
      </trkpt>
      <trkpt lat="43.66428" lon="3.871">
        <ele>92.9</ele>
        <time>2024-04-19T09:03:48.017Z</time>
      </trkpt>
      <trkpt lat="43.66411" lon="3.87103">
        <ele>91.1</ele>
        <time>2024-04-19T09:03:53.438Z</time>
      </trkpt>
      <trkpt lat="43.66407" lon="3.87109">
        <ele>90.4</ele>
        <time>2024-04-19T09:03:55.305Z</time>
      </trkpt>
      <trkpt lat="43.66402" lon="3.87116">
        <ele>89.5</ele>
        <time>2024-04-19T09:03:57.556Z</time>
      </trkpt>
      <trkpt lat="43.66397" lon="3.87121">
        <ele>88.6</ele>
        <time>2024-04-19T09:03:59.508Z</time>
      </trkpt>
      <trkpt lat="43.66393" lon="3.87125">
        <ele>87.9</ele>
        <time>2024-04-19T09:04:01.070Z</time>
      </trkpt>
      <trkpt lat="43.66384" lon="3.87135">
        <ele>86.1</ele>
        <time>2024-04-19T09:04:04.722Z</time>
      </trkpt>
      <trkpt lat="43.66378" lon="3.87139">
        <ele>85.2</ele>
        <time>2024-04-19T09:04:06.830Z</time>
      </trkpt>
      <trkpt lat="43.6637" lon="3.87136">
        <ele>85</ele>
        <time>2024-04-19T09:04:09.615Z</time>
      </trkpt>
      <trkpt lat="43.66363" lon="3.87129">
        <ele>85.2</ele>
        <time>2024-04-19T09:04:12.972Z</time>
      </trkpt>
      <trkpt lat="43.66359" lon="3.87143">
        <ele>83.3</ele>
        <time>2024-04-19T09:04:16.417Z</time>
      </trkpt>
      <trkpt lat="43.66359" lon="3.87154">
        <ele>81.7</ele>
        <time>2024-04-19T09:04:18.934Z</time>
      </trkpt>
      <trkpt lat="43.66352" lon="3.87165">
        <ele>79.6</ele>
        <time>2024-04-19T09:04:22.286Z</time>
      </trkpt>
      <trkpt lat="43.66348" lon="3.8717">
        <ele>78.4</ele>
        <time>2024-04-19T09:04:23.992Z</time>
      </trkpt>
      <trkpt lat="43.66341" lon="3.87168">
        <ele>78.3</ele>
        <time>2024-04-19T09:04:26.468Z</time>
      </trkpt>
      <trkpt lat="43.66334" lon="3.87166">
        <ele>78.2</ele>
        <time>2024-04-19T09:04:28.944Z</time>
      </trkpt>
      <trkpt lat="43.66324" lon="3.87156">
        <ele>80</ele>
        <time>2024-04-19T09:04:36.244Z</time>
      </trkpt>
      <trkpt lat="43.66296" lon="3.87153">
        <ele>80.3</ele>
        <time>2024-04-19T09:04:46.739Z</time>
      </trkpt>
      <trkpt lat="43.66284" lon="3.87154">
        <ele>79.9</ele>
        <time>2024-04-19T09:04:50.670Z</time>
      </trkpt>
      <trkpt lat="43.66277" lon="3.87154">
        <ele>79.8</ele>
        <time>2024-04-19T09:04:53.093Z</time>
      </trkpt>
      <trkpt lat="43.66272" lon="3.87154">
        <ele>79.8</ele>
        <time>2024-04-19T09:04:54.900Z</time>
      </trkpt>
      <trkpt lat="43.66266" lon="3.87154">
        <ele>79.8</ele>
        <time>2024-04-19T09:04:57.069Z</time>
      </trkpt>
      <trkpt lat="43.6625" lon="3.87156">
        <ele>79.5</ele>
        <time>2024-04-19T09:05:02.556Z</time>
      </trkpt>
      <trkpt lat="43.66221" lon="3.87152">
        <ele>78</ele>
        <time>2024-04-19T09:05:11.775Z</time>
      </trkpt>
      <trkpt lat="43.66212" lon="3.87147">
        <ele>78.2</ele>
        <time>2024-04-19T09:05:15.514Z</time>
      </trkpt>
      <trkpt lat="43.66207" lon="3.87142">
        <ele>78.5</ele>
        <time>2024-04-19T09:05:18.118Z</time>
      </trkpt>
      <trkpt lat="43.662" lon="3.87136">
        <ele>78.7</ele>
        <time>2024-04-19T09:05:21.330Z</time>
      </trkpt>
      <trkpt lat="43.66188" lon="3.87132">
        <ele>78.3</ele>
        <time>2024-04-19T09:05:25.377Z</time>
      </trkpt>
      <trkpt lat="43.66179" lon="3.87135">
        <ele>77.3</ele>
        <time>2024-04-19T09:05:28.305Z</time>
      </trkpt>
      <trkpt lat="43.66171" lon="3.87118">
        <ele>78.6</ele>
        <time>2024-04-19T09:05:35.382Z</time>
      </trkpt>
      <trkpt lat="43.66154" lon="3.87089">
        <ele>77.6</ele>
        <time>2024-04-19T09:05:44.115Z</time>
      </trkpt>
      <trkpt lat="43.66144" lon="3.87069">
        <ele>75.5</ele>
        <time>2024-04-19T09:05:49.678Z</time>
      </trkpt>
      <trkpt lat="43.66137" lon="3.87048">
        <ele>73</ele>
        <time>2024-04-19T09:05:54.969Z</time>
      </trkpt>
      <trkpt lat="43.66132" lon="3.87036">
        <ele>71.5</ele>
        <time>2024-04-19T09:05:58.138Z</time>
      </trkpt>
      <trkpt lat="43.66125" lon="3.87025">
        <ele>70.3</ele>
        <time>2024-04-19T09:06:01.491Z</time>
      </trkpt>
      <trkpt lat="43.66119" lon="3.8702">
        <ele>69.7</ele>
        <time>2024-04-19T09:06:03.707Z</time>
      </trkpt>
      <trkpt lat="43.66119" lon="3.8701">
        <ele>69</ele>
        <time>2024-04-19T09:06:05.995Z</time>
      </trkpt>
      <trkpt lat="43.66125" lon="3.87001">
        <ele>68.6</ele>
        <time>2024-04-19T09:06:08.796Z</time>
      </trkpt>
      <trkpt lat="43.66129" lon="3.86994">
        <ele>68.4</ele>
        <time>2024-04-19T09:06:10.921Z</time>
      </trkpt>
      <trkpt lat="43.66138" lon="3.86974">
        <ele>68</ele>
        <time>2024-04-19T09:06:16.657Z</time>
      </trkpt>
      <trkpt lat="43.6615" lon="3.86965">
        <ele>68.5</ele>
        <time>2024-04-19T09:06:22.196Z</time>
      </trkpt>
      <trkpt lat="43.66165" lon="3.86947">
        <ele>69</ele>
        <time>2024-04-19T09:06:29.965Z</time>
      </trkpt>
      <trkpt lat="43.66181" lon="3.86931">
        <ele>69.8</ele>
        <time>2024-04-19T09:06:38.078Z</time>
      </trkpt>
      <trkpt lat="43.6619" lon="3.86914">
        <ele>69.5</ele>
        <time>2024-04-19T09:06:43.267Z</time>
      </trkpt>
      <trkpt lat="43.66215" lon="3.86905">
        <ele>69.9</ele>
        <time>2024-04-19T09:06:53.067Z</time>
      </trkpt>
      <trkpt lat="43.6623" lon="3.86896">
        <ele>69.8</ele>
        <time>2024-04-19T09:06:58.869Z</time>
      </trkpt>
      <trkpt lat="43.66245" lon="3.86891">
        <ele>70</ele>
        <time>2024-04-19T09:07:04.676Z</time>
      </trkpt>
      <trkpt lat="43.66257" lon="3.86882">
        <ele>69.6</ele>
        <time>2024-04-19T09:07:09.193Z</time>
      </trkpt>
      <trkpt lat="43.66274" lon="3.86876">
        <ele>69.5</ele>
        <time>2024-04-19T09:07:15.426Z</time>
      </trkpt>
      <trkpt lat="43.66277" lon="3.86871">
        <ele>69.3</ele>
        <time>2024-04-19T09:07:16.921Z</time>
      </trkpt>
      <trkpt lat="43.6627" lon="3.86835">
        <ele>66.8</ele>
        <time>2024-04-19T09:07:25.451Z</time>
      </trkpt>
      <trkpt lat="43.66264" lon="3.86819">
        <ele>65.7</ele>
        <time>2024-04-19T09:07:29.575Z</time>
      </trkpt>
      <trkpt lat="43.66257" lon="3.86809">
        <ele>65.2</ele>
        <time>2024-04-19T09:07:32.760Z</time>
      </trkpt>
      <trkpt lat="43.66236" lon="3.86783">
        <ele>63.7</ele>
        <time>2024-04-19T09:07:41.677Z</time>
      </trkpt>
      <trkpt lat="43.66231" lon="3.86776">
        <ele>63.3</ele>
        <time>2024-04-19T09:07:43.928Z</time>
      </trkpt>
      <trkpt lat="43.66225" lon="3.86763">
        <ele>62.6</ele>
        <time>2024-04-19T09:07:47.457Z</time>
      </trkpt>
      <trkpt lat="43.66222" lon="3.86752">
        <ele>62.1</ele>
        <time>2024-04-19T09:07:50.147Z</time>
      </trkpt>
      <trkpt lat="43.66225" lon="3.86738">
        <ele>62.1</ele>
        <time>2024-04-19T09:07:53.966Z</time>
      </trkpt>
      <trkpt lat="43.66242" lon="3.86731">
        <ele>62.2</ele>
        <time>2024-04-19T09:08:00.491Z</time>
      </trkpt>
      <trkpt lat="43.66267" lon="3.86731">
        <ele>62.3</ele>
        <time>2024-04-19T09:08:09.641Z</time>
      </trkpt>
      <trkpt lat="43.66293" lon="3.86726">
        <ele>61.6</ele>
        <time>2024-04-19T09:08:18.395Z</time>
      </trkpt>
      <trkpt lat="43.66306" lon="3.86725">
        <ele>61.1</ele>
        <time>2024-04-19T09:08:22.588Z</time>
      </trkpt>
      <trkpt lat="43.66323" lon="3.86735">
        <ele>61.5</ele>
        <time>2024-04-19T09:08:29.734Z</time>
      </trkpt>
      <trkpt lat="43.66332" lon="3.86744">
        <ele>61.8</ele>
        <time>2024-04-19T09:08:34.104Z</time>
      </trkpt>
      <trkpt lat="43.66338" lon="3.86749">
        <ele>62</ele>
        <time>2024-04-19T09:08:36.874Z</time>
      </trkpt>
      <trkpt lat="43.66347" lon="3.86746">
        <ele>61.8</ele>
        <time>2024-04-19T09:08:40.008Z</time>
      </trkpt>
      <trkpt lat="43.66359" lon="3.86728">
        <ele>60.5</ele>
        <time>2024-04-19T09:08:45.609Z</time>
      </trkpt>
      <trkpt lat="43.66366" lon="3.86708">
        <ele>59.3</ele>
        <time>2024-04-19T09:08:50.693Z</time>
      </trkpt>
      <trkpt lat="43.66371" lon="3.86697">
        <ele>58.7</ele>
        <time>2024-04-19T09:08:53.666Z</time>
      </trkpt>
      <trkpt lat="43.66389" lon="3.86676">
        <ele>57.3</ele>
        <time>2024-04-19T09:09:01.117Z</time>
      </trkpt>
      <trkpt lat="43.66413" lon="3.86661">
        <ele>55.3</ele>
        <time>2024-04-19T09:09:09.448Z</time>
      </trkpt>
      <trkpt lat="43.66421" lon="3.8666">
        <ele>54.9</ele>
        <time>2024-04-19T09:09:11.989Z</time>
      </trkpt>
      <trkpt lat="43.66429" lon="3.86669">
        <ele>55.2</ele>
        <time>2024-04-19T09:09:16.074Z</time>
      </trkpt>
      <trkpt lat="43.66442" lon="3.8667">
        <ele>55.2</ele>
        <time>2024-04-19T09:09:20.781Z</time>
      </trkpt>
      <trkpt lat="43.66453" lon="3.86665">
        <ele>54.9</ele>
        <time>2024-04-19T09:09:24.651Z</time>
      </trkpt>
      <trkpt lat="43.66459" lon="3.86667">
        <ele>55</ele>
        <time>2024-04-19T09:09:26.998Z</time>
      </trkpt>
      <trkpt lat="43.66475" lon="3.86669">
        <ele>55.2</ele>
        <time>2024-04-19T09:09:33.034Z</time>
      </trkpt>
      <trkpt lat="43.66481" lon="3.86668">
        <ele>55.1</ele>
        <time>2024-04-19T09:09:35.111Z</time>
      </trkpt>
      <trkpt lat="43.66505" lon="3.8666">
        <ele>54.3</ele>
        <time>2024-04-19T09:09:43.205Z</time>
      </trkpt>
      <trkpt lat="43.66519" lon="3.86651">
        <ele>53.3</ele>
        <time>2024-04-19T09:09:48.089Z</time>
      </trkpt>
      <trkpt lat="43.66527" lon="3.86649">
        <ele>53.1</ele>
        <time>2024-04-19T09:09:50.817Z</time>
      </trkpt>
      <trkpt lat="43.66538" lon="3.86649">
        <ele>52.7</ele>
        <time>2024-04-19T09:09:54.381Z</time>
      </trkpt>
      <trkpt lat="43.66549" lon="3.86647">
        <ele>52.1</ele>
        <time>2024-04-19T09:09:57.890Z</time>
      </trkpt>
      <trkpt lat="43.66558" lon="3.86646">
        <ele>51.7</ele>
        <time>2024-04-19T09:10:00.749Z</time>
      </trkpt>
      <trkpt lat="43.66571" lon="3.86646">
        <ele>51.1</ele>
        <time>2024-04-19T09:10:04.861Z</time>
      </trkpt>
      <trkpt lat="43.66577" lon="3.86645">
        <ele>50.7</ele>
        <time>2024-04-19T09:10:06.773Z</time>
      </trkpt>
      <trkpt lat="43.66601" lon="3.86646">
        <ele>50.3</ele>
        <time>2024-04-19T09:10:15.023Z</time>
      </trkpt>
      <trkpt lat="43.66626" lon="3.86653">
        <ele>50.8</ele>
        <time>2024-04-19T09:10:24.825Z</time>
      </trkpt>
      <trkpt lat="43.66633" lon="3.86654">
        <ele>51</ele>
        <time>2024-04-19T09:10:27.606Z</time>
      </trkpt>
      <trkpt lat="43.66639" lon="3.86655">
        <ele>51.2</ele>
        <time>2024-04-19T09:10:30.031Z</time>
      </trkpt>
      <trkpt lat="43.66648" lon="3.86658">
        <ele>51.3</ele>
        <time>2024-04-19T09:10:33.491Z</time>
      </trkpt>
      <trkpt lat="43.66653" lon="3.86662">
        <ele>51.6</ele>
        <time>2024-04-19T09:10:35.955Z</time>
      </trkpt>
      <trkpt lat="43.66671" lon="3.86672">
        <ele>52.3</ele>
        <time>2024-04-19T09:10:43.812Z</time>
      </trkpt>
      <trkpt lat="43.66676" lon="3.86678">
        <ele>52.6</ele>
        <time>2024-04-19T09:10:46.575Z</time>
      </trkpt>
      <trkpt lat="43.66682" lon="3.86684">
        <ele>52.8</ele>
        <time>2024-04-19T09:10:49.488Z</time>
      </trkpt>
      <trkpt lat="43.6669" lon="3.86695">
        <ele>53.4</ele>
        <time>2024-04-19T09:10:54.319Z</time>
      </trkpt>
      <trkpt lat="43.66711" lon="3.86715">
        <ele>54.3</ele>
        <time>2024-04-19T09:11:04.621Z</time>
      </trkpt>
      <trkpt lat="43.66728" lon="3.86737">
        <ele>54.9</ele>
        <time>2024-04-19T09:11:13.746Z</time>
      </trkpt>
      <trkpt lat="43.66752" lon="3.86775">
        <ele>55.4</ele>
        <time>2024-04-19T09:11:27.511Z</time>
      </trkpt>
      <trkpt lat="43.66769" lon="3.86791">
        <ele>54.4</ele>
        <time>2024-04-19T09:11:34.016Z</time>
      </trkpt>
      <trkpt lat="43.66772" lon="3.86796">
        <ele>54.3</ele>
        <time>2024-04-19T09:11:35.609Z</time>
      </trkpt>
      <trkpt lat="43.66781" lon="3.86808">
        <ele>54</ele>
        <time>2024-04-19T09:11:39.812Z</time>
      </trkpt>
      <trkpt lat="43.66789" lon="3.86815">
        <ele>54.1</ele>
        <time>2024-04-19T09:11:43.348Z</time>
      </trkpt>
      <trkpt lat="43.66794" lon="3.86821">
        <ele>54.2</ele>
        <time>2024-04-19T09:11:45.857Z</time>
      </trkpt>
      <trkpt lat="43.66806" lon="3.86832">
        <ele>53.9</ele>
        <time>2024-04-19T09:11:50.743Z</time>
      </trkpt>
      <trkpt lat="43.66824" lon="3.86846">
        <ele>55.4</ele>
        <time>2024-04-19T09:12:00.178Z</time>
      </trkpt>
      <trkpt lat="43.66846" lon="3.86856">
        <ele>56.4</ele>
        <time>2024-04-19T09:12:09.775Z</time>
      </trkpt>
      <trkpt lat="43.66856" lon="3.86858">
        <ele>56.7</ele>
        <time>2024-04-19T09:12:13.784Z</time>
      </trkpt>
      <trkpt lat="43.6687" lon="3.86864">
        <ele>57.2</ele>
        <time>2024-04-19T09:12:19.683Z</time>
      </trkpt>
      <trkpt lat="43.66889" lon="3.8687">
        <ele>57.6</ele>
        <time>2024-04-19T09:12:27.194Z</time>
      </trkpt>
      <trkpt lat="43.66924" lon="3.8687">
        <ele>57.4</ele>
        <time>2024-04-19T09:12:39.627Z</time>
      </trkpt>
      <trkpt lat="43.66934" lon="3.86873">
        <ele>58</ele>
        <time>2024-04-19T09:12:44.088Z</time>
      </trkpt>
      <trkpt lat="43.66939" lon="3.86872">
        <ele>57.9</ele>
        <time>2024-04-19T09:12:45.808Z</time>
      </trkpt>
      <trkpt lat="43.66945" lon="3.86869">
        <ele>57.4</ele>
        <time>2024-04-19T09:12:47.826Z</time>
      </trkpt>
      <trkpt lat="43.66951" lon="3.86868">
        <ele>57.2</ele>
        <time>2024-04-19T09:12:49.803Z</time>
      </trkpt>
      <trkpt lat="43.66957" lon="3.86868">
        <ele>57.2</ele>
        <time>2024-04-19T09:12:51.972Z</time>
      </trkpt>
      <trkpt lat="43.66963" lon="3.86864">
        <ele>56.5</ele>
        <time>2024-04-19T09:12:54.079Z</time>
      </trkpt>
      <trkpt lat="43.66969" lon="3.86859">
        <ele>55.8</ele>
        <time>2024-04-19T09:12:56.295Z</time>
      </trkpt>
      <trkpt lat="43.66995" lon="3.86856">
        <ele>56.1</ele>
        <time>2024-04-19T09:13:06.070Z</time>
      </trkpt>
      <trkpt lat="43.67007" lon="3.8685">
        <ele>55.7</ele>
        <time>2024-04-19T09:13:10.266Z</time>
      </trkpt>
      <trkpt lat="43.67012" lon="3.86851">
        <ele>56</ele>
        <time>2024-04-19T09:13:12.474Z</time>
      </trkpt>
      <trkpt lat="43.6702" lon="3.86849">
        <ele>56</ele>
        <time>2024-04-19T09:13:15.413Z</time>
      </trkpt>
      <trkpt lat="43.67032" lon="3.86849">
        <ele>56.5</ele>
        <time>2024-04-19T09:13:20.362Z</time>
      </trkpt>
      <trkpt lat="43.67046" lon="3.86845">
        <ele>56.6</ele>
        <time>2024-04-19T09:13:25.643Z</time>
      </trkpt>
      <trkpt lat="43.67057" lon="3.86839">
        <ele>56.1</ele>
        <time>2024-04-19T09:13:29.409Z</time>
      </trkpt>
      <trkpt lat="43.67074" lon="3.86835">
        <ele>56</ele>
        <time>2024-04-19T09:13:35.533Z</time>
      </trkpt>
      <trkpt lat="43.67087" lon="3.86834">
        <ele>56.4</ele>
        <time>2024-04-19T09:13:40.716Z</time>
      </trkpt>
      <trkpt lat="43.67098" lon="3.86831">
        <ele>56.8</ele>
        <time>2024-04-19T09:13:45.251Z</time>
      </trkpt>
      <trkpt lat="43.67111" lon="3.86826">
        <ele>56.9</ele>
        <time>2024-04-19T09:13:50.242Z</time>
      </trkpt>
      <trkpt lat="43.67126" lon="3.86822">
        <ele>56.9</ele>
        <time>2024-04-19T09:13:55.765Z</time>
      </trkpt>
      <trkpt lat="43.67134" lon="3.86817">
        <ele>56.5</ele>
        <time>2024-04-19T09:13:58.542Z</time>
      </trkpt>
      <trkpt lat="43.67142" lon="3.86816">
        <ele>56.5</ele>
        <time>2024-04-19T09:14:01.446Z</time>
      </trkpt>
      <trkpt lat="43.67146" lon="3.86822">
        <ele>57.2</ele>
        <time>2024-04-19T09:14:04.608Z</time>
      </trkpt>
      <trkpt lat="43.67153" lon="3.86835">
        <ele>58.7</ele>
        <time>2024-04-19T09:14:11.104Z</time>
      </trkpt>
      <trkpt lat="43.67166" lon="3.86852">
        <ele>60.1</ele>
        <time>2024-04-19T09:14:19.435Z</time>
      </trkpt>
      <trkpt lat="43.67174" lon="3.8685">
        <ele>60.2</ele>
        <time>2024-04-19T09:14:22.489Z</time>
      </trkpt>
      <trkpt lat="43.67178" lon="3.86845">
        <ele>59.8</ele>
        <time>2024-04-19T09:14:24.194Z</time>
      </trkpt>
      <trkpt lat="43.67184" lon="3.86844">
        <ele>60</ele>
        <time>2024-04-19T09:14:26.619Z</time>
      </trkpt>
      <trkpt lat="43.67187" lon="3.86837">
        <ele>59.2</ele>
        <time>2024-04-19T09:14:28.480Z</time>
      </trkpt>
      <trkpt lat="43.67195" lon="3.86827">
        <ele>58.4</ele>
        <time>2024-04-19T09:14:31.892Z</time>
      </trkpt>
      <trkpt lat="43.67201" lon="3.86823">
        <ele>58.4</ele>
        <time>2024-04-19T09:14:34.300Z</time>
      </trkpt>
      <trkpt lat="43.67207" lon="3.86825">
        <ele>59.2</ele>
        <time>2024-04-19T09:14:37.740Z</time>
      </trkpt>
      <trkpt lat="43.67215" lon="3.86822">
        <ele>59.4</ele>
        <time>2024-04-19T09:14:40.972Z</time>
      </trkpt>
      <trkpt lat="43.6722" lon="3.86818">
        <ele>59.1</ele>
        <time>2024-04-19T09:14:42.799Z</time>
      </trkpt>
      <trkpt lat="43.67227" lon="3.86816">
        <ele>59.1</ele>
        <time>2024-04-19T09:14:45.383Z</time>
      </trkpt>
      <trkpt lat="43.67241" lon="3.86816">
        <ele>59.6</ele>
        <time>2024-04-19T09:14:51.046Z</time>
      </trkpt>
      <trkpt lat="43.67252" lon="3.86817">
        <ele>60.2</ele>
        <time>2024-04-19T09:14:55.786Z</time>
      </trkpt>
      <trkpt lat="43.67259" lon="3.8682">
        <ele>61.2</ele>
        <time>2024-04-19T09:14:59.974Z</time>
      </trkpt>
      <trkpt lat="43.67284" lon="3.86836">
        <ele>64.6</ele>
        <time>2024-04-19T09:15:14.992Z</time>
      </trkpt>
      <trkpt lat="43.67288" lon="3.8684">
        <ele>65.2</ele>
        <time>2024-04-19T09:15:17.665Z</time>
      </trkpt>
      <trkpt lat="43.67295" lon="3.86846">
        <ele>65.9</ele>
        <time>2024-04-19T09:15:21.589Z</time>
      </trkpt>
      <trkpt lat="43.673" lon="3.86848">
        <ele>66.1</ele>
        <time>2024-04-19T09:15:23.713Z</time>
      </trkpt>
      <trkpt lat="43.67307" lon="3.86851">
        <ele>66.2</ele>
        <time>2024-04-19T09:15:26.477Z</time>
      </trkpt>
      <trkpt lat="43.67312" lon="3.86847">
        <ele>65.6</ele>
        <time>2024-04-19T09:15:28.304Z</time>
      </trkpt>
      <trkpt lat="43.67315" lon="3.8684">
        <ele>65.1</ele>
        <time>2024-04-19T09:15:30.166Z</time>
      </trkpt>
      <trkpt lat="43.67323" lon="3.86831">
        <ele>64.1</ele>
        <time>2024-04-19T09:15:33.429Z</time>
      </trkpt>
      <trkpt lat="43.67328" lon="3.86827">
        <ele>63.5</ele>
        <time>2024-04-19T09:15:35.256Z</time>
      </trkpt>
      <trkpt lat="43.67333" lon="3.86823">
        <ele>62.9</ele>
        <time>2024-04-19T09:15:37.083Z</time>
      </trkpt>
      <trkpt lat="43.67338" lon="3.86812">
        <ele>61.5</ele>
        <time>2024-04-19T09:15:40.056Z</time>
      </trkpt>
      <trkpt lat="43.67341" lon="3.86801">
        <ele>60.4</ele>
        <time>2024-04-19T09:15:42.745Z</time>
      </trkpt>
      <trkpt lat="43.67344" lon="3.86792">
        <ele>59.6</ele>
        <time>2024-04-19T09:15:45.013Z</time>
      </trkpt>
      <trkpt lat="43.67349" lon="3.86786">
        <ele>59</ele>
        <time>2024-04-19T09:15:47.107Z</time>
      </trkpt>
      <trkpt lat="43.67367" lon="3.86781">
        <ele>58</ele>
        <time>2024-04-19T09:15:52.914Z</time>
      </trkpt>
      <trkpt lat="43.67374" lon="3.86781">
        <ele>57.8</ele>
        <time>2024-04-19T09:15:55.235Z</time>
      </trkpt>
      <trkpt lat="43.67381" lon="3.8678">
        <ele>57.4</ele>
        <time>2024-04-19T09:15:57.461Z</time>
      </trkpt>
      <trkpt lat="43.67372" lon="3.86778">
        <ele>57.6</ele>
        <time>2024-04-19T09:16:00.990Z</time>
      </trkpt>
      <trkpt lat="43.67366" lon="3.86773">
        <ele>57.5</ele>
        <time>2024-04-19T09:16:03.415Z</time>
      </trkpt>
      <trkpt lat="43.67365" lon="3.86754">
        <ele>56.1</ele>
        <time>2024-04-19T09:16:07.774Z</time>
      </trkpt>
      <trkpt lat="43.67359" lon="3.86745">
        <ele>55.8</ele>
        <time>2024-04-19T09:16:10.663Z</time>
      </trkpt>
      <trkpt lat="43.67346" lon="3.86737">
        <ele>55.5</ele>
        <time>2024-04-19T09:16:15.488Z</time>
      </trkpt>
      <trkpt lat="43.67337" lon="3.86707">
        <ele>54.7</ele>
        <time>2024-04-19T09:16:23.152Z</time>
      </trkpt>
      <trkpt lat="43.67331" lon="3.86679">
        <ele>48.7</ele>
        <time>2024-04-19T09:16:29.833Z</time>
      </trkpt>
      <trkpt lat="43.67324" lon="3.8665">
        <ele>45.6</ele>
        <time>2024-04-19T09:16:36.828Z</time>
      </trkpt>
      <trkpt lat="43.67304" lon="3.86556">
        <ele>51</ele>
        <time>2024-04-19T09:17:09.596Z</time>
      </trkpt>
      <trkpt lat="43.67301" lon="3.86536">
        <ele>50.8</ele>
        <time>2024-04-19T09:17:14.721Z</time>
      </trkpt>
      <trkpt lat="43.67301" lon="3.86514">
        <ele>50.9</ele>
        <time>2024-04-19T09:17:20.586Z</time>
      </trkpt>
      <trkpt lat="43.67298" lon="3.86505">
        <ele>51</ele>
        <time>2024-04-19T09:17:23.292Z</time>
      </trkpt>
      <trkpt lat="43.67296" lon="3.86488">
        <ele>51</ele>
        <time>2024-04-19T09:17:27.796Z</time>
      </trkpt>
      <trkpt lat="43.67303" lon="3.86472">
        <ele>51</ele>
        <time>2024-04-19T09:17:32.685Z</time>
      </trkpt>
      <trkpt lat="43.67322" lon="3.8644">
        <ele>51</ele>
        <time>2024-04-19T09:17:43.511Z</time>
      </trkpt>
      <trkpt lat="43.67336" lon="3.86432">
        <ele>51.1</ele>
        <time>2024-04-19T09:17:49.100Z</time>
      </trkpt>
      <trkpt lat="43.67353" lon="3.86433">
        <ele>52</ele>
        <time>2024-04-19T09:17:56.379Z</time>
      </trkpt>
      <trkpt lat="43.67358" lon="3.86428">
        <ele>52.4</ele>
        <time>2024-04-19T09:17:59.125Z</time>
      </trkpt>
      <trkpt lat="43.67356" lon="3.86421">
        <ele>52.5</ele>
        <time>2024-04-19T09:18:01.209Z</time>
      </trkpt>
      <trkpt lat="43.67351" lon="3.86416">
        <ele>52.3</ele>
        <time>2024-04-19T09:18:03.232Z</time>
      </trkpt>
      <trkpt lat="43.67345" lon="3.86409">
        <ele>52.1</ele>
        <time>2024-04-19T09:18:05.859Z</time>
      </trkpt>
      <trkpt lat="43.67332" lon="3.86385">
        <ele>52.2</ele>
        <time>2024-04-19T09:18:13.811Z</time>
      </trkpt>
      <trkpt lat="43.67299" lon="3.86329">
        <ele>52.7</ele>
        <time>2024-04-19T09:18:33.267Z</time>
      </trkpt>
      <trkpt lat="43.67291" lon="3.86311">
        <ele>52.8</ele>
        <time>2024-04-19T09:18:38.904Z</time>
      </trkpt>
      <trkpt lat="43.67292" lon="3.86287">
        <ele>53.3</ele>
        <time>2024-04-19T09:18:45.783Z</time>
      </trkpt>
      <trkpt lat="43.67285" lon="3.86274">
        <ele>53.5</ele>
        <time>2024-04-19T09:18:50.251Z</time>
      </trkpt>
      <trkpt lat="43.67282" lon="3.86267">
        <ele>53.8</ele>
        <time>2024-04-19T09:18:52.753Z</time>
      </trkpt>
      <trkpt lat="43.67316" lon="3.86243">
        <ele>54.5</ele>
        <time>2024-04-19T09:19:07.365Z</time>
      </trkpt>
      <trkpt lat="43.67329" lon="3.86232">
        <ele>54.9</ele>
        <time>2024-04-19T09:19:13.346Z</time>
      </trkpt>
      <trkpt lat="43.67338" lon="3.86216">
        <ele>56</ele>
        <time>2024-04-19T09:19:20.098Z</time>
      </trkpt>
      <trkpt lat="43.67344" lon="3.86208">
        <ele>57.2</ele>
        <time>2024-04-19T09:19:24.994Z</time>
      </trkpt>
      <trkpt lat="43.67355" lon="3.86196">
        <ele>58.8</ele>
        <time>2024-04-19T09:19:32.385Z</time>
      </trkpt>
      <trkpt lat="43.67361" lon="3.8619">
        <ele>59.6</ele>
        <time>2024-04-19T09:19:36.207Z</time>
      </trkpt>
      <trkpt lat="43.67366" lon="3.86186">
        <ele>60.2</ele>
        <time>2024-04-19T09:19:39.145Z</time>
      </trkpt>
      <trkpt lat="43.67376" lon="3.8618">
        <ele>61.1</ele>
        <time>2024-04-19T09:19:44.296Z</time>
      </trkpt>
      <trkpt lat="43.67389" lon="3.86166">
        <ele>63.1</ele>
        <time>2024-04-19T09:19:53.213Z</time>
      </trkpt>
      <trkpt lat="43.67394" lon="3.86159">
        <ele>63.5</ele>
        <time>2024-04-19T09:19:56.291Z</time>
      </trkpt>
      <trkpt lat="43.67398" lon="3.86153">
        <ele>64</ele>
        <time>2024-04-19T09:19:59.100Z</time>
      </trkpt>
      <trkpt lat="43.67401" lon="3.86139">
        <ele>65.6</ele>
        <time>2024-04-19T09:20:05.479Z</time>
      </trkpt>
      <trkpt lat="43.67401" lon="3.86125">
        <ele>67.1</ele>
        <time>2024-04-19T09:20:11.519Z</time>
      </trkpt>
      <trkpt lat="43.67404" lon="3.86114">
        <ele>68.1</ele>
        <time>2024-04-19T09:20:16.059Z</time>
      </trkpt>
      <trkpt lat="43.67407" lon="3.86104">
        <ele>68.8</ele>
        <time>2024-04-19T09:20:19.846Z</time>
      </trkpt>
      <trkpt lat="43.67409" lon="3.86098">
        <ele>69.1</ele>
        <time>2024-04-19T09:20:21.958Z</time>
      </trkpt>
      <trkpt lat="43.67403" lon="3.86076">
        <ele>69.6</ele>
        <time>2024-04-19T09:20:28.700Z</time>
      </trkpt>
      <trkpt lat="43.67401" lon="3.86068">
        <ele>69.1</ele>
        <time>2024-04-19T09:20:30.636Z</time>
      </trkpt>
      <trkpt lat="43.67401" lon="3.86036">
        <ele>66.6</ele>
        <time>2024-04-19T09:20:37.958Z</time>
      </trkpt>
      <trkpt lat="43.67398" lon="3.86024">
        <ele>65.2</ele>
        <time>2024-04-19T09:20:40.863Z</time>
      </trkpt>
      <trkpt lat="43.67398" lon="3.86016">
        <ele>64.2</ele>
        <time>2024-04-19T09:20:42.693Z</time>
      </trkpt>
      <trkpt lat="43.67401" lon="3.86">
        <ele>62.4</ele>
        <time>2024-04-19T09:20:46.475Z</time>
      </trkpt>
      <trkpt lat="43.67406" lon="3.85983">
        <ele>61.4</ele>
        <time>2024-04-19T09:20:50.673Z</time>
      </trkpt>
      <trkpt lat="43.67407" lon="3.85975">
        <ele>60.9</ele>
        <time>2024-04-19T09:20:52.531Z</time>
      </trkpt>
      <trkpt lat="43.67408" lon="3.85926">
        <ele>60.2</ele>
        <time>2024-04-19T09:21:04.601Z</time>
      </trkpt>
      <trkpt lat="43.67402" lon="3.85917">
        <ele>60.5</ele>
        <time>2024-04-19T09:21:08.161Z</time>
      </trkpt>
      <trkpt lat="43.67397" lon="3.85914">
        <ele>60.7</ele>
        <time>2024-04-19T09:21:10.373Z</time>
      </trkpt>
      <trkpt lat="43.67388" lon="3.85906">
        <ele>61</ele>
        <time>2024-04-19T09:21:14.596Z</time>
      </trkpt>
      <trkpt lat="43.67387" lon="3.85885">
        <ele>61.1</ele>
        <time>2024-04-19T09:21:20.212Z</time>
      </trkpt>
      <trkpt lat="43.67387" lon="3.85833">
        <ele>62.1</ele>
        <time>2024-04-19T09:21:34.989Z</time>
      </trkpt>
      <trkpt lat="43.67381" lon="3.85813">
        <ele>63</ele>
        <time>2024-04-19T09:21:41.790Z</time>
      </trkpt>
      <trkpt lat="43.67371" lon="3.85822">
        <ele>63.1</ele>
        <time>2024-04-19T09:21:46.217Z</time>
      </trkpt>
      <trkpt lat="43.6733" lon="3.85863">
        <ele>62.9</ele>
        <time>2024-04-19T09:22:04.289Z</time>
      </trkpt>
      <trkpt lat="43.67323" lon="3.85867">
        <ele>62.7</ele>
        <time>2024-04-19T09:22:06.816Z</time>
      </trkpt>
      <trkpt lat="43.67315" lon="3.8587">
        <ele>62.6</ele>
        <time>2024-04-19T09:22:09.704Z</time>
      </trkpt>
      <trkpt lat="43.67274" lon="3.85873">
        <ele>62.7</ele>
        <time>2024-04-19T09:22:24.659Z</time>
      </trkpt>
      <trkpt lat="43.67258" lon="3.8588">
        <ele>63</ele>
        <time>2024-04-19T09:22:31.073Z</time>
      </trkpt>
      <trkpt lat="43.67214" lon="3.85921">
        <ele>64.3</ele>
        <time>2024-04-19T09:22:51.782Z</time>
      </trkpt>
      <trkpt lat="43.67175" lon="3.85945">
        <ele>65.4</ele>
        <time>2024-04-19T09:23:08.510Z</time>
      </trkpt>
      <trkpt lat="43.67158" lon="3.85952">
        <ele>66.1</ele>
        <time>2024-04-19T09:23:15.772Z</time>
      </trkpt>
      <trkpt lat="43.67136" lon="3.85953">
        <ele>67.6</ele>
        <time>2024-04-19T09:23:25.678Z</time>
      </trkpt>
      <trkpt lat="43.67128" lon="3.85956">
        <ele>68</ele>
        <time>2024-04-19T09:23:29.170Z</time>
      </trkpt>
      <trkpt lat="43.67117" lon="3.85972">
        <ele>67.6</ele>
        <time>2024-04-19T09:23:34.520Z</time>
      </trkpt>
      <trkpt lat="43.67108" lon="3.86002">
        <ele>65</ele>
        <time>2024-04-19T09:23:41.951Z</time>
      </trkpt>
      <trkpt lat="43.67094" lon="3.86041">
        <ele>61.5</ele>
        <time>2024-04-19T09:23:51.913Z</time>
      </trkpt>
      <trkpt lat="43.67069" lon="3.86069">
        <ele>59.3</ele>
        <time>2024-04-19T09:24:02.090Z</time>
      </trkpt>
      <trkpt lat="43.67052" lon="3.86091">
        <ele>57.6</ele>
        <time>2024-04-19T09:24:09.456Z</time>
      </trkpt>
      <trkpt lat="43.67028" lon="3.86137">
        <ele>55.1</ele>
        <time>2024-04-19T09:24:22.433Z</time>
      </trkpt>
      <trkpt lat="43.67021" lon="3.86149">
        <ele>55.2</ele>
        <time>2024-04-19T09:24:26.578Z</time>
      </trkpt>
      <trkpt lat="43.67016" lon="3.86149">
        <ele>55.3</ele>
        <time>2024-04-19T09:24:28.502Z</time>
      </trkpt>
      <trkpt lat="43.67008" lon="3.86143">
        <ele>55.6</ele>
        <time>2024-04-19T09:24:32.151Z</time>
      </trkpt>
      <trkpt lat="43.67" lon="3.86133">
        <ele>56.2</ele>
        <time>2024-04-19T09:24:36.807Z</time>
      </trkpt>
      <trkpt lat="43.66998" lon="3.86123">
        <ele>56.6</ele>
        <time>2024-04-19T09:24:40.021Z</time>
      </trkpt>
      <trkpt lat="43.66985" lon="3.86093">
        <ele>58.3</ele>
        <time>2024-04-19T09:24:51.369Z</time>
      </trkpt>
      <trkpt lat="43.66967" lon="3.86076">
        <ele>58.3</ele>
        <time>2024-04-19T09:24:59.249Z</time>
      </trkpt>
      <trkpt lat="43.66934" lon="3.86069">
        <ele>57.7</ele>
        <time>2024-04-19T09:25:10.676Z</time>
      </trkpt>
      <trkpt lat="43.66929" lon="3.86071">
        <ele>57.8</ele>
        <time>2024-04-19T09:25:12.674Z</time>
      </trkpt>
      <trkpt lat="43.66918" lon="3.86081">
        <ele>58</ele>
        <time>2024-04-19T09:25:17.663Z</time>
      </trkpt>
      <trkpt lat="43.66908" lon="3.86091">
        <ele>59.6</ele>
        <time>2024-04-19T09:25:24.544Z</time>
      </trkpt>
      <trkpt lat="43.66902" lon="3.86097">
        <ele>60.6</ele>
        <time>2024-04-19T09:25:28.754Z</time>
      </trkpt>
      <trkpt lat="43.66897" lon="3.86098">
        <ele>61.5</ele>
        <time>2024-04-19T09:25:32.128Z</time>
      </trkpt>
      <trkpt lat="43.66893" lon="3.8609">
        <ele>62.3</ele>
        <time>2024-04-19T09:25:35.832Z</time>
      </trkpt>
      <trkpt lat="43.6689" lon="3.8608">
        <ele>62.8</ele>
        <time>2024-04-19T09:25:39.306Z</time>
      </trkpt>
      <trkpt lat="43.66876" lon="3.86017">
        <ele>65.3</ele>
        <time>2024-04-19T09:25:59.669Z</time>
      </trkpt>
      <trkpt lat="43.66867" lon="3.85998">
        <ele>66.9</ele>
        <time>2024-04-19T09:26:07.838Z</time>
      </trkpt>
      <trkpt lat="43.66866" lon="3.85939">
        <ele>66.7</ele>
        <time>2024-04-19T09:26:23.050Z</time>
      </trkpt>
      <trkpt lat="43.6686" lon="3.85917">
        <ele>67.1</ele>
        <time>2024-04-19T09:26:29.667Z</time>
      </trkpt>
      <trkpt lat="43.66844" lon="3.85895">
        <ele>67.8</ele>
        <time>2024-04-19T09:26:38.659Z</time>
      </trkpt>
      <trkpt lat="43.6683" lon="3.85869">
        <ele>68.3</ele>
        <time>2024-04-19T09:26:47.718Z</time>
      </trkpt>
      <trkpt lat="43.66824" lon="3.85826">
        <ele>68.3</ele>
        <time>2024-04-19T09:26:59.170Z</time>
      </trkpt>
      <trkpt lat="43.66819" lon="3.85805">
        <ele>68.5</ele>
        <time>2024-04-19T09:27:05.180Z</time>
      </trkpt>
      <trkpt lat="43.66808" lon="3.85772">
        <ele>69.2</ele>
        <time>2024-04-19T09:27:15.508Z</time>
      </trkpt>
      <trkpt lat="43.66794" lon="3.85761">
        <ele>70.6</ele>
        <time>2024-04-19T09:27:23.231Z</time>
      </trkpt>
      <trkpt lat="43.66782" lon="3.85754">
        <ele>71.7</ele>
        <time>2024-04-19T09:27:29.425Z</time>
      </trkpt>
      <trkpt lat="43.66776" lon="3.85768">
        <ele>72.2</ele>
        <time>2024-04-19T09:27:34.292Z</time>
      </trkpt>
      <trkpt lat="43.6677" lon="3.85772">
        <ele>72.8</ele>
        <time>2024-04-19T09:27:37.521Z</time>
      </trkpt>
      <trkpt lat="43.66763" lon="3.85762">
        <ele>73.6</ele>
        <time>2024-04-19T09:27:42.228Z</time>
        <extensions>
          <visugpx:TrkExtension xmlns:visugpx="https://www.visugpx.com/editgpx/">
            <visugpx:node>1</visugpx:node>
            </visugpx:TrkExtension>
        </extensions>
      </trkpt>
    </trkseg>
  </trk>
  <trk>
    <name><![CDATA[- jeudi 25 avril 2024 13:10 -]]></name>
    <extensions>
      <line xmlns="http://www.topografix.com/GPX/gpx_style/0/2">
        <color>FF0000</color>
        <width>4</width>
          <extensions>
            <sens>1</sens>
          </extensions>
      </line>
    </extensions>
    <trkseg>
      <trkpt lat="43.67529" lon="3.86781">
        <ele>54.1</ele>
        <time>2024-04-25T10:59:55.250Z</time>
      </trkpt>
      <trkpt lat="43.67531" lon="3.86789">
        <ele>54.4</ele>
        <time>2024-04-25T11:00:19.500Z</time>
      </trkpt>
      <trkpt lat="43.67532" lon="3.86798">
        <ele>54.6</ele>
        <time>2024-04-25T11:00:43.750Z</time>
      </trkpt>
      <trkpt lat="43.67534" lon="3.86806">
        <ele>54.8</ele>
        <time>2024-04-25T11:01:08.000Z</time>
      </trkpt>
      <trkpt lat="43.67536" lon="3.86815">
        <ele>55</ele>
        <time>2024-04-25T11:01:32.250Z</time>
      </trkpt>
      <trkpt lat="43.67538" lon="3.86824">
        <ele>55.3</ele>
        <time>2024-04-25T11:01:56.500Z</time>
      </trkpt>
      <trkpt lat="43.6754" lon="3.86832">
        <ele>55.5</ele>
        <time>2024-04-25T11:02:20.750Z</time>
      </trkpt>
      <trkpt lat="43.67542" lon="3.86841">
        <ele>55.8</ele>
        <time>2024-04-25T11:02:45.000Z</time>
      </trkpt>
      <trkpt lat="43.67543" lon="3.86849">
        <ele>56</ele>
        <time>2024-04-25T11:03:09.250Z</time>
      </trkpt>
      <trkpt lat="43.67545" lon="3.86858">
        <ele>56.3</ele>
        <time>2024-04-25T11:03:33.500Z</time>
      </trkpt>
      <trkpt lat="43.67547" lon="3.86867">
        <ele>56.5</ele>
        <time>2024-04-25T11:03:57.750Z</time>
      </trkpt>
      <trkpt lat="43.67549" lon="3.86875">
        <ele>56.7</ele>
        <time>2024-04-25T11:04:22.000Z</time>
      </trkpt>
      <trkpt lat="43.67551" lon="3.86884">
        <ele>57</ele>
        <time>2024-04-25T11:04:46.250Z</time>
      </trkpt>
      <trkpt lat="43.67552" lon="3.86892">
        <ele>57.2</ele>
        <time>2024-04-25T11:05:10.500Z</time>
      </trkpt>
      <trkpt lat="43.67554" lon="3.86901">
        <ele>57.5</ele>
        <time>2024-04-25T11:05:34.750Z</time>
      </trkpt>
      <trkpt lat="43.67556" lon="3.8691">
        <ele>57.7</ele>
        <time>2024-04-25T11:05:59.000Z</time>
      </trkpt>
      <trkpt lat="43.67558" lon="3.86918">
        <ele>57.8</ele>
        <time>2024-04-25T11:06:23.250Z</time>
      </trkpt>
      <trkpt lat="43.6756" lon="3.86927">
        <ele>57.7</ele>
        <time>2024-04-25T11:06:47.500Z</time>
      </trkpt>
      <trkpt lat="43.67561" lon="3.86935">
        <ele>57.6</ele>
        <time>2024-04-25T11:07:11.750Z</time>
      </trkpt>
      <trkpt lat="43.67563" lon="3.86944">
        <ele>57.4</ele>
        <time>2024-04-25T11:07:36.000Z</time>
      </trkpt>
      <trkpt lat="43.67565" lon="3.86953">
        <ele>57.6</ele>
        <time>2024-04-25T11:08:00.250Z</time>
      </trkpt>
      <trkpt lat="43.67567" lon="3.86961">
        <ele>57.8</ele>
        <time>2024-04-25T11:08:24.500Z</time>
      </trkpt>
      <trkpt lat="43.67569" lon="3.8697">
        <ele>58</ele>
        <time>2024-04-25T11:08:48.750Z</time>
      </trkpt>
      <trkpt lat="43.67571" lon="3.86978">
        <ele>58.1</ele>
        <time>2024-04-25T11:09:13.000Z</time>
      </trkpt>
      <trkpt lat="43.67572" lon="3.86987">
        <ele>58.3</ele>
        <time>2024-04-25T11:09:37.250Z</time>
      </trkpt>
      <trkpt lat="43.67574" lon="3.86995">
        <ele>58.5</ele>
        <time>2024-04-25T11:10:01.500Z</time>
      </trkpt>
      <trkpt lat="43.67576" lon="3.87004">
        <ele>58.8</ele>
        <time>2024-04-25T11:10:25.750Z</time>
      </trkpt>
      <trkpt lat="43.67578" lon="3.87013">
        <ele>59</ele>
        <time>2024-04-25T11:10:50.000Z</time>
      </trkpt>
      <trkpt lat="43.6758" lon="3.87021">
        <ele>59.2</ele>
        <time>2024-04-25T11:11:14.250Z</time>
      </trkpt>
      <trkpt lat="43.67581" lon="3.8703">
        <ele>59.5</ele>
        <time>2024-04-25T11:11:38.500Z</time>
      </trkpt>
      <trkpt lat="43.67583" lon="3.87038">
        <ele>60.2</ele>
        <time>2024-04-25T11:12:02.750Z</time>
      </trkpt>
      <trkpt lat="43.67594" lon="3.8705">
        <ele>60.4</ele>
        <time>2024-04-25T11:12:31.062Z</time>
      </trkpt>
      <trkpt lat="43.67599" lon="3.87052">
        <ele>60.1</ele>
        <time>2024-04-25T11:12:33.093Z</time>
      </trkpt>
      <trkpt lat="43.67662" lon="3.87146">
        <ele>59.2</ele>
        <time>2024-04-25T11:12:54.761Z</time>
      </trkpt>
      <trkpt lat="43.67671" lon="3.87196">
        <ele>60</ele>
        <time>2024-04-25T11:13:03.472Z</time>
      </trkpt>
      <trkpt lat="43.677" lon="3.87227">
        <ele>60.2</ele>
        <time>2024-04-25T11:13:12.041Z</time>
      </trkpt>
      <trkpt lat="43.67734" lon="3.87236">
        <ele>61.6</ele>
        <time>2024-04-25T11:13:20.134Z</time>
      </trkpt>
      <trkpt lat="43.67741" lon="3.87243">
        <ele>61.5</ele>
        <time>2024-04-25T11:13:22.153Z</time>
      </trkpt>
      <trkpt lat="43.67745" lon="3.87232">
        <ele>62.6</ele>
        <time>2024-04-25T11:13:24.234Z</time>
      </trkpt>
      <trkpt lat="43.67763" lon="3.87227">
        <ele>64.1</ele>
        <time>2024-04-25T11:13:28.526Z</time>
      </trkpt>
      <trkpt lat="43.67773" lon="3.87202">
        <ele>65.8</ele>
        <time>2024-04-25T11:13:33.357Z</time>
      </trkpt>
      <trkpt lat="43.67772" lon="3.87114">
        <ele>70.8</ele>
        <time>2024-04-25T11:13:48.240Z</time>
      </trkpt>
      <trkpt lat="43.67789" lon="3.87063">
        <ele>75.5</ele>
        <time>2024-04-25T11:13:50.271Z</time>
      </trkpt>
      <trkpt lat="43.6781" lon="3.87042">
        <ele>78.4</ele>
        <time>2024-04-25T11:13:52.302Z</time>
      </trkpt>
      <trkpt lat="43.67884" lon="3.86986">
        <ele>78.9</ele>
        <time>2024-04-25T11:14:28.844Z</time>
      </trkpt>
      <trkpt lat="43.67977" lon="3.87081">
        <ele>79.3</ele>
        <time>2024-04-25T11:15:18.931Z</time>
      </trkpt>
      <trkpt lat="43.68019" lon="3.87057">
        <ele>81.9</ele>
        <time>2024-04-25T11:15:38.617Z</time>
      </trkpt>
      <trkpt lat="43.68076" lon="3.87151">
        <ele>81.6</ele>
        <time>2024-04-25T11:16:17.047Z</time>
      </trkpt>
      <trkpt lat="43.68178" lon="3.87249">
        <ele>82.8</ele>
        <time>2024-04-25T11:17:10.851Z</time>
      </trkpt>
      <trkpt lat="43.68221" lon="3.87317">
        <ele>80.7</ele>
        <time>2024-04-25T11:17:39.148Z</time>
      </trkpt>
      <trkpt lat="43.68295" lon="3.87342">
        <ele>81.8</ele>
        <time>2024-04-25T11:18:12.146Z</time>
      </trkpt>
      <trkpt lat="43.68315" lon="3.87315">
        <ele>84.8</ele>
        <time>2024-04-25T11:18:24.254Z</time>
      </trkpt>
      <trkpt lat="43.68364" lon="3.87189">
        <ele>91.1</ele>
        <time>2024-04-25T11:19:09.071Z</time>
      </trkpt>
      <trkpt lat="43.68419" lon="3.87036">
        <ele>91.8</ele>
        <time>2024-04-25T11:20:02.595Z</time>
      </trkpt>
      <trkpt lat="43.68459" lon="3.86954">
        <ele>83.2</ele>
        <time>2024-04-25T11:20:33.580Z</time>
      </trkpt>
      <trkpt lat="43.68475" lon="3.86961">
        <ele>81.9</ele>
        <time>2024-04-25T11:20:40.849Z</time>
      </trkpt>
      <trkpt lat="43.685" lon="3.86995">
        <ele>79.9</ele>
        <time>2024-04-25T11:20:56.038Z</time>
      </trkpt>
      <trkpt lat="43.68567" lon="3.87144">
        <ele>70.7</ele>
        <time>2024-04-25T11:21:51.002Z</time>
      </trkpt>
      <trkpt lat="43.68562" lon="3.87165">
        <ele>71</ele>
        <time>2024-04-25T11:21:57.927Z</time>
      </trkpt>
      <trkpt lat="43.68549" lon="3.87183">
        <ele>71.9</ele>
        <time>2024-04-25T11:22:05.896Z</time>
      </trkpt>
      <trkpt lat="43.6845" lon="3.87274">
        <ele>74.2</ele>
        <time>2024-04-25T11:22:57.392Z</time>
      </trkpt>
      <trkpt lat="43.68324" lon="3.8738">
        <ele>78.1</ele>
        <time>2024-04-25T11:24:01.283Z</time>
      </trkpt>
      <trkpt lat="43.68322" lon="3.8744">
        <ele>78.8</ele>
        <time>2024-04-25T11:24:20.099Z</time>
      </trkpt>
      <trkpt lat="43.68297" lon="3.8746">
        <ele>78.7</ele>
        <time>2024-04-25T11:24:32.611Z</time>
      </trkpt>
      <trkpt lat="43.68204" lon="3.87443">
        <ele>76.3</ele>
        <time>2024-04-25T11:25:13.250Z</time>
      </trkpt>
      <trkpt lat="43.68205" lon="3.87455">
        <ele>76.4</ele>
        <time>2024-04-25T13:25:47+02:00</time>
      </trkpt>
      <trkpt lat="43.68201" lon="3.87463">
        <ele>76.2</ele>
        <time>2024-04-25T11:25:48.249Z</time>
      </trkpt>
      <trkpt lat="43.68198" lon="3.87471">
        <ele>76.1</ele>
        <time>2024-04-25T11:25:49.499Z</time>
      </trkpt>
      <trkpt lat="43.68194" lon="3.87478">
        <ele>76.2</ele>
        <time>2024-04-25T11:25:50.749Z</time>
      </trkpt>
      <trkpt lat="43.6819" lon="3.87486">
        <ele>76.3</ele>
        <time>2024-04-25T13:25:52+02:00</time>
      </trkpt>
      <trkpt lat="43.68189" lon="3.87495">
        <ele>76.6</ele>
        <time>2024-04-25T11:25:53.249Z</time>
      </trkpt>
      <trkpt lat="43.68187" lon="3.87504">
        <ele>77</ele>
        <time>2024-04-25T11:25:54.499Z</time>
      </trkpt>
      <trkpt lat="43.68186" lon="3.87513">
        <ele>77.5</ele>
        <time>2024-04-25T11:25:55.749Z</time>
      </trkpt>
      <trkpt lat="43.68184" lon="3.87522">
        <ele>77.9</ele>
        <time>2024-04-25T13:25:57+02:00</time>
      </trkpt>
      <trkpt lat="43.68182" lon="3.87531">
        <ele>78.3</ele>
        <time>2024-04-25T11:25:58.249Z</time>
      </trkpt>
      <trkpt lat="43.6818" lon="3.87541">
        <ele>78.9</ele>
        <time>2024-04-25T11:25:59.499Z</time>
      </trkpt>
      <trkpt lat="43.68178" lon="3.8755">
        <ele>79.4</ele>
        <time>2024-04-25T11:26:00.749Z</time>
      </trkpt>
      <trkpt lat="43.68176" lon="3.87559">
        <ele>79.8</ele>
        <time>2024-04-25T11:26:01.999Z</time>
      </trkpt>
      <trkpt lat="43.68173" lon="3.87568">
        <ele>79.9</ele>
        <time>2024-04-25T11:26:03.249Z</time>
      </trkpt>
      <trkpt lat="43.68171" lon="3.87578">
        <ele>80.1</ele>
        <time>2024-04-25T11:26:04.499Z</time>
      </trkpt>
      <trkpt lat="43.68169" lon="3.87587">
        <ele>80.3</ele>
        <time>2024-04-25T11:26:05.749Z</time>
      </trkpt>
      <trkpt lat="43.68167" lon="3.87596">
        <ele>80.5</ele>
        <time>2024-04-25T13:26:07+02:00</time>
      </trkpt>
      <trkpt lat="43.68164" lon="3.87606">
        <ele>80.6</ele>
        <time>2024-04-25T11:26:08.249Z</time>
      </trkpt>
      <trkpt lat="43.68162" lon="3.87615">
        <ele>80.9</ele>
        <time>2024-04-25T11:26:09.499Z</time>
      </trkpt>
      <trkpt lat="43.68159" lon="3.87625">
        <ele>81.3</ele>
        <time>2024-04-25T11:26:10.749Z</time>
      </trkpt>
      <trkpt lat="43.68157" lon="3.87634">
        <ele>81.6</ele>
        <time>2024-04-25T11:26:11.999Z</time>
      </trkpt>
      <trkpt lat="43.68154" lon="3.87644">
        <ele>81.8</ele>
        <time>2024-04-25T11:26:13.249Z</time>
      </trkpt>
      <trkpt lat="43.68151" lon="3.87653">
        <ele>81.8</ele>
        <time>2024-04-25T11:26:14.499Z</time>
      </trkpt>
      <trkpt lat="43.68149" lon="3.87663">
        <ele>81.9</ele>
        <time>2024-04-25T11:26:15.749Z</time>
      </trkpt>
      <trkpt lat="43.68145" lon="3.87673">
        <ele>81.7</ele>
        <time>2024-04-25T13:26:17+02:00</time>
      </trkpt>
      <trkpt lat="43.68145" lon="3.87681">
        <ele>81.6</ele>
        <time>2024-04-25T11:26:18.124Z</time>
      </trkpt>
      <trkpt lat="43.68144" lon="3.8769">
        <ele>81.5</ele>
        <time>2024-04-25T11:26:19.249Z</time>
      </trkpt>
      <trkpt lat="43.68143" lon="3.87699">
        <ele>81.2</ele>
        <time>2024-04-25T11:26:20.374Z</time>
      </trkpt>
      <trkpt lat="43.68142" lon="3.87708">
        <ele>80.8</ele>
        <time>2024-04-25T11:26:21.499Z</time>
      </trkpt>
      <trkpt lat="43.6814" lon="3.87716">
        <ele>80.3</ele>
        <time>2024-04-25T11:26:22.624Z</time>
      </trkpt>
      <trkpt lat="43.68139" lon="3.87725">
        <ele>79.6</ele>
        <time>2024-04-25T11:26:23.749Z</time>
      </trkpt>
      <trkpt lat="43.68138" lon="3.87734">
        <ele>78.2</ele>
        <time>2024-04-25T11:26:24.874Z</time>
      </trkpt>
      <trkpt lat="43.68137" lon="3.87743">
        <ele>77</ele>
        <time>2024-04-25T13:26:26+02:00</time>
      </trkpt>
      <trkpt lat="43.6814" lon="3.8775">
        <ele>76.2</ele>
        <time>2024-04-25T11:26:27.375Z</time>
      </trkpt>
      <trkpt lat="43.68144" lon="3.87756">
        <ele>76.4</ele>
        <time>2024-04-25T11:26:28.750Z</time>
      </trkpt>
      <trkpt lat="43.68147" lon="3.87763">
        <ele>76.6</ele>
        <time>2024-04-25T11:26:30.125Z</time>
      </trkpt>
      <trkpt lat="43.6815" lon="3.8777">
        <ele>76.6</ele>
        <time>2024-04-25T11:26:31.500Z</time>
      </trkpt>
      <trkpt lat="43.68153" lon="3.87776">
        <ele>76.6</ele>
        <time>2024-04-25T11:26:32.875Z</time>
      </trkpt>
      <trkpt lat="43.68157" lon="3.87783">
        <ele>76.5</ele>
        <time>2024-04-25T11:26:34.250Z</time>
      </trkpt>
      <trkpt lat="43.6816" lon="3.87789">
        <ele>76.2</ele>
        <time>2024-04-25T11:26:35.625Z</time>
      </trkpt>
      <trkpt lat="43.68156" lon="3.87794">
        <ele>76.1</ele>
        <time>2024-04-25T11:26:38.249Z</time>
      </trkpt>
      <trkpt lat="43.6815" lon="3.87791">
        <ele>76.3</ele>
        <time>2024-04-25T11:26:39.499Z</time>
      </trkpt>
      <trkpt lat="43.68143" lon="3.87789">
        <ele>76.4</ele>
        <time>2024-04-25T11:26:40.749Z</time>
      </trkpt>
      <trkpt lat="43.68136" lon="3.87787">
        <ele>76.3</ele>
        <time>2024-04-25T11:26:41.999Z</time>
      </trkpt>
      <trkpt lat="43.68129" lon="3.87784">
        <ele>76.3</ele>
        <time>2024-04-25T11:26:43.249Z</time>
      </trkpt>
      <trkpt lat="43.68123" lon="3.87782">
        <ele>76.2</ele>
        <time>2024-04-25T11:26:44.499Z</time>
      </trkpt>
      <trkpt lat="43.68116" lon="3.87779">
        <ele>76.1</ele>
        <time>2024-04-25T11:26:45.749Z</time>
      </trkpt>
      <trkpt lat="43.68109" lon="3.87777">
        <ele>76</ele>
        <time>2024-04-25T13:26:47+02:00</time>
      </trkpt>
      <trkpt lat="43.68104" lon="3.87778">
        <ele>76</ele>
        <time>2024-04-25T11:26:48.000Z</time>
      </trkpt>
      <trkpt lat="43.68098" lon="3.87778">
        <ele>76</ele>
        <time>2024-04-25T13:26:49+02:00</time>
      </trkpt>
      <trkpt lat="43.6809" lon="3.87775">
        <ele>75.9</ele>
        <time>2024-04-25T11:26:52.999Z</time>
      </trkpt>
      <trkpt lat="43.68082" lon="3.87772">
        <ele>75.8</ele>
        <time>2024-04-25T13:26:57+02:00</time>
      </trkpt>
      <trkpt lat="43.68078" lon="3.87769">
        <ele>75.6</ele>
        <time>2024-04-25T11:27:05.187Z</time>
      </trkpt>
      <trkpt lat="43.68073" lon="3.87765">
        <ele>75.4</ele>
        <time>2024-04-25T11:27:13.374Z</time>
      </trkpt>
      <trkpt lat="43.68069" lon="3.87762">
        <ele>75.1</ele>
        <time>2024-04-25T11:27:21.561Z</time>
      </trkpt>
      <trkpt lat="43.68064" lon="3.87759">
        <ele>74.8</ele>
        <time>2024-04-25T11:27:29.748Z</time>
      </trkpt>
      <trkpt lat="43.6806" lon="3.87755">
        <ele>74.5</ele>
        <time>2024-04-25T11:27:37.935Z</time>
      </trkpt>
      <trkpt lat="43.68055" lon="3.87752">
        <ele>74.2</ele>
        <time>2024-04-25T11:27:46.122Z</time>
      </trkpt>
      <trkpt lat="43.68051" lon="3.87749">
        <ele>74.2</ele>
        <time>2024-04-25T11:27:54.309Z</time>
      </trkpt>
      <trkpt lat="43.68047" lon="3.87746">
        <ele>74.3</ele>
        <time>2024-04-25T11:28:02.496Z</time>
      </trkpt>
      <trkpt lat="43.68042" lon="3.87742">
        <ele>74.3</ele>
        <time>2024-04-25T11:28:10.683Z</time>
      </trkpt>
      <trkpt lat="43.68038" lon="3.87739">
        <ele>74.4</ele>
        <time>2024-04-25T11:28:18.871Z</time>
      </trkpt>
      <trkpt lat="43.68033" lon="3.87736">
        <ele>74.4</ele>
        <time>2024-04-25T11:28:27.059Z</time>
      </trkpt>
      <trkpt lat="43.68029" lon="3.87732">
        <ele>74.4</ele>
        <time>2024-04-25T11:28:35.247Z</time>
      </trkpt>
      <trkpt lat="43.68024" lon="3.87729">
        <ele>74.1</ele>
        <time>2024-04-25T11:28:43.435Z</time>
      </trkpt>
      <trkpt lat="43.6802" lon="3.87726">
        <ele>73.9</ele>
        <time>2024-04-25T11:28:51.623Z</time>
      </trkpt>
      <trkpt lat="43.68015" lon="3.87722">
        <ele>73.6</ele>
        <time>2024-04-25T11:28:59.811Z</time>
      </trkpt>
      <trkpt lat="43.68011" lon="3.87719">
        <ele>73.3</ele>
        <time>2024-04-25T13:29:08+02:00</time>
      </trkpt>
      <trkpt lat="43.68006" lon="3.87718">
        <ele>73.1</ele>
        <time>2024-04-25T11:29:09.874Z</time>
      </trkpt>
      <trkpt lat="43.68002" lon="3.87717">
        <ele>72.9</ele>
        <time>2024-04-25T11:29:11.749Z</time>
      </trkpt>
      <trkpt lat="43.67997" lon="3.87715">
        <ele>72.7</ele>
        <time>2024-04-25T11:29:13.624Z</time>
      </trkpt>
      <trkpt lat="43.67992" lon="3.87714">
        <ele>72.6</ele>
        <time>2024-04-25T11:29:15.499Z</time>
      </trkpt>
      <trkpt lat="43.67988" lon="3.87713">
        <ele>72.5</ele>
        <time>2024-04-25T11:29:17.374Z</time>
      </trkpt>
      <trkpt lat="43.67983" lon="3.87712">
        <ele>72.4</ele>
        <time>2024-04-25T11:29:19.249Z</time>
      </trkpt>
      <trkpt lat="43.67978" lon="3.87711">
        <ele>72.3</ele>
        <time>2024-04-25T11:29:21.124Z</time>
      </trkpt>
      <trkpt lat="43.67974" lon="3.8771">
        <ele>72.1</ele>
        <time>2024-04-25T11:29:22.999Z</time>
      </trkpt>
      <trkpt lat="43.67969" lon="3.87708">
        <ele>72.1</ele>
        <time>2024-04-25T11:29:24.874Z</time>
      </trkpt>
      <trkpt lat="43.67964" lon="3.87707">
        <ele>72.2</ele>
        <time>2024-04-25T11:29:26.749Z</time>
      </trkpt>
      <trkpt lat="43.67959" lon="3.87706">
        <ele>72.3</ele>
        <time>2024-04-25T11:29:28.624Z</time>
      </trkpt>
      <trkpt lat="43.67955" lon="3.87705">
        <ele>72.4</ele>
        <time>2024-04-25T11:29:30.499Z</time>
      </trkpt>
      <trkpt lat="43.6795" lon="3.87704">
        <ele>72.5</ele>
        <time>2024-04-25T11:29:32.374Z</time>
      </trkpt>
      <trkpt lat="43.67945" lon="3.87702">
        <ele>72.5</ele>
        <time>2024-04-25T11:29:34.249Z</time>
      </trkpt>
      <trkpt lat="43.67941" lon="3.87701">
        <ele>72.8</ele>
        <time>2024-04-25T11:29:36.124Z</time>
      </trkpt>
      <trkpt lat="43.67936" lon="3.877">
        <ele>73.1</ele>
        <time>2024-04-25T13:29:38+02:00</time>
      </trkpt>
      <trkpt lat="43.67931" lon="3.87703">
        <ele>73.7</ele>
        <time>2024-04-25T11:29:39.249Z</time>
      </trkpt>
      <trkpt lat="43.67927" lon="3.87706">
        <ele>74.3</ele>
        <time>2024-04-25T11:29:40.499Z</time>
      </trkpt>
      <trkpt lat="43.67922" lon="3.87709">
        <ele>75</ele>
        <time>2024-04-25T11:29:41.749Z</time>
      </trkpt>
      <trkpt lat="43.67918" lon="3.87712">
        <ele>75.8</ele>
        <time>2024-04-25T11:29:42.999Z</time>
      </trkpt>
      <trkpt lat="43.67913" lon="3.87714">
        <ele>76.3</ele>
        <time>2024-04-25T11:29:44.249Z</time>
      </trkpt>
      <trkpt lat="43.67908" lon="3.87717">
        <ele>76.8</ele>
        <time>2024-04-25T11:29:45.499Z</time>
      </trkpt>
      <trkpt lat="43.67904" lon="3.8772">
        <ele>77.2</ele>
        <time>2024-04-25T11:29:46.749Z</time>
      </trkpt>
      <trkpt lat="43.67899" lon="3.87723">
        <ele>77.7</ele>
        <time>2024-04-25T13:29:48+02:00</time>
      </trkpt>
      <trkpt lat="43.67895" lon="3.87722">
        <ele>77.8</ele>
        <time>2024-04-25T11:29:50.499Z</time>
      </trkpt>
      <trkpt lat="43.67891" lon="3.87724">
        <ele>78.2</ele>
        <time>2024-04-25T11:29:52.999Z</time>
      </trkpt>
      <trkpt lat="43.67885" lon="3.87726">
        <ele>78.4</ele>
        <time>2024-04-25T11:29:55.499Z</time>
      </trkpt>
      <trkpt lat="43.6788" lon="3.87726">
        <ele>78.4</ele>
        <time>2024-04-25T13:29:58+02:00</time>
      </trkpt>
      <trkpt lat="43.67875" lon="3.87729">
        <ele>78.6</ele>
        <time>2024-04-25T11:30:04.892Z</time>
      </trkpt>
      <trkpt lat="43.67873" lon="3.87732">
        <ele>78.8</ele>
        <time>2024-04-25T11:30:08.624Z</time>
      </trkpt>
      <trkpt lat="43.67869" lon="3.87733">
        <ele>78.9</ele>
        <time>2024-04-25T11:30:19.249Z</time>
      </trkpt>
      <trkpt lat="43.67862" lon="3.87736">
        <ele>79</ele>
        <time>2024-04-25T11:30:29.874Z</time>
      </trkpt>
      <trkpt lat="43.67855" lon="3.87741">
        <ele>79.8</ele>
        <time>2024-04-25T11:30:35.905Z</time>
      </trkpt>
      <trkpt lat="43.67849" lon="3.87741">
        <ele>80.4</ele>
        <time>2024-04-25T11:30:40.499Z</time>
      </trkpt>
      <trkpt lat="43.67847" lon="3.87734">
        <ele>80.2</ele>
        <time>2024-04-25T11:30:51.124Z</time>
      </trkpt>
      <trkpt lat="43.67844" lon="3.87728">
        <ele>80.2</ele>
        <time>2024-04-25T11:31:01.749Z</time>
      </trkpt>
      <trkpt lat="43.67836" lon="3.8772">
        <ele>80.6</ele>
        <time>2024-04-25T11:31:12.374Z</time>
      </trkpt>
      <trkpt lat="43.6783" lon="3.87714">
        <ele>80.8</ele>
        <time>2024-04-25T11:31:22.999Z</time>
      </trkpt>
      <trkpt lat="43.67825" lon="3.87705">
        <ele>80.7</ele>
        <time>2024-04-25T11:31:33.624Z</time>
      </trkpt>
      <trkpt lat="43.67819" lon="3.87701">
        <ele>80.7</ele>
        <time>2024-04-25T11:31:44.249Z</time>
      </trkpt>
      <trkpt lat="43.67813" lon="3.87696">
        <ele>80.8</ele>
        <time>2024-04-25T11:31:54.874Z</time>
      </trkpt>
      <trkpt lat="43.67807" lon="3.87691">
        <ele>80.9</ele>
        <time>2024-04-25T11:32:05.499Z</time>
      </trkpt>
      <trkpt lat="43.67801" lon="3.87686">
        <ele>81</ele>
        <time>2024-04-25T11:32:16.124Z</time>
      </trkpt>
      <trkpt lat="43.67795" lon="3.87682">
        <ele>81</ele>
        <time>2024-04-25T11:32:26.749Z</time>
      </trkpt>
      <trkpt lat="43.67789" lon="3.87677">
        <ele>81</ele>
        <time>2024-04-25T11:32:37.374Z</time>
      </trkpt>
      <trkpt lat="43.67783" lon="3.87672">
        <ele>81</ele>
        <time>2024-04-25T13:32:48+02:00</time>
      </trkpt>
      <trkpt lat="43.6778" lon="3.87666">
        <ele>81</ele>
        <time>2024-04-25T11:32:49.249Z</time>
      </trkpt>
      <trkpt lat="43.67777" lon="3.8766">
        <ele>81</ele>
        <time>2024-04-25T11:32:50.499Z</time>
      </trkpt>
      <trkpt lat="43.67774" lon="3.87654">
        <ele>80.9</ele>
        <time>2024-04-25T11:32:51.749Z</time>
      </trkpt>
      <trkpt lat="43.67771" lon="3.87652">
        <ele>80.8</ele>
        <time>2024-04-25T11:32:52.999Z</time>
      </trkpt>
      <trkpt lat="43.67767" lon="3.87649">
        <ele>80.6</ele>
        <time>2024-04-25T11:32:54.249Z</time>
      </trkpt>
      <trkpt lat="43.67762" lon="3.87642">
        <ele>80.4</ele>
        <time>2024-04-25T11:32:55.499Z</time>
      </trkpt>
      <trkpt lat="43.6776" lon="3.87635">
        <ele>80.4</ele>
        <time>2024-04-25T11:32:56.749Z</time>
      </trkpt>
      <trkpt lat="43.67758" lon="3.87627">
        <ele>80.3</ele>
        <time>2024-04-25T13:32:58+02:00</time>
      </trkpt>
      <trkpt lat="43.67756" lon="3.87614">
        <ele>80.2</ele>
        <time>2024-04-25T11:33:00.499Z</time>
      </trkpt>
      <trkpt lat="43.67754" lon="3.87605">
        <ele>79.9</ele>
        <time>2024-04-25T11:33:02.999Z</time>
      </trkpt>
      <trkpt lat="43.67754" lon="3.87596">
        <ele>79.6</ele>
        <time>2024-04-25T11:33:05.499Z</time>
      </trkpt>
      <trkpt lat="43.67755" lon="3.8759">
        <ele>79.4</ele>
        <time>2024-04-25T13:33:08+02:00</time>
      </trkpt>
      <trkpt lat="43.67742" lon="3.87591">
        <ele>77.3</ele>
        <time>2024-04-25T11:33:12.999Z</time>
      </trkpt>
      <trkpt lat="43.67735" lon="3.87597">
        <ele>76.2</ele>
        <time>2024-04-25T13:33:18+02:00</time>
      </trkpt>
      <trkpt lat="43.67732" lon="3.87601">
        <ele>75.8</ele>
        <time>2024-04-25T11:33:20.499Z</time>
      </trkpt>
      <trkpt lat="43.67728" lon="3.87605">
        <ele>75.5</ele>
        <time>2024-04-25T11:33:22.999Z</time>
      </trkpt>
      <trkpt lat="43.67725" lon="3.87609">
        <ele>75.2</ele>
        <time>2024-04-25T11:33:25.499Z</time>
      </trkpt>
      <trkpt lat="43.67721" lon="3.87613">
        <ele>74.9</ele>
        <time>2024-04-25T13:33:28+02:00</time>
      </trkpt>
      <trkpt lat="43.67718" lon="3.87621">
        <ele>74.7</ele>
        <time>2024-04-25T11:33:30.499Z</time>
      </trkpt>
      <trkpt lat="43.67714" lon="3.87629">
        <ele>74.4</ele>
        <time>2024-04-25T11:33:32.999Z</time>
      </trkpt>
      <trkpt lat="43.67711" lon="3.87636">
        <ele>74.2</ele>
        <time>2024-04-25T11:33:35.499Z</time>
      </trkpt>
      <trkpt lat="43.67707" lon="3.87644">
        <ele>73.9</ele>
        <time>2024-04-25T13:33:38+02:00</time>
      </trkpt>
      <trkpt lat="43.67707" lon="3.87654">
        <ele>74.1</ele>
        <time>2024-04-25T11:33:40.499Z</time>
      </trkpt>
      <trkpt lat="43.67707" lon="3.87664">
        <ele>74.2</ele>
        <time>2024-04-25T11:33:42.999Z</time>
      </trkpt>
      <trkpt lat="43.67706" lon="3.87674">
        <ele>74.5</ele>
        <time>2024-04-25T11:33:45.499Z</time>
      </trkpt>
      <trkpt lat="43.67706" lon="3.87684">
        <ele>74.9</ele>
        <time>2024-04-25T13:33:48+02:00</time>
      </trkpt>
      <trkpt lat="43.67706" lon="3.87694">
        <ele>75.3</ele>
        <time>2024-04-25T11:33:50.500Z</time>
      </trkpt>
      <trkpt lat="43.67707" lon="3.87704">
        <ele>75.5</ele>
        <time>2024-04-25T11:33:53.000Z</time>
      </trkpt>
      <trkpt lat="43.67707" lon="3.87714">
        <ele>75.7</ele>
        <time>2024-04-25T11:33:55.500Z</time>
      </trkpt>
      <trkpt lat="43.67707" lon="3.87724">
        <ele>76.1</ele>
        <time>2024-04-25T13:33:58+02:00</time>
      </trkpt>
      <trkpt lat="43.67712" lon="3.87724">
        <ele>76.4</ele>
        <time>2024-04-25T11:34:03.000Z</time>
      </trkpt>
      <trkpt lat="43.67717" lon="3.87724">
        <ele>76.8</ele>
        <time>2024-04-25T13:34:08+02:00</time>
      </trkpt>
      <trkpt lat="43.67718" lon="3.87732">
        <ele>77.4</ele>
        <time>2024-04-25T11:34:11.750Z</time>
      </trkpt>
      <trkpt lat="43.67719" lon="3.87739">
        <ele>78</ele>
        <time>2024-04-25T11:34:15.500Z</time>
      </trkpt>
      <trkpt lat="43.6772" lon="3.87747">
        <ele>78.7</ele>
        <time>2024-04-25T11:34:19.250Z</time>
      </trkpt>
      <trkpt lat="43.67721" lon="3.87754">
        <ele>79.1</ele>
        <time>2024-04-25T11:34:23.000Z</time>
      </trkpt>
      <trkpt lat="43.67722" lon="3.87762">
        <ele>79.4</ele>
        <time>2024-04-25T11:34:26.750Z</time>
      </trkpt>
      <trkpt lat="43.67723" lon="3.87769">
        <ele>79.7</ele>
        <time>2024-04-25T11:34:30.500Z</time>
      </trkpt>
      <trkpt lat="43.67724" lon="3.87777">
        <ele>80.1</ele>
        <time>2024-04-25T11:34:34.250Z</time>
      </trkpt>
      <trkpt lat="43.67725" lon="3.87784">
        <ele>80.2</ele>
        <time>2024-04-25T11:34:38.000Z</time>
      </trkpt>
      <trkpt lat="43.67726" lon="3.87792">
        <ele>80.4</ele>
        <time>2024-04-25T11:34:41.750Z</time>
      </trkpt>
      <trkpt lat="43.67727" lon="3.87799">
        <ele>80.6</ele>
        <time>2024-04-25T11:34:45.500Z</time>
      </trkpt>
      <trkpt lat="43.67728" lon="3.87807">
        <ele>80.9</ele>
        <time>2024-04-25T11:34:49.250Z</time>
      </trkpt>
      <trkpt lat="43.67729" lon="3.87814">
        <ele>81.5</ele>
        <time>2024-04-25T11:34:53.000Z</time>
      </trkpt>
      <trkpt lat="43.6773" lon="3.87822">
        <ele>82.1</ele>
        <time>2024-04-25T11:34:56.750Z</time>
      </trkpt>
      <trkpt lat="43.67731" lon="3.87829">
        <ele>82.7</ele>
        <time>2024-04-25T11:35:00.500Z</time>
      </trkpt>
      <trkpt lat="43.67732" lon="3.87837">
        <ele>83.2</ele>
        <time>2024-04-25T11:35:04.250Z</time>
      </trkpt>
      <trkpt lat="43.67735" lon="3.87837">
        <ele>83.6</ele>
        <time>2024-04-25T13:35:08+02:00</time>
      </trkpt>
      <trkpt lat="43.67742" lon="3.87845">
        <ele>84.7</ele>
        <time>2024-04-25T11:35:12.375Z</time>
      </trkpt>
      <trkpt lat="43.67746" lon="3.87853">
        <ele>85.3</ele>
        <time>2024-04-25T11:35:16.750Z</time>
      </trkpt>
      <trkpt lat="43.67752" lon="3.87857">
        <ele>86</ele>
        <time>2024-04-25T11:35:21.125Z</time>
      </trkpt>
      <trkpt lat="43.67759" lon="3.87861">
        <ele>86.6</ele>
        <time>2024-04-25T11:35:25.500Z</time>
      </trkpt>
      <trkpt lat="43.67757" lon="3.87862">
        <ele>86.6</ele>
        <time>2024-04-25T11:35:27.082Z</time>
      </trkpt>
      <trkpt lat="43.67758" lon="3.87867">
        <ele>87</ele>
        <time>2024-04-25T11:35:29.875Z</time>
      </trkpt>
      <trkpt lat="43.67759" lon="3.87872">
        <ele>87.4</ele>
        <time>2024-04-25T11:35:31.474Z</time>
      </trkpt>
      <trkpt lat="43.67759" lon="3.87873">
        <ele>87.5</ele>
        <time>2024-04-25T11:35:31.782Z</time>
      </trkpt>
      <trkpt lat="43.67759" lon="3.87881">
        <ele>88.1</ele>
        <time>2024-04-25T11:35:34.250Z</time>
      </trkpt>
      <trkpt lat="43.67758" lon="3.87909">
        <ele>90.8</ele>
        <time>2024-04-25T11:35:38.625Z</time>
      </trkpt>
      <trkpt lat="43.67766" lon="3.87907">
        <ele>91.1</ele>
        <time>2024-04-25T11:35:43.000Z</time>
      </trkpt>
      <trkpt lat="43.67774" lon="3.87907">
        <ele>91.7</ele>
        <time>2024-04-25T11:35:47.375Z</time>
      </trkpt>
      <trkpt lat="43.67785" lon="3.87908">
        <ele>92</ele>
        <time>2024-04-25T11:35:51.750Z</time>
      </trkpt>
      <trkpt lat="43.67793" lon="3.87908">
        <ele>92.1</ele>
        <time>2024-04-25T11:35:56.125Z</time>
      </trkpt>
      <trkpt lat="43.67802" lon="3.87912">
        <ele>92.5</ele>
        <time>2024-04-25T11:36:00.500Z</time>
      </trkpt>
      <trkpt lat="43.6781" lon="3.87918">
        <ele>92.9</ele>
        <time>2024-04-25T11:36:04.875Z</time>
      </trkpt>
      <trkpt lat="43.67819" lon="3.87923">
        <ele>93</ele>
        <time>2024-04-25T11:41:23.500Z</time>
      </trkpt>
      <trkpt lat="43.67824" lon="3.87931">
        <ele>93.4</ele>
        <time>2024-04-25T13:41:26+02:00</time>
      </trkpt>
      <trkpt lat="43.67827" lon="3.87933">
        <ele>93.4</ele>
        <time>2024-04-25T11:41:28.500Z</time>
      </trkpt>
      <trkpt lat="43.67829" lon="3.87935">
        <ele>93.4</ele>
        <time>2024-04-25T11:41:30.721Z</time>
      </trkpt>
      <trkpt lat="43.67832" lon="3.87936">
        <ele>93.4</ele>
        <time>2024-04-25T11:41:33.500Z</time>
      </trkpt>
      <trkpt lat="43.67835" lon="3.87942">
        <ele>93.9</ele>
        <time>2024-04-25T13:41:36+02:00</time>
      </trkpt>
      <trkpt lat="43.6784" lon="3.87944">
        <ele>94.5</ele>
        <time>2024-04-25T11:41:38.500Z</time>
      </trkpt>
      <trkpt lat="43.67846" lon="3.87946">
        <ele>94.9</ele>
        <time>2024-04-25T11:41:41.000Z</time>
      </trkpt>
      <trkpt lat="43.67851" lon="3.87947">
        <ele>95.4</ele>
        <time>2024-04-25T11:41:43.500Z</time>
      </trkpt>
      <trkpt lat="43.67856" lon="3.87949">
        <ele>95.8</ele>
        <time>2024-04-25T13:41:46+02:00</time>
      </trkpt>
      <trkpt lat="43.6786" lon="3.87944">
        <ele>95.9</ele>
        <time>2024-04-25T11:41:47.500Z</time>
      </trkpt>
      <trkpt lat="43.67863" lon="3.87939">
        <ele>96.1</ele>
        <time>2024-04-25T13:41:49+02:00</time>
      </trkpt>
      <trkpt lat="43.67866" lon="3.87932">
        <ele>96.3</ele>
        <time>2024-04-25T11:41:50.750Z</time>
      </trkpt>
      <trkpt lat="43.67868" lon="3.87924">
        <ele>96.3</ele>
        <time>2024-04-25T11:41:52.500Z</time>
      </trkpt>
      <trkpt lat="43.67871" lon="3.87917">
        <ele>96.3</ele>
        <time>2024-04-25T11:41:54.250Z</time>
      </trkpt>
      <trkpt lat="43.67873" lon="3.87909">
        <ele>96.3</ele>
        <time>2024-04-25T13:41:56+02:00</time>
      </trkpt>
      <trkpt lat="43.67877" lon="3.87898">
        <ele>96.2</ele>
        <time>2024-04-25T11:41:58.500Z</time>
      </trkpt>
      <trkpt lat="43.67881" lon="3.87887">
        <ele>95.9</ele>
        <time>2024-04-25T11:42:01.000Z</time>
      </trkpt>
      <trkpt lat="43.67884" lon="3.87875">
        <ele>95.1</ele>
        <time>2024-04-25T11:42:03.500Z</time>
      </trkpt>
      <trkpt lat="43.67888" lon="3.87864">
        <ele>94.2</ele>
        <time>2024-04-25T13:42:06+02:00</time>
      </trkpt>
      <trkpt lat="43.67894" lon="3.87864">
        <ele>94.5</ele>
        <time>2024-04-25T11:42:08.500Z</time>
      </trkpt>
      <trkpt lat="43.679" lon="3.87864">
        <ele>94.7</ele>
        <time>2024-04-25T11:42:11.000Z</time>
      </trkpt>
      <trkpt lat="43.67906" lon="3.87864">
        <ele>94.9</ele>
        <time>2024-04-25T11:42:13.500Z</time>
      </trkpt>
      <trkpt lat="43.67912" lon="3.87864">
        <ele>95.1</ele>
        <time>2024-04-25T13:42:16+02:00</time>
      </trkpt>
      <trkpt lat="43.67918" lon="3.87866">
        <ele>95.4</ele>
        <time>2024-04-25T11:42:22.250Z</time>
      </trkpt>
      <trkpt lat="43.67924" lon="3.87868">
        <ele>95.2</ele>
        <time>2024-04-25T11:42:28.500Z</time>
      </trkpt>
      <trkpt lat="43.6793" lon="3.87869">
        <ele>95.1</ele>
        <time>2024-04-25T11:42:34.750Z</time>
      </trkpt>
      <trkpt lat="43.67936" lon="3.87871">
        <ele>94.9</ele>
        <time>2024-04-25T11:42:41.000Z</time>
      </trkpt>
      <trkpt lat="43.67942" lon="3.87873">
        <ele>94.8</ele>
        <time>2024-04-25T11:42:47.250Z</time>
      </trkpt>
      <trkpt lat="43.67948" lon="3.87875">
        <ele>94.6</ele>
        <time>2024-04-25T11:42:53.500Z</time>
      </trkpt>
      <trkpt lat="43.67954" lon="3.87876">
        <ele>94.3</ele>
        <time>2024-04-25T11:42:59.750Z</time>
      </trkpt>
      <trkpt lat="43.6796" lon="3.87878">
        <ele>94.1</ele>
        <time>2024-04-25T13:43:06+02:00</time>
      </trkpt>
      <trkpt lat="43.67965" lon="3.87882">
        <ele>94.3</ele>
        <time>2024-04-25T11:43:07.250Z</time>
      </trkpt>
      <trkpt lat="43.67971" lon="3.87886">
        <ele>94.6</ele>
        <time>2024-04-25T11:43:08.500Z</time>
      </trkpt>
      <trkpt lat="43.67976" lon="3.8789">
        <ele>94.8</ele>
        <time>2024-04-25T11:43:09.750Z</time>
      </trkpt>
      <trkpt lat="43.67982" lon="3.87894">
        <ele>94.9</ele>
        <time>2024-04-25T11:43:11.000Z</time>
      </trkpt>
      <trkpt lat="43.67987" lon="3.87898">
        <ele>95.1</ele>
        <time>2024-04-25T11:43:12.250Z</time>
      </trkpt>
      <trkpt lat="43.67992" lon="3.87902">
        <ele>95.2</ele>
        <time>2024-04-25T11:43:13.500Z</time>
      </trkpt>
      <trkpt lat="43.67998" lon="3.87906">
        <ele>95.3</ele>
        <time>2024-04-25T11:43:14.750Z</time>
      </trkpt>
      <trkpt lat="43.68003" lon="3.8791">
        <ele>95.3</ele>
        <time>2024-04-25T13:43:16+02:00</time>
      </trkpt>
      <trkpt lat="43.68007" lon="3.87915">
        <ele>95.4</ele>
        <time>2024-04-25T11:43:17.250Z</time>
      </trkpt>
      <trkpt lat="43.68012" lon="3.8792">
        <ele>95.5</ele>
        <time>2024-04-25T11:43:18.500Z</time>
      </trkpt>
      <trkpt lat="43.68016" lon="3.87925">
        <ele>95.6</ele>
        <time>2024-04-25T11:43:19.750Z</time>
      </trkpt>
      <trkpt lat="43.6802" lon="3.87931">
        <ele>95.5</ele>
        <time>2024-04-25T11:43:21.000Z</time>
      </trkpt>
      <trkpt lat="43.68024" lon="3.87936">
        <ele>95.5</ele>
        <time>2024-04-25T11:43:22.250Z</time>
      </trkpt>
      <trkpt lat="43.68029" lon="3.87941">
        <ele>95.4</ele>
        <time>2024-04-25T11:43:23.500Z</time>
      </trkpt>
      <trkpt lat="43.68033" lon="3.87946">
        <ele>95.8</ele>
        <time>2024-04-25T11:43:24.750Z</time>
      </trkpt>
      <trkpt lat="43.68037" lon="3.87951">
        <ele>96.1</ele>
        <time>2024-04-25T13:43:26+02:00</time>
      </trkpt>
      <trkpt lat="43.68038" lon="3.87958">
        <ele>96.9</ele>
        <time>2024-04-25T11:43:27.250Z</time>
      </trkpt>
      <trkpt lat="43.6804" lon="3.87965">
        <ele>97.7</ele>
        <time>2024-04-25T11:43:28.500Z</time>
      </trkpt>
      <trkpt lat="43.68041" lon="3.87972">
        <ele>98.5</ele>
        <time>2024-04-25T11:43:29.750Z</time>
      </trkpt>
      <trkpt lat="43.68042" lon="3.87979">
        <ele>98.9</ele>
        <time>2024-04-25T11:43:31.000Z</time>
      </trkpt>
      <trkpt lat="43.68043" lon="3.87985">
        <ele>99.4</ele>
        <time>2024-04-25T11:43:32.250Z</time>
      </trkpt>
      <trkpt lat="43.68045" lon="3.87992">
        <ele>100</ele>
        <time>2024-04-25T11:43:33.500Z</time>
      </trkpt>
      <trkpt lat="43.68046" lon="3.87999">
        <ele>100.6</ele>
        <time>2024-04-25T11:43:34.750Z</time>
      </trkpt>
      <trkpt lat="43.68047" lon="3.88006">
        <ele>101.3</ele>
        <time>2024-04-25T13:43:36+02:00</time>
      </trkpt>
      <trkpt lat="43.68049" lon="3.88">
        <ele>100.8</ele>
        <time>2024-04-25T11:43:38.500Z</time>
      </trkpt>
      <trkpt lat="43.68052" lon="3.87994">
        <ele>100.3</ele>
        <time>2024-04-25T11:43:41.000Z</time>
      </trkpt>
      <trkpt lat="43.68054" lon="3.87988">
        <ele>99.7</ele>
        <time>2024-04-25T11:43:43.500Z</time>
      </trkpt>
      <trkpt lat="43.68056" lon="3.87982">
        <ele>99.1</ele>
        <time>2024-04-25T13:43:46+02:00</time>
      </trkpt>
      <trkpt lat="43.6806" lon="3.87978">
        <ele>99.1</ele>
        <time>2024-04-25T11:43:47.250Z</time>
      </trkpt>
      <trkpt lat="43.68064" lon="3.87973">
        <ele>99</ele>
        <time>2024-04-25T11:43:48.500Z</time>
      </trkpt>
      <trkpt lat="43.68067" lon="3.87969">
        <ele>98.7</ele>
        <time>2024-04-25T11:43:49.750Z</time>
      </trkpt>
      <trkpt lat="43.68071" lon="3.87964">
        <ele>98.5</ele>
        <time>2024-04-25T11:43:51.000Z</time>
      </trkpt>
      <trkpt lat="43.68075" lon="3.8796">
        <ele>98.2</ele>
        <time>2024-04-25T11:43:52.250Z</time>
      </trkpt>
      <trkpt lat="43.68079" lon="3.87955">
        <ele>98</ele>
        <time>2024-04-25T11:43:53.500Z</time>
      </trkpt>
      <trkpt lat="43.68082" lon="3.87951">
        <ele>97.8</ele>
        <time>2024-04-25T11:43:54.750Z</time>
      </trkpt>
      <trkpt lat="43.68086" lon="3.87946">
        <ele>97</ele>
        <time>2024-04-25T13:43:56+02:00</time>
      </trkpt>
      <trkpt lat="43.68091" lon="3.87948">
        <ele>97</ele>
        <time>2024-04-25T11:43:57.250Z</time>
      </trkpt>
      <trkpt lat="43.68096" lon="3.87951">
        <ele>97</ele>
        <time>2024-04-25T11:43:58.500Z</time>
      </trkpt>
      <trkpt lat="43.68101" lon="3.87953">
        <ele>96.9</ele>
        <time>2024-04-25T11:43:59.750Z</time>
      </trkpt>
      <trkpt lat="43.68107" lon="3.87956">
        <ele>96.9</ele>
        <time>2024-04-25T11:44:01.000Z</time>
      </trkpt>
      <trkpt lat="43.68112" lon="3.87958">
        <ele>96.9</ele>
        <time>2024-04-25T11:44:02.250Z</time>
      </trkpt>
      <trkpt lat="43.68117" lon="3.8796">
        <ele>96.5</ele>
        <time>2024-04-25T11:44:03.500Z</time>
      </trkpt>
      <trkpt lat="43.68119" lon="3.87967">
        <ele>97.2</ele>
        <time>2024-04-25T11:44:04.750Z</time>
      </trkpt>
      <trkpt lat="43.68124" lon="3.87971">
        <ele>96.9</ele>
        <time>2024-04-25T13:44:06+02:00</time>
      </trkpt>
      <trkpt lat="43.68128" lon="3.8798">
        <ele>97.7</ele>
        <time>2024-04-25T11:44:33.500Z</time>
      </trkpt>
      <trkpt lat="43.68131" lon="3.87986">
        <ele>98.1</ele>
        <time>2024-04-25T11:45:01.000Z</time>
      </trkpt>
      <trkpt lat="43.68135" lon="3.87988">
        <ele>97.8</ele>
        <time>2024-04-25T11:45:28.500Z</time>
      </trkpt>
      <trkpt lat="43.68137" lon="3.87995">
        <ele>98.6</ele>
        <time>2024-04-25T13:45:56+02:00</time>
      </trkpt>
      <trkpt lat="43.68144" lon="3.88">
        <ele>98.8</ele>
        <time>2024-04-25T11:45:57.250Z</time>
      </trkpt>
      <trkpt lat="43.68151" lon="3.88005">
        <ele>99.6</ele>
        <time>2024-04-25T11:45:58.500Z</time>
      </trkpt>
      <trkpt lat="43.68158" lon="3.8801">
        <ele>100.1</ele>
        <time>2024-04-25T11:45:59.750Z</time>
      </trkpt>
      <trkpt lat="43.68165" lon="3.88015">
        <ele>100.4</ele>
        <time>2024-04-25T11:46:01.000Z</time>
      </trkpt>
      <trkpt lat="43.68171" lon="3.8802">
        <ele>100.7</ele>
        <time>2024-04-25T11:46:02.250Z</time>
      </trkpt>
      <trkpt lat="43.68178" lon="3.88025">
        <ele>100.9</ele>
        <time>2024-04-25T11:46:03.500Z</time>
      </trkpt>
      <trkpt lat="43.68185" lon="3.8803">
        <ele>100.9</ele>
        <time>2024-04-25T11:46:04.750Z</time>
      </trkpt>
      <trkpt lat="43.68192" lon="3.88035">
        <ele>100.5</ele>
        <time>2024-04-25T13:46:06+02:00</time>
      </trkpt>
      <trkpt lat="43.68196" lon="3.88039">
        <ele>100.5</ele>
        <time>2024-04-25T11:46:07.250Z</time>
      </trkpt>
      <trkpt lat="43.682" lon="3.88043">
        <ele>100.9</ele>
        <time>2024-04-25T11:46:08.500Z</time>
      </trkpt>
      <trkpt lat="43.68204" lon="3.88046">
        <ele>101.4</ele>
        <time>2024-04-25T11:46:09.750Z</time>
      </trkpt>
      <trkpt lat="43.68208" lon="3.8805">
        <ele>101.8</ele>
        <time>2024-04-25T11:46:11.000Z</time>
      </trkpt>
      <trkpt lat="43.68212" lon="3.88054">
        <ele>102.2</ele>
        <time>2024-04-25T11:46:12.250Z</time>
      </trkpt>
      <trkpt lat="43.68214" lon="3.88055">
        <ele>102.4</ele>
        <time>2024-04-25T13:46:16+02:00</time>
      </trkpt>
      <trkpt lat="43.68213" lon="3.8805">
        <ele>102.2</ele>
        <time>2024-04-25T11:46:17.500Z</time>
      </trkpt>
      <trkpt lat="43.68214" lon="3.88046">
        <ele>102.1</ele>
        <time>2024-04-25T11:46:19.000Z</time>
      </trkpt>
      <trkpt lat="43.68213" lon="3.8804">
        <ele>101.8</ele>
        <time>2024-04-25T11:46:19.909Z</time>
      </trkpt>
      <trkpt lat="43.68213" lon="3.88036">
        <ele>101.6</ele>
        <time>2024-04-25T11:46:20.500Z</time>
      </trkpt>
      <trkpt lat="43.68212" lon="3.88031">
        <ele>101.4</ele>
        <time>2024-04-25T11:46:21.326Z</time>
      </trkpt>
      <trkpt lat="43.68213" lon="3.88027">
        <ele>101.4</ele>
        <time>2024-04-25T13:46:22+02:00</time>
      </trkpt>
      <trkpt lat="43.68212" lon="3.88024">
        <ele>101.2</ele>
        <time>2024-04-25T11:46:22.999Z</time>
      </trkpt>
      <trkpt lat="43.6821" lon="3.88017">
        <ele>101</ele>
        <time>2024-04-25T11:46:23.567Z</time>
      </trkpt>
      <trkpt lat="43.68208" lon="3.88012">
        <ele>100.7</ele>
        <time>2024-04-25T11:46:23.999Z</time>
      </trkpt>
      <trkpt lat="43.68206" lon="3.88002">
        <ele>100.2</ele>
        <time>2024-04-25T11:46:24.999Z</time>
      </trkpt>
      <trkpt lat="43.68205" lon="3.87995">
        <ele>99.9</ele>
        <time>2024-04-25T13:46:26+02:00</time>
      </trkpt>
      <trkpt lat="43.68208" lon="3.8798">
        <ele>99.4</ele>
        <time>2024-04-25T11:46:28.499Z</time>
      </trkpt>
      <trkpt lat="43.68208" lon="3.87973">
        <ele>99</ele>
        <time>2024-04-25T11:46:30.999Z</time>
      </trkpt>
      <trkpt lat="43.68208" lon="3.87965">
        <ele>98.5</ele>
        <time>2024-04-25T11:46:33.499Z</time>
      </trkpt>
      <trkpt lat="43.68208" lon="3.87957">
        <ele>97.9</ele>
        <time>2024-04-25T13:46:36+02:00</time>
      </trkpt>
      <trkpt lat="43.68205" lon="3.87952">
        <ele>97.5</ele>
        <time>2024-04-25T11:46:37.249Z</time>
      </trkpt>
      <trkpt lat="43.68201" lon="3.87947">
        <ele>97.2</ele>
        <time>2024-04-25T11:46:38.499Z</time>
      </trkpt>
      <trkpt lat="43.68198" lon="3.87942">
        <ele>96.8</ele>
        <time>2024-04-25T11:46:39.749Z</time>
      </trkpt>
      <trkpt lat="43.68195" lon="3.87938">
        <ele>96.5</ele>
        <time>2024-04-25T11:46:40.999Z</time>
      </trkpt>
      <trkpt lat="43.68191" lon="3.87933">
        <ele>95.8</ele>
        <time>2024-04-25T11:46:42.249Z</time>
      </trkpt>
      <trkpt lat="43.68188" lon="3.87928">
        <ele>95.1</ele>
        <time>2024-04-25T11:46:43.499Z</time>
      </trkpt>
      <trkpt lat="43.68184" lon="3.87923">
        <ele>94.4</ele>
        <time>2024-04-25T11:46:44.749Z</time>
      </trkpt>
      <trkpt lat="43.68181" lon="3.87918">
        <ele>93.6</ele>
        <time>2024-04-25T13:46:46+02:00</time>
      </trkpt>
      <trkpt lat="43.68177" lon="3.87908">
        <ele>91.9</ele>
        <time>2024-04-25T11:46:48.499Z</time>
      </trkpt>
      <trkpt lat="43.68174" lon="3.87897">
        <ele>90.3</ele>
        <time>2024-04-25T11:46:50.999Z</time>
      </trkpt>
      <trkpt lat="43.6817" lon="3.87887">
        <ele>88.7</ele>
        <time>2024-04-25T11:46:53.499Z</time>
      </trkpt>
      <trkpt lat="43.68165" lon="3.87878">
        <ele>86.9</ele>
        <time>2024-04-25T13:46:56+02:00</time>
      </trkpt>
      <trkpt lat="43.68162" lon="3.87873">
        <ele>85.9</ele>
        <time>2024-04-25T11:46:58.499Z</time>
      </trkpt>
      <trkpt lat="43.6816" lon="3.87868">
        <ele>84.8</ele>
        <time>2024-04-25T11:47:00.999Z</time>
      </trkpt>
      <trkpt lat="43.68159" lon="3.8786">
        <ele>83.4</ele>
        <time>2024-04-25T11:47:02.119Z</time>
      </trkpt>
      <trkpt lat="43.68159" lon="3.8785">
        <ele>81.7</ele>
        <time>2024-04-25T11:47:03.499Z</time>
      </trkpt>
      <trkpt lat="43.68158" lon="3.87842">
        <ele>80.2</ele>
        <time>2024-04-25T13:47:06+02:00</time>
      </trkpt>
      <trkpt lat="43.68158" lon="3.87832">
        <ele>78.4</ele>
        <time>2024-04-25T11:47:11.000Z</time>
      </trkpt>
      <trkpt lat="43.68153" lon="3.87819">
        <ele>77.4</ele>
        <time>2024-04-25T13:47:16+02:00</time>
      </trkpt>
      <trkpt lat="43.68155" lon="3.87804">
        <ele>75.9</ele>
        <time>2024-04-25T11:47:21.000Z</time>
      </trkpt>
      <trkpt lat="43.68165" lon="3.878">
        <ele>75.5</ele>
        <time>2024-04-25T13:47:26+02:00</time>
      </trkpt>
      <trkpt lat="43.68171" lon="3.87806">
        <ele>75</ele>
        <time>2024-04-25T11:47:27.250Z</time>
      </trkpt>
      <trkpt lat="43.68177" lon="3.87812">
        <ele>75.5</ele>
        <time>2024-04-25T11:47:28.500Z</time>
      </trkpt>
      <trkpt lat="43.68183" lon="3.87818">
        <ele>75.8</ele>
        <time>2024-04-25T11:47:29.750Z</time>
      </trkpt>
      <trkpt lat="43.68189" lon="3.87824">
        <ele>75.9</ele>
        <time>2024-04-25T11:47:31.000Z</time>
      </trkpt>
      <trkpt lat="43.68194" lon="3.8783">
        <ele>75.9</ele>
        <time>2024-04-25T11:47:32.250Z</time>
      </trkpt>
      <trkpt lat="43.682" lon="3.87836">
        <ele>76.7</ele>
        <time>2024-04-25T11:47:33.500Z</time>
      </trkpt>
      <trkpt lat="43.68206" lon="3.87842">
        <ele>78</ele>
        <time>2024-04-25T11:47:34.750Z</time>
      </trkpt>
      <trkpt lat="43.68212" lon="3.87848">
        <ele>78.9</ele>
        <time>2024-04-25T13:47:36+02:00</time>
      </trkpt>
      <trkpt lat="43.68218" lon="3.87851">
        <ele>78.9</ele>
        <time>2024-04-25T11:47:37.250Z</time>
      </trkpt>
      <trkpt lat="43.68223" lon="3.87853">
        <ele>78.8</ele>
        <time>2024-04-25T11:47:38.500Z</time>
      </trkpt>
      <trkpt lat="43.68229" lon="3.87856">
        <ele>78.8</ele>
        <time>2024-04-25T11:47:39.750Z</time>
      </trkpt>
      <trkpt lat="43.68234" lon="3.87858">
        <ele>78.6</ele>
        <time>2024-04-25T11:47:41.000Z</time>
      </trkpt>
      <trkpt lat="43.6824" lon="3.87861">
        <ele>78.1</ele>
        <time>2024-04-25T11:47:42.250Z</time>
      </trkpt>
      <trkpt lat="43.68245" lon="3.87863">
        <ele>78</ele>
        <time>2024-04-25T11:47:43.500Z</time>
      </trkpt>
      <trkpt lat="43.68251" lon="3.87866">
        <ele>78.1</ele>
        <time>2024-04-25T11:47:44.750Z</time>
      </trkpt>
      <trkpt lat="43.68256" lon="3.87868">
        <ele>78.8</ele>
        <time>2024-04-25T13:47:46+02:00</time>
      </trkpt>
      <trkpt lat="43.68261" lon="3.87869">
        <ele>79</ele>
        <time>2024-04-25T11:47:46.750Z</time>
      </trkpt>
      <trkpt lat="43.68265" lon="3.8787">
        <ele>79.3</ele>
        <time>2024-04-25T11:47:47.500Z</time>
      </trkpt>
      <trkpt lat="43.6827" lon="3.87871">
        <ele>79.4</ele>
        <time>2024-04-25T11:47:48.250Z</time>
      </trkpt>
      <trkpt lat="43.68274" lon="3.87872">
        <ele>79.6</ele>
        <time>2024-04-25T13:47:49+02:00</time>
      </trkpt>
      <trkpt lat="43.68279" lon="3.87872">
        <ele>79.7</ele>
        <time>2024-04-25T11:47:49.875Z</time>
      </trkpt>
      <trkpt lat="43.68284" lon="3.87873">
        <ele>79.8</ele>
        <time>2024-04-25T11:47:50.750Z</time>
      </trkpt>
      <trkpt lat="43.68289" lon="3.87873">
        <ele>80</ele>
        <time>2024-04-25T11:47:51.625Z</time>
      </trkpt>
      <trkpt lat="43.68294" lon="3.87874">
        <ele>80.2</ele>
        <time>2024-04-25T11:47:52.500Z</time>
      </trkpt>
      <trkpt lat="43.68298" lon="3.87874">
        <ele>80.3</ele>
        <time>2024-04-25T11:47:53.375Z</time>
      </trkpt>
      <trkpt lat="43.68303" lon="3.87874">
        <ele>80.4</ele>
        <time>2024-04-25T11:47:54.250Z</time>
      </trkpt>
      <trkpt lat="43.68308" lon="3.87875">
        <ele>80.8</ele>
        <time>2024-04-25T11:47:55.125Z</time>
      </trkpt>
      <trkpt lat="43.68313" lon="3.87875">
        <ele>81.3</ele>
        <time>2024-04-25T13:47:56+02:00</time>
      </trkpt>
      <trkpt lat="43.68319" lon="3.87877">
        <ele>81.9</ele>
        <time>2024-04-25T11:47:57.250Z</time>
      </trkpt>
      <trkpt lat="43.68325" lon="3.87879">
        <ele>82.4</ele>
        <time>2024-04-25T11:47:58.500Z</time>
      </trkpt>
      <trkpt lat="43.68331" lon="3.8788">
        <ele>82.7</ele>
        <time>2024-04-25T11:47:59.750Z</time>
      </trkpt>
      <trkpt lat="43.68337" lon="3.87882">
        <ele>83</ele>
        <time>2024-04-25T11:48:01.000Z</time>
      </trkpt>
      <trkpt lat="43.68343" lon="3.87884">
        <ele>83.1</ele>
        <time>2024-04-25T11:48:02.250Z</time>
      </trkpt>
      <trkpt lat="43.68349" lon="3.87886">
        <ele>83.1</ele>
        <time>2024-04-25T11:48:03.500Z</time>
      </trkpt>
      <trkpt lat="43.68355" lon="3.87887">
        <ele>83.1</ele>
        <time>2024-04-25T11:48:04.750Z</time>
      </trkpt>
      <trkpt lat="43.68361" lon="3.87889">
        <ele>83</ele>
        <time>2024-04-25T13:48:06+02:00</time>
      </trkpt>
      <trkpt lat="43.68367" lon="3.87892">
        <ele>83.6</ele>
        <time>2024-04-25T11:48:07.250Z</time>
      </trkpt>
      <trkpt lat="43.68373" lon="3.87894">
        <ele>84</ele>
        <time>2024-04-25T11:48:08.500Z</time>
      </trkpt>
      <trkpt lat="43.68379" lon="3.87897">
        <ele>84.3</ele>
        <time>2024-04-25T11:48:09.750Z</time>
      </trkpt>
      <trkpt lat="43.68385" lon="3.879">
        <ele>84.5</ele>
        <time>2024-04-25T11:48:11.000Z</time>
      </trkpt>
      <trkpt lat="43.68391" lon="3.87902">
        <ele>84.7</ele>
        <time>2024-04-25T11:48:12.250Z</time>
      </trkpt>
      <trkpt lat="43.68397" lon="3.87905">
        <ele>85</ele>
        <time>2024-04-25T11:48:13.500Z</time>
      </trkpt>
      <trkpt lat="43.68403" lon="3.87907">
        <ele>85.3</ele>
        <time>2024-04-25T11:48:14.750Z</time>
      </trkpt>
      <trkpt lat="43.68409" lon="3.8791">
        <ele>85.7</ele>
        <time>2024-04-25T13:48:16+02:00</time>
      </trkpt>
      <trkpt lat="43.68414" lon="3.87909">
        <ele>86.1</ele>
        <time>2024-04-25T11:48:17.250Z</time>
      </trkpt>
      <trkpt lat="43.68419" lon="3.87909">
        <ele>86.4</ele>
        <time>2024-04-25T11:48:18.500Z</time>
      </trkpt>
      <trkpt lat="43.68424" lon="3.87908">
        <ele>86.6</ele>
        <time>2024-04-25T11:48:19.750Z</time>
      </trkpt>
      <trkpt lat="43.68429" lon="3.87908">
        <ele>86.8</ele>
        <time>2024-04-25T11:48:21.000Z</time>
      </trkpt>
      <trkpt lat="43.68433" lon="3.87907">
        <ele>87</ele>
        <time>2024-04-25T11:48:22.250Z</time>
      </trkpt>
      <trkpt lat="43.68438" lon="3.87906">
        <ele>87.2</ele>
        <time>2024-04-25T11:48:23.500Z</time>
      </trkpt>
      <trkpt lat="43.68443" lon="3.87906">
        <ele>87.3</ele>
        <time>2024-04-25T11:48:24.750Z</time>
      </trkpt>
      <trkpt lat="43.68448" lon="3.87905">
        <ele>87.7</ele>
        <time>2024-04-25T13:48:26+02:00</time>
      </trkpt>
      <trkpt lat="43.68453" lon="3.87901">
        <ele>88.2</ele>
        <time>2024-04-25T11:48:27.250Z</time>
      </trkpt>
      <trkpt lat="43.68458" lon="3.87898">
        <ele>88.7</ele>
        <time>2024-04-25T11:48:28.500Z</time>
      </trkpt>
      <trkpt lat="43.68463" lon="3.87894">
        <ele>89.2</ele>
        <time>2024-04-25T11:48:29.750Z</time>
      </trkpt>
      <trkpt lat="43.68469" lon="3.87891">
        <ele>89.7</ele>
        <time>2024-04-25T11:48:31.000Z</time>
      </trkpt>
      <trkpt lat="43.68474" lon="3.87887">
        <ele>90.3</ele>
        <time>2024-04-25T11:48:32.250Z</time>
      </trkpt>
      <trkpt lat="43.68479" lon="3.87883">
        <ele>91.3</ele>
        <time>2024-04-25T11:48:33.500Z</time>
      </trkpt>
      <trkpt lat="43.68484" lon="3.8788">
        <ele>92.2</ele>
        <time>2024-04-25T11:48:34.750Z</time>
      </trkpt>
      <trkpt lat="43.68489" lon="3.87876">
        <ele>93.1</ele>
        <time>2024-04-25T13:48:36+02:00</time>
      </trkpt>
      <trkpt lat="43.68494" lon="3.87875">
        <ele>93.7</ele>
        <time>2024-04-25T11:48:37.250Z</time>
      </trkpt>
      <trkpt lat="43.68499" lon="3.87875">
        <ele>94.4</ele>
        <time>2024-04-25T11:48:38.500Z</time>
      </trkpt>
      <trkpt lat="43.68504" lon="3.87874">
        <ele>95</ele>
        <time>2024-04-25T11:48:39.750Z</time>
      </trkpt>
      <trkpt lat="43.68509" lon="3.87873">
        <ele>95.6</ele>
        <time>2024-04-25T11:48:41.000Z</time>
      </trkpt>
      <trkpt lat="43.68513" lon="3.87872">
        <ele>96.2</ele>
        <time>2024-04-25T11:48:42.250Z</time>
      </trkpt>
      <trkpt lat="43.68518" lon="3.87872">
        <ele>96.8</ele>
        <time>2024-04-25T11:48:43.500Z</time>
      </trkpt>
      <trkpt lat="43.68523" lon="3.87871">
        <ele>97.4</ele>
        <time>2024-04-25T11:48:44.750Z</time>
      </trkpt>
      <trkpt lat="43.68528" lon="3.8787">
        <ele>98</ele>
        <time>2024-04-25T13:48:46+02:00</time>
      </trkpt>
      <trkpt lat="43.68533" lon="3.87874">
        <ele>98.8</ele>
        <time>2024-04-25T11:48:48.500Z</time>
      </trkpt>
      <trkpt lat="43.68538" lon="3.87877">
        <ele>99.7</ele>
        <time>2024-04-25T11:48:51.000Z</time>
      </trkpt>
      <trkpt lat="43.68543" lon="3.87881">
        <ele>100.6</ele>
        <time>2024-04-25T11:48:53.500Z</time>
      </trkpt>
      <trkpt lat="43.68548" lon="3.87884">
        <ele>101.5</ele>
        <time>2024-04-25T13:48:56+02:00</time>
      </trkpt>
      <trkpt lat="43.68548" lon="3.87895">
        <ele>101.8</ele>
        <time>2024-04-25T11:48:58.500Z</time>
      </trkpt>
      <trkpt lat="43.68548" lon="3.87906">
        <ele>102.2</ele>
        <time>2024-04-25T11:49:01.000Z</time>
      </trkpt>
      <trkpt lat="43.68548" lon="3.87916">
        <ele>102.6</ele>
        <time>2024-04-25T11:49:03.500Z</time>
      </trkpt>
      <trkpt lat="43.68548" lon="3.87927">
        <ele>102.9</ele>
        <time>2024-04-25T13:49:06+02:00</time>
      </trkpt>
      <trkpt lat="43.68548" lon="3.87934">
        <ele>103.1</ele>
        <time>2024-04-25T11:49:07.250Z</time>
      </trkpt>
      <trkpt lat="43.68548" lon="3.87942">
        <ele>103.2</ele>
        <time>2024-04-25T11:49:08.500Z</time>
      </trkpt>
      <trkpt lat="43.68548" lon="3.87949">
        <ele>103.2</ele>
        <time>2024-04-25T11:49:09.750Z</time>
      </trkpt>
      <trkpt lat="43.68548" lon="3.87957">
        <ele>103</ele>
        <time>2024-04-25T11:49:11.000Z</time>
      </trkpt>
      <trkpt lat="43.68547" lon="3.87964">
        <ele>102.7</ele>
        <time>2024-04-25T11:49:12.250Z</time>
      </trkpt>
      <trkpt lat="43.68547" lon="3.87971">
        <ele>102.5</ele>
        <time>2024-04-25T11:49:13.500Z</time>
      </trkpt>
      <trkpt lat="43.68547" lon="3.87979">
        <ele>102.2</ele>
        <time>2024-04-25T11:49:14.750Z</time>
      </trkpt>
      <trkpt lat="43.68547" lon="3.87986">
        <ele>101.8</ele>
        <time>2024-04-25T13:49:16+02:00</time>
      </trkpt>
      <trkpt lat="43.68547" lon="3.87993">
        <ele>101.5</ele>
        <time>2024-04-25T11:49:17.250Z</time>
      </trkpt>
      <trkpt lat="43.68548" lon="3.88">
        <ele>101.1</ele>
        <time>2024-04-25T11:49:18.500Z</time>
      </trkpt>
      <trkpt lat="43.68548" lon="3.88007">
        <ele>100.8</ele>
        <time>2024-04-25T11:49:19.750Z</time>
      </trkpt>
      <trkpt lat="43.68548" lon="3.88014">
        <ele>100.5</ele>
        <time>2024-04-25T11:49:21.000Z</time>
      </trkpt>
      <trkpt lat="43.68548" lon="3.8802">
        <ele>100.1</ele>
        <time>2024-04-25T11:49:22.250Z</time>
      </trkpt>
      <trkpt lat="43.68549" lon="3.88027">
        <ele>99.8</ele>
        <time>2024-04-25T11:49:23.500Z</time>
      </trkpt>
      <trkpt lat="43.68549" lon="3.88034">
        <ele>99.8</ele>
        <time>2024-04-25T11:49:24.750Z</time>
      </trkpt>
      <trkpt lat="43.68549" lon="3.88041">
        <ele>99.8</ele>
        <time>2024-04-25T13:49:26+02:00</time>
      </trkpt>
      <trkpt lat="43.68555" lon="3.88046">
        <ele>100</ele>
        <time>2024-04-25T11:49:28.500Z</time>
      </trkpt>
      <trkpt lat="43.68561" lon="3.8805">
        <ele>100.2</ele>
        <time>2024-04-25T11:49:31.000Z</time>
      </trkpt>
      <trkpt lat="43.68567" lon="3.88055">
        <ele>100.4</ele>
        <time>2024-04-25T11:49:33.500Z</time>
      </trkpt>
      <trkpt lat="43.68573" lon="3.88059">
        <ele>100.7</ele>
        <time>2024-04-25T13:49:36+02:00</time>
      </trkpt>
      <trkpt lat="43.6858" lon="3.88059">
        <ele>101</ele>
        <time>2024-04-25T13:49:46+02:00</time>
      </trkpt>
      <trkpt lat="43.68585" lon="3.8806">
        <ele>101.3</ele>
        <time>2024-04-25T11:49:56.000Z</time>
      </trkpt>
      <trkpt lat="43.6859" lon="3.88061">
        <ele>101.9</ele>
        <time>2024-04-25T11:50:06.000Z</time>
      </trkpt>
      <trkpt lat="43.68595" lon="3.88061">
        <ele>102.5</ele>
        <time>2024-04-25T11:50:16.000Z</time>
      </trkpt>
      <trkpt lat="43.686" lon="3.88062">
        <ele>103</ele>
        <time>2024-04-25T13:50:26+02:00</time>
      </trkpt>
      <trkpt lat="43.68608" lon="3.88065">
        <ele>104</ele>
        <time>2024-04-25T11:50:28.500Z</time>
      </trkpt>
      <trkpt lat="43.68616" lon="3.88068">
        <ele>105.2</ele>
        <time>2024-04-25T11:50:31.000Z</time>
      </trkpt>
      <trkpt lat="43.68623" lon="3.8807">
        <ele>106.7</ele>
        <time>2024-04-25T11:50:33.500Z</time>
      </trkpt>
      <trkpt lat="43.68631" lon="3.88073">
        <ele>108</ele>
        <time>2024-04-25T13:50:36+02:00</time>
      </trkpt>
      <trkpt lat="43.68636" lon="3.88075">
        <ele>108.9</ele>
        <time>2024-04-25T11:50:38.500Z</time>
      </trkpt>
      <trkpt lat="43.68642" lon="3.88078">
        <ele>109.8</ele>
        <time>2024-04-25T11:50:41.000Z</time>
      </trkpt>
      <trkpt lat="43.68647" lon="3.8808">
        <ele>110.8</ele>
        <time>2024-04-25T11:50:43.500Z</time>
      </trkpt>
      <trkpt lat="43.68652" lon="3.88082">
        <ele>111.9</ele>
        <time>2024-04-25T13:50:46+02:00</time>
      </trkpt>
      <trkpt lat="43.68657" lon="3.88092">
        <ele>113.1</ele>
        <time>2024-04-25T13:50:49+02:00</time>
      </trkpt>
      <trkpt lat="43.68661" lon="3.88097">
        <ele>113.9</ele>
        <time>2024-04-25T11:50:50.750Z</time>
      </trkpt>
      <trkpt lat="43.68664" lon="3.88102">
        <ele>114.6</ele>
        <time>2024-04-25T11:50:52.500Z</time>
      </trkpt>
      <trkpt lat="43.68668" lon="3.88107">
        <ele>115.2</ele>
        <time>2024-04-25T11:50:54.250Z</time>
      </trkpt>
      <trkpt lat="43.68671" lon="3.88112">
        <ele>116.2</ele>
        <time>2024-04-25T13:50:56+02:00</time>
      </trkpt>
      <trkpt lat="43.68669" lon="3.88121">
        <ele>116.6</ele>
        <time>2024-04-25T11:50:58.499Z</time>
      </trkpt>
      <trkpt lat="43.68668" lon="3.8813">
        <ele>117.2</ele>
        <time>2024-04-25T11:51:00.999Z</time>
      </trkpt>
      <trkpt lat="43.68666" lon="3.88139">
        <ele>117.9</ele>
        <time>2024-04-25T11:51:03.499Z</time>
      </trkpt>
      <trkpt lat="43.68664" lon="3.88148">
        <ele>118.7</ele>
        <time>2024-04-25T13:51:06+02:00</time>
      </trkpt>
      <trkpt lat="43.68659" lon="3.88155">
        <ele>118.8</ele>
        <time>2024-04-25T11:51:08.499Z</time>
      </trkpt>
      <trkpt lat="43.68653" lon="3.88162">
        <ele>119</ele>
        <time>2024-04-25T11:51:10.999Z</time>
      </trkpt>
      <trkpt lat="43.68648" lon="3.88168">
        <ele>119</ele>
        <time>2024-04-25T11:51:13.499Z</time>
      </trkpt>
      <trkpt lat="43.68642" lon="3.88175">
        <ele>118.6</ele>
        <time>2024-04-25T13:51:16+02:00</time>
      </trkpt>
      <trkpt lat="43.68644" lon="3.88181">
        <ele>119</ele>
        <time>2024-04-25T11:51:18.500Z</time>
      </trkpt>
      <trkpt lat="43.68645" lon="3.88188">
        <ele>119.4</ele>
        <time>2024-04-25T11:51:21.000Z</time>
      </trkpt>
      <trkpt lat="43.68647" lon="3.88194">
        <ele>119.8</ele>
        <time>2024-04-25T11:51:23.500Z</time>
      </trkpt>
      <trkpt lat="43.68648" lon="3.882">
        <ele>119.8</ele>
        <time>2024-04-25T13:51:26+02:00</time>
      </trkpt>
      <trkpt lat="43.68654" lon="3.88191">
        <ele>120.5</ele>
        <time>2024-04-25T11:51:31.000Z</time>
      </trkpt>
      <trkpt lat="43.6866" lon="3.88182">
        <ele>120.8</ele>
        <time>2024-04-25T13:51:36+02:00</time>
      </trkpt>
      <trkpt lat="43.68667" lon="3.88185">
        <ele>121.6</ele>
        <time>2024-04-25T11:51:38.500Z</time>
      </trkpt>
      <trkpt lat="43.68674" lon="3.88187">
        <ele>122.5</ele>
        <time>2024-04-25T11:51:41.000Z</time>
      </trkpt>
      <trkpt lat="43.6868" lon="3.8819">
        <ele>123.4</ele>
        <time>2024-04-25T11:51:43.500Z</time>
      </trkpt>
      <trkpt lat="43.68687" lon="3.88192">
        <ele>124.2</ele>
        <time>2024-04-25T13:51:46+02:00</time>
      </trkpt>
      <trkpt lat="43.68695" lon="3.88196">
        <ele>125</ele>
        <time>2024-04-25T11:51:51.000Z</time>
      </trkpt>
      <trkpt lat="43.68703" lon="3.88199">
        <ele>126.1</ele>
        <time>2024-04-25T13:51:56+02:00</time>
      </trkpt>
      <trkpt lat="43.68708" lon="3.88198">
        <ele>126.8</ele>
        <time>2024-04-25T11:52:01.000Z</time>
      </trkpt>
      <trkpt lat="43.68712" lon="3.88197">
        <ele>127.4</ele>
        <time>2024-04-25T13:52:06+02:00</time>
      </trkpt>
      <trkpt lat="43.68715" lon="3.88195">
        <ele>128</ele>
        <time>2024-04-25T11:54:55.500Z</time>
      </trkpt>
      <trkpt lat="43.68726" lon="3.8819">
        <ele>129.1</ele>
        <time>2024-04-25T13:55:13+02:00</time>
      </trkpt>
      <trkpt lat="43.6873" lon="3.8818">
        <ele>129.3</ele>
        <time>2024-04-25T11:55:23.000Z</time>
      </trkpt>
      <trkpt lat="43.68734" lon="3.88169">
        <ele>129.4</ele>
        <time>2024-04-25T13:55:33+02:00</time>
      </trkpt>
      <trkpt lat="43.68741" lon="3.88172">
        <ele>129.7</ele>
        <time>2024-04-25T11:55:38.000Z</time>
      </trkpt>
      <trkpt lat="43.68747" lon="3.88175">
        <ele>129.9</ele>
        <time>2024-04-25T13:55:43+02:00</time>
      </trkpt>
      <trkpt lat="43.6875" lon="3.88181">
        <ele>130</ele>
        <time>2024-04-25T11:55:44.250Z</time>
      </trkpt>
      <trkpt lat="43.68754" lon="3.88187">
        <ele>129.9</ele>
        <time>2024-04-25T11:55:45.500Z</time>
      </trkpt>
      <trkpt lat="43.68757" lon="3.88193">
        <ele>129.8</ele>
        <time>2024-04-25T11:55:46.750Z</time>
      </trkpt>
      <trkpt lat="43.6876" lon="3.88199">
        <ele>129.8</ele>
        <time>2024-04-25T11:55:48.000Z</time>
      </trkpt>
      <trkpt lat="43.68763" lon="3.88204">
        <ele>129.9</ele>
        <time>2024-04-25T11:55:49.250Z</time>
      </trkpt>
      <trkpt lat="43.68767" lon="3.8821">
        <ele>130</ele>
        <time>2024-04-25T11:55:50.500Z</time>
      </trkpt>
      <trkpt lat="43.6877" lon="3.88216">
        <ele>130.1</ele>
        <time>2024-04-25T11:55:51.750Z</time>
      </trkpt>
      <trkpt lat="43.68773" lon="3.88222">
        <ele>130.2</ele>
        <time>2024-04-25T13:55:53+02:00</time>
      </trkpt>
      <trkpt lat="43.68776" lon="3.8823">
        <ele>130.1</ele>
        <time>2024-04-25T11:55:54.250Z</time>
      </trkpt>
      <trkpt lat="43.6878" lon="3.88237">
        <ele>129.9</ele>
        <time>2024-04-25T11:55:55.500Z</time>
      </trkpt>
      <trkpt lat="43.68783" lon="3.88245">
        <ele>129.6</ele>
        <time>2024-04-25T11:55:56.750Z</time>
      </trkpt>
      <trkpt lat="43.68786" lon="3.88252">
        <ele>129.4</ele>
        <time>2024-04-25T11:55:58.000Z</time>
      </trkpt>
      <trkpt lat="43.68789" lon="3.8826">
        <ele>129.2</ele>
        <time>2024-04-25T11:55:59.250Z</time>
      </trkpt>
      <trkpt lat="43.68793" lon="3.88267">
        <ele>128.9</ele>
        <time>2024-04-25T11:56:00.500Z</time>
      </trkpt>
      <trkpt lat="43.68796" lon="3.88275">
        <ele>128.5</ele>
        <time>2024-04-25T11:56:01.750Z</time>
      </trkpt>
      <trkpt lat="43.68799" lon="3.88282">
        <ele>127.5</ele>
        <time>2024-04-25T13:56:03+02:00</time>
      </trkpt>
      <trkpt lat="43.68802" lon="3.88294">
        <ele>125.8</ele>
        <time>2024-04-25T11:56:05.500Z</time>
      </trkpt>
      <trkpt lat="43.68805" lon="3.88306">
        <ele>124.2</ele>
        <time>2024-04-25T11:56:08.000Z</time>
      </trkpt>
      <trkpt lat="43.68807" lon="3.88317">
        <ele>123.3</ele>
        <time>2024-04-25T11:56:10.500Z</time>
      </trkpt>
      <trkpt lat="43.6881" lon="3.88329">
        <ele>122.5</ele>
        <time>2024-04-25T13:56:13+02:00</time>
      </trkpt>
      <trkpt lat="43.68817" lon="3.88331">
        <ele>121.4</ele>
        <time>2024-04-25T11:56:15.500Z</time>
      </trkpt>
      <trkpt lat="43.68824" lon="3.88333">
        <ele>120.4</ele>
        <time>2024-04-25T11:56:18.000Z</time>
      </trkpt>
      <trkpt lat="43.68831" lon="3.88335">
        <ele>119.2</ele>
        <time>2024-04-25T11:56:20.500Z</time>
      </trkpt>
      <trkpt lat="43.68838" lon="3.88337">
        <ele>118.3</ele>
        <time>2024-04-25T13:56:23+02:00</time>
      </trkpt>
      <trkpt lat="43.68845" lon="3.88338">
        <ele>117.5</ele>
        <time>2024-04-25T11:56:24.250Z</time>
      </trkpt>
      <trkpt lat="43.68852" lon="3.8834">
        <ele>116.7</ele>
        <time>2024-04-25T11:56:25.500Z</time>
      </trkpt>
      <trkpt lat="43.68858" lon="3.88341">
        <ele>116</ele>
        <time>2024-04-25T11:56:26.750Z</time>
      </trkpt>
      <trkpt lat="43.68865" lon="3.88343">
        <ele>115.5</ele>
        <time>2024-04-25T11:56:28.000Z</time>
      </trkpt>
      <trkpt lat="43.68872" lon="3.88344">
        <ele>115.2</ele>
        <time>2024-04-25T11:56:29.250Z</time>
      </trkpt>
      <trkpt lat="43.68879" lon="3.88345">
        <ele>114.9</ele>
        <time>2024-04-25T11:56:30.500Z</time>
      </trkpt>
      <trkpt lat="43.68885" lon="3.88347">
        <ele>114.7</ele>
        <time>2024-04-25T11:56:31.750Z</time>
      </trkpt>
      <trkpt lat="43.68892" lon="3.88348">
        <ele>114.4</ele>
        <time>2024-04-25T13:56:33+02:00</time>
      </trkpt>
      <trkpt lat="43.689" lon="3.88351">
        <ele>114</ele>
        <time>2024-04-25T11:56:35.500Z</time>
      </trkpt>
      <trkpt lat="43.68907" lon="3.88354">
        <ele>113.6</ele>
        <time>2024-04-25T11:56:38.000Z</time>
      </trkpt>
      <trkpt lat="43.68915" lon="3.88357">
        <ele>113.2</ele>
        <time>2024-04-25T11:56:40.500Z</time>
      </trkpt>
      <trkpt lat="43.68922" lon="3.8836">
        <ele>112.8</ele>
        <time>2024-04-25T13:56:43+02:00</time>
      </trkpt>
      <trkpt lat="43.68927" lon="3.88362">
        <ele>112.6</ele>
        <time>2024-04-25T11:56:45.500Z</time>
      </trkpt>
      <trkpt lat="43.68931" lon="3.88364">
        <ele>112.4</ele>
        <time>2024-04-25T11:56:48.000Z</time>
      </trkpt>
      <trkpt lat="43.68936" lon="3.88365">
        <ele>112.2</ele>
        <time>2024-04-25T11:56:50.500Z</time>
      </trkpt>
      <trkpt lat="43.6894" lon="3.88367">
        <ele>111.9</ele>
        <time>2024-04-25T11:56:53.000Z</time>
      </trkpt>
      <trkpt lat="43.68945" lon="3.88369">
        <ele>111.7</ele>
        <time>2024-04-25T11:56:55.500Z</time>
      </trkpt>
      <trkpt lat="43.68949" lon="3.88371">
        <ele>111.7</ele>
        <time>2024-04-25T11:56:58.000Z</time>
      </trkpt>
      <trkpt lat="43.68954" lon="3.88372">
        <ele>111.6</ele>
        <time>2024-04-25T11:57:00.500Z</time>
      </trkpt>
      <trkpt lat="43.68958" lon="3.88374">
        <ele>111.5</ele>
        <time>2024-04-25T13:57:03+02:00</time>
      </trkpt>
      <trkpt lat="43.68963" lon="3.88375">
        <ele>111.5</ele>
        <time>2024-04-25T11:57:04.250Z</time>
      </trkpt>
      <trkpt lat="43.68969" lon="3.88375">
        <ele>111.5</ele>
        <time>2024-04-25T11:57:05.500Z</time>
      </trkpt>
      <trkpt lat="43.68974" lon="3.88376">
        <ele>111.5</ele>
        <time>2024-04-25T11:57:06.750Z</time>
      </trkpt>
      <trkpt lat="43.6898" lon="3.88377">
        <ele>111.4</ele>
        <time>2024-04-25T11:57:08.000Z</time>
      </trkpt>
      <trkpt lat="43.68985" lon="3.88377">
        <ele>111.4</ele>
        <time>2024-04-25T11:57:09.250Z</time>
      </trkpt>
      <trkpt lat="43.6899" lon="3.88378">
        <ele>111.4</ele>
        <time>2024-04-25T11:57:10.500Z</time>
      </trkpt>
      <trkpt lat="43.68996" lon="3.88378">
        <ele>111.4</ele>
        <time>2024-04-25T11:57:11.750Z</time>
      </trkpt>
      <trkpt lat="43.69001" lon="3.88379">
        <ele>111.4</ele>
        <time>2024-04-25T13:57:13+02:00</time>
      </trkpt>
      <trkpt lat="43.69006" lon="3.88384">
        <ele>111.2</ele>
        <time>2024-04-25T11:57:14.250Z</time>
      </trkpt>
      <trkpt lat="43.69011" lon="3.88389">
        <ele>111</ele>
        <time>2024-04-25T11:57:15.500Z</time>
      </trkpt>
      <trkpt lat="43.69016" lon="3.88394">
        <ele>110.8</ele>
        <time>2024-04-25T11:57:16.750Z</time>
      </trkpt>
      <trkpt lat="43.69022" lon="3.884">
        <ele>110.6</ele>
        <time>2024-04-25T11:57:18.000Z</time>
      </trkpt>
      <trkpt lat="43.69027" lon="3.88405">
        <ele>110.4</ele>
        <time>2024-04-25T11:57:19.250Z</time>
      </trkpt>
      <trkpt lat="43.69032" lon="3.8841">
        <ele>110.2</ele>
        <time>2024-04-25T11:57:20.500Z</time>
      </trkpt>
      <trkpt lat="43.69037" lon="3.88415">
        <ele>110</ele>
        <time>2024-04-25T11:57:21.750Z</time>
      </trkpt>
      <trkpt lat="43.69042" lon="3.8842">
        <ele>110.1</ele>
        <time>2024-04-25T13:57:23+02:00</time>
      </trkpt>
      <trkpt lat="43.69046" lon="3.88425">
        <ele>110.1</ele>
        <time>2024-04-25T11:57:24.250Z</time>
      </trkpt>
      <trkpt lat="43.69049" lon="3.88431">
        <ele>110.1</ele>
        <time>2024-04-25T11:57:25.500Z</time>
      </trkpt>
      <trkpt lat="43.69053" lon="3.88436">
        <ele>110.1</ele>
        <time>2024-04-25T11:57:26.750Z</time>
      </trkpt>
      <trkpt lat="43.69056" lon="3.88441">
        <ele>110</ele>
        <time>2024-04-25T13:57:28+02:00</time>
      </trkpt>
      <trkpt lat="43.69061" lon="3.88446">
        <ele>109.8</ele>
        <time>2024-04-25T11:57:29.250Z</time>
      </trkpt>
      <trkpt lat="43.69066" lon="3.88452">
        <ele>109.9</ele>
        <time>2024-04-25T11:57:30.500Z</time>
      </trkpt>
      <trkpt lat="43.6907" lon="3.88457">
        <ele>110.1</ele>
        <time>2024-04-25T11:57:31.750Z</time>
      </trkpt>
      <trkpt lat="43.69075" lon="3.88462">
        <ele>110.3</ele>
        <time>2024-04-25T13:57:33+02:00</time>
      </trkpt>
      <trkpt lat="43.6908" lon="3.88465">
        <ele>110.3</ele>
        <time>2024-04-25T11:57:34.250Z</time>
      </trkpt>
      <trkpt lat="43.69085" lon="3.88467">
        <ele>110.3</ele>
        <time>2024-04-25T11:57:35.500Z</time>
      </trkpt>
      <trkpt lat="43.69089" lon="3.8847">
        <ele>110.1</ele>
        <time>2024-04-25T11:57:36.750Z</time>
      </trkpt>
      <trkpt lat="43.69094" lon="3.88473">
        <ele>109.9</ele>
        <time>2024-04-25T11:57:38.000Z</time>
      </trkpt>
      <trkpt lat="43.69099" lon="3.88475">
        <ele>109.5</ele>
        <time>2024-04-25T11:57:39.250Z</time>
      </trkpt>
      <trkpt lat="43.69104" lon="3.88478">
        <ele>109.2</ele>
        <time>2024-04-25T11:57:40.500Z</time>
      </trkpt>
      <trkpt lat="43.69108" lon="3.8848">
        <ele>108.9</ele>
        <time>2024-04-25T11:57:41.750Z</time>
      </trkpt>
      <trkpt lat="43.69113" lon="3.88483">
        <ele>108.5</ele>
        <time>2024-04-25T13:57:43+02:00</time>
      </trkpt>
      <trkpt lat="43.6912" lon="3.88489">
        <ele>107.9</ele>
        <time>2024-04-25T11:57:44.250Z</time>
      </trkpt>
      <trkpt lat="43.69127" lon="3.88494">
        <ele>107.3</ele>
        <time>2024-04-25T11:57:45.500Z</time>
      </trkpt>
      <trkpt lat="43.69134" lon="3.885">
        <ele>106.7</ele>
        <time>2024-04-25T11:57:46.750Z</time>
      </trkpt>
      <trkpt lat="43.69141" lon="3.88505">
        <ele>106.1</ele>
        <time>2024-04-25T11:57:48.000Z</time>
      </trkpt>
      <trkpt lat="43.69148" lon="3.88511">
        <ele>105.6</ele>
        <time>2024-04-25T11:57:49.250Z</time>
      </trkpt>
      <trkpt lat="43.69155" lon="3.88516">
        <ele>105.1</ele>
        <time>2024-04-25T11:57:50.500Z</time>
      </trkpt>
      <trkpt lat="43.69162" lon="3.88522">
        <ele>104.4</ele>
        <time>2024-04-25T11:57:51.750Z</time>
      </trkpt>
      <trkpt lat="43.69169" lon="3.88527">
        <ele>103.6</ele>
        <time>2024-04-25T13:57:53+02:00</time>
      </trkpt>
      <trkpt lat="43.69175" lon="3.88534">
        <ele>102.9</ele>
        <time>2024-04-25T11:57:54.250Z</time>
      </trkpt>
      <trkpt lat="43.69181" lon="3.88541">
        <ele>102.2</ele>
        <time>2024-04-25T11:57:55.500Z</time>
      </trkpt>
      <trkpt lat="43.69187" lon="3.88547">
        <ele>101.6</ele>
        <time>2024-04-25T11:57:56.750Z</time>
      </trkpt>
      <trkpt lat="43.69193" lon="3.88554">
        <ele>101.2</ele>
        <time>2024-04-25T11:57:58.000Z</time>
      </trkpt>
      <trkpt lat="43.69198" lon="3.88561">
        <ele>100.5</ele>
        <time>2024-04-25T11:57:59.250Z</time>
      </trkpt>
      <trkpt lat="43.69204" lon="3.88568">
        <ele>99.8</ele>
        <time>2024-04-25T11:58:00.500Z</time>
      </trkpt>
      <trkpt lat="43.6921" lon="3.88574">
        <ele>98.9</ele>
        <time>2024-04-25T11:58:01.750Z</time>
      </trkpt>
      <trkpt lat="43.69216" lon="3.88581">
        <ele>98</ele>
        <time>2024-04-25T13:58:03+02:00</time>
      </trkpt>
      <trkpt lat="43.69221" lon="3.88589">
        <ele>97.1</ele>
        <time>2024-04-25T11:58:04.250Z</time>
      </trkpt>
      <trkpt lat="43.69225" lon="3.88596">
        <ele>96.2</ele>
        <time>2024-04-25T11:58:05.500Z</time>
      </trkpt>
      <trkpt lat="43.6923" lon="3.88604">
        <ele>95.4</ele>
        <time>2024-04-25T11:58:06.750Z</time>
      </trkpt>
      <trkpt lat="43.69235" lon="3.88612">
        <ele>94.7</ele>
        <time>2024-04-25T11:58:08.000Z</time>
      </trkpt>
      <trkpt lat="43.69239" lon="3.88619">
        <ele>94</ele>
        <time>2024-04-25T11:58:09.250Z</time>
      </trkpt>
      <trkpt lat="43.69244" lon="3.88627">
        <ele>93.4</ele>
        <time>2024-04-25T11:58:10.500Z</time>
      </trkpt>
      <trkpt lat="43.69248" lon="3.88634">
        <ele>93.1</ele>
        <time>2024-04-25T11:58:11.750Z</time>
      </trkpt>
      <trkpt lat="43.69253" lon="3.88642">
        <ele>92.9</ele>
        <time>2024-04-25T13:58:13+02:00</time>
      </trkpt>
      <trkpt lat="43.69256" lon="3.8865">
        <ele>92.9</ele>
        <time>2024-04-25T11:58:14.250Z</time>
      </trkpt>
      <trkpt lat="43.69258" lon="3.88659">
        <ele>92.9</ele>
        <time>2024-04-25T11:58:15.500Z</time>
      </trkpt>
      <trkpt lat="43.69261" lon="3.88667">
        <ele>93</ele>
        <time>2024-04-25T11:58:16.750Z</time>
      </trkpt>
      <trkpt lat="43.69263" lon="3.88675">
        <ele>93</ele>
        <time>2024-04-25T11:58:18.000Z</time>
      </trkpt>
      <trkpt lat="43.69266" lon="3.88683">
        <ele>93.1</ele>
        <time>2024-04-25T11:58:19.250Z</time>
      </trkpt>
      <trkpt lat="43.69268" lon="3.88692">
        <ele>93.3</ele>
        <time>2024-04-25T11:58:20.500Z</time>
      </trkpt>
      <trkpt lat="43.69271" lon="3.887">
        <ele>93.7</ele>
        <time>2024-04-25T11:58:21.750Z</time>
      </trkpt>
      <trkpt lat="43.69273" lon="3.88708">
        <ele>94.1</ele>
        <time>2024-04-25T13:58:23+02:00</time>
      </trkpt>
      <trkpt lat="43.69274" lon="3.88716">
        <ele>94.5</ele>
        <time>2024-04-25T11:58:25.500Z</time>
      </trkpt>
      <trkpt lat="43.69276" lon="3.88725">
        <ele>94.9</ele>
        <time>2024-04-25T11:58:28.000Z</time>
      </trkpt>
      <trkpt lat="43.69277" lon="3.88733">
        <ele>95.3</ele>
        <time>2024-04-25T11:58:30.500Z</time>
      </trkpt>
      <trkpt lat="43.69278" lon="3.88741">
        <ele>95.7</ele>
        <time>2024-04-25T13:58:33+02:00</time>
      </trkpt>
      <trkpt lat="43.69278" lon="3.88749">
        <ele>96</ele>
        <time>2024-04-25T11:58:37.999Z</time>
      </trkpt>
      <trkpt lat="43.69278" lon="3.88758">
        <ele>96</ele>
        <time>2024-04-25T11:58:42.999Z</time>
      </trkpt>
      <trkpt lat="43.69278" lon="3.88766">
        <ele>96</ele>
        <time>2024-04-25T11:58:47.999Z</time>
      </trkpt>
      <trkpt lat="43.69278" lon="3.88774">
        <ele>96</ele>
        <time>2024-04-25T11:58:52.999Z</time>
      </trkpt>
      <trkpt lat="43.69277" lon="3.88782">
        <ele>96.1</ele>
        <time>2024-04-25T11:58:57.999Z</time>
      </trkpt>
      <trkpt lat="43.69277" lon="3.88791">
        <ele>96.4</ele>
        <time>2024-04-25T11:59:02.999Z</time>
      </trkpt>
      <trkpt lat="43.69277" lon="3.88799">
        <ele>96.7</ele>
        <time>2024-04-25T11:59:07.999Z</time>
      </trkpt>
      <trkpt lat="43.69277" lon="3.88807">
        <ele>97</ele>
        <time>2024-04-25T13:59:13+02:00</time>
      </trkpt>
      <trkpt lat="43.6928" lon="3.88813">
        <ele>97.5</ele>
        <time>2024-04-25T11:59:14.250Z</time>
      </trkpt>
      <trkpt lat="43.69282" lon="3.88819">
        <ele>98.1</ele>
        <time>2024-04-25T11:59:15.500Z</time>
      </trkpt>
      <trkpt lat="43.69285" lon="3.88825">
        <ele>98.6</ele>
        <time>2024-04-25T11:59:16.750Z</time>
      </trkpt>
      <trkpt lat="43.69288" lon="3.88832">
        <ele>99</ele>
        <time>2024-04-25T11:59:18.000Z</time>
      </trkpt>
      <trkpt lat="43.6929" lon="3.88838">
        <ele>99.3</ele>
        <time>2024-04-25T11:59:19.250Z</time>
      </trkpt>
      <trkpt lat="43.69293" lon="3.88844">
        <ele>99.4</ele>
        <time>2024-04-25T11:59:20.500Z</time>
      </trkpt>
      <trkpt lat="43.69295" lon="3.8885">
        <ele>99.5</ele>
        <time>2024-04-25T11:59:21.750Z</time>
      </trkpt>
      <trkpt lat="43.69298" lon="3.88856">
        <ele>99.6</ele>
        <time>2024-04-25T13:59:23+02:00</time>
      </trkpt>
      <trkpt lat="43.69302" lon="3.88861">
        <ele>99.7</ele>
        <time>2024-04-25T11:59:25.500Z</time>
      </trkpt>
      <trkpt lat="43.69306" lon="3.88867">
        <ele>100</ele>
        <time>2024-04-25T11:59:28.000Z</time>
      </trkpt>
      <trkpt lat="43.69309" lon="3.88872">
        <ele>100.8</ele>
        <time>2024-04-25T11:59:30.500Z</time>
      </trkpt>
      <trkpt lat="43.69313" lon="3.88877">
        <ele>101.4</ele>
        <time>2024-04-25T13:59:33+02:00</time>
      </trkpt>
      <trkpt lat="43.69318" lon="3.88881">
        <ele>102</ele>
        <time>2024-04-25T11:59:34.250Z</time>
      </trkpt>
      <trkpt lat="43.69323" lon="3.88885">
        <ele>102.3</ele>
        <time>2024-04-25T11:59:35.500Z</time>
      </trkpt>
      <trkpt lat="43.69328" lon="3.88889">
        <ele>102.4</ele>
        <time>2024-04-25T11:59:36.750Z</time>
      </trkpt>
      <trkpt lat="43.69333" lon="3.88893">
        <ele>102.6</ele>
        <time>2024-04-25T11:59:38.000Z</time>
      </trkpt>
      <trkpt lat="43.69337" lon="3.88897">
        <ele>102.9</ele>
        <time>2024-04-25T11:59:39.250Z</time>
      </trkpt>
      <trkpt lat="43.69342" lon="3.88901">
        <ele>103.1</ele>
        <time>2024-04-25T11:59:40.500Z</time>
      </trkpt>
      <trkpt lat="43.69347" lon="3.88905">
        <ele>103.2</ele>
        <time>2024-04-25T11:59:41.750Z</time>
      </trkpt>
      <trkpt lat="43.69352" lon="3.88909">
        <ele>103.3</ele>
        <time>2024-04-25T13:59:43+02:00</time>
      </trkpt>
      <trkpt lat="43.69358" lon="3.88913">
        <ele>103.2</ele>
        <time>2024-04-25T11:59:44.500Z</time>
      </trkpt>
      <trkpt lat="43.69363" lon="3.88917">
        <ele>103.3</ele>
        <time>2024-04-25T11:59:46.000Z</time>
      </trkpt>
      <trkpt lat="43.69369" lon="3.88921">
        <ele>104</ele>
        <time>2024-04-25T11:59:47.500Z</time>
      </trkpt>
      <trkpt lat="43.69374" lon="3.88925">
        <ele>104.6</ele>
        <time>2024-04-25T13:59:49+02:00</time>
      </trkpt>
      <trkpt lat="43.69382" lon="3.88932">
        <ele>105</ele>
        <time>2024-04-25T11:59:51.000Z</time>
      </trkpt>
      <trkpt lat="43.69389" lon="3.88938">
        <ele>104.9</ele>
        <time>2024-04-25T13:59:53+02:00</time>
      </trkpt>
      <trkpt lat="43.69393" lon="3.88943">
        <ele>105</ele>
        <time>2024-04-25T11:59:54.250Z</time>
      </trkpt>
      <trkpt lat="43.69397" lon="3.88947">
        <ele>105.5</ele>
        <time>2024-04-25T11:59:55.500Z</time>
      </trkpt>
      <trkpt lat="43.69401" lon="3.88952">
        <ele>106.2</ele>
        <time>2024-04-25T11:59:56.750Z</time>
      </trkpt>
      <trkpt lat="43.69406" lon="3.88957">
        <ele>106.6</ele>
        <time>2024-04-25T11:59:58.000Z</time>
      </trkpt>
      <trkpt lat="43.6941" lon="3.88961">
        <ele>107</ele>
        <time>2024-04-25T11:59:59.250Z</time>
      </trkpt>
      <trkpt lat="43.69414" lon="3.88966">
        <ele>107.2</ele>
        <time>2024-04-25T12:00:00.500Z</time>
      </trkpt>
      <trkpt lat="43.69418" lon="3.8897">
        <ele>107.4</ele>
        <time>2024-04-25T12:00:01.750Z</time>
      </trkpt>
      <trkpt lat="43.69422" lon="3.88975">
        <ele>108.2</ele>
        <time>2024-04-25T14:00:03+02:00</time>
      </trkpt>
      <trkpt lat="43.69428" lon="3.88983">
        <ele>109.2</ele>
        <time>2024-04-25T12:00:05.500Z</time>
      </trkpt>
      <trkpt lat="43.69435" lon="3.88991">
        <ele>109.8</ele>
        <time>2024-04-25T12:00:08.000Z</time>
      </trkpt>
      <trkpt lat="43.69441" lon="3.88999">
        <ele>109.8</ele>
        <time>2024-04-25T12:00:10.500Z</time>
      </trkpt>
      <trkpt lat="43.69447" lon="3.89007">
        <ele>110.5</ele>
        <time>2024-04-25T14:00:13+02:00</time>
      </trkpt>
      <trkpt lat="43.69451" lon="3.89017">
        <ele>111</ele>
        <time>2024-04-25T12:00:15.500Z</time>
      </trkpt>
      <trkpt lat="43.69455" lon="3.89027">
        <ele>111.2</ele>
        <time>2024-04-25T12:00:18.000Z</time>
      </trkpt>
      <trkpt lat="43.69459" lon="3.89036">
        <ele>111.7</ele>
        <time>2024-04-25T12:00:20.500Z</time>
      </trkpt>
      <trkpt lat="43.69463" lon="3.89046">
        <ele>112</ele>
        <time>2024-04-25T14:00:23+02:00</time>
      </trkpt>
      <trkpt lat="43.69463" lon="3.89057">
        <ele>112.1</ele>
        <time>2024-04-25T12:00:25.500Z</time>
      </trkpt>
      <trkpt lat="43.69463" lon="3.89068">
        <ele>113.2</ele>
        <time>2024-04-25T12:00:28.000Z</time>
      </trkpt>
      <trkpt lat="43.69463" lon="3.89079">
        <ele>114.2</ele>
        <time>2024-04-25T12:00:30.500Z</time>
      </trkpt>
      <trkpt lat="43.69463" lon="3.8909">
        <ele>115.1</ele>
        <time>2024-04-25T14:00:33+02:00</time>
      </trkpt>
      <trkpt lat="43.69465" lon="3.89097">
        <ele>115.4</ele>
        <time>2024-04-25T12:00:34.250Z</time>
      </trkpt>
      <trkpt lat="43.69467" lon="3.89105">
        <ele>115.6</ele>
        <time>2024-04-25T12:00:35.500Z</time>
      </trkpt>
      <trkpt lat="43.69469" lon="3.89112">
        <ele>115.7</ele>
        <time>2024-04-25T12:00:36.750Z</time>
      </trkpt>
      <trkpt lat="43.69471" lon="3.8912">
        <ele>116.2</ele>
        <time>2024-04-25T12:00:38.000Z</time>
      </trkpt>
      <trkpt lat="43.69472" lon="3.89127">
        <ele>116.7</ele>
        <time>2024-04-25T12:00:39.250Z</time>
      </trkpt>
      <trkpt lat="43.69474" lon="3.89134">
        <ele>117.4</ele>
        <time>2024-04-25T12:00:40.500Z</time>
      </trkpt>
      <trkpt lat="43.69476" lon="3.89142">
        <ele>117.8</ele>
        <time>2024-04-25T12:00:41.750Z</time>
      </trkpt>
      <trkpt lat="43.69478" lon="3.89149">
        <ele>118</ele>
        <time>2024-04-25T14:00:43+02:00</time>
      </trkpt>
      <trkpt lat="43.69482" lon="3.8916">
        <ele>118.4</ele>
        <time>2024-04-25T12:00:45.500Z</time>
      </trkpt>
      <trkpt lat="43.69486" lon="3.89172">
        <ele>118.5</ele>
        <time>2024-04-25T12:00:48.000Z</time>
      </trkpt>
      <trkpt lat="43.69489" lon="3.89183">
        <ele>118.5</ele>
        <time>2024-04-25T12:00:50.500Z</time>
      </trkpt>
      <trkpt lat="43.69493" lon="3.89194">
        <ele>118.7</ele>
        <time>2024-04-25T14:00:53+02:00</time>
      </trkpt>
      <trkpt lat="43.69497" lon="3.89197">
        <ele>118.8</ele>
        <time>2024-04-25T12:00:54.250Z</time>
      </trkpt>
      <trkpt lat="43.69501" lon="3.892">
        <ele>118.8</ele>
        <time>2024-04-25T12:00:55.500Z</time>
      </trkpt>
      <trkpt lat="43.69505" lon="3.89203">
        <ele>118.8</ele>
        <time>2024-04-25T12:00:56.750Z</time>
      </trkpt>
      <trkpt lat="43.6951" lon="3.89206">
        <ele>118.7</ele>
        <time>2024-04-25T12:00:58.000Z</time>
      </trkpt>
      <trkpt lat="43.69514" lon="3.89209">
        <ele>118.7</ele>
        <time>2024-04-25T12:00:59.250Z</time>
      </trkpt>
      <trkpt lat="43.69518" lon="3.89212">
        <ele>118.8</ele>
        <time>2024-04-25T12:01:00.500Z</time>
      </trkpt>
      <trkpt lat="43.69522" lon="3.89215">
        <ele>118.8</ele>
        <time>2024-04-25T12:01:01.750Z</time>
      </trkpt>
      <trkpt lat="43.69526" lon="3.89218">
        <ele>118.9</ele>
        <time>2024-04-25T14:01:03+02:00</time>
      </trkpt>
      <trkpt lat="43.69525" lon="3.89229">
        <ele>118.4</ele>
        <time>2024-04-25T12:01:05.249Z</time>
      </trkpt>
      <trkpt lat="43.69525" lon="3.89241">
        <ele>117.6</ele>
        <time>2024-04-25T12:01:07.499Z</time>
      </trkpt>
      <trkpt lat="43.69524" lon="3.89252">
        <ele>116.7</ele>
        <time>2024-04-25T12:01:09.749Z</time>
      </trkpt>
      <trkpt lat="43.69523" lon="3.89263">
        <ele>115.8</ele>
        <time>2024-04-25T14:01:12+02:00</time>
      </trkpt>
      <trkpt lat="43.69519" lon="3.89267">
        <ele>115.3</ele>
        <time>2024-04-25T12:01:12.874Z</time>
      </trkpt>
      <trkpt lat="43.69516" lon="3.89271">
        <ele>114.7</ele>
        <time>2024-04-25T12:01:13.749Z</time>
      </trkpt>
      <trkpt lat="43.69512" lon="3.89275">
        <ele>114.1</ele>
        <time>2024-04-25T12:01:14.624Z</time>
      </trkpt>
      <trkpt lat="43.69508" lon="3.8928">
        <ele>113.5</ele>
        <time>2024-04-25T12:01:15.499Z</time>
      </trkpt>
      <trkpt lat="43.69504" lon="3.89284">
        <ele>112.9</ele>
        <time>2024-04-25T12:01:16.374Z</time>
      </trkpt>
      <trkpt lat="43.69501" lon="3.89288">
        <ele>112.3</ele>
        <time>2024-04-25T12:01:17.249Z</time>
      </trkpt>
      <trkpt lat="43.69497" lon="3.89292">
        <ele>111.9</ele>
        <time>2024-04-25T12:01:18.124Z</time>
      </trkpt>
      <trkpt lat="43.69493" lon="3.89296">
        <ele>111.6</ele>
        <time>2024-04-25T14:01:19+02:00</time>
      </trkpt>
      <trkpt lat="43.69489" lon="3.89299">
        <ele>111.4</ele>
        <time>2024-04-25T12:01:19.874Z</time>
      </trkpt>
      <trkpt lat="43.69485" lon="3.89301">
        <ele>111.2</ele>
        <time>2024-04-25T12:01:20.749Z</time>
      </trkpt>
      <trkpt lat="43.6948" lon="3.89304">
        <ele>111.1</ele>
        <time>2024-04-25T12:01:21.624Z</time>
      </trkpt>
      <trkpt lat="43.69476" lon="3.89307">
        <ele>111</ele>
        <time>2024-04-25T12:01:22.499Z</time>
      </trkpt>
      <trkpt lat="43.69472" lon="3.89309">
        <ele>111.1</ele>
        <time>2024-04-25T12:01:23.374Z</time>
      </trkpt>
      <trkpt lat="43.69468" lon="3.89312">
        <ele>110.9</ele>
        <time>2024-04-25T12:01:24.249Z</time>
      </trkpt>
      <trkpt lat="43.69463" lon="3.89314">
        <ele>110.7</ele>
        <time>2024-04-25T12:01:25.124Z</time>
      </trkpt>
      <trkpt lat="43.69459" lon="3.89317">
        <ele>110.5</ele>
        <time>2024-04-25T12:01:25.999Z</time>
      </trkpt>
      <trkpt lat="43.69455" lon="3.8932">
        <ele>110.2</ele>
        <time>2024-04-25T12:01:26.874Z</time>
      </trkpt>
      <trkpt lat="43.69451" lon="3.89322">
        <ele>110</ele>
        <time>2024-04-25T12:01:27.749Z</time>
      </trkpt>
      <trkpt lat="43.69446" lon="3.89325">
        <ele>109.8</ele>
        <time>2024-04-25T12:01:28.624Z</time>
      </trkpt>
      <trkpt lat="43.69442" lon="3.89328">
        <ele>109.7</ele>
        <time>2024-04-25T12:01:29.499Z</time>
      </trkpt>
      <trkpt lat="43.69438" lon="3.8933">
        <ele>109.5</ele>
        <time>2024-04-25T12:01:30.374Z</time>
      </trkpt>
      <trkpt lat="43.69434" lon="3.89333">
        <ele>109.2</ele>
        <time>2024-04-25T12:01:31.249Z</time>
      </trkpt>
      <trkpt lat="43.69429" lon="3.89335">
        <ele>109.1</ele>
        <time>2024-04-25T12:01:32.124Z</time>
      </trkpt>
      <trkpt lat="43.69425" lon="3.89338">
        <ele>108.9</ele>
        <time>2024-04-25T14:01:33+02:00</time>
      </trkpt>
      <trkpt lat="43.6943" lon="3.8934">
        <ele>109.4</ele>
        <time>2024-04-25T12:01:35.500Z</time>
      </trkpt>
      <trkpt lat="43.69436" lon="3.89341">
        <ele>109.9</ele>
        <time>2024-04-25T12:01:38.000Z</time>
      </trkpt>
      <trkpt lat="43.69441" lon="3.89343">
        <ele>110.4</ele>
        <time>2024-04-25T12:01:40.500Z</time>
      </trkpt>
      <trkpt lat="43.69446" lon="3.89344">
        <ele>110.9</ele>
        <time>2024-04-25T14:01:43+02:00</time>
      </trkpt>
      <trkpt lat="43.69453" lon="3.89346">
        <ele>111.5</ele>
        <time>2024-04-25T12:01:45.500Z</time>
      </trkpt>
      <trkpt lat="43.69459" lon="3.89349">
        <ele>112.1</ele>
        <time>2024-04-25T12:01:48.000Z</time>
      </trkpt>
      <trkpt lat="43.69466" lon="3.89351">
        <ele>112.8</ele>
        <time>2024-04-25T12:01:50.500Z</time>
      </trkpt>
      <trkpt lat="43.69472" lon="3.89353">
        <ele>113.4</ele>
        <time>2024-04-25T14:01:53+02:00</time>
      </trkpt>
      <trkpt lat="43.69479" lon="3.89357">
        <ele>113.9</ele>
        <time>2024-04-25T12:01:55.500Z</time>
      </trkpt>
      <trkpt lat="43.69486" lon="3.89361">
        <ele>114.5</ele>
        <time>2024-04-25T12:01:58.000Z</time>
      </trkpt>
      <trkpt lat="43.69493" lon="3.89364">
        <ele>115.1</ele>
        <time>2024-04-25T12:02:00.500Z</time>
      </trkpt>
      <trkpt lat="43.695" lon="3.89368">
        <ele>115.7</ele>
        <time>2024-04-25T14:02:03+02:00</time>
      </trkpt>
      <trkpt lat="43.69508" lon="3.89372">
        <ele>116.1</ele>
        <time>2024-04-25T12:02:05.500Z</time>
      </trkpt>
      <trkpt lat="43.69516" lon="3.89377">
        <ele>116.4</ele>
        <time>2024-04-25T12:02:08.000Z</time>
      </trkpt>
      <trkpt lat="43.69523" lon="3.89381">
        <ele>116.5</ele>
        <time>2024-04-25T12:02:10.500Z</time>
      </trkpt>
      <trkpt lat="43.69531" lon="3.89385">
        <ele>116.6</ele>
        <time>2024-04-25T14:02:13+02:00</time>
      </trkpt>
      <trkpt lat="43.69537" lon="3.89394">
        <ele>116.7</ele>
        <time>2024-04-25T12:02:15.500Z</time>
      </trkpt>
      <trkpt lat="43.69542" lon="3.89403">
        <ele>116.2</ele>
        <time>2024-04-25T12:02:18.000Z</time>
      </trkpt>
      <trkpt lat="43.69548" lon="3.89411">
        <ele>115.4</ele>
        <time>2024-04-25T12:02:20.500Z</time>
      </trkpt>
      <trkpt lat="43.69553" lon="3.8942">
        <ele>114.6</ele>
        <time>2024-04-25T14:02:23+02:00</time>
      </trkpt>
      <trkpt lat="43.69556" lon="3.89426">
        <ele>114.6</ele>
        <time>2024-04-25T12:02:24.250Z</time>
      </trkpt>
      <trkpt lat="43.69559" lon="3.89432">
        <ele>114.6</ele>
        <time>2024-04-25T12:02:25.500Z</time>
      </trkpt>
      <trkpt lat="43.69562" lon="3.89438">
        <ele>114.5</ele>
        <time>2024-04-25T12:02:26.750Z</time>
      </trkpt>
      <trkpt lat="43.69565" lon="3.89444">
        <ele>114.3</ele>
        <time>2024-04-25T12:02:28.000Z</time>
      </trkpt>
      <trkpt lat="43.69568" lon="3.89449">
        <ele>113.9</ele>
        <time>2024-04-25T12:02:29.250Z</time>
      </trkpt>
      <trkpt lat="43.69571" lon="3.89455">
        <ele>113.6</ele>
        <time>2024-04-25T12:02:30.500Z</time>
      </trkpt>
      <trkpt lat="43.69574" lon="3.89461">
        <ele>113.3</ele>
        <time>2024-04-25T12:02:31.750Z</time>
      </trkpt>
      <trkpt lat="43.69577" lon="3.89467">
        <ele>113</ele>
        <time>2024-04-25T14:02:33+02:00</time>
      </trkpt>
      <trkpt lat="43.69583" lon="3.89476">
        <ele>112.4</ele>
        <time>2024-04-25T12:02:35.500Z</time>
      </trkpt>
      <trkpt lat="43.69588" lon="3.89485">
        <ele>112.2</ele>
        <time>2024-04-25T12:02:38.000Z</time>
      </trkpt>
      <trkpt lat="43.69594" lon="3.89494">
        <ele>111.8</ele>
        <time>2024-04-25T12:02:40.500Z</time>
      </trkpt>
      <trkpt lat="43.69599" lon="3.89503">
        <ele>111.3</ele>
        <time>2024-04-25T14:02:43+02:00</time>
      </trkpt>
      <trkpt lat="43.69601" lon="3.89512">
        <ele>111.2</ele>
        <time>2024-04-25T12:02:44.500Z</time>
      </trkpt>
      <trkpt lat="43.69603" lon="3.89521">
        <ele>111.2</ele>
        <time>2024-04-25T12:02:46.000Z</time>
      </trkpt>
      <trkpt lat="43.69605" lon="3.89529">
        <ele>111.1</ele>
        <time>2024-04-25T12:02:47.500Z</time>
      </trkpt>
      <trkpt lat="43.69607" lon="3.89538">
        <ele>110.7</ele>
        <time>2024-04-25T14:02:49+02:00</time>
      </trkpt>
      <trkpt lat="43.69609" lon="3.89544">
        <ele>110.4</ele>
        <time>2024-04-25T12:02:50.000Z</time>
      </trkpt>
      <trkpt lat="43.69611" lon="3.8955">
        <ele>110</ele>
        <time>2024-04-25T12:02:51.000Z</time>
      </trkpt>
      <trkpt lat="43.69613" lon="3.89555">
        <ele>109.6</ele>
        <time>2024-04-25T12:02:52.000Z</time>
      </trkpt>
      <trkpt lat="43.69615" lon="3.89561">
        <ele>109.3</ele>
        <time>2024-04-25T14:02:53+02:00</time>
      </trkpt>
      <trkpt lat="43.69618" lon="3.89573">
        <ele>108.8</ele>
        <time>2024-04-25T12:02:55.000Z</time>
      </trkpt>
      <trkpt lat="43.69621" lon="3.89584">
        <ele>108.2</ele>
        <time>2024-04-25T14:02:57+02:00</time>
      </trkpt>
      <trkpt lat="43.69623" lon="3.89591">
        <ele>107.8</ele>
        <time>2024-04-25T12:02:58.500Z</time>
      </trkpt>
      <trkpt lat="43.69626" lon="3.89598">
        <ele>107.4</ele>
        <time>2024-04-25T12:03:00.000Z</time>
      </trkpt>
      <trkpt lat="43.69628" lon="3.89604">
        <ele>106.9</ele>
        <time>2024-04-25T12:03:01.500Z</time>
      </trkpt>
      <trkpt lat="43.6963" lon="3.89611">
        <ele>106.6</ele>
        <time>2024-04-25T14:03:03+02:00</time>
      </trkpt>
      <trkpt lat="43.69622" lon="3.89613">
        <ele>108.8</ele>
        <time>2024-04-25T12:03:07.999Z</time>
      </trkpt>
      <trkpt lat="43.69614" lon="3.89616">
        <ele>111</ele>
        <time>2024-04-25T12:03:12.999Z</time>
      </trkpt>
      <trkpt lat="43.69606" lon="3.89618">
        <ele>112.5</ele>
        <time>2024-04-25T12:03:17.999Z</time>
      </trkpt>
      <trkpt lat="43.69598" lon="3.8962">
        <ele>113.4</ele>
        <time>2024-04-25T14:03:23+02:00</time>
      </trkpt>
      <trkpt lat="43.69592" lon="3.89617">
        <ele>114.4</ele>
        <time>2024-04-25T12:03:25.499Z</time>
      </trkpt>
      <trkpt lat="43.69586" lon="3.89615">
        <ele>115.5</ele>
        <time>2024-04-25T12:03:27.999Z</time>
      </trkpt>
      <trkpt lat="43.69579" lon="3.89612">
        <ele>116</ele>
        <time>2024-04-25T12:03:30.499Z</time>
      </trkpt>
      <trkpt lat="43.69573" lon="3.89609">
        <ele>116</ele>
        <time>2024-04-25T14:03:33+02:00</time>
      </trkpt>
      <trkpt lat="43.69565" lon="3.89614">
        <ele>115.8</ele>
        <time>2024-04-25T12:03:35.499Z</time>
      </trkpt>
      <trkpt lat="43.69557" lon="3.89618">
        <ele>115.5</ele>
        <time>2024-04-25T12:03:37.999Z</time>
      </trkpt>
      <trkpt lat="43.69548" lon="3.89623">
        <ele>114.3</ele>
        <time>2024-04-25T12:03:40.499Z</time>
      </trkpt>
      <trkpt lat="43.6954" lon="3.89627">
        <ele>112.8</ele>
        <time>2024-04-25T14:03:43+02:00</time>
      </trkpt>
      <trkpt lat="43.69536" lon="3.89633">
        <ele>111.4</ele>
        <time>2024-04-25T12:04:02.999Z</time>
      </trkpt>
      <trkpt lat="43.69532" lon="3.89639">
        <ele>109.8</ele>
        <time>2024-04-25T12:04:22.999Z</time>
      </trkpt>
      <trkpt lat="43.69528" lon="3.89645">
        <ele>108.1</ele>
        <time>2024-04-25T12:04:42.999Z</time>
      </trkpt>
      <trkpt lat="43.69524" lon="3.89651">
        <ele>106.4</ele>
        <time>2024-04-25T12:05:02.999Z</time>
      </trkpt>
      <trkpt lat="43.69519" lon="3.89656">
        <ele>104.9</ele>
        <time>2024-04-25T12:05:22.999Z</time>
      </trkpt>
      <trkpt lat="43.69515" lon="3.89662">
        <ele>103.6</ele>
        <time>2024-04-25T12:05:42.999Z</time>
      </trkpt>
      <trkpt lat="43.69511" lon="3.89668">
        <ele>102.5</ele>
        <time>2024-04-25T12:06:02.999Z</time>
      </trkpt>
      <trkpt lat="43.69507" lon="3.89674">
        <ele>101.5</ele>
        <time>2024-04-25T14:06:23+02:00</time>
      </trkpt>
      <trkpt lat="43.69506" lon="3.89682">
        <ele>100.9</ele>
        <time>2024-04-25T12:06:25.499Z</time>
      </trkpt>
      <trkpt lat="43.69504" lon="3.89691">
        <ele>100.3</ele>
        <time>2024-04-25T12:06:27.999Z</time>
      </trkpt>
      <trkpt lat="43.69503" lon="3.89699">
        <ele>100.1</ele>
        <time>2024-04-25T12:06:30.499Z</time>
      </trkpt>
      <trkpt lat="43.69501" lon="3.89707">
        <ele>100</ele>
        <time>2024-04-25T14:06:33+02:00</time>
      </trkpt>
      <trkpt lat="43.69503" lon="3.89713">
        <ele>100</ele>
        <time>2024-04-25T12:06:34.250Z</time>
      </trkpt>
      <trkpt lat="43.69504" lon="3.89719">
        <ele>99.9</ele>
        <time>2024-04-25T12:06:35.500Z</time>
      </trkpt>
      <trkpt lat="43.69506" lon="3.89725">
        <ele>99.7</ele>
        <time>2024-04-25T12:06:36.750Z</time>
      </trkpt>
      <trkpt lat="43.69507" lon="3.89731">
        <ele>99.4</ele>
        <time>2024-04-25T12:06:38.000Z</time>
      </trkpt>
      <trkpt lat="43.69509" lon="3.89736">
        <ele>99</ele>
        <time>2024-04-25T12:06:39.250Z</time>
      </trkpt>
      <trkpt lat="43.6951" lon="3.89742">
        <ele>98.7</ele>
        <time>2024-04-25T12:06:40.500Z</time>
      </trkpt>
      <trkpt lat="43.69512" lon="3.89748">
        <ele>98.3</ele>
        <time>2024-04-25T12:06:41.750Z</time>
      </trkpt>
      <trkpt lat="43.69513" lon="3.89754">
        <ele>97.9</ele>
        <time>2024-04-25T14:06:43+02:00</time>
      </trkpt>
      <trkpt lat="43.69514" lon="3.89761">
        <ele>97.4</ele>
        <time>2024-04-25T12:06:44.250Z</time>
      </trkpt>
      <trkpt lat="43.69515" lon="3.89767">
        <ele>97</ele>
        <time>2024-04-25T12:06:45.500Z</time>
      </trkpt>
      <trkpt lat="43.69516" lon="3.89774">
        <ele>96.5</ele>
        <time>2024-04-25T12:06:46.750Z</time>
      </trkpt>
      <trkpt lat="43.69517" lon="3.89781">
        <ele>96.2</ele>
        <time>2024-04-25T12:06:48.000Z</time>
      </trkpt>
      <trkpt lat="43.69518" lon="3.89787">
        <ele>96.1</ele>
        <time>2024-04-25T12:06:49.250Z</time>
      </trkpt>
      <trkpt lat="43.69519" lon="3.89794">
        <ele>95.9</ele>
        <time>2024-04-25T12:06:50.500Z</time>
      </trkpt>
      <trkpt lat="43.6952" lon="3.898">
        <ele>95.8</ele>
        <time>2024-04-25T12:06:51.750Z</time>
      </trkpt>
      <trkpt lat="43.69521" lon="3.89807">
        <ele>95.7</ele>
        <time>2024-04-25T14:06:53+02:00</time>
      </trkpt>
      <trkpt lat="43.69524" lon="3.89814">
        <ele>95.4</ele>
        <time>2024-04-25T12:06:54.250Z</time>
      </trkpt>
      <trkpt lat="43.69527" lon="3.89822">
        <ele>95.1</ele>
        <time>2024-04-25T12:06:55.500Z</time>
      </trkpt>
      <trkpt lat="43.6953" lon="3.89829">
        <ele>94.8</ele>
        <time>2024-04-25T12:06:56.750Z</time>
      </trkpt>
      <trkpt lat="43.69534" lon="3.89837">
        <ele>94.7</ele>
        <time>2024-04-25T12:06:58.000Z</time>
      </trkpt>
      <trkpt lat="43.69537" lon="3.89844">
        <ele>94.5</ele>
        <time>2024-04-25T12:06:59.250Z</time>
      </trkpt>
      <trkpt lat="43.6954" lon="3.89851">
        <ele>94.2</ele>
        <time>2024-04-25T12:07:00.500Z</time>
      </trkpt>
      <trkpt lat="43.69543" lon="3.89859">
        <ele>93.8</ele>
        <time>2024-04-25T12:07:01.750Z</time>
      </trkpt>
      <trkpt lat="43.69546" lon="3.89866">
        <ele>93.2</ele>
        <time>2024-04-25T14:07:03+02:00</time>
      </trkpt>
      <trkpt lat="43.69549" lon="3.89872">
        <ele>92.7</ele>
        <time>2024-04-25T12:07:04.250Z</time>
      </trkpt>
      <trkpt lat="43.69552" lon="3.89877">
        <ele>92.3</ele>
        <time>2024-04-25T12:07:05.500Z</time>
      </trkpt>
      <trkpt lat="43.69555" lon="3.89883">
        <ele>92</ele>
        <time>2024-04-25T12:07:06.750Z</time>
      </trkpt>
      <trkpt lat="43.69559" lon="3.89888">
        <ele>91.8</ele>
        <time>2024-04-25T12:07:08.000Z</time>
      </trkpt>
      <trkpt lat="43.69562" lon="3.89894">
        <ele>91.3</ele>
        <time>2024-04-25T12:07:09.250Z</time>
      </trkpt>
      <trkpt lat="43.69565" lon="3.89899">
        <ele>90.9</ele>
        <time>2024-04-25T12:07:10.500Z</time>
      </trkpt>
      <trkpt lat="43.69568" lon="3.89905">
        <ele>90.5</ele>
        <time>2024-04-25T12:07:11.750Z</time>
      </trkpt>
      <trkpt lat="43.69571" lon="3.8991">
        <ele>90.2</ele>
        <time>2024-04-25T14:07:13+02:00</time>
      </trkpt>
      <trkpt lat="43.69576" lon="3.89916">
        <ele>90</ele>
        <time>2024-04-25T12:07:15.500Z</time>
      </trkpt>
      <trkpt lat="43.6958" lon="3.89923">
        <ele>90</ele>
        <time>2024-04-25T12:07:18.000Z</time>
      </trkpt>
      <trkpt lat="43.69585" lon="3.89929">
        <ele>90</ele>
        <time>2024-04-25T12:07:20.500Z</time>
      </trkpt>
      <trkpt lat="43.69589" lon="3.89935">
        <ele>90.2</ele>
        <time>2024-04-25T14:07:23+02:00</time>
      </trkpt>
      <trkpt lat="43.69594" lon="3.89939">
        <ele>90.4</ele>
        <time>2024-04-25T12:07:28.000Z</time>
      </trkpt>
      <trkpt lat="43.69598" lon="3.89942">
        <ele>90.5</ele>
        <time>2024-04-25T14:07:33+02:00</time>
      </trkpt>
      <trkpt lat="43.69605" lon="3.89944">
        <ele>90.8</ele>
        <time>2024-04-25T14:07:43+02:00</time>
      </trkpt>
      <trkpt lat="43.69603" lon="3.89951">
        <ele>91</ele>
        <time>2024-04-25T12:07:52.249Z</time>
      </trkpt>
      <trkpt lat="43.69602" lon="3.89959">
        <ele>91.3</ele>
        <time>2024-04-25T12:08:01.499Z</time>
      </trkpt>
      <trkpt lat="43.696" lon="3.89966">
        <ele>91.7</ele>
        <time>2024-04-25T12:08:10.749Z</time>
      </trkpt>
      <trkpt lat="43.69598" lon="3.89973">
        <ele>92.1</ele>
        <time>2024-04-25T12:08:19.999Z</time>
      </trkpt>
      <trkpt lat="43.69596" lon="3.8998">
        <ele>92.6</ele>
        <time>2024-04-25T12:08:29.249Z</time>
      </trkpt>
      <trkpt lat="43.69595" lon="3.89988">
        <ele>93.2</ele>
        <time>2024-04-25T12:08:38.499Z</time>
      </trkpt>
      <trkpt lat="43.69593" lon="3.89995">
        <ele>93.9</ele>
        <time>2024-04-25T12:08:47.749Z</time>
      </trkpt>
      <trkpt lat="43.69591" lon="3.90002">
        <ele>94.6</ele>
        <time>2024-04-25T14:08:57+02:00</time>
      </trkpt>
      <trkpt lat="43.69592" lon="3.90011">
        <ele>94.9</ele>
        <time>2024-04-25T12:08:58.250Z</time>
      </trkpt>
      <trkpt lat="43.69593" lon="3.90019">
        <ele>95.3</ele>
        <time>2024-04-25T12:08:59.500Z</time>
      </trkpt>
      <trkpt lat="43.69593" lon="3.90028">
        <ele>95.6</ele>
        <time>2024-04-25T12:09:00.750Z</time>
      </trkpt>
      <trkpt lat="43.69594" lon="3.90037">
        <ele>95.9</ele>
        <time>2024-04-25T12:09:02.000Z</time>
      </trkpt>
      <trkpt lat="43.69595" lon="3.90045">
        <ele>96.2</ele>
        <time>2024-04-25T12:09:03.250Z</time>
      </trkpt>
      <trkpt lat="43.69596" lon="3.90054">
        <ele>96.6</ele>
        <time>2024-04-25T12:09:04.500Z</time>
      </trkpt>
      <trkpt lat="43.69596" lon="3.90062">
        <ele>97</ele>
        <time>2024-04-25T12:09:05.750Z</time>
      </trkpt>
      <trkpt lat="43.69597" lon="3.90071">
        <ele>97.4</ele>
        <time>2024-04-25T14:09:07+02:00</time>
      </trkpt>
      <trkpt lat="43.69601" lon="3.90082">
        <ele>97.5</ele>
        <time>2024-04-25T12:09:09.500Z</time>
      </trkpt>
      <trkpt lat="43.69604" lon="3.90093">
        <ele>97.7</ele>
        <time>2024-04-25T14:09:12+02:00</time>
      </trkpt>
      <trkpt lat="43.69607" lon="3.90101">
        <ele>97.9</ele>
        <time>2024-04-25T12:09:13.250Z</time>
      </trkpt>
      <trkpt lat="43.6961" lon="3.90108">
        <ele>98</ele>
        <time>2024-04-25T12:09:14.500Z</time>
      </trkpt>
      <trkpt lat="43.69612" lon="3.90116">
        <ele>98.4</ele>
        <time>2024-04-25T12:09:15.750Z</time>
      </trkpt>
      <trkpt lat="43.69615" lon="3.90123">
        <ele>98.9</ele>
        <time>2024-04-25T14:09:17+02:00</time>
      </trkpt>
      <trkpt lat="43.69618" lon="3.90133">
        <ele>99.6</ele>
        <time>2024-04-25T12:09:19.500Z</time>
      </trkpt>
      <trkpt lat="43.6962" lon="3.90143">
        <ele>100.3</ele>
        <time>2024-04-25T12:09:22.000Z</time>
      </trkpt>
      <trkpt lat="43.69623" lon="3.90153">
        <ele>101.1</ele>
        <time>2024-04-25T12:09:24.500Z</time>
      </trkpt>
      <trkpt lat="43.69625" lon="3.90163">
        <ele>101.7</ele>
        <time>2024-04-25T14:09:27+02:00</time>
      </trkpt>
      <trkpt lat="43.69625" lon="3.90175">
        <ele>102.4</ele>
        <time>2024-04-25T12:09:29.500Z</time>
      </trkpt>
      <trkpt lat="43.69626" lon="3.90187">
        <ele>103</ele>
        <time>2024-04-25T12:09:32.000Z</time>
      </trkpt>
      <trkpt lat="43.69626" lon="3.90199">
        <ele>103.8</ele>
        <time>2024-04-25T12:09:34.500Z</time>
      </trkpt>
      <trkpt lat="43.69626" lon="3.90211">
        <ele>104.9</ele>
        <time>2024-04-25T14:09:37+02:00</time>
      </trkpt>
      <trkpt lat="43.69627" lon="3.90222">
        <ele>105.7</ele>
        <time>2024-04-25T12:09:39.500Z</time>
      </trkpt>
      <trkpt lat="43.69627" lon="3.90233">
        <ele>106.5</ele>
        <time>2024-04-25T12:09:42.000Z</time>
      </trkpt>
      <trkpt lat="43.69628" lon="3.90243">
        <ele>107.3</ele>
        <time>2024-04-25T12:09:44.500Z</time>
      </trkpt>
      <trkpt lat="43.69628" lon="3.90254">
        <ele>108</ele>
        <time>2024-04-25T14:09:47+02:00</time>
      </trkpt>
      <trkpt lat="43.69635" lon="3.9026">
        <ele>108.7</ele>
        <time>2024-04-25T12:09:52.000Z</time>
      </trkpt>
      <trkpt lat="43.69642" lon="3.90267">
        <ele>110.1</ele>
        <time>2024-04-25T12:09:57.000Z</time>
      </trkpt>
      <trkpt lat="43.69649" lon="3.90273">
        <ele>111.5</ele>
        <time>2024-04-25T12:10:02.000Z</time>
      </trkpt>
      <trkpt lat="43.69656" lon="3.90279">
        <ele>112.6</ele>
        <time>2024-04-25T14:10:07+02:00</time>
      </trkpt>
      <trkpt lat="43.69663" lon="3.90283">
        <ele>112.8</ele>
        <time>2024-04-25T12:10:09.500Z</time>
      </trkpt>
      <trkpt lat="43.69669" lon="3.90287">
        <ele>113.1</ele>
        <time>2024-04-25T12:10:12.000Z</time>
      </trkpt>
      <trkpt lat="43.69676" lon="3.9029">
        <ele>113.5</ele>
        <time>2024-04-25T12:10:14.500Z</time>
      </trkpt>
      <trkpt lat="43.69682" lon="3.90294">
        <ele>113.8</ele>
        <time>2024-04-25T14:10:17+02:00</time>
      </trkpt>
      <trkpt lat="43.69686" lon="3.90301">
        <ele>113.8</ele>
        <time>2024-04-25T12:10:19.500Z</time>
      </trkpt>
      <trkpt lat="43.6969" lon="3.90308">
        <ele>113.7</ele>
        <time>2024-04-25T12:10:22.000Z</time>
      </trkpt>
      <trkpt lat="43.69694" lon="3.90314">
        <ele>113.4</ele>
        <time>2024-04-25T12:10:24.500Z</time>
      </trkpt>
      <trkpt lat="43.69698" lon="3.90321">
        <ele>112.6</ele>
        <time>2024-04-25T14:10:27+02:00</time>
      </trkpt>
      <trkpt lat="43.697" lon="3.90327">
        <ele>112.1</ele>
        <time>2024-04-25T12:10:28.250Z</time>
      </trkpt>
      <trkpt lat="43.69702" lon="3.90333">
        <ele>111.5</ele>
        <time>2024-04-25T12:10:29.500Z</time>
      </trkpt>
      <trkpt lat="43.69703" lon="3.90339">
        <ele>111.4</ele>
        <time>2024-04-25T12:10:30.750Z</time>
      </trkpt>
      <trkpt lat="43.69705" lon="3.90346">
        <ele>111.2</ele>
        <time>2024-04-25T12:10:32.000Z</time>
      </trkpt>
      <trkpt lat="43.69707" lon="3.90352">
        <ele>111.1</ele>
        <time>2024-04-25T12:10:33.250Z</time>
      </trkpt>
      <trkpt lat="43.69709" lon="3.90358">
        <ele>111</ele>
        <time>2024-04-25T12:10:34.500Z</time>
      </trkpt>
      <trkpt lat="43.6971" lon="3.90364">
        <ele>111</ele>
        <time>2024-04-25T12:10:35.750Z</time>
      </trkpt>
      <trkpt lat="43.69712" lon="3.9037">
        <ele>111.1</ele>
        <time>2024-04-25T14:10:37+02:00</time>
      </trkpt>
      <trkpt lat="43.69714" lon="3.90378">
        <ele>111.2</ele>
        <time>2024-04-25T12:10:38.250Z</time>
      </trkpt>
      <trkpt lat="43.69717" lon="3.90386">
        <ele>111.3</ele>
        <time>2024-04-25T12:10:39.500Z</time>
      </trkpt>
      <trkpt lat="43.69719" lon="3.90393">
        <ele>111.2</ele>
        <time>2024-04-25T12:10:40.750Z</time>
      </trkpt>
      <trkpt lat="43.69722" lon="3.90401">
        <ele>111.1</ele>
        <time>2024-04-25T12:10:42.000Z</time>
      </trkpt>
      <trkpt lat="43.69724" lon="3.90409">
        <ele>110.7</ele>
        <time>2024-04-25T12:10:43.250Z</time>
      </trkpt>
      <trkpt lat="43.69726" lon="3.90417">
        <ele>110.4</ele>
        <time>2024-04-25T12:10:44.500Z</time>
      </trkpt>
      <trkpt lat="43.69729" lon="3.90424">
        <ele>110.4</ele>
        <time>2024-04-25T12:10:45.750Z</time>
      </trkpt>
      <trkpt lat="43.69731" lon="3.90432">
        <ele>110.3</ele>
        <time>2024-04-25T14:10:47+02:00</time>
      </trkpt>
      <trkpt lat="43.69733" lon="3.90439">
        <ele>110.2</ele>
        <time>2024-04-25T12:10:48.250Z</time>
      </trkpt>
      <trkpt lat="43.69735" lon="3.90446">
        <ele>110.2</ele>
        <time>2024-04-25T12:10:49.500Z</time>
      </trkpt>
      <trkpt lat="43.69737" lon="3.90452">
        <ele>110.1</ele>
        <time>2024-04-25T12:10:50.750Z</time>
      </trkpt>
      <trkpt lat="43.6974" lon="3.90459">
        <ele>110</ele>
        <time>2024-04-25T12:10:52.000Z</time>
      </trkpt>
      <trkpt lat="43.69742" lon="3.90466">
        <ele>110</ele>
        <time>2024-04-25T12:10:53.250Z</time>
      </trkpt>
      <trkpt lat="43.69744" lon="3.90473">
        <ele>109.9</ele>
        <time>2024-04-25T12:10:54.500Z</time>
      </trkpt>
      <trkpt lat="43.69746" lon="3.90479">
        <ele>109.6</ele>
        <time>2024-04-25T12:10:55.750Z</time>
      </trkpt>
      <trkpt lat="43.69748" lon="3.90486">
        <ele>109.3</ele>
        <time>2024-04-25T14:10:57+02:00</time>
      </trkpt>
      <trkpt lat="43.69753" lon="3.90497">
        <ele>108.7</ele>
        <time>2024-04-25T12:10:59.500Z</time>
      </trkpt>
      <trkpt lat="43.69757" lon="3.90507">
        <ele>108.4</ele>
        <time>2024-04-25T12:11:02.000Z</time>
      </trkpt>
      <trkpt lat="43.69762" lon="3.90518">
        <ele>108.1</ele>
        <time>2024-04-25T12:11:04.500Z</time>
      </trkpt>
      <trkpt lat="43.69766" lon="3.90528">
        <ele>107.7</ele>
        <time>2024-04-25T14:11:07+02:00</time>
      </trkpt>
      <trkpt lat="43.69771" lon="3.90532">
        <ele>107.1</ele>
        <time>2024-04-25T12:11:08.250Z</time>
      </trkpt>
      <trkpt lat="43.69776" lon="3.90536">
        <ele>106.5</ele>
        <time>2024-04-25T12:11:09.500Z</time>
      </trkpt>
      <trkpt lat="43.69781" lon="3.9054">
        <ele>106.1</ele>
        <time>2024-04-25T12:11:10.750Z</time>
      </trkpt>
      <trkpt lat="43.69786" lon="3.90544">
        <ele>105.7</ele>
        <time>2024-04-25T12:11:12.000Z</time>
      </trkpt>
      <trkpt lat="43.69791" lon="3.90547">
        <ele>105.3</ele>
        <time>2024-04-25T12:11:13.250Z</time>
      </trkpt>
      <trkpt lat="43.69796" lon="3.90551">
        <ele>104.9</ele>
        <time>2024-04-25T12:11:14.500Z</time>
      </trkpt>
      <trkpt lat="43.69801" lon="3.90555">
        <ele>104.5</ele>
        <time>2024-04-25T12:11:15.750Z</time>
      </trkpt>
      <trkpt lat="43.69806" lon="3.90559">
        <ele>104</ele>
        <time>2024-04-25T14:11:17+02:00</time>
      </trkpt>
      <trkpt lat="43.69809" lon="3.90566">
        <ele>103.6</ele>
        <time>2024-04-25T12:11:19.500Z</time>
      </trkpt>
      <trkpt lat="43.69813" lon="3.90573">
        <ele>103.3</ele>
        <time>2024-04-25T12:11:22.000Z</time>
      </trkpt>
      <trkpt lat="43.69816" lon="3.90579">
        <ele>102.9</ele>
        <time>2024-04-25T12:11:24.500Z</time>
      </trkpt>
      <trkpt lat="43.69819" lon="3.90586">
        <ele>102.6</ele>
        <time>2024-04-25T14:11:27+02:00</time>
      </trkpt>
      <trkpt lat="43.69813" lon="3.9059">
        <ele>103.2</ele>
        <time>2024-04-25T12:11:29.499Z</time>
      </trkpt>
      <trkpt lat="43.69808" lon="3.90593">
        <ele>103.8</ele>
        <time>2024-04-25T12:11:31.999Z</time>
      </trkpt>
      <trkpt lat="43.69802" lon="3.90597">
        <ele>104.6</ele>
        <time>2024-04-25T12:11:34.499Z</time>
      </trkpt>
      <trkpt lat="43.69796" lon="3.906">
        <ele>105.6</ele>
        <time>2024-04-25T14:11:37+02:00</time>
      </trkpt>
      <trkpt lat="43.698" lon="3.90604">
        <ele>105</ele>
        <time>2024-04-25T12:11:38.875Z</time>
      </trkpt>
      <trkpt lat="43.69803" lon="3.90609">
        <ele>104.4</ele>
        <time>2024-04-25T12:11:40.750Z</time>
      </trkpt>
      <trkpt lat="43.69807" lon="3.90613">
        <ele>104</ele>
        <time>2024-04-25T12:11:42.625Z</time>
      </trkpt>
      <trkpt lat="43.69811" lon="3.90618">
        <ele>104.1</ele>
        <time>2024-04-25T12:11:44.500Z</time>
      </trkpt>
      <trkpt lat="43.69814" lon="3.90622">
        <ele>104</ele>
        <time>2024-04-25T12:11:46.375Z</time>
      </trkpt>
      <trkpt lat="43.69818" lon="3.90626">
        <ele>104</ele>
        <time>2024-04-25T12:11:48.250Z</time>
      </trkpt>
      <trkpt lat="43.69821" lon="3.90631">
        <ele>103.9</ele>
        <time>2024-04-25T12:11:50.125Z</time>
      </trkpt>
      <trkpt lat="43.69825" lon="3.90635">
        <ele>103.7</ele>
        <time>2024-04-25T12:11:52.000Z</time>
      </trkpt>
      <trkpt lat="43.69829" lon="3.90639">
        <ele>103.5</ele>
        <time>2024-04-25T12:11:53.875Z</time>
      </trkpt>
      <trkpt lat="43.69832" lon="3.90644">
        <ele>103.1</ele>
        <time>2024-04-25T12:11:55.750Z</time>
      </trkpt>
      <trkpt lat="43.69836" lon="3.90648">
        <ele>102.8</ele>
        <time>2024-04-25T12:11:57.625Z</time>
      </trkpt>
      <trkpt lat="43.6984" lon="3.90653">
        <ele>102.6</ele>
        <time>2024-04-25T12:11:59.500Z</time>
      </trkpt>
      <trkpt lat="43.69843" lon="3.90657">
        <ele>102.3</ele>
        <time>2024-04-25T12:12:01.375Z</time>
      </trkpt>
      <trkpt lat="43.69847" lon="3.90661">
        <ele>102</ele>
        <time>2024-04-25T12:12:03.250Z</time>
      </trkpt>
      <trkpt lat="43.6985" lon="3.90666">
        <ele>101.8</ele>
        <time>2024-04-25T12:12:05.125Z</time>
      </trkpt>
      <trkpt lat="43.69854" lon="3.9067">
        <ele>101.5</ele>
        <time>2024-04-25T14:12:07+02:00</time>
      </trkpt>
      <trkpt lat="43.6986" lon="3.90676">
        <ele>101.1</ele>
        <time>2024-04-25T12:12:08.250Z</time>
      </trkpt>
      <trkpt lat="43.69866" lon="3.90683">
        <ele>100.5</ele>
        <time>2024-04-25T12:12:09.500Z</time>
      </trkpt>
      <trkpt lat="43.69871" lon="3.90689">
        <ele>99.9</ele>
        <time>2024-04-25T12:12:10.750Z</time>
      </trkpt>
      <trkpt lat="43.69877" lon="3.90695">
        <ele>99.3</ele>
        <time>2024-04-25T12:12:12.000Z</time>
      </trkpt>
      <trkpt lat="43.69883" lon="3.90701">
        <ele>99.2</ele>
        <time>2024-04-25T12:12:13.250Z</time>
      </trkpt>
      <trkpt lat="43.69889" lon="3.90708">
        <ele>99</ele>
        <time>2024-04-25T12:12:14.500Z</time>
      </trkpt>
      <trkpt lat="43.69894" lon="3.90714">
        <ele>98.9</ele>
        <time>2024-04-25T12:12:15.750Z</time>
      </trkpt>
      <trkpt lat="43.699" lon="3.9072">
        <ele>98.7</ele>
        <time>2024-04-25T14:12:17+02:00</time>
      </trkpt>
      <trkpt lat="43.69905" lon="3.90727">
        <ele>98.3</ele>
        <time>2024-04-25T12:12:18.250Z</time>
      </trkpt>
      <trkpt lat="43.6991" lon="3.90733">
        <ele>98</ele>
        <time>2024-04-25T12:12:19.500Z</time>
      </trkpt>
      <trkpt lat="43.69915" lon="3.9074">
        <ele>97.7</ele>
        <time>2024-04-25T12:12:20.750Z</time>
      </trkpt>
      <trkpt lat="43.69921" lon="3.90747">
        <ele>97.5</ele>
        <time>2024-04-25T12:12:22.000Z</time>
      </trkpt>
      <trkpt lat="43.69926" lon="3.90753">
        <ele>97.1</ele>
        <time>2024-04-25T12:12:23.250Z</time>
      </trkpt>
      <trkpt lat="43.69931" lon="3.9076">
        <ele>96.7</ele>
        <time>2024-04-25T12:12:24.500Z</time>
      </trkpt>
      <trkpt lat="43.69936" lon="3.90766">
        <ele>96.3</ele>
        <time>2024-04-25T12:12:25.750Z</time>
      </trkpt>
      <trkpt lat="43.69941" lon="3.90773">
        <ele>96.1</ele>
        <time>2024-04-25T14:12:27+02:00</time>
      </trkpt>
      <trkpt lat="43.69944" lon="3.90779">
        <ele>96.1</ele>
        <time>2024-04-25T12:12:28.250Z</time>
      </trkpt>
      <trkpt lat="43.69948" lon="3.90786">
        <ele>96.1</ele>
        <time>2024-04-25T12:12:29.500Z</time>
      </trkpt>
      <trkpt lat="43.69951" lon="3.90792">
        <ele>96.1</ele>
        <time>2024-04-25T12:12:30.750Z</time>
      </trkpt>
      <trkpt lat="43.69954" lon="3.90798">
        <ele>96</ele>
        <time>2024-04-25T12:12:32.000Z</time>
      </trkpt>
      <trkpt lat="43.69957" lon="3.90804">
        <ele>96</ele>
        <time>2024-04-25T12:12:33.250Z</time>
      </trkpt>
      <trkpt lat="43.69961" lon="3.90811">
        <ele>95.8</ele>
        <time>2024-04-25T12:12:34.500Z</time>
      </trkpt>
      <trkpt lat="43.69964" lon="3.90817">
        <ele>95.6</ele>
        <time>2024-04-25T12:12:35.750Z</time>
      </trkpt>
      <trkpt lat="43.69967" lon="3.90823">
        <ele>95.4</ele>
        <time>2024-04-25T14:12:37+02:00</time>
      </trkpt>
      <trkpt lat="43.69972" lon="3.90828">
        <ele>95</ele>
        <time>2024-04-25T12:12:38.250Z</time>
      </trkpt>
      <trkpt lat="43.69978" lon="3.90833">
        <ele>94.8</ele>
        <time>2024-04-25T12:12:39.500Z</time>
      </trkpt>
      <trkpt lat="43.69983" lon="3.90838">
        <ele>94.7</ele>
        <time>2024-04-25T12:12:40.750Z</time>
      </trkpt>
      <trkpt lat="43.69988" lon="3.90843">
        <ele>94.6</ele>
        <time>2024-04-25T12:12:42.000Z</time>
      </trkpt>
      <trkpt lat="43.69993" lon="3.90847">
        <ele>94.4</ele>
        <time>2024-04-25T12:12:43.250Z</time>
      </trkpt>
      <trkpt lat="43.69999" lon="3.90852">
        <ele>94.1</ele>
        <time>2024-04-25T12:12:44.500Z</time>
      </trkpt>
      <trkpt lat="43.70004" lon="3.90857">
        <ele>93.7</ele>
        <time>2024-04-25T12:12:45.750Z</time>
      </trkpt>
      <trkpt lat="43.70009" lon="3.90862">
        <ele>93.4</ele>
        <time>2024-04-25T14:12:47+02:00</time>
      </trkpt>
      <trkpt lat="43.70015" lon="3.90866">
        <ele>93.1</ele>
        <time>2024-04-25T12:12:48.250Z</time>
      </trkpt>
      <trkpt lat="43.70021" lon="3.90871">
        <ele>92.8</ele>
        <time>2024-04-25T12:12:49.500Z</time>
      </trkpt>
      <trkpt lat="43.70027" lon="3.90875">
        <ele>92.6</ele>
        <time>2024-04-25T12:12:50.750Z</time>
      </trkpt>
      <trkpt lat="43.70033" lon="3.90879">
        <ele>92.4</ele>
        <time>2024-04-25T12:12:52.000Z</time>
      </trkpt>
      <trkpt lat="43.70038" lon="3.90883">
        <ele>92.1</ele>
        <time>2024-04-25T12:12:53.250Z</time>
      </trkpt>
      <trkpt lat="43.70044" lon="3.90888">
        <ele>91.8</ele>
        <time>2024-04-25T12:12:54.500Z</time>
      </trkpt>
      <trkpt lat="43.7005" lon="3.90892">
        <ele>91.5</ele>
        <time>2024-04-25T12:12:55.750Z</time>
      </trkpt>
      <trkpt lat="43.70056" lon="3.90896">
        <ele>91.2</ele>
        <time>2024-04-25T14:12:57+02:00</time>
      </trkpt>
      <trkpt lat="43.70063" lon="3.90891">
        <ele>90.8</ele>
        <time>2024-04-25T12:12:59.000Z</time>
      </trkpt>
      <trkpt lat="43.70071" lon="3.90886">
        <ele>90.4</ele>
        <time>2024-04-25T12:13:01.000Z</time>
      </trkpt>
      <trkpt lat="43.70078" lon="3.9088">
        <ele>90</ele>
        <time>2024-04-25T12:13:03.000Z</time>
      </trkpt>
      <trkpt lat="43.70085" lon="3.90875">
        <ele>89.3</ele>
        <time>2024-04-25T14:13:05+02:00</time>
      </trkpt>
      <trkpt lat="43.7009" lon="3.90876">
        <ele>88.6</ele>
        <time>2024-04-25T12:13:06.500Z</time>
      </trkpt>
      <trkpt lat="43.70095" lon="3.90878">
        <ele>87.9</ele>
        <time>2024-04-25T12:13:08.000Z</time>
      </trkpt>
      <trkpt lat="43.701" lon="3.90879">
        <ele>87.1</ele>
        <time>2024-04-25T12:13:09.500Z</time>
      </trkpt>
      <trkpt lat="43.70105" lon="3.90881">
        <ele>86.3</ele>
        <time>2024-04-25T12:13:11.000Z</time>
      </trkpt>
      <trkpt lat="43.70109" lon="3.90882">
        <ele>85.5</ele>
        <time>2024-04-25T12:13:12.500Z</time>
      </trkpt>
      <trkpt lat="43.70114" lon="3.90883">
        <ele>85.5</ele>
        <time>2024-04-25T12:13:14.000Z</time>
      </trkpt>
      <trkpt lat="43.70119" lon="3.90885">
        <ele>86</ele>
        <time>2024-04-25T12:13:15.500Z</time>
      </trkpt>
      <trkpt lat="43.70124" lon="3.90886">
        <ele>86.4</ele>
        <time>2024-04-25T14:13:17+02:00</time>
      </trkpt>
      <trkpt lat="43.7013" lon="3.90894">
        <ele>86.9</ele>
        <time>2024-04-25T12:13:19.500Z</time>
      </trkpt>
      <trkpt lat="43.70136" lon="3.90902">
        <ele>87.2</ele>
        <time>2024-04-25T12:13:22.000Z</time>
      </trkpt>
      <trkpt lat="43.70142" lon="3.90909">
        <ele>87.4</ele>
        <time>2024-04-25T12:13:24.500Z</time>
      </trkpt>
      <trkpt lat="43.70148" lon="3.90917">
        <ele>87.3</ele>
        <time>2024-04-25T14:13:27+02:00</time>
      </trkpt>
      <trkpt lat="43.70153" lon="3.90926">
        <ele>87</ele>
        <time>2024-04-25T12:13:29.500Z</time>
      </trkpt>
      <trkpt lat="43.70157" lon="3.90935">
        <ele>86.8</ele>
        <time>2024-04-25T12:13:32.000Z</time>
      </trkpt>
      <trkpt lat="43.70162" lon="3.90944">
        <ele>86.6</ele>
        <time>2024-04-25T12:13:34.500Z</time>
      </trkpt>
      <trkpt lat="43.70166" lon="3.90953">
        <ele>86.6</ele>
        <time>2024-04-25T14:13:37+02:00</time>
      </trkpt>
      <trkpt lat="43.70169" lon="3.90959">
        <ele>86.6</ele>
        <time>2024-04-25T12:13:38.250Z</time>
      </trkpt>
      <trkpt lat="43.70171" lon="3.90966">
        <ele>86.6</ele>
        <time>2024-04-25T12:13:39.500Z</time>
      </trkpt>
      <trkpt lat="43.70174" lon="3.90972">
        <ele>86.7</ele>
        <time>2024-04-25T12:13:40.750Z</time>
      </trkpt>
      <trkpt lat="43.70176" lon="3.90978">
        <ele>87.1</ele>
        <time>2024-04-25T12:13:42.000Z</time>
      </trkpt>
      <trkpt lat="43.70179" lon="3.90984">
        <ele>87.5</ele>
        <time>2024-04-25T12:13:43.250Z</time>
      </trkpt>
      <trkpt lat="43.70181" lon="3.90991">
        <ele>87.9</ele>
        <time>2024-04-25T12:13:44.500Z</time>
      </trkpt>
      <trkpt lat="43.70184" lon="3.90997">
        <ele>88.4</ele>
        <time>2024-04-25T12:13:45.750Z</time>
      </trkpt>
      <trkpt lat="43.70186" lon="3.91003">
        <ele>88.9</ele>
        <time>2024-04-25T14:13:47+02:00</time>
      </trkpt>
      <trkpt lat="43.7019" lon="3.91011">
        <ele>89.9</ele>
        <time>2024-04-25T12:13:49.500Z</time>
      </trkpt>
      <trkpt lat="43.70195" lon="3.91019">
        <ele>90.7</ele>
        <time>2024-04-25T12:13:52.000Z</time>
      </trkpt>
      <trkpt lat="43.70199" lon="3.91027">
        <ele>91.3</ele>
        <time>2024-04-25T12:13:54.500Z</time>
      </trkpt>
      <trkpt lat="43.70203" lon="3.91035">
        <ele>91.7</ele>
        <time>2024-04-25T14:13:57+02:00</time>
      </trkpt>
      <trkpt lat="43.70206" lon="3.91045">
        <ele>92.1</ele>
        <time>2024-04-25T12:13:59.500Z</time>
      </trkpt>
      <trkpt lat="43.7021" lon="3.91055">
        <ele>92.6</ele>
        <time>2024-04-25T12:14:02.000Z</time>
      </trkpt>
      <trkpt lat="43.70213" lon="3.91065">
        <ele>93</ele>
        <time>2024-04-25T12:14:04.500Z</time>
      </trkpt>
      <trkpt lat="43.70216" lon="3.91075">
        <ele>93.3</ele>
        <time>2024-04-25T14:14:07+02:00</time>
      </trkpt>
      <trkpt lat="43.70219" lon="3.91081">
        <ele>93.7</ele>
        <time>2024-04-25T12:14:08.250Z</time>
      </trkpt>
      <trkpt lat="43.70223" lon="3.91086">
        <ele>94</ele>
        <time>2024-04-25T12:14:09.500Z</time>
      </trkpt>
      <trkpt lat="43.70226" lon="3.91092">
        <ele>94.4</ele>
        <time>2024-04-25T12:14:10.750Z</time>
      </trkpt>
      <trkpt lat="43.70229" lon="3.91097">
        <ele>94.9</ele>
        <time>2024-04-25T12:14:12.000Z</time>
      </trkpt>
      <trkpt lat="43.70232" lon="3.91103">
        <ele>95.3</ele>
        <time>2024-04-25T12:14:13.250Z</time>
      </trkpt>
      <trkpt lat="43.70236" lon="3.91108">
        <ele>95.9</ele>
        <time>2024-04-25T12:14:14.500Z</time>
      </trkpt>
      <trkpt lat="43.70239" lon="3.91114">
        <ele>96.4</ele>
        <time>2024-04-25T12:14:15.750Z</time>
      </trkpt>
      <trkpt lat="43.70242" lon="3.91119">
        <ele>96.8</ele>
        <time>2024-04-25T14:14:17+02:00</time>
      </trkpt>
      <trkpt lat="43.70248" lon="3.91124">
        <ele>97.8</ele>
        <time>2024-04-25T12:14:19.500Z</time>
      </trkpt>
      <trkpt lat="43.70255" lon="3.91129">
        <ele>98.4</ele>
        <time>2024-04-25T12:14:22.000Z</time>
      </trkpt>
      <trkpt lat="43.70261" lon="3.91134">
        <ele>99.1</ele>
        <time>2024-04-25T12:14:24.500Z</time>
      </trkpt>
      <trkpt lat="43.70267" lon="3.91139">
        <ele>99.8</ele>
        <time>2024-04-25T14:14:27+02:00</time>
      </trkpt>
      <trkpt lat="43.70273" lon="3.91147">
        <ele>100.6</ele>
        <time>2024-04-25T12:14:29.500Z</time>
      </trkpt>
      <trkpt lat="43.7028" lon="3.91155">
        <ele>101.1</ele>
        <time>2024-04-25T12:14:32.000Z</time>
      </trkpt>
      <trkpt lat="43.70286" lon="3.91163">
        <ele>101.6</ele>
        <time>2024-04-25T12:14:34.500Z</time>
      </trkpt>
      <trkpt lat="43.70292" lon="3.91171">
        <ele>102</ele>
        <time>2024-04-25T14:14:37+02:00</time>
      </trkpt>
      <trkpt lat="43.70297" lon="3.91175">
        <ele>102.3</ele>
        <time>2024-04-25T12:14:39.000Z</time>
      </trkpt>
      <trkpt lat="43.70301" lon="3.91178">
        <ele>102.7</ele>
        <time>2024-04-25T14:14:41+02:00</time>
      </trkpt>
      <trkpt lat="43.70306" lon="3.91182">
        <ele>103</ele>
        <time>2024-04-25T12:14:42.500Z</time>
      </trkpt>
      <trkpt lat="43.70311" lon="3.91187">
        <ele>103.2</ele>
        <time>2024-04-25T12:14:44.000Z</time>
      </trkpt>
      <trkpt lat="43.70316" lon="3.91191">
        <ele>103.4</ele>
        <time>2024-04-25T12:14:45.500Z</time>
      </trkpt>
      <trkpt lat="43.70321" lon="3.91195">
        <ele>103.5</ele>
        <time>2024-04-25T14:14:47+02:00</time>
      </trkpt>
      <trkpt lat="43.70326" lon="3.91196">
        <ele>103.6</ele>
        <time>2024-04-25T14:14:49+02:00</time>
      </trkpt>
      <trkpt lat="43.70332" lon="3.91198">
        <ele>103.7</ele>
        <time>2024-04-25T12:14:51.000Z</time>
      </trkpt>
      <trkpt lat="43.70337" lon="3.912">
        <ele>103.5</ele>
        <time>2024-04-25T12:14:53.000Z</time>
      </trkpt>
      <trkpt lat="43.70343" lon="3.91202">
        <ele>103.1</ele>
        <time>2024-04-25T12:14:55.000Z</time>
      </trkpt>
      <trkpt lat="43.70348" lon="3.91204">
        <ele>102.8</ele>
        <time>2024-04-25T14:14:57+02:00</time>
      </trkpt>
      <trkpt lat="43.70355" lon="3.9121">
        <ele>102.1</ele>
        <time>2024-04-25T12:14:59.500Z</time>
      </trkpt>
      <trkpt lat="43.70362" lon="3.91216">
        <ele>101.4</ele>
        <time>2024-04-25T12:15:02.000Z</time>
      </trkpt>
      <trkpt lat="43.70369" lon="3.91221">
        <ele>100.8</ele>
        <time>2024-04-25T12:15:04.500Z</time>
      </trkpt>
      <trkpt lat="43.70376" lon="3.91227">
        <ele>100.1</ele>
        <time>2024-04-25T14:15:07+02:00</time>
      </trkpt>
      <trkpt lat="43.70381" lon="3.91228">
        <ele>99.9</ele>
        <time>2024-04-25T12:15:08.250Z</time>
      </trkpt>
      <trkpt lat="43.70386" lon="3.91228">
        <ele>99.7</ele>
        <time>2024-04-25T12:15:09.500Z</time>
      </trkpt>
      <trkpt lat="43.70391" lon="3.91229">
        <ele>99.4</ele>
        <time>2024-04-25T12:15:10.750Z</time>
      </trkpt>
      <trkpt lat="43.70396" lon="3.91229">
        <ele>99.1</ele>
        <time>2024-04-25T12:15:12.000Z</time>
      </trkpt>
      <trkpt lat="43.70401" lon="3.9123">
        <ele>98.7</ele>
        <time>2024-04-25T12:15:13.250Z</time>
      </trkpt>
      <trkpt lat="43.70406" lon="3.9123">
        <ele>98.4</ele>
        <time>2024-04-25T12:15:14.500Z</time>
      </trkpt>
      <trkpt lat="43.70411" lon="3.91231">
        <ele>98</ele>
        <time>2024-04-25T12:15:15.750Z</time>
      </trkpt>
      <trkpt lat="43.70416" lon="3.91231">
        <ele>97.7</ele>
        <time>2024-04-25T14:15:17+02:00</time>
      </trkpt>
      <trkpt lat="43.7042" lon="3.91233">
        <ele>97.3</ele>
        <time>2024-04-25T12:15:17.625Z</time>
      </trkpt>
      <trkpt lat="43.70425" lon="3.91236">
        <ele>96.8</ele>
        <time>2024-04-25T12:15:18.250Z</time>
      </trkpt>
      <trkpt lat="43.70429" lon="3.91238">
        <ele>96.3</ele>
        <time>2024-04-25T12:15:18.875Z</time>
      </trkpt>
      <trkpt lat="43.70434" lon="3.9124">
        <ele>95.9</ele>
        <time>2024-04-25T12:15:19.500Z</time>
      </trkpt>
      <trkpt lat="43.70438" lon="3.91242">
        <ele>95.5</ele>
        <time>2024-04-25T12:15:20.125Z</time>
      </trkpt>
      <trkpt lat="43.70442" lon="3.91245">
        <ele>95.2</ele>
        <time>2024-04-25T12:15:20.750Z</time>
      </trkpt>
      <trkpt lat="43.70447" lon="3.91247">
        <ele>94.9</ele>
        <time>2024-04-25T12:15:21.375Z</time>
      </trkpt>
      <trkpt lat="43.70451" lon="3.91249">
        <ele>94.8</ele>
        <time>2024-04-25T12:15:22.000Z</time>
      </trkpt>
      <trkpt lat="43.70455" lon="3.91251">
        <ele>94.6</ele>
        <time>2024-04-25T12:15:22.625Z</time>
      </trkpt>
      <trkpt lat="43.7046" lon="3.91254">
        <ele>94.3</ele>
        <time>2024-04-25T12:15:23.250Z</time>
      </trkpt>
      <trkpt lat="43.70464" lon="3.91256">
        <ele>94.1</ele>
        <time>2024-04-25T12:15:23.875Z</time>
      </trkpt>
      <trkpt lat="43.70469" lon="3.91258">
        <ele>93.8</ele>
        <time>2024-04-25T12:15:24.500Z</time>
      </trkpt>
      <trkpt lat="43.70473" lon="3.9126">
        <ele>93.6</ele>
        <time>2024-04-25T12:15:25.125Z</time>
      </trkpt>
      <trkpt lat="43.70477" lon="3.91263">
        <ele>93.3</ele>
        <time>2024-04-25T12:15:25.750Z</time>
      </trkpt>
      <trkpt lat="43.70482" lon="3.91265">
        <ele>93</ele>
        <time>2024-04-25T12:15:26.375Z</time>
      </trkpt>
      <trkpt lat="43.70486" lon="3.91267">
        <ele>92.7</ele>
        <time>2024-04-25T14:15:27+02:00</time>
      </trkpt>
      <trkpt lat="43.70493" lon="3.91272">
        <ele>92.3</ele>
        <time>2024-04-25T12:15:28.250Z</time>
      </trkpt>
      <trkpt lat="43.70499" lon="3.91278">
        <ele>92</ele>
        <time>2024-04-25T12:15:29.500Z</time>
      </trkpt>
      <trkpt lat="43.70506" lon="3.91283">
        <ele>91.8</ele>
        <time>2024-04-25T12:15:30.750Z</time>
      </trkpt>
      <trkpt lat="43.70512" lon="3.91289">
        <ele>91.6</ele>
        <time>2024-04-25T12:15:32.000Z</time>
      </trkpt>
      <trkpt lat="43.70519" lon="3.91294">
        <ele>91.3</ele>
        <time>2024-04-25T12:15:33.250Z</time>
      </trkpt>
      <trkpt lat="43.70525" lon="3.91299">
        <ele>91.1</ele>
        <time>2024-04-25T12:15:34.500Z</time>
      </trkpt>
      <trkpt lat="43.70532" lon="3.91305">
        <ele>90.9</ele>
        <time>2024-04-25T12:15:35.750Z</time>
      </trkpt>
      <trkpt lat="43.70538" lon="3.9131">
        <ele>90.6</ele>
        <time>2024-04-25T14:15:37+02:00</time>
      </trkpt>
      <trkpt lat="43.70544" lon="3.91315">
        <ele>90.4</ele>
        <time>2024-04-25T12:15:38.250Z</time>
      </trkpt>
      <trkpt lat="43.70549" lon="3.91319">
        <ele>90.2</ele>
        <time>2024-04-25T12:15:39.500Z</time>
      </trkpt>
      <trkpt lat="43.70555" lon="3.91324">
        <ele>90</ele>
        <time>2024-04-25T12:15:40.750Z</time>
      </trkpt>
      <trkpt lat="43.70561" lon="3.91328">
        <ele>89.8</ele>
        <time>2024-04-25T12:15:42.000Z</time>
      </trkpt>
      <trkpt lat="43.70566" lon="3.91333">
        <ele>89.6</ele>
        <time>2024-04-25T12:15:43.250Z</time>
      </trkpt>
      <trkpt lat="43.70572" lon="3.91337">
        <ele>89.3</ele>
        <time>2024-04-25T12:15:44.500Z</time>
      </trkpt>
      <trkpt lat="43.70577" lon="3.91342">
        <ele>89</ele>
        <time>2024-04-25T12:15:45.750Z</time>
      </trkpt>
      <trkpt lat="43.70583" lon="3.91346">
        <ele>88.6</ele>
        <time>2024-04-25T14:15:47+02:00</time>
      </trkpt>
      <trkpt lat="43.70588" lon="3.91349">
        <ele>88.1</ele>
        <time>2024-04-25T12:15:48.250Z</time>
      </trkpt>
      <trkpt lat="43.70594" lon="3.91351">
        <ele>87.6</ele>
        <time>2024-04-25T12:15:49.500Z</time>
      </trkpt>
      <trkpt lat="43.70599" lon="3.91354">
        <ele>87.2</ele>
        <time>2024-04-25T12:15:50.750Z</time>
      </trkpt>
      <trkpt lat="43.70604" lon="3.91356">
        <ele>86.7</ele>
        <time>2024-04-25T12:15:52.000Z</time>
      </trkpt>
      <trkpt lat="43.70609" lon="3.91359">
        <ele>86.2</ele>
        <time>2024-04-25T12:15:53.250Z</time>
      </trkpt>
      <trkpt lat="43.70615" lon="3.91361">
        <ele>85.5</ele>
        <time>2024-04-25T12:15:54.500Z</time>
      </trkpt>
      <trkpt lat="43.7062" lon="3.91364">
        <ele>84.5</ele>
        <time>2024-04-25T12:15:55.750Z</time>
      </trkpt>
      <trkpt lat="43.70625" lon="3.91366">
        <ele>83.6</ele>
        <time>2024-04-25T14:15:57+02:00</time>
      </trkpt>
      <trkpt lat="43.70629" lon="3.9137">
        <ele>82.7</ele>
        <time>2024-04-25T12:15:58.250Z</time>
      </trkpt>
      <trkpt lat="43.70633" lon="3.91373">
        <ele>82</ele>
        <time>2024-04-25T12:15:59.500Z</time>
      </trkpt>
      <trkpt lat="43.70636" lon="3.91377">
        <ele>81.2</ele>
        <time>2024-04-25T12:16:00.750Z</time>
      </trkpt>
      <trkpt lat="43.7064" lon="3.9138">
        <ele>80.6</ele>
        <time>2024-04-25T12:16:02.000Z</time>
      </trkpt>
      <trkpt lat="43.70644" lon="3.91384">
        <ele>80.4</ele>
        <time>2024-04-25T12:16:03.250Z</time>
      </trkpt>
      <trkpt lat="43.70648" lon="3.91387">
        <ele>80.1</ele>
        <time>2024-04-25T12:16:04.500Z</time>
      </trkpt>
      <trkpt lat="43.70651" lon="3.91391">
        <ele>79.9</ele>
        <time>2024-04-25T12:16:05.750Z</time>
      </trkpt>
      <trkpt lat="43.70655" lon="3.91394">
        <ele>79.7</ele>
        <time>2024-04-25T14:16:07+02:00</time>
      </trkpt>
      <trkpt lat="43.70655" lon="3.91402">
        <ele>79.3</ele>
        <time>2024-04-25T12:16:09.500Z</time>
      </trkpt>
      <trkpt lat="43.70656" lon="3.9141">
        <ele>78.9</ele>
        <time>2024-04-25T12:16:12.000Z</time>
      </trkpt>
      <trkpt lat="43.70656" lon="3.91418">
        <ele>78.8</ele>
        <time>2024-04-25T12:16:14.500Z</time>
      </trkpt>
      <trkpt lat="43.70656" lon="3.91426">
        <ele>79.7</ele>
        <time>2024-04-25T14:16:17+02:00</time>
      </trkpt>
      <trkpt lat="43.70649" lon="3.9142">
        <ele>78.7</ele>
        <time>2024-04-25T12:16:54.999Z</time>
      </trkpt>
      <trkpt lat="43.70643" lon="3.91414">
        <ele>78.3</ele>
        <time>2024-04-25T12:17:32.999Z</time>
      </trkpt>
      <trkpt lat="43.70636" lon="3.91407">
        <ele>78.9</ele>
        <time>2024-04-25T12:18:10.999Z</time>
      </trkpt>
      <trkpt lat="43.70629" lon="3.91401">
        <ele>79.9</ele>
        <time>2024-04-25T14:18:49+02:00</time>
      </trkpt>
      <trkpt lat="43.70625" lon="3.91403">
        <ele>80</ele>
        <time>2024-04-25T12:18:50.249Z</time>
      </trkpt>
      <trkpt lat="43.7062" lon="3.91405">
        <ele>80.1</ele>
        <time>2024-04-25T12:18:51.499Z</time>
      </trkpt>
      <trkpt lat="43.70616" lon="3.91407">
        <ele>80.1</ele>
        <time>2024-04-25T12:18:52.749Z</time>
      </trkpt>
      <trkpt lat="43.70612" lon="3.91409">
        <ele>80.1</ele>
        <time>2024-04-25T12:18:53.999Z</time>
      </trkpt>
      <trkpt lat="43.70607" lon="3.91411">
        <ele>80.1</ele>
        <time>2024-04-25T12:18:55.249Z</time>
      </trkpt>
      <trkpt lat="43.70603" lon="3.91413">
        <ele>80.2</ele>
        <time>2024-04-25T12:18:56.499Z</time>
      </trkpt>
      <trkpt lat="43.70598" lon="3.91415">
        <ele>80.2</ele>
        <time>2024-04-25T12:18:57.749Z</time>
      </trkpt>
      <trkpt lat="43.70594" lon="3.91417">
        <ele>80.2</ele>
        <time>2024-04-25T14:18:59+02:00</time>
      </trkpt>
      <trkpt lat="43.70588" lon="3.91418">
        <ele>80.5</ele>
        <time>2024-04-25T12:19:00.250Z</time>
      </trkpt>
      <trkpt lat="43.70582" lon="3.91418">
        <ele>80.8</ele>
        <time>2024-04-25T12:19:01.500Z</time>
      </trkpt>
      <trkpt lat="43.70576" lon="3.91419">
        <ele>80.5</ele>
        <time>2024-04-25T12:19:02.750Z</time>
      </trkpt>
      <trkpt lat="43.70571" lon="3.91419">
        <ele>80.2</ele>
        <time>2024-04-25T12:19:04.000Z</time>
      </trkpt>
      <trkpt lat="43.70565" lon="3.9142">
        <ele>80</ele>
        <time>2024-04-25T12:19:05.250Z</time>
      </trkpt>
      <trkpt lat="43.70559" lon="3.9142">
        <ele>79.7</ele>
        <time>2024-04-25T12:19:06.500Z</time>
      </trkpt>
      <trkpt lat="43.70553" lon="3.91421">
        <ele>79.5</ele>
        <time>2024-04-25T12:19:07.750Z</time>
      </trkpt>
      <trkpt lat="43.70547" lon="3.91421">
        <ele>79.3</ele>
        <time>2024-04-25T14:19:09+02:00</time>
      </trkpt>
      <trkpt lat="43.7054" lon="3.91416">
        <ele>79.5</ele>
        <time>2024-04-25T12:19:10.249Z</time>
      </trkpt>
      <trkpt lat="43.70533" lon="3.91412">
        <ele>80.1</ele>
        <time>2024-04-25T12:19:11.499Z</time>
      </trkpt>
      <trkpt lat="43.70526" lon="3.91407">
        <ele>80.6</ele>
        <time>2024-04-25T12:19:12.749Z</time>
      </trkpt>
      <trkpt lat="43.70519" lon="3.91403">
        <ele>80.9</ele>
        <time>2024-04-25T12:19:13.999Z</time>
      </trkpt>
      <trkpt lat="43.70511" lon="3.91398">
        <ele>81</ele>
        <time>2024-04-25T12:19:15.249Z</time>
      </trkpt>
      <trkpt lat="43.70504" lon="3.91393">
        <ele>80.9</ele>
        <time>2024-04-25T12:19:16.499Z</time>
      </trkpt>
      <trkpt lat="43.70497" lon="3.91389">
        <ele>81</ele>
        <time>2024-04-25T12:19:17.749Z</time>
      </trkpt>
      <trkpt lat="43.7049" lon="3.91384">
        <ele>81.9</ele>
        <time>2024-04-25T14:19:19+02:00</time>
      </trkpt>
      <trkpt lat="43.70485" lon="3.91381">
        <ele>82.5</ele>
        <time>2024-04-25T12:19:20.249Z</time>
      </trkpt>
      <trkpt lat="43.7048" lon="3.91378">
        <ele>82.9</ele>
        <time>2024-04-25T12:19:21.499Z</time>
      </trkpt>
      <trkpt lat="43.70475" lon="3.91374">
        <ele>83.3</ele>
        <time>2024-04-25T12:19:22.749Z</time>
      </trkpt>
      <trkpt lat="43.7047" lon="3.91371">
        <ele>83.6</ele>
        <time>2024-04-25T12:19:23.999Z</time>
      </trkpt>
      <trkpt lat="43.70464" lon="3.91368">
        <ele>83.8</ele>
        <time>2024-04-25T12:19:25.249Z</time>
      </trkpt>
      <trkpt lat="43.70459" lon="3.91365">
        <ele>83.9</ele>
        <time>2024-04-25T12:19:26.499Z</time>
      </trkpt>
      <trkpt lat="43.70454" lon="3.91361">
        <ele>84</ele>
        <time>2024-04-25T12:19:27.749Z</time>
      </trkpt>
      <trkpt lat="43.70449" lon="3.91358">
        <ele>84.2</ele>
        <time>2024-04-25T14:19:29+02:00</time>
      </trkpt>
      <trkpt lat="43.70443" lon="3.91357">
        <ele>84.1</ele>
        <time>2024-04-25T12:19:30.249Z</time>
      </trkpt>
      <trkpt lat="43.70436" lon="3.91355">
        <ele>84.1</ele>
        <time>2024-04-25T12:19:31.499Z</time>
      </trkpt>
      <trkpt lat="43.7043" lon="3.91354">
        <ele>84.1</ele>
        <time>2024-04-25T12:19:32.749Z</time>
      </trkpt>
      <trkpt lat="43.70423" lon="3.91352">
        <ele>84</ele>
        <time>2024-04-25T12:19:33.999Z</time>
      </trkpt>
      <trkpt lat="43.70417" lon="3.91351">
        <ele>83.9</ele>
        <time>2024-04-25T12:19:35.249Z</time>
      </trkpt>
      <trkpt lat="43.7041" lon="3.91349">
        <ele>83.8</ele>
        <time>2024-04-25T12:19:36.499Z</time>
      </trkpt>
      <trkpt lat="43.70404" lon="3.91348">
        <ele>83.7</ele>
        <time>2024-04-25T12:19:37.749Z</time>
      </trkpt>
      <trkpt lat="43.70397" lon="3.91346">
        <ele>83.6</ele>
        <time>2024-04-25T14:19:39+02:00</time>
      </trkpt>
      <trkpt lat="43.70392" lon="3.91344">
        <ele>83.7</ele>
        <time>2024-04-25T12:19:40.249Z</time>
      </trkpt>
      <trkpt lat="43.70388" lon="3.91342">
        <ele>83.8</ele>
        <time>2024-04-25T12:19:41.499Z</time>
      </trkpt>
      <trkpt lat="43.70383" lon="3.9134">
        <ele>84.1</ele>
        <time>2024-04-25T12:19:42.749Z</time>
      </trkpt>
      <trkpt lat="43.70378" lon="3.91338">
        <ele>84.4</ele>
        <time>2024-04-25T12:19:43.999Z</time>
      </trkpt>
      <trkpt lat="43.70373" lon="3.91335">
        <ele>84.7</ele>
        <time>2024-04-25T12:19:45.249Z</time>
      </trkpt>
      <trkpt lat="43.70369" lon="3.91333">
        <ele>85</ele>
        <time>2024-04-25T12:19:46.499Z</time>
      </trkpt>
      <trkpt lat="43.70364" lon="3.91331">
        <ele>85.3</ele>
        <time>2024-04-25T12:19:47.749Z</time>
      </trkpt>
      <trkpt lat="43.70359" lon="3.91329">
        <ele>85.5</ele>
        <time>2024-04-25T14:19:49+02:00</time>
      </trkpt>
      <trkpt lat="43.70353" lon="3.91327">
        <ele>85.5</ele>
        <time>2024-04-25T12:19:50.249Z</time>
      </trkpt>
      <trkpt lat="43.70348" lon="3.91326">
        <ele>85.5</ele>
        <time>2024-04-25T12:19:51.499Z</time>
      </trkpt>
      <trkpt lat="43.70342" lon="3.91324">
        <ele>85.5</ele>
        <time>2024-04-25T12:19:52.749Z</time>
      </trkpt>
      <trkpt lat="43.70337" lon="3.91322">
        <ele>85.4</ele>
        <time>2024-04-25T12:19:53.999Z</time>
      </trkpt>
      <trkpt lat="43.70331" lon="3.9132">
        <ele>85.4</ele>
        <time>2024-04-25T12:19:55.249Z</time>
      </trkpt>
      <trkpt lat="43.70325" lon="3.91319">
        <ele>85.4</ele>
        <time>2024-04-25T12:19:56.499Z</time>
      </trkpt>
      <trkpt lat="43.7032" lon="3.91317">
        <ele>85.5</ele>
        <time>2024-04-25T12:19:57.749Z</time>
      </trkpt>
      <trkpt lat="43.70314" lon="3.91315">
        <ele>85.5</ele>
        <time>2024-04-25T14:19:59+02:00</time>
      </trkpt>
      <trkpt lat="43.70309" lon="3.91315">
        <ele>85.4</ele>
        <time>2024-04-25T12:20:00.250Z</time>
      </trkpt>
      <trkpt lat="43.70305" lon="3.91314">
        <ele>85.3</ele>
        <time>2024-04-25T12:20:01.500Z</time>
      </trkpt>
      <trkpt lat="43.703" lon="3.91314">
        <ele>85.2</ele>
        <time>2024-04-25T12:20:02.750Z</time>
      </trkpt>
      <trkpt lat="43.70296" lon="3.91314">
        <ele>85.1</ele>
        <time>2024-04-25T12:20:04.000Z</time>
      </trkpt>
      <trkpt lat="43.70291" lon="3.91313">
        <ele>84.9</ele>
        <time>2024-04-25T12:20:05.250Z</time>
      </trkpt>
      <trkpt lat="43.70286" lon="3.91313">
        <ele>84.8</ele>
        <time>2024-04-25T12:20:06.500Z</time>
      </trkpt>
      <trkpt lat="43.70282" lon="3.91312">
        <ele>84.6</ele>
        <time>2024-04-25T12:20:07.750Z</time>
      </trkpt>
      <trkpt lat="43.70277" lon="3.91312">
        <ele>84.5</ele>
        <time>2024-04-25T14:20:09+02:00</time>
      </trkpt>
      <trkpt lat="43.70273" lon="3.91307">
        <ele>84.8</ele>
        <time>2024-04-25T12:20:10.999Z</time>
      </trkpt>
      <trkpt lat="43.70269" lon="3.91301">
        <ele>85</ele>
        <time>2024-04-25T14:20:13+02:00</time>
      </trkpt>
      <trkpt lat="43.70265" lon="3.91297">
        <ele>85.2</ele>
        <time>2024-04-25T12:20:13.749Z</time>
      </trkpt>
      <trkpt lat="43.70261" lon="3.91293">
        <ele>85.3</ele>
        <time>2024-04-25T12:20:14.499Z</time>
      </trkpt>
      <trkpt lat="43.70256" lon="3.91289">
        <ele>85.4</ele>
        <time>2024-04-25T12:20:15.249Z</time>
      </trkpt>
      <trkpt lat="43.70252" lon="3.91285">
        <ele>85.6</ele>
        <time>2024-04-25T12:20:15.999Z</time>
      </trkpt>
      <trkpt lat="43.70248" lon="3.9128">
        <ele>85.7</ele>
        <time>2024-04-25T12:20:16.749Z</time>
      </trkpt>
      <trkpt lat="43.70244" lon="3.91276">
        <ele>85.6</ele>
        <time>2024-04-25T12:20:17.499Z</time>
      </trkpt>
      <trkpt lat="43.70239" lon="3.91272">
        <ele>85.6</ele>
        <time>2024-04-25T12:20:18.249Z</time>
      </trkpt>
      <trkpt lat="43.70235" lon="3.91268">
        <ele>85.4</ele>
        <time>2024-04-25T14:20:19+02:00</time>
      </trkpt>
      <trkpt lat="43.7023" lon="3.91261">
        <ele>85.3</ele>
        <time>2024-04-25T12:20:20.249Z</time>
      </trkpt>
      <trkpt lat="43.70224" lon="3.91253">
        <ele>85.1</ele>
        <time>2024-04-25T12:20:21.499Z</time>
      </trkpt>
      <trkpt lat="43.70219" lon="3.91246">
        <ele>85.2</ele>
        <time>2024-04-25T12:20:22.749Z</time>
      </trkpt>
      <trkpt lat="43.70213" lon="3.91239">
        <ele>85.5</ele>
        <time>2024-04-25T12:20:23.999Z</time>
      </trkpt>
      <trkpt lat="43.70208" lon="3.91231">
        <ele>85.4</ele>
        <time>2024-04-25T12:20:25.249Z</time>
      </trkpt>
      <trkpt lat="43.70202" lon="3.91224">
        <ele>85</ele>
        <time>2024-04-25T12:20:26.499Z</time>
      </trkpt>
      <trkpt lat="43.70197" lon="3.91216">
        <ele>84.7</ele>
        <time>2024-04-25T12:20:27.749Z</time>
      </trkpt>
      <trkpt lat="43.70191" lon="3.91209">
        <ele>84.8</ele>
        <time>2024-04-25T14:20:29+02:00</time>
      </trkpt>
      <trkpt lat="43.70184" lon="3.91211">
        <ele>84.5</ele>
        <time>2024-04-25T12:20:30.999Z</time>
      </trkpt>
      <trkpt lat="43.70176" lon="3.91214">
        <ele>84.2</ele>
        <time>2024-04-25T12:20:32.999Z</time>
      </trkpt>
      <trkpt lat="43.70169" lon="3.91216">
        <ele>84</ele>
        <time>2024-04-25T12:20:34.999Z</time>
      </trkpt>
      <trkpt lat="43.70161" lon="3.91218">
        <ele>83.8</ele>
        <time>2024-04-25T14:20:37+02:00</time>
      </trkpt>
      <trkpt lat="43.70157" lon="3.9122">
        <ele>83.6</ele>
        <time>2024-04-25T12:20:37.749Z</time>
      </trkpt>
      <trkpt lat="43.70153" lon="3.91223">
        <ele>83.5</ele>
        <time>2024-04-25T12:20:38.499Z</time>
      </trkpt>
      <trkpt lat="43.70148" lon="3.91225">
        <ele>83.2</ele>
        <time>2024-04-25T12:20:39.249Z</time>
      </trkpt>
      <trkpt lat="43.70144" lon="3.91228">
        <ele>83</ele>
        <time>2024-04-25T12:20:39.999Z</time>
      </trkpt>
      <trkpt lat="43.7014" lon="3.9123">
        <ele>82.7</ele>
        <time>2024-04-25T12:20:40.749Z</time>
      </trkpt>
      <trkpt lat="43.70136" lon="3.91233">
        <ele>82.5</ele>
        <time>2024-04-25T12:20:41.499Z</time>
      </trkpt>
      <trkpt lat="43.70131" lon="3.91235">
        <ele>82.4</ele>
        <time>2024-04-25T12:20:42.249Z</time>
      </trkpt>
      <trkpt lat="43.70127" lon="3.91238">
        <ele>82.3</ele>
        <time>2024-04-25T12:20:42.999Z</time>
      </trkpt>
      <trkpt lat="43.70123" lon="3.9124">
        <ele>82.2</ele>
        <time>2024-04-25T12:20:43.749Z</time>
      </trkpt>
      <trkpt lat="43.70119" lon="3.91242">
        <ele>82.1</ele>
        <time>2024-04-25T12:20:44.499Z</time>
      </trkpt>
      <trkpt lat="43.70114" lon="3.91245">
        <ele>82</ele>
        <time>2024-04-25T12:20:45.249Z</time>
      </trkpt>
      <trkpt lat="43.7011" lon="3.91247">
        <ele>82</ele>
        <time>2024-04-25T12:20:45.999Z</time>
      </trkpt>
      <trkpt lat="43.70106" lon="3.9125">
        <ele>81.8</ele>
        <time>2024-04-25T12:20:46.749Z</time>
      </trkpt>
      <trkpt lat="43.70102" lon="3.91252">
        <ele>81.6</ele>
        <time>2024-04-25T12:20:47.499Z</time>
      </trkpt>
      <trkpt lat="43.70097" lon="3.91255">
        <ele>81.4</ele>
        <time>2024-04-25T12:20:48.249Z</time>
      </trkpt>
      <trkpt lat="43.70093" lon="3.91257">
        <ele>81.3</ele>
        <time>2024-04-25T14:20:49+02:00</time>
      </trkpt>
      <trkpt lat="43.70086" lon="3.91262">
        <ele>81.1</ele>
        <time>2024-04-25T12:20:50.249Z</time>
      </trkpt>
      <trkpt lat="43.70079" lon="3.91266">
        <ele>80.8</ele>
        <time>2024-04-25T12:20:51.499Z</time>
      </trkpt>
      <trkpt lat="43.70072" lon="3.91271">
        <ele>80.6</ele>
        <time>2024-04-25T12:20:52.749Z</time>
      </trkpt>
      <trkpt lat="43.70065" lon="3.91276">
        <ele>80.3</ele>
        <time>2024-04-25T12:20:53.999Z</time>
      </trkpt>
      <trkpt lat="43.70058" lon="3.9128">
        <ele>80</ele>
        <time>2024-04-25T12:20:55.249Z</time>
      </trkpt>
      <trkpt lat="43.70051" lon="3.91285">
        <ele>79.8</ele>
        <time>2024-04-25T12:20:56.499Z</time>
      </trkpt>
      <trkpt lat="43.70044" lon="3.91289">
        <ele>79.6</ele>
        <time>2024-04-25T12:20:57.749Z</time>
      </trkpt>
      <trkpt lat="43.70037" lon="3.91294">
        <ele>79.4</ele>
        <time>2024-04-25T14:20:59+02:00</time>
      </trkpt>
      <trkpt lat="43.69997" lon="3.91312">
        <ele>78.8</ele>
        <time>2024-04-25T12:21:34.356Z</time>
      </trkpt>
      <trkpt lat="43.69995" lon="3.91343">
        <ele>78.1</ele>
        <time>2024-04-25T12:21:53.269Z</time>
      </trkpt>
      <trkpt lat="43.69942" lon="3.9136">
        <ele>76</ele>
        <time>2024-04-25T14:22:39+02:00</time>
      </trkpt>
      <trkpt lat="43.6994" lon="3.91353">
        <ele>76.7</ele>
        <time>2024-04-25T12:22:40.249Z</time>
      </trkpt>
      <trkpt lat="43.69939" lon="3.91346">
        <ele>77.3</ele>
        <time>2024-04-25T12:22:41.499Z</time>
      </trkpt>
      <trkpt lat="43.69937" lon="3.91339">
        <ele>77.9</ele>
        <time>2024-04-25T12:22:42.749Z</time>
      </trkpt>
      <trkpt lat="43.69935" lon="3.91333">
        <ele>78.3</ele>
        <time>2024-04-25T12:22:43.999Z</time>
      </trkpt>
      <trkpt lat="43.69933" lon="3.91326">
        <ele>78.3</ele>
        <time>2024-04-25T12:22:45.249Z</time>
      </trkpt>
      <trkpt lat="43.69932" lon="3.91319">
        <ele>78.3</ele>
        <time>2024-04-25T12:22:46.499Z</time>
      </trkpt>
      <trkpt lat="43.6993" lon="3.91312">
        <ele>78.4</ele>
        <time>2024-04-25T12:22:47.749Z</time>
      </trkpt>
      <trkpt lat="43.69928" lon="3.91305">
        <ele>78.4</ele>
        <time>2024-04-25T14:22:49+02:00</time>
      </trkpt>
      <trkpt lat="43.69925" lon="3.91296">
        <ele>78.2</ele>
        <time>2024-04-25T12:22:50.249Z</time>
      </trkpt>
      <trkpt lat="43.69921" lon="3.91287">
        <ele>78</ele>
        <time>2024-04-25T12:22:51.499Z</time>
      </trkpt>
      <trkpt lat="43.69918" lon="3.91277">
        <ele>78</ele>
        <time>2024-04-25T12:22:52.749Z</time>
      </trkpt>
      <trkpt lat="43.69914" lon="3.91268">
        <ele>77.9</ele>
        <time>2024-04-25T12:22:53.999Z</time>
      </trkpt>
      <trkpt lat="43.69911" lon="3.91259">
        <ele>77.8</ele>
        <time>2024-04-25T12:22:55.249Z</time>
      </trkpt>
      <trkpt lat="43.69907" lon="3.9125">
        <ele>77.6</ele>
        <time>2024-04-25T12:22:56.499Z</time>
      </trkpt>
      <trkpt lat="43.69904" lon="3.9124">
        <ele>77.2</ele>
        <time>2024-04-25T12:22:57.749Z</time>
      </trkpt>
      <trkpt lat="43.699" lon="3.91231">
        <ele>76.7</ele>
        <time>2024-04-25T14:22:59+02:00</time>
      </trkpt>
      <trkpt lat="43.69897" lon="3.91222">
        <ele>76.3</ele>
        <time>2024-04-25T12:23:00.249Z</time>
      </trkpt>
      <trkpt lat="43.69893" lon="3.91213">
        <ele>76.2</ele>
        <time>2024-04-25T12:23:01.499Z</time>
      </trkpt>
      <trkpt lat="43.6989" lon="3.91204">
        <ele>76</ele>
        <time>2024-04-25T12:23:02.749Z</time>
      </trkpt>
      <trkpt lat="43.69887" lon="3.91195">
        <ele>75.9</ele>
        <time>2024-04-25T12:23:03.999Z</time>
      </trkpt>
      <trkpt lat="43.69883" lon="3.91185">
        <ele>75.8</ele>
        <time>2024-04-25T12:23:05.249Z</time>
      </trkpt>
      <trkpt lat="43.6988" lon="3.91176">
        <ele>75.7</ele>
        <time>2024-04-25T12:23:06.499Z</time>
      </trkpt>
      <trkpt lat="43.69876" lon="3.91167">
        <ele>75.6</ele>
        <time>2024-04-25T12:23:07.749Z</time>
      </trkpt>
      <trkpt lat="43.69873" lon="3.91158">
        <ele>75.6</ele>
        <time>2024-04-25T14:23:09+02:00</time>
      </trkpt>
      <trkpt lat="43.69868" lon="3.91152">
        <ele>75.7</ele>
        <time>2024-04-25T12:23:10.249Z</time>
      </trkpt>
      <trkpt lat="43.69863" lon="3.91145">
        <ele>75.8</ele>
        <time>2024-04-25T12:23:11.499Z</time>
      </trkpt>
      <trkpt lat="43.69858" lon="3.91139">
        <ele>75.9</ele>
        <time>2024-04-25T12:23:12.749Z</time>
      </trkpt>
      <trkpt lat="43.69854" lon="3.91132">
        <ele>76</ele>
        <time>2024-04-25T12:23:13.999Z</time>
      </trkpt>
      <trkpt lat="43.69849" lon="3.91126">
        <ele>76.2</ele>
        <time>2024-04-25T12:23:15.249Z</time>
      </trkpt>
      <trkpt lat="43.69844" lon="3.91119">
        <ele>76.5</ele>
        <time>2024-04-25T12:23:16.499Z</time>
      </trkpt>
      <trkpt lat="43.69839" lon="3.91113">
        <ele>76.9</ele>
        <time>2024-04-25T12:23:17.749Z</time>
      </trkpt>
      <trkpt lat="43.69834" lon="3.91106">
        <ele>77</ele>
        <time>2024-04-25T14:23:19+02:00</time>
      </trkpt>
      <trkpt lat="43.69829" lon="3.91099">
        <ele>76.9</ele>
        <time>2024-04-25T12:23:20.249Z</time>
      </trkpt>
      <trkpt lat="43.69824" lon="3.91092">
        <ele>76.9</ele>
        <time>2024-04-25T12:23:21.499Z</time>
      </trkpt>
      <trkpt lat="43.69819" lon="3.91085">
        <ele>77</ele>
        <time>2024-04-25T12:23:22.749Z</time>
      </trkpt>
      <trkpt lat="43.69814" lon="3.91078">
        <ele>77</ele>
        <time>2024-04-25T12:23:23.999Z</time>
      </trkpt>
      <trkpt lat="43.69809" lon="3.91071">
        <ele>77</ele>
        <time>2024-04-25T12:23:25.249Z</time>
      </trkpt>
      <trkpt lat="43.69804" lon="3.91064">
        <ele>76.9</ele>
        <time>2024-04-25T12:23:26.499Z</time>
      </trkpt>
      <trkpt lat="43.69799" lon="3.91057">
        <ele>76.8</ele>
        <time>2024-04-25T12:23:27.749Z</time>
      </trkpt>
      <trkpt lat="43.69794" lon="3.9105">
        <ele>76.7</ele>
        <time>2024-04-25T14:23:29+02:00</time>
      </trkpt>
      <trkpt lat="43.69789" lon="3.91043">
        <ele>76.7</ele>
        <time>2024-04-25T12:23:30.249Z</time>
      </trkpt>
      <trkpt lat="43.69783" lon="3.91037">
        <ele>76.7</ele>
        <time>2024-04-25T12:23:31.499Z</time>
      </trkpt>
      <trkpt lat="43.69778" lon="3.9103">
        <ele>76.9</ele>
        <time>2024-04-25T12:23:32.749Z</time>
      </trkpt>
      <trkpt lat="43.69773" lon="3.91023">
        <ele>76.5</ele>
        <time>2024-04-25T12:23:33.999Z</time>
      </trkpt>
      <trkpt lat="43.69767" lon="3.91016">
        <ele>76.1</ele>
        <time>2024-04-25T12:23:35.249Z</time>
      </trkpt>
      <trkpt lat="43.69762" lon="3.9101">
        <ele>75.9</ele>
        <time>2024-04-25T12:23:36.499Z</time>
      </trkpt>
      <trkpt lat="43.69756" lon="3.91003">
        <ele>75.9</ele>
        <time>2024-04-25T12:23:37.749Z</time>
      </trkpt>
      <trkpt lat="43.69751" lon="3.90996">
        <ele>76</ele>
        <time>2024-04-25T14:23:39+02:00</time>
      </trkpt>
      <trkpt lat="43.69745" lon="3.9099">
        <ele>75.7</ele>
        <time>2024-04-25T12:23:40.249Z</time>
      </trkpt>
      <trkpt lat="43.69738" lon="3.90984">
        <ele>75.4</ele>
        <time>2024-04-25T12:23:41.499Z</time>
      </trkpt>
      <trkpt lat="43.69732" lon="3.90978">
        <ele>75.2</ele>
        <time>2024-04-25T12:23:42.749Z</time>
      </trkpt>
      <trkpt lat="43.69726" lon="3.90972">
        <ele>75.1</ele>
        <time>2024-04-25T12:23:43.999Z</time>
      </trkpt>
      <trkpt lat="43.69719" lon="3.90966">
        <ele>74.9</ele>
        <time>2024-04-25T12:23:45.249Z</time>
      </trkpt>
      <trkpt lat="43.69713" lon="3.9096">
        <ele>74.8</ele>
        <time>2024-04-25T12:23:46.499Z</time>
      </trkpt>
      <trkpt lat="43.69706" lon="3.90954">
        <ele>74.8</ele>
        <time>2024-04-25T12:23:47.749Z</time>
      </trkpt>
      <trkpt lat="43.697" lon="3.90948">
        <ele>74.9</ele>
        <time>2024-04-25T14:23:49+02:00</time>
      </trkpt>
      <trkpt lat="43.69695" lon="3.90942">
        <ele>75</ele>
        <time>2024-04-25T12:23:50.249Z</time>
      </trkpt>
      <trkpt lat="43.6969" lon="3.90936">
        <ele>74.7</ele>
        <time>2024-04-25T12:23:51.499Z</time>
      </trkpt>
      <trkpt lat="43.69684" lon="3.9093">
        <ele>74.5</ele>
        <time>2024-04-25T12:23:52.749Z</time>
      </trkpt>
      <trkpt lat="43.69679" lon="3.90924">
        <ele>74.3</ele>
        <time>2024-04-25T12:23:53.999Z</time>
      </trkpt>
      <trkpt lat="43.69674" lon="3.90918">
        <ele>74.2</ele>
        <time>2024-04-25T12:23:55.249Z</time>
      </trkpt>
      <trkpt lat="43.69669" lon="3.90912">
        <ele>74.2</ele>
        <time>2024-04-25T12:23:56.499Z</time>
      </trkpt>
      <trkpt lat="43.69663" lon="3.90906">
        <ele>74.3</ele>
        <time>2024-04-25T12:23:57.749Z</time>
      </trkpt>
      <trkpt lat="43.69658" lon="3.909">
        <ele>74.3</ele>
        <time>2024-04-25T14:23:59+02:00</time>
      </trkpt>
      <trkpt lat="43.69652" lon="3.90895">
        <ele>74.2</ele>
        <time>2024-04-25T12:24:00.249Z</time>
      </trkpt>
      <trkpt lat="43.69646" lon="3.9089">
        <ele>74.2</ele>
        <time>2024-04-25T12:24:01.499Z</time>
      </trkpt>
      <trkpt lat="43.6964" lon="3.90885">
        <ele>74.2</ele>
        <time>2024-04-25T12:24:02.749Z</time>
      </trkpt>
      <trkpt lat="43.69634" lon="3.9088">
        <ele>74.1</ele>
        <time>2024-04-25T12:24:03.999Z</time>
      </trkpt>
      <trkpt lat="43.69627" lon="3.90875">
        <ele>74.1</ele>
        <time>2024-04-25T12:24:05.249Z</time>
      </trkpt>
      <trkpt lat="43.69621" lon="3.9087">
        <ele>74</ele>
        <time>2024-04-25T12:24:06.499Z</time>
      </trkpt>
      <trkpt lat="43.69615" lon="3.90865">
        <ele>74</ele>
        <time>2024-04-25T12:24:07.749Z</time>
      </trkpt>
      <trkpt lat="43.69609" lon="3.9086">
        <ele>74</ele>
        <time>2024-04-25T14:24:09+02:00</time>
      </trkpt>
      <trkpt lat="43.69602" lon="3.90863">
        <ele>73.6</ele>
        <time>2024-04-25T12:24:10.249Z</time>
      </trkpt>
      <trkpt lat="43.69594" lon="3.90865">
        <ele>73.2</ele>
        <time>2024-04-25T12:24:11.499Z</time>
      </trkpt>
      <trkpt lat="43.69587" lon="3.90868">
        <ele>72.9</ele>
        <time>2024-04-25T12:24:12.749Z</time>
      </trkpt>
      <trkpt lat="43.69579" lon="3.90871">
        <ele>72.6</ele>
        <time>2024-04-25T12:24:13.999Z</time>
      </trkpt>
      <trkpt lat="43.69572" lon="3.90873">
        <ele>72.3</ele>
        <time>2024-04-25T12:24:15.249Z</time>
      </trkpt>
      <trkpt lat="43.69564" lon="3.90876">
        <ele>72.1</ele>
        <time>2024-04-25T12:24:16.499Z</time>
      </trkpt>
      <trkpt lat="43.69557" lon="3.90878">
        <ele>72</ele>
        <time>2024-04-25T12:24:17.749Z</time>
      </trkpt>
      <trkpt lat="43.69549" lon="3.90881">
        <ele>72</ele>
        <time>2024-04-25T14:24:19+02:00</time>
      </trkpt>
      <trkpt lat="43.69542" lon="3.90886">
        <ele>72</ele>
        <time>2024-04-25T12:24:20.249Z</time>
      </trkpt>
      <trkpt lat="43.69535" lon="3.90891">
        <ele>72</ele>
        <time>2024-04-25T12:24:21.499Z</time>
      </trkpt>
      <trkpt lat="43.69528" lon="3.90896">
        <ele>72</ele>
        <time>2024-04-25T12:24:22.749Z</time>
      </trkpt>
      <trkpt lat="43.69521" lon="3.90902">
        <ele>72</ele>
        <time>2024-04-25T12:24:23.999Z</time>
      </trkpt>
      <trkpt lat="43.69513" lon="3.90907">
        <ele>72</ele>
        <time>2024-04-25T12:24:25.249Z</time>
      </trkpt>
      <trkpt lat="43.69506" lon="3.90912">
        <ele>72</ele>
        <time>2024-04-25T12:24:26.499Z</time>
      </trkpt>
      <trkpt lat="43.69499" lon="3.90917">
        <ele>72</ele>
        <time>2024-04-25T12:24:27.749Z</time>
      </trkpt>
      <trkpt lat="43.69492" lon="3.90922">
        <ele>71.8</ele>
        <time>2024-04-25T14:24:29+02:00</time>
      </trkpt>
      <trkpt lat="43.69486" lon="3.90929">
        <ele>71.6</ele>
        <time>2024-04-25T12:24:30.249Z</time>
      </trkpt>
      <trkpt lat="43.69479" lon="3.90936">
        <ele>71.3</ele>
        <time>2024-04-25T12:24:31.499Z</time>
      </trkpt>
      <trkpt lat="43.69473" lon="3.90943">
        <ele>71.1</ele>
        <time>2024-04-25T12:24:32.749Z</time>
      </trkpt>
      <trkpt lat="43.69466" lon="3.9095">
        <ele>71.2</ele>
        <time>2024-04-25T12:24:33.999Z</time>
      </trkpt>
      <trkpt lat="43.6946" lon="3.90956">
        <ele>71.3</ele>
        <time>2024-04-25T12:24:35.249Z</time>
      </trkpt>
      <trkpt lat="43.69453" lon="3.90963">
        <ele>71.2</ele>
        <time>2024-04-25T12:24:36.499Z</time>
      </trkpt>
      <trkpt lat="43.69447" lon="3.9097">
        <ele>71.1</ele>
        <time>2024-04-25T12:24:37.749Z</time>
      </trkpt>
      <trkpt lat="43.6944" lon="3.90977">
        <ele>71.2</ele>
        <time>2024-04-25T14:24:39+02:00</time>
      </trkpt>
      <trkpt lat="43.69434" lon="3.90983">
        <ele>71.4</ele>
        <time>2024-04-25T12:24:40.249Z</time>
      </trkpt>
      <trkpt lat="43.69429" lon="3.90988">
        <ele>71.6</ele>
        <time>2024-04-25T12:24:41.499Z</time>
      </trkpt>
      <trkpt lat="43.69423" lon="3.90994">
        <ele>71.8</ele>
        <time>2024-04-25T12:24:42.749Z</time>
      </trkpt>
      <trkpt lat="43.69417" lon="3.90999">
        <ele>72</ele>
        <time>2024-04-25T12:24:43.999Z</time>
      </trkpt>
      <trkpt lat="43.69411" lon="3.91005">
        <ele>72</ele>
        <time>2024-04-25T12:24:45.249Z</time>
      </trkpt>
      <trkpt lat="43.69406" lon="3.9101">
        <ele>72.1</ele>
        <time>2024-04-25T12:24:46.499Z</time>
      </trkpt>
      <trkpt lat="43.694" lon="3.91016">
        <ele>72.3</ele>
        <time>2024-04-25T12:24:47.749Z</time>
      </trkpt>
      <trkpt lat="43.69394" lon="3.91021">
        <ele>72.6</ele>
        <time>2024-04-25T14:24:49+02:00</time>
      </trkpt>
      <trkpt lat="43.69389" lon="3.91025">
        <ele>72.9</ele>
        <time>2024-04-25T12:24:50.249Z</time>
      </trkpt>
      <trkpt lat="43.69383" lon="3.91028">
        <ele>72.4</ele>
        <time>2024-04-25T12:24:51.499Z</time>
      </trkpt>
      <trkpt lat="43.69378" lon="3.91032">
        <ele>71.9</ele>
        <time>2024-04-25T12:24:52.749Z</time>
      </trkpt>
      <trkpt lat="43.69373" lon="3.91036">
        <ele>71.4</ele>
        <time>2024-04-25T12:24:53.999Z</time>
      </trkpt>
      <trkpt lat="43.69367" lon="3.91039">
        <ele>71</ele>
        <time>2024-04-25T12:24:55.249Z</time>
      </trkpt>
      <trkpt lat="43.69362" lon="3.91043">
        <ele>70.6</ele>
        <time>2024-04-25T12:24:56.499Z</time>
      </trkpt>
      <trkpt lat="43.69356" lon="3.91046">
        <ele>70.4</ele>
        <time>2024-04-25T12:24:57.749Z</time>
      </trkpt>
      <trkpt lat="43.69351" lon="3.9105">
        <ele>70</ele>
        <time>2024-04-25T14:24:59+02:00</time>
      </trkpt>
      <trkpt lat="43.69347" lon="3.91053">
        <ele>69.6</ele>
        <time>2024-04-25T12:25:00.249Z</time>
      </trkpt>
      <trkpt lat="43.69343" lon="3.91057">
        <ele>69</ele>
        <time>2024-04-25T12:25:01.499Z</time>
      </trkpt>
      <trkpt lat="43.69339" lon="3.9106">
        <ele>68.4</ele>
        <time>2024-04-25T12:25:02.749Z</time>
      </trkpt>
      <trkpt lat="43.69335" lon="3.91063">
        <ele>67.9</ele>
        <time>2024-04-25T12:25:03.999Z</time>
      </trkpt>
      <trkpt lat="43.69331" lon="3.91066">
        <ele>67.6</ele>
        <time>2024-04-25T12:25:05.249Z</time>
      </trkpt>
      <trkpt lat="43.69327" lon="3.9107">
        <ele>67.4</ele>
        <time>2024-04-25T12:25:06.499Z</time>
      </trkpt>
      <trkpt lat="43.69323" lon="3.91073">
        <ele>67.2</ele>
        <time>2024-04-25T12:25:07.749Z</time>
      </trkpt>
      <trkpt lat="43.69319" lon="3.91076">
        <ele>66.9</ele>
        <time>2024-04-25T14:25:09+02:00</time>
      </trkpt>
      <trkpt lat="43.69317" lon="3.91084">
        <ele>66.6</ele>
        <time>2024-04-25T14:25:19+02:00</time>
      </trkpt>
      <trkpt lat="43.69311" lon="3.91084">
        <ele>66.3</ele>
        <time>2024-04-25T12:25:22.750Z</time>
      </trkpt>
      <trkpt lat="43.69304" lon="3.91084">
        <ele>66.2</ele>
        <time>2024-04-25T12:25:26.500Z</time>
      </trkpt>
      <trkpt lat="43.69298" lon="3.91084">
        <ele>66.2</ele>
        <time>2024-04-25T12:25:30.250Z</time>
      </trkpt>
      <trkpt lat="43.69292" lon="3.91084">
        <ele>66.2</ele>
        <time>2024-04-25T12:25:34.000Z</time>
      </trkpt>
      <trkpt lat="43.69285" lon="3.91084">
        <ele>66.2</ele>
        <time>2024-04-25T12:25:37.750Z</time>
      </trkpt>
      <trkpt lat="43.69279" lon="3.91084">
        <ele>66.2</ele>
        <time>2024-04-25T12:25:41.500Z</time>
      </trkpt>
      <trkpt lat="43.69272" lon="3.91084">
        <ele>66.2</ele>
        <time>2024-04-25T12:25:45.250Z</time>
      </trkpt>
      <trkpt lat="43.69266" lon="3.91084">
        <ele>66.2</ele>
        <time>2024-04-25T14:25:49+02:00</time>
      </trkpt>
      <trkpt lat="43.69259" lon="3.91086">
        <ele>66.6</ele>
        <time>2024-04-25T12:25:50.249Z</time>
      </trkpt>
      <trkpt lat="43.69252" lon="3.91088">
        <ele>67.1</ele>
        <time>2024-04-25T12:25:51.499Z</time>
      </trkpt>
      <trkpt lat="43.69245" lon="3.9109">
        <ele>67.4</ele>
        <time>2024-04-25T12:25:52.749Z</time>
      </trkpt>
      <trkpt lat="43.69238" lon="3.91093">
        <ele>67.7</ele>
        <time>2024-04-25T12:25:53.999Z</time>
      </trkpt>
      <trkpt lat="43.6923" lon="3.91095">
        <ele>67.9</ele>
        <time>2024-04-25T12:25:55.249Z</time>
      </trkpt>
      <trkpt lat="43.69223" lon="3.91097">
        <ele>68</ele>
        <time>2024-04-25T12:25:56.499Z</time>
      </trkpt>
      <trkpt lat="43.69216" lon="3.91099">
        <ele>67.9</ele>
        <time>2024-04-25T12:25:57.749Z</time>
      </trkpt>
      <trkpt lat="43.69209" lon="3.91101">
        <ele>67.8</ele>
        <time>2024-04-25T14:25:59+02:00</time>
      </trkpt>
      <trkpt lat="43.69204" lon="3.91104">
        <ele>67.8</ele>
        <time>2024-04-25T12:26:00.249Z</time>
      </trkpt>
      <trkpt lat="43.69199" lon="3.91107">
        <ele>67.8</ele>
        <time>2024-04-25T12:26:01.499Z</time>
      </trkpt>
      <trkpt lat="43.69194" lon="3.91109">
        <ele>67.8</ele>
        <time>2024-04-25T12:26:02.749Z</time>
      </trkpt>
      <trkpt lat="43.6919" lon="3.91112">
        <ele>67.9</ele>
        <time>2024-04-25T12:26:03.999Z</time>
      </trkpt>
      <trkpt lat="43.69185" lon="3.91115">
        <ele>68</ele>
        <time>2024-04-25T12:26:05.249Z</time>
      </trkpt>
      <trkpt lat="43.6918" lon="3.91118">
        <ele>68</ele>
        <time>2024-04-25T12:26:06.499Z</time>
      </trkpt>
      <trkpt lat="43.69175" lon="3.9112">
        <ele>68</ele>
        <time>2024-04-25T12:26:07.749Z</time>
      </trkpt>
      <trkpt lat="43.6917" lon="3.91123">
        <ele>68</ele>
        <time>2024-04-25T14:26:09+02:00</time>
      </trkpt>
      <trkpt lat="43.69162" lon="3.91124">
        <ele>67.8</ele>
        <time>2024-04-25T12:26:12.000Z</time>
      </trkpt>
      <trkpt lat="43.69154" lon="3.91125">
        <ele>67.5</ele>
        <time>2024-04-25T14:26:15+02:00</time>
      </trkpt>
      <trkpt lat="43.6915" lon="3.91123">
        <ele>67.2</ele>
        <time>2024-04-25T12:26:17.000Z</time>
      </trkpt>
      <trkpt lat="43.69145" lon="3.9112">
        <ele>66.9</ele>
        <time>2024-04-25T14:26:19+02:00</time>
      </trkpt>
      <trkpt lat="43.69141" lon="3.91116">
        <ele>66.4</ele>
        <time>2024-04-25T12:26:21.499Z</time>
      </trkpt>
      <trkpt lat="43.69136" lon="3.91112">
        <ele>66.1</ele>
        <time>2024-04-25T12:26:23.999Z</time>
      </trkpt>
      <trkpt lat="43.69132" lon="3.91108">
        <ele>65.9</ele>
        <time>2024-04-25T12:26:26.499Z</time>
      </trkpt>
      <trkpt lat="43.69127" lon="3.91104">
        <ele>65.7</ele>
        <time>2024-04-25T14:26:29+02:00</time>
      </trkpt>
      <trkpt lat="43.69122" lon="3.91104">
        <ele>65.7</ele>
        <time>2024-04-25T12:26:30.250Z</time>
      </trkpt>
      <trkpt lat="43.69117" lon="3.91104">
        <ele>65.7</ele>
        <time>2024-04-25T12:26:31.500Z</time>
      </trkpt>
      <trkpt lat="43.69112" lon="3.91104">
        <ele>65.7</ele>
        <time>2024-04-25T12:26:32.750Z</time>
      </trkpt>
      <trkpt lat="43.69107" lon="3.91104">
        <ele>65.5</ele>
        <time>2024-04-25T12:26:34.000Z</time>
      </trkpt>
      <trkpt lat="43.69102" lon="3.91104">
        <ele>65.3</ele>
        <time>2024-04-25T12:26:35.250Z</time>
      </trkpt>
      <trkpt lat="43.69097" lon="3.91104">
        <ele>65</ele>
        <time>2024-04-25T12:26:36.500Z</time>
      </trkpt>
      <trkpt lat="43.69092" lon="3.91104">
        <ele>64.7</ele>
        <time>2024-04-25T12:26:37.750Z</time>
      </trkpt>
      <trkpt lat="43.69087" lon="3.91104">
        <ele>64.5</ele>
        <time>2024-04-25T14:26:39+02:00</time>
      </trkpt>
      <trkpt lat="43.69082" lon="3.91106">
        <ele>64.2</ele>
        <time>2024-04-25T12:26:40.500Z</time>
      </trkpt>
      <trkpt lat="43.69077" lon="3.91108">
        <ele>64.2</ele>
        <time>2024-04-25T14:26:42+02:00</time>
      </trkpt>
      <trkpt lat="43.69071" lon="3.9111">
        <ele>64.1</ele>
        <time>2024-04-25T12:26:42.874Z</time>
      </trkpt>
      <trkpt lat="43.69066" lon="3.91112">
        <ele>64</ele>
        <time>2024-04-25T12:26:43.749Z</time>
      </trkpt>
      <trkpt lat="43.6906" lon="3.91114">
        <ele>64.1</ele>
        <time>2024-04-25T12:26:44.624Z</time>
      </trkpt>
      <trkpt lat="43.69055" lon="3.91116">
        <ele>64.2</ele>
        <time>2024-04-25T12:26:45.499Z</time>
      </trkpt>
      <trkpt lat="43.69049" lon="3.91117">
        <ele>64.4</ele>
        <time>2024-04-25T12:26:46.374Z</time>
      </trkpt>
      <trkpt lat="43.69043" lon="3.91119">
        <ele>64.5</ele>
        <time>2024-04-25T12:26:47.249Z</time>
      </trkpt>
      <trkpt lat="43.69038" lon="3.91121">
        <ele>64.5</ele>
        <time>2024-04-25T12:26:48.124Z</time>
      </trkpt>
      <trkpt lat="43.69032" lon="3.91123">
        <ele>64.6</ele>
        <time>2024-04-25T14:26:49+02:00</time>
      </trkpt>
      <trkpt lat="43.69026" lon="3.91122">
        <ele>64.6</ele>
        <time>2024-04-25T12:26:50.250Z</time>
      </trkpt>
      <trkpt lat="43.69019" lon="3.91122">
        <ele>64.7</ele>
        <time>2024-04-25T12:26:51.500Z</time>
      </trkpt>
      <trkpt lat="43.69013" lon="3.91121">
        <ele>64.8</ele>
        <time>2024-04-25T12:26:52.750Z</time>
      </trkpt>
      <trkpt lat="43.69006" lon="3.9112">
        <ele>65</ele>
        <time>2024-04-25T12:26:54.000Z</time>
      </trkpt>
      <trkpt lat="43.69" lon="3.91119">
        <ele>65.1</ele>
        <time>2024-04-25T12:26:55.250Z</time>
      </trkpt>
      <trkpt lat="43.68993" lon="3.91119">
        <ele>65.2</ele>
        <time>2024-04-25T12:26:56.500Z</time>
      </trkpt>
      <trkpt lat="43.68987" lon="3.91118">
        <ele>65.3</ele>
        <time>2024-04-25T12:26:57.750Z</time>
      </trkpt>
      <trkpt lat="43.6898" lon="3.91117">
        <ele>65.4</ele>
        <time>2024-04-25T14:26:59+02:00</time>
      </trkpt>
      <trkpt lat="43.68975" lon="3.91115">
        <ele>65.6</ele>
        <time>2024-04-25T12:27:00.249Z</time>
      </trkpt>
      <trkpt lat="43.6897" lon="3.91113">
        <ele>65.9</ele>
        <time>2024-04-25T12:27:01.499Z</time>
      </trkpt>
      <trkpt lat="43.68965" lon="3.9111">
        <ele>66.3</ele>
        <time>2024-04-25T12:27:02.749Z</time>
      </trkpt>
      <trkpt lat="43.6896" lon="3.91108">
        <ele>66.6</ele>
        <time>2024-04-25T12:27:03.999Z</time>
      </trkpt>
      <trkpt lat="43.68955" lon="3.91106">
        <ele>66.8</ele>
        <time>2024-04-25T12:27:05.249Z</time>
      </trkpt>
      <trkpt lat="43.6895" lon="3.91104">
        <ele>66.9</ele>
        <time>2024-04-25T12:27:06.499Z</time>
      </trkpt>
      <trkpt lat="43.68945" lon="3.91101">
        <ele>67</ele>
        <time>2024-04-25T12:27:07.749Z</time>
      </trkpt>
      <trkpt lat="43.6894" lon="3.91099">
        <ele>66.7</ele>
        <time>2024-04-25T14:27:09+02:00</time>
      </trkpt>
      <trkpt lat="43.68941" lon="3.91091">
        <ele>66.8</ele>
        <time>2024-04-25T12:27:10.250Z</time>
      </trkpt>
      <trkpt lat="43.68942" lon="3.91084">
        <ele>66.9</ele>
        <time>2024-04-25T12:27:11.500Z</time>
      </trkpt>
      <trkpt lat="43.68943" lon="3.91076">
        <ele>67.2</ele>
        <time>2024-04-25T12:27:12.750Z</time>
      </trkpt>
      <trkpt lat="43.68944" lon="3.91069">
        <ele>67.5</ele>
        <time>2024-04-25T12:27:14.000Z</time>
      </trkpt>
      <trkpt lat="43.68945" lon="3.91061">
        <ele>67.8</ele>
        <time>2024-04-25T12:27:15.250Z</time>
      </trkpt>
      <trkpt lat="43.68946" lon="3.91053">
        <ele>68</ele>
        <time>2024-04-25T12:27:16.500Z</time>
      </trkpt>
      <trkpt lat="43.68947" lon="3.91046">
        <ele>68.1</ele>
        <time>2024-04-25T12:27:17.750Z</time>
      </trkpt>
      <trkpt lat="43.68948" lon="3.91038">
        <ele>68.2</ele>
        <time>2024-04-25T14:27:19+02:00</time>
      </trkpt>
      <trkpt lat="43.68949" lon="3.91031">
        <ele>68.3</ele>
        <time>2024-04-25T12:27:20.250Z</time>
      </trkpt>
      <trkpt lat="43.6895" lon="3.91024">
        <ele>68.4</ele>
        <time>2024-04-25T12:27:21.500Z</time>
      </trkpt>
      <trkpt lat="43.68951" lon="3.91017">
        <ele>68.6</ele>
        <time>2024-04-25T12:27:22.750Z</time>
      </trkpt>
      <trkpt lat="43.68952" lon="3.9101">
        <ele>68.7</ele>
        <time>2024-04-25T12:27:24.000Z</time>
      </trkpt>
      <trkpt lat="43.68953" lon="3.91002">
        <ele>68.9</ele>
        <time>2024-04-25T12:27:25.250Z</time>
      </trkpt>
      <trkpt lat="43.68954" lon="3.90995">
        <ele>69.2</ele>
        <time>2024-04-25T12:27:26.500Z</time>
      </trkpt>
      <trkpt lat="43.68955" lon="3.90988">
        <ele>69.6</ele>
        <time>2024-04-25T12:27:27.750Z</time>
      </trkpt>
      <trkpt lat="43.68956" lon="3.90981">
        <ele>69.9</ele>
        <time>2024-04-25T14:27:29+02:00</time>
      </trkpt>
      <trkpt lat="43.68958" lon="3.90973">
        <ele>70.5</ele>
        <time>2024-04-25T12:27:30.250Z</time>
      </trkpt>
      <trkpt lat="43.68961" lon="3.90966">
        <ele>70.9</ele>
        <time>2024-04-25T12:27:31.500Z</time>
      </trkpt>
      <trkpt lat="43.68963" lon="3.90958">
        <ele>71.3</ele>
        <time>2024-04-25T12:27:32.750Z</time>
      </trkpt>
      <trkpt lat="43.68965" lon="3.9095">
        <ele>71.6</ele>
        <time>2024-04-25T12:27:34.000Z</time>
      </trkpt>
      <trkpt lat="43.68967" lon="3.90942">
        <ele>71.8</ele>
        <time>2024-04-25T12:27:35.250Z</time>
      </trkpt>
      <trkpt lat="43.6897" lon="3.90935">
        <ele>71.9</ele>
        <time>2024-04-25T12:27:36.500Z</time>
      </trkpt>
      <trkpt lat="43.68972" lon="3.90927">
        <ele>72</ele>
        <time>2024-04-25T12:27:37.750Z</time>
      </trkpt>
      <trkpt lat="43.68974" lon="3.90919">
        <ele>72.2</ele>
        <time>2024-04-25T14:27:39+02:00</time>
      </trkpt>
      <trkpt lat="43.68972" lon="3.90909">
        <ele>72.3</ele>
        <time>2024-04-25T12:27:40.499Z</time>
      </trkpt>
      <trkpt lat="43.6897" lon="3.90899">
        <ele>72.6</ele>
        <time>2024-04-25T12:27:41.999Z</time>
      </trkpt>
      <trkpt lat="43.68967" lon="3.90889">
        <ele>72.8</ele>
        <time>2024-04-25T12:27:43.499Z</time>
      </trkpt>
      <trkpt lat="43.68965" lon="3.90879">
        <ele>73.4</ele>
        <time>2024-04-25T14:27:45+02:00</time>
      </trkpt>
      <trkpt lat="43.68964" lon="3.90872">
        <ele>73.8</ele>
        <time>2024-04-25T12:27:46.749Z</time>
      </trkpt>
      <trkpt lat="43.68963" lon="3.90864">
        <ele>74.1</ele>
        <time>2024-04-25T12:27:48.499Z</time>
      </trkpt>
      <trkpt lat="43.68961" lon="3.90857">
        <ele>74.4</ele>
        <time>2024-04-25T12:27:50.249Z</time>
      </trkpt>
      <trkpt lat="43.6896" lon="3.9085">
        <ele>74.8</ele>
        <time>2024-04-25T12:27:51.999Z</time>
      </trkpt>
      <trkpt lat="43.68959" lon="3.90842">
        <ele>75.1</ele>
        <time>2024-04-25T12:27:53.749Z</time>
      </trkpt>
      <trkpt lat="43.68958" lon="3.90835">
        <ele>75.3</ele>
        <time>2024-04-25T12:27:55.499Z</time>
      </trkpt>
      <trkpt lat="43.68956" lon="3.90827">
        <ele>75.5</ele>
        <time>2024-04-25T12:27:57.249Z</time>
      </trkpt>
      <trkpt lat="43.68955" lon="3.9082">
        <ele>75.6</ele>
        <time>2024-04-25T14:27:59+02:00</time>
      </trkpt>
      <trkpt lat="43.68954" lon="3.90813">
        <ele>75.8</ele>
        <time>2024-04-25T12:28:03.999Z</time>
      </trkpt>
      <trkpt lat="43.68954" lon="3.90807">
        <ele>76</ele>
        <time>2024-04-25T12:28:08.999Z</time>
      </trkpt>
      <trkpt lat="43.68953" lon="3.908">
        <ele>76.2</ele>
        <time>2024-04-25T12:28:13.999Z</time>
      </trkpt>
      <trkpt lat="43.68953" lon="3.90793">
        <ele>76.5</ele>
        <time>2024-04-25T12:28:18.999Z</time>
      </trkpt>
      <trkpt lat="43.68952" lon="3.90786">
        <ele>76.7</ele>
        <time>2024-04-25T12:28:23.999Z</time>
      </trkpt>
      <trkpt lat="43.68951" lon="3.9078">
        <ele>76.9</ele>
        <time>2024-04-25T12:28:28.999Z</time>
      </trkpt>
      <trkpt lat="43.68951" lon="3.90773">
        <ele>77.2</ele>
        <time>2024-04-25T12:28:33.999Z</time>
      </trkpt>
      <trkpt lat="43.6895" lon="3.90766">
        <ele>77.6</ele>
        <time>2024-04-25T14:28:39+02:00</time>
      </trkpt>
      <trkpt lat="43.68947" lon="3.90756">
        <ele>78</ele>
        <time>2024-04-25T12:28:40.249Z</time>
      </trkpt>
      <trkpt lat="43.68945" lon="3.90745">
        <ele>78.4</ele>
        <time>2024-04-25T12:28:41.499Z</time>
      </trkpt>
      <trkpt lat="43.68942" lon="3.90735">
        <ele>79</ele>
        <time>2024-04-25T12:28:42.749Z</time>
      </trkpt>
      <trkpt lat="43.68939" lon="3.90725">
        <ele>79.5</ele>
        <time>2024-04-25T12:28:43.999Z</time>
      </trkpt>
      <trkpt lat="43.68936" lon="3.90714">
        <ele>79.7</ele>
        <time>2024-04-25T12:28:45.249Z</time>
      </trkpt>
      <trkpt lat="43.68934" lon="3.90704">
        <ele>79.9</ele>
        <time>2024-04-25T12:28:46.499Z</time>
      </trkpt>
      <trkpt lat="43.68931" lon="3.90693">
        <ele>80</ele>
        <time>2024-04-25T12:28:47.749Z</time>
      </trkpt>
      <trkpt lat="43.68928" lon="3.90683">
        <ele>80.2</ele>
        <time>2024-04-25T14:28:49+02:00</time>
      </trkpt>
      <trkpt lat="43.68926" lon="3.90673">
        <ele>80.2</ele>
        <time>2024-04-25T12:28:50.249Z</time>
      </trkpt>
      <trkpt lat="43.68925" lon="3.90663">
        <ele>80.4</ele>
        <time>2024-04-25T12:28:51.499Z</time>
      </trkpt>
      <trkpt lat="43.68923" lon="3.90652">
        <ele>80.9</ele>
        <time>2024-04-25T12:28:52.749Z</time>
      </trkpt>
      <trkpt lat="43.68921" lon="3.90642">
        <ele>81.4</ele>
        <time>2024-04-25T12:28:53.999Z</time>
      </trkpt>
      <trkpt lat="43.68919" lon="3.90632">
        <ele>81.9</ele>
        <time>2024-04-25T12:28:55.249Z</time>
      </trkpt>
      <trkpt lat="43.68918" lon="3.90622">
        <ele>82.4</ele>
        <time>2024-04-25T12:28:56.499Z</time>
      </trkpt>
      <trkpt lat="43.68916" lon="3.90611">
        <ele>83</ele>
        <time>2024-04-25T12:28:57.749Z</time>
      </trkpt>
      <trkpt lat="43.68914" lon="3.90601">
        <ele>83.6</ele>
        <time>2024-04-25T14:28:59+02:00</time>
      </trkpt>
      <trkpt lat="43.68911" lon="3.90593">
        <ele>84.1</ele>
        <time>2024-04-25T12:29:00.249Z</time>
      </trkpt>
      <trkpt lat="43.68908" lon="3.90586">
        <ele>84.5</ele>
        <time>2024-04-25T12:29:01.499Z</time>
      </trkpt>
      <trkpt lat="43.68905" lon="3.90578">
        <ele>84.9</ele>
        <time>2024-04-25T12:29:02.749Z</time>
      </trkpt>
      <trkpt lat="43.68902" lon="3.9057">
        <ele>85.2</ele>
        <time>2024-04-25T12:29:03.999Z</time>
      </trkpt>
      <trkpt lat="43.68899" lon="3.90562">
        <ele>85.4</ele>
        <time>2024-04-25T12:29:05.249Z</time>
      </trkpt>
      <trkpt lat="43.68896" lon="3.90555">
        <ele>85.6</ele>
        <time>2024-04-25T12:29:06.499Z</time>
      </trkpt>
      <trkpt lat="43.68893" lon="3.90547">
        <ele>85.9</ele>
        <time>2024-04-25T12:29:07.749Z</time>
      </trkpt>
      <trkpt lat="43.6889" lon="3.90539">
        <ele>86.2</ele>
        <time>2024-04-25T14:29:09+02:00</time>
      </trkpt>
      <trkpt lat="43.68883" lon="3.90538">
        <ele>86.8</ele>
        <time>2024-04-25T12:29:11.500Z</time>
      </trkpt>
      <trkpt lat="43.68875" lon="3.90537">
        <ele>87.5</ele>
        <time>2024-04-25T12:29:14.000Z</time>
      </trkpt>
      <trkpt lat="43.68868" lon="3.90535">
        <ele>88.2</ele>
        <time>2024-04-25T12:29:16.500Z</time>
      </trkpt>
      <trkpt lat="43.6886" lon="3.90534">
        <ele>88.8</ele>
        <time>2024-04-25T14:29:19+02:00</time>
      </trkpt>
      <trkpt lat="43.68855" lon="3.90539">
        <ele>88.9</ele>
        <time>2024-04-25T12:29:20.249Z</time>
      </trkpt>
      <trkpt lat="43.68851" lon="3.90543">
        <ele>89</ele>
        <time>2024-04-25T12:29:21.499Z</time>
      </trkpt>
      <trkpt lat="43.68846" lon="3.90548">
        <ele>89.2</ele>
        <time>2024-04-25T12:29:22.749Z</time>
      </trkpt>
      <trkpt lat="43.68841" lon="3.90552">
        <ele>89.5</ele>
        <time>2024-04-25T12:29:23.999Z</time>
      </trkpt>
      <trkpt lat="43.68836" lon="3.90557">
        <ele>89.7</ele>
        <time>2024-04-25T12:29:25.249Z</time>
      </trkpt>
      <trkpt lat="43.68832" lon="3.90561">
        <ele>89.6</ele>
        <time>2024-04-25T12:29:26.499Z</time>
      </trkpt>
      <trkpt lat="43.68827" lon="3.90566">
        <ele>89.5</ele>
        <time>2024-04-25T12:29:27.749Z</time>
      </trkpt>
      <trkpt lat="43.68822" lon="3.9057">
        <ele>89.6</ele>
        <time>2024-04-25T14:29:29+02:00</time>
      </trkpt>
      <trkpt lat="43.68819" lon="3.90578">
        <ele>89.6</ele>
        <time>2024-04-25T12:29:30.249Z</time>
      </trkpt>
      <trkpt lat="43.68817" lon="3.90586">
        <ele>89.8</ele>
        <time>2024-04-25T12:29:31.499Z</time>
      </trkpt>
      <trkpt lat="43.68814" lon="3.90593">
        <ele>90.3</ele>
        <time>2024-04-25T12:29:32.749Z</time>
      </trkpt>
      <trkpt lat="43.68812" lon="3.90601">
        <ele>90.9</ele>
        <time>2024-04-25T12:29:33.999Z</time>
      </trkpt>
      <trkpt lat="43.68809" lon="3.90609">
        <ele>91.4</ele>
        <time>2024-04-25T12:29:35.249Z</time>
      </trkpt>
      <trkpt lat="43.68806" lon="3.90617">
        <ele>92.3</ele>
        <time>2024-04-25T12:29:36.499Z</time>
      </trkpt>
      <trkpt lat="43.68804" lon="3.90624">
        <ele>93</ele>
        <time>2024-04-25T12:29:37.749Z</time>
      </trkpt>
      <trkpt lat="43.68801" lon="3.90632">
        <ele>93.7</ele>
        <time>2024-04-25T14:29:39+02:00</time>
      </trkpt>
      <trkpt lat="43.688" lon="3.90639">
        <ele>94.2</ele>
        <time>2024-04-25T12:29:40.249Z</time>
      </trkpt>
      <trkpt lat="43.68799" lon="3.90646">
        <ele>94.5</ele>
        <time>2024-04-25T12:29:41.499Z</time>
      </trkpt>
      <trkpt lat="43.68798" lon="3.90652">
        <ele>94.8</ele>
        <time>2024-04-25T12:29:42.749Z</time>
      </trkpt>
      <trkpt lat="43.68797" lon="3.90659">
        <ele>95.1</ele>
        <time>2024-04-25T12:29:43.999Z</time>
      </trkpt>
      <trkpt lat="43.68795" lon="3.90666">
        <ele>95.3</ele>
        <time>2024-04-25T12:29:45.249Z</time>
      </trkpt>
      <trkpt lat="43.68794" lon="3.90673">
        <ele>95.8</ele>
        <time>2024-04-25T12:29:46.499Z</time>
      </trkpt>
      <trkpt lat="43.68793" lon="3.90679">
        <ele>96.4</ele>
        <time>2024-04-25T12:29:47.749Z</time>
      </trkpt>
      <trkpt lat="43.68792" lon="3.90686">
        <ele>96.9</ele>
        <time>2024-04-25T14:29:49+02:00</time>
      </trkpt>
      <trkpt lat="43.6879" lon="3.90692">
        <ele>97.4</ele>
        <time>2024-04-25T12:29:50.249Z</time>
      </trkpt>
      <trkpt lat="43.68787" lon="3.90698">
        <ele>97.8</ele>
        <time>2024-04-25T12:29:51.499Z</time>
      </trkpt>
      <trkpt lat="43.68785" lon="3.90704">
        <ele>98.2</ele>
        <time>2024-04-25T12:29:52.749Z</time>
      </trkpt>
      <trkpt lat="43.68782" lon="3.90711">
        <ele>98.5</ele>
        <time>2024-04-25T12:29:53.999Z</time>
      </trkpt>
      <trkpt lat="43.6878" lon="3.90717">
        <ele>98.8</ele>
        <time>2024-04-25T12:29:55.249Z</time>
      </trkpt>
      <trkpt lat="43.68777" lon="3.90723">
        <ele>99</ele>
        <time>2024-04-25T12:29:56.499Z</time>
      </trkpt>
      <trkpt lat="43.68775" lon="3.90729">
        <ele>99.2</ele>
        <time>2024-04-25T12:29:57.749Z</time>
      </trkpt>
      <trkpt lat="43.68772" lon="3.90735">
        <ele>99.5</ele>
        <time>2024-04-25T14:29:59+02:00</time>
      </trkpt>
      <trkpt lat="43.68769" lon="3.9074">
        <ele>99.7</ele>
        <time>2024-04-25T12:30:00.249Z</time>
      </trkpt>
      <trkpt lat="43.68767" lon="3.90746">
        <ele>99.8</ele>
        <time>2024-04-25T12:30:01.499Z</time>
      </trkpt>
      <trkpt lat="43.68764" lon="3.90751">
        <ele>100</ele>
        <time>2024-04-25T12:30:02.749Z</time>
      </trkpt>
      <trkpt lat="43.68761" lon="3.90757">
        <ele>100.2</ele>
        <time>2024-04-25T12:30:03.999Z</time>
      </trkpt>
      <trkpt lat="43.68758" lon="3.90762">
        <ele>100.4</ele>
        <time>2024-04-25T12:30:05.249Z</time>
      </trkpt>
      <trkpt lat="43.68756" lon="3.90767">
        <ele>100.6</ele>
        <time>2024-04-25T12:30:06.499Z</time>
      </trkpt>
      <trkpt lat="43.68753" lon="3.90773">
        <ele>100.8</ele>
        <time>2024-04-25T12:30:07.749Z</time>
      </trkpt>
      <trkpt lat="43.6875" lon="3.90778">
        <ele>101</ele>
        <time>2024-04-25T14:30:09+02:00</time>
      </trkpt>
      <trkpt lat="43.68747" lon="3.90785">
        <ele>100.9</ele>
        <time>2024-04-25T12:30:10.249Z</time>
      </trkpt>
      <trkpt lat="43.68745" lon="3.90792">
        <ele>100.8</ele>
        <time>2024-04-25T12:30:11.499Z</time>
      </trkpt>
      <trkpt lat="43.68742" lon="3.90798">
        <ele>100.7</ele>
        <time>2024-04-25T12:30:12.749Z</time>
      </trkpt>
      <trkpt lat="43.68739" lon="3.90805">
        <ele>100.6</ele>
        <time>2024-04-25T12:30:13.999Z</time>
      </trkpt>
      <trkpt lat="43.68736" lon="3.90812">
        <ele>100.3</ele>
        <time>2024-04-25T12:30:15.249Z</time>
      </trkpt>
      <trkpt lat="43.68734" lon="3.90819">
        <ele>100</ele>
        <time>2024-04-25T12:30:16.499Z</time>
      </trkpt>
      <trkpt lat="43.68731" lon="3.90825">
        <ele>99.9</ele>
        <time>2024-04-25T12:30:17.749Z</time>
      </trkpt>
      <trkpt lat="43.68728" lon="3.90832">
        <ele>99.8</ele>
        <time>2024-04-25T14:30:19+02:00</time>
      </trkpt>
      <trkpt lat="43.68724" lon="3.90837">
        <ele>99.5</ele>
        <time>2024-04-25T12:30:20.249Z</time>
      </trkpt>
      <trkpt lat="43.6872" lon="3.90843">
        <ele>99.1</ele>
        <time>2024-04-25T12:30:21.499Z</time>
      </trkpt>
      <trkpt lat="43.68716" lon="3.90848">
        <ele>98.7</ele>
        <time>2024-04-25T12:30:22.749Z</time>
      </trkpt>
      <trkpt lat="43.68712" lon="3.90853">
        <ele>98.4</ele>
        <time>2024-04-25T12:30:23.999Z</time>
      </trkpt>
      <trkpt lat="43.68708" lon="3.90858">
        <ele>98.2</ele>
        <time>2024-04-25T12:30:25.249Z</time>
      </trkpt>
      <trkpt lat="43.68704" lon="3.90864">
        <ele>98.1</ele>
        <time>2024-04-25T12:30:26.499Z</time>
      </trkpt>
      <trkpt lat="43.687" lon="3.90869">
        <ele>98</ele>
        <time>2024-04-25T12:30:27.749Z</time>
      </trkpt>
      <trkpt lat="43.68696" lon="3.90874">
        <ele>97.9</ele>
        <time>2024-04-25T14:30:29+02:00</time>
      </trkpt>
      <trkpt lat="43.68679" lon="3.90861">
        <ele>99.6</ele>
        <time>2024-04-25T12:31:21.499Z</time>
      </trkpt>
      <trkpt lat="43.68675" lon="3.90851">
        <ele>99.8</ele>
        <time>2024-04-25T12:31:23.999Z</time>
      </trkpt>
      <trkpt lat="43.6867" lon="3.90842">
        <ele>100</ele>
        <time>2024-04-25T12:31:26.499Z</time>
      </trkpt>
      <trkpt lat="43.68666" lon="3.90832">
        <ele>100</ele>
        <time>2024-04-25T14:31:29+02:00</time>
      </trkpt>
      <trkpt lat="43.68659" lon="3.90827">
        <ele>100</ele>
        <time>2024-04-25T12:31:31.499Z</time>
      </trkpt>
      <trkpt lat="43.68653" lon="3.90822">
        <ele>100</ele>
        <time>2024-04-25T12:31:33.999Z</time>
      </trkpt>
      <trkpt lat="43.68646" lon="3.90816">
        <ele>100</ele>
        <time>2024-04-25T12:31:36.499Z</time>
      </trkpt>
      <trkpt lat="43.68639" lon="3.90811">
        <ele>100</ele>
        <time>2024-04-25T14:31:39+02:00</time>
      </trkpt>
      <trkpt lat="43.68636" lon="3.90802">
        <ele>99.9</ele>
        <time>2024-04-25T12:31:41.499Z</time>
      </trkpt>
      <trkpt lat="43.68633" lon="3.90793">
        <ele>99.5</ele>
        <time>2024-04-25T12:31:43.999Z</time>
      </trkpt>
      <trkpt lat="43.68629" lon="3.90783">
        <ele>99.2</ele>
        <time>2024-04-25T12:31:46.499Z</time>
      </trkpt>
      <trkpt lat="43.68626" lon="3.90774">
        <ele>98.9</ele>
        <time>2024-04-25T14:31:49+02:00</time>
      </trkpt>
      <trkpt lat="43.68628" lon="3.90762">
        <ele>98.4</ele>
        <time>2024-04-25T14:31:59+02:00</time>
      </trkpt>
      <trkpt lat="43.68622" lon="3.9076">
        <ele>98.3</ele>
        <time>2024-04-25T12:32:01.499Z</time>
      </trkpt>
      <trkpt lat="43.68616" lon="3.90757">
        <ele>98.3</ele>
        <time>2024-04-25T12:32:03.999Z</time>
      </trkpt>
      <trkpt lat="43.68609" lon="3.90755">
        <ele>98.1</ele>
        <time>2024-04-25T12:32:06.499Z</time>
      </trkpt>
      <trkpt lat="43.68603" lon="3.90752">
        <ele>97.8</ele>
        <time>2024-04-25T14:32:09+02:00</time>
      </trkpt>
      <trkpt lat="43.68597" lon="3.90757">
        <ele>97.9</ele>
        <time>2024-04-25T14:32:12+02:00</time>
      </trkpt>
      <trkpt lat="43.68589" lon="3.90752">
        <ele>97.3</ele>
        <time>2024-04-25T12:32:13.749Z</time>
      </trkpt>
      <trkpt lat="43.68581" lon="3.90746">
        <ele>96.7</ele>
        <time>2024-04-25T12:32:15.499Z</time>
      </trkpt>
      <trkpt lat="43.68573" lon="3.90741">
        <ele>96.3</ele>
        <time>2024-04-25T12:32:17.249Z</time>
      </trkpt>
      <trkpt lat="43.68565" lon="3.90735">
        <ele>95.9</ele>
        <time>2024-04-25T14:32:19+02:00</time>
      </trkpt>
      <trkpt lat="43.6856" lon="3.90732">
        <ele>95.7</ele>
        <time>2024-04-25T12:32:20.249Z</time>
      </trkpt>
      <trkpt lat="43.68556" lon="3.9073">
        <ele>95.5</ele>
        <time>2024-04-25T12:32:21.499Z</time>
      </trkpt>
      <trkpt lat="43.68551" lon="3.90727">
        <ele>95.2</ele>
        <time>2024-04-25T12:32:22.749Z</time>
      </trkpt>
      <trkpt lat="43.68547" lon="3.90724">
        <ele>94.8</ele>
        <time>2024-04-25T12:32:23.999Z</time>
      </trkpt>
      <trkpt lat="43.68542" lon="3.90721">
        <ele>94.4</ele>
        <time>2024-04-25T12:32:25.249Z</time>
      </trkpt>
      <trkpt lat="43.68537" lon="3.90719">
        <ele>94</ele>
        <time>2024-04-25T12:32:26.499Z</time>
      </trkpt>
      <trkpt lat="43.68533" lon="3.90716">
        <ele>93.7</ele>
        <time>2024-04-25T12:32:27.749Z</time>
      </trkpt>
      <trkpt lat="43.68528" lon="3.90713">
        <ele>93.3</ele>
        <time>2024-04-25T14:32:29+02:00</time>
      </trkpt>
      <trkpt lat="43.6852" lon="3.90709">
        <ele>93</ele>
        <time>2024-04-25T12:32:31.499Z</time>
      </trkpt>
      <trkpt lat="43.68513" lon="3.90705">
        <ele>92.8</ele>
        <time>2024-04-25T12:32:33.999Z</time>
      </trkpt>
      <trkpt lat="43.68505" lon="3.90701">
        <ele>92.5</ele>
        <time>2024-04-25T12:32:36.499Z</time>
      </trkpt>
      <trkpt lat="43.68497" lon="3.90697">
        <ele>92.2</ele>
        <time>2024-04-25T14:32:39+02:00</time>
      </trkpt>
      <trkpt lat="43.68489" lon="3.90692">
        <ele>91.7</ele>
        <time>2024-04-25T12:32:41.499Z</time>
      </trkpt>
      <trkpt lat="43.68482" lon="3.90686">
        <ele>91.2</ele>
        <time>2024-04-25T12:32:43.999Z</time>
      </trkpt>
      <trkpt lat="43.68474" lon="3.90681">
        <ele>90.5</ele>
        <time>2024-04-25T12:32:46.499Z</time>
      </trkpt>
      <trkpt lat="43.68466" lon="3.90675">
        <ele>89.9</ele>
        <time>2024-04-25T14:32:49+02:00</time>
      </trkpt>
      <trkpt lat="43.6846" lon="3.90674">
        <ele>89.8</ele>
        <time>2024-04-25T12:32:50.250Z</time>
      </trkpt>
      <trkpt lat="43.68454" lon="3.90674">
        <ele>89.8</ele>
        <time>2024-04-25T12:32:51.500Z</time>
      </trkpt>
      <trkpt lat="43.68448" lon="3.90673">
        <ele>89.7</ele>
        <time>2024-04-25T12:32:52.750Z</time>
      </trkpt>
      <trkpt lat="43.68442" lon="3.90673">
        <ele>89.8</ele>
        <time>2024-04-25T12:32:54.000Z</time>
      </trkpt>
      <trkpt lat="43.68436" lon="3.90672">
        <ele>90.1</ele>
        <time>2024-04-25T12:32:55.250Z</time>
      </trkpt>
      <trkpt lat="43.6843" lon="3.90671">
        <ele>90.4</ele>
        <time>2024-04-25T12:32:56.500Z</time>
      </trkpt>
      <trkpt lat="43.68424" lon="3.90671">
        <ele>90.8</ele>
        <time>2024-04-25T12:32:57.750Z</time>
      </trkpt>
      <trkpt lat="43.68418" lon="3.9067">
        <ele>91.1</ele>
        <time>2024-04-25T14:32:59+02:00</time>
      </trkpt>
      <trkpt lat="43.68413" lon="3.90666">
        <ele>91.1</ele>
        <time>2024-04-25T12:33:00.249Z</time>
      </trkpt>
      <trkpt lat="43.68408" lon="3.90663">
        <ele>90.9</ele>
        <time>2024-04-25T12:33:01.499Z</time>
      </trkpt>
      <trkpt lat="43.68403" lon="3.90659">
        <ele>90.7</ele>
        <time>2024-04-25T12:33:02.749Z</time>
      </trkpt>
      <trkpt lat="43.68399" lon="3.90656">
        <ele>90.4</ele>
        <time>2024-04-25T12:33:03.999Z</time>
      </trkpt>
      <trkpt lat="43.68394" lon="3.90652">
        <ele>90.2</ele>
        <time>2024-04-25T12:33:05.249Z</time>
      </trkpt>
      <trkpt lat="43.68389" lon="3.90648">
        <ele>90</ele>
        <time>2024-04-25T12:33:06.499Z</time>
      </trkpt>
      <trkpt lat="43.68384" lon="3.90645">
        <ele>89.8</ele>
        <time>2024-04-25T12:33:07.749Z</time>
      </trkpt>
      <trkpt lat="43.68379" lon="3.90641">
        <ele>89.6</ele>
        <time>2024-04-25T14:33:09+02:00</time>
      </trkpt>
      <trkpt lat="43.68373" lon="3.90639">
        <ele>89.6</ele>
        <time>2024-04-25T12:33:10.249Z</time>
      </trkpt>
      <trkpt lat="43.68367" lon="3.90638">
        <ele>89.7</ele>
        <time>2024-04-25T12:33:11.499Z</time>
      </trkpt>
      <trkpt lat="43.6836" lon="3.90636">
        <ele>89.7</ele>
        <time>2024-04-25T12:33:12.749Z</time>
      </trkpt>
      <trkpt lat="43.68354" lon="3.90635">
        <ele>89.8</ele>
        <time>2024-04-25T12:33:13.999Z</time>
      </trkpt>
      <trkpt lat="43.68348" lon="3.90633">
        <ele>89.8</ele>
        <time>2024-04-25T12:33:15.249Z</time>
      </trkpt>
      <trkpt lat="43.68342" lon="3.90631">
        <ele>89.9</ele>
        <time>2024-04-25T12:33:16.499Z</time>
      </trkpt>
      <trkpt lat="43.68335" lon="3.9063">
        <ele>89.9</ele>
        <time>2024-04-25T12:33:17.749Z</time>
      </trkpt>
      <trkpt lat="43.68329" lon="3.90628">
        <ele>89.9</ele>
        <time>2024-04-25T14:33:19+02:00</time>
      </trkpt>
      <trkpt lat="43.68325" lon="3.90625">
        <ele>89.7</ele>
        <time>2024-04-25T12:33:20.249Z</time>
      </trkpt>
      <trkpt lat="43.6832" lon="3.90622">
        <ele>89.4</ele>
        <time>2024-04-25T12:33:21.499Z</time>
      </trkpt>
      <trkpt lat="43.68316" lon="3.90619">
        <ele>89.1</ele>
        <time>2024-04-25T12:33:22.749Z</time>
      </trkpt>
      <trkpt lat="43.68311" lon="3.90617">
        <ele>88.7</ele>
        <time>2024-04-25T12:33:23.999Z</time>
      </trkpt>
      <trkpt lat="43.68307" lon="3.90614">
        <ele>88.4</ele>
        <time>2024-04-25T12:33:25.249Z</time>
      </trkpt>
      <trkpt lat="43.68302" lon="3.90611">
        <ele>88.2</ele>
        <time>2024-04-25T12:33:26.499Z</time>
      </trkpt>
      <trkpt lat="43.68298" lon="3.90608">
        <ele>88.2</ele>
        <time>2024-04-25T12:33:27.749Z</time>
      </trkpt>
      <trkpt lat="43.68293" lon="3.90605">
        <ele>88.1</ele>
        <time>2024-04-25T14:33:29+02:00</time>
      </trkpt>
      <trkpt lat="43.68294" lon="3.90599">
        <ele>87.3</ele>
        <time>2024-04-25T12:33:30.250Z</time>
      </trkpt>
      <trkpt lat="43.68295" lon="3.90592">
        <ele>86.4</ele>
        <time>2024-04-25T12:33:31.500Z</time>
      </trkpt>
      <trkpt lat="43.68296" lon="3.90586">
        <ele>85.6</ele>
        <time>2024-04-25T12:33:32.750Z</time>
      </trkpt>
      <trkpt lat="43.68298" lon="3.9058">
        <ele>84.9</ele>
        <time>2024-04-25T12:33:34.000Z</time>
      </trkpt>
      <trkpt lat="43.68299" lon="3.90573">
        <ele>84.1</ele>
        <time>2024-04-25T12:33:35.250Z</time>
      </trkpt>
      <trkpt lat="43.683" lon="3.90567">
        <ele>83.4</ele>
        <time>2024-04-25T12:33:36.500Z</time>
      </trkpt>
      <trkpt lat="43.68301" lon="3.9056">
        <ele>82.7</ele>
        <time>2024-04-25T12:33:37.750Z</time>
      </trkpt>
      <trkpt lat="43.68302" lon="3.90554">
        <ele>82</ele>
        <time>2024-04-25T14:33:39+02:00</time>
      </trkpt>
      <trkpt lat="43.68304" lon="3.90545">
        <ele>80.9</ele>
        <time>2024-04-25T12:33:41.500Z</time>
      </trkpt>
      <trkpt lat="43.68305" lon="3.90535">
        <ele>79.8</ele>
        <time>2024-04-25T12:33:44.000Z</time>
      </trkpt>
      <trkpt lat="43.68307" lon="3.90526">
        <ele>78.6</ele>
        <time>2024-04-25T12:33:46.500Z</time>
      </trkpt>
      <trkpt lat="43.68308" lon="3.90516">
        <ele>77.2</ele>
        <time>2024-04-25T14:33:49+02:00</time>
      </trkpt>
      <trkpt lat="43.6831" lon="3.90505">
        <ele>75.5</ele>
        <time>2024-04-25T12:33:54.000Z</time>
      </trkpt>
      <trkpt lat="43.68311" lon="3.90493">
        <ele>73.8</ele>
        <time>2024-04-25T14:33:59+02:00</time>
      </trkpt>
      <trkpt lat="43.68309" lon="3.90484">
        <ele>72.6</ele>
        <time>2024-04-25T12:34:01.499Z</time>
      </trkpt>
      <trkpt lat="43.68308" lon="3.90475">
        <ele>71.3</ele>
        <time>2024-04-25T12:34:03.999Z</time>
      </trkpt>
      <trkpt lat="43.68306" lon="3.90465">
        <ele>70.3</ele>
        <time>2024-04-25T12:34:06.499Z</time>
      </trkpt>
      <trkpt lat="43.68304" lon="3.90456">
        <ele>69.2</ele>
        <time>2024-04-25T14:34:09+02:00</time>
      </trkpt>
      <trkpt lat="43.683" lon="3.90453">
        <ele>68.9</ele>
        <time>2024-04-25T12:34:10.249Z</time>
      </trkpt>
      <trkpt lat="43.68295" lon="3.9045">
        <ele>68.6</ele>
        <time>2024-04-25T12:34:11.499Z</time>
      </trkpt>
      <trkpt lat="43.68291" lon="3.90447">
        <ele>68.3</ele>
        <time>2024-04-25T12:34:12.749Z</time>
      </trkpt>
      <trkpt lat="43.68286" lon="3.90444">
        <ele>68</ele>
        <time>2024-04-25T12:34:13.999Z</time>
      </trkpt>
      <trkpt lat="43.68282" lon="3.90441">
        <ele>67.9</ele>
        <time>2024-04-25T12:34:15.249Z</time>
      </trkpt>
      <trkpt lat="43.68277" lon="3.90438">
        <ele>67.8</ele>
        <time>2024-04-25T12:34:16.499Z</time>
      </trkpt>
      <trkpt lat="43.68273" lon="3.90435">
        <ele>67.6</ele>
        <time>2024-04-25T12:34:17.749Z</time>
      </trkpt>
      <trkpt lat="43.68268" lon="3.90432">
        <ele>67.4</ele>
        <time>2024-04-25T14:34:19+02:00</time>
      </trkpt>
      <trkpt lat="43.68262" lon="3.9043">
        <ele>67.2</ele>
        <time>2024-04-25T12:34:20.249Z</time>
      </trkpt>
      <trkpt lat="43.68256" lon="3.90428">
        <ele>67</ele>
        <time>2024-04-25T12:34:21.499Z</time>
      </trkpt>
      <trkpt lat="43.6825" lon="3.90426">
        <ele>66.7</ele>
        <time>2024-04-25T12:34:22.749Z</time>
      </trkpt>
      <trkpt lat="43.68245" lon="3.90425">
        <ele>66.7</ele>
        <time>2024-04-25T12:34:23.999Z</time>
      </trkpt>
      <trkpt lat="43.68239" lon="3.90423">
        <ele>66.6</ele>
        <time>2024-04-25T12:34:25.249Z</time>
      </trkpt>
      <trkpt lat="43.68233" lon="3.90421">
        <ele>66.5</ele>
        <time>2024-04-25T12:34:26.499Z</time>
      </trkpt>
      <trkpt lat="43.68227" lon="3.90419">
        <ele>66.3</ele>
        <time>2024-04-25T12:34:27.749Z</time>
      </trkpt>
      <trkpt lat="43.68221" lon="3.90417">
        <ele>66.2</ele>
        <time>2024-04-25T14:34:29+02:00</time>
      </trkpt>
      <trkpt lat="43.68214" lon="3.90414">
        <ele>66.7</ele>
        <time>2024-04-25T12:34:30.249Z</time>
      </trkpt>
      <trkpt lat="43.68208" lon="3.90411">
        <ele>67.1</ele>
        <time>2024-04-25T12:34:31.499Z</time>
      </trkpt>
      <trkpt lat="43.68201" lon="3.90408">
        <ele>67.3</ele>
        <time>2024-04-25T12:34:32.749Z</time>
      </trkpt>
      <trkpt lat="43.68195" lon="3.90405">
        <ele>67.2</ele>
        <time>2024-04-25T12:34:33.999Z</time>
      </trkpt>
      <trkpt lat="43.68188" lon="3.90401">
        <ele>66.9</ele>
        <time>2024-04-25T12:34:35.249Z</time>
      </trkpt>
      <trkpt lat="43.68181" lon="3.90398">
        <ele>66.5</ele>
        <time>2024-04-25T12:34:36.499Z</time>
      </trkpt>
      <trkpt lat="43.68175" lon="3.90395">
        <ele>66.1</ele>
        <time>2024-04-25T12:34:37.749Z</time>
      </trkpt>
      <trkpt lat="43.68168" lon="3.90392">
        <ele>65.6</ele>
        <time>2024-04-25T14:34:39+02:00</time>
      </trkpt>
      <trkpt lat="43.68161" lon="3.90391">
        <ele>65.5</ele>
        <time>2024-04-25T12:34:40.250Z</time>
      </trkpt>
      <trkpt lat="43.68154" lon="3.90389">
        <ele>65.5</ele>
        <time>2024-04-25T12:34:41.500Z</time>
      </trkpt>
      <trkpt lat="43.68147" lon="3.90388">
        <ele>65.7</ele>
        <time>2024-04-25T12:34:42.750Z</time>
      </trkpt>
      <trkpt lat="43.6814" lon="3.90386">
        <ele>65.8</ele>
        <time>2024-04-25T12:34:44.000Z</time>
      </trkpt>
      <trkpt lat="43.68132" lon="3.90385">
        <ele>65.7</ele>
        <time>2024-04-25T12:34:45.250Z</time>
      </trkpt>
      <trkpt lat="43.68125" lon="3.90383">
        <ele>65.7</ele>
        <time>2024-04-25T12:34:46.500Z</time>
      </trkpt>
      <trkpt lat="43.68118" lon="3.90382">
        <ele>65.7</ele>
        <time>2024-04-25T12:34:47.750Z</time>
      </trkpt>
      <trkpt lat="43.68111" lon="3.9038">
        <ele>65.7</ele>
        <time>2024-04-25T14:34:49+02:00</time>
      </trkpt>
      <trkpt lat="43.68106" lon="3.90381">
        <ele>65.6</ele>
        <time>2024-04-25T12:34:50.250Z</time>
      </trkpt>
      <trkpt lat="43.68102" lon="3.90382">
        <ele>65.5</ele>
        <time>2024-04-25T12:34:51.500Z</time>
      </trkpt>
      <trkpt lat="43.68097" lon="3.90383">
        <ele>65.4</ele>
        <time>2024-04-25T12:34:52.750Z</time>
      </trkpt>
      <trkpt lat="43.68092" lon="3.90384">
        <ele>65.3</ele>
        <time>2024-04-25T12:34:54.000Z</time>
      </trkpt>
      <trkpt lat="43.68087" lon="3.90384">
        <ele>65.1</ele>
        <time>2024-04-25T12:34:55.250Z</time>
      </trkpt>
      <trkpt lat="43.68083" lon="3.90385">
        <ele>65.1</ele>
        <time>2024-04-25T12:34:56.500Z</time>
      </trkpt>
      <trkpt lat="43.68078" lon="3.90386">
        <ele>65.4</ele>
        <time>2024-04-25T12:34:57.750Z</time>
      </trkpt>
      <trkpt lat="43.68073" lon="3.90387">
        <ele>65.7</ele>
        <time>2024-04-25T14:34:59+02:00</time>
      </trkpt>
      <trkpt lat="43.68066" lon="3.90382">
        <ele>65.9</ele>
        <time>2024-04-25T12:35:02.749Z</time>
      </trkpt>
      <trkpt lat="43.68059" lon="3.90377">
        <ele>66</ele>
        <time>2024-04-25T12:35:06.499Z</time>
      </trkpt>
      <trkpt lat="43.68052" lon="3.90372">
        <ele>65.8</ele>
        <time>2024-04-25T12:35:10.249Z</time>
      </trkpt>
      <trkpt lat="43.68046" lon="3.90367">
        <ele>65.4</ele>
        <time>2024-04-25T12:35:13.999Z</time>
      </trkpt>
      <trkpt lat="43.68039" lon="3.90362">
        <ele>65</ele>
        <time>2024-04-25T12:35:17.749Z</time>
      </trkpt>
      <trkpt lat="43.68032" lon="3.90357">
        <ele>65.2</ele>
        <time>2024-04-25T12:35:21.499Z</time>
      </trkpt>
      <trkpt lat="43.68025" lon="3.90352">
        <ele>65.3</ele>
        <time>2024-04-25T12:35:25.249Z</time>
      </trkpt>
      <trkpt lat="43.68018" lon="3.90347">
        <ele>65.5</ele>
        <time>2024-04-25T12:35:28.999Z</time>
      </trkpt>
      <trkpt lat="43.68011" lon="3.90341">
        <ele>65.7</ele>
        <time>2024-04-25T12:35:32.749Z</time>
      </trkpt>
      <trkpt lat="43.68004" lon="3.90336">
        <ele>65.9</ele>
        <time>2024-04-25T12:35:36.499Z</time>
      </trkpt>
      <trkpt lat="43.67997" lon="3.90331">
        <ele>65.9</ele>
        <time>2024-04-25T12:35:40.249Z</time>
      </trkpt>
      <trkpt lat="43.67991" lon="3.90326">
        <ele>65.7</ele>
        <time>2024-04-25T12:35:43.999Z</time>
      </trkpt>
      <trkpt lat="43.67984" lon="3.90321">
        <ele>65.4</ele>
        <time>2024-04-25T12:35:47.749Z</time>
      </trkpt>
      <trkpt lat="43.67977" lon="3.90316">
        <ele>65.2</ele>
        <time>2024-04-25T12:35:51.499Z</time>
      </trkpt>
      <trkpt lat="43.6797" lon="3.90311">
        <ele>65.2</ele>
        <time>2024-04-25T12:35:55.249Z</time>
      </trkpt>
      <trkpt lat="43.67963" lon="3.90306">
        <ele>65.7</ele>
        <time>2024-04-25T14:35:59+02:00</time>
      </trkpt>
      <trkpt lat="43.67961" lon="3.903">
        <ele>65.8</ele>
        <time>2024-04-25T12:36:01.499Z</time>
      </trkpt>
      <trkpt lat="43.67958" lon="3.90294">
        <ele>65.8</ele>
        <time>2024-04-25T12:36:03.999Z</time>
      </trkpt>
      <trkpt lat="43.67956" lon="3.90287">
        <ele>65.8</ele>
        <time>2024-04-25T12:36:06.499Z</time>
      </trkpt>
      <trkpt lat="43.67953" lon="3.90281">
        <ele>65.8</ele>
        <time>2024-04-25T14:36:09+02:00</time>
      </trkpt>
      <trkpt lat="43.6795" lon="3.90274">
        <ele>65.8</ele>
        <time>2024-04-25T12:36:10.249Z</time>
      </trkpt>
      <trkpt lat="43.67948" lon="3.90267">
        <ele>65.9</ele>
        <time>2024-04-25T12:36:11.499Z</time>
      </trkpt>
      <trkpt lat="43.67945" lon="3.9026">
        <ele>66</ele>
        <time>2024-04-25T12:36:12.749Z</time>
      </trkpt>
      <trkpt lat="43.67942" lon="3.90253">
        <ele>66.1</ele>
        <time>2024-04-25T12:36:13.999Z</time>
      </trkpt>
      <trkpt lat="43.67939" lon="3.90245">
        <ele>66.2</ele>
        <time>2024-04-25T12:36:15.249Z</time>
      </trkpt>
      <trkpt lat="43.67937" lon="3.90238">
        <ele>66.2</ele>
        <time>2024-04-25T12:36:16.499Z</time>
      </trkpt>
      <trkpt lat="43.67934" lon="3.90231">
        <ele>66.1</ele>
        <time>2024-04-25T12:36:17.749Z</time>
      </trkpt>
      <trkpt lat="43.67931" lon="3.90224">
        <ele>66</ele>
        <time>2024-04-25T14:36:19+02:00</time>
      </trkpt>
      <trkpt lat="43.67926" lon="3.90222">
        <ele>66</ele>
        <time>2024-04-25T12:36:20.249Z</time>
      </trkpt>
      <trkpt lat="43.6792" lon="3.9022">
        <ele>65.9</ele>
        <time>2024-04-25T12:36:21.499Z</time>
      </trkpt>
      <trkpt lat="43.67915" lon="3.90217">
        <ele>65.9</ele>
        <time>2024-04-25T12:36:22.749Z</time>
      </trkpt>
      <trkpt lat="43.6791" lon="3.90215">
        <ele>66.3</ele>
        <time>2024-04-25T12:36:23.999Z</time>
      </trkpt>
      <trkpt lat="43.67904" lon="3.90213">
        <ele>66.6</ele>
        <time>2024-04-25T12:36:25.249Z</time>
      </trkpt>
      <trkpt lat="43.67899" lon="3.90211">
        <ele>66.9</ele>
        <time>2024-04-25T12:36:26.499Z</time>
      </trkpt>
      <trkpt lat="43.67893" lon="3.90208">
        <ele>67.2</ele>
        <time>2024-04-25T12:36:27.749Z</time>
      </trkpt>
      <trkpt lat="43.67888" lon="3.90206">
        <ele>67.4</ele>
        <time>2024-04-25T12:36:28.999Z</time>
      </trkpt>
      <trkpt lat="43.67883" lon="3.90204">
        <ele>67.4</ele>
        <time>2024-04-25T12:36:30.249Z</time>
      </trkpt>
      <trkpt lat="43.67877" lon="3.90202">
        <ele>67.4</ele>
        <time>2024-04-25T12:36:31.499Z</time>
      </trkpt>
      <trkpt lat="43.67872" lon="3.90199">
        <ele>67.3</ele>
        <time>2024-04-25T12:36:32.749Z</time>
      </trkpt>
      <trkpt lat="43.67867" lon="3.90197">
        <ele>67.2</ele>
        <time>2024-04-25T12:36:33.999Z</time>
      </trkpt>
      <trkpt lat="43.67861" lon="3.90195">
        <ele>67</ele>
        <time>2024-04-25T12:36:35.249Z</time>
      </trkpt>
      <trkpt lat="43.67856" lon="3.90193">
        <ele>66.9</ele>
        <time>2024-04-25T12:36:36.499Z</time>
      </trkpt>
      <trkpt lat="43.6785" lon="3.9019">
        <ele>66.9</ele>
        <time>2024-04-25T12:36:37.749Z</time>
      </trkpt>
      <trkpt lat="43.67845" lon="3.90188">
        <ele>66.9</ele>
        <time>2024-04-25T14:36:39+02:00</time>
      </trkpt>
      <trkpt lat="43.67842" lon="3.90182">
        <ele>66.9</ele>
        <time>2024-04-25T12:36:40.249Z</time>
      </trkpt>
      <trkpt lat="43.67839" lon="3.90175">
        <ele>66.9</ele>
        <time>2024-04-25T12:36:41.499Z</time>
      </trkpt>
      <trkpt lat="43.67836" lon="3.90169">
        <ele>66.9</ele>
        <time>2024-04-25T12:36:42.749Z</time>
      </trkpt>
      <trkpt lat="43.67833" lon="3.90162">
        <ele>66.8</ele>
        <time>2024-04-25T12:36:43.999Z</time>
      </trkpt>
      <trkpt lat="43.6783" lon="3.90156">
        <ele>66.6</ele>
        <time>2024-04-25T12:36:45.249Z</time>
      </trkpt>
      <trkpt lat="43.67827" lon="3.90149">
        <ele>66.5</ele>
        <time>2024-04-25T12:36:46.499Z</time>
      </trkpt>
      <trkpt lat="43.67824" lon="3.90143">
        <ele>66.4</ele>
        <time>2024-04-25T12:36:47.749Z</time>
      </trkpt>
      <trkpt lat="43.67821" lon="3.90136">
        <ele>66.5</ele>
        <time>2024-04-25T14:36:49+02:00</time>
      </trkpt>
      <trkpt lat="43.67821" lon="3.90124">
        <ele>67</ele>
        <time>2024-04-25T12:36:51.499Z</time>
      </trkpt>
      <trkpt lat="43.6782" lon="3.90112">
        <ele>67.5</ele>
        <time>2024-04-25T12:36:53.999Z</time>
      </trkpt>
      <trkpt lat="43.6782" lon="3.90099">
        <ele>67.7</ele>
        <time>2024-04-25T12:36:56.499Z</time>
      </trkpt>
      <trkpt lat="43.67819" lon="3.90087">
        <ele>67.9</ele>
        <time>2024-04-25T14:36:59+02:00</time>
      </trkpt>
      <trkpt lat="43.67817" lon="3.90078">
        <ele>67.7</ele>
        <time>2024-04-25T12:37:00.624Z</time>
      </trkpt>
      <trkpt lat="43.67814" lon="3.9007">
        <ele>67.4</ele>
        <time>2024-04-25T12:37:02.249Z</time>
      </trkpt>
      <trkpt lat="43.67812" lon="3.90061">
        <ele>67</ele>
        <time>2024-04-25T12:37:03.874Z</time>
      </trkpt>
      <trkpt lat="43.67809" lon="3.90052">
        <ele>67</ele>
        <time>2024-04-25T12:37:05.499Z</time>
      </trkpt>
      <trkpt lat="43.67807" lon="3.90043">
        <ele>67.4</ele>
        <time>2024-04-25T12:37:07.124Z</time>
      </trkpt>
      <trkpt lat="43.67804" lon="3.90035">
        <ele>67.8</ele>
        <time>2024-04-25T12:37:08.749Z</time>
      </trkpt>
      <trkpt lat="43.67802" lon="3.90026">
        <ele>67.9</ele>
        <time>2024-04-25T12:37:10.374Z</time>
      </trkpt>
      <trkpt lat="43.67799" lon="3.90017">
        <ele>67.7</ele>
        <time>2024-04-25T14:37:12+02:00</time>
      </trkpt>
      <trkpt lat="43.67806" lon="3.90012">
        <ele>67.4</ele>
        <time>2024-04-25T12:37:13.750Z</time>
      </trkpt>
      <trkpt lat="43.67757" lon="3.89718">
        <ele>72.1</ele>
        <time>2024-04-25T12:38:54.686Z</time>
      </trkpt>
      <trkpt lat="43.67754" lon="3.89712">
        <ele>72.4</ele>
        <time>2024-04-25T14:38:55+02:00</time>
      </trkpt>
      <trkpt lat="43.67754" lon="3.897">
        <ele>72.8</ele>
        <time>2024-04-25T12:38:56.437Z</time>
      </trkpt>
      <trkpt lat="43.67753" lon="3.89689">
        <ele>73</ele>
        <time>2024-04-25T12:38:57.874Z</time>
      </trkpt>
      <trkpt lat="43.67753" lon="3.89677">
        <ele>73</ele>
        <time>2024-04-25T12:38:59.311Z</time>
      </trkpt>
      <trkpt lat="43.67752" lon="3.89666">
        <ele>73</ele>
        <time>2024-04-25T12:39:00.748Z</time>
      </trkpt>
      <trkpt lat="43.67752" lon="3.89654">
        <ele>73</ele>
        <time>2024-04-25T12:39:02.185Z</time>
      </trkpt>
      <trkpt lat="43.67751" lon="3.89643">
        <ele>73</ele>
        <time>2024-04-25T12:39:03.622Z</time>
      </trkpt>
      <trkpt lat="43.67751" lon="3.89631">
        <ele>73</ele>
        <time>2024-04-25T12:39:05.059Z</time>
      </trkpt>
      <trkpt lat="43.6775" lon="3.8962">
        <ele>73</ele>
        <time>2024-04-25T12:39:06.496Z</time>
      </trkpt>
      <trkpt lat="43.6775" lon="3.89608">
        <ele>73.1</ele>
        <time>2024-04-25T12:39:07.933Z</time>
      </trkpt>
      <trkpt lat="43.67749" lon="3.89596">
        <ele>73.5</ele>
        <time>2024-04-25T12:39:09.371Z</time>
      </trkpt>
      <trkpt lat="43.67749" lon="3.89585">
        <ele>73.9</ele>
        <time>2024-04-25T12:39:10.809Z</time>
      </trkpt>
      <trkpt lat="43.67748" lon="3.89573">
        <ele>74</ele>
        <time>2024-04-25T12:39:12.247Z</time>
      </trkpt>
      <trkpt lat="43.67748" lon="3.89562">
        <ele>74</ele>
        <time>2024-04-25T12:39:13.685Z</time>
      </trkpt>
      <trkpt lat="43.67747" lon="3.8955">
        <ele>74</ele>
        <time>2024-04-25T12:39:15.123Z</time>
      </trkpt>
      <trkpt lat="43.67747" lon="3.89539">
        <ele>74</ele>
        <time>2024-04-25T12:39:16.561Z</time>
      </trkpt>
      <trkpt lat="43.67746" lon="3.89527">
        <ele>74</ele>
        <time>2024-04-25T14:39:18+02:00</time>
      </trkpt>
      <trkpt lat="43.67746" lon="3.8952">
        <ele>74</ele>
        <time>2024-04-25T12:39:18.874Z</time>
      </trkpt>
      <trkpt lat="43.67746" lon="3.89513">
        <ele>74</ele>
        <time>2024-04-25T12:39:19.749Z</time>
      </trkpt>
      <trkpt lat="43.67745" lon="3.89505">
        <ele>74</ele>
        <time>2024-04-25T12:39:20.624Z</time>
      </trkpt>
      <trkpt lat="43.67745" lon="3.89498">
        <ele>74</ele>
        <time>2024-04-25T12:39:21.499Z</time>
      </trkpt>
      <trkpt lat="43.67745" lon="3.89491">
        <ele>74</ele>
        <time>2024-04-25T12:39:22.374Z</time>
      </trkpt>
      <trkpt lat="43.67745" lon="3.89484">
        <ele>74</ele>
        <time>2024-04-25T12:39:23.249Z</time>
      </trkpt>
      <trkpt lat="43.67744" lon="3.89476">
        <ele>74</ele>
        <time>2024-04-25T12:39:24.124Z</time>
      </trkpt>
      <trkpt lat="43.67744" lon="3.89469">
        <ele>74.1</ele>
        <time>2024-04-25T14:39:25+02:00</time>
      </trkpt>
      <trkpt lat="43.67741" lon="3.89461">
        <ele>74.4</ele>
        <time>2024-04-25T12:39:26.249Z</time>
      </trkpt>
      <trkpt lat="43.67738" lon="3.89453">
        <ele>74.7</ele>
        <time>2024-04-25T12:39:27.499Z</time>
      </trkpt>
      <trkpt lat="43.67735" lon="3.89445">
        <ele>75</ele>
        <time>2024-04-25T12:39:28.749Z</time>
      </trkpt>
      <trkpt lat="43.67733" lon="3.89437">
        <ele>75</ele>
        <time>2024-04-25T12:39:29.999Z</time>
      </trkpt>
      <trkpt lat="43.6773" lon="3.89429">
        <ele>75</ele>
        <time>2024-04-25T12:39:31.249Z</time>
      </trkpt>
      <trkpt lat="43.67727" lon="3.89421">
        <ele>75</ele>
        <time>2024-04-25T12:39:32.499Z</time>
      </trkpt>
      <trkpt lat="43.67724" lon="3.89413">
        <ele>75.1</ele>
        <time>2024-04-25T12:39:33.749Z</time>
      </trkpt>
      <trkpt lat="43.67721" lon="3.89405">
        <ele>75.4</ele>
        <time>2024-04-25T14:39:35+02:00</time>
      </trkpt>
      <trkpt lat="43.67719" lon="3.89395">
        <ele>75.6</ele>
        <time>2024-04-25T12:39:36.249Z</time>
      </trkpt>
      <trkpt lat="43.67717" lon="3.89386">
        <ele>75.9</ele>
        <time>2024-04-25T12:39:37.499Z</time>
      </trkpt>
      <trkpt lat="43.67714" lon="3.89376">
        <ele>76.1</ele>
        <time>2024-04-25T12:39:38.749Z</time>
      </trkpt>
      <trkpt lat="43.67712" lon="3.89366">
        <ele>76.2</ele>
        <time>2024-04-25T12:39:39.999Z</time>
      </trkpt>
      <trkpt lat="43.6771" lon="3.89356">
        <ele>76.1</ele>
        <time>2024-04-25T12:39:41.249Z</time>
      </trkpt>
      <trkpt lat="43.67708" lon="3.89347">
        <ele>75.9</ele>
        <time>2024-04-25T12:39:42.499Z</time>
      </trkpt>
      <trkpt lat="43.67705" lon="3.89337">
        <ele>75.8</ele>
        <time>2024-04-25T12:39:43.749Z</time>
      </trkpt>
      <trkpt lat="43.67703" lon="3.89327">
        <ele>75.6</ele>
        <time>2024-04-25T14:39:45+02:00</time>
      </trkpt>
      <trkpt lat="43.67702" lon="3.89318">
        <ele>75.5</ele>
        <time>2024-04-25T12:39:46.249Z</time>
      </trkpt>
      <trkpt lat="43.67701" lon="3.89309">
        <ele>75.4</ele>
        <time>2024-04-25T12:39:47.499Z</time>
      </trkpt>
      <trkpt lat="43.67699" lon="3.89299">
        <ele>75.3</ele>
        <time>2024-04-25T12:39:48.749Z</time>
      </trkpt>
      <trkpt lat="43.67698" lon="3.8929">
        <ele>75.3</ele>
        <time>2024-04-25T12:39:49.999Z</time>
      </trkpt>
      <trkpt lat="43.67697" lon="3.89281">
        <ele>75.2</ele>
        <time>2024-04-25T12:39:51.249Z</time>
      </trkpt>
      <trkpt lat="43.67696" lon="3.89272">
        <ele>75.3</ele>
        <time>2024-04-25T12:39:52.499Z</time>
      </trkpt>
      <trkpt lat="43.67694" lon="3.89262">
        <ele>75.5</ele>
        <time>2024-04-25T12:39:53.749Z</time>
      </trkpt>
      <trkpt lat="43.67693" lon="3.89253">
        <ele>75.8</ele>
        <time>2024-04-25T14:39:55+02:00</time>
      </trkpt>
      <trkpt lat="43.67691" lon="3.89244">
        <ele>75.8</ele>
        <time>2024-04-25T12:39:56.249Z</time>
      </trkpt>
      <trkpt lat="43.6769" lon="3.89234">
        <ele>75.7</ele>
        <time>2024-04-25T12:39:57.499Z</time>
      </trkpt>
      <trkpt lat="43.67688" lon="3.89225">
        <ele>75.7</ele>
        <time>2024-04-25T12:39:58.749Z</time>
      </trkpt>
      <trkpt lat="43.67686" lon="3.89215">
        <ele>75.7</ele>
        <time>2024-04-25T12:39:59.999Z</time>
      </trkpt>
      <trkpt lat="43.67684" lon="3.89206">
        <ele>75.6</ele>
        <time>2024-04-25T12:40:01.249Z</time>
      </trkpt>
      <trkpt lat="43.67683" lon="3.89196">
        <ele>75.6</ele>
        <time>2024-04-25T12:40:02.499Z</time>
      </trkpt>
      <trkpt lat="43.67681" lon="3.89187">
        <ele>75.5</ele>
        <time>2024-04-25T12:40:03.749Z</time>
      </trkpt>
      <trkpt lat="43.67679" lon="3.89177">
        <ele>75.4</ele>
        <time>2024-04-25T14:40:05+02:00</time>
      </trkpt>
      <trkpt lat="43.67677" lon="3.89167">
        <ele>75.4</ele>
        <time>2024-04-25T12:40:06.249Z</time>
      </trkpt>
      <trkpt lat="43.67675" lon="3.89158">
        <ele>75.6</ele>
        <time>2024-04-25T12:40:07.499Z</time>
      </trkpt>
      <trkpt lat="43.67673" lon="3.89148">
        <ele>75.9</ele>
        <time>2024-04-25T12:40:08.749Z</time>
      </trkpt>
      <trkpt lat="43.67671" lon="3.89139">
        <ele>76.2</ele>
        <time>2024-04-25T12:40:09.999Z</time>
      </trkpt>
      <trkpt lat="43.67669" lon="3.89129">
        <ele>76.4</ele>
        <time>2024-04-25T12:40:11.249Z</time>
      </trkpt>
      <trkpt lat="43.67667" lon="3.89119">
        <ele>76.7</ele>
        <time>2024-04-25T12:40:12.499Z</time>
      </trkpt>
      <trkpt lat="43.67665" lon="3.8911">
        <ele>77</ele>
        <time>2024-04-25T12:40:13.749Z</time>
      </trkpt>
      <trkpt lat="43.67663" lon="3.891">
        <ele>77</ele>
        <time>2024-04-25T14:40:15+02:00</time>
      </trkpt>
      <trkpt lat="43.6766" lon="3.89093">
        <ele>77</ele>
        <time>2024-04-25T12:40:16.499Z</time>
      </trkpt>
      <trkpt lat="43.67657" lon="3.89085">
        <ele>77</ele>
        <time>2024-04-25T14:40:18+02:00</time>
      </trkpt>
      <trkpt lat="43.67654" lon="3.89079">
        <ele>77</ele>
        <time>2024-04-25T12:40:19.749Z</time>
      </trkpt>
      <trkpt lat="43.67651" lon="3.89072">
        <ele>77</ele>
        <time>2024-04-25T12:40:21.499Z</time>
      </trkpt>
      <trkpt lat="43.67648" lon="3.89066">
        <ele>77</ele>
        <time>2024-04-25T12:40:23.249Z</time>
      </trkpt>
      <trkpt lat="43.67645" lon="3.89059">
        <ele>77</ele>
        <time>2024-04-25T14:40:25+02:00</time>
      </trkpt>
      <trkpt lat="43.6764" lon="3.89053">
        <ele>77.1</ele>
        <time>2024-04-25T12:40:27.499Z</time>
      </trkpt>
      <trkpt lat="43.67636" lon="3.89047">
        <ele>77.3</ele>
        <time>2024-04-25T12:40:29.999Z</time>
      </trkpt>
      <trkpt lat="43.67631" lon="3.89041">
        <ele>77.4</ele>
        <time>2024-04-25T12:40:32.499Z</time>
      </trkpt>
      <trkpt lat="43.67626" lon="3.89035">
        <ele>77.4</ele>
        <time>2024-04-25T14:40:35+02:00</time>
      </trkpt>
      <trkpt lat="43.67623" lon="3.89028">
        <ele>77.4</ele>
        <time>2024-04-25T12:40:36.249Z</time>
      </trkpt>
      <trkpt lat="43.67619" lon="3.89021">
        <ele>77.3</ele>
        <time>2024-04-25T12:40:37.499Z</time>
      </trkpt>
      <trkpt lat="43.67616" lon="3.89014">
        <ele>77.2</ele>
        <time>2024-04-25T12:40:38.749Z</time>
      </trkpt>
      <trkpt lat="43.67612" lon="3.89007">
        <ele>77</ele>
        <time>2024-04-25T12:40:39.999Z</time>
      </trkpt>
      <trkpt lat="43.67609" lon="3.88999">
        <ele>77.1</ele>
        <time>2024-04-25T12:40:41.249Z</time>
      </trkpt>
      <trkpt lat="43.67605" lon="3.88992">
        <ele>77.4</ele>
        <time>2024-04-25T12:40:42.499Z</time>
      </trkpt>
      <trkpt lat="43.67602" lon="3.88985">
        <ele>77.7</ele>
        <time>2024-04-25T12:40:43.749Z</time>
      </trkpt>
      <trkpt lat="43.67598" lon="3.88978">
        <ele>77.9</ele>
        <time>2024-04-25T14:40:45+02:00</time>
      </trkpt>
      <trkpt lat="43.67594" lon="3.88971">
        <ele>78</ele>
        <time>2024-04-25T12:40:46.249Z</time>
      </trkpt>
      <trkpt lat="43.6759" lon="3.88964">
        <ele>78.2</ele>
        <time>2024-04-25T12:40:47.499Z</time>
      </trkpt>
      <trkpt lat="43.67586" lon="3.88956">
        <ele>78.5</ele>
        <time>2024-04-25T12:40:48.749Z</time>
      </trkpt>
      <trkpt lat="43.67583" lon="3.88949">
        <ele>78.8</ele>
        <time>2024-04-25T12:40:49.999Z</time>
      </trkpt>
      <trkpt lat="43.67579" lon="3.88942">
        <ele>79.1</ele>
        <time>2024-04-25T12:40:51.249Z</time>
      </trkpt>
      <trkpt lat="43.67575" lon="3.88935">
        <ele>79.4</ele>
        <time>2024-04-25T12:40:52.499Z</time>
      </trkpt>
      <trkpt lat="43.67571" lon="3.88927">
        <ele>79.6</ele>
        <time>2024-04-25T12:40:53.749Z</time>
      </trkpt>
      <trkpt lat="43.67567" lon="3.8892">
        <ele>79.9</ele>
        <time>2024-04-25T14:40:55+02:00</time>
      </trkpt>
      <trkpt lat="43.67562" lon="3.88914">
        <ele>80.1</ele>
        <time>2024-04-25T12:40:59.999Z</time>
      </trkpt>
      <trkpt lat="43.67556" lon="3.88908">
        <ele>80.3</ele>
        <time>2024-04-25T14:41:05+02:00</time>
      </trkpt>
      <trkpt lat="43.67563" lon="3.88907">
        <ele>80.5</ele>
        <time>2024-04-25T12:41:06.250Z</time>
      </trkpt>
      <trkpt lat="43.6757" lon="3.88906">
        <ele>80.6</ele>
        <time>2024-04-25T12:41:07.500Z</time>
      </trkpt>
      <trkpt lat="43.67577" lon="3.88904">
        <ele>80.8</ele>
        <time>2024-04-25T12:41:08.750Z</time>
      </trkpt>
      <trkpt lat="43.67584" lon="3.88903">
        <ele>81</ele>
        <time>2024-04-25T12:41:10.000Z</time>
      </trkpt>
      <trkpt lat="43.67591" lon="3.88902">
        <ele>80.8</ele>
        <time>2024-04-25T12:41:11.250Z</time>
      </trkpt>
      <trkpt lat="43.67598" lon="3.88901">
        <ele>80.6</ele>
        <time>2024-04-25T12:41:12.500Z</time>
      </trkpt>
      <trkpt lat="43.67605" lon="3.88899">
        <ele>80.5</ele>
        <time>2024-04-25T12:41:13.750Z</time>
      </trkpt>
      <trkpt lat="43.67612" lon="3.88898">
        <ele>80.3</ele>
        <time>2024-04-25T14:41:15+02:00</time>
      </trkpt>
      <trkpt lat="43.67616" lon="3.88894">
        <ele>80.6</ele>
        <time>2024-04-25T12:41:16.500Z</time>
      </trkpt>
      <trkpt lat="43.6762" lon="3.8889">
        <ele>80.9</ele>
        <time>2024-04-25T14:41:18+02:00</time>
      </trkpt>
      <trkpt lat="43.67627" lon="3.88883">
        <ele>81.7</ele>
        <time>2024-04-25T12:41:21.500Z</time>
      </trkpt>
      <trkpt lat="43.67633" lon="3.88875">
        <ele>82.5</ele>
        <time>2024-04-25T14:41:25+02:00</time>
      </trkpt>
      <trkpt lat="43.67634" lon="3.88869">
        <ele>83.2</ele>
        <time>2024-04-25T12:41:27.000Z</time>
      </trkpt>
      <trkpt lat="43.67635" lon="3.88862">
        <ele>83.9</ele>
        <time>2024-04-25T14:41:29+02:00</time>
      </trkpt>
      <trkpt lat="43.67639" lon="3.88855">
        <ele>84.9</ele>
        <time>2024-04-25T12:41:32.000Z</time>
      </trkpt>
      <trkpt lat="43.67642" lon="3.88848">
        <ele>85.8</ele>
        <time>2024-04-25T14:41:35+02:00</time>
      </trkpt>
      <trkpt lat="43.67649" lon="3.88844">
        <ele>86.1</ele>
        <time>2024-04-25T12:41:37.500Z</time>
      </trkpt>
      <trkpt lat="43.67655" lon="3.8884">
        <ele>86.5</ele>
        <time>2024-04-25T12:41:40.000Z</time>
      </trkpt>
      <trkpt lat="43.67662" lon="3.88835">
        <ele>86.9</ele>
        <time>2024-04-25T12:41:42.500Z</time>
      </trkpt>
      <trkpt lat="43.67668" lon="3.88831">
        <ele>87.4</ele>
        <time>2024-04-25T14:41:45+02:00</time>
      </trkpt>
      <trkpt lat="43.67673" lon="3.88832">
        <ele>87.2</ele>
        <time>2024-04-25T14:41:46+02:00</time>
      </trkpt>
      <trkpt lat="43.67678" lon="3.88834">
        <ele>86.9</ele>
        <time>2024-04-25T12:41:47.125Z</time>
      </trkpt>
      <trkpt lat="43.67683" lon="3.88837">
        <ele>86.5</ele>
        <time>2024-04-25T12:41:48.250Z</time>
      </trkpt>
      <trkpt lat="43.67688" lon="3.88839">
        <ele>86.2</ele>
        <time>2024-04-25T12:41:49.375Z</time>
      </trkpt>
      <trkpt lat="43.67693" lon="3.88841">
        <ele>85.9</ele>
        <time>2024-04-25T12:41:50.500Z</time>
      </trkpt>
      <trkpt lat="43.67697" lon="3.88843">
        <ele>85.6</ele>
        <time>2024-04-25T12:41:51.625Z</time>
      </trkpt>
      <trkpt lat="43.67702" lon="3.88846">
        <ele>85.4</ele>
        <time>2024-04-25T12:41:52.750Z</time>
      </trkpt>
      <trkpt lat="43.67707" lon="3.88848">
        <ele>85.2</ele>
        <time>2024-04-25T12:41:53.875Z</time>
      </trkpt>
      <trkpt lat="43.67712" lon="3.8885">
        <ele>85</ele>
        <time>2024-04-25T14:41:55+02:00</time>
      </trkpt>
      <trkpt lat="43.67718" lon="3.8885">
        <ele>85.1</ele>
        <time>2024-04-25T12:41:56.250Z</time>
      </trkpt>
      <trkpt lat="43.67723" lon="3.88851">
        <ele>85.2</ele>
        <time>2024-04-25T12:41:57.500Z</time>
      </trkpt>
      <trkpt lat="43.67729" lon="3.88851">
        <ele>85.3</ele>
        <time>2024-04-25T12:41:58.750Z</time>
      </trkpt>
      <trkpt lat="43.67734" lon="3.88851">
        <ele>85.5</ele>
        <time>2024-04-25T12:42:00.000Z</time>
      </trkpt>
      <trkpt lat="43.6774" lon="3.88851">
        <ele>85.7</ele>
        <time>2024-04-25T12:42:01.250Z</time>
      </trkpt>
      <trkpt lat="43.67745" lon="3.88852">
        <ele>85.9</ele>
        <time>2024-04-25T12:42:02.500Z</time>
      </trkpt>
      <trkpt lat="43.67751" lon="3.88852">
        <ele>86</ele>
        <time>2024-04-25T12:42:03.750Z</time>
      </trkpt>
      <trkpt lat="43.67756" lon="3.88852">
        <ele>86.1</ele>
        <time>2024-04-25T14:42:05+02:00</time>
      </trkpt>
      <trkpt lat="43.67761" lon="3.88852">
        <ele>86.2</ele>
        <time>2024-04-25T12:42:06.250Z</time>
      </trkpt>
      <trkpt lat="43.67765" lon="3.88852">
        <ele>86.3</ele>
        <time>2024-04-25T12:42:07.500Z</time>
      </trkpt>
      <trkpt lat="43.6777" lon="3.88852">
        <ele>86.4</ele>
        <time>2024-04-25T12:42:08.750Z</time>
      </trkpt>
      <trkpt lat="43.67774" lon="3.88852">
        <ele>86.6</ele>
        <time>2024-04-25T12:42:10.000Z</time>
      </trkpt>
      <trkpt lat="43.67779" lon="3.88852">
        <ele>86.6</ele>
        <time>2024-04-25T12:42:11.250Z</time>
      </trkpt>
      <trkpt lat="43.67783" lon="3.88852">
        <ele>86.6</ele>
        <time>2024-04-25T12:42:12.500Z</time>
      </trkpt>
      <trkpt lat="43.67788" lon="3.88852">
        <ele>86.5</ele>
        <time>2024-04-25T12:42:13.750Z</time>
      </trkpt>
      <trkpt lat="43.67792" lon="3.88852">
        <ele>86.5</ele>
        <time>2024-04-25T14:42:15+02:00</time>
      </trkpt>
      <trkpt lat="43.67797" lon="3.8885">
        <ele>86.8</ele>
        <time>2024-04-25T12:42:16.500Z</time>
      </trkpt>
      <trkpt lat="43.67802" lon="3.88847">
        <ele>87.1</ele>
        <time>2024-04-25T14:42:18+02:00</time>
      </trkpt>
      <trkpt lat="43.67808" lon="3.88847">
        <ele>87</ele>
        <time>2024-04-25T12:42:19.750Z</time>
      </trkpt>
      <trkpt lat="43.67815" lon="3.88848">
        <ele>87</ele>
        <time>2024-04-25T12:42:21.500Z</time>
      </trkpt>
      <trkpt lat="43.67821" lon="3.88848">
        <ele>86.9</ele>
        <time>2024-04-25T12:42:23.250Z</time>
      </trkpt>
      <trkpt lat="43.67827" lon="3.88848">
        <ele>86.9</ele>
        <time>2024-04-25T14:42:25+02:00</time>
      </trkpt>
      <trkpt lat="43.67833" lon="3.88848">
        <ele>86.9</ele>
        <time>2024-04-25T12:42:26.250Z</time>
      </trkpt>
      <trkpt lat="43.67838" lon="3.88849">
        <ele>86.9</ele>
        <time>2024-04-25T12:42:27.500Z</time>
      </trkpt>
      <trkpt lat="43.67844" lon="3.88849">
        <ele>86.9</ele>
        <time>2024-04-25T12:42:28.750Z</time>
      </trkpt>
      <trkpt lat="43.67849" lon="3.88849">
        <ele>86.9</ele>
        <time>2024-04-25T12:42:30.000Z</time>
      </trkpt>
      <trkpt lat="43.67855" lon="3.88849">
        <ele>86.9</ele>
        <time>2024-04-25T12:42:31.250Z</time>
      </trkpt>
      <trkpt lat="43.6786" lon="3.8885">
        <ele>86.8</ele>
        <time>2024-04-25T12:42:32.500Z</time>
      </trkpt>
      <trkpt lat="43.67866" lon="3.8885">
        <ele>86.6</ele>
        <time>2024-04-25T12:42:33.750Z</time>
      </trkpt>
      <trkpt lat="43.67871" lon="3.8885">
        <ele>86.3</ele>
        <time>2024-04-25T14:42:35+02:00</time>
      </trkpt>
      <trkpt lat="43.67877" lon="3.88843">
        <ele>86.4</ele>
        <time>2024-04-25T14:42:45+02:00</time>
      </trkpt>
      <trkpt lat="43.67881" lon="3.88839">
        <ele>86.3</ele>
        <time>2024-04-25T12:42:50.000Z</time>
      </trkpt>
      <trkpt lat="43.67885" lon="3.88836">
        <ele>86.2</ele>
        <time>2024-04-25T12:42:55.000Z</time>
      </trkpt>
      <trkpt lat="43.67889" lon="3.88832">
        <ele>86.1</ele>
        <time>2024-04-25T12:43:00.000Z</time>
      </trkpt>
      <trkpt lat="43.67893" lon="3.88828">
        <ele>86.1</ele>
        <time>2024-04-25T12:43:05.000Z</time>
      </trkpt>
      <trkpt lat="43.67896" lon="3.88824">
        <ele>86.1</ele>
        <time>2024-04-25T12:43:10.000Z</time>
      </trkpt>
      <trkpt lat="43.679" lon="3.88821">
        <ele>86.2</ele>
        <time>2024-04-25T12:43:15.000Z</time>
      </trkpt>
      <trkpt lat="43.67904" lon="3.88817">
        <ele>86.4</ele>
        <time>2024-04-25T12:43:20.000Z</time>
      </trkpt>
      <trkpt lat="43.67908" lon="3.88813">
        <ele>86.5</ele>
        <time>2024-04-25T14:43:25+02:00</time>
      </trkpt>
      <trkpt lat="43.67901" lon="3.88811">
        <ele>86.7</ele>
        <time>2024-04-25T14:43:30+02:00</time>
      </trkpt>
      <trkpt lat="43.67896" lon="3.8881">
        <ele>86.8</ele>
        <time>2024-04-25T12:43:34.062Z</time>
      </trkpt>
      <trkpt lat="43.67892" lon="3.8881">
        <ele>86.8</ele>
        <time>2024-04-25T12:43:38.124Z</time>
      </trkpt>
      <trkpt lat="43.67887" lon="3.88809">
        <ele>87</ele>
        <time>2024-04-25T12:43:42.186Z</time>
      </trkpt>
      <trkpt lat="43.67883" lon="3.88808">
        <ele>87.3</ele>
        <time>2024-04-25T12:43:46.248Z</time>
      </trkpt>
      <trkpt lat="43.67878" lon="3.88808">
        <ele>87.7</ele>
        <time>2024-04-25T12:43:50.310Z</time>
      </trkpt>
      <trkpt lat="43.67874" lon="3.88807">
        <ele>88.1</ele>
        <time>2024-04-25T12:43:54.372Z</time>
      </trkpt>
      <trkpt lat="43.67869" lon="3.88806">
        <ele>88.4</ele>
        <time>2024-04-25T12:43:58.434Z</time>
      </trkpt>
      <trkpt lat="43.67865" lon="3.88806">
        <ele>88.8</ele>
        <time>2024-04-25T12:44:02.496Z</time>
      </trkpt>
      <trkpt lat="43.6786" lon="3.88805">
        <ele>89.2</ele>
        <time>2024-04-25T12:44:06.558Z</time>
      </trkpt>
      <trkpt lat="43.67855" lon="3.88804">
        <ele>89.8</ele>
        <time>2024-04-25T12:44:10.621Z</time>
      </trkpt>
      <trkpt lat="43.67851" lon="3.88803">
        <ele>90.4</ele>
        <time>2024-04-25T12:44:14.684Z</time>
      </trkpt>
      <trkpt lat="43.67846" lon="3.88803">
        <ele>91</ele>
        <time>2024-04-25T12:44:18.747Z</time>
      </trkpt>
      <trkpt lat="43.67842" lon="3.88802">
        <ele>91.5</ele>
        <time>2024-04-25T12:44:22.810Z</time>
      </trkpt>
      <trkpt lat="43.67837" lon="3.88801">
        <ele>92.1</ele>
        <time>2024-04-25T12:44:26.873Z</time>
      </trkpt>
      <trkpt lat="43.67833" lon="3.88801">
        <ele>92.5</ele>
        <time>2024-04-25T12:44:30.936Z</time>
      </trkpt>
      <trkpt lat="43.67828" lon="3.888">
        <ele>92.8</ele>
        <time>2024-04-25T14:44:35+02:00</time>
      </trkpt>
      <trkpt lat="43.67823" lon="3.88796">
        <ele>93.3</ele>
        <time>2024-04-25T12:44:39.999Z</time>
      </trkpt>
      <trkpt lat="43.67818" lon="3.88792">
        <ele>93.7</ele>
        <time>2024-04-25T14:44:45+02:00</time>
      </trkpt>
      <trkpt lat="43.67812" lon="3.8879">
        <ele>94</ele>
        <time>2024-04-25T12:44:56.374Z</time>
      </trkpt>
      <trkpt lat="43.67806" lon="3.88788">
        <ele>94.3</ele>
        <time>2024-04-25T12:45:07.749Z</time>
      </trkpt>
      <trkpt lat="43.678" lon="3.88786">
        <ele>95.2</ele>
        <time>2024-04-25T12:45:19.124Z</time>
      </trkpt>
      <trkpt lat="43.67794" lon="3.88784">
        <ele>96.2</ele>
        <time>2024-04-25T12:45:30.499Z</time>
      </trkpt>
      <trkpt lat="43.67788" lon="3.88782">
        <ele>97.4</ele>
        <time>2024-04-25T12:45:41.874Z</time>
      </trkpt>
      <trkpt lat="43.67782" lon="3.8878">
        <ele>98.7</ele>
        <time>2024-04-25T12:45:53.249Z</time>
      </trkpt>
      <trkpt lat="43.67776" lon="3.88778">
        <ele>99.8</ele>
        <time>2024-04-25T12:46:04.624Z</time>
      </trkpt>
      <trkpt lat="43.6777" lon="3.88777">
        <ele>99.9</ele>
        <time>2024-04-25T12:46:15.999Z</time>
      </trkpt>
      <trkpt lat="43.67764" lon="3.88775">
        <ele>99.9</ele>
        <time>2024-04-25T12:46:27.374Z</time>
      </trkpt>
      <trkpt lat="43.67758" lon="3.88773">
        <ele>100</ele>
        <time>2024-04-25T12:46:38.749Z</time>
      </trkpt>
      <trkpt lat="43.67752" lon="3.88771">
        <ele>100.1</ele>
        <time>2024-04-25T12:46:50.124Z</time>
      </trkpt>
      <trkpt lat="43.67746" lon="3.88769">
        <ele>100.1</ele>
        <time>2024-04-25T12:47:01.499Z</time>
      </trkpt>
      <trkpt lat="43.6774" lon="3.88767">
        <ele>99.9</ele>
        <time>2024-04-25T12:47:12.874Z</time>
      </trkpt>
      <trkpt lat="43.67734" lon="3.88765">
        <ele>99.7</ele>
        <time>2024-04-25T12:47:24.249Z</time>
      </trkpt>
      <trkpt lat="43.67728" lon="3.88763">
        <ele>99.5</ele>
        <time>2024-04-25T12:47:35.624Z</time>
      </trkpt>
      <trkpt lat="43.67722" lon="3.88761">
        <ele>99.2</ele>
        <time>2024-04-25T14:47:47+02:00</time>
      </trkpt>
      <trkpt lat="43.67718" lon="3.88759">
        <ele>99.4</ele>
        <time>2024-04-25T12:47:48.749Z</time>
      </trkpt>
      <trkpt lat="43.67713" lon="3.88757">
        <ele>99.5</ele>
        <time>2024-04-25T12:47:50.499Z</time>
      </trkpt>
      <trkpt lat="43.67709" lon="3.88754">
        <ele>99.7</ele>
        <time>2024-04-25T12:47:52.249Z</time>
      </trkpt>
      <trkpt lat="43.67704" lon="3.88752">
        <ele>99.9</ele>
        <time>2024-04-25T14:47:54+02:00</time>
      </trkpt>
      <trkpt lat="43.67698" lon="3.88753">
        <ele>99.8</ele>
        <time>2024-04-25T12:47:56.500Z</time>
      </trkpt>
      <trkpt lat="43.67692" lon="3.88754">
        <ele>99.7</ele>
        <time>2024-04-25T12:47:59.000Z</time>
      </trkpt>
      <trkpt lat="43.67686" lon="3.88754">
        <ele>99.4</ele>
        <time>2024-04-25T12:48:01.500Z</time>
      </trkpt>
      <trkpt lat="43.6768" lon="3.88755">
        <ele>99.2</ele>
        <time>2024-04-25T14:48:04+02:00</time>
      </trkpt>
      <trkpt lat="43.67673" lon="3.88751">
        <ele>99.2</ele>
        <time>2024-04-25T12:48:06.499Z</time>
      </trkpt>
      <trkpt lat="43.67667" lon="3.88746">
        <ele>99.4</ele>
        <time>2024-04-25T12:48:08.999Z</time>
      </trkpt>
      <trkpt lat="43.6766" lon="3.88742">
        <ele>99.7</ele>
        <time>2024-04-25T12:48:11.499Z</time>
      </trkpt>
      <trkpt lat="43.67653" lon="3.88737">
        <ele>99.9</ele>
        <time>2024-04-25T14:48:14+02:00</time>
      </trkpt>
      <trkpt lat="43.67645" lon="3.88741">
        <ele>99.2</ele>
        <time>2024-04-25T12:48:18.999Z</time>
      </trkpt>
      <trkpt lat="43.67637" lon="3.88744">
        <ele>98.7</ele>
        <time>2024-04-25T14:48:24+02:00</time>
      </trkpt>
      <trkpt lat="43.67631" lon="3.88747">
        <ele>98.6</ele>
        <time>2024-04-25T12:48:26.499Z</time>
      </trkpt>
      <trkpt lat="43.67626" lon="3.8875">
        <ele>98.5</ele>
        <time>2024-04-25T12:48:28.999Z</time>
      </trkpt>
      <trkpt lat="43.6762" lon="3.88752">
        <ele>98.5</ele>
        <time>2024-04-25T12:48:31.499Z</time>
      </trkpt>
      <trkpt lat="43.67614" lon="3.88755">
        <ele>98.5</ele>
        <time>2024-04-25T14:48:34+02:00</time>
      </trkpt>
      <trkpt lat="43.67606" lon="3.88755">
        <ele>98.3</ele>
        <time>2024-04-25T12:48:36.500Z</time>
      </trkpt>
      <trkpt lat="43.67598" lon="3.88755">
        <ele>97.9</ele>
        <time>2024-04-25T12:48:39.000Z</time>
      </trkpt>
      <trkpt lat="43.6759" lon="3.88754">
        <ele>97.4</ele>
        <time>2024-04-25T12:48:41.500Z</time>
      </trkpt>
      <trkpt lat="43.67582" lon="3.88754">
        <ele>96.8</ele>
        <time>2024-04-25T14:48:44+02:00</time>
      </trkpt>
      <trkpt lat="43.67575" lon="3.88753">
        <ele>96</ele>
        <time>2024-04-25T12:48:46.500Z</time>
      </trkpt>
      <trkpt lat="43.67568" lon="3.88753">
        <ele>95.2</ele>
        <time>2024-04-25T12:48:49.000Z</time>
      </trkpt>
      <trkpt lat="43.6756" lon="3.88752">
        <ele>94.5</ele>
        <time>2024-04-25T12:48:51.500Z</time>
      </trkpt>
      <trkpt lat="43.67553" lon="3.88751">
        <ele>93.8</ele>
        <time>2024-04-25T14:48:54+02:00</time>
      </trkpt>
      <trkpt lat="43.67548" lon="3.88746">
        <ele>93.7</ele>
        <time>2024-04-25T14:49:00+02:00</time>
      </trkpt>
      <trkpt lat="43.6754" lon="3.88746">
        <ele>93.2</ele>
        <time>2024-04-25T12:49:03.500Z</time>
      </trkpt>
      <trkpt lat="43.67533" lon="3.88747">
        <ele>92.7</ele>
        <time>2024-04-25T12:49:07.000Z</time>
      </trkpt>
      <trkpt lat="43.67525" lon="3.88747">
        <ele>92.6</ele>
        <time>2024-04-25T12:49:10.500Z</time>
      </trkpt>
      <trkpt lat="43.67517" lon="3.88747">
        <ele>93.1</ele>
        <time>2024-04-25T14:49:14+02:00</time>
      </trkpt>
      <trkpt lat="43.67512" lon="3.8874">
        <ele>94.1</ele>
        <time>2024-04-25T12:49:16.499Z</time>
      </trkpt>
      <trkpt lat="43.67506" lon="3.88733">
        <ele>95</ele>
        <time>2024-04-25T12:49:18.999Z</time>
      </trkpt>
      <trkpt lat="43.67501" lon="3.88725">
        <ele>95.8</ele>
        <time>2024-04-25T12:49:21.499Z</time>
      </trkpt>
      <trkpt lat="43.67495" lon="3.88718">
        <ele>96.3</ele>
        <time>2024-04-25T14:49:24+02:00</time>
      </trkpt>
      <trkpt lat="43.67494" lon="3.8871">
        <ele>96.5</ele>
        <time>2024-04-25T12:49:26.499Z</time>
      </trkpt>
      <trkpt lat="43.67492" lon="3.88702">
        <ele>96.6</ele>
        <time>2024-04-25T12:49:28.999Z</time>
      </trkpt>
      <trkpt lat="43.67491" lon="3.88693">
        <ele>96.7</ele>
        <time>2024-04-25T12:49:31.499Z</time>
      </trkpt>
      <trkpt lat="43.67489" lon="3.88685">
        <ele>96.8</ele>
        <time>2024-04-25T14:49:34+02:00</time>
      </trkpt>
      <trkpt lat="43.67486" lon="3.8868">
        <ele>96.7</ele>
        <time>2024-04-25T12:49:36.499Z</time>
      </trkpt>
      <trkpt lat="43.67482" lon="3.88676">
        <ele>96.6</ele>
        <time>2024-04-25T12:49:38.999Z</time>
      </trkpt>
      <trkpt lat="43.67479" lon="3.88671">
        <ele>96.4</ele>
        <time>2024-04-25T12:49:41.499Z</time>
      </trkpt>
      <trkpt lat="43.67475" lon="3.88666">
        <ele>96.2</ele>
        <time>2024-04-25T14:49:44+02:00</time>
      </trkpt>
      <trkpt lat="43.67469" lon="3.8867">
        <ele>95.9</ele>
        <time>2024-04-25T12:49:46.499Z</time>
      </trkpt>
      <trkpt lat="43.67463" lon="3.88674">
        <ele>95.6</ele>
        <time>2024-04-25T12:49:48.999Z</time>
      </trkpt>
      <trkpt lat="43.67456" lon="3.88678">
        <ele>95.2</ele>
        <time>2024-04-25T12:49:51.499Z</time>
      </trkpt>
      <trkpt lat="43.6745" lon="3.88682">
        <ele>94.8</ele>
        <time>2024-04-25T14:49:54+02:00</time>
      </trkpt>
      <trkpt lat="43.67445" lon="3.88684">
        <ele>94.4</ele>
        <time>2024-04-25T12:49:55.249Z</time>
      </trkpt>
      <trkpt lat="43.6744" lon="3.88686">
        <ele>93.9</ele>
        <time>2024-04-25T12:49:56.499Z</time>
      </trkpt>
      <trkpt lat="43.67435" lon="3.88688">
        <ele>93.4</ele>
        <time>2024-04-25T12:49:57.749Z</time>
      </trkpt>
      <trkpt lat="43.6743" lon="3.88691">
        <ele>93</ele>
        <time>2024-04-25T12:49:58.999Z</time>
      </trkpt>
      <trkpt lat="43.67424" lon="3.88693">
        <ele>92.6</ele>
        <time>2024-04-25T12:50:00.249Z</time>
      </trkpt>
      <trkpt lat="43.67419" lon="3.88695">
        <ele>92.2</ele>
        <time>2024-04-25T12:50:01.499Z</time>
      </trkpt>
      <trkpt lat="43.67414" lon="3.88697">
        <ele>92</ele>
        <time>2024-04-25T12:50:02.749Z</time>
      </trkpt>
      <trkpt lat="43.67409" lon="3.88699">
        <ele>91.8</ele>
        <time>2024-04-25T14:50:04+02:00</time>
      </trkpt>
      <trkpt lat="43.67405" lon="3.88702">
        <ele>91.7</ele>
        <time>2024-04-25T12:50:05.249Z</time>
      </trkpt>
      <trkpt lat="43.67401" lon="3.88706">
        <ele>91.6</ele>
        <time>2024-04-25T12:50:06.499Z</time>
      </trkpt>
      <trkpt lat="43.67397" lon="3.88709">
        <ele>91.5</ele>
        <time>2024-04-25T12:50:07.749Z</time>
      </trkpt>
      <trkpt lat="43.67394" lon="3.88712">
        <ele>91.3</ele>
        <time>2024-04-25T12:50:08.999Z</time>
      </trkpt>
      <trkpt lat="43.6739" lon="3.88715">
        <ele>91</ele>
        <time>2024-04-25T12:50:10.249Z</time>
      </trkpt>
      <trkpt lat="43.67386" lon="3.88719">
        <ele>90.9</ele>
        <time>2024-04-25T12:50:11.499Z</time>
      </trkpt>
      <trkpt lat="43.67382" lon="3.88722">
        <ele>90.7</ele>
        <time>2024-04-25T12:50:12.749Z</time>
      </trkpt>
      <trkpt lat="43.67378" lon="3.88725">
        <ele>90.6</ele>
        <time>2024-04-25T14:50:14+02:00</time>
      </trkpt>
      <trkpt lat="43.67375" lon="3.88731">
        <ele>90.3</ele>
        <time>2024-04-25T12:50:21.499Z</time>
      </trkpt>
      <trkpt lat="43.67371" lon="3.88737">
        <ele>90</ele>
        <time>2024-04-25T12:50:28.999Z</time>
      </trkpt>
      <trkpt lat="43.67368" lon="3.88743">
        <ele>89.7</ele>
        <time>2024-04-25T12:50:36.499Z</time>
      </trkpt>
      <trkpt lat="43.67364" lon="3.88749">
        <ele>89.2</ele>
        <time>2024-04-25T12:50:43.999Z</time>
      </trkpt>
      <trkpt lat="43.67361" lon="3.88755">
        <ele>89</ele>
        <time>2024-04-25T12:50:51.499Z</time>
      </trkpt>
      <trkpt lat="43.67357" lon="3.88761">
        <ele>88.9</ele>
        <time>2024-04-25T12:50:58.999Z</time>
      </trkpt>
      <trkpt lat="43.67354" lon="3.88767">
        <ele>88.7</ele>
        <time>2024-04-25T12:51:06.499Z</time>
      </trkpt>
      <trkpt lat="43.67351" lon="3.88774">
        <ele>88.4</ele>
        <time>2024-04-25T12:51:13.999Z</time>
      </trkpt>
      <trkpt lat="43.67347" lon="3.8878">
        <ele>87.9</ele>
        <time>2024-04-25T12:51:21.499Z</time>
      </trkpt>
      <trkpt lat="43.67344" lon="3.88786">
        <ele>87.5</ele>
        <time>2024-04-25T12:51:28.999Z</time>
      </trkpt>
      <trkpt lat="43.6734" lon="3.88792">
        <ele>87</ele>
        <time>2024-04-25T12:51:36.499Z</time>
      </trkpt>
      <trkpt lat="43.67337" lon="3.88798">
        <ele>86.5</ele>
        <time>2024-04-25T12:51:43.999Z</time>
      </trkpt>
      <trkpt lat="43.67333" lon="3.88804">
        <ele>86.1</ele>
        <time>2024-04-25T12:51:51.499Z</time>
      </trkpt>
      <trkpt lat="43.6733" lon="3.8881">
        <ele>86.4</ele>
        <time>2024-04-25T12:51:58.999Z</time>
      </trkpt>
      <trkpt lat="43.67326" lon="3.88816">
        <ele>86.9</ele>
        <time>2024-04-25T12:52:06.499Z</time>
      </trkpt>
      <trkpt lat="43.67323" lon="3.88822">
        <ele>87.6</ele>
        <time>2024-04-25T14:52:14+02:00</time>
      </trkpt>
      <trkpt lat="43.67328" lon="3.88832">
        <ele>86.9</ele>
        <time>2024-04-25T12:52:16.500Z</time>
      </trkpt>
      <trkpt lat="43.67333" lon="3.88842">
        <ele>86.7</ele>
        <time>2024-04-25T12:52:19.000Z</time>
      </trkpt>
      <trkpt lat="43.67338" lon="3.88851">
        <ele>87</ele>
        <time>2024-04-25T12:52:21.500Z</time>
      </trkpt>
      <trkpt lat="43.67343" lon="3.88861">
        <ele>87.3</ele>
        <time>2024-04-25T14:52:24+02:00</time>
      </trkpt>
      <trkpt lat="43.67347" lon="3.88866">
        <ele>87.5</ele>
        <time>2024-04-25T12:52:25.250Z</time>
      </trkpt>
      <trkpt lat="43.67351" lon="3.88871">
        <ele>87.6</ele>
        <time>2024-04-25T12:52:26.500Z</time>
      </trkpt>
      <trkpt lat="43.67354" lon="3.88876">
        <ele>87.4</ele>
        <time>2024-04-25T12:52:27.750Z</time>
      </trkpt>
      <trkpt lat="43.67358" lon="3.88882">
        <ele>87.2</ele>
        <time>2024-04-25T12:52:29.000Z</time>
      </trkpt>
      <trkpt lat="43.67362" lon="3.88887">
        <ele>86.9</ele>
        <time>2024-04-25T12:52:30.250Z</time>
      </trkpt>
      <trkpt lat="43.67366" lon="3.88892">
        <ele>86.8</ele>
        <time>2024-04-25T12:52:31.500Z</time>
      </trkpt>
      <trkpt lat="43.67369" lon="3.88897">
        <ele>86.9</ele>
        <time>2024-04-25T12:52:32.750Z</time>
      </trkpt>
      <trkpt lat="43.67373" lon="3.88902">
        <ele>86.9</ele>
        <time>2024-04-25T14:52:34+02:00</time>
      </trkpt>
      <trkpt lat="43.67376" lon="3.88907">
        <ele>87</ele>
        <time>2024-04-25T12:52:35.250Z</time>
      </trkpt>
      <trkpt lat="43.67379" lon="3.88912">
        <ele>87</ele>
        <time>2024-04-25T12:52:36.500Z</time>
      </trkpt>
      <trkpt lat="43.67382" lon="3.88917">
        <ele>87</ele>
        <time>2024-04-25T12:52:37.750Z</time>
      </trkpt>
      <trkpt lat="43.67386" lon="3.88922">
        <ele>86.8</ele>
        <time>2024-04-25T12:52:39.000Z</time>
      </trkpt>
      <trkpt lat="43.67389" lon="3.88927">
        <ele>86.4</ele>
        <time>2024-04-25T12:52:40.250Z</time>
      </trkpt>
      <trkpt lat="43.67392" lon="3.88932">
        <ele>86.2</ele>
        <time>2024-04-25T12:52:41.500Z</time>
      </trkpt>
      <trkpt lat="43.67395" lon="3.88937">
        <ele>85.9</ele>
        <time>2024-04-25T12:52:42.750Z</time>
      </trkpt>
      <trkpt lat="43.67398" lon="3.88942">
        <ele>85.6</ele>
        <time>2024-04-25T14:52:44+02:00</time>
      </trkpt>
      <trkpt lat="43.67404" lon="3.88948">
        <ele>85.1</ele>
        <time>2024-04-25T12:52:49.000Z</time>
      </trkpt>
      <trkpt lat="43.67409" lon="3.88954">
        <ele>84.5</ele>
        <time>2024-04-25T14:52:54+02:00</time>
      </trkpt>
      <trkpt lat="43.67408" lon="3.88964">
        <ele>85.2</ele>
        <time>2024-04-25T12:52:57.124Z</time>
      </trkpt>
      <trkpt lat="43.67407" lon="3.88974">
        <ele>85.8</ele>
        <time>2024-04-25T12:53:00.249Z</time>
      </trkpt>
      <trkpt lat="43.67406" lon="3.88984">
        <ele>86.2</ele>
        <time>2024-04-25T12:53:03.374Z</time>
      </trkpt>
      <trkpt lat="43.67405" lon="3.88994">
        <ele>86.5</ele>
        <time>2024-04-25T12:53:06.499Z</time>
      </trkpt>
      <trkpt lat="43.67403" lon="3.89004">
        <ele>87</ele>
        <time>2024-04-25T12:53:09.624Z</time>
      </trkpt>
      <trkpt lat="43.67402" lon="3.89014">
        <ele>87.7</ele>
        <time>2024-04-25T12:53:12.749Z</time>
      </trkpt>
      <trkpt lat="43.67401" lon="3.89024">
        <ele>88.3</ele>
        <time>2024-04-25T12:53:15.874Z</time>
      </trkpt>
      <trkpt lat="43.674" lon="3.89035">
        <ele>88.7</ele>
        <time>2024-04-25T12:53:18.999Z</time>
      </trkpt>
      <trkpt lat="43.67399" lon="3.89045">
        <ele>88.7</ele>
        <time>2024-04-25T12:53:22.124Z</time>
      </trkpt>
      <trkpt lat="43.67398" lon="3.89055">
        <ele>88.8</ele>
        <time>2024-04-25T12:53:25.249Z</time>
      </trkpt>
      <trkpt lat="43.67397" lon="3.89065">
        <ele>88.6</ele>
        <time>2024-04-25T12:53:28.374Z</time>
      </trkpt>
      <trkpt lat="43.67396" lon="3.89075">
        <ele>88.3</ele>
        <time>2024-04-25T12:53:31.499Z</time>
      </trkpt>
      <trkpt lat="43.67394" lon="3.89085">
        <ele>88</ele>
        <time>2024-04-25T12:53:34.624Z</time>
      </trkpt>
      <trkpt lat="43.67393" lon="3.89095">
        <ele>88.2</ele>
        <time>2024-04-25T12:53:37.749Z</time>
      </trkpt>
      <trkpt lat="43.67392" lon="3.89105">
        <ele>88.4</ele>
        <time>2024-04-25T12:53:40.874Z</time>
      </trkpt>
      <trkpt lat="43.67391" lon="3.89115">
        <ele>88.4</ele>
        <time>2024-04-25T14:53:44+02:00</time>
      </trkpt>
      <trkpt lat="43.67392" lon="3.89124">
        <ele>87.6</ele>
        <time>2024-04-25T14:53:47+02:00</time>
      </trkpt>
      <trkpt lat="43.67394" lon="3.8913">
        <ele>86.8</ele>
        <time>2024-04-25T12:53:50.500Z</time>
      </trkpt>
      <trkpt lat="43.67396" lon="3.89136">
        <ele>86.2</ele>
        <time>2024-04-25T14:53:54+02:00</time>
      </trkpt>
      <trkpt lat="43.67389" lon="3.89135">
        <ele>87.4</ele>
        <time>2024-04-25T12:54:13.062Z</time>
      </trkpt>
      <trkpt lat="43.67381" lon="3.89134">
        <ele>89.5</ele>
        <time>2024-04-25T12:54:32.124Z</time>
      </trkpt>
      <trkpt lat="43.67374" lon="3.89133">
        <ele>91.5</ele>
        <time>2024-04-25T12:54:51.186Z</time>
      </trkpt>
      <trkpt lat="43.67367" lon="3.89132">
        <ele>93.5</ele>
        <time>2024-04-25T12:55:10.248Z</time>
      </trkpt>
      <trkpt lat="43.67359" lon="3.89131">
        <ele>95.7</ele>
        <time>2024-04-25T12:55:29.310Z</time>
      </trkpt>
      <trkpt lat="43.67352" lon="3.8913">
        <ele>98.1</ele>
        <time>2024-04-25T12:55:48.372Z</time>
      </trkpt>
      <trkpt lat="43.67344" lon="3.89129">
        <ele>100.6</ele>
        <time>2024-04-25T12:56:07.434Z</time>
      </trkpt>
      <trkpt lat="43.67337" lon="3.89128">
        <ele>103.2</ele>
        <time>2024-04-25T12:56:26.496Z</time>
      </trkpt>
      <trkpt lat="43.6733" lon="3.89126">
        <ele>105.3</ele>
        <time>2024-04-25T12:56:45.558Z</time>
      </trkpt>
      <trkpt lat="43.67322" lon="3.89125">
        <ele>106.9</ele>
        <time>2024-04-25T12:57:04.621Z</time>
      </trkpt>
      <trkpt lat="43.67315" lon="3.89124">
        <ele>108.5</ele>
        <time>2024-04-25T12:57:23.684Z</time>
      </trkpt>
      <trkpt lat="43.67308" lon="3.89123">
        <ele>110</ele>
        <time>2024-04-25T12:57:42.747Z</time>
      </trkpt>
      <trkpt lat="43.673" lon="3.89122">
        <ele>110.5</ele>
        <time>2024-04-25T12:58:01.810Z</time>
      </trkpt>
      <trkpt lat="43.67293" lon="3.89121">
        <ele>110.7</ele>
        <time>2024-04-25T12:58:20.873Z</time>
      </trkpt>
      <trkpt lat="43.67285" lon="3.8912">
        <ele>110.8</ele>
        <time>2024-04-25T12:58:39.936Z</time>
      </trkpt>
      <trkpt lat="43.67278" lon="3.89119">
        <ele>111</ele>
        <time>2024-04-25T14:58:59+02:00</time>
      </trkpt>
      <trkpt lat="43.67275" lon="3.89123">
        <ele>110.4</ele>
        <time>2024-04-25T12:59:00.874Z</time>
      </trkpt>
      <trkpt lat="43.67271" lon="3.89128">
        <ele>109.9</ele>
        <time>2024-04-25T12:59:02.749Z</time>
      </trkpt>
      <trkpt lat="43.67268" lon="3.89132">
        <ele>109.3</ele>
        <time>2024-04-25T12:59:04.624Z</time>
      </trkpt>
      <trkpt lat="43.67265" lon="3.89136">
        <ele>108.7</ele>
        <time>2024-04-25T12:59:06.499Z</time>
      </trkpt>
      <trkpt lat="43.67261" lon="3.8914">
        <ele>108.1</ele>
        <time>2024-04-25T12:59:08.374Z</time>
      </trkpt>
      <trkpt lat="43.67258" lon="3.89145">
        <ele>107.6</ele>
        <time>2024-04-25T12:59:10.249Z</time>
      </trkpt>
      <trkpt lat="43.67255" lon="3.89149">
        <ele>107.2</ele>
        <time>2024-04-25T12:59:12.124Z</time>
      </trkpt>
      <trkpt lat="43.67252" lon="3.89153">
        <ele>106.8</ele>
        <time>2024-04-25T12:59:13.999Z</time>
      </trkpt>
      <trkpt lat="43.67248" lon="3.89157">
        <ele>106.5</ele>
        <time>2024-04-25T12:59:15.874Z</time>
      </trkpt>
      <trkpt lat="43.67245" lon="3.89162">
        <ele>106.3</ele>
        <time>2024-04-25T12:59:17.749Z</time>
      </trkpt>
      <trkpt lat="43.67242" lon="3.89166">
        <ele>106.1</ele>
        <time>2024-04-25T12:59:19.624Z</time>
      </trkpt>
      <trkpt lat="43.67238" lon="3.8917">
        <ele>105.8</ele>
        <time>2024-04-25T12:59:21.499Z</time>
      </trkpt>
      <trkpt lat="43.67235" lon="3.89174">
        <ele>105.6</ele>
        <time>2024-04-25T12:59:23.374Z</time>
      </trkpt>
      <trkpt lat="43.67232" lon="3.89179">
        <ele>105.4</ele>
        <time>2024-04-25T12:59:25.249Z</time>
      </trkpt>
      <trkpt lat="43.67228" lon="3.89183">
        <ele>105.2</ele>
        <time>2024-04-25T12:59:27.124Z</time>
      </trkpt>
      <trkpt lat="43.67225" lon="3.89187">
        <ele>105</ele>
        <time>2024-04-25T14:59:29+02:00</time>
      </trkpt>
      <trkpt lat="43.6722" lon="3.89194">
        <ele>104.8</ele>
        <time>2024-04-25T12:59:30.249Z</time>
      </trkpt>
      <trkpt lat="43.67214" lon="3.89201">
        <ele>104.7</ele>
        <time>2024-04-25T12:59:31.499Z</time>
      </trkpt>
      <trkpt lat="43.67209" lon="3.89208">
        <ele>104.5</ele>
        <time>2024-04-25T12:59:32.749Z</time>
      </trkpt>
      <trkpt lat="43.67204" lon="3.89215">
        <ele>104.4</ele>
        <time>2024-04-25T12:59:33.999Z</time>
      </trkpt>
      <trkpt lat="43.67198" lon="3.89221">
        <ele>104.2</ele>
        <time>2024-04-25T12:59:35.249Z</time>
      </trkpt>
      <trkpt lat="43.67193" lon="3.89228">
        <ele>104.1</ele>
        <time>2024-04-25T12:59:36.499Z</time>
      </trkpt>
      <trkpt lat="43.67187" lon="3.89235">
        <ele>104</ele>
        <time>2024-04-25T12:59:37.749Z</time>
      </trkpt>
      <trkpt lat="43.67182" lon="3.89242">
        <ele>103.8</ele>
        <time>2024-04-25T14:59:39+02:00</time>
      </trkpt>
      <trkpt lat="43.67175" lon="3.89239">
        <ele>103.2</ele>
        <time>2024-04-25T12:59:42.999Z</time>
      </trkpt>
      <trkpt lat="43.67168" lon="3.89235">
        <ele>102.6</ele>
        <time>2024-04-25T14:59:47+02:00</time>
      </trkpt>
      <trkpt lat="43.6716" lon="3.89236">
        <ele>102.1</ele>
        <time>2024-04-25T12:59:52.749Z</time>
      </trkpt>
      <trkpt lat="43.67153" lon="3.89236">
        <ele>101.8</ele>
        <time>2024-04-25T12:59:58.499Z</time>
      </trkpt>
      <trkpt lat="43.67145" lon="3.89237">
        <ele>101.4</ele>
        <time>2024-04-25T13:00:04.249Z</time>
      </trkpt>
      <trkpt lat="43.67138" lon="3.89237">
        <ele>100.9</ele>
        <time>2024-04-25T13:00:09.999Z</time>
      </trkpt>
      <trkpt lat="43.6713" lon="3.89238">
        <ele>100.5</ele>
        <time>2024-04-25T13:00:15.749Z</time>
      </trkpt>
      <trkpt lat="43.67123" lon="3.89238">
        <ele>100.2</ele>
        <time>2024-04-25T13:00:21.499Z</time>
      </trkpt>
      <trkpt lat="43.67115" lon="3.89239">
        <ele>99.8</ele>
        <time>2024-04-25T13:00:27.249Z</time>
      </trkpt>
      <trkpt lat="43.67108" lon="3.8924">
        <ele>99.8</ele>
        <time>2024-04-25T13:00:32.999Z</time>
      </trkpt>
      <trkpt lat="43.671" lon="3.8924">
        <ele>100.2</ele>
        <time>2024-04-25T13:00:38.749Z</time>
      </trkpt>
      <trkpt lat="43.67092" lon="3.89241">
        <ele>100.6</ele>
        <time>2024-04-25T13:00:44.499Z</time>
      </trkpt>
      <trkpt lat="43.67085" lon="3.89241">
        <ele>101</ele>
        <time>2024-04-25T13:00:50.249Z</time>
      </trkpt>
      <trkpt lat="43.67077" lon="3.89242">
        <ele>101.7</ele>
        <time>2024-04-25T13:00:55.999Z</time>
      </trkpt>
      <trkpt lat="43.6707" lon="3.89242">
        <ele>102.4</ele>
        <time>2024-04-25T13:01:01.749Z</time>
      </trkpt>
      <trkpt lat="43.67062" lon="3.89243">
        <ele>103.2</ele>
        <time>2024-04-25T13:01:07.499Z</time>
      </trkpt>
      <trkpt lat="43.67055" lon="3.89243">
        <ele>103.7</ele>
        <time>2024-04-25T13:01:13.249Z</time>
      </trkpt>
      <trkpt lat="43.67047" lon="3.89244">
        <ele>103</ele>
        <time>2024-04-25T15:01:19+02:00</time>
      </trkpt>
      <trkpt lat="43.67046" lon="3.89233">
        <ele>102.8</ele>
        <time>2024-04-25T13:01:21.499Z</time>
      </trkpt>
      <trkpt lat="43.67045" lon="3.89222">
        <ele>102.6</ele>
        <time>2024-04-25T13:01:23.999Z</time>
      </trkpt>
      <trkpt lat="43.67043" lon="3.8921">
        <ele>102.9</ele>
        <time>2024-04-25T13:01:26.499Z</time>
      </trkpt>
      <trkpt lat="43.67042" lon="3.89199">
        <ele>103.3</ele>
        <time>2024-04-25T15:01:29+02:00</time>
      </trkpt>
      <trkpt lat="43.67043" lon="3.89191">
        <ele>103.5</ele>
        <time>2024-04-25T13:01:30.250Z</time>
      </trkpt>
      <trkpt lat="43.67043" lon="3.89184">
        <ele>103.6</ele>
        <time>2024-04-25T13:01:31.500Z</time>
      </trkpt>
      <trkpt lat="43.67044" lon="3.89176">
        <ele>103.7</ele>
        <time>2024-04-25T13:01:32.750Z</time>
      </trkpt>
      <trkpt lat="43.67045" lon="3.89168">
        <ele>103.8</ele>
        <time>2024-04-25T13:01:34.000Z</time>
      </trkpt>
      <trkpt lat="43.67045" lon="3.8916">
        <ele>103.8</ele>
        <time>2024-04-25T13:01:35.250Z</time>
      </trkpt>
      <trkpt lat="43.67046" lon="3.89153">
        <ele>103.9</ele>
        <time>2024-04-25T13:01:36.500Z</time>
      </trkpt>
      <trkpt lat="43.67046" lon="3.89145">
        <ele>103.9</ele>
        <time>2024-04-25T13:01:37.750Z</time>
      </trkpt>
      <trkpt lat="43.67047" lon="3.89137">
        <ele>103.9</ele>
        <time>2024-04-25T15:01:39+02:00</time>
      </trkpt>
      <trkpt lat="43.67045" lon="3.89128">
        <ele>103.9</ele>
        <time>2024-04-25T13:01:40.249Z</time>
      </trkpt>
      <trkpt lat="43.67043" lon="3.8912">
        <ele>104</ele>
        <time>2024-04-25T13:01:41.499Z</time>
      </trkpt>
      <trkpt lat="43.67041" lon="3.89111">
        <ele>104.2</ele>
        <time>2024-04-25T13:01:42.749Z</time>
      </trkpt>
      <trkpt lat="43.67039" lon="3.89103">
        <ele>104.2</ele>
        <time>2024-04-25T13:01:43.999Z</time>
      </trkpt>
      <trkpt lat="43.67036" lon="3.89094">
        <ele>104.4</ele>
        <time>2024-04-25T13:01:45.249Z</time>
      </trkpt>
      <trkpt lat="43.67034" lon="3.89085">
        <ele>104.6</ele>
        <time>2024-04-25T13:01:46.499Z</time>
      </trkpt>
      <trkpt lat="43.67032" lon="3.89077">
        <ele>105</ele>
        <time>2024-04-25T13:01:47.749Z</time>
      </trkpt>
      <trkpt lat="43.6703" lon="3.89068">
        <ele>105.4</ele>
        <time>2024-04-25T15:01:49+02:00</time>
      </trkpt>
      <trkpt lat="43.67029" lon="3.8906">
        <ele>105.7</ele>
        <time>2024-04-25T13:01:50.249Z</time>
      </trkpt>
      <trkpt lat="43.67028" lon="3.89052">
        <ele>105.9</ele>
        <time>2024-04-25T13:01:51.499Z</time>
      </trkpt>
      <trkpt lat="43.67027" lon="3.89044">
        <ele>106</ele>
        <time>2024-04-25T13:01:52.749Z</time>
      </trkpt>
      <trkpt lat="43.67026" lon="3.89037">
        <ele>106</ele>
        <time>2024-04-25T13:01:53.999Z</time>
      </trkpt>
      <trkpt lat="43.67025" lon="3.89029">
        <ele>106</ele>
        <time>2024-04-25T13:01:55.249Z</time>
      </trkpt>
      <trkpt lat="43.67024" lon="3.89021">
        <ele>106</ele>
        <time>2024-04-25T13:01:56.499Z</time>
      </trkpt>
      <trkpt lat="43.67023" lon="3.89013">
        <ele>106.1</ele>
        <time>2024-04-25T13:01:57.749Z</time>
      </trkpt>
      <trkpt lat="43.67022" lon="3.89005">
        <ele>106.2</ele>
        <time>2024-04-25T15:01:59+02:00</time>
      </trkpt>
      <trkpt lat="43.67021" lon="3.88996">
        <ele>106.4</ele>
        <time>2024-04-25T13:02:00.249Z</time>
      </trkpt>
      <trkpt lat="43.6702" lon="3.88988">
        <ele>106.7</ele>
        <time>2024-04-25T13:02:01.499Z</time>
      </trkpt>
      <trkpt lat="43.67019" lon="3.88979">
        <ele>107.1</ele>
        <time>2024-04-25T13:02:02.749Z</time>
      </trkpt>
      <trkpt lat="43.67018" lon="3.88971">
        <ele>107.4</ele>
        <time>2024-04-25T13:02:03.999Z</time>
      </trkpt>
      <trkpt lat="43.67017" lon="3.88962">
        <ele>107.9</ele>
        <time>2024-04-25T13:02:05.249Z</time>
      </trkpt>
      <trkpt lat="43.67016" lon="3.88953">
        <ele>108.4</ele>
        <time>2024-04-25T13:02:06.499Z</time>
      </trkpt>
      <trkpt lat="43.67015" lon="3.88945">
        <ele>108.9</ele>
        <time>2024-04-25T13:02:07.749Z</time>
      </trkpt>
      <trkpt lat="43.67014" lon="3.88936">
        <ele>109.1</ele>
        <time>2024-04-25T15:02:09+02:00</time>
      </trkpt>
      <trkpt lat="43.67013" lon="3.88929">
        <ele>109.3</ele>
        <time>2024-04-25T13:02:10.249Z</time>
      </trkpt>
      <trkpt lat="43.67013" lon="3.88922">
        <ele>109.5</ele>
        <time>2024-04-25T13:02:11.499Z</time>
      </trkpt>
      <trkpt lat="43.67012" lon="3.88914">
        <ele>109.7</ele>
        <time>2024-04-25T13:02:12.749Z</time>
      </trkpt>
      <trkpt lat="43.67012" lon="3.88907">
        <ele>109.8</ele>
        <time>2024-04-25T13:02:13.999Z</time>
      </trkpt>
      <trkpt lat="43.67011" lon="3.889">
        <ele>109.8</ele>
        <time>2024-04-25T13:02:15.249Z</time>
      </trkpt>
      <trkpt lat="43.6701" lon="3.88893">
        <ele>109.9</ele>
        <time>2024-04-25T13:02:16.499Z</time>
      </trkpt>
      <trkpt lat="43.6701" lon="3.88885">
        <ele>110.1</ele>
        <time>2024-04-25T13:02:17.749Z</time>
      </trkpt>
      <trkpt lat="43.67009" lon="3.88878">
        <ele>110.4</ele>
        <time>2024-04-25T15:02:19+02:00</time>
      </trkpt>
      <trkpt lat="43.67009" lon="3.88869">
        <ele>110.8</ele>
        <time>2024-04-25T13:02:20.249Z</time>
      </trkpt>
      <trkpt lat="43.67009" lon="3.88861">
        <ele>111.1</ele>
        <time>2024-04-25T13:02:21.499Z</time>
      </trkpt>
      <trkpt lat="43.67008" lon="3.88852">
        <ele>111.5</ele>
        <time>2024-04-25T13:02:22.749Z</time>
      </trkpt>
      <trkpt lat="43.67008" lon="3.88843">
        <ele>111.8</ele>
        <time>2024-04-25T13:02:23.999Z</time>
      </trkpt>
      <trkpt lat="43.67008" lon="3.88834">
        <ele>112.1</ele>
        <time>2024-04-25T13:02:25.249Z</time>
      </trkpt>
      <trkpt lat="43.67008" lon="3.88826">
        <ele>112.3</ele>
        <time>2024-04-25T13:02:26.499Z</time>
      </trkpt>
      <trkpt lat="43.67007" lon="3.88817">
        <ele>112.4</ele>
        <time>2024-04-25T13:02:27.749Z</time>
      </trkpt>
      <trkpt lat="43.67007" lon="3.88808">
        <ele>112.5</ele>
        <time>2024-04-25T15:02:29+02:00</time>
      </trkpt>
      <trkpt lat="43.67007" lon="3.888">
        <ele>112.6</ele>
        <time>2024-04-25T13:02:30.250Z</time>
      </trkpt>
      <trkpt lat="43.67008" lon="3.88791">
        <ele>112.8</ele>
        <time>2024-04-25T13:02:31.500Z</time>
      </trkpt>
      <trkpt lat="43.67008" lon="3.88783">
        <ele>113</ele>
        <time>2024-04-25T13:02:32.750Z</time>
      </trkpt>
      <trkpt lat="43.67009" lon="3.88775">
        <ele>113.2</ele>
        <time>2024-04-25T13:02:34.000Z</time>
      </trkpt>
      <trkpt lat="43.67009" lon="3.88766">
        <ele>113.5</ele>
        <time>2024-04-25T13:02:35.250Z</time>
      </trkpt>
      <trkpt lat="43.67009" lon="3.88758">
        <ele>113.7</ele>
        <time>2024-04-25T13:02:36.500Z</time>
      </trkpt>
      <trkpt lat="43.6701" lon="3.88749">
        <ele>114</ele>
        <time>2024-04-25T13:02:37.750Z</time>
      </trkpt>
      <trkpt lat="43.6701" lon="3.88741">
        <ele>113.8</ele>
        <time>2024-04-25T15:02:39+02:00</time>
      </trkpt>
      <trkpt lat="43.6701" lon="3.88734">
        <ele>113.7</ele>
        <time>2024-04-25T13:02:40.000Z</time>
      </trkpt>
      <trkpt lat="43.6701" lon="3.88727">
        <ele>113.6</ele>
        <time>2024-04-25T13:02:41.000Z</time>
      </trkpt>
      <trkpt lat="43.6701" lon="3.8872">
        <ele>113.4</ele>
        <time>2024-04-25T13:02:42.000Z</time>
      </trkpt>
      <trkpt lat="43.67011" lon="3.88713">
        <ele>113.1</ele>
        <time>2024-04-25T13:02:43.000Z</time>
      </trkpt>
      <trkpt lat="43.67011" lon="3.88705">
        <ele>112.9</ele>
        <time>2024-04-25T13:02:44.000Z</time>
      </trkpt>
      <trkpt lat="43.67011" lon="3.88698">
        <ele>112.6</ele>
        <time>2024-04-25T13:02:45.000Z</time>
      </trkpt>
      <trkpt lat="43.67011" lon="3.88691">
        <ele>112.1</ele>
        <time>2024-04-25T13:02:46.000Z</time>
      </trkpt>
      <trkpt lat="43.67011" lon="3.88684">
        <ele>111.4</ele>
        <time>2024-04-25T15:02:47+02:00</time>
      </trkpt>
      <trkpt lat="43.67011" lon="3.88677">
        <ele>110.8</ele>
        <time>2024-04-25T13:02:48.000Z</time>
      </trkpt>
      <trkpt lat="43.67011" lon="3.8867">
        <ele>110.1</ele>
        <time>2024-04-25T15:02:49+02:00</time>
      </trkpt>
      <trkpt lat="43.67012" lon="3.88662">
        <ele>109.4</ele>
        <time>2024-04-25T13:02:50.250Z</time>
      </trkpt>
      <trkpt lat="43.67013" lon="3.88653">
        <ele>108.7</ele>
        <time>2024-04-25T13:02:51.500Z</time>
      </trkpt>
      <trkpt lat="43.67013" lon="3.88645">
        <ele>108</ele>
        <time>2024-04-25T13:02:52.750Z</time>
      </trkpt>
      <trkpt lat="43.67014" lon="3.88637">
        <ele>107.4</ele>
        <time>2024-04-25T13:02:54.000Z</time>
      </trkpt>
      <trkpt lat="43.67015" lon="3.88628">
        <ele>106.8</ele>
        <time>2024-04-25T13:02:55.250Z</time>
      </trkpt>
      <trkpt lat="43.67016" lon="3.8862">
        <ele>106.3</ele>
        <time>2024-04-25T13:02:56.500Z</time>
      </trkpt>
      <trkpt lat="43.67016" lon="3.88611">
        <ele>105.8</ele>
        <time>2024-04-25T13:02:57.750Z</time>
      </trkpt>
      <trkpt lat="43.67017" lon="3.88603">
        <ele>105.2</ele>
        <time>2024-04-25T15:02:59+02:00</time>
      </trkpt>
      <trkpt lat="43.67019" lon="3.88594">
        <ele>104.4</ele>
        <time>2024-04-25T13:03:00.250Z</time>
      </trkpt>
      <trkpt lat="43.67021" lon="3.88584">
        <ele>103.5</ele>
        <time>2024-04-25T13:03:01.500Z</time>
      </trkpt>
      <trkpt lat="43.67023" lon="3.88575">
        <ele>102.7</ele>
        <time>2024-04-25T13:03:02.750Z</time>
      </trkpt>
      <trkpt lat="43.67026" lon="3.88565">
        <ele>101.8</ele>
        <time>2024-04-25T13:03:04.000Z</time>
      </trkpt>
      <trkpt lat="43.67028" lon="3.88556">
        <ele>101</ele>
        <time>2024-04-25T13:03:05.250Z</time>
      </trkpt>
      <trkpt lat="43.6703" lon="3.88546">
        <ele>100.5</ele>
        <time>2024-04-25T13:03:06.500Z</time>
      </trkpt>
      <trkpt lat="43.67032" lon="3.88537">
        <ele>100</ele>
        <time>2024-04-25T13:03:07.750Z</time>
      </trkpt>
      <trkpt lat="43.67034" lon="3.88527">
        <ele>99.5</ele>
        <time>2024-04-25T15:03:09+02:00</time>
      </trkpt>
      <trkpt lat="43.67041" lon="3.88521">
        <ele>98.7</ele>
        <time>2024-04-25T13:03:10.250Z</time>
      </trkpt>
      <trkpt lat="43.67048" lon="3.88515">
        <ele>98</ele>
        <time>2024-04-25T13:03:11.500Z</time>
      </trkpt>
      <trkpt lat="43.67054" lon="3.88509">
        <ele>97.4</ele>
        <time>2024-04-25T13:03:12.750Z</time>
      </trkpt>
      <trkpt lat="43.67061" lon="3.88503">
        <ele>97.1</ele>
        <time>2024-04-25T13:03:14.000Z</time>
      </trkpt>
      <trkpt lat="43.67068" lon="3.88497">
        <ele>97</ele>
        <time>2024-04-25T13:03:15.250Z</time>
      </trkpt>
      <trkpt lat="43.67075" lon="3.88491">
        <ele>97</ele>
        <time>2024-04-25T13:03:16.500Z</time>
      </trkpt>
      <trkpt lat="43.67081" lon="3.88485">
        <ele>97</ele>
        <time>2024-04-25T13:03:17.750Z</time>
      </trkpt>
      <trkpt lat="43.67088" lon="3.88479">
        <ele>97.1</ele>
        <time>2024-04-25T15:03:19+02:00</time>
      </trkpt>
      <trkpt lat="43.67091" lon="3.88474">
        <ele>97.3</ele>
        <time>2024-04-25T13:03:20.250Z</time>
      </trkpt>
      <trkpt lat="43.67094" lon="3.88468">
        <ele>97.5</ele>
        <time>2024-04-25T13:03:21.500Z</time>
      </trkpt>
      <trkpt lat="43.67097" lon="3.88463">
        <ele>97.9</ele>
        <time>2024-04-25T13:03:22.750Z</time>
      </trkpt>
      <trkpt lat="43.67101" lon="3.88457">
        <ele>98.3</ele>
        <time>2024-04-25T13:03:24.000Z</time>
      </trkpt>
      <trkpt lat="43.67104" lon="3.88452">
        <ele>98.8</ele>
        <time>2024-04-25T13:03:25.250Z</time>
      </trkpt>
      <trkpt lat="43.67107" lon="3.88446">
        <ele>99.4</ele>
        <time>2024-04-25T13:03:26.500Z</time>
      </trkpt>
      <trkpt lat="43.6711" lon="3.88441">
        <ele>100.1</ele>
        <time>2024-04-25T13:03:27.750Z</time>
      </trkpt>
      <trkpt lat="43.67113" lon="3.88435">
        <ele>100.8</ele>
        <time>2024-04-25T15:03:29+02:00</time>
      </trkpt>
      <trkpt lat="43.67113" lon="3.88426">
        <ele>101.5</ele>
        <time>2024-04-25T13:03:31.499Z</time>
      </trkpt>
      <trkpt lat="43.67112" lon="3.88416">
        <ele>102.1</ele>
        <time>2024-04-25T13:03:33.999Z</time>
      </trkpt>
      <trkpt lat="43.67112" lon="3.88407">
        <ele>102.4</ele>
        <time>2024-04-25T13:03:36.499Z</time>
      </trkpt>
      <trkpt lat="43.67111" lon="3.88397">
        <ele>102.7</ele>
        <time>2024-04-25T15:03:39+02:00</time>
      </trkpt>
      <trkpt lat="43.67115" lon="3.88391">
        <ele>103.3</ele>
        <time>2024-04-25T13:03:41.500Z</time>
      </trkpt>
      <trkpt lat="43.67118" lon="3.88384">
        <ele>104.1</ele>
        <time>2024-04-25T13:03:44.000Z</time>
      </trkpt>
      <trkpt lat="43.67122" lon="3.88378">
        <ele>105.1</ele>
        <time>2024-04-25T13:03:46.500Z</time>
      </trkpt>
      <trkpt lat="43.67125" lon="3.88371">
        <ele>106.1</ele>
        <time>2024-04-25T15:03:49+02:00</time>
      </trkpt>
      <trkpt lat="43.67134" lon="3.88372">
        <ele>107.1</ele>
        <time>2024-04-25T13:03:54.000Z</time>
      </trkpt>
      <trkpt lat="43.67142" lon="3.88373">
        <ele>107.9</ele>
        <time>2024-04-25T15:03:59+02:00</time>
      </trkpt>
      <trkpt lat="43.67147" lon="3.88374">
        <ele>108.1</ele>
        <time>2024-04-25T15:04:09+02:00</time>
      </trkpt>
      <trkpt lat="43.67153" lon="3.88374">
        <ele>108.4</ele>
        <time>2024-04-25T13:04:15.437Z</time>
      </trkpt>
      <trkpt lat="43.67158" lon="3.88374">
        <ele>108.7</ele>
        <time>2024-04-25T13:04:21.874Z</time>
      </trkpt>
      <trkpt lat="43.67164" lon="3.88374">
        <ele>109</ele>
        <time>2024-04-25T13:04:28.311Z</time>
      </trkpt>
      <trkpt lat="43.67169" lon="3.88374">
        <ele>109.1</ele>
        <time>2024-04-25T13:04:34.748Z</time>
      </trkpt>
      <trkpt lat="43.67175" lon="3.88374">
        <ele>109.1</ele>
        <time>2024-04-25T13:04:41.185Z</time>
      </trkpt>
      <trkpt lat="43.6718" lon="3.88374">
        <ele>109.1</ele>
        <time>2024-04-25T13:04:47.622Z</time>
      </trkpt>
      <trkpt lat="43.67186" lon="3.88374">
        <ele>109.1</ele>
        <time>2024-04-25T13:04:54.059Z</time>
      </trkpt>
      <trkpt lat="43.67191" lon="3.88374">
        <ele>109.1</ele>
        <time>2024-04-25T13:05:00.496Z</time>
      </trkpt>
      <trkpt lat="43.67197" lon="3.88374">
        <ele>109.1</ele>
        <time>2024-04-25T13:05:06.934Z</time>
      </trkpt>
      <trkpt lat="43.67202" lon="3.88374">
        <ele>108.9</ele>
        <time>2024-04-25T13:05:13.372Z</time>
      </trkpt>
      <trkpt lat="43.67208" lon="3.88374">
        <ele>108.7</ele>
        <time>2024-04-25T13:05:19.810Z</time>
      </trkpt>
      <trkpt lat="43.67213" lon="3.88374">
        <ele>108.5</ele>
        <time>2024-04-25T13:05:26.248Z</time>
      </trkpt>
      <trkpt lat="43.67219" lon="3.88374">
        <ele>108.3</ele>
        <time>2024-04-25T13:05:32.686Z</time>
      </trkpt>
      <trkpt lat="43.67224" lon="3.88374">
        <ele>108.1</ele>
        <time>2024-04-25T13:05:39.124Z</time>
      </trkpt>
      <trkpt lat="43.6723" lon="3.88374">
        <ele>108.1</ele>
        <time>2024-04-25T13:05:45.562Z</time>
      </trkpt>
      <trkpt lat="43.67235" lon="3.88374">
        <ele>108.1</ele>
        <time>2024-04-25T15:05:52+02:00</time>
      </trkpt>
      <trkpt lat="43.6724" lon="3.88371">
        <ele>108.6</ele>
        <time>2024-04-25T13:05:57.000Z</time>
      </trkpt>
      <trkpt lat="43.67245" lon="3.88367">
        <ele>109.1</ele>
        <time>2024-04-25T13:06:02.000Z</time>
      </trkpt>
      <trkpt lat="43.6725" lon="3.88364">
        <ele>109.6</ele>
        <time>2024-04-25T13:06:07.000Z</time>
      </trkpt>
      <trkpt lat="43.67255" lon="3.8836">
        <ele>109.9</ele>
        <time>2024-04-25T13:06:12.000Z</time>
      </trkpt>
      <trkpt lat="43.6726" lon="3.88357">
        <ele>110.1</ele>
        <time>2024-04-25T13:06:17.000Z</time>
      </trkpt>
      <trkpt lat="43.67265" lon="3.88353">
        <ele>110.3</ele>
        <time>2024-04-25T13:06:22.000Z</time>
      </trkpt>
      <trkpt lat="43.6727" lon="3.8835">
        <ele>110.5</ele>
        <time>2024-04-25T13:06:27.000Z</time>
      </trkpt>
      <trkpt lat="43.67275" lon="3.88347">
        <ele>110.7</ele>
        <time>2024-04-25T13:06:32.000Z</time>
      </trkpt>
      <trkpt lat="43.67279" lon="3.88343">
        <ele>110.9</ele>
        <time>2024-04-25T13:06:37.000Z</time>
      </trkpt>
      <trkpt lat="43.67284" lon="3.8834">
        <ele>111.3</ele>
        <time>2024-04-25T13:06:42.000Z</time>
      </trkpt>
      <trkpt lat="43.67289" lon="3.88336">
        <ele>111.7</ele>
        <time>2024-04-25T13:06:47.000Z</time>
      </trkpt>
      <trkpt lat="43.67294" lon="3.88333">
        <ele>112.1</ele>
        <time>2024-04-25T13:06:52.000Z</time>
      </trkpt>
      <trkpt lat="43.67299" lon="3.88329">
        <ele>112.4</ele>
        <time>2024-04-25T13:06:57.000Z</time>
      </trkpt>
      <trkpt lat="43.67304" lon="3.88326">
        <ele>112.8</ele>
        <time>2024-04-25T13:07:02.000Z</time>
      </trkpt>
      <trkpt lat="43.67309" lon="3.88322">
        <ele>113.3</ele>
        <time>2024-04-25T13:07:07.000Z</time>
      </trkpt>
      <trkpt lat="43.67314" lon="3.88319">
        <ele>113.7</ele>
        <time>2024-04-25T15:07:12+02:00</time>
      </trkpt>
      <trkpt lat="43.67308" lon="3.88311">
        <ele>114.4</ele>
        <time>2024-04-25T13:07:16.999Z</time>
      </trkpt>
      <trkpt lat="43.67301" lon="3.88303">
        <ele>115.3</ele>
        <time>2024-04-25T13:07:21.999Z</time>
      </trkpt>
      <trkpt lat="43.67295" lon="3.88295">
        <ele>116.1</ele>
        <time>2024-04-25T13:07:26.999Z</time>
      </trkpt>
      <trkpt lat="43.67288" lon="3.88287">
        <ele>117</ele>
        <time>2024-04-25T15:07:32+02:00</time>
      </trkpt>
      <trkpt lat="43.67285" lon="3.88292">
        <ele>116.5</ele>
        <time>2024-04-25T13:07:33.249Z</time>
      </trkpt>
      <trkpt lat="43.67282" lon="3.88296">
        <ele>116</ele>
        <time>2024-04-25T13:07:34.499Z</time>
      </trkpt>
      <trkpt lat="43.67278" lon="3.88301">
        <ele>115.5</ele>
        <time>2024-04-25T13:07:35.749Z</time>
      </trkpt>
      <trkpt lat="43.67275" lon="3.88306">
        <ele>115.1</ele>
        <time>2024-04-25T13:07:36.999Z</time>
      </trkpt>
      <trkpt lat="43.67272" lon="3.8831">
        <ele>114.7</ele>
        <time>2024-04-25T13:07:38.249Z</time>
      </trkpt>
      <trkpt lat="43.67269" lon="3.88315">
        <ele>114.3</ele>
        <time>2024-04-25T13:07:39.499Z</time>
      </trkpt>
      <trkpt lat="43.67265" lon="3.88319">
        <ele>114</ele>
        <time>2024-04-25T13:07:40.749Z</time>
      </trkpt>
      <trkpt lat="43.67262" lon="3.88324">
        <ele>113.6</ele>
        <time>2024-04-25T15:07:42+02:00</time>
      </trkpt>
      <trkpt lat="43.67254" lon="3.88327">
        <ele>113.6</ele>
        <time>2024-04-25T13:07:46.999Z</time>
      </trkpt>
      <trkpt lat="43.67245" lon="3.88329">
        <ele>113.6</ele>
        <time>2024-04-25T15:07:52+02:00</time>
      </trkpt>
      <trkpt lat="43.67239" lon="3.88326">
        <ele>114.2</ele>
        <time>2024-04-25T13:07:54.499Z</time>
      </trkpt>
      <trkpt lat="43.67232" lon="3.88323">
        <ele>114.8</ele>
        <time>2024-04-25T13:07:56.999Z</time>
      </trkpt>
      <trkpt lat="43.67226" lon="3.88319">
        <ele>115.4</ele>
        <time>2024-04-25T13:07:59.499Z</time>
      </trkpt>
      <trkpt lat="43.67219" lon="3.88316">
        <ele>116</ele>
        <time>2024-04-25T15:08:02+02:00</time>
      </trkpt>
      <trkpt lat="43.67214" lon="3.88311">
        <ele>116.7</ele>
        <time>2024-04-25T13:08:04.499Z</time>
      </trkpt>
      <trkpt lat="43.67208" lon="3.88306">
        <ele>117.5</ele>
        <time>2024-04-25T13:08:06.999Z</time>
      </trkpt>
      <trkpt lat="43.67203" lon="3.883">
        <ele>118.2</ele>
        <time>2024-04-25T13:08:09.499Z</time>
      </trkpt>
      <trkpt lat="43.67197" lon="3.88295">
        <ele>118.7</ele>
        <time>2024-04-25T15:08:12+02:00</time>
      </trkpt>
      <trkpt lat="43.67189" lon="3.8829">
        <ele>119</ele>
        <time>2024-04-25T13:08:14.499Z</time>
      </trkpt>
      <trkpt lat="43.67182" lon="3.88286">
        <ele>119.1</ele>
        <time>2024-04-25T13:08:16.999Z</time>
      </trkpt>
      <trkpt lat="43.67174" lon="3.88281">
        <ele>119.1</ele>
        <time>2024-04-25T13:08:19.499Z</time>
      </trkpt>
      <trkpt lat="43.67166" lon="3.88276">
        <ele>119</ele>
        <time>2024-04-25T15:08:22+02:00</time>
      </trkpt>
      <trkpt lat="43.67158" lon="3.88277">
        <ele>118.3</ele>
        <time>2024-04-25T13:08:24.500Z</time>
      </trkpt>
      <trkpt lat="43.67149" lon="3.88278">
        <ele>117.7</ele>
        <time>2024-04-25T13:08:27.000Z</time>
      </trkpt>
      <trkpt lat="43.67141" lon="3.88279">
        <ele>117.1</ele>
        <time>2024-04-25T13:08:29.500Z</time>
      </trkpt>
      <trkpt lat="43.67132" lon="3.8828">
        <ele>116.2</ele>
        <time>2024-04-25T15:08:32+02:00</time>
      </trkpt>
      <trkpt lat="43.67127" lon="3.88275">
        <ele>115.8</ele>
        <time>2024-04-25T13:08:33.249Z</time>
      </trkpt>
      <trkpt lat="43.67122" lon="3.8827">
        <ele>115.4</ele>
        <time>2024-04-25T13:08:34.499Z</time>
      </trkpt>
      <trkpt lat="43.67117" lon="3.88264">
        <ele>115</ele>
        <time>2024-04-25T13:08:35.749Z</time>
      </trkpt>
      <trkpt lat="43.67112" lon="3.88259">
        <ele>114.8</ele>
        <time>2024-04-25T13:08:36.999Z</time>
      </trkpt>
      <trkpt lat="43.67107" lon="3.88254">
        <ele>114.4</ele>
        <time>2024-04-25T13:08:38.249Z</time>
      </trkpt>
      <trkpt lat="43.67102" lon="3.88249">
        <ele>114</ele>
        <time>2024-04-25T13:08:39.499Z</time>
      </trkpt>
      <trkpt lat="43.67097" lon="3.88243">
        <ele>113.4</ele>
        <time>2024-04-25T13:08:40.749Z</time>
      </trkpt>
      <trkpt lat="43.67092" lon="3.88238">
        <ele>112.8</ele>
        <time>2024-04-25T15:08:42+02:00</time>
      </trkpt>
      <trkpt lat="43.67086" lon="3.88233">
        <ele>112.2</ele>
        <time>2024-04-25T13:08:43.249Z</time>
      </trkpt>
      <trkpt lat="43.67081" lon="3.88228">
        <ele>111.9</ele>
        <time>2024-04-25T13:08:44.499Z</time>
      </trkpt>
      <trkpt lat="43.67075" lon="3.88222">
        <ele>111.7</ele>
        <time>2024-04-25T13:08:45.749Z</time>
      </trkpt>
      <trkpt lat="43.67069" lon="3.88217">
        <ele>111.4</ele>
        <time>2024-04-25T15:08:47+02:00</time>
      </trkpt>
      <trkpt lat="43.67065" lon="3.88208">
        <ele>111.2</ele>
        <time>2024-04-25T13:08:49.499Z</time>
      </trkpt>
      <trkpt lat="43.67061" lon="3.88199">
        <ele>111</ele>
        <time>2024-04-25T15:08:52+02:00</time>
      </trkpt>
      <trkpt lat="43.67066" lon="3.88191">
        <ele>110.7</ele>
        <time>2024-04-25T13:08:53.750Z</time>
      </trkpt>
      <trkpt lat="43.67071" lon="3.88184">
        <ele>110</ele>
        <time>2024-04-25T13:08:55.500Z</time>
      </trkpt>
      <trkpt lat="43.67075" lon="3.88176">
        <ele>109.2</ele>
        <time>2024-04-25T13:08:57.250Z</time>
      </trkpt>
      <trkpt lat="43.6708" lon="3.88168">
        <ele>108.3</ele>
        <time>2024-04-25T15:08:59+02:00</time>
      </trkpt>
      <trkpt lat="43.67083" lon="3.88163">
        <ele>107.7</ele>
        <time>2024-04-25T13:08:59.812Z</time>
      </trkpt>
      <trkpt lat="43.67086" lon="3.88158">
        <ele>107.4</ele>
        <time>2024-04-25T13:09:00.624Z</time>
      </trkpt>
      <trkpt lat="43.67089" lon="3.88153">
        <ele>107</ele>
        <time>2024-04-25T13:09:01.436Z</time>
      </trkpt>
      <trkpt lat="43.67092" lon="3.88148">
        <ele>106.6</ele>
        <time>2024-04-25T13:09:02.248Z</time>
      </trkpt>
      <trkpt lat="43.67095" lon="3.88143">
        <ele>106.3</ele>
        <time>2024-04-25T13:09:03.060Z</time>
      </trkpt>
      <trkpt lat="43.67098" lon="3.88138">
        <ele>105.9</ele>
        <time>2024-04-25T13:09:03.872Z</time>
      </trkpt>
      <trkpt lat="43.67101" lon="3.88133">
        <ele>105.5</ele>
        <time>2024-04-25T13:09:04.684Z</time>
      </trkpt>
      <trkpt lat="43.67105" lon="3.88128">
        <ele>105.1</ele>
        <time>2024-04-25T13:09:05.496Z</time>
      </trkpt>
      <trkpt lat="43.67108" lon="3.88122">
        <ele>104.7</ele>
        <time>2024-04-25T13:09:06.309Z</time>
      </trkpt>
      <trkpt lat="43.67111" lon="3.88117">
        <ele>104.4</ele>
        <time>2024-04-25T13:09:07.122Z</time>
      </trkpt>
      <trkpt lat="43.67114" lon="3.88112">
        <ele>104.4</ele>
        <time>2024-04-25T13:09:07.935Z</time>
      </trkpt>
      <trkpt lat="43.67117" lon="3.88107">
        <ele>104.6</ele>
        <time>2024-04-25T13:09:08.748Z</time>
      </trkpt>
      <trkpt lat="43.6712" lon="3.88102">
        <ele>104.8</ele>
        <time>2024-04-25T13:09:09.561Z</time>
      </trkpt>
      <trkpt lat="43.67123" lon="3.88097">
        <ele>105.1</ele>
        <time>2024-04-25T13:09:10.374Z</time>
      </trkpt>
      <trkpt lat="43.67126" lon="3.88092">
        <ele>105.2</ele>
        <time>2024-04-25T13:09:11.187Z</time>
      </trkpt>
      <trkpt lat="43.67129" lon="3.88087">
        <ele>105.4</ele>
        <time>2024-04-25T15:09:12+02:00</time>
      </trkpt>
      <trkpt lat="43.67133" lon="3.88077">
        <ele>105.6</ele>
        <time>2024-04-25T13:09:13.250Z</time>
      </trkpt>
      <trkpt lat="43.67137" lon="3.88068">
        <ele>105.9</ele>
        <time>2024-04-25T13:09:14.500Z</time>
      </trkpt>
      <trkpt lat="43.67141" lon="3.88058">
        <ele>106.4</ele>
        <time>2024-04-25T13:09:15.750Z</time>
      </trkpt>
      <trkpt lat="43.67146" lon="3.88049">
        <ele>107.2</ele>
        <time>2024-04-25T13:09:17.000Z</time>
      </trkpt>
      <trkpt lat="43.6715" lon="3.88039">
        <ele>108.1</ele>
        <time>2024-04-25T13:09:18.250Z</time>
      </trkpt>
      <trkpt lat="43.67154" lon="3.88029">
        <ele>109.1</ele>
        <time>2024-04-25T13:09:19.500Z</time>
      </trkpt>
      <trkpt lat="43.67158" lon="3.8802">
        <ele>110</ele>
        <time>2024-04-25T13:09:20.750Z</time>
      </trkpt>
      <trkpt lat="43.67162" lon="3.8801">
        <ele>111</ele>
        <time>2024-04-25T15:09:22+02:00</time>
      </trkpt>
      <trkpt lat="43.67162" lon="3.87999">
        <ele>111.4</ele>
        <time>2024-04-25T13:09:24.500Z</time>
      </trkpt>
      <trkpt lat="43.67163" lon="3.87988">
        <ele>111.8</ele>
        <time>2024-04-25T13:09:27.000Z</time>
      </trkpt>
      <trkpt lat="43.67163" lon="3.87976">
        <ele>112.3</ele>
        <time>2024-04-25T13:09:29.500Z</time>
      </trkpt>
      <trkpt lat="43.67163" lon="3.87965">
        <ele>112.3</ele>
        <time>2024-04-25T15:09:32+02:00</time>
      </trkpt>
      <trkpt lat="43.67165" lon="3.87959">
        <ele>112.4</ele>
        <time>2024-04-25T13:09:37.000Z</time>
      </trkpt>
      <trkpt lat="43.67167" lon="3.87953">
        <ele>112.3</ele>
        <time>2024-04-25T15:09:42+02:00</time>
      </trkpt>
      <trkpt lat="43.67164" lon="3.87942">
        <ele>111.7</ele>
        <time>2024-04-25T13:09:47.937Z</time>
      </trkpt>
      <trkpt lat="43.67162" lon="3.87931">
        <ele>110.6</ele>
        <time>2024-04-25T13:09:53.874Z</time>
      </trkpt>
      <trkpt lat="43.67159" lon="3.87921">
        <ele>109.6</ele>
        <time>2024-04-25T13:09:59.811Z</time>
      </trkpt>
      <trkpt lat="43.67156" lon="3.8791">
        <ele>109</ele>
        <time>2024-04-25T13:10:05.748Z</time>
      </trkpt>
      <trkpt lat="43.67154" lon="3.87899">
        <ele>108.5</ele>
        <time>2024-04-25T13:10:11.685Z</time>
      </trkpt>
      <trkpt lat="43.67151" lon="3.87888">
        <ele>108.1</ele>
        <time>2024-04-25T13:10:17.622Z</time>
      </trkpt>
      <trkpt lat="43.67148" lon="3.87877">
        <ele>108</ele>
        <time>2024-04-25T13:10:23.559Z</time>
      </trkpt>
      <trkpt lat="43.67146" lon="3.87867">
        <ele>108.1</ele>
        <time>2024-04-25T13:10:29.496Z</time>
      </trkpt>
      <trkpt lat="43.67143" lon="3.87856">
        <ele>108.4</ele>
        <time>2024-04-25T13:10:35.433Z</time>
      </trkpt>
      <trkpt lat="43.6714" lon="3.87845">
        <ele>108.8</ele>
        <time>2024-04-25T13:10:41.371Z</time>
      </trkpt>
      <trkpt lat="43.67137" lon="3.87834">
        <ele>109.1</ele>
        <time>2024-04-25T13:10:47.309Z</time>
      </trkpt>
      <trkpt lat="43.67135" lon="3.87823">
        <ele>109.2</ele>
        <time>2024-04-25T13:10:53.247Z</time>
      </trkpt>
      <trkpt lat="43.67132" lon="3.87812">
        <ele>109.2</ele>
        <time>2024-04-25T13:10:59.185Z</time>
      </trkpt>
      <trkpt lat="43.67129" lon="3.87802">
        <ele>109.4</ele>
        <time>2024-04-25T13:11:05.123Z</time>
      </trkpt>
      <trkpt lat="43.67127" lon="3.87791">
        <ele>109.7</ele>
        <time>2024-04-25T13:11:11.061Z</time>
      </trkpt>
      <trkpt lat="43.67124" lon="3.8778">
        <ele>110</ele>
        <time>2024-04-25T15:11:17+02:00</time>
      </trkpt>
      <trkpt lat="43.67123" lon="3.87774">
        <ele>110</ele>
        <time>2024-04-25T13:11:18.249Z</time>
      </trkpt>
      <trkpt lat="43.67122" lon="3.87767">
        <ele>110</ele>
        <time>2024-04-25T13:11:19.499Z</time>
      </trkpt>
      <trkpt lat="43.67122" lon="3.87761">
        <ele>110</ele>
        <time>2024-04-25T13:11:20.749Z</time>
      </trkpt>
      <trkpt lat="43.67121" lon="3.87755">
        <ele>110</ele>
        <time>2024-04-25T13:11:21.999Z</time>
      </trkpt>
      <trkpt lat="43.6712" lon="3.87748">
        <ele>110.1</ele>
        <time>2024-04-25T13:11:23.249Z</time>
      </trkpt>
      <trkpt lat="43.67119" lon="3.87742">
        <ele>110.3</ele>
        <time>2024-04-25T13:11:24.499Z</time>
      </trkpt>
      <trkpt lat="43.67118" lon="3.87736">
        <ele>110.5</ele>
        <time>2024-04-25T13:11:25.749Z</time>
      </trkpt>
      <trkpt lat="43.67118" lon="3.8773">
        <ele>110.7</ele>
        <time>2024-04-25T13:11:26.999Z</time>
      </trkpt>
      <trkpt lat="43.67117" lon="3.87723">
        <ele>111</ele>
        <time>2024-04-25T13:11:28.249Z</time>
      </trkpt>
      <trkpt lat="43.67116" lon="3.87717">
        <ele>111</ele>
        <time>2024-04-25T13:11:29.499Z</time>
      </trkpt>
      <trkpt lat="43.67115" lon="3.87711">
        <ele>111</ele>
        <time>2024-04-25T13:11:30.749Z</time>
      </trkpt>
      <trkpt lat="43.67114" lon="3.87704">
        <ele>111</ele>
        <time>2024-04-25T13:11:31.999Z</time>
      </trkpt>
      <trkpt lat="43.67113" lon="3.87698">
        <ele>111</ele>
        <time>2024-04-25T13:11:33.249Z</time>
      </trkpt>
      <trkpt lat="43.67113" lon="3.87692">
        <ele>111</ele>
        <time>2024-04-25T13:11:34.499Z</time>
      </trkpt>
      <trkpt lat="43.67112" lon="3.87685">
        <ele>111</ele>
        <time>2024-04-25T13:11:35.749Z</time>
      </trkpt>
      <trkpt lat="43.67111" lon="3.87679">
        <ele>111</ele>
        <time>2024-04-25T15:11:37+02:00</time>
      </trkpt>
      <trkpt lat="43.6711" lon="3.87667">
        <ele>110.9</ele>
        <time>2024-04-25T13:11:38.249Z</time>
      </trkpt>
      <trkpt lat="43.67108" lon="3.87655">
        <ele>110.9</ele>
        <time>2024-04-25T13:11:39.499Z</time>
      </trkpt>
      <trkpt lat="43.67107" lon="3.87643">
        <ele>111</ele>
        <time>2024-04-25T13:11:40.749Z</time>
      </trkpt>
      <trkpt lat="43.67105" lon="3.87631">
        <ele>111</ele>
        <time>2024-04-25T13:11:41.999Z</time>
      </trkpt>
      <trkpt lat="43.67104" lon="3.87618">
        <ele>111</ele>
        <time>2024-04-25T13:11:43.249Z</time>
      </trkpt>
      <trkpt lat="43.67102" lon="3.87606">
        <ele>110.9</ele>
        <time>2024-04-25T13:11:44.499Z</time>
      </trkpt>
      <trkpt lat="43.67101" lon="3.87594">
        <ele>110.6</ele>
        <time>2024-04-25T13:11:45.749Z</time>
      </trkpt>
      <trkpt lat="43.67099" lon="3.87582">
        <ele>110.4</ele>
        <time>2024-04-25T15:11:47+02:00</time>
      </trkpt>
      <trkpt lat="43.67098" lon="3.8757">
        <ele>110.5</ele>
        <time>2024-04-25T13:11:48.249Z</time>
      </trkpt>
      <trkpt lat="43.67098" lon="3.87558">
        <ele>110.5</ele>
        <time>2024-04-25T13:11:49.499Z</time>
      </trkpt>
      <trkpt lat="43.67097" lon="3.87546">
        <ele>110.5</ele>
        <time>2024-04-25T13:11:50.749Z</time>
      </trkpt>
      <trkpt lat="43.67097" lon="3.87535">
        <ele>110.5</ele>
        <time>2024-04-25T13:11:51.999Z</time>
      </trkpt>
      <trkpt lat="43.67096" lon="3.87523">
        <ele>110.7</ele>
        <time>2024-04-25T13:11:53.249Z</time>
      </trkpt>
      <trkpt lat="43.67095" lon="3.87511">
        <ele>111.2</ele>
        <time>2024-04-25T13:11:54.499Z</time>
      </trkpt>
      <trkpt lat="43.67095" lon="3.87499">
        <ele>111.6</ele>
        <time>2024-04-25T13:11:55.749Z</time>
      </trkpt>
      <trkpt lat="43.67094" lon="3.87487">
        <ele>111.8</ele>
        <time>2024-04-25T15:11:57+02:00</time>
      </trkpt>
      <trkpt lat="43.67097" lon="3.87477">
        <ele>111.9</ele>
        <time>2024-04-25T13:11:58.500Z</time>
      </trkpt>
      <trkpt lat="43.671" lon="3.87466">
        <ele>112.2</ele>
        <time>2024-04-25T13:12:00.000Z</time>
      </trkpt>
      <trkpt lat="43.67103" lon="3.87456">
        <ele>112.6</ele>
        <time>2024-04-25T13:12:01.500Z</time>
      </trkpt>
      <trkpt lat="43.67106" lon="3.87445">
        <ele>113</ele>
        <time>2024-04-25T15:12:03+02:00</time>
      </trkpt>
      <trkpt lat="43.67113" lon="3.87441">
        <ele>113</ele>
        <time>2024-04-25T13:12:04.500Z</time>
      </trkpt>
      <trkpt lat="43.6712" lon="3.87437">
        <ele>112.7</ele>
        <time>2024-04-25T13:12:06.000Z</time>
      </trkpt>
      <trkpt lat="43.67126" lon="3.87433">
        <ele>112.5</ele>
        <time>2024-04-25T13:12:07.500Z</time>
      </trkpt>
      <trkpt lat="43.67133" lon="3.8743">
        <ele>112.4</ele>
        <time>2024-04-25T13:12:09.000Z</time>
      </trkpt>
      <trkpt lat="43.6714" lon="3.87426">
        <ele>112.3</ele>
        <time>2024-04-25T13:12:10.500Z</time>
      </trkpt>
      <trkpt lat="43.67147" lon="3.87422">
        <ele>111.9</ele>
        <time>2024-04-25T13:12:12.000Z</time>
      </trkpt>
      <trkpt lat="43.67153" lon="3.87418">
        <ele>111.4</ele>
        <time>2024-04-25T13:12:13.500Z</time>
      </trkpt>
      <trkpt lat="43.6716" lon="3.87414">
        <ele>110.6</ele>
        <time>2024-04-25T15:12:15+02:00</time>
      </trkpt>
      <trkpt lat="43.67163" lon="3.87408">
        <ele>110.1</ele>
        <time>2024-04-25T13:12:16.500Z</time>
      </trkpt>
      <trkpt lat="43.67167" lon="3.87402">
        <ele>109.5</ele>
        <time>2024-04-25T13:12:18.000Z</time>
      </trkpt>
      <trkpt lat="43.6717" lon="3.87396">
        <ele>108.7</ele>
        <time>2024-04-25T13:12:19.500Z</time>
      </trkpt>
      <trkpt lat="43.67174" lon="3.87391">
        <ele>107.8</ele>
        <time>2024-04-25T13:12:21.000Z</time>
      </trkpt>
      <trkpt lat="43.67177" lon="3.87385">
        <ele>106.8</ele>
        <time>2024-04-25T13:12:22.500Z</time>
      </trkpt>
      <trkpt lat="43.6718" lon="3.87379">
        <ele>105.7</ele>
        <time>2024-04-25T13:12:24.000Z</time>
      </trkpt>
      <trkpt lat="43.67184" lon="3.87373">
        <ele>104.4</ele>
        <time>2024-04-25T13:12:25.500Z</time>
      </trkpt>
      <trkpt lat="43.67187" lon="3.87367">
        <ele>103.2</ele>
        <time>2024-04-25T15:12:27+02:00</time>
      </trkpt>
      <trkpt lat="43.67183" lon="3.87361">
        <ele>103.4</ele>
        <time>2024-04-25T13:12:28.249Z</time>
      </trkpt>
      <trkpt lat="43.6718" lon="3.87356">
        <ele>103.7</ele>
        <time>2024-04-25T13:12:29.499Z</time>
      </trkpt>
      <trkpt lat="43.67176" lon="3.8735">
        <ele>104</ele>
        <time>2024-04-25T13:12:30.749Z</time>
      </trkpt>
      <trkpt lat="43.67172" lon="3.87344">
        <ele>104.1</ele>
        <time>2024-04-25T13:12:31.999Z</time>
      </trkpt>
      <trkpt lat="43.67168" lon="3.87338">
        <ele>104.2</ele>
        <time>2024-04-25T13:12:33.249Z</time>
      </trkpt>
      <trkpt lat="43.67165" lon="3.87333">
        <ele>104.4</ele>
        <time>2024-04-25T13:12:34.499Z</time>
      </trkpt>
      <trkpt lat="43.67161" lon="3.87327">
        <ele>104.8</ele>
        <time>2024-04-25T13:12:35.749Z</time>
      </trkpt>
      <trkpt lat="43.67157" lon="3.87321">
        <ele>105.2</ele>
        <time>2024-04-25T15:12:37+02:00</time>
      </trkpt>
      <trkpt lat="43.67154" lon="3.87315">
        <ele>105.4</ele>
        <time>2024-04-25T15:12:47+02:00</time>
      </trkpt>
      <trkpt lat="43.67151" lon="3.8731">
        <ele>105.8</ele>
        <time>2024-04-25T13:12:51.093Z</time>
      </trkpt>
      <trkpt lat="43.67148" lon="3.87306">
        <ele>106.1</ele>
        <time>2024-04-25T13:12:55.186Z</time>
      </trkpt>
      <trkpt lat="43.67145" lon="3.87301">
        <ele>106.8</ele>
        <time>2024-04-25T13:12:59.279Z</time>
      </trkpt>
      <trkpt lat="43.67142" lon="3.87297">
        <ele>107.4</ele>
        <time>2024-04-25T13:13:03.372Z</time>
      </trkpt>
      <trkpt lat="43.67139" lon="3.87292">
        <ele>108</ele>
        <time>2024-04-25T13:13:07.465Z</time>
      </trkpt>
      <trkpt lat="43.67136" lon="3.87287">
        <ele>108.4</ele>
        <time>2024-04-25T13:13:11.558Z</time>
      </trkpt>
      <trkpt lat="43.67133" lon="3.87283">
        <ele>108.7</ele>
        <time>2024-04-25T13:13:15.651Z</time>
      </trkpt>
      <trkpt lat="43.6713" lon="3.87278">
        <ele>109</ele>
        <time>2024-04-25T13:13:19.744Z</time>
      </trkpt>
      <trkpt lat="43.67126" lon="3.87274">
        <ele>109.3</ele>
        <time>2024-04-25T13:13:23.837Z</time>
      </trkpt>
      <trkpt lat="43.67123" lon="3.87269">
        <ele>109.5</ele>
        <time>2024-04-25T13:13:27.931Z</time>
      </trkpt>
      <trkpt lat="43.6712" lon="3.87265">
        <ele>109.7</ele>
        <time>2024-04-25T13:13:32.025Z</time>
      </trkpt>
      <trkpt lat="43.67117" lon="3.8726">
        <ele>109.8</ele>
        <time>2024-04-25T13:13:36.119Z</time>
      </trkpt>
      <trkpt lat="43.67114" lon="3.87255">
        <ele>109.9</ele>
        <time>2024-04-25T13:13:40.213Z</time>
      </trkpt>
      <trkpt lat="43.67111" lon="3.87251">
        <ele>110</ele>
        <time>2024-04-25T13:13:44.307Z</time>
      </trkpt>
      <trkpt lat="43.67108" lon="3.87246">
        <ele>109.8</ele>
        <time>2024-04-25T13:13:48.401Z</time>
      </trkpt>
      <trkpt lat="43.67105" lon="3.87242">
        <ele>109.5</ele>
        <time>2024-04-25T13:13:52.495Z</time>
      </trkpt>
      <trkpt lat="43.67102" lon="3.87237">
        <ele>109.2</ele>
        <time>2024-04-25T13:13:56.589Z</time>
      </trkpt>
      <trkpt lat="43.67099" lon="3.87232">
        <ele>109</ele>
        <time>2024-04-25T13:14:00.683Z</time>
      </trkpt>
      <trkpt lat="43.67096" lon="3.87228">
        <ele>108.7</ele>
        <time>2024-04-25T13:14:04.777Z</time>
      </trkpt>
      <trkpt lat="43.67093" lon="3.87223">
        <ele>108.4</ele>
        <time>2024-04-25T13:14:08.871Z</time>
      </trkpt>
      <trkpt lat="43.6709" lon="3.87219">
        <ele>108</ele>
        <time>2024-04-25T13:14:12.965Z</time>
      </trkpt>
      <trkpt lat="43.67087" lon="3.87214">
        <ele>107.5</ele>
        <time>2024-04-25T13:14:17.059Z</time>
      </trkpt>
      <trkpt lat="43.67084" lon="3.87209">
        <ele>107.1</ele>
        <time>2024-04-25T13:14:21.153Z</time>
      </trkpt>
      <trkpt lat="43.67081" lon="3.87205">
        <ele>106.7</ele>
        <time>2024-04-25T13:14:25.247Z</time>
      </trkpt>
      <trkpt lat="43.67077" lon="3.872">
        <ele>106.4</ele>
        <time>2024-04-25T13:14:29.341Z</time>
      </trkpt>
      <trkpt lat="43.67074" lon="3.87196">
        <ele>106.1</ele>
        <time>2024-04-25T13:14:33.435Z</time>
      </trkpt>
      <trkpt lat="43.67071" lon="3.87191">
        <ele>106</ele>
        <time>2024-04-25T13:14:37.529Z</time>
      </trkpt>
      <trkpt lat="43.67068" lon="3.87186">
        <ele>105.9</ele>
        <time>2024-04-25T13:14:41.623Z</time>
      </trkpt>
      <trkpt lat="43.67065" lon="3.87182">
        <ele>105.9</ele>
        <time>2024-04-25T13:14:45.717Z</time>
      </trkpt>
      <trkpt lat="43.67062" lon="3.87177">
        <ele>105.9</ele>
        <time>2024-04-25T13:14:49.811Z</time>
      </trkpt>
      <trkpt lat="43.67059" lon="3.87173">
        <ele>105.9</ele>
        <time>2024-04-25T13:14:53.905Z</time>
      </trkpt>
      <trkpt lat="43.67056" lon="3.87168">
        <ele>106</ele>
        <time>2024-04-25T15:14:58+02:00</time>
      </trkpt>
      <trkpt lat="43.67051" lon="3.87161">
        <ele>105.8</ele>
        <time>2024-04-25T13:15:00.499Z</time>
      </trkpt>
      <trkpt lat="43.67046" lon="3.87154">
        <ele>105.7</ele>
        <time>2024-04-25T13:15:02.999Z</time>
      </trkpt>
      <trkpt lat="43.67041" lon="3.87146">
        <ele>105.8</ele>
        <time>2024-04-25T13:15:05.499Z</time>
      </trkpt>
      <trkpt lat="43.67036" lon="3.87139">
        <ele>106.1</ele>
        <time>2024-04-25T15:15:08+02:00</time>
      </trkpt>
      <trkpt lat="43.67031" lon="3.87138">
        <ele>106.6</ele>
        <time>2024-04-25T13:15:12.562Z</time>
      </trkpt>
      <trkpt lat="43.67026" lon="3.87137">
        <ele>106.8</ele>
        <time>2024-04-25T13:15:17.124Z</time>
      </trkpt>
      <trkpt lat="43.67021" lon="3.87135">
        <ele>106.5</ele>
        <time>2024-04-25T13:15:21.686Z</time>
      </trkpt>
      <trkpt lat="43.67016" lon="3.87134">
        <ele>106.3</ele>
        <time>2024-04-25T13:15:26.248Z</time>
      </trkpt>
      <trkpt lat="43.6701" lon="3.87133">
        <ele>106.1</ele>
        <time>2024-04-25T13:15:30.810Z</time>
      </trkpt>
      <trkpt lat="43.67005" lon="3.87132">
        <ele>105.9</ele>
        <time>2024-04-25T13:15:35.372Z</time>
      </trkpt>
      <trkpt lat="43.67" lon="3.8713">
        <ele>105.7</ele>
        <time>2024-04-25T13:15:39.934Z</time>
      </trkpt>
      <trkpt lat="43.66995" lon="3.87129">
        <ele>105.6</ele>
        <time>2024-04-25T13:15:44.496Z</time>
      </trkpt>
      <trkpt lat="43.6699" lon="3.87128">
        <ele>105.6</ele>
        <time>2024-04-25T13:15:49.058Z</time>
      </trkpt>
      <trkpt lat="43.66985" lon="3.87127">
        <ele>105.6</ele>
        <time>2024-04-25T13:15:53.621Z</time>
      </trkpt>
      <trkpt lat="43.6698" lon="3.87125">
        <ele>105.5</ele>
        <time>2024-04-25T13:15:58.184Z</time>
      </trkpt>
      <trkpt lat="43.66975" lon="3.87124">
        <ele>105.5</ele>
        <time>2024-04-25T13:16:02.747Z</time>
      </trkpt>
      <trkpt lat="43.66969" lon="3.87123">
        <ele>105.6</ele>
        <time>2024-04-25T13:16:07.310Z</time>
      </trkpt>
      <trkpt lat="43.66964" lon="3.87122">
        <ele>105.8</ele>
        <time>2024-04-25T13:16:11.873Z</time>
      </trkpt>
      <trkpt lat="43.66959" lon="3.8712">
        <ele>106.1</ele>
        <time>2024-04-25T13:16:16.436Z</time>
      </trkpt>
      <trkpt lat="43.66954" lon="3.87119">
        <ele>106.4</ele>
        <time>2024-04-25T15:16:21+02:00</time>
      </trkpt>
      <trkpt lat="43.66946" lon="3.87118">
        <ele>106.9</ele>
        <time>2024-04-25T13:16:23.500Z</time>
      </trkpt>
      <trkpt lat="43.66939" lon="3.87117">
        <ele>107.4</ele>
        <time>2024-04-25T13:16:26.000Z</time>
      </trkpt>
      <trkpt lat="43.66931" lon="3.87116">
        <ele>108</ele>
        <time>2024-04-25T13:16:28.500Z</time>
      </trkpt>
      <trkpt lat="43.66923" lon="3.87115">
        <ele>108.5</ele>
        <time>2024-04-25T15:16:31+02:00</time>
      </trkpt>
      <trkpt lat="43.66917" lon="3.87111">
        <ele>109</ele>
        <time>2024-04-25T13:16:33.499Z</time>
      </trkpt>
      <trkpt lat="43.66912" lon="3.87108">
        <ele>108.8</ele>
        <time>2024-04-25T13:16:35.999Z</time>
      </trkpt>
      <trkpt lat="43.66906" lon="3.87104">
        <ele>108.6</ele>
        <time>2024-04-25T13:16:38.499Z</time>
      </trkpt>
      <trkpt lat="43.669" lon="3.871">
        <ele>108.4</ele>
        <time>2024-04-25T15:16:41+02:00</time>
      </trkpt>
      <trkpt lat="43.66895" lon="3.87097">
        <ele>108.2</ele>
        <time>2024-04-25T13:16:43.499Z</time>
      </trkpt>
      <trkpt lat="43.6689" lon="3.87094">
        <ele>108.1</ele>
        <time>2024-04-25T13:16:45.999Z</time>
      </trkpt>
      <trkpt lat="43.66884" lon="3.8709">
        <ele>107.8</ele>
        <time>2024-04-25T13:16:48.499Z</time>
      </trkpt>
      <trkpt lat="43.66879" lon="3.87087">
        <ele>107.4</ele>
        <time>2024-04-25T15:16:51+02:00</time>
      </trkpt>
      <trkpt lat="43.66874" lon="3.87087">
        <ele>107.4</ele>
        <time>2024-04-25T13:16:53.500Z</time>
      </trkpt>
      <trkpt lat="43.66868" lon="3.87088">
        <ele>107.4</ele>
        <time>2024-04-25T13:16:56.000Z</time>
      </trkpt>
      <trkpt lat="43.66863" lon="3.87088">
        <ele>107.5</ele>
        <time>2024-04-25T13:16:58.500Z</time>
      </trkpt>
      <trkpt lat="43.66857" lon="3.87088">
        <ele>107.2</ele>
        <time>2024-04-25T15:17:01+02:00</time>
      </trkpt>
      <trkpt lat="43.66852" lon="3.87086">
        <ele>106.6</ele>
        <time>2024-04-25T13:17:02.249Z</time>
      </trkpt>
      <trkpt lat="43.66846" lon="3.87084">
        <ele>105.9</ele>
        <time>2024-04-25T13:17:03.499Z</time>
      </trkpt>
      <trkpt lat="43.66841" lon="3.87081">
        <ele>105.1</ele>
        <time>2024-04-25T13:17:04.749Z</time>
      </trkpt>
      <trkpt lat="43.66836" lon="3.87079">
        <ele>104.4</ele>
        <time>2024-04-25T13:17:05.999Z</time>
      </trkpt>
      <trkpt lat="43.6683" lon="3.87077">
        <ele>103.4</ele>
        <time>2024-04-25T13:17:07.249Z</time>
      </trkpt>
      <trkpt lat="43.66825" lon="3.87075">
        <ele>102.3</ele>
        <time>2024-04-25T13:17:08.499Z</time>
      </trkpt>
      <trkpt lat="43.66819" lon="3.87072">
        <ele>101.2</ele>
        <time>2024-04-25T13:17:09.749Z</time>
      </trkpt>
      <trkpt lat="43.66814" lon="3.8707">
        <ele>100.2</ele>
        <time>2024-04-25T15:17:11+02:00</time>
      </trkpt>
      <trkpt lat="43.66809" lon="3.87064">
        <ele>98.6</ele>
        <time>2024-04-25T13:17:12.249Z</time>
      </trkpt>
      <trkpt lat="43.66804" lon="3.87057">
        <ele>97.1</ele>
        <time>2024-04-25T13:17:13.499Z</time>
      </trkpt>
      <trkpt lat="43.66799" lon="3.87051">
        <ele>95.6</ele>
        <time>2024-04-25T13:17:14.749Z</time>
      </trkpt>
      <trkpt lat="43.66794" lon="3.87045">
        <ele>94.2</ele>
        <time>2024-04-25T13:17:15.999Z</time>
      </trkpt>
      <trkpt lat="43.66789" lon="3.87038">
        <ele>92.7</ele>
        <time>2024-04-25T13:17:17.249Z</time>
      </trkpt>
      <trkpt lat="43.66784" lon="3.87032">
        <ele>91.3</ele>
        <time>2024-04-25T13:17:18.499Z</time>
      </trkpt>
      <trkpt lat="43.66779" lon="3.87025">
        <ele>89.7</ele>
        <time>2024-04-25T13:17:19.749Z</time>
      </trkpt>
      <trkpt lat="43.66774" lon="3.87019">
        <ele>88</ele>
        <time>2024-04-25T15:17:21+02:00</time>
      </trkpt>
      <trkpt lat="43.66769" lon="3.87013">
        <ele>86.4</ele>
        <time>2024-04-25T13:17:23.499Z</time>
      </trkpt>
      <trkpt lat="43.66764" lon="3.87007">
        <ele>85</ele>
        <time>2024-04-25T13:17:25.999Z</time>
      </trkpt>
      <trkpt lat="43.66758" lon="3.87001">
        <ele>83.7</ele>
        <time>2024-04-25T13:17:28.499Z</time>
      </trkpt>
      <trkpt lat="43.66753" lon="3.86995">
        <ele>82.6</ele>
        <time>2024-04-25T15:17:31+02:00</time>
      </trkpt>
      <trkpt lat="43.66747" lon="3.8699">
        <ele>81.8</ele>
        <time>2024-04-25T13:17:35.999Z</time>
      </trkpt>
      <trkpt lat="43.66741" lon="3.86985">
        <ele>81.1</ele>
        <time>2024-04-25T15:17:41+02:00</time>
      </trkpt>
      <trkpt lat="43.6674" lon="3.86992">
        <ele>81.6</ele>
        <time>2024-04-25T13:17:42.499Z</time>
      </trkpt>
      <trkpt lat="43.66738" lon="3.87">
        <ele>82.1</ele>
        <time>2024-04-25T13:17:43.999Z</time>
      </trkpt>
      <trkpt lat="43.66737" lon="3.87007">
        <ele>82.6</ele>
        <time>2024-04-25T13:17:45.499Z</time>
      </trkpt>
      <trkpt lat="43.66735" lon="3.87014">
        <ele>83.2</ele>
        <time>2024-04-25T15:17:47+02:00</time>
      </trkpt>
      <trkpt lat="43.66735" lon="3.87021">
        <ele>83.8</ele>
        <time>2024-04-25T13:17:48.000Z</time>
      </trkpt>
      <trkpt lat="43.66735" lon="3.87029">
        <ele>84.4</ele>
        <time>2024-04-25T13:17:49.000Z</time>
      </trkpt>
      <trkpt lat="43.66734" lon="3.87036">
        <ele>84.9</ele>
        <time>2024-04-25T13:17:50.000Z</time>
      </trkpt>
      <trkpt lat="43.66734" lon="3.87043">
        <ele>85.4</ele>
        <time>2024-04-25T15:17:51+02:00</time>
      </trkpt>
      <trkpt lat="43.66734" lon="3.87052">
        <ele>86</ele>
        <time>2024-04-25T13:17:52.250Z</time>
      </trkpt>
      <trkpt lat="43.66735" lon="3.87061">
        <ele>86.8</ele>
        <time>2024-04-25T13:17:53.500Z</time>
      </trkpt>
      <trkpt lat="43.66735" lon="3.87069">
        <ele>87.6</ele>
        <time>2024-04-25T13:17:54.750Z</time>
      </trkpt>
      <trkpt lat="43.66736" lon="3.87078">
        <ele>88.4</ele>
        <time>2024-04-25T13:17:56.000Z</time>
      </trkpt>
      <trkpt lat="43.66736" lon="3.87087">
        <ele>89.3</ele>
        <time>2024-04-25T13:17:57.250Z</time>
      </trkpt>
      <trkpt lat="43.66736" lon="3.87096">
        <ele>90.1</ele>
        <time>2024-04-25T13:17:58.500Z</time>
      </trkpt>
      <trkpt lat="43.66737" lon="3.87104">
        <ele>90.9</ele>
        <time>2024-04-25T13:17:59.750Z</time>
      </trkpt>
      <trkpt lat="43.66737" lon="3.87113">
        <ele>91.8</ele>
        <time>2024-04-25T15:18:01+02:00</time>
      </trkpt>
      <trkpt lat="43.66737" lon="3.87125">
        <ele>92.8</ele>
        <time>2024-04-25T13:18:03.499Z</time>
      </trkpt>
      <trkpt lat="43.66736" lon="3.87137">
        <ele>93.8</ele>
        <time>2024-04-25T13:18:05.999Z</time>
      </trkpt>
      <trkpt lat="43.66736" lon="3.87149">
        <ele>94.3</ele>
        <time>2024-04-25T13:18:08.499Z</time>
      </trkpt>
      <trkpt lat="43.66735" lon="3.87161">
        <ele>94.7</ele>
        <time>2024-04-25T15:18:11+02:00</time>
      </trkpt>
      <trkpt lat="43.66735" lon="3.87171">
        <ele>94.9</ele>
        <time>2024-04-25T13:18:13.500Z</time>
      </trkpt>
      <trkpt lat="43.66735" lon="3.87182">
        <ele>94.9</ele>
        <time>2024-04-25T13:18:16.000Z</time>
      </trkpt>
      <trkpt lat="43.66735" lon="3.87192">
        <ele>94.9</ele>
        <time>2024-04-25T13:18:18.500Z</time>
      </trkpt>
      <trkpt lat="43.66735" lon="3.87202">
        <ele>94.6</ele>
        <time>2024-04-25T15:18:21+02:00</time>
      </trkpt>
      <trkpt lat="43.66729" lon="3.8721">
        <ele>93.9</ele>
        <time>2024-04-25T13:18:25.999Z</time>
      </trkpt>
      <trkpt lat="43.66722" lon="3.87218">
        <ele>93.2</ele>
        <time>2024-04-25T15:18:31+02:00</time>
      </trkpt>
      <trkpt lat="43.66714" lon="3.87221">
        <ele>93</ele>
        <time>2024-04-25T13:18:33.499Z</time>
      </trkpt>
      <trkpt lat="43.66706" lon="3.87223">
        <ele>93</ele>
        <time>2024-04-25T13:18:35.999Z</time>
      </trkpt>
      <trkpt lat="43.66698" lon="3.87226">
        <ele>92.9</ele>
        <time>2024-04-25T13:18:38.499Z</time>
      </trkpt>
      <trkpt lat="43.6669" lon="3.87228">
        <ele>92.8</ele>
        <time>2024-04-25T15:18:41+02:00</time>
      </trkpt>
      <trkpt lat="43.66684" lon="3.87225">
        <ele>92.9</ele>
        <time>2024-04-25T13:18:42.249Z</time>
      </trkpt>
      <trkpt lat="43.66679" lon="3.87223">
        <ele>93</ele>
        <time>2024-04-25T13:18:43.499Z</time>
      </trkpt>
      <trkpt lat="43.66673" lon="3.8722">
        <ele>93</ele>
        <time>2024-04-25T13:18:44.749Z</time>
      </trkpt>
      <trkpt lat="43.66668" lon="3.87217">
        <ele>93</ele>
        <time>2024-04-25T13:18:45.999Z</time>
      </trkpt>
      <trkpt lat="43.66662" lon="3.87214">
        <ele>92.9</ele>
        <time>2024-04-25T13:18:47.249Z</time>
      </trkpt>
      <trkpt lat="43.66656" lon="3.87212">
        <ele>92.8</ele>
        <time>2024-04-25T13:18:48.499Z</time>
      </trkpt>
      <trkpt lat="43.66651" lon="3.87209">
        <ele>92.7</ele>
        <time>2024-04-25T13:18:49.749Z</time>
      </trkpt>
      <trkpt lat="43.66645" lon="3.87206">
        <ele>92.7</ele>
        <time>2024-04-25T15:18:51+02:00</time>
      </trkpt>
      <trkpt lat="43.6664" lon="3.87202">
        <ele>92.8</ele>
        <time>2024-04-25T13:18:52.249Z</time>
      </trkpt>
      <trkpt lat="43.66636" lon="3.87197">
        <ele>92.8</ele>
        <time>2024-04-25T13:18:53.499Z</time>
      </trkpt>
      <trkpt lat="43.66631" lon="3.87193">
        <ele>92.7</ele>
        <time>2024-04-25T13:18:54.749Z</time>
      </trkpt>
      <trkpt lat="43.66626" lon="3.87189">
        <ele>92.5</ele>
        <time>2024-04-25T13:18:55.999Z</time>
      </trkpt>
      <trkpt lat="43.66621" lon="3.87184">
        <ele>92.4</ele>
        <time>2024-04-25T13:18:57.249Z</time>
      </trkpt>
      <trkpt lat="43.66617" lon="3.8718">
        <ele>92.2</ele>
        <time>2024-04-25T13:18:58.499Z</time>
      </trkpt>
      <trkpt lat="43.66612" lon="3.87175">
        <ele>92</ele>
        <time>2024-04-25T13:18:59.749Z</time>
      </trkpt>
      <trkpt lat="43.66607" lon="3.87171">
        <ele>92</ele>
        <time>2024-04-25T15:19:01+02:00</time>
      </trkpt>
      <trkpt lat="43.66601" lon="3.87166">
        <ele>92</ele>
        <time>2024-04-25T13:19:03.499Z</time>
      </trkpt>
      <trkpt lat="43.66595" lon="3.87161">
        <ele>92.1</ele>
        <time>2024-04-25T13:19:05.999Z</time>
      </trkpt>
      <trkpt lat="43.66588" lon="3.87156">
        <ele>92.3</ele>
        <time>2024-04-25T13:19:08.499Z</time>
      </trkpt>
      <trkpt lat="43.66582" lon="3.87151">
        <ele>92.6</ele>
        <time>2024-04-25T15:19:11+02:00</time>
      </trkpt>
      <trkpt lat="43.66578" lon="3.87149">
        <ele>92.7</ele>
        <time>2024-04-25T13:19:12.249Z</time>
      </trkpt>
      <trkpt lat="43.66574" lon="3.87146">
        <ele>92.7</ele>
        <time>2024-04-25T13:19:13.499Z</time>
      </trkpt>
      <trkpt lat="43.66569" lon="3.87144">
        <ele>92.8</ele>
        <time>2024-04-25T13:19:14.749Z</time>
      </trkpt>
      <trkpt lat="43.66565" lon="3.87141">
        <ele>92.9</ele>
        <time>2024-04-25T13:19:15.999Z</time>
      </trkpt>
      <trkpt lat="43.66561" lon="3.87139">
        <ele>93</ele>
        <time>2024-04-25T13:19:17.249Z</time>
      </trkpt>
      <trkpt lat="43.66557" lon="3.87136">
        <ele>93</ele>
        <time>2024-04-25T13:19:18.499Z</time>
      </trkpt>
      <trkpt lat="43.66552" lon="3.87134">
        <ele>93</ele>
        <time>2024-04-25T13:19:19.749Z</time>
      </trkpt>
      <trkpt lat="43.66548" lon="3.87131">
        <ele>93.1</ele>
        <time>2024-04-25T15:19:21+02:00</time>
      </trkpt>
      <trkpt lat="43.66543" lon="3.8713">
        <ele>93.1</ele>
        <time>2024-04-25T13:19:22.250Z</time>
      </trkpt>
      <trkpt lat="43.66537" lon="3.87129">
        <ele>93.2</ele>
        <time>2024-04-25T13:19:23.500Z</time>
      </trkpt>
      <trkpt lat="43.66532" lon="3.87128">
        <ele>93.3</ele>
        <time>2024-04-25T13:19:24.750Z</time>
      </trkpt>
      <trkpt lat="43.66527" lon="3.87128">
        <ele>93.4</ele>
        <time>2024-04-25T13:19:26.000Z</time>
      </trkpt>
      <trkpt lat="43.66521" lon="3.87127">
        <ele>93.5</ele>
        <time>2024-04-25T13:19:27.250Z</time>
      </trkpt>
      <trkpt lat="43.66516" lon="3.87126">
        <ele>93.7</ele>
        <time>2024-04-25T13:19:28.500Z</time>
      </trkpt>
      <trkpt lat="43.6651" lon="3.87125">
        <ele>93.8</ele>
        <time>2024-04-25T13:19:29.750Z</time>
      </trkpt>
      <trkpt lat="43.66505" lon="3.87124">
        <ele>94</ele>
        <time>2024-04-25T15:19:31+02:00</time>
      </trkpt>
      <trkpt lat="43.665" lon="3.87119">
        <ele>94.4</ele>
        <time>2024-04-25T13:19:35.999Z</time>
      </trkpt>
      <trkpt lat="43.66494" lon="3.87114">
        <ele>94.8</ele>
        <time>2024-04-25T15:19:41+02:00</time>
      </trkpt>
      <trkpt lat="43.66501" lon="3.87106">
        <ele>95.2</ele>
        <time>2024-04-25T13:19:46.000Z</time>
      </trkpt>
      <trkpt lat="43.66507" lon="3.87099">
        <ele>95.1</ele>
        <time>2024-04-25T13:19:51.000Z</time>
      </trkpt>
      <trkpt lat="43.66514" lon="3.87091">
        <ele>94.9</ele>
        <time>2024-04-25T13:19:56.000Z</time>
      </trkpt>
      <trkpt lat="43.6652" lon="3.87083">
        <ele>94.6</ele>
        <time>2024-04-25T15:20:01+02:00</time>
      </trkpt>
      <trkpt lat="43.66527" lon="3.8708">
        <ele>94.1</ele>
        <time>2024-04-25T13:20:03.500Z</time>
      </trkpt>
      <trkpt lat="43.66534" lon="3.87077">
        <ele>93.2</ele>
        <time>2024-04-25T13:20:06.000Z</time>
      </trkpt>
      <trkpt lat="43.66541" lon="3.87074">
        <ele>92.3</ele>
        <time>2024-04-25T13:20:08.500Z</time>
      </trkpt>
      <trkpt lat="43.66548" lon="3.87071">
        <ele>91.2</ele>
        <time>2024-04-25T15:20:11+02:00</time>
      </trkpt>
      <trkpt lat="43.66554" lon="3.87064">
        <ele>89.9</ele>
        <time>2024-04-25T13:20:13.500Z</time>
      </trkpt>
      <trkpt lat="43.66559" lon="3.87058">
        <ele>88.5</ele>
        <time>2024-04-25T13:20:16.000Z</time>
      </trkpt>
      <trkpt lat="43.66565" lon="3.87051">
        <ele>87</ele>
        <time>2024-04-25T13:20:18.500Z</time>
      </trkpt>
      <trkpt lat="43.6657" lon="3.87044">
        <ele>85.3</ele>
        <time>2024-04-25T15:20:21+02:00</time>
      </trkpt>
      <trkpt lat="43.66574" lon="3.87038">
        <ele>83.8</ele>
        <time>2024-04-25T13:20:23.500Z</time>
      </trkpt>
      <trkpt lat="43.66578" lon="3.87032">
        <ele>82.1</ele>
        <time>2024-04-25T13:20:26.000Z</time>
      </trkpt>
      <trkpt lat="43.66582" lon="3.87026">
        <ele>80.3</ele>
        <time>2024-04-25T13:20:28.500Z</time>
      </trkpt>
      <trkpt lat="43.66586" lon="3.8702">
        <ele>79.1</ele>
        <time>2024-04-25T15:20:31+02:00</time>
      </trkpt>
      <trkpt lat="43.66589" lon="3.87015">
        <ele>78.4</ele>
        <time>2024-04-25T13:20:33.500Z</time>
      </trkpt>
      <trkpt lat="43.66592" lon="3.87009">
        <ele>77.6</ele>
        <time>2024-04-25T13:20:36.000Z</time>
      </trkpt>
      <trkpt lat="43.66594" lon="3.87004">
        <ele>76.7</ele>
        <time>2024-04-25T13:20:38.500Z</time>
      </trkpt>
      <trkpt lat="43.66597" lon="3.86998">
        <ele>75.9</ele>
        <time>2024-04-25T15:20:41+02:00</time>
      </trkpt>
      <trkpt lat="43.66598" lon="3.8699">
        <ele>75.1</ele>
        <time>2024-04-25T13:20:42.500Z</time>
      </trkpt>
      <trkpt lat="43.666" lon="3.86981">
        <ele>74.3</ele>
        <time>2024-04-25T13:20:44.000Z</time>
      </trkpt>
      <trkpt lat="43.66601" lon="3.86973">
        <ele>73.5</ele>
        <time>2024-04-25T13:20:45.500Z</time>
      </trkpt>
      <trkpt lat="43.66602" lon="3.86964">
        <ele>72.5</ele>
        <time>2024-04-25T15:20:47+02:00</time>
      </trkpt>
      <trkpt lat="43.666" lon="3.86953">
        <ele>71.7</ele>
        <time>2024-04-25T13:20:48.999Z</time>
      </trkpt>
      <trkpt lat="43.66597" lon="3.86942">
        <ele>70.8</ele>
        <time>2024-04-25T15:20:51+02:00</time>
      </trkpt>
      <trkpt lat="43.66595" lon="3.86936">
        <ele>70.5</ele>
        <time>2024-04-25T13:20:52.249Z</time>
      </trkpt>
      <trkpt lat="43.66594" lon="3.8693">
        <ele>70.1</ele>
        <time>2024-04-25T13:20:53.499Z</time>
      </trkpt>
      <trkpt lat="43.66592" lon="3.86924">
        <ele>69.6</ele>
        <time>2024-04-25T13:20:54.749Z</time>
      </trkpt>
      <trkpt lat="43.66591" lon="3.86918">
        <ele>69.1</ele>
        <time>2024-04-25T13:20:55.999Z</time>
      </trkpt>
      <trkpt lat="43.66589" lon="3.86912">
        <ele>68.8</ele>
        <time>2024-04-25T13:20:57.249Z</time>
      </trkpt>
      <trkpt lat="43.66587" lon="3.86906">
        <ele>68.6</ele>
        <time>2024-04-25T13:20:58.499Z</time>
      </trkpt>
      <trkpt lat="43.66586" lon="3.869">
        <ele>68.4</ele>
        <time>2024-04-25T13:20:59.749Z</time>
      </trkpt>
      <trkpt lat="43.66584" lon="3.86894">
        <ele>68.2</ele>
        <time>2024-04-25T15:21:01+02:00</time>
      </trkpt>
      <trkpt lat="43.66581" lon="3.86882">
        <ele>67.8</ele>
        <time>2024-04-25T13:21:03.499Z</time>
      </trkpt>
      <trkpt lat="43.66579" lon="3.86871">
        <ele>67.3</ele>
        <time>2024-04-25T13:21:05.999Z</time>
      </trkpt>
      <trkpt lat="43.66576" lon="3.86859">
        <ele>66.6</ele>
        <time>2024-04-25T13:21:08.499Z</time>
      </trkpt>
      <trkpt lat="43.66573" lon="3.86847">
        <ele>65.9</ele>
        <time>2024-04-25T15:21:11+02:00</time>
      </trkpt>
      <trkpt lat="43.66571" lon="3.86836">
        <ele>65.1</ele>
        <time>2024-04-25T13:21:13.499Z</time>
      </trkpt>
      <trkpt lat="43.66569" lon="3.86824">
        <ele>64.5</ele>
        <time>2024-04-25T13:21:15.999Z</time>
      </trkpt>
      <trkpt lat="43.66567" lon="3.86813">
        <ele>64.1</ele>
        <time>2024-04-25T13:21:18.499Z</time>
      </trkpt>
      <trkpt lat="43.66565" lon="3.86801">
        <ele>63.6</ele>
        <time>2024-04-25T15:21:21+02:00</time>
      </trkpt>
      <trkpt lat="43.66561" lon="3.86798">
        <ele>63.9</ele>
        <time>2024-04-25T13:21:25.999Z</time>
      </trkpt>
      <trkpt lat="43.66556" lon="3.86795">
        <ele>64.2</ele>
        <time>2024-04-25T15:21:31+02:00</time>
      </trkpt>
      <trkpt lat="43.66555" lon="3.86785">
        <ele>63.5</ele>
        <time>2024-04-25T13:21:40.749Z</time>
      </trkpt>
      <trkpt lat="43.66555" lon="3.86775">
        <ele>62.9</ele>
        <time>2024-04-25T13:21:50.499Z</time>
      </trkpt>
      <trkpt lat="43.66554" lon="3.86765">
        <ele>62.2</ele>
        <time>2024-04-25T13:22:00.249Z</time>
      </trkpt>
      <trkpt lat="43.66553" lon="3.86755">
        <ele>61.5</ele>
        <time>2024-04-25T15:22:10+02:00</time>
      </trkpt>
      <trkpt lat="43.66549" lon="3.86749">
        <ele>61.3</ele>
        <time>2024-04-25T13:22:11.374Z</time>
      </trkpt>
      <trkpt lat="43.66545" lon="3.86742">
        <ele>61</ele>
        <time>2024-04-25T13:22:12.749Z</time>
      </trkpt>
      <trkpt lat="43.6654" lon="3.86736">
        <ele>60.8</ele>
        <time>2024-04-25T13:22:14.124Z</time>
      </trkpt>
      <trkpt lat="43.66536" lon="3.86729">
        <ele>60.7</ele>
        <time>2024-04-25T13:22:15.499Z</time>
      </trkpt>
      <trkpt lat="43.66532" lon="3.86723">
        <ele>60.6</ele>
        <time>2024-04-25T13:22:16.874Z</time>
      </trkpt>
      <trkpt lat="43.66528" lon="3.86716">
        <ele>60.3</ele>
        <time>2024-04-25T13:22:18.249Z</time>
      </trkpt>
      <trkpt lat="43.66523" lon="3.8671">
        <ele>59.6</ele>
        <time>2024-04-25T13:22:19.624Z</time>
      </trkpt>
      <trkpt lat="43.66519" lon="3.86703">
        <ele>58.9</ele>
        <time>2024-04-25T15:22:21+02:00</time>
      </trkpt>
      <trkpt lat="43.66512" lon="3.86704">
        <ele>59</ele>
        <time>2024-04-25T13:22:23.500Z</time>
      </trkpt>
      <trkpt lat="43.66505" lon="3.86705">
        <ele>59.1</ele>
        <time>2024-04-25T13:22:26.000Z</time>
      </trkpt>
      <trkpt lat="43.66498" lon="3.86706">
        <ele>59.2</ele>
        <time>2024-04-25T13:22:28.500Z</time>
      </trkpt>
      <trkpt lat="43.66491" lon="3.86707">
        <ele>59</ele>
        <time>2024-04-25T15:22:31+02:00</time>
      </trkpt>
      <trkpt lat="43.66484" lon="3.86713">
        <ele>59.4</ele>
        <time>2024-04-25T13:22:33.499Z</time>
      </trkpt>
      <trkpt lat="43.66477" lon="3.86718">
        <ele>59.7</ele>
        <time>2024-04-25T13:22:35.999Z</time>
      </trkpt>
      <trkpt lat="43.6647" lon="3.86724">
        <ele>59.9</ele>
        <time>2024-04-25T13:22:38.499Z</time>
      </trkpt>
      <trkpt lat="43.66463" lon="3.86729">
        <ele>60</ele>
        <time>2024-04-25T15:22:41+02:00</time>
      </trkpt>
      <trkpt lat="43.66458" lon="3.86732">
        <ele>60.1</ele>
        <time>2024-04-25T13:22:42.249Z</time>
      </trkpt>
      <trkpt lat="43.66453" lon="3.86736">
        <ele>60.2</ele>
        <time>2024-04-25T13:22:43.499Z</time>
      </trkpt>
      <trkpt lat="43.66447" lon="3.86739">
        <ele>60.5</ele>
        <time>2024-04-25T13:22:44.749Z</time>
      </trkpt>
      <trkpt lat="43.66442" lon="3.86742">
        <ele>60.8</ele>
        <time>2024-04-25T13:22:45.999Z</time>
      </trkpt>
      <trkpt lat="43.66437" lon="3.86745">
        <ele>61.1</ele>
        <time>2024-04-25T13:22:47.249Z</time>
      </trkpt>
      <trkpt lat="43.66432" lon="3.86749">
        <ele>61.4</ele>
        <time>2024-04-25T13:22:48.499Z</time>
      </trkpt>
      <trkpt lat="43.66426" lon="3.86752">
        <ele>61.5</ele>
        <time>2024-04-25T13:22:49.749Z</time>
      </trkpt>
      <trkpt lat="43.66421" lon="3.86755">
        <ele>61.7</ele>
        <time>2024-04-25T15:22:51+02:00</time>
      </trkpt>
      <trkpt lat="43.66416" lon="3.86759">
        <ele>62</ele>
        <time>2024-04-25T13:22:53.499Z</time>
      </trkpt>
      <trkpt lat="43.6641" lon="3.86763">
        <ele>62.4</ele>
        <time>2024-04-25T13:22:55.999Z</time>
      </trkpt>
      <trkpt lat="43.66405" lon="3.86767">
        <ele>62.8</ele>
        <time>2024-04-25T13:22:58.499Z</time>
      </trkpt>
      <trkpt lat="43.66399" lon="3.86771">
        <ele>63.3</ele>
        <time>2024-04-25T15:23:01+02:00</time>
      </trkpt>
      <trkpt lat="43.66391" lon="3.86767">
        <ele>62.9</ele>
        <time>2024-04-25T13:23:03.499Z</time>
      </trkpt>
      <trkpt lat="43.66382" lon="3.86764">
        <ele>62.7</ele>
        <time>2024-04-25T13:23:05.999Z</time>
      </trkpt>
      <trkpt lat="43.66374" lon="3.8676">
        <ele>62.6</ele>
        <time>2024-04-25T13:23:08.499Z</time>
      </trkpt>
      <trkpt lat="43.66365" lon="3.86756">
        <ele>62.5</ele>
        <time>2024-04-25T15:23:11+02:00</time>
      </trkpt>
      <trkpt lat="43.66357" lon="3.86752">
        <ele>62.2</ele>
        <time>2024-04-25T15:23:15+02:00</time>
      </trkpt>
      <trkpt lat="43.66355" lon="3.86741">
        <ele>61.4</ele>
        <time>2024-04-25T15:23:21+02:00</time>
      </trkpt>
      <trkpt lat="43.66357" lon="3.86729">
        <ele>60.6</ele>
        <time>2024-04-25T13:23:23.500Z</time>
      </trkpt>
      <trkpt lat="43.66359" lon="3.86718">
        <ele>59.9</ele>
        <time>2024-04-25T13:23:26.000Z</time>
      </trkpt>
      <trkpt lat="43.6636" lon="3.86706">
        <ele>59.4</ele>
        <time>2024-04-25T13:23:28.500Z</time>
      </trkpt>
      <trkpt lat="43.66362" lon="3.86694">
        <ele>59</ele>
        <time>2024-04-25T15:23:31+02:00</time>
      </trkpt>
      <trkpt lat="43.66368" lon="3.86687">
        <ele>58.5</ele>
        <time>2024-04-25T13:23:33.500Z</time>
      </trkpt>
      <trkpt lat="43.66374" lon="3.8668">
        <ele>58</ele>
        <time>2024-04-25T13:23:36.000Z</time>
      </trkpt>
      <trkpt lat="43.6638" lon="3.86672">
        <ele>57.5</ele>
        <time>2024-04-25T13:23:38.500Z</time>
      </trkpt>
      <trkpt lat="43.66386" lon="3.86665">
        <ele>57.1</ele>
        <time>2024-04-25T15:23:41+02:00</time>
      </trkpt>
      <trkpt lat="43.66391" lon="3.86662">
        <ele>56.9</ele>
        <time>2024-04-25T13:23:42.500Z</time>
      </trkpt>
      <trkpt lat="43.66396" lon="3.86659">
        <ele>56.5</ele>
        <time>2024-04-25T13:23:44.000Z</time>
      </trkpt>
      <trkpt lat="43.664" lon="3.86655">
        <ele>56.2</ele>
        <time>2024-04-25T13:23:45.500Z</time>
      </trkpt>
      <trkpt lat="43.66405" lon="3.86652">
        <ele>55.8</ele>
        <time>2024-04-25T15:23:47+02:00</time>
      </trkpt>
      <trkpt lat="43.66411" lon="3.8665">
        <ele>55.4</ele>
        <time>2024-04-25T13:23:48.000Z</time>
      </trkpt>
      <trkpt lat="43.66417" lon="3.86648">
        <ele>55</ele>
        <time>2024-04-25T13:23:49.000Z</time>
      </trkpt>
      <trkpt lat="43.66422" lon="3.86646">
        <ele>54.7</ele>
        <time>2024-04-25T13:23:50.000Z</time>
      </trkpt>
      <trkpt lat="43.66428" lon="3.86644">
        <ele>54.3</ele>
        <time>2024-04-25T15:23:51+02:00</time>
      </trkpt>
      <trkpt lat="43.66434" lon="3.86646">
        <ele>54.1</ele>
        <time>2024-04-25T13:23:52.250Z</time>
      </trkpt>
      <trkpt lat="43.6644" lon="3.86647">
        <ele>53.8</ele>
        <time>2024-04-25T13:23:53.500Z</time>
      </trkpt>
      <trkpt lat="43.66446" lon="3.86649">
        <ele>53.7</ele>
        <time>2024-04-25T13:23:54.750Z</time>
      </trkpt>
      <trkpt lat="43.66452" lon="3.86651">
        <ele>53.7</ele>
        <time>2024-04-25T13:23:56.000Z</time>
      </trkpt>
      <trkpt lat="43.66457" lon="3.86652">
        <ele>53.7</ele>
        <time>2024-04-25T13:23:57.250Z</time>
      </trkpt>
      <trkpt lat="43.66463" lon="3.86654">
        <ele>53.8</ele>
        <time>2024-04-25T13:23:58.500Z</time>
      </trkpt>
      <trkpt lat="43.66469" lon="3.86655">
        <ele>53.8</ele>
        <time>2024-04-25T13:23:59.750Z</time>
      </trkpt>
      <trkpt lat="43.66475" lon="3.86657">
        <ele>54</ele>
        <time>2024-04-25T15:24:01+02:00</time>
      </trkpt>
      <trkpt lat="43.66482" lon="3.86656">
        <ele>53.8</ele>
        <time>2024-04-25T13:24:03.500Z</time>
      </trkpt>
      <trkpt lat="43.6649" lon="3.86655">
        <ele>53.7</ele>
        <time>2024-04-25T13:24:06.000Z</time>
      </trkpt>
      <trkpt lat="43.66497" lon="3.86654">
        <ele>53.6</ele>
        <time>2024-04-25T13:24:08.500Z</time>
      </trkpt>
      <trkpt lat="43.66504" lon="3.86653">
        <ele>53.5</ele>
        <time>2024-04-25T15:24:11+02:00</time>
      </trkpt>
      <trkpt lat="43.66511" lon="3.86651">
        <ele>53.3</ele>
        <time>2024-04-25T13:24:12.250Z</time>
      </trkpt>
      <trkpt lat="43.66517" lon="3.86648">
        <ele>53</ele>
        <time>2024-04-25T13:24:13.500Z</time>
      </trkpt>
      <trkpt lat="43.66524" lon="3.86646">
        <ele>52.8</ele>
        <time>2024-04-25T13:24:14.750Z</time>
      </trkpt>
      <trkpt lat="43.66531" lon="3.86644">
        <ele>52.4</ele>
        <time>2024-04-25T13:24:16.000Z</time>
      </trkpt>
      <trkpt lat="43.66537" lon="3.86641">
        <ele>51.9</ele>
        <time>2024-04-25T13:24:17.250Z</time>
      </trkpt>
      <trkpt lat="43.66544" lon="3.86639">
        <ele>51.4</ele>
        <time>2024-04-25T13:24:18.500Z</time>
      </trkpt>
      <trkpt lat="43.6655" lon="3.86636">
        <ele>51</ele>
        <time>2024-04-25T13:24:19.750Z</time>
      </trkpt>
      <trkpt lat="43.66557" lon="3.86634">
        <ele>50.6</ele>
        <time>2024-04-25T15:24:21+02:00</time>
      </trkpt>
      <trkpt lat="43.66566" lon="3.86635">
        <ele>50.3</ele>
        <time>2024-04-25T13:24:22.250Z</time>
      </trkpt>
      <trkpt lat="43.66574" lon="3.86636">
        <ele>50.1</ele>
        <time>2024-04-25T13:24:23.500Z</time>
      </trkpt>
      <trkpt lat="43.66583" lon="3.86636">
        <ele>49.8</ele>
        <time>2024-04-25T13:24:24.750Z</time>
      </trkpt>
      <trkpt lat="43.66592" lon="3.86637">
        <ele>49.9</ele>
        <time>2024-04-25T13:24:26.000Z</time>
      </trkpt>
      <trkpt lat="43.666" lon="3.86638">
        <ele>49.9</ele>
        <time>2024-04-25T13:24:27.250Z</time>
      </trkpt>
      <trkpt lat="43.66609" lon="3.86639">
        <ele>50</ele>
        <time>2024-04-25T13:24:28.500Z</time>
      </trkpt>
      <trkpt lat="43.66617" lon="3.86639">
        <ele>50</ele>
        <time>2024-04-25T13:24:29.750Z</time>
      </trkpt>
      <trkpt lat="43.66626" lon="3.8664">
        <ele>50.1</ele>
        <time>2024-04-25T15:24:31+02:00</time>
      </trkpt>
      <trkpt lat="43.66632" lon="3.86642">
        <ele>50.2</ele>
        <time>2024-04-25T13:24:32.250Z</time>
      </trkpt>
      <trkpt lat="43.66637" lon="3.86644">
        <ele>50.4</ele>
        <time>2024-04-25T13:24:33.500Z</time>
      </trkpt>
      <trkpt lat="43.66643" lon="3.86646">
        <ele>50.4</ele>
        <time>2024-04-25T13:24:34.750Z</time>
      </trkpt>
      <trkpt lat="43.66648" lon="3.86649">
        <ele>50.5</ele>
        <time>2024-04-25T13:24:36.000Z</time>
      </trkpt>
      <trkpt lat="43.66654" lon="3.86651">
        <ele>50.5</ele>
        <time>2024-04-25T13:24:37.250Z</time>
      </trkpt>
      <trkpt lat="43.66659" lon="3.86653">
        <ele>50.6</ele>
        <time>2024-04-25T13:24:38.500Z</time>
      </trkpt>
      <trkpt lat="43.66665" lon="3.86655">
        <ele>50.8</ele>
        <time>2024-04-25T13:24:39.750Z</time>
      </trkpt>
      <trkpt lat="43.6667" lon="3.86657">
        <ele>50.8</ele>
        <time>2024-04-25T15:24:41+02:00</time>
      </trkpt>
      <trkpt lat="43.66674" lon="3.86661">
        <ele>51</ele>
        <time>2024-04-25T13:24:43.500Z</time>
      </trkpt>
      <trkpt lat="43.66678" lon="3.86666">
        <ele>51.1</ele>
        <time>2024-04-25T13:24:46.000Z</time>
      </trkpt>
      <trkpt lat="43.66681" lon="3.8667">
        <ele>51.3</ele>
        <time>2024-04-25T13:24:48.500Z</time>
      </trkpt>
      <trkpt lat="43.66685" lon="3.86674">
        <ele>51.5</ele>
        <time>2024-04-25T15:24:51+02:00</time>
      </trkpt>
      <trkpt lat="43.6669" lon="3.8668">
        <ele>51.8</ele>
        <time>2024-04-25T13:24:53.500Z</time>
      </trkpt>
      <trkpt lat="43.66695" lon="3.86687">
        <ele>52.1</ele>
        <time>2024-04-25T13:24:56.000Z</time>
      </trkpt>
      <trkpt lat="43.667" lon="3.86693">
        <ele>52.4</ele>
        <time>2024-04-25T13:24:58.500Z</time>
      </trkpt>
      <trkpt lat="43.66705" lon="3.86699">
        <ele>52.8</ele>
        <time>2024-04-25T15:25:01+02:00</time>
      </trkpt>
      <trkpt lat="43.66711" lon="3.86707">
        <ele>53.4</ele>
        <time>2024-04-25T13:25:03.500Z</time>
      </trkpt>
      <trkpt lat="43.66717" lon="3.86716">
        <ele>53.8</ele>
        <time>2024-04-25T13:25:06.000Z</time>
      </trkpt>
      <trkpt lat="43.66722" lon="3.86724">
        <ele>54.2</ele>
        <time>2024-04-25T13:25:08.500Z</time>
      </trkpt>
      <trkpt lat="43.66728" lon="3.86732">
        <ele>54.4</ele>
        <time>2024-04-25T15:25:11+02:00</time>
      </trkpt>
      <trkpt lat="43.66732" lon="3.86737">
        <ele>54.3</ele>
        <time>2024-04-25T13:25:12.250Z</time>
      </trkpt>
      <trkpt lat="43.66737" lon="3.86743">
        <ele>54.3</ele>
        <time>2024-04-25T13:25:13.500Z</time>
      </trkpt>
      <trkpt lat="43.66741" lon="3.86748">
        <ele>54.1</ele>
        <time>2024-04-25T13:25:14.750Z</time>
      </trkpt>
      <trkpt lat="43.66746" lon="3.86754">
        <ele>54</ele>
        <time>2024-04-25T13:25:16.000Z</time>
      </trkpt>
      <trkpt lat="43.6675" lon="3.86759">
        <ele>54</ele>
        <time>2024-04-25T13:25:17.250Z</time>
      </trkpt>
      <trkpt lat="43.66754" lon="3.86764">
        <ele>54</ele>
        <time>2024-04-25T13:25:18.500Z</time>
      </trkpt>
      <trkpt lat="43.66759" lon="3.8677">
        <ele>54</ele>
        <time>2024-04-25T13:25:19.750Z</time>
      </trkpt>
      <trkpt lat="43.66763" lon="3.86775">
        <ele>53.9</ele>
        <time>2024-04-25T15:25:21+02:00</time>
      </trkpt>
      <trkpt lat="43.66768" lon="3.86784">
        <ele>53.9</ele>
        <time>2024-04-25T13:25:23.500Z</time>
      </trkpt>
      <trkpt lat="43.66774" lon="3.86792">
        <ele>53.7</ele>
        <time>2024-04-25T13:25:26.000Z</time>
      </trkpt>
      <trkpt lat="43.66779" lon="3.86801">
        <ele>53.6</ele>
        <time>2024-04-25T13:25:28.500Z</time>
      </trkpt>
      <trkpt lat="43.66784" lon="3.86809">
        <ele>53.9</ele>
        <time>2024-04-25T15:25:31+02:00</time>
      </trkpt>
      <trkpt lat="43.66792" lon="3.86816">
        <ele>53.9</ele>
        <time>2024-04-25T13:25:33.500Z</time>
      </trkpt>
      <trkpt lat="43.66799" lon="3.86822">
        <ele>53.8</ele>
        <time>2024-04-25T13:25:36.000Z</time>
      </trkpt>
      <trkpt lat="43.66807" lon="3.86829">
        <ele>53.7</ele>
        <time>2024-04-25T13:25:38.500Z</time>
      </trkpt>
      <trkpt lat="43.66814" lon="3.86835">
        <ele>54.2</ele>
        <time>2024-04-25T15:25:41+02:00</time>
      </trkpt>
      <trkpt lat="43.66821" lon="3.86841">
        <ele>54.8</ele>
        <time>2024-04-25T13:25:43.500Z</time>
      </trkpt>
      <trkpt lat="43.66829" lon="3.86846">
        <ele>55.4</ele>
        <time>2024-04-25T13:25:46.000Z</time>
      </trkpt>
      <trkpt lat="43.66836" lon="3.86852">
        <ele>56</ele>
        <time>2024-04-25T13:25:48.500Z</time>
      </trkpt>
      <trkpt lat="43.66843" lon="3.86857">
        <ele>56.6</ele>
        <time>2024-04-25T15:25:51+02:00</time>
      </trkpt>
      <trkpt lat="43.66849" lon="3.8686">
        <ele>56.9</ele>
        <time>2024-04-25T13:25:53.500Z</time>
      </trkpt>
      <trkpt lat="43.66855" lon="3.86863">
        <ele>57.3</ele>
        <time>2024-04-25T13:25:56.000Z</time>
      </trkpt>
      <trkpt lat="43.6686" lon="3.86866">
        <ele>57.9</ele>
        <time>2024-04-25T13:25:58.500Z</time>
      </trkpt>
      <trkpt lat="43.66866" lon="3.86869">
        <ele>58.2</ele>
        <time>2024-04-25T15:26:01+02:00</time>
      </trkpt>
      <trkpt lat="43.66871" lon="3.8687">
        <ele>58.2</ele>
        <time>2024-04-25T13:26:02.250Z</time>
      </trkpt>
      <trkpt lat="43.66876" lon="3.86871">
        <ele>58.2</ele>
        <time>2024-04-25T13:26:03.500Z</time>
      </trkpt>
      <trkpt lat="43.6688" lon="3.86871">
        <ele>58.1</ele>
        <time>2024-04-25T13:26:04.750Z</time>
      </trkpt>
      <trkpt lat="43.66885" lon="3.86872">
        <ele>58.1</ele>
        <time>2024-04-25T13:26:06.000Z</time>
      </trkpt>
      <trkpt lat="43.6689" lon="3.86873">
        <ele>58.1</ele>
        <time>2024-04-25T13:26:07.250Z</time>
      </trkpt>
      <trkpt lat="43.66895" lon="3.86874">
        <ele>58.1</ele>
        <time>2024-04-25T13:26:08.500Z</time>
      </trkpt>
      <trkpt lat="43.66899" lon="3.86874">
        <ele>58.2</ele>
        <time>2024-04-25T13:26:09.750Z</time>
      </trkpt>
      <trkpt lat="43.66904" lon="3.86875">
        <ele>58.2</ele>
        <time>2024-04-25T15:26:11+02:00</time>
      </trkpt>
      <trkpt lat="43.66911" lon="3.86875">
        <ele>58.1</ele>
        <time>2024-04-25T13:26:13.500Z</time>
      </trkpt>
      <trkpt lat="43.66918" lon="3.86875">
        <ele>58</ele>
        <time>2024-04-25T13:26:16.000Z</time>
      </trkpt>
      <trkpt lat="43.66924" lon="3.86875">
        <ele>58.1</ele>
        <time>2024-04-25T13:26:18.500Z</time>
      </trkpt>
      <trkpt lat="43.66931" lon="3.86875">
        <ele>58.3</ele>
        <time>2024-04-25T15:26:21+02:00</time>
      </trkpt>
      <trkpt lat="43.6694" lon="3.86874">
        <ele>58.3</ele>
        <time>2024-04-25T13:26:23.500Z</time>
      </trkpt>
      <trkpt lat="43.66948" lon="3.86874">
        <ele>58.2</ele>
        <time>2024-04-25T13:26:26.000Z</time>
      </trkpt>
      <trkpt lat="43.66957" lon="3.86873">
        <ele>58.1</ele>
        <time>2024-04-25T13:26:28.500Z</time>
      </trkpt>
      <trkpt lat="43.66965" lon="3.86872">
        <ele>58</ele>
        <time>2024-04-25T15:26:31+02:00</time>
      </trkpt>
      <trkpt lat="43.66971" lon="3.86871">
        <ele>57.7</ele>
        <time>2024-04-25T13:26:32.250Z</time>
      </trkpt>
      <trkpt lat="43.66976" lon="3.86869">
        <ele>57.6</ele>
        <time>2024-04-25T13:26:33.500Z</time>
      </trkpt>
      <trkpt lat="43.66982" lon="3.86868">
        <ele>57.7</ele>
        <time>2024-04-25T13:26:34.750Z</time>
      </trkpt>
      <trkpt lat="43.66988" lon="3.86867">
        <ele>57.6</ele>
        <time>2024-04-25T13:26:36.000Z</time>
      </trkpt>
      <trkpt lat="43.66993" lon="3.86865">
        <ele>57.6</ele>
        <time>2024-04-25T13:26:37.250Z</time>
      </trkpt>
      <trkpt lat="43.66999" lon="3.86864">
        <ele>57.5</ele>
        <time>2024-04-25T13:26:38.500Z</time>
      </trkpt>
      <trkpt lat="43.67004" lon="3.86862">
        <ele>57.4</ele>
        <time>2024-04-25T13:26:39.750Z</time>
      </trkpt>
      <trkpt lat="43.6701" lon="3.86861">
        <ele>57.3</ele>
        <time>2024-04-25T15:26:41+02:00</time>
      </trkpt>
      <trkpt lat="43.67015" lon="3.8686">
        <ele>57.4</ele>
        <time>2024-04-25T13:26:42.500Z</time>
      </trkpt>
      <trkpt lat="43.6702" lon="3.8686">
        <ele>57.5</ele>
        <time>2024-04-25T13:26:44.000Z</time>
      </trkpt>
      <trkpt lat="43.67024" lon="3.86859">
        <ele>57.5</ele>
        <time>2024-04-25T13:26:45.500Z</time>
      </trkpt>
      <trkpt lat="43.67029" lon="3.86858">
        <ele>57.6</ele>
        <time>2024-04-25T15:26:47+02:00</time>
      </trkpt>
      <trkpt lat="43.67034" lon="3.86856">
        <ele>57.7</ele>
        <time>2024-04-25T13:26:50.000Z</time>
      </trkpt>
      <trkpt lat="43.6704" lon="3.86854">
        <ele>57.7</ele>
        <time>2024-04-25T13:26:53.000Z</time>
      </trkpt>
      <trkpt lat="43.67045" lon="3.86852">
        <ele>57.7</ele>
        <time>2024-04-25T13:26:56.000Z</time>
      </trkpt>
      <trkpt lat="43.67051" lon="3.8685">
        <ele>57.7</ele>
        <time>2024-04-25T13:26:59.000Z</time>
      </trkpt>
      <trkpt lat="43.67056" lon="3.86848">
        <ele>57.7</ele>
        <time>2024-04-25T13:27:02.000Z</time>
      </trkpt>
      <trkpt lat="43.67061" lon="3.86846">
        <ele>57.7</ele>
        <time>2024-04-25T13:27:05.000Z</time>
      </trkpt>
      <trkpt lat="43.67067" lon="3.86844">
        <ele>57.6</ele>
        <time>2024-04-25T13:27:08.000Z</time>
      </trkpt>
      <trkpt lat="43.67072" lon="3.86842">
        <ele>57.5</ele>
        <time>2024-04-25T15:27:11+02:00</time>
      </trkpt>
      <trkpt lat="43.67079" lon="3.86842">
        <ele>57.9</ele>
        <time>2024-04-25T13:27:13.500Z</time>
      </trkpt>
      <trkpt lat="43.67086" lon="3.86842">
        <ele>58.2</ele>
        <time>2024-04-25T13:27:16.000Z</time>
      </trkpt>
      <trkpt lat="43.67093" lon="3.86841">
        <ele>58.6</ele>
        <time>2024-04-25T13:27:18.500Z</time>
      </trkpt>
      <trkpt lat="43.671" lon="3.86841">
        <ele>59</ele>
        <time>2024-04-25T15:27:21+02:00</time>
      </trkpt>
      <trkpt lat="43.67106" lon="3.86839">
        <ele>58.9</ele>
        <time>2024-04-25T13:27:22.250Z</time>
      </trkpt>
      <trkpt lat="43.67113" lon="3.86837">
        <ele>58.9</ele>
        <time>2024-04-25T13:27:23.500Z</time>
      </trkpt>
      <trkpt lat="43.67119" lon="3.86835">
        <ele>58.7</ele>
        <time>2024-04-25T13:27:24.750Z</time>
      </trkpt>
      <trkpt lat="43.67126" lon="3.86834">
        <ele>58.6</ele>
        <time>2024-04-25T13:27:26.000Z</time>
      </trkpt>
      <trkpt lat="43.67132" lon="3.86832">
        <ele>58.5</ele>
        <time>2024-04-25T13:27:27.250Z</time>
      </trkpt>
      <trkpt lat="43.67138" lon="3.8683">
        <ele>58.5</ele>
        <time>2024-04-25T13:27:28.500Z</time>
      </trkpt>
      <trkpt lat="43.67145" lon="3.86828">
        <ele>58.1</ele>
        <time>2024-04-25T13:27:29.750Z</time>
      </trkpt>
      <trkpt lat="43.67151" lon="3.86826">
        <ele>57.6</ele>
        <time>2024-04-25T15:27:31+02:00</time>
      </trkpt>
      <trkpt lat="43.67158" lon="3.8683">
        <ele>57.9</ele>
        <time>2024-04-25T13:27:33.500Z</time>
      </trkpt>
      <trkpt lat="43.67165" lon="3.86835">
        <ele>58.2</ele>
        <time>2024-04-25T13:27:36.000Z</time>
      </trkpt>
      <trkpt lat="43.67172" lon="3.86839">
        <ele>58.8</ele>
        <time>2024-04-25T13:27:38.500Z</time>
      </trkpt>
      <trkpt lat="43.67179" lon="3.86843">
        <ele>59.6</ele>
        <time>2024-04-25T15:27:41+02:00</time>
      </trkpt>
      <trkpt lat="43.67184" lon="3.86844">
        <ele>59.9</ele>
        <time>2024-04-25T13:27:46.000Z</time>
      </trkpt>
      <trkpt lat="43.67188" lon="3.86844">
        <ele>60.2</ele>
        <time>2024-04-25T13:27:51.000Z</time>
      </trkpt>
      <trkpt lat="43.67193" lon="3.86845">
        <ele>60.5</ele>
        <time>2024-04-25T13:27:56.000Z</time>
      </trkpt>
      <trkpt lat="43.67198" lon="3.86845">
        <ele>61</ele>
        <time>2024-04-25T13:28:01.000Z</time>
      </trkpt>
      <trkpt lat="43.67202" lon="3.86846">
        <ele>61.6</ele>
        <time>2024-04-25T13:28:06.000Z</time>
      </trkpt>
      <trkpt lat="43.67207" lon="3.86846">
        <ele>62.1</ele>
        <time>2024-04-25T13:28:11.000Z</time>
      </trkpt>
      <trkpt lat="43.67211" lon="3.86847">
        <ele>62.7</ele>
        <time>2024-04-25T13:28:16.000Z</time>
      </trkpt>
      <trkpt lat="43.67216" lon="3.86847">
        <ele>63.3</ele>
        <time>2024-04-25T15:28:21+02:00</time>
      </trkpt>
      <trkpt lat="43.6722" lon="3.86841">
        <ele>62.8</ele>
        <time>2024-04-25T13:28:23.500Z</time>
      </trkpt>
      <trkpt lat="43.67224" lon="3.86835">
        <ele>62.2</ele>
        <time>2024-04-25T13:28:26.000Z</time>
      </trkpt>
      <trkpt lat="43.67228" lon="3.86828">
        <ele>61.3</ele>
        <time>2024-04-25T13:28:28.500Z</time>
      </trkpt>
      <trkpt lat="43.67232" lon="3.86822">
        <ele>60.3</ele>
        <time>2024-04-25T15:28:31+02:00</time>
      </trkpt>
      <trkpt lat="43.6724" lon="3.86819">
        <ele>60</ele>
        <time>2024-04-25T13:28:36.000Z</time>
      </trkpt>
      <trkpt lat="43.67247" lon="3.86816">
        <ele>59.8</ele>
        <time>2024-04-25T15:28:41+02:00</time>
      </trkpt>
      <trkpt lat="43.67252" lon="3.86817">
        <ele>60.2</ele>
        <time>2024-04-25T13:28:43.000Z</time>
      </trkpt>
      <trkpt lat="43.67256" lon="3.86818">
        <ele>60.7</ele>
        <time>2024-04-25T15:28:45+02:00</time>
      </trkpt>
      <trkpt lat="43.67264" lon="3.86819">
        <ele>61.4</ele>
        <time>2024-04-25T13:28:48.000Z</time>
      </trkpt>
      <trkpt lat="43.67272" lon="3.8682">
        <ele>62.2</ele>
        <time>2024-04-25T15:28:51+02:00</time>
      </trkpt>
      <trkpt lat="43.67276" lon="3.8682">
        <ele>62.4</ele>
        <time>2024-04-25T15:29:01+02:00</time>
      </trkpt>
      <trkpt lat="43.67281" lon="3.86821">
        <ele>62.7</ele>
        <time>2024-04-25T13:29:04.750Z</time>
      </trkpt>
      <trkpt lat="43.67286" lon="3.86821">
        <ele>62.9</ele>
        <time>2024-04-25T13:29:08.500Z</time>
      </trkpt>
      <trkpt lat="43.6729" lon="3.86822">
        <ele>63.2</ele>
        <time>2024-04-25T13:29:12.250Z</time>
      </trkpt>
      <trkpt lat="43.67295" lon="3.86822">
        <ele>63.4</ele>
        <time>2024-04-25T13:29:16.000Z</time>
      </trkpt>
      <trkpt lat="43.673" lon="3.86823">
        <ele>63.6</ele>
        <time>2024-04-25T13:29:19.750Z</time>
      </trkpt>
      <trkpt lat="43.67305" lon="3.86823">
        <ele>63.9</ele>
        <time>2024-04-25T13:29:23.500Z</time>
      </trkpt>
      <trkpt lat="43.6731" lon="3.86824">
        <ele>63.8</ele>
        <time>2024-04-25T13:29:27.250Z</time>
      </trkpt>
      <trkpt lat="43.67315" lon="3.86824">
        <ele>63.7</ele>
        <time>2024-04-25T13:29:31.000Z</time>
      </trkpt>
      <trkpt lat="43.67319" lon="3.86825">
        <ele>63.6</ele>
        <time>2024-04-25T13:29:34.750Z</time>
      </trkpt>
      <trkpt lat="43.67324" lon="3.86825">
        <ele>63.4</ele>
        <time>2024-04-25T13:29:38.500Z</time>
      </trkpt>
      <trkpt lat="43.67329" lon="3.86826">
        <ele>63.3</ele>
        <time>2024-04-25T13:29:42.250Z</time>
      </trkpt>
      <trkpt lat="43.67334" lon="3.86826">
        <ele>63.2</ele>
        <time>2024-04-25T13:29:46.000Z</time>
      </trkpt>
      <trkpt lat="43.67339" lon="3.86827">
        <ele>62.9</ele>
        <time>2024-04-25T13:29:49.750Z</time>
      </trkpt>
      <trkpt lat="43.67343" lon="3.86827">
        <ele>62.7</ele>
        <time>2024-04-25T13:29:53.500Z</time>
      </trkpt>
      <trkpt lat="43.67348" lon="3.86828">
        <ele>62.4</ele>
        <time>2024-04-25T13:29:57.250Z</time>
      </trkpt>
      <trkpt lat="43.67353" lon="3.86828">
        <ele>62.1</ele>
        <time>2024-04-25T15:30:01+02:00</time>
      </trkpt>
      <trkpt lat="43.6736" lon="3.86825">
        <ele>61.4</ele>
        <time>2024-04-25T13:30:03.500Z</time>
      </trkpt>
      <trkpt lat="43.67367" lon="3.86821">
        <ele>60.8</ele>
        <time>2024-04-25T13:30:06.000Z</time>
      </trkpt>
      <trkpt lat="43.67374" lon="3.86818">
        <ele>60.2</ele>
        <time>2024-04-25T13:30:08.500Z</time>
      </trkpt>
      <trkpt lat="43.67381" lon="3.86814">
        <ele>59.7</ele>
        <time>2024-04-25T15:30:11+02:00</time>
      </trkpt>
      <trkpt lat="43.67385" lon="3.86819">
        <ele>59.7</ele>
        <time>2024-04-25T13:30:13.500Z</time>
      </trkpt>
      <trkpt lat="43.67388" lon="3.86824">
        <ele>59.7</ele>
        <time>2024-04-25T13:30:16.000Z</time>
      </trkpt>
      <trkpt lat="43.67392" lon="3.86828">
        <ele>59.7</ele>
        <time>2024-04-25T13:30:18.500Z</time>
      </trkpt>
      <trkpt lat="43.67395" lon="3.86833">
        <ele>59.8</ele>
        <time>2024-04-25T15:30:21+02:00</time>
      </trkpt>
      <trkpt lat="43.67403" lon="3.86834">
        <ele>59.5</ele>
        <time>2024-04-25T13:30:23.500Z</time>
      </trkpt>
      <trkpt lat="43.6741" lon="3.86835">
        <ele>59.3</ele>
        <time>2024-04-25T13:30:26.000Z</time>
      </trkpt>
      <trkpt lat="43.67418" lon="3.86835">
        <ele>59</ele>
        <time>2024-04-25T13:30:28.500Z</time>
      </trkpt>
      <trkpt lat="43.67425" lon="3.86836">
        <ele>58.8</ele>
        <time>2024-04-25T15:30:31+02:00</time>
      </trkpt>
      <trkpt lat="43.67433" lon="3.86835">
        <ele>58.5</ele>
        <time>2024-04-25T13:30:33.500Z</time>
      </trkpt>
      <trkpt lat="43.6744" lon="3.86833">
        <ele>58.1</ele>
        <time>2024-04-25T13:30:36.000Z</time>
      </trkpt>
      <trkpt lat="43.67448" lon="3.86832">
        <ele>57.8</ele>
        <time>2024-04-25T13:30:38.500Z</time>
      </trkpt>
      <trkpt lat="43.67455" lon="3.8683">
        <ele>57.5</ele>
        <time>2024-04-25T15:30:41+02:00</time>
      </trkpt>
      <trkpt lat="43.6746" lon="3.86828">
        <ele>57.4</ele>
        <time>2024-04-25T13:30:42.250Z</time>
      </trkpt>
      <trkpt lat="43.67465" lon="3.86827">
        <ele>57.2</ele>
        <time>2024-04-25T13:30:43.500Z</time>
      </trkpt>
      <trkpt lat="43.6747" lon="3.86825">
        <ele>57.1</ele>
        <time>2024-04-25T13:30:44.750Z</time>
      </trkpt>
      <trkpt lat="43.67475" lon="3.86823">
        <ele>57</ele>
        <time>2024-04-25T13:30:46.000Z</time>
      </trkpt>
      <trkpt lat="43.67479" lon="3.86821">
        <ele>57</ele>
        <time>2024-04-25T13:30:47.250Z</time>
      </trkpt>
      <trkpt lat="43.67484" lon="3.8682">
        <ele>57</ele>
        <time>2024-04-25T13:30:48.500Z</time>
      </trkpt>
      <trkpt lat="43.67489" lon="3.86818">
        <ele>57</ele>
        <time>2024-04-25T13:30:49.750Z</time>
      </trkpt>
      <trkpt lat="43.67494" lon="3.86816">
        <ele>57</ele>
        <time>2024-04-25T15:30:51+02:00</time>
      </trkpt>
      <trkpt lat="43.67499" lon="3.86813">
        <ele>57</ele>
        <time>2024-04-25T13:30:52.250Z</time>
      </trkpt>
      <trkpt lat="43.67504" lon="3.8681">
        <ele>56.7</ele>
        <time>2024-04-25T13:30:53.500Z</time>
      </trkpt>
      <trkpt lat="43.67509" lon="3.86807">
        <ele>56.4</ele>
        <time>2024-04-25T13:30:54.750Z</time>
      </trkpt>
      <trkpt lat="43.67514" lon="3.86804">
        <ele>55.9</ele>
        <time>2024-04-25T13:30:56.000Z</time>
      </trkpt>
      <trkpt lat="43.67519" lon="3.86801">
        <ele>55.4</ele>
        <time>2024-04-25T13:30:57.250Z</time>
      </trkpt>
      <trkpt lat="43.67524" lon="3.86798">
        <ele>55</ele>
        <time>2024-04-25T13:30:58.500Z</time>
        <extensions>
          <visugpx:TrkExtension xmlns:visugpx="https://www.visugpx.com/editgpx/">
            <visugpx:node>1</visugpx:node>
            </visugpx:TrkExtension>
        </extensions>
      </trkpt>
    </trkseg>
  </trk>
</gpx>